<?xml version="1.0" encoding="UTF-8" standalone="no" ?>
<gpx xmlns="http://www.topografix.com/GPX/1/1" xmlns:xsi="http://www.w3.org/2001/XMLSchema-instance" xsi:schemaLocation="http://www.topografix.com/GPX/1/1 http://www.topografix.com/GPX/1/1/gpx.xsd" version="1.1" creator="VisuGPX - https://www.visugpx.com">
  <metadata>
    <name>Sainté Lyon avec papa </name>
  </metadata>
  <trk>
    <name><![CDATA[Sainté Lyon avec papa ]]></name>
    <trkseg>
      <trkpt lat="45.63009" lon="4.59797">
        <ele>853.8</ele>
        <time>2021-09-04T16:36:37Z</time>
      </trkpt>
      <trkpt lat="45.63008" lon="4.59794">
        <ele>853.9</ele>
        <time>2021-09-04T16:36:38Z</time>
      </trkpt>
      <trkpt lat="45.63008" lon="4.59792">
        <ele>853.9</ele>
        <time>2021-09-04T16:36:39Z</time>
      </trkpt>
      <trkpt lat="45.63009" lon="4.59787">
        <ele>854.1</ele>
        <time>2021-09-04T16:36:41Z</time>
      </trkpt>
      <trkpt lat="45.63009" lon="4.59785">
        <ele>854.1</ele>
        <time>2021-09-04T16:36:42Z</time>
      </trkpt>
      <trkpt lat="45.63009" lon="4.59783">
        <ele>854.1</ele>
        <time>2021-09-04T16:36:43Z</time>
      </trkpt>
      <trkpt lat="45.63009" lon="4.59779">
        <ele>854.2</ele>
        <time>2021-09-04T16:36:45Z</time>
      </trkpt>
      <trkpt lat="45.63009" lon="4.59778">
        <ele>854.3</ele>
        <time>2021-09-04T16:36:46Z</time>
      </trkpt>
      <trkpt lat="45.6301" lon="4.59773">
        <ele>854.4</ele>
        <time>2021-09-04T16:36:47Z</time>
      </trkpt>
      <trkpt lat="45.6301" lon="4.59771">
        <ele>854.4</ele>
        <time>2021-09-04T16:36:48Z</time>
      </trkpt>
      <trkpt lat="45.63011" lon="4.59766">
        <ele>854.6</ele>
        <time>2021-09-04T16:36:50Z</time>
      </trkpt>
      <trkpt lat="45.63011" lon="4.59762">
        <ele>854.7</ele>
        <time>2021-09-04T16:36:51Z</time>
      </trkpt>
      <trkpt lat="45.63012" lon="4.59756">
        <ele>854.8</ele>
        <time>2021-09-04T16:36:53Z</time>
      </trkpt>
      <trkpt lat="45.63013" lon="4.59752">
        <ele>854.9</ele>
        <time>2021-09-04T16:36:55Z</time>
      </trkpt>
      <trkpt lat="45.63014" lon="4.59747">
        <ele>855</ele>
        <time>2021-09-04T16:36:56Z</time>
      </trkpt>
      <trkpt lat="45.63015" lon="4.59741">
        <ele>855.2</ele>
        <time>2021-09-04T16:36:58Z</time>
      </trkpt>
      <trkpt lat="45.63016" lon="4.59737">
        <ele>855.3</ele>
        <time>2021-09-04T16:36:59Z</time>
      </trkpt>
      <trkpt lat="45.63018" lon="4.59731">
        <ele>855.4</ele>
        <time>2021-09-04T16:37:01Z</time>
      </trkpt>
      <trkpt lat="45.63019" lon="4.59727">
        <ele>855.5</ele>
        <time>2021-09-04T16:37:03Z</time>
      </trkpt>
      <trkpt lat="45.63021" lon="4.59721">
        <ele>855.7</ele>
        <time>2021-09-04T16:37:04Z</time>
      </trkpt>
      <trkpt lat="45.63022" lon="4.59715">
        <ele>855.8</ele>
        <time>2021-09-04T16:37:06Z</time>
      </trkpt>
      <trkpt lat="45.63023" lon="4.59711">
        <ele>855.9</ele>
        <time>2021-09-04T16:37:07Z</time>
      </trkpt>
      <trkpt lat="45.63024" lon="4.59708">
        <ele>856</ele>
        <time>2021-09-04T16:37:08Z</time>
      </trkpt>
      <trkpt lat="45.63025" lon="4.59703">
        <ele>856.1</ele>
        <time>2021-09-04T16:37:10Z</time>
      </trkpt>
      <trkpt lat="45.63026" lon="4.59699">
        <ele>856.2</ele>
        <time>2021-09-04T16:37:11Z</time>
      </trkpt>
      <trkpt lat="45.63028" lon="4.59695">
        <ele>856.3</ele>
        <time>2021-09-04T16:37:12Z</time>
      </trkpt>
      <trkpt lat="45.63029" lon="4.59691">
        <ele>856.4</ele>
        <time>2021-09-04T16:37:13Z</time>
      </trkpt>
      <trkpt lat="45.6303" lon="4.59685">
        <ele>856.6</ele>
        <time>2021-09-04T16:37:15Z</time>
      </trkpt>
      <trkpt lat="45.63031" lon="4.59679">
        <ele>856.7</ele>
        <time>2021-09-04T16:37:17Z</time>
      </trkpt>
      <trkpt lat="45.63032" lon="4.59674">
        <ele>856.8</ele>
        <time>2021-09-04T16:37:18Z</time>
      </trkpt>
      <trkpt lat="45.63033" lon="4.59671">
        <ele>856.9</ele>
        <time>2021-09-04T16:37:19Z</time>
      </trkpt>
      <trkpt lat="45.63035" lon="4.59669">
        <ele>857</ele>
        <time>2021-09-04T16:37:20Z</time>
      </trkpt>
      <trkpt lat="45.63037" lon="4.59667">
        <ele>857.1</ele>
        <time>2021-09-04T16:37:22Z</time>
      </trkpt>
      <trkpt lat="45.63039" lon="4.59662">
        <ele>857.2</ele>
        <time>2021-09-04T16:37:23Z</time>
      </trkpt>
      <trkpt lat="45.63042" lon="4.59654">
        <ele>857.4</ele>
        <time>2021-09-04T16:37:25Z</time>
      </trkpt>
      <trkpt lat="45.63045" lon="4.59645">
        <ele>857.7</ele>
        <time>2021-09-04T16:37:27Z</time>
      </trkpt>
      <trkpt lat="45.63047" lon="4.5964">
        <ele>857.8</ele>
        <time>2021-09-04T16:37:28Z</time>
      </trkpt>
      <trkpt lat="45.63048" lon="4.59634">
        <ele>857.9</ele>
        <time>2021-09-04T16:37:30Z</time>
      </trkpt>
      <trkpt lat="45.6305" lon="4.59629">
        <ele>858.1</ele>
        <time>2021-09-04T16:37:31Z</time>
      </trkpt>
      <trkpt lat="45.63052" lon="4.59624">
        <ele>858.2</ele>
        <time>2021-09-04T16:37:32Z</time>
      </trkpt>
      <trkpt lat="45.63054" lon="4.59616">
        <ele>858.4</ele>
        <time>2021-09-04T16:37:34Z</time>
      </trkpt>
      <trkpt lat="45.63056" lon="4.59608">
        <ele>858.6</ele>
        <time>2021-09-04T16:37:36Z</time>
      </trkpt>
      <trkpt lat="45.63058" lon="4.59602">
        <ele>858.7</ele>
        <time>2021-09-04T16:37:37Z</time>
      </trkpt>
      <trkpt lat="45.6306" lon="4.59597">
        <ele>858.9</ele>
        <time>2021-09-04T16:37:39Z</time>
      </trkpt>
      <trkpt lat="45.63061" lon="4.59591">
        <ele>859</ele>
        <time>2021-09-04T16:37:40Z</time>
      </trkpt>
      <trkpt lat="45.63062" lon="4.59585">
        <ele>859.2</ele>
        <time>2021-09-04T16:37:41Z</time>
      </trkpt>
      <trkpt lat="45.63064" lon="4.59578">
        <ele>859.4</ele>
        <time>2021-09-04T16:37:43Z</time>
      </trkpt>
      <trkpt lat="45.63066" lon="4.59573">
        <ele>859.5</ele>
        <time>2021-09-04T16:37:44Z</time>
      </trkpt>
      <trkpt lat="45.63067" lon="4.59569">
        <ele>859.7</ele>
        <time>2021-09-04T16:37:45Z</time>
      </trkpt>
      <trkpt lat="45.63069" lon="4.59561">
        <ele>859.9</ele>
        <time>2021-09-04T16:37:47Z</time>
      </trkpt>
      <trkpt lat="45.6307" lon="4.59556">
        <ele>860</ele>
        <time>2021-09-04T16:37:48Z</time>
      </trkpt>
      <trkpt lat="45.63072" lon="4.59549">
        <ele>860.3</ele>
        <time>2021-09-04T16:37:50Z</time>
      </trkpt>
      <trkpt lat="45.63074" lon="4.59544">
        <ele>860.4</ele>
        <time>2021-09-04T16:37:51Z</time>
      </trkpt>
      <trkpt lat="45.63077" lon="4.59538">
        <ele>860.6</ele>
        <time>2021-09-04T16:37:53Z</time>
      </trkpt>
      <trkpt lat="45.63081" lon="4.59532">
        <ele>860.8</ele>
        <time>2021-09-04T16:37:54Z</time>
      </trkpt>
      <trkpt lat="45.63085" lon="4.59527">
        <ele>860.9</ele>
        <time>2021-09-04T16:37:56Z</time>
      </trkpt>
      <trkpt lat="45.63089" lon="4.59524">
        <ele>861.1</ele>
        <time>2021-09-04T16:37:57Z</time>
      </trkpt>
      <trkpt lat="45.63095" lon="4.5952">
        <ele>861.2</ele>
        <time>2021-09-04T16:37:59Z</time>
      </trkpt>
      <trkpt lat="45.63099" lon="4.59518">
        <ele>861.4</ele>
        <time>2021-09-04T16:38:01Z</time>
      </trkpt>
      <trkpt lat="45.63103" lon="4.59517">
        <ele>861.5</ele>
        <time>2021-09-04T16:38:02Z</time>
      </trkpt>
      <trkpt lat="45.63108" lon="4.59518">
        <ele>861.6</ele>
        <time>2021-09-04T16:38:03Z</time>
      </trkpt>
      <trkpt lat="45.63112" lon="4.59519">
        <ele>861.7</ele>
        <time>2021-09-04T16:38:04Z</time>
      </trkpt>
      <trkpt lat="45.63117" lon="4.59521">
        <ele>861.9</ele>
        <time>2021-09-04T16:38:06Z</time>
      </trkpt>
      <trkpt lat="45.63121" lon="4.59524">
        <ele>862</ele>
        <time>2021-09-04T16:38:07Z</time>
      </trkpt>
      <trkpt lat="45.63124" lon="4.59526">
        <ele>862.1</ele>
        <time>2021-09-04T16:38:08Z</time>
      </trkpt>
      <trkpt lat="45.63129" lon="4.59531">
        <ele>862.3</ele>
        <time>2021-09-04T16:38:10Z</time>
      </trkpt>
      <trkpt lat="45.63132" lon="4.59534">
        <ele>862.4</ele>
        <time>2021-09-04T16:38:11Z</time>
      </trkpt>
      <trkpt lat="45.63137" lon="4.59541">
        <ele>862.5</ele>
        <time>2021-09-04T16:38:13Z</time>
      </trkpt>
      <trkpt lat="45.63141" lon="4.59548">
        <ele>862.7</ele>
        <time>2021-09-04T16:38:15Z</time>
      </trkpt>
      <trkpt lat="45.63144" lon="4.59552">
        <ele>862.8</ele>
        <time>2021-09-04T16:38:16Z</time>
      </trkpt>
      <trkpt lat="45.63146" lon="4.59556">
        <ele>862.9</ele>
        <time>2021-09-04T16:38:18Z</time>
      </trkpt>
      <trkpt lat="45.6315" lon="4.59561">
        <ele>863</ele>
        <time>2021-09-04T16:38:19Z</time>
      </trkpt>
      <trkpt lat="45.63152" lon="4.59565">
        <ele>863.1</ele>
        <time>2021-09-04T16:38:20Z</time>
      </trkpt>
      <trkpt lat="45.63155" lon="4.5957">
        <ele>863.2</ele>
        <time>2021-09-04T16:38:22Z</time>
      </trkpt>
      <trkpt lat="45.63159" lon="4.59576">
        <ele>863.4</ele>
        <time>2021-09-04T16:38:23Z</time>
      </trkpt>
      <trkpt lat="45.63161" lon="4.5958">
        <ele>863.4</ele>
        <time>2021-09-04T16:38:24Z</time>
      </trkpt>
      <trkpt lat="45.63164" lon="4.59583">
        <ele>863.5</ele>
        <time>2021-09-04T16:38:25Z</time>
      </trkpt>
      <trkpt lat="45.63166" lon="4.59586">
        <ele>863.6</ele>
        <time>2021-09-04T16:38:26Z</time>
      </trkpt>
      <trkpt lat="45.6317" lon="4.59592">
        <ele>863.7</ele>
        <time>2021-09-04T16:38:28Z</time>
      </trkpt>
      <trkpt lat="45.63173" lon="4.59596">
        <ele>863.8</ele>
        <time>2021-09-04T16:38:29Z</time>
      </trkpt>
      <trkpt lat="45.63177" lon="4.596">
        <ele>863.9</ele>
        <time>2021-09-04T16:38:31Z</time>
      </trkpt>
      <trkpt lat="45.63183" lon="4.59605">
        <ele>864</ele>
        <time>2021-09-04T16:38:32Z</time>
      </trkpt>
      <trkpt lat="45.63188" lon="4.59609">
        <ele>864.1</ele>
        <time>2021-09-04T16:38:34Z</time>
      </trkpt>
      <trkpt lat="45.63193" lon="4.59613">
        <ele>864.1</ele>
        <time>2021-09-04T16:38:36Z</time>
      </trkpt>
      <trkpt lat="45.63198" lon="4.59615">
        <ele>864.1</ele>
        <time>2021-09-04T16:38:37Z</time>
      </trkpt>
      <trkpt lat="45.63203" lon="4.59616">
        <ele>864.1</ele>
        <time>2021-09-04T16:38:39Z</time>
      </trkpt>
      <trkpt lat="45.63204" lon="4.59616">
        <ele>864</ele>
        <time>2021-09-04T16:38:40Z</time>
      </trkpt>
      <trkpt lat="45.63205" lon="4.59616">
        <ele>864</ele>
        <time>2021-09-04T16:38:41Z</time>
      </trkpt>
      <trkpt lat="45.63208" lon="4.59617">
        <ele>864</ele>
        <time>2021-09-04T16:38:43Z</time>
      </trkpt>
      <trkpt lat="45.63212" lon="4.59619">
        <ele>863.9</ele>
        <time>2021-09-04T16:38:45Z</time>
      </trkpt>
      <trkpt lat="45.6322" lon="4.59619">
        <ele>863.7</ele>
        <time>2021-09-04T16:38:47Z</time>
      </trkpt>
      <trkpt lat="45.63232" lon="4.59615">
        <ele>863.2</ele>
        <time>2021-09-04T16:38:49Z</time>
      </trkpt>
      <trkpt lat="45.63239" lon="4.59613">
        <ele>862.9</ele>
        <time>2021-09-04T16:38:50Z</time>
      </trkpt>
      <trkpt lat="45.63268" lon="4.59606">
        <ele>861.4</ele>
        <time>2021-09-04T16:38:52Z</time>
      </trkpt>
      <trkpt lat="45.63278" lon="4.59603">
        <ele>860.9</ele>
        <time>2021-09-04T16:38:53Z</time>
      </trkpt>
      <trkpt lat="45.63287" lon="4.596">
        <ele>860.4</ele>
        <time>2021-09-04T16:38:54Z</time>
      </trkpt>
      <trkpt lat="45.63302" lon="4.59595">
        <ele>859.4</ele>
        <time>2021-09-04T16:38:56Z</time>
      </trkpt>
      <trkpt lat="45.6331" lon="4.59592">
        <ele>859</ele>
        <time>2021-09-04T16:38:57Z</time>
      </trkpt>
      <trkpt lat="45.63326" lon="4.59587">
        <ele>858.1</ele>
        <time>2021-09-04T16:38:59Z</time>
      </trkpt>
      <trkpt lat="45.63334" lon="4.59584">
        <ele>857.6</ele>
        <time>2021-09-04T16:39:00Z</time>
      </trkpt>
      <trkpt lat="45.63342" lon="4.59582">
        <ele>857.2</ele>
        <time>2021-09-04T16:39:01Z</time>
      </trkpt>
      <trkpt lat="45.63351" lon="4.59579">
        <ele>856.7</ele>
        <time>2021-09-04T16:39:02Z</time>
      </trkpt>
      <trkpt lat="45.63359" lon="4.59576">
        <ele>856.3</ele>
        <time>2021-09-04T16:39:03Z</time>
      </trkpt>
      <trkpt lat="45.63377" lon="4.59571">
        <ele>855.4</ele>
        <time>2021-09-04T16:39:05Z</time>
      </trkpt>
      <trkpt lat="45.63395" lon="4.59564">
        <ele>854.5</ele>
        <time>2021-09-04T16:39:07Z</time>
      </trkpt>
      <trkpt lat="45.63412" lon="4.59557">
        <ele>853.7</ele>
        <time>2021-09-04T16:39:09Z</time>
      </trkpt>
      <trkpt lat="45.63421" lon="4.59552">
        <ele>853.3</ele>
        <time>2021-09-04T16:39:10Z</time>
      </trkpt>
      <trkpt lat="45.63439" lon="4.59546">
        <ele>852.7</ele>
        <time>2021-09-04T16:39:12Z</time>
      </trkpt>
      <trkpt lat="45.63447" lon="4.59542">
        <ele>852.4</ele>
        <time>2021-09-04T16:39:13Z</time>
      </trkpt>
      <trkpt lat="45.63464" lon="4.59534">
        <ele>852.1</ele>
        <time>2021-09-04T16:39:15Z</time>
      </trkpt>
      <trkpt lat="45.6348" lon="4.59521">
        <ele>852.2</ele>
        <time>2021-09-04T16:39:17Z</time>
      </trkpt>
      <trkpt lat="45.63492" lon="4.59504">
        <ele>852.5</ele>
        <time>2021-09-04T16:39:19Z</time>
      </trkpt>
      <trkpt lat="45.63497" lon="4.59494">
        <ele>852.8</ele>
        <time>2021-09-04T16:39:20Z</time>
      </trkpt>
      <trkpt lat="45.635" lon="4.59484">
        <ele>853.2</ele>
        <time>2021-09-04T16:39:21Z</time>
      </trkpt>
      <trkpt lat="45.63504" lon="4.59473">
        <ele>853.6</ele>
        <time>2021-09-04T16:39:22Z</time>
      </trkpt>
      <trkpt lat="45.63507" lon="4.59464">
        <ele>854</ele>
        <time>2021-09-04T16:39:23Z</time>
      </trkpt>
      <trkpt lat="45.6351" lon="4.59455">
        <ele>854.1</ele>
        <time>2021-09-04T16:39:24Z</time>
      </trkpt>
      <trkpt lat="45.63511" lon="4.59437">
        <ele>854.5</ele>
        <time>2021-09-04T16:39:26Z</time>
      </trkpt>
      <trkpt lat="45.6351" lon="4.59428">
        <ele>854.7</ele>
        <time>2021-09-04T16:39:28Z</time>
      </trkpt>
      <trkpt lat="45.6351" lon="4.59423">
        <ele>854.9</ele>
        <time>2021-09-04T16:39:29Z</time>
      </trkpt>
      <trkpt lat="45.63509" lon="4.59414">
        <ele>855.1</ele>
        <time>2021-09-04T16:39:31Z</time>
      </trkpt>
      <trkpt lat="45.6351" lon="4.59403">
        <ele>855.4</ele>
        <time>2021-09-04T16:39:33Z</time>
      </trkpt>
      <trkpt lat="45.63509" lon="4.59398">
        <ele>855.5</ele>
        <time>2021-09-04T16:39:34Z</time>
      </trkpt>
      <trkpt lat="45.63509" lon="4.59388">
        <ele>855.8</ele>
        <time>2021-09-04T16:39:36Z</time>
      </trkpt>
      <trkpt lat="45.6351" lon="4.5938">
        <ele>856</ele>
        <time>2021-09-04T16:39:37Z</time>
      </trkpt>
      <trkpt lat="45.6351" lon="4.59372">
        <ele>856.2</ele>
        <time>2021-09-04T16:39:39Z</time>
      </trkpt>
      <trkpt lat="45.6351" lon="4.59363">
        <ele>856.5</ele>
        <time>2021-09-04T16:39:40Z</time>
      </trkpt>
      <trkpt lat="45.63511" lon="4.59357">
        <ele>856.6</ele>
        <time>2021-09-04T16:39:41Z</time>
      </trkpt>
      <trkpt lat="45.63511" lon="4.59352">
        <ele>856.8</ele>
        <time>2021-09-04T16:39:42Z</time>
      </trkpt>
      <trkpt lat="45.63511" lon="4.59343">
        <ele>857</ele>
        <time>2021-09-04T16:39:44Z</time>
      </trkpt>
      <trkpt lat="45.63511" lon="4.59336">
        <ele>857.2</ele>
        <time>2021-09-04T16:39:45Z</time>
      </trkpt>
      <trkpt lat="45.63512" lon="4.59328">
        <ele>857.5</ele>
        <time>2021-09-04T16:39:47Z</time>
      </trkpt>
      <trkpt lat="45.63512" lon="4.5932">
        <ele>857.7</ele>
        <time>2021-09-04T16:39:48Z</time>
      </trkpt>
      <trkpt lat="45.63512" lon="4.59311">
        <ele>858</ele>
        <time>2021-09-04T16:39:50Z</time>
      </trkpt>
      <trkpt lat="45.63513" lon="4.59304">
        <ele>858.2</ele>
        <time>2021-09-04T16:39:51Z</time>
      </trkpt>
      <trkpt lat="45.63514" lon="4.59295">
        <ele>858.4</ele>
        <time>2021-09-04T16:39:53Z</time>
      </trkpt>
      <trkpt lat="45.63515" lon="4.59287">
        <ele>858.6</ele>
        <time>2021-09-04T16:39:54Z</time>
      </trkpt>
      <trkpt lat="45.63515" lon="4.59277">
        <ele>858.9</ele>
        <time>2021-09-04T16:39:56Z</time>
      </trkpt>
      <trkpt lat="45.63516" lon="4.59269">
        <ele>859</ele>
        <time>2021-09-04T16:39:58Z</time>
      </trkpt>
      <trkpt lat="45.63517" lon="4.59262">
        <ele>859.2</ele>
        <time>2021-09-04T16:39:59Z</time>
      </trkpt>
      <trkpt lat="45.63517" lon="4.59257">
        <ele>859.3</ele>
        <time>2021-09-04T16:40:00Z</time>
      </trkpt>
      <trkpt lat="45.63517" lon="4.59248">
        <ele>859.4</ele>
        <time>2021-09-04T16:40:02Z</time>
      </trkpt>
      <trkpt lat="45.63516" lon="4.59241">
        <ele>859.5</ele>
        <time>2021-09-04T16:40:03Z</time>
      </trkpt>
      <trkpt lat="45.63516" lon="4.59232">
        <ele>859.6</ele>
        <time>2021-09-04T16:40:05Z</time>
      </trkpt>
      <trkpt lat="45.63515" lon="4.59227">
        <ele>859.6</ele>
        <time>2021-09-04T16:40:06Z</time>
      </trkpt>
      <trkpt lat="45.63513" lon="4.59223">
        <ele>859.7</ele>
        <time>2021-09-04T16:40:08Z</time>
      </trkpt>
      <trkpt lat="45.63513" lon="4.59221">
        <ele>859.7</ele>
        <time>2021-09-04T16:40:09Z</time>
      </trkpt>
      <trkpt lat="45.63511" lon="4.59214">
        <ele>859.9</ele>
        <time>2021-09-04T16:40:11Z</time>
      </trkpt>
      <trkpt lat="45.6351" lon="4.59205">
        <ele>860</ele>
        <time>2021-09-04T16:40:12Z</time>
      </trkpt>
      <trkpt lat="45.6351" lon="4.59199">
        <ele>860.1</ele>
        <time>2021-09-04T16:40:13Z</time>
      </trkpt>
      <trkpt lat="45.63509" lon="4.59192">
        <ele>860.1</ele>
        <time>2021-09-04T16:40:14Z</time>
      </trkpt>
      <trkpt lat="45.63509" lon="4.59184">
        <ele>860.2</ele>
        <time>2021-09-04T16:40:15Z</time>
      </trkpt>
      <trkpt lat="45.6351" lon="4.59174">
        <ele>860.4</ele>
        <time>2021-09-04T16:40:17Z</time>
      </trkpt>
      <trkpt lat="45.63512" lon="4.59166">
        <ele>860.5</ele>
        <time>2021-09-04T16:40:18Z</time>
      </trkpt>
      <trkpt lat="45.63513" lon="4.59159">
        <ele>860.5</ele>
        <time>2021-09-04T16:40:19Z</time>
      </trkpt>
      <trkpt lat="45.63517" lon="4.59149">
        <ele>860.6</ele>
        <time>2021-09-04T16:40:21Z</time>
      </trkpt>
      <trkpt lat="45.6352" lon="4.59142">
        <ele>860.7</ele>
        <time>2021-09-04T16:40:22Z</time>
      </trkpt>
      <trkpt lat="45.63525" lon="4.59133">
        <ele>860.8</ele>
        <time>2021-09-04T16:40:24Z</time>
      </trkpt>
      <trkpt lat="45.63529" lon="4.59127">
        <ele>860.9</ele>
        <time>2021-09-04T16:40:25Z</time>
      </trkpt>
      <trkpt lat="45.63534" lon="4.5912">
        <ele>861</ele>
        <time>2021-09-04T16:40:27Z</time>
      </trkpt>
      <trkpt lat="45.63538" lon="4.59114">
        <ele>861.1</ele>
        <time>2021-09-04T16:40:28Z</time>
      </trkpt>
      <trkpt lat="45.63541" lon="4.5911">
        <ele>861.1</ele>
        <time>2021-09-04T16:40:29Z</time>
      </trkpt>
      <trkpt lat="45.63544" lon="4.59105">
        <ele>861.2</ele>
        <time>2021-09-04T16:40:31Z</time>
      </trkpt>
      <trkpt lat="45.63549" lon="4.59098">
        <ele>861.3</ele>
        <time>2021-09-04T16:40:32Z</time>
      </trkpt>
      <trkpt lat="45.63552" lon="4.59095">
        <ele>861.3</ele>
        <time>2021-09-04T16:40:33Z</time>
      </trkpt>
      <trkpt lat="45.63557" lon="4.59088">
        <ele>861.4</ele>
        <time>2021-09-04T16:40:35Z</time>
      </trkpt>
      <trkpt lat="45.63561" lon="4.5908">
        <ele>861.4</ele>
        <time>2021-09-04T16:40:37Z</time>
      </trkpt>
      <trkpt lat="45.63563" lon="4.59072">
        <ele>861.5</ele>
        <time>2021-09-04T16:40:38Z</time>
      </trkpt>
      <trkpt lat="45.63566" lon="4.59062">
        <ele>861.6</ele>
        <time>2021-09-04T16:40:40Z</time>
      </trkpt>
      <trkpt lat="45.63569" lon="4.59055">
        <ele>861.6</ele>
        <time>2021-09-04T16:40:41Z</time>
      </trkpt>
      <trkpt lat="45.63571" lon="4.59048">
        <ele>861.7</ele>
        <time>2021-09-04T16:40:42Z</time>
      </trkpt>
      <trkpt lat="45.63575" lon="4.59034">
        <ele>861.8</ele>
        <time>2021-09-04T16:40:44Z</time>
      </trkpt>
      <trkpt lat="45.63578" lon="4.59022">
        <ele>861.8</ele>
        <time>2021-09-04T16:40:46Z</time>
      </trkpt>
      <trkpt lat="45.63582" lon="4.59015">
        <ele>861.9</ele>
        <time>2021-09-04T16:40:48Z</time>
      </trkpt>
      <trkpt lat="45.63583" lon="4.59005">
        <ele>862</ele>
        <time>2021-09-04T16:40:49Z</time>
      </trkpt>
      <trkpt lat="45.63584" lon="4.58995">
        <ele>862.1</ele>
        <time>2021-09-04T16:40:51Z</time>
      </trkpt>
      <trkpt lat="45.63586" lon="4.58986">
        <ele>862.2</ele>
        <time>2021-09-04T16:40:52Z</time>
      </trkpt>
      <trkpt lat="45.63587" lon="4.58977">
        <ele>862.3</ele>
        <time>2021-09-04T16:40:54Z</time>
      </trkpt>
      <trkpt lat="45.63587" lon="4.58969">
        <ele>862.4</ele>
        <time>2021-09-04T16:40:55Z</time>
      </trkpt>
      <trkpt lat="45.63587" lon="4.58959">
        <ele>862.6</ele>
        <time>2021-09-04T16:40:57Z</time>
      </trkpt>
      <trkpt lat="45.63588" lon="4.58951">
        <ele>862.7</ele>
        <time>2021-09-04T16:40:58Z</time>
      </trkpt>
      <trkpt lat="45.63588" lon="4.58941">
        <ele>862.9</ele>
        <time>2021-09-04T16:41:00Z</time>
      </trkpt>
      <trkpt lat="45.63587" lon="4.58935">
        <ele>862.9</ele>
        <time>2021-09-04T16:41:01Z</time>
      </trkpt>
      <trkpt lat="45.63586" lon="4.58925">
        <ele>863</ele>
        <time>2021-09-04T16:41:03Z</time>
      </trkpt>
      <trkpt lat="45.63585" lon="4.58915">
        <ele>863.1</ele>
        <time>2021-09-04T16:41:05Z</time>
      </trkpt>
      <trkpt lat="45.63584" lon="4.58907">
        <ele>863.2</ele>
        <time>2021-09-04T16:41:06Z</time>
      </trkpt>
      <trkpt lat="45.63583" lon="4.58899">
        <ele>863.2</ele>
        <time>2021-09-04T16:41:08Z</time>
      </trkpt>
      <trkpt lat="45.63582" lon="4.58889">
        <ele>863.3</ele>
        <time>2021-09-04T16:41:09Z</time>
      </trkpt>
      <trkpt lat="45.6358" lon="4.58881">
        <ele>863.4</ele>
        <time>2021-09-04T16:41:10Z</time>
      </trkpt>
      <trkpt lat="45.63577" lon="4.5887">
        <ele>863.6</ele>
        <time>2021-09-04T16:41:12Z</time>
      </trkpt>
      <trkpt lat="45.63576" lon="4.58864">
        <ele>863.7</ele>
        <time>2021-09-04T16:41:13Z</time>
      </trkpt>
      <trkpt lat="45.63574" lon="4.58855">
        <ele>863.8</ele>
        <time>2021-09-04T16:41:15Z</time>
      </trkpt>
      <trkpt lat="45.63573" lon="4.58847">
        <ele>863.9</ele>
        <time>2021-09-04T16:41:16Z</time>
      </trkpt>
      <trkpt lat="45.63571" lon="4.58836">
        <ele>864</ele>
        <time>2021-09-04T16:41:18Z</time>
      </trkpt>
      <trkpt lat="45.63569" lon="4.58828">
        <ele>864.1</ele>
        <time>2021-09-04T16:41:19Z</time>
      </trkpt>
      <trkpt lat="45.63567" lon="4.58818">
        <ele>864.2</ele>
        <time>2021-09-04T16:41:21Z</time>
      </trkpt>
      <trkpt lat="45.63566" lon="4.5881">
        <ele>864.2</ele>
        <time>2021-09-04T16:41:22Z</time>
      </trkpt>
      <trkpt lat="45.63564" lon="4.58803">
        <ele>864.3</ele>
        <time>2021-09-04T16:41:23Z</time>
      </trkpt>
      <trkpt lat="45.63563" lon="4.58797">
        <ele>864.3</ele>
        <time>2021-09-04T16:41:24Z</time>
      </trkpt>
      <trkpt lat="45.63562" lon="4.58791">
        <ele>864.3</ele>
        <time>2021-09-04T16:41:25Z</time>
      </trkpt>
      <trkpt lat="45.6356" lon="4.58783">
        <ele>864.3</ele>
        <time>2021-09-04T16:41:27Z</time>
      </trkpt>
      <trkpt lat="45.63558" lon="4.58776">
        <ele>864.4</ele>
        <time>2021-09-04T16:41:28Z</time>
      </trkpt>
      <trkpt lat="45.63554" lon="4.58767">
        <ele>864.4</ele>
        <time>2021-09-04T16:41:29Z</time>
      </trkpt>
      <trkpt lat="45.63552" lon="4.58762">
        <ele>864.4</ele>
        <time>2021-09-04T16:41:30Z</time>
      </trkpt>
      <trkpt lat="45.63548" lon="4.58748">
        <ele>864.4</ele>
        <time>2021-09-04T16:41:32Z</time>
      </trkpt>
      <trkpt lat="45.63546" lon="4.5874">
        <ele>864.4</ele>
        <time>2021-09-04T16:41:33Z</time>
      </trkpt>
      <trkpt lat="45.63545" lon="4.58732">
        <ele>864.4</ele>
        <time>2021-09-04T16:41:35Z</time>
      </trkpt>
      <trkpt lat="45.63543" lon="4.58721">
        <ele>864.3</ele>
        <time>2021-09-04T16:41:36Z</time>
      </trkpt>
      <trkpt lat="45.63543" lon="4.58713">
        <ele>864.3</ele>
        <time>2021-09-04T16:41:37Z</time>
      </trkpt>
      <trkpt lat="45.63541" lon="4.587">
        <ele>864.2</ele>
        <time>2021-09-04T16:41:39Z</time>
      </trkpt>
      <trkpt lat="45.63541" lon="4.58686">
        <ele>864.1</ele>
        <time>2021-09-04T16:41:41Z</time>
      </trkpt>
      <trkpt lat="45.6354" lon="4.58675">
        <ele>863.9</ele>
        <time>2021-09-04T16:41:43Z</time>
      </trkpt>
      <trkpt lat="45.6354" lon="4.58664">
        <ele>863.8</ele>
        <time>2021-09-04T16:41:44Z</time>
      </trkpt>
      <trkpt lat="45.6354" lon="4.5865">
        <ele>863.6</ele>
        <time>2021-09-04T16:41:46Z</time>
      </trkpt>
      <trkpt lat="45.63539" lon="4.58633">
        <ele>863.4</ele>
        <time>2021-09-04T16:41:48Z</time>
      </trkpt>
      <trkpt lat="45.63539" lon="4.58616">
        <ele>863.1</ele>
        <time>2021-09-04T16:41:50Z</time>
      </trkpt>
      <trkpt lat="45.63539" lon="4.58608">
        <ele>863</ele>
        <time>2021-09-04T16:41:51Z</time>
      </trkpt>
      <trkpt lat="45.6354" lon="4.58591">
        <ele>862.7</ele>
        <time>2021-09-04T16:41:53Z</time>
      </trkpt>
      <trkpt lat="45.6354" lon="4.58583">
        <ele>862.5</ele>
        <time>2021-09-04T16:41:54Z</time>
      </trkpt>
      <trkpt lat="45.63543" lon="4.58565">
        <ele>862.2</ele>
        <time>2021-09-04T16:41:56Z</time>
      </trkpt>
      <trkpt lat="45.63547" lon="4.58557">
        <ele>862.1</ele>
        <time>2021-09-04T16:41:57Z</time>
      </trkpt>
      <trkpt lat="45.63554" lon="4.58543">
        <ele>861.8</ele>
        <time>2021-09-04T16:41:59Z</time>
      </trkpt>
      <trkpt lat="45.63564" lon="4.58532">
        <ele>861.5</ele>
        <time>2021-09-04T16:42:01Z</time>
      </trkpt>
      <trkpt lat="45.63568" lon="4.58528">
        <ele>861.4</ele>
        <time>2021-09-04T16:42:02Z</time>
      </trkpt>
      <trkpt lat="45.63575" lon="4.5852">
        <ele>861.2</ele>
        <time>2021-09-04T16:42:04Z</time>
      </trkpt>
      <trkpt lat="45.63582" lon="4.58513">
        <ele>861</ele>
        <time>2021-09-04T16:42:06Z</time>
      </trkpt>
      <trkpt lat="45.63587" lon="4.58505">
        <ele>860.9</ele>
        <time>2021-09-04T16:42:08Z</time>
      </trkpt>
      <trkpt lat="45.63591" lon="4.58502">
        <ele>860.8</ele>
        <time>2021-09-04T16:42:09Z</time>
      </trkpt>
      <trkpt lat="45.63594" lon="4.58498">
        <ele>860.7</ele>
        <time>2021-09-04T16:42:10Z</time>
      </trkpt>
      <trkpt lat="45.63596" lon="4.58496">
        <ele>860.6</ele>
        <time>2021-09-04T16:42:11Z</time>
      </trkpt>
      <trkpt lat="45.636" lon="4.58492">
        <ele>860.6</ele>
        <time>2021-09-04T16:42:13Z</time>
      </trkpt>
      <trkpt lat="45.63604" lon="4.58493">
        <ele>860.5</ele>
        <time>2021-09-04T16:42:14Z</time>
      </trkpt>
      <trkpt lat="45.63608" lon="4.5849">
        <ele>860.4</ele>
        <time>2021-09-04T16:42:15Z</time>
      </trkpt>
      <trkpt lat="45.6361" lon="4.58487">
        <ele>860.3</ele>
        <time>2021-09-04T16:42:16Z</time>
      </trkpt>
      <trkpt lat="45.63614" lon="4.58483">
        <ele>860.3</ele>
        <time>2021-09-04T16:42:18Z</time>
      </trkpt>
      <trkpt lat="45.63617" lon="4.58478">
        <ele>860.2</ele>
        <time>2021-09-04T16:42:19Z</time>
      </trkpt>
      <trkpt lat="45.6362" lon="4.58474">
        <ele>860.1</ele>
        <time>2021-09-04T16:42:20Z</time>
      </trkpt>
      <trkpt lat="45.63622" lon="4.58472">
        <ele>860</ele>
        <time>2021-09-04T16:42:21Z</time>
      </trkpt>
      <trkpt lat="45.63625" lon="4.58471">
        <ele>859.9</ele>
        <time>2021-09-04T16:42:22Z</time>
      </trkpt>
      <trkpt lat="45.63628" lon="4.58471">
        <ele>860.1</ele>
        <time>2021-09-04T16:42:24Z</time>
      </trkpt>
      <trkpt lat="45.63631" lon="4.58474">
        <ele>860.3</ele>
        <time>2021-09-04T16:42:25Z</time>
      </trkpt>
      <trkpt lat="45.63631" lon="4.58477">
        <ele>860.5</ele>
        <time>2021-09-04T16:42:26Z</time>
      </trkpt>
      <trkpt lat="45.6363" lon="4.58481">
        <ele>860.7</ele>
        <time>2021-09-04T16:42:28Z</time>
      </trkpt>
      <trkpt lat="45.63627" lon="4.58485">
        <ele>861.1</ele>
        <time>2021-09-04T16:42:29Z</time>
      </trkpt>
      <trkpt lat="45.63624" lon="4.58489">
        <ele>861.4</ele>
        <time>2021-09-04T16:42:31Z</time>
      </trkpt>
      <trkpt lat="45.63622" lon="4.58492">
        <ele>861.6</ele>
        <time>2021-09-04T16:42:32Z</time>
      </trkpt>
      <trkpt lat="45.63619" lon="4.58497">
        <ele>862</ele>
        <time>2021-09-04T16:42:34Z</time>
      </trkpt>
      <trkpt lat="45.63617" lon="4.58499">
        <ele>862.2</ele>
        <time>2021-09-04T16:42:35Z</time>
      </trkpt>
      <trkpt lat="45.63616" lon="4.585">
        <ele>862.4</ele>
        <time>2021-09-04T16:42:36Z</time>
      </trkpt>
      <trkpt lat="45.63613" lon="4.58506">
        <ele>862.9</ele>
        <time>2021-09-04T16:42:38Z</time>
      </trkpt>
      <trkpt lat="45.63612" lon="4.58507">
        <ele>863</ele>
        <time>2021-09-04T16:42:40Z</time>
      </trkpt>
      <trkpt lat="45.63612" lon="4.58509">
        <ele>863.1</ele>
        <time>2021-09-04T16:42:41Z</time>
      </trkpt>
      <trkpt lat="45.63611" lon="4.58511">
        <ele>863.3</ele>
        <time>2021-09-04T16:42:42Z</time>
      </trkpt>
      <trkpt lat="45.6361" lon="4.58515">
        <ele>863.6</ele>
        <time>2021-09-04T16:42:44Z</time>
      </trkpt>
      <trkpt lat="45.63611" lon="4.58517">
        <ele>863.8</ele>
        <time>2021-09-04T16:42:45Z</time>
      </trkpt>
      <trkpt lat="45.63611" lon="4.58519">
        <ele>863.9</ele>
        <time>2021-09-04T16:42:46Z</time>
      </trkpt>
      <trkpt lat="45.63611" lon="4.58521">
        <ele>864.1</ele>
        <time>2021-09-04T16:42:47Z</time>
      </trkpt>
      <trkpt lat="45.63611" lon="4.58523">
        <ele>864.3</ele>
        <time>2021-09-04T16:42:48Z</time>
      </trkpt>
      <trkpt lat="45.63612" lon="4.58527">
        <ele>864.7</ele>
        <time>2021-09-04T16:42:50Z</time>
      </trkpt>
      <trkpt lat="45.63612" lon="4.58528">
        <ele>864.8</ele>
        <time>2021-09-04T16:42:51Z</time>
      </trkpt>
      <trkpt lat="45.63612" lon="4.58533">
        <ele>865.2</ele>
        <time>2021-09-04T16:42:53Z</time>
      </trkpt>
      <trkpt lat="45.63612" lon="4.58534">
        <ele>865.4</ele>
        <time>2021-09-04T16:42:54Z</time>
      </trkpt>
      <trkpt lat="45.63613" lon="4.58539">
        <ele>865.8</ele>
        <time>2021-09-04T16:42:56Z</time>
      </trkpt>
      <trkpt lat="45.63613" lon="4.5854">
        <ele>865.9</ele>
        <time>2021-09-04T16:42:57Z</time>
      </trkpt>
      <trkpt lat="45.63613" lon="4.58542">
        <ele>866.1</ele>
        <time>2021-09-04T16:42:58Z</time>
      </trkpt>
      <trkpt lat="45.63613" lon="4.58545">
        <ele>866.5</ele>
        <time>2021-09-04T16:43:00Z</time>
      </trkpt>
      <trkpt lat="45.63613" lon="4.58548">
        <ele>866.7</ele>
        <time>2021-09-04T16:43:01Z</time>
      </trkpt>
      <trkpt lat="45.63613" lon="4.5855">
        <ele>866.9</ele>
        <time>2021-09-04T16:43:02Z</time>
      </trkpt>
      <trkpt lat="45.63613" lon="4.58555">
        <ele>867.4</ele>
        <time>2021-09-04T16:43:04Z</time>
      </trkpt>
      <trkpt lat="45.63613" lon="4.58556">
        <ele>867.5</ele>
        <time>2021-09-04T16:43:05Z</time>
      </trkpt>
      <trkpt lat="45.63612" lon="4.5856">
        <ele>867.9</ele>
        <time>2021-09-04T16:43:07Z</time>
      </trkpt>
      <trkpt lat="45.63611" lon="4.58562">
        <ele>868</ele>
        <time>2021-09-04T16:43:08Z</time>
      </trkpt>
      <trkpt lat="45.63611" lon="4.58566">
        <ele>868.4</ele>
        <time>2021-09-04T16:43:09Z</time>
      </trkpt>
      <trkpt lat="45.6361" lon="4.58568">
        <ele>868.5</ele>
        <time>2021-09-04T16:43:10Z</time>
      </trkpt>
      <trkpt lat="45.6361" lon="4.58574">
        <ele>869</ele>
        <time>2021-09-04T16:43:12Z</time>
      </trkpt>
      <trkpt lat="45.63609" lon="4.58576">
        <ele>869.2</ele>
        <time>2021-09-04T16:43:13Z</time>
      </trkpt>
      <trkpt lat="45.63607" lon="4.58579">
        <ele>869.5</ele>
        <time>2021-09-04T16:43:14Z</time>
      </trkpt>
      <trkpt lat="45.63606" lon="4.58584">
        <ele>869.9</ele>
        <time>2021-09-04T16:43:16Z</time>
      </trkpt>
      <trkpt lat="45.63604" lon="4.58589">
        <ele>870.3</ele>
        <time>2021-09-04T16:43:18Z</time>
      </trkpt>
      <trkpt lat="45.63603" lon="4.58593">
        <ele>870.6</ele>
        <time>2021-09-04T16:43:19Z</time>
      </trkpt>
      <trkpt lat="45.63601" lon="4.58597">
        <ele>871</ele>
        <time>2021-09-04T16:43:21Z</time>
      </trkpt>
      <trkpt lat="45.636" lon="4.58601">
        <ele>871.3</ele>
        <time>2021-09-04T16:43:22Z</time>
      </trkpt>
      <trkpt lat="45.63599" lon="4.58605">
        <ele>871.7</ele>
        <time>2021-09-04T16:43:24Z</time>
      </trkpt>
      <trkpt lat="45.63598" lon="4.58607">
        <ele>871.8</ele>
        <time>2021-09-04T16:43:25Z</time>
      </trkpt>
      <trkpt lat="45.63597" lon="4.58611">
        <ele>872.2</ele>
        <time>2021-09-04T16:43:26Z</time>
      </trkpt>
      <trkpt lat="45.63596" lon="4.58616">
        <ele>872.6</ele>
        <time>2021-09-04T16:43:28Z</time>
      </trkpt>
      <trkpt lat="45.63595" lon="4.58618">
        <ele>872.8</ele>
        <time>2021-09-04T16:43:29Z</time>
      </trkpt>
      <trkpt lat="45.63594" lon="4.58622">
        <ele>873.2</ele>
        <time>2021-09-04T16:43:30Z</time>
      </trkpt>
      <trkpt lat="45.63594" lon="4.58625">
        <ele>873.4</ele>
        <time>2021-09-04T16:43:31Z</time>
      </trkpt>
      <trkpt lat="45.63592" lon="4.58628">
        <ele>873.8</ele>
        <time>2021-09-04T16:43:33Z</time>
      </trkpt>
      <trkpt lat="45.63591" lon="4.58631">
        <ele>874</ele>
        <time>2021-09-04T16:43:34Z</time>
      </trkpt>
      <trkpt lat="45.6359" lon="4.58637">
        <ele>874.5</ele>
        <time>2021-09-04T16:43:36Z</time>
      </trkpt>
      <trkpt lat="45.6359" lon="4.58642">
        <ele>874.9</ele>
        <time>2021-09-04T16:43:38Z</time>
      </trkpt>
      <trkpt lat="45.63589" lon="4.58646">
        <ele>875.2</ele>
        <time>2021-09-04T16:43:39Z</time>
      </trkpt>
      <trkpt lat="45.63588" lon="4.58651">
        <ele>875.5</ele>
        <time>2021-09-04T16:43:41Z</time>
      </trkpt>
      <trkpt lat="45.63589" lon="4.58654">
        <ele>875.8</ele>
        <time>2021-09-04T16:43:42Z</time>
      </trkpt>
      <trkpt lat="45.6359" lon="4.58659">
        <ele>876.1</ele>
        <time>2021-09-04T16:43:44Z</time>
      </trkpt>
      <trkpt lat="45.63592" lon="4.58663">
        <ele>876.5</ele>
        <time>2021-09-04T16:43:46Z</time>
      </trkpt>
      <trkpt lat="45.63593" lon="4.58665">
        <ele>876.6</ele>
        <time>2021-09-04T16:43:47Z</time>
      </trkpt>
      <trkpt lat="45.63595" lon="4.58668">
        <ele>876.9</ele>
        <time>2021-09-04T16:43:49Z</time>
      </trkpt>
      <trkpt lat="45.63597" lon="4.58672">
        <ele>877.2</ele>
        <time>2021-09-04T16:43:51Z</time>
      </trkpt>
      <trkpt lat="45.63597" lon="4.58673">
        <ele>877.3</ele>
        <time>2021-09-04T16:43:52Z</time>
      </trkpt>
      <trkpt lat="45.63599" lon="4.58677">
        <ele>877.6</ele>
        <time>2021-09-04T16:43:53Z</time>
      </trkpt>
      <trkpt lat="45.636" lon="4.58678">
        <ele>877.7</ele>
        <time>2021-09-04T16:43:54Z</time>
      </trkpt>
      <trkpt lat="45.63602" lon="4.58679">
        <ele>877.8</ele>
        <time>2021-09-04T16:43:55Z</time>
      </trkpt>
      <trkpt lat="45.63603" lon="4.58682">
        <ele>878.1</ele>
        <time>2021-09-04T16:43:57Z</time>
      </trkpt>
      <trkpt lat="45.63606" lon="4.58685">
        <ele>878.4</ele>
        <time>2021-09-04T16:43:58Z</time>
      </trkpt>
      <trkpt lat="45.63606" lon="4.58686">
        <ele>878.5</ele>
        <time>2021-09-04T16:43:59Z</time>
      </trkpt>
      <trkpt lat="45.63607" lon="4.58688">
        <ele>878.7</ele>
        <time>2021-09-04T16:44:00Z</time>
      </trkpt>
      <trkpt lat="45.63609" lon="4.5869">
        <ele>878.9</ele>
        <time>2021-09-04T16:44:02Z</time>
      </trkpt>
      <trkpt lat="45.6361" lon="4.58692">
        <ele>879.1</ele>
        <time>2021-09-04T16:44:03Z</time>
      </trkpt>
      <trkpt lat="45.63613" lon="4.58695">
        <ele>879.4</ele>
        <time>2021-09-04T16:44:05Z</time>
      </trkpt>
      <trkpt lat="45.63616" lon="4.58697">
        <ele>879.7</ele>
        <time>2021-09-04T16:44:06Z</time>
      </trkpt>
      <trkpt lat="45.63618" lon="4.58698">
        <ele>879.9</ele>
        <time>2021-09-04T16:44:07Z</time>
      </trkpt>
      <trkpt lat="45.63621" lon="4.587">
        <ele>880.3</ele>
        <time>2021-09-04T16:44:09Z</time>
      </trkpt>
      <trkpt lat="45.63623" lon="4.58701">
        <ele>880.5</ele>
        <time>2021-09-04T16:44:10Z</time>
      </trkpt>
      <trkpt lat="45.63626" lon="4.58701">
        <ele>880.7</ele>
        <time>2021-09-04T16:44:12Z</time>
      </trkpt>
      <trkpt lat="45.63629" lon="4.58701">
        <ele>881</ele>
        <time>2021-09-04T16:44:13Z</time>
      </trkpt>
      <trkpt lat="45.63633" lon="4.58702">
        <ele>881.3</ele>
        <time>2021-09-04T16:44:14Z</time>
      </trkpt>
      <trkpt lat="45.63636" lon="4.58703">
        <ele>881.6</ele>
        <time>2021-09-04T16:44:15Z</time>
      </trkpt>
      <trkpt lat="45.63638" lon="4.58703">
        <ele>881.7</ele>
        <time>2021-09-04T16:44:16Z</time>
      </trkpt>
      <trkpt lat="45.63641" lon="4.58704">
        <ele>881.9</ele>
        <time>2021-09-04T16:44:18Z</time>
      </trkpt>
      <trkpt lat="45.63645" lon="4.58704">
        <ele>882.2</ele>
        <time>2021-09-04T16:44:19Z</time>
      </trkpt>
      <trkpt lat="45.63647" lon="4.58704">
        <ele>882.4</ele>
        <time>2021-09-04T16:44:20Z</time>
      </trkpt>
      <trkpt lat="45.63651" lon="4.58705">
        <ele>882.7</ele>
        <time>2021-09-04T16:44:22Z</time>
      </trkpt>
      <trkpt lat="45.63655" lon="4.58706">
        <ele>882.9</ele>
        <time>2021-09-04T16:44:23Z</time>
      </trkpt>
      <trkpt lat="45.63656" lon="4.58706">
        <ele>883</ele>
        <time>2021-09-04T16:44:24Z</time>
      </trkpt>
      <trkpt lat="45.63659" lon="4.58706">
        <ele>883.2</ele>
        <time>2021-09-04T16:44:26Z</time>
      </trkpt>
      <trkpt lat="45.63662" lon="4.58706">
        <ele>883.4</ele>
        <time>2021-09-04T16:44:27Z</time>
      </trkpt>
      <trkpt lat="45.63666" lon="4.58706">
        <ele>883.7</ele>
        <time>2021-09-04T16:44:29Z</time>
      </trkpt>
      <trkpt lat="45.63669" lon="4.58706">
        <ele>883.9</ele>
        <time>2021-09-04T16:44:30Z</time>
      </trkpt>
      <trkpt lat="45.6367" lon="4.58707">
        <ele>883.9</ele>
        <time>2021-09-04T16:44:31Z</time>
      </trkpt>
      <trkpt lat="45.63672" lon="4.58707">
        <ele>884.1</ele>
        <time>2021-09-04T16:44:32Z</time>
      </trkpt>
      <trkpt lat="45.63675" lon="4.58707">
        <ele>884.3</ele>
        <time>2021-09-04T16:44:34Z</time>
      </trkpt>
      <trkpt lat="45.63677" lon="4.58708">
        <ele>884.4</ele>
        <time>2021-09-04T16:44:35Z</time>
      </trkpt>
      <trkpt lat="45.63678" lon="4.58708">
        <ele>884.4</ele>
        <time>2021-09-04T16:44:36Z</time>
      </trkpt>
      <trkpt lat="45.63679" lon="4.58708">
        <ele>884.5</ele>
        <time>2021-09-04T16:44:38Z</time>
      </trkpt>
      <trkpt lat="45.6368" lon="4.58708">
        <ele>884.6</ele>
        <time>2021-09-04T16:44:39Z</time>
      </trkpt>
      <trkpt lat="45.63683" lon="4.58709">
        <ele>884.8</ele>
        <time>2021-09-04T16:44:41Z</time>
      </trkpt>
      <trkpt lat="45.63684" lon="4.58709">
        <ele>884.9</ele>
        <time>2021-09-04T16:44:42Z</time>
      </trkpt>
      <trkpt lat="45.63688" lon="4.58709">
        <ele>885.1</ele>
        <time>2021-09-04T16:44:44Z</time>
      </trkpt>
      <trkpt lat="45.63689" lon="4.58709">
        <ele>885.2</ele>
        <time>2021-09-04T16:44:45Z</time>
      </trkpt>
      <trkpt lat="45.63692" lon="4.58709">
        <ele>885.4</ele>
        <time>2021-09-04T16:44:47Z</time>
      </trkpt>
      <trkpt lat="45.63695" lon="4.58709">
        <ele>885.7</ele>
        <time>2021-09-04T16:44:49Z</time>
      </trkpt>
      <trkpt lat="45.63699" lon="4.58709">
        <ele>885.9</ele>
        <time>2021-09-04T16:44:50Z</time>
      </trkpt>
      <trkpt lat="45.63702" lon="4.5871">
        <ele>886.2</ele>
        <time>2021-09-04T16:44:51Z</time>
      </trkpt>
      <trkpt lat="45.63707" lon="4.58711">
        <ele>886.5</ele>
        <time>2021-09-04T16:44:53Z</time>
      </trkpt>
      <trkpt lat="45.6371" lon="4.58712">
        <ele>886.8</ele>
        <time>2021-09-04T16:44:54Z</time>
      </trkpt>
      <trkpt lat="45.63713" lon="4.58713">
        <ele>887</ele>
        <time>2021-09-04T16:44:55Z</time>
      </trkpt>
      <trkpt lat="45.63716" lon="4.58713">
        <ele>887.2</ele>
        <time>2021-09-04T16:44:56Z</time>
      </trkpt>
      <trkpt lat="45.6372" lon="4.58714">
        <ele>887.4</ele>
        <time>2021-09-04T16:44:58Z</time>
      </trkpt>
      <trkpt lat="45.63724" lon="4.58715">
        <ele>887.7</ele>
        <time>2021-09-04T16:44:59Z</time>
      </trkpt>
      <trkpt lat="45.63729" lon="4.58716">
        <ele>887.9</ele>
        <time>2021-09-04T16:45:01Z</time>
      </trkpt>
      <trkpt lat="45.63732" lon="4.58717">
        <ele>888.1</ele>
        <time>2021-09-04T16:45:03Z</time>
      </trkpt>
      <trkpt lat="45.63736" lon="4.58717">
        <ele>888.3</ele>
        <time>2021-09-04T16:45:04Z</time>
      </trkpt>
      <trkpt lat="45.63739" lon="4.58718">
        <ele>888.5</ele>
        <time>2021-09-04T16:45:06Z</time>
      </trkpt>
      <trkpt lat="45.63741" lon="4.58718">
        <ele>888.6</ele>
        <time>2021-09-04T16:45:07Z</time>
      </trkpt>
      <trkpt lat="45.63744" lon="4.58719">
        <ele>888.7</ele>
        <time>2021-09-04T16:45:09Z</time>
      </trkpt>
      <trkpt lat="45.63747" lon="4.58719">
        <ele>888.8</ele>
        <time>2021-09-04T16:45:10Z</time>
      </trkpt>
      <trkpt lat="45.6375" lon="4.58719">
        <ele>889</ele>
        <time>2021-09-04T16:45:12Z</time>
      </trkpt>
      <trkpt lat="45.63754" lon="4.58719">
        <ele>889.1</ele>
        <time>2021-09-04T16:45:14Z</time>
      </trkpt>
      <trkpt lat="45.63755" lon="4.5872">
        <ele>889.2</ele>
        <time>2021-09-04T16:45:15Z</time>
      </trkpt>
      <trkpt lat="45.63759" lon="4.58718">
        <ele>889.3</ele>
        <time>2021-09-04T16:45:17Z</time>
      </trkpt>
      <trkpt lat="45.63763" lon="4.58716">
        <ele>889.5</ele>
        <time>2021-09-04T16:45:19Z</time>
      </trkpt>
      <trkpt lat="45.63766" lon="4.58713">
        <ele>889.6</ele>
        <time>2021-09-04T16:45:20Z</time>
      </trkpt>
      <trkpt lat="45.63769" lon="4.5871">
        <ele>889.7</ele>
        <time>2021-09-04T16:45:22Z</time>
      </trkpt>
      <trkpt lat="45.63772" lon="4.58707">
        <ele>889.8</ele>
        <time>2021-09-04T16:45:23Z</time>
      </trkpt>
      <trkpt lat="45.63776" lon="4.58703">
        <ele>889.9</ele>
        <time>2021-09-04T16:45:25Z</time>
      </trkpt>
      <trkpt lat="45.63777" lon="4.58701">
        <ele>890</ele>
        <time>2021-09-04T16:45:26Z</time>
      </trkpt>
      <trkpt lat="45.63779" lon="4.58699">
        <ele>890</ele>
        <time>2021-09-04T16:45:27Z</time>
      </trkpt>
      <trkpt lat="45.6378" lon="4.58698">
        <ele>890.1</ele>
        <time>2021-09-04T16:45:28Z</time>
      </trkpt>
      <trkpt lat="45.63782" lon="4.58697">
        <ele>890.1</ele>
        <time>2021-09-04T16:45:29Z</time>
      </trkpt>
      <trkpt lat="45.63783" lon="4.58697">
        <ele>890.2</ele>
        <time>2021-09-04T16:45:30Z</time>
      </trkpt>
      <trkpt lat="45.63787" lon="4.58697">
        <ele>890.3</ele>
        <time>2021-09-04T16:45:32Z</time>
      </trkpt>
      <trkpt lat="45.6379" lon="4.58699">
        <ele>890.4</ele>
        <time>2021-09-04T16:45:33Z</time>
      </trkpt>
      <trkpt lat="45.63792" lon="4.58701">
        <ele>890.5</ele>
        <time>2021-09-04T16:45:34Z</time>
      </trkpt>
      <trkpt lat="45.63796" lon="4.58703">
        <ele>890.6</ele>
        <time>2021-09-04T16:45:36Z</time>
      </trkpt>
      <trkpt lat="45.63799" lon="4.58705">
        <ele>890.8</ele>
        <time>2021-09-04T16:45:37Z</time>
      </trkpt>
      <trkpt lat="45.63802" lon="4.58707">
        <ele>891</ele>
        <time>2021-09-04T16:45:38Z</time>
      </trkpt>
      <trkpt lat="45.63806" lon="4.5871">
        <ele>891.3</ele>
        <time>2021-09-04T16:45:40Z</time>
      </trkpt>
      <trkpt lat="45.63809" lon="4.58712">
        <ele>891.6</ele>
        <time>2021-09-04T16:45:41Z</time>
      </trkpt>
      <trkpt lat="45.63814" lon="4.58714">
        <ele>892</ele>
        <time>2021-09-04T16:45:43Z</time>
      </trkpt>
      <trkpt lat="45.63817" lon="4.58717">
        <ele>892.4</ele>
        <time>2021-09-04T16:45:44Z</time>
      </trkpt>
      <trkpt lat="45.63821" lon="4.58719">
        <ele>892.8</ele>
        <time>2021-09-04T16:45:46Z</time>
      </trkpt>
      <trkpt lat="45.63825" lon="4.58721">
        <ele>893.1</ele>
        <time>2021-09-04T16:45:47Z</time>
      </trkpt>
      <trkpt lat="45.63828" lon="4.58722">
        <ele>893.4</ele>
        <time>2021-09-04T16:45:48Z</time>
      </trkpt>
      <trkpt lat="45.63831" lon="4.58724">
        <ele>893.7</ele>
        <time>2021-09-04T16:45:49Z</time>
      </trkpt>
      <trkpt lat="45.63835" lon="4.58726">
        <ele>894.1</ele>
        <time>2021-09-04T16:45:51Z</time>
      </trkpt>
      <trkpt lat="45.63839" lon="4.58727">
        <ele>894.4</ele>
        <time>2021-09-04T16:45:52Z</time>
      </trkpt>
      <trkpt lat="45.63841" lon="4.58728">
        <ele>894.6</ele>
        <time>2021-09-04T16:45:53Z</time>
      </trkpt>
      <trkpt lat="45.63845" lon="4.5873">
        <ele>895</ele>
        <time>2021-09-04T16:45:55Z</time>
      </trkpt>
      <trkpt lat="45.63847" lon="4.58732">
        <ele>895.1</ele>
        <time>2021-09-04T16:45:56Z</time>
      </trkpt>
      <trkpt lat="45.6385" lon="4.58734">
        <ele>895.4</ele>
        <time>2021-09-04T16:45:58Z</time>
      </trkpt>
      <trkpt lat="45.63854" lon="4.58737">
        <ele>895.7</ele>
        <time>2021-09-04T16:45:59Z</time>
      </trkpt>
      <trkpt lat="45.63855" lon="4.58738">
        <ele>895.8</ele>
        <time>2021-09-04T16:46:00Z</time>
      </trkpt>
      <trkpt lat="45.63859" lon="4.58741">
        <ele>896.1</ele>
        <time>2021-09-04T16:46:02Z</time>
      </trkpt>
      <trkpt lat="45.63863" lon="4.58743">
        <ele>896.3</ele>
        <time>2021-09-04T16:46:04Z</time>
      </trkpt>
      <trkpt lat="45.63866" lon="4.58744">
        <ele>896.4</ele>
        <time>2021-09-04T16:46:05Z</time>
      </trkpt>
      <trkpt lat="45.63869" lon="4.58745">
        <ele>896.6</ele>
        <time>2021-09-04T16:46:06Z</time>
      </trkpt>
      <trkpt lat="45.63872" lon="4.58746">
        <ele>896.7</ele>
        <time>2021-09-04T16:46:08Z</time>
      </trkpt>
      <trkpt lat="45.63875" lon="4.58747">
        <ele>896.8</ele>
        <time>2021-09-04T16:46:09Z</time>
      </trkpt>
      <trkpt lat="45.63879" lon="4.58748">
        <ele>896.9</ele>
        <time>2021-09-04T16:46:10Z</time>
      </trkpt>
      <trkpt lat="45.63881" lon="4.58749">
        <ele>896.9</ele>
        <time>2021-09-04T16:46:11Z</time>
      </trkpt>
      <trkpt lat="45.63885" lon="4.58752">
        <ele>896.7</ele>
        <time>2021-09-04T16:46:13Z</time>
      </trkpt>
      <trkpt lat="45.63888" lon="4.58755">
        <ele>896.6</ele>
        <time>2021-09-04T16:46:14Z</time>
      </trkpt>
      <trkpt lat="45.63889" lon="4.58755">
        <ele>896.5</ele>
        <time>2021-09-04T16:46:15Z</time>
      </trkpt>
      <trkpt lat="45.63891" lon="4.58758">
        <ele>896.4</ele>
        <time>2021-09-04T16:46:17Z</time>
      </trkpt>
      <trkpt lat="45.63893" lon="4.58761">
        <ele>896.2</ele>
        <time>2021-09-04T16:46:18Z</time>
      </trkpt>
      <trkpt lat="45.63895" lon="4.58764">
        <ele>896</ele>
        <time>2021-09-04T16:46:19Z</time>
      </trkpt>
      <trkpt lat="45.63897" lon="4.58767">
        <ele>895.8</ele>
        <time>2021-09-04T16:46:20Z</time>
      </trkpt>
      <trkpt lat="45.639" lon="4.5877">
        <ele>895.6</ele>
        <time>2021-09-04T16:46:21Z</time>
      </trkpt>
      <trkpt lat="45.63907" lon="4.58775">
        <ele>895</ele>
        <time>2021-09-04T16:46:22Z</time>
      </trkpt>
      <trkpt lat="45.63913" lon="4.5878">
        <ele>894.5</ele>
        <time>2021-09-04T16:46:23Z</time>
      </trkpt>
      <trkpt lat="45.63947" lon="4.58805">
        <ele>890.8</ele>
        <time>2021-09-04T16:46:25Z</time>
      </trkpt>
      <trkpt lat="45.63958" lon="4.58809">
        <ele>889.5</ele>
        <time>2021-09-04T16:46:26Z</time>
      </trkpt>
      <trkpt lat="45.63967" lon="4.58811">
        <ele>888.4</ele>
        <time>2021-09-04T16:46:27Z</time>
      </trkpt>
      <trkpt lat="45.63976" lon="4.58811">
        <ele>887.2</ele>
        <time>2021-09-04T16:46:28Z</time>
      </trkpt>
      <trkpt lat="45.6399" lon="4.58809">
        <ele>885.2</ele>
        <time>2021-09-04T16:46:30Z</time>
      </trkpt>
      <trkpt lat="45.64001" lon="4.58806">
        <ele>883.6</ele>
        <time>2021-09-04T16:46:32Z</time>
      </trkpt>
      <trkpt lat="45.64007" lon="4.58803">
        <ele>882.6</ele>
        <time>2021-09-04T16:46:33Z</time>
      </trkpt>
      <trkpt lat="45.64022" lon="4.58806">
        <ele>880.3</ele>
        <time>2021-09-04T16:46:35Z</time>
      </trkpt>
      <trkpt lat="45.64036" lon="4.58804">
        <ele>877.9</ele>
        <time>2021-09-04T16:46:37Z</time>
      </trkpt>
      <trkpt lat="45.64047" lon="4.58804">
        <ele>876.2</ele>
        <time>2021-09-04T16:46:39Z</time>
      </trkpt>
      <trkpt lat="45.64051" lon="4.58804">
        <ele>875.6</ele>
        <time>2021-09-04T16:46:40Z</time>
      </trkpt>
      <trkpt lat="45.64055" lon="4.58803">
        <ele>875</ele>
        <time>2021-09-04T16:46:41Z</time>
      </trkpt>
      <trkpt lat="45.64056" lon="4.58804">
        <ele>874.8</ele>
        <time>2021-09-04T16:46:42Z</time>
      </trkpt>
      <trkpt lat="45.64058" lon="4.58804">
        <ele>874.5</ele>
        <time>2021-09-04T16:46:43Z</time>
      </trkpt>
      <trkpt lat="45.64064" lon="4.58804">
        <ele>873.7</ele>
        <time>2021-09-04T16:46:45Z</time>
      </trkpt>
      <trkpt lat="45.64067" lon="4.58804">
        <ele>873.4</ele>
        <time>2021-09-04T16:46:46Z</time>
      </trkpt>
      <trkpt lat="45.64069" lon="4.58807">
        <ele>873</ele>
        <time>2021-09-04T16:46:48Z</time>
      </trkpt>
      <trkpt lat="45.64071" lon="4.58806">
        <ele>872.8</ele>
        <time>2021-09-04T16:46:49Z</time>
      </trkpt>
      <trkpt lat="45.64074" lon="4.58805">
        <ele>872.4</ele>
        <time>2021-09-04T16:46:51Z</time>
      </trkpt>
      <trkpt lat="45.64076" lon="4.58805">
        <ele>872.2</ele>
        <time>2021-09-04T16:46:52Z</time>
      </trkpt>
      <trkpt lat="45.64077" lon="4.58806">
        <ele>872.1</ele>
        <time>2021-09-04T16:46:53Z</time>
      </trkpt>
      <trkpt lat="45.64078" lon="4.58808">
        <ele>871.6</ele>
        <time>2021-09-04T16:46:54Z</time>
      </trkpt>
      <trkpt lat="45.64078" lon="4.5881">
        <ele>871.6</ele>
        <time>2021-09-04T16:46:55Z</time>
      </trkpt>
      <trkpt lat="45.64078" lon="4.58812">
        <ele>871.6</ele>
        <time>2021-09-04T16:46:56Z</time>
      </trkpt>
      <trkpt lat="45.64076" lon="4.58815">
        <ele>871.7</ele>
        <time>2021-09-04T16:46:58Z</time>
      </trkpt>
      <trkpt lat="45.64075" lon="4.58819">
        <ele>871.9</ele>
        <time>2021-09-04T16:46:59Z</time>
      </trkpt>
      <trkpt lat="45.64073" lon="4.58822">
        <ele>872.1</ele>
        <time>2021-09-04T16:47:01Z</time>
      </trkpt>
      <trkpt lat="45.64073" lon="4.58825">
        <ele>872.2</ele>
        <time>2021-09-04T16:47:03Z</time>
      </trkpt>
      <trkpt lat="45.64073" lon="4.58827">
        <ele>872.3</ele>
        <time>2021-09-04T16:47:04Z</time>
      </trkpt>
      <trkpt lat="45.64071" lon="4.5883">
        <ele>872.6</ele>
        <time>2021-09-04T16:47:05Z</time>
      </trkpt>
      <trkpt lat="45.6407" lon="4.58831">
        <ele>872.7</ele>
        <time>2021-09-04T16:47:06Z</time>
      </trkpt>
      <trkpt lat="45.64069" lon="4.58833">
        <ele>872.9</ele>
        <time>2021-09-04T16:47:07Z</time>
      </trkpt>
      <trkpt lat="45.64066" lon="4.58836">
        <ele>873.2</ele>
        <time>2021-09-04T16:47:09Z</time>
      </trkpt>
      <trkpt lat="45.64064" lon="4.58837">
        <ele>873.4</ele>
        <time>2021-09-04T16:47:10Z</time>
      </trkpt>
      <trkpt lat="45.64063" lon="4.58838">
        <ele>873.5</ele>
        <time>2021-09-04T16:47:11Z</time>
      </trkpt>
      <trkpt lat="45.64061" lon="4.58842">
        <ele>873.9</ele>
        <time>2021-09-04T16:47:13Z</time>
      </trkpt>
      <trkpt lat="45.64061" lon="4.58843">
        <ele>874</ele>
        <time>2021-09-04T16:47:14Z</time>
      </trkpt>
      <trkpt lat="45.6406" lon="4.58845">
        <ele>874.1</ele>
        <time>2021-09-04T16:47:15Z</time>
      </trkpt>
      <trkpt lat="45.6406" lon="4.58847">
        <ele>874.3</ele>
        <time>2021-09-04T16:47:16Z</time>
      </trkpt>
      <trkpt lat="45.64059" lon="4.5885">
        <ele>874.5</ele>
        <time>2021-09-04T16:47:18Z</time>
      </trkpt>
      <trkpt lat="45.64057" lon="4.58851">
        <ele>874.7</ele>
        <time>2021-09-04T16:47:19Z</time>
      </trkpt>
      <trkpt lat="45.64055" lon="4.58853">
        <ele>875</ele>
        <time>2021-09-04T16:47:20Z</time>
      </trkpt>
      <trkpt lat="45.64053" lon="4.58855">
        <ele>875.3</ele>
        <time>2021-09-04T16:47:22Z</time>
      </trkpt>
      <trkpt lat="45.64051" lon="4.58856">
        <ele>875.5</ele>
        <time>2021-09-04T16:47:23Z</time>
      </trkpt>
      <trkpt lat="45.6405" lon="4.58857">
        <ele>875.6</ele>
        <time>2021-09-04T16:47:24Z</time>
      </trkpt>
      <trkpt lat="45.64048" lon="4.58861">
        <ele>876</ele>
        <time>2021-09-04T16:47:26Z</time>
      </trkpt>
      <trkpt lat="45.64048" lon="4.58863">
        <ele>876.1</ele>
        <time>2021-09-04T16:47:27Z</time>
      </trkpt>
      <trkpt lat="45.64047" lon="4.58867">
        <ele>876.5</ele>
        <time>2021-09-04T16:47:29Z</time>
      </trkpt>
      <trkpt lat="45.64046" lon="4.58869">
        <ele>876.6</ele>
        <time>2021-09-04T16:47:30Z</time>
      </trkpt>
      <trkpt lat="45.64045" lon="4.58871">
        <ele>876.8</ele>
        <time>2021-09-04T16:47:31Z</time>
      </trkpt>
      <trkpt lat="45.64044" lon="4.58874">
        <ele>877.1</ele>
        <time>2021-09-04T16:47:33Z</time>
      </trkpt>
      <trkpt lat="45.64043" lon="4.58879">
        <ele>877.4</ele>
        <time>2021-09-04T16:47:34Z</time>
      </trkpt>
      <trkpt lat="45.64043" lon="4.5888">
        <ele>877.5</ele>
        <time>2021-09-04T16:47:35Z</time>
      </trkpt>
      <trkpt lat="45.64043" lon="4.58883">
        <ele>877.7</ele>
        <time>2021-09-04T16:47:36Z</time>
      </trkpt>
      <trkpt lat="45.64043" lon="4.58887">
        <ele>877.9</ele>
        <time>2021-09-04T16:47:38Z</time>
      </trkpt>
      <trkpt lat="45.64043" lon="4.58889">
        <ele>878.1</ele>
        <time>2021-09-04T16:47:39Z</time>
      </trkpt>
      <trkpt lat="45.64044" lon="4.58892">
        <ele>878.2</ele>
        <time>2021-09-04T16:47:40Z</time>
      </trkpt>
      <trkpt lat="45.64044" lon="4.58896">
        <ele>878.5</ele>
        <time>2021-09-04T16:47:42Z</time>
      </trkpt>
      <trkpt lat="45.64044" lon="4.58898">
        <ele>878.6</ele>
        <time>2021-09-04T16:47:43Z</time>
      </trkpt>
      <trkpt lat="45.64045" lon="4.58902">
        <ele>878.8</ele>
        <time>2021-09-04T16:47:44Z</time>
      </trkpt>
      <trkpt lat="45.64045" lon="4.58907">
        <ele>879</ele>
        <time>2021-09-04T16:47:46Z</time>
      </trkpt>
      <trkpt lat="45.64045" lon="4.58911">
        <ele>879.2</ele>
        <time>2021-09-04T16:47:47Z</time>
      </trkpt>
      <trkpt lat="45.64044" lon="4.58916">
        <ele>879.4</ele>
        <time>2021-09-04T16:47:49Z</time>
      </trkpt>
      <trkpt lat="45.64044" lon="4.58921">
        <ele>879.5</ele>
        <time>2021-09-04T16:47:51Z</time>
      </trkpt>
      <trkpt lat="45.64043" lon="4.58927">
        <ele>879.7</ele>
        <time>2021-09-04T16:47:52Z</time>
      </trkpt>
      <trkpt lat="45.64043" lon="4.5893">
        <ele>879.9</ele>
        <time>2021-09-04T16:47:53Z</time>
      </trkpt>
      <trkpt lat="45.64043" lon="4.58935">
        <ele>880.1</ele>
        <time>2021-09-04T16:47:55Z</time>
      </trkpt>
      <trkpt lat="45.64042" lon="4.5894">
        <ele>880.3</ele>
        <time>2021-09-04T16:47:56Z</time>
      </trkpt>
      <trkpt lat="45.64041" lon="4.58942">
        <ele>880.3</ele>
        <time>2021-09-04T16:47:57Z</time>
      </trkpt>
      <trkpt lat="45.64041" lon="4.58947">
        <ele>880.5</ele>
        <time>2021-09-04T16:47:59Z</time>
      </trkpt>
      <trkpt lat="45.64041" lon="4.5895">
        <ele>880.7</ele>
        <time>2021-09-04T16:48:00Z</time>
      </trkpt>
      <trkpt lat="45.64041" lon="4.58952">
        <ele>880.7</ele>
        <time>2021-09-04T16:48:01Z</time>
      </trkpt>
      <trkpt lat="45.64041" lon="4.58958">
        <ele>881</ele>
        <time>2021-09-04T16:48:03Z</time>
      </trkpt>
      <trkpt lat="45.64042" lon="4.58962">
        <ele>881.2</ele>
        <time>2021-09-04T16:48:04Z</time>
      </trkpt>
      <trkpt lat="45.64042" lon="4.58967">
        <ele>881.4</ele>
        <time>2021-09-04T16:48:06Z</time>
      </trkpt>
      <trkpt lat="45.64042" lon="4.58971">
        <ele>881.5</ele>
        <time>2021-09-04T16:48:07Z</time>
      </trkpt>
      <trkpt lat="45.64042" lon="4.58974">
        <ele>881.7</ele>
        <time>2021-09-04T16:48:08Z</time>
      </trkpt>
      <trkpt lat="45.64042" lon="4.58978">
        <ele>881.9</ele>
        <time>2021-09-04T16:48:10Z</time>
      </trkpt>
      <trkpt lat="45.64041" lon="4.58982">
        <ele>882</ele>
        <time>2021-09-04T16:48:11Z</time>
      </trkpt>
      <trkpt lat="45.6404" lon="4.58986">
        <ele>882.3</ele>
        <time>2021-09-04T16:48:13Z</time>
      </trkpt>
      <trkpt lat="45.64039" lon="4.58991">
        <ele>882.5</ele>
        <time>2021-09-04T16:48:15Z</time>
      </trkpt>
      <trkpt lat="45.64038" lon="4.58996">
        <ele>882.8</ele>
        <time>2021-09-04T16:48:16Z</time>
      </trkpt>
      <trkpt lat="45.64036" lon="4.59001">
        <ele>883</ele>
        <time>2021-09-04T16:48:18Z</time>
      </trkpt>
      <trkpt lat="45.64036" lon="4.59004">
        <ele>883.2</ele>
        <time>2021-09-04T16:48:19Z</time>
      </trkpt>
      <trkpt lat="45.64036" lon="4.59006">
        <ele>883.3</ele>
        <time>2021-09-04T16:48:20Z</time>
      </trkpt>
      <trkpt lat="45.64035" lon="4.5901">
        <ele>883.5</ele>
        <time>2021-09-04T16:48:22Z</time>
      </trkpt>
      <trkpt lat="45.64034" lon="4.59013">
        <ele>883.7</ele>
        <time>2021-09-04T16:48:24Z</time>
      </trkpt>
      <trkpt lat="45.64033" lon="4.59018">
        <ele>884</ele>
        <time>2021-09-04T16:48:25Z</time>
      </trkpt>
      <trkpt lat="45.64032" lon="4.59024">
        <ele>884.3</ele>
        <time>2021-09-04T16:48:27Z</time>
      </trkpt>
      <trkpt lat="45.6403" lon="4.59029">
        <ele>884.7</ele>
        <time>2021-09-04T16:48:29Z</time>
      </trkpt>
      <trkpt lat="45.64029" lon="4.59031">
        <ele>884.8</ele>
        <time>2021-09-04T16:48:30Z</time>
      </trkpt>
      <trkpt lat="45.64028" lon="4.59032">
        <ele>884.9</ele>
        <time>2021-09-04T16:48:31Z</time>
      </trkpt>
      <trkpt lat="45.64026" lon="4.59037">
        <ele>885.3</ele>
        <time>2021-09-04T16:48:33Z</time>
      </trkpt>
      <trkpt lat="45.64025" lon="4.59038">
        <ele>885.4</ele>
        <time>2021-09-04T16:48:34Z</time>
      </trkpt>
      <trkpt lat="45.64024" lon="4.5904">
        <ele>885.5</ele>
        <time>2021-09-04T16:48:35Z</time>
      </trkpt>
      <trkpt lat="45.64023" lon="4.59041">
        <ele>885.7</ele>
        <time>2021-09-04T16:48:36Z</time>
      </trkpt>
      <trkpt lat="45.64021" lon="4.59044">
        <ele>886</ele>
        <time>2021-09-04T16:48:38Z</time>
      </trkpt>
      <trkpt lat="45.64019" lon="4.59048">
        <ele>886.3</ele>
        <time>2021-09-04T16:48:40Z</time>
      </trkpt>
      <trkpt lat="45.64018" lon="4.59049">
        <ele>886.4</ele>
        <time>2021-09-04T16:48:41Z</time>
      </trkpt>
      <trkpt lat="45.64016" lon="4.5905">
        <ele>886.6</ele>
        <time>2021-09-04T16:48:42Z</time>
      </trkpt>
      <trkpt lat="45.64016" lon="4.59051">
        <ele>886.7</ele>
        <time>2021-09-04T16:48:43Z</time>
      </trkpt>
      <trkpt lat="45.64015" lon="4.59053">
        <ele>886.8</ele>
        <time>2021-09-04T16:48:44Z</time>
      </trkpt>
      <trkpt lat="45.64013" lon="4.59055">
        <ele>887</ele>
        <time>2021-09-04T16:48:46Z</time>
      </trkpt>
      <trkpt lat="45.64012" lon="4.59059">
        <ele>887.3</ele>
        <time>2021-09-04T16:48:47Z</time>
      </trkpt>
      <trkpt lat="45.6401" lon="4.59062">
        <ele>887.6</ele>
        <time>2021-09-04T16:48:49Z</time>
      </trkpt>
      <trkpt lat="45.64009" lon="4.59065">
        <ele>887.9</ele>
        <time>2021-09-04T16:48:50Z</time>
      </trkpt>
      <trkpt lat="45.64008" lon="4.59066">
        <ele>888</ele>
        <time>2021-09-04T16:48:51Z</time>
      </trkpt>
      <trkpt lat="45.64006" lon="4.5907">
        <ele>888.4</ele>
        <time>2021-09-04T16:48:53Z</time>
      </trkpt>
      <trkpt lat="45.64005" lon="4.59071">
        <ele>888.5</ele>
        <time>2021-09-04T16:48:54Z</time>
      </trkpt>
      <trkpt lat="45.64004" lon="4.59073">
        <ele>888.7</ele>
        <time>2021-09-04T16:48:55Z</time>
      </trkpt>
      <trkpt lat="45.64002" lon="4.59075">
        <ele>888.9</ele>
        <time>2021-09-04T16:48:57Z</time>
      </trkpt>
      <trkpt lat="45.64" lon="4.59079">
        <ele>889.3</ele>
        <time>2021-09-04T16:48:59Z</time>
      </trkpt>
      <trkpt lat="45.64" lon="4.5908">
        <ele>889.4</ele>
        <time>2021-09-04T16:49:00Z</time>
      </trkpt>
      <trkpt lat="45.63998" lon="4.59084">
        <ele>889.8</ele>
        <time>2021-09-04T16:49:02Z</time>
      </trkpt>
      <trkpt lat="45.63997" lon="4.59085">
        <ele>889.9</ele>
        <time>2021-09-04T16:49:03Z</time>
      </trkpt>
      <trkpt lat="45.63997" lon="4.5909">
        <ele>890.4</ele>
        <time>2021-09-04T16:49:05Z</time>
      </trkpt>
      <trkpt lat="45.63996" lon="4.59096">
        <ele>890.9</ele>
        <time>2021-09-04T16:49:07Z</time>
      </trkpt>
      <trkpt lat="45.63996" lon="4.59098">
        <ele>891</ele>
        <time>2021-09-04T16:49:08Z</time>
      </trkpt>
      <trkpt lat="45.63996" lon="4.591">
        <ele>891.2</ele>
        <time>2021-09-04T16:49:09Z</time>
      </trkpt>
      <trkpt lat="45.63994" lon="4.59104">
        <ele>891.6</ele>
        <time>2021-09-04T16:49:10Z</time>
      </trkpt>
      <trkpt lat="45.63993" lon="4.59105">
        <ele>891.8</ele>
        <time>2021-09-04T16:49:12Z</time>
      </trkpt>
      <trkpt lat="45.63992" lon="4.59107">
        <ele>892</ele>
        <time>2021-09-04T16:49:13Z</time>
      </trkpt>
      <trkpt lat="45.63992" lon="4.59108">
        <ele>892.2</ele>
        <time>2021-09-04T16:49:14Z</time>
      </trkpt>
      <trkpt lat="45.63989" lon="4.5911">
        <ele>892.6</ele>
        <time>2021-09-04T16:49:16Z</time>
      </trkpt>
      <trkpt lat="45.63987" lon="4.59111">
        <ele>893</ele>
        <time>2021-09-04T16:49:17Z</time>
      </trkpt>
      <trkpt lat="45.63983" lon="4.59111">
        <ele>893.5</ele>
        <time>2021-09-04T16:49:19Z</time>
      </trkpt>
      <trkpt lat="45.63982" lon="4.59112">
        <ele>893.8</ele>
        <time>2021-09-04T16:49:20Z</time>
      </trkpt>
      <trkpt lat="45.6398" lon="4.59113">
        <ele>894</ele>
        <time>2021-09-04T16:49:21Z</time>
      </trkpt>
      <trkpt lat="45.63978" lon="4.59114">
        <ele>894.4</ele>
        <time>2021-09-04T16:49:23Z</time>
      </trkpt>
      <trkpt lat="45.63977" lon="4.59114">
        <ele>894.5</ele>
        <time>2021-09-04T16:49:24Z</time>
      </trkpt>
      <trkpt lat="45.63976" lon="4.59114">
        <ele>894.6</ele>
        <time>2021-09-04T16:49:25Z</time>
      </trkpt>
      <trkpt lat="45.63974" lon="4.59113">
        <ele>895</ele>
        <time>2021-09-04T16:49:26Z</time>
      </trkpt>
      <trkpt lat="45.63973" lon="4.59112">
        <ele>895.2</ele>
        <time>2021-09-04T16:49:27Z</time>
      </trkpt>
      <trkpt lat="45.63972" lon="4.59112">
        <ele>895.4</ele>
        <time>2021-09-04T16:49:28Z</time>
      </trkpt>
      <trkpt lat="45.6397" lon="4.59111">
        <ele>895.7</ele>
        <time>2021-09-04T16:49:30Z</time>
      </trkpt>
      <trkpt lat="45.63968" lon="4.59111">
        <ele>896</ele>
        <time>2021-09-04T16:49:31Z</time>
      </trkpt>
      <trkpt lat="45.63967" lon="4.59111">
        <ele>896.2</ele>
        <time>2021-09-04T16:49:32Z</time>
      </trkpt>
      <trkpt lat="45.63965" lon="4.59114">
        <ele>896.6</ele>
        <time>2021-09-04T16:49:34Z</time>
      </trkpt>
      <trkpt lat="45.63964" lon="4.59117">
        <ele>897.1</ele>
        <time>2021-09-04T16:49:36Z</time>
      </trkpt>
      <trkpt lat="45.63966" lon="4.59124">
        <ele>897.8</ele>
        <time>2021-09-04T16:49:38Z</time>
      </trkpt>
      <trkpt lat="45.63966" lon="4.59128">
        <ele>898.3</ele>
        <time>2021-09-04T16:49:39Z</time>
      </trkpt>
      <trkpt lat="45.63966" lon="4.59131">
        <ele>898.6</ele>
        <time>2021-09-04T16:49:40Z</time>
      </trkpt>
      <trkpt lat="45.63965" lon="4.59132">
        <ele>898.8</ele>
        <time>2021-09-04T16:49:41Z</time>
      </trkpt>
      <trkpt lat="45.63963" lon="4.59136">
        <ele>899.3</ele>
        <time>2021-09-04T16:49:43Z</time>
      </trkpt>
      <trkpt lat="45.63962" lon="4.59138">
        <ele>899.6</ele>
        <time>2021-09-04T16:49:44Z</time>
      </trkpt>
      <trkpt lat="45.63959" lon="4.59141">
        <ele>900</ele>
        <time>2021-09-04T16:49:46Z</time>
      </trkpt>
      <trkpt lat="45.63956" lon="4.59145">
        <ele>900.7</ele>
        <time>2021-09-04T16:49:48Z</time>
      </trkpt>
      <trkpt lat="45.63955" lon="4.59146">
        <ele>900.9</ele>
        <time>2021-09-04T16:49:49Z</time>
      </trkpt>
      <trkpt lat="45.63955" lon="4.59147">
        <ele>901.1</ele>
        <time>2021-09-04T16:49:50Z</time>
      </trkpt>
      <trkpt lat="45.63954" lon="4.5915">
        <ele>901.3</ele>
        <time>2021-09-04T16:49:51Z</time>
      </trkpt>
      <trkpt lat="45.63954" lon="4.59152">
        <ele>901.6</ele>
        <time>2021-09-04T16:49:52Z</time>
      </trkpt>
      <trkpt lat="45.63952" lon="4.59156">
        <ele>902.1</ele>
        <time>2021-09-04T16:49:54Z</time>
      </trkpt>
      <trkpt lat="45.63951" lon="4.59157">
        <ele>902.2</ele>
        <time>2021-09-04T16:49:55Z</time>
      </trkpt>
      <trkpt lat="45.63951" lon="4.59159">
        <ele>902.5</ele>
        <time>2021-09-04T16:49:56Z</time>
      </trkpt>
      <trkpt lat="45.63948" lon="4.59162">
        <ele>903</ele>
        <time>2021-09-04T16:49:58Z</time>
      </trkpt>
      <trkpt lat="45.63946" lon="4.59165">
        <ele>903.5</ele>
        <time>2021-09-04T16:49:59Z</time>
      </trkpt>
      <trkpt lat="45.63945" lon="4.59166">
        <ele>903.6</ele>
        <time>2021-09-04T16:50:00Z</time>
      </trkpt>
      <trkpt lat="45.63945" lon="4.59169">
        <ele>903.8</ele>
        <time>2021-09-04T16:50:02Z</time>
      </trkpt>
      <trkpt lat="45.63946" lon="4.59171">
        <ele>904.1</ele>
        <time>2021-09-04T16:50:03Z</time>
      </trkpt>
      <trkpt lat="45.63946" lon="4.59173">
        <ele>904.2</ele>
        <time>2021-09-04T16:50:04Z</time>
      </trkpt>
      <trkpt lat="45.63947" lon="4.59177">
        <ele>904.5</ele>
        <time>2021-09-04T16:50:06Z</time>
      </trkpt>
      <trkpt lat="45.63948" lon="4.59182">
        <ele>905</ele>
        <time>2021-09-04T16:50:08Z</time>
      </trkpt>
      <trkpt lat="45.63948" lon="4.59184">
        <ele>905.1</ele>
        <time>2021-09-04T16:50:09Z</time>
      </trkpt>
      <trkpt lat="45.63949" lon="4.59186">
        <ele>905.2</ele>
        <time>2021-09-04T16:50:10Z</time>
      </trkpt>
      <trkpt lat="45.6395" lon="4.59188">
        <ele>905.4</ele>
        <time>2021-09-04T16:50:11Z</time>
      </trkpt>
      <trkpt lat="45.63951" lon="4.59189">
        <ele>905.5</ele>
        <time>2021-09-04T16:50:12Z</time>
      </trkpt>
      <trkpt lat="45.63953" lon="4.59192">
        <ele>905.7</ele>
        <time>2021-09-04T16:50:14Z</time>
      </trkpt>
      <trkpt lat="45.63954" lon="4.59194">
        <ele>905.8</ele>
        <time>2021-09-04T16:50:15Z</time>
      </trkpt>
      <trkpt lat="45.63955" lon="4.59196">
        <ele>906</ele>
        <time>2021-09-04T16:50:16Z</time>
      </trkpt>
      <trkpt lat="45.63958" lon="4.59199">
        <ele>906.2</ele>
        <time>2021-09-04T16:50:18Z</time>
      </trkpt>
      <trkpt lat="45.63961" lon="4.59202">
        <ele>906.4</ele>
        <time>2021-09-04T16:50:19Z</time>
      </trkpt>
      <trkpt lat="45.63961" lon="4.59203">
        <ele>906.4</ele>
        <time>2021-09-04T16:50:20Z</time>
      </trkpt>
      <trkpt lat="45.63963" lon="4.59206">
        <ele>906.6</ele>
        <time>2021-09-04T16:50:21Z</time>
      </trkpt>
      <trkpt lat="45.63964" lon="4.59208">
        <ele>906.7</ele>
        <time>2021-09-04T16:50:23Z</time>
      </trkpt>
      <trkpt lat="45.63966" lon="4.5921">
        <ele>906.8</ele>
        <time>2021-09-04T16:50:24Z</time>
      </trkpt>
      <trkpt lat="45.63968" lon="4.59214">
        <ele>906.9</ele>
        <time>2021-09-04T16:50:26Z</time>
      </trkpt>
      <trkpt lat="45.63969" lon="4.59218">
        <ele>907</ele>
        <time>2021-09-04T16:50:28Z</time>
      </trkpt>
      <trkpt lat="45.6397" lon="4.59222">
        <ele>907.2</ele>
        <time>2021-09-04T16:50:29Z</time>
      </trkpt>
      <trkpt lat="45.63971" lon="4.59229">
        <ele>907.4</ele>
        <time>2021-09-04T16:50:31Z</time>
      </trkpt>
      <trkpt lat="45.63971" lon="4.59232">
        <ele>907.5</ele>
        <time>2021-09-04T16:50:32Z</time>
      </trkpt>
      <trkpt lat="45.63971" lon="4.59235">
        <ele>907.6</ele>
        <time>2021-09-04T16:50:33Z</time>
      </trkpt>
      <trkpt lat="45.63971" lon="4.59239">
        <ele>907.7</ele>
        <time>2021-09-04T16:50:35Z</time>
      </trkpt>
      <trkpt lat="45.63971" lon="4.59242">
        <ele>907.9</ele>
        <time>2021-09-04T16:50:36Z</time>
      </trkpt>
      <trkpt lat="45.63971" lon="4.59243">
        <ele>907.9</ele>
        <time>2021-09-04T16:50:37Z</time>
      </trkpt>
      <trkpt lat="45.63972" lon="4.59246">
        <ele>908</ele>
        <time>2021-09-04T16:50:39Z</time>
      </trkpt>
      <trkpt lat="45.63972" lon="4.59246">
        <ele>908</ele>
        <time>2021-09-04T16:50:40Z</time>
      </trkpt>
      <trkpt lat="45.63971" lon="4.59245">
        <ele>908</ele>
        <time>2021-09-04T16:50:42Z</time>
      </trkpt>
      <trkpt lat="45.63971" lon="4.59245">
        <ele>908.1</ele>
        <time>2021-09-04T16:50:43Z</time>
      </trkpt>
      <trkpt lat="45.63971" lon="4.59246">
        <ele>908.1</ele>
        <time>2021-09-04T16:50:45Z</time>
      </trkpt>
      <trkpt lat="45.63971" lon="4.59246">
        <ele>908.1</ele>
        <time>2021-09-04T16:50:47Z</time>
      </trkpt>
      <trkpt lat="45.63969" lon="4.59251">
        <ele>908.3</ele>
        <time>2021-09-04T16:51:11Z</time>
      </trkpt>
      <trkpt lat="45.63968" lon="4.59253">
        <ele>908.5</ele>
        <time>2021-09-04T16:51:13Z</time>
      </trkpt>
      <trkpt lat="45.63968" lon="4.59253">
        <ele>908.5</ele>
        <time>2021-09-04T16:51:14Z</time>
      </trkpt>
      <trkpt lat="45.63968" lon="4.59255">
        <ele>908.5</ele>
        <time>2021-09-04T16:51:15Z</time>
      </trkpt>
      <trkpt lat="45.63968" lon="4.59259">
        <ele>908.7</ele>
        <time>2021-09-04T16:51:17Z</time>
      </trkpt>
      <trkpt lat="45.63968" lon="4.59263">
        <ele>908.9</ele>
        <time>2021-09-04T16:51:19Z</time>
      </trkpt>
      <trkpt lat="45.63968" lon="4.59266">
        <ele>909.1</ele>
        <time>2021-09-04T16:51:20Z</time>
      </trkpt>
      <trkpt lat="45.63967" lon="4.59271">
        <ele>909.3</ele>
        <time>2021-09-04T16:51:22Z</time>
      </trkpt>
      <trkpt lat="45.63968" lon="4.59275">
        <ele>909.5</ele>
        <time>2021-09-04T16:51:23Z</time>
      </trkpt>
      <trkpt lat="45.63968" lon="4.59281">
        <ele>909.8</ele>
        <time>2021-09-04T16:51:25Z</time>
      </trkpt>
      <trkpt lat="45.63968" lon="4.59284">
        <ele>909.9</ele>
        <time>2021-09-04T16:51:26Z</time>
      </trkpt>
      <trkpt lat="45.63967" lon="4.59286">
        <ele>910.1</ele>
        <time>2021-09-04T16:51:27Z</time>
      </trkpt>
      <trkpt lat="45.63968" lon="4.5929">
        <ele>910.3</ele>
        <time>2021-09-04T16:51:28Z</time>
      </trkpt>
      <trkpt lat="45.63968" lon="4.59296">
        <ele>910.6</ele>
        <time>2021-09-04T16:51:30Z</time>
      </trkpt>
      <trkpt lat="45.63969" lon="4.59301">
        <ele>910.9</ele>
        <time>2021-09-04T16:51:31Z</time>
      </trkpt>
      <trkpt lat="45.6397" lon="4.59307">
        <ele>911.2</ele>
        <time>2021-09-04T16:51:33Z</time>
      </trkpt>
      <trkpt lat="45.6397" lon="4.59312">
        <ele>911.5</ele>
        <time>2021-09-04T16:51:34Z</time>
      </trkpt>
      <trkpt lat="45.63971" lon="4.59313">
        <ele>911.6</ele>
        <time>2021-09-04T16:51:35Z</time>
      </trkpt>
      <trkpt lat="45.6397" lon="4.5932">
        <ele>912</ele>
        <time>2021-09-04T16:51:37Z</time>
      </trkpt>
      <trkpt lat="45.6397" lon="4.59321">
        <ele>912.1</ele>
        <time>2021-09-04T16:51:38Z</time>
      </trkpt>
      <trkpt lat="45.63969" lon="4.59323">
        <ele>912.2</ele>
        <time>2021-09-04T16:51:39Z</time>
      </trkpt>
      <trkpt lat="45.63969" lon="4.59325">
        <ele>912.4</ele>
        <time>2021-09-04T16:51:40Z</time>
      </trkpt>
      <trkpt lat="45.63968" lon="4.59328">
        <ele>912.5</ele>
        <time>2021-09-04T16:51:42Z</time>
      </trkpt>
      <trkpt lat="45.63968" lon="4.59331">
        <ele>912.8</ele>
        <time>2021-09-04T16:51:43Z</time>
      </trkpt>
      <trkpt lat="45.63969" lon="4.59336">
        <ele>913.1</ele>
        <time>2021-09-04T16:51:45Z</time>
      </trkpt>
      <trkpt lat="45.63969" lon="4.59338">
        <ele>913.2</ele>
        <time>2021-09-04T16:51:46Z</time>
      </trkpt>
      <trkpt lat="45.63969" lon="4.59339">
        <ele>913.3</ele>
        <time>2021-09-04T16:51:47Z</time>
      </trkpt>
      <trkpt lat="45.6397" lon="4.59341">
        <ele>913.5</ele>
        <time>2021-09-04T16:51:49Z</time>
      </trkpt>
      <trkpt lat="45.6397" lon="4.59343">
        <ele>913.6</ele>
        <time>2021-09-04T16:51:50Z</time>
      </trkpt>
      <trkpt lat="45.63969" lon="4.59346">
        <ele>913.9</ele>
        <time>2021-09-04T16:51:52Z</time>
      </trkpt>
      <trkpt lat="45.63967" lon="4.59348">
        <ele>914.1</ele>
        <time>2021-09-04T16:51:53Z</time>
      </trkpt>
      <trkpt lat="45.63965" lon="4.59349">
        <ele>914.4</ele>
        <time>2021-09-04T16:51:55Z</time>
      </trkpt>
      <trkpt lat="45.63964" lon="4.5935">
        <ele>914.5</ele>
        <time>2021-09-04T16:51:56Z</time>
      </trkpt>
      <trkpt lat="45.63962" lon="4.59353">
        <ele>914.8</ele>
        <time>2021-09-04T16:51:58Z</time>
      </trkpt>
      <trkpt lat="45.63962" lon="4.59354">
        <ele>915</ele>
        <time>2021-09-04T16:51:59Z</time>
      </trkpt>
      <trkpt lat="45.63962" lon="4.59356">
        <ele>915.1</ele>
        <time>2021-09-04T16:52:00Z</time>
      </trkpt>
      <trkpt lat="45.63962" lon="4.5936">
        <ele>915.4</ele>
        <time>2021-09-04T16:52:02Z</time>
      </trkpt>
      <trkpt lat="45.63963" lon="4.59362">
        <ele>915.6</ele>
        <time>2021-09-04T16:52:03Z</time>
      </trkpt>
      <trkpt lat="45.63963" lon="4.59366">
        <ele>916</ele>
        <time>2021-09-04T16:52:05Z</time>
      </trkpt>
      <trkpt lat="45.63963" lon="4.59369">
        <ele>916.2</ele>
        <time>2021-09-04T16:52:06Z</time>
      </trkpt>
      <trkpt lat="45.63963" lon="4.59372">
        <ele>916.4</ele>
        <time>2021-09-04T16:52:08Z</time>
      </trkpt>
      <trkpt lat="45.63963" lon="4.59374">
        <ele>916.6</ele>
        <time>2021-09-04T16:52:09Z</time>
      </trkpt>
      <trkpt lat="45.63963" lon="4.59375">
        <ele>916.7</ele>
        <time>2021-09-04T16:52:11Z</time>
      </trkpt>
      <trkpt lat="45.63964" lon="4.59375">
        <ele>916.7</ele>
        <time>2021-09-04T16:52:12Z</time>
      </trkpt>
      <trkpt lat="45.63964" lon="4.59374">
        <ele>916.8</ele>
        <time>2021-09-04T16:52:13Z</time>
      </trkpt>
      <trkpt lat="45.63965" lon="4.59374">
        <ele>916.9</ele>
        <time>2021-09-04T16:52:14Z</time>
      </trkpt>
      <trkpt lat="45.63966" lon="4.59373">
        <ele>917</ele>
        <time>2021-09-04T16:52:15Z</time>
      </trkpt>
      <trkpt lat="45.63967" lon="4.59373">
        <ele>917.1</ele>
        <time>2021-09-04T16:52:16Z</time>
      </trkpt>
      <trkpt lat="45.63968" lon="4.59371">
        <ele>917.3</ele>
        <time>2021-09-04T16:52:18Z</time>
      </trkpt>
      <trkpt lat="45.63969" lon="4.59371">
        <ele>917.4</ele>
        <time>2021-09-04T16:52:19Z</time>
      </trkpt>
      <trkpt lat="45.63969" lon="4.59371">
        <ele>917.4</ele>
        <time>2021-09-04T16:52:20Z</time>
      </trkpt>
      <trkpt lat="45.63969" lon="4.59373">
        <ele>917.6</ele>
        <time>2021-09-04T16:52:22Z</time>
      </trkpt>
      <trkpt lat="45.63969" lon="4.59374">
        <ele>917.6</ele>
        <time>2021-09-04T16:52:24Z</time>
      </trkpt>
      <trkpt lat="45.63969" lon="4.59374">
        <ele>917.7</ele>
        <time>2021-09-04T16:52:25Z</time>
      </trkpt>
      <trkpt lat="45.6397" lon="4.59374">
        <ele>917.7</ele>
        <time>2021-09-04T16:52:26Z</time>
      </trkpt>
      <trkpt lat="45.6397" lon="4.59375">
        <ele>917.8</ele>
        <time>2021-09-04T16:52:28Z</time>
      </trkpt>
      <trkpt lat="45.63969" lon="4.59379">
        <ele>918.1</ele>
        <time>2021-09-04T16:52:29Z</time>
      </trkpt>
      <trkpt lat="45.63966" lon="4.59381">
        <ele>918.4</ele>
        <time>2021-09-04T16:52:31Z</time>
      </trkpt>
      <trkpt lat="45.63964" lon="4.59383">
        <ele>918.7</ele>
        <time>2021-09-04T16:52:32Z</time>
      </trkpt>
      <trkpt lat="45.63962" lon="4.59386">
        <ele>919</ele>
        <time>2021-09-04T16:52:34Z</time>
      </trkpt>
      <trkpt lat="45.63959" lon="4.59389">
        <ele>919.3</ele>
        <time>2021-09-04T16:52:35Z</time>
      </trkpt>
      <trkpt lat="45.63959" lon="4.5939">
        <ele>919.4</ele>
        <time>2021-09-04T16:52:36Z</time>
      </trkpt>
      <trkpt lat="45.63956" lon="4.59394">
        <ele>919.7</ele>
        <time>2021-09-04T16:52:38Z</time>
      </trkpt>
      <trkpt lat="45.63955" lon="4.59396">
        <ele>919.8</ele>
        <time>2021-09-04T16:52:39Z</time>
      </trkpt>
      <trkpt lat="45.63955" lon="4.59397">
        <ele>919.9</ele>
        <time>2021-09-04T16:52:40Z</time>
      </trkpt>
      <trkpt lat="45.63954" lon="4.59399">
        <ele>920</ele>
        <time>2021-09-04T16:52:41Z</time>
      </trkpt>
      <trkpt lat="45.63955" lon="4.59402">
        <ele>920.1</ele>
        <time>2021-09-04T16:52:43Z</time>
      </trkpt>
      <trkpt lat="45.63955" lon="4.59404">
        <ele>920.2</ele>
        <time>2021-09-04T16:52:44Z</time>
      </trkpt>
      <trkpt lat="45.63954" lon="4.59407">
        <ele>920.4</ele>
        <time>2021-09-04T16:52:45Z</time>
      </trkpt>
      <trkpt lat="45.63953" lon="4.59409">
        <ele>920.5</ele>
        <time>2021-09-04T16:52:46Z</time>
      </trkpt>
      <trkpt lat="45.63952" lon="4.59412">
        <ele>920.6</ele>
        <time>2021-09-04T16:52:48Z</time>
      </trkpt>
      <trkpt lat="45.6395" lon="4.59416">
        <ele>920.9</ele>
        <time>2021-09-04T16:52:49Z</time>
      </trkpt>
      <trkpt lat="45.63948" lon="4.5942">
        <ele>921</ele>
        <time>2021-09-04T16:52:50Z</time>
      </trkpt>
      <trkpt lat="45.63944" lon="4.59423">
        <ele>921.3</ele>
        <time>2021-09-04T16:52:52Z</time>
      </trkpt>
      <trkpt lat="45.63942" lon="4.59423">
        <ele>921.4</ele>
        <time>2021-09-04T16:52:53Z</time>
      </trkpt>
      <trkpt lat="45.6394" lon="4.59423">
        <ele>921.5</ele>
        <time>2021-09-04T16:52:54Z</time>
      </trkpt>
      <trkpt lat="45.63937" lon="4.59423">
        <ele>921.6</ele>
        <time>2021-09-04T16:52:55Z</time>
      </trkpt>
      <trkpt lat="45.63935" lon="4.59422">
        <ele>921.7</ele>
        <time>2021-09-04T16:52:57Z</time>
      </trkpt>
      <trkpt lat="45.63932" lon="4.59422">
        <ele>921.8</ele>
        <time>2021-09-04T16:52:59Z</time>
      </trkpt>
      <trkpt lat="45.63928" lon="4.59424">
        <ele>921.8</ele>
        <time>2021-09-04T16:53:01Z</time>
      </trkpt>
      <trkpt lat="45.63926" lon="4.59426">
        <ele>921.9</ele>
        <time>2021-09-04T16:53:02Z</time>
      </trkpt>
      <trkpt lat="45.63925" lon="4.59427">
        <ele>921.9</ele>
        <time>2021-09-04T16:53:03Z</time>
      </trkpt>
      <trkpt lat="45.63922" lon="4.59429">
        <ele>921.8</ele>
        <time>2021-09-04T16:53:05Z</time>
      </trkpt>
      <trkpt lat="45.63918" lon="4.5943">
        <ele>921.7</ele>
        <time>2021-09-04T16:53:06Z</time>
      </trkpt>
      <trkpt lat="45.63917" lon="4.59431">
        <ele>921.6</ele>
        <time>2021-09-04T16:53:07Z</time>
      </trkpt>
      <trkpt lat="45.63914" lon="4.59433">
        <ele>921.5</ele>
        <time>2021-09-04T16:53:09Z</time>
      </trkpt>
      <trkpt lat="45.63913" lon="4.59435">
        <ele>921.4</ele>
        <time>2021-09-04T16:53:10Z</time>
      </trkpt>
      <trkpt lat="45.63912" lon="4.59438">
        <ele>921.2</ele>
        <time>2021-09-04T16:53:12Z</time>
      </trkpt>
      <trkpt lat="45.63909" lon="4.59442">
        <ele>920.9</ele>
        <time>2021-09-04T16:53:13Z</time>
      </trkpt>
      <trkpt lat="45.63907" lon="4.59444">
        <ele>920.7</ele>
        <time>2021-09-04T16:53:14Z</time>
      </trkpt>
      <trkpt lat="45.63903" lon="4.59445">
        <ele>920.4</ele>
        <time>2021-09-04T16:53:16Z</time>
      </trkpt>
      <trkpt lat="45.63902" lon="4.59445">
        <ele>920.2</ele>
        <time>2021-09-04T16:53:17Z</time>
      </trkpt>
      <trkpt lat="45.639" lon="4.59445">
        <ele>920</ele>
        <time>2021-09-04T16:53:18Z</time>
      </trkpt>
      <trkpt lat="45.63896" lon="4.59445">
        <ele>919.6</ele>
        <time>2021-09-04T16:53:20Z</time>
      </trkpt>
      <trkpt lat="45.63892" lon="4.59445">
        <ele>919.2</ele>
        <time>2021-09-04T16:53:21Z</time>
      </trkpt>
      <trkpt lat="45.63887" lon="4.59445">
        <ele>918.8</ele>
        <time>2021-09-04T16:53:22Z</time>
      </trkpt>
      <trkpt lat="45.63881" lon="4.59445">
        <ele>918.3</ele>
        <time>2021-09-04T16:53:23Z</time>
      </trkpt>
      <trkpt lat="45.63876" lon="4.59444">
        <ele>918</ele>
        <time>2021-09-04T16:53:24Z</time>
      </trkpt>
      <trkpt lat="45.63872" lon="4.59443">
        <ele>917.7</ele>
        <time>2021-09-04T16:53:25Z</time>
      </trkpt>
      <trkpt lat="45.63866" lon="4.59443">
        <ele>917.3</ele>
        <time>2021-09-04T16:53:27Z</time>
      </trkpt>
      <trkpt lat="45.6386" lon="4.59443">
        <ele>917.2</ele>
        <time>2021-09-04T16:53:28Z</time>
      </trkpt>
      <trkpt lat="45.63855" lon="4.59443">
        <ele>917.1</ele>
        <time>2021-09-04T16:53:29Z</time>
      </trkpt>
      <trkpt lat="45.63851" lon="4.59443">
        <ele>917.2</ele>
        <time>2021-09-04T16:53:30Z</time>
      </trkpt>
      <trkpt lat="45.63844" lon="4.59444">
        <ele>917.4</ele>
        <time>2021-09-04T16:53:32Z</time>
      </trkpt>
      <trkpt lat="45.6384" lon="4.59445">
        <ele>917.6</ele>
        <time>2021-09-04T16:53:33Z</time>
      </trkpt>
      <trkpt lat="45.63837" lon="4.59446">
        <ele>917.8</ele>
        <time>2021-09-04T16:53:34Z</time>
      </trkpt>
      <trkpt lat="45.63836" lon="4.59446">
        <ele>917.9</ele>
        <time>2021-09-04T16:53:35Z</time>
      </trkpt>
      <trkpt lat="45.63831" lon="4.59448">
        <ele>918.2</ele>
        <time>2021-09-04T16:53:37Z</time>
      </trkpt>
      <trkpt lat="45.6383" lon="4.59448">
        <ele>918.3</ele>
        <time>2021-09-04T16:53:38Z</time>
      </trkpt>
      <trkpt lat="45.63828" lon="4.59448">
        <ele>918.5</ele>
        <time>2021-09-04T16:53:39Z</time>
      </trkpt>
      <trkpt lat="45.63825" lon="4.5945">
        <ele>918.8</ele>
        <time>2021-09-04T16:53:41Z</time>
      </trkpt>
      <trkpt lat="45.6382" lon="4.59447">
        <ele>919.2</ele>
        <time>2021-09-04T16:53:43Z</time>
      </trkpt>
      <trkpt lat="45.63819" lon="4.59446">
        <ele>919.3</ele>
        <time>2021-09-04T16:53:44Z</time>
      </trkpt>
      <trkpt lat="45.63817" lon="4.59445">
        <ele>919.5</ele>
        <time>2021-09-04T16:53:45Z</time>
      </trkpt>
      <trkpt lat="45.63814" lon="4.59441">
        <ele>919.9</ele>
        <time>2021-09-04T16:53:47Z</time>
      </trkpt>
      <trkpt lat="45.63812" lon="4.5944">
        <ele>920</ele>
        <time>2021-09-04T16:53:48Z</time>
      </trkpt>
      <trkpt lat="45.63811" lon="4.59439">
        <ele>920.2</ele>
        <time>2021-09-04T16:53:49Z</time>
      </trkpt>
      <trkpt lat="45.63807" lon="4.59436">
        <ele>920.6</ele>
        <time>2021-09-04T16:53:51Z</time>
      </trkpt>
      <trkpt lat="45.63804" lon="4.59433">
        <ele>921.1</ele>
        <time>2021-09-04T16:53:53Z</time>
      </trkpt>
      <trkpt lat="45.63801" lon="4.59429">
        <ele>921.4</ele>
        <time>2021-09-04T16:53:54Z</time>
      </trkpt>
      <trkpt lat="45.63799" lon="4.59427">
        <ele>921.8</ele>
        <time>2021-09-04T16:53:55Z</time>
      </trkpt>
      <trkpt lat="45.63795" lon="4.59424">
        <ele>922.2</ele>
        <time>2021-09-04T16:53:57Z</time>
      </trkpt>
      <trkpt lat="45.63792" lon="4.59422">
        <ele>922.5</ele>
        <time>2021-09-04T16:53:58Z</time>
      </trkpt>
      <trkpt lat="45.63791" lon="4.59421">
        <ele>922.6</ele>
        <time>2021-09-04T16:53:59Z</time>
      </trkpt>
      <trkpt lat="45.63788" lon="4.59417">
        <ele>923</ele>
        <time>2021-09-04T16:54:01Z</time>
      </trkpt>
      <trkpt lat="45.63786" lon="4.59413">
        <ele>923.3</ele>
        <time>2021-09-04T16:54:03Z</time>
      </trkpt>
      <trkpt lat="45.63785" lon="4.59412">
        <ele>923.4</ele>
        <time>2021-09-04T16:54:04Z</time>
      </trkpt>
      <trkpt lat="45.63782" lon="4.59408">
        <ele>923.7</ele>
        <time>2021-09-04T16:54:06Z</time>
      </trkpt>
      <trkpt lat="45.63782" lon="4.59406">
        <ele>923.8</ele>
        <time>2021-09-04T16:54:07Z</time>
      </trkpt>
      <trkpt lat="45.63779" lon="4.59401">
        <ele>924.2</ele>
        <time>2021-09-04T16:54:09Z</time>
      </trkpt>
      <trkpt lat="45.63778" lon="4.59401">
        <ele>924.2</ele>
        <time>2021-09-04T16:54:10Z</time>
      </trkpt>
      <trkpt lat="45.63777" lon="4.59401">
        <ele>924.3</ele>
        <time>2021-09-04T16:54:12Z</time>
      </trkpt>
      <trkpt lat="45.63776" lon="4.594">
        <ele>924.4</ele>
        <time>2021-09-04T16:54:13Z</time>
      </trkpt>
      <trkpt lat="45.63774" lon="4.59399">
        <ele>924.5</ele>
        <time>2021-09-04T16:54:15Z</time>
      </trkpt>
      <trkpt lat="45.63774" lon="4.59399">
        <ele>924.6</ele>
        <time>2021-09-04T16:54:16Z</time>
      </trkpt>
      <trkpt lat="45.63775" lon="4.59399">
        <ele>924.7</ele>
        <time>2021-09-04T16:54:18Z</time>
      </trkpt>
      <trkpt lat="45.63775" lon="4.59399">
        <ele>924.7</ele>
        <time>2021-09-04T16:54:19Z</time>
      </trkpt>
      <trkpt lat="45.63775" lon="4.594">
        <ele>924.7</ele>
        <time>2021-09-04T16:54:20Z</time>
      </trkpt>
      <trkpt lat="45.63775" lon="4.594">
        <ele>924.7</ele>
        <time>2021-09-04T16:54:21Z</time>
      </trkpt>
      <trkpt lat="45.63776" lon="4.594">
        <ele>924.7</ele>
        <time>2021-09-04T16:54:22Z</time>
      </trkpt>
      <trkpt lat="45.63776" lon="4.594">
        <ele>924.7</ele>
        <time>2021-09-04T16:54:23Z</time>
      </trkpt>
      <trkpt lat="45.63776" lon="4.59401">
        <ele>924.7</ele>
        <time>2021-09-04T16:54:25Z</time>
      </trkpt>
      <trkpt lat="45.6377" lon="4.59399">
        <ele>925</ele>
        <time>2021-09-04T16:54:32Z</time>
      </trkpt>
      <trkpt lat="45.63768" lon="4.59395">
        <ele>925.2</ele>
        <time>2021-09-04T16:54:33Z</time>
      </trkpt>
      <trkpt lat="45.63765" lon="4.59392">
        <ele>925.2</ele>
        <time>2021-09-04T16:54:34Z</time>
      </trkpt>
      <trkpt lat="45.63761" lon="4.59387">
        <ele>925.2</ele>
        <time>2021-09-04T16:54:36Z</time>
      </trkpt>
      <trkpt lat="45.63759" lon="4.59384">
        <ele>925.2</ele>
        <time>2021-09-04T16:54:37Z</time>
      </trkpt>
      <trkpt lat="45.63756" lon="4.59381">
        <ele>924.9</ele>
        <time>2021-09-04T16:54:38Z</time>
      </trkpt>
      <trkpt lat="45.63753" lon="4.59378">
        <ele>924.6</ele>
        <time>2021-09-04T16:54:39Z</time>
      </trkpt>
      <trkpt lat="45.6375" lon="4.59374">
        <ele>924.1</ele>
        <time>2021-09-04T16:54:41Z</time>
      </trkpt>
      <trkpt lat="45.63746" lon="4.59371">
        <ele>923.6</ele>
        <time>2021-09-04T16:54:42Z</time>
      </trkpt>
      <trkpt lat="45.63742" lon="4.59369">
        <ele>923</ele>
        <time>2021-09-04T16:54:43Z</time>
      </trkpt>
      <trkpt lat="45.63737" lon="4.59366">
        <ele>922.3</ele>
        <time>2021-09-04T16:54:44Z</time>
      </trkpt>
      <trkpt lat="45.63732" lon="4.59358">
        <ele>921.2</ele>
        <time>2021-09-04T16:54:46Z</time>
      </trkpt>
      <trkpt lat="45.6373" lon="4.5935">
        <ele>920.4</ele>
        <time>2021-09-04T16:54:47Z</time>
      </trkpt>
      <trkpt lat="45.63728" lon="4.59345">
        <ele>919.8</ele>
        <time>2021-09-04T16:54:48Z</time>
      </trkpt>
      <trkpt lat="45.63726" lon="4.59338">
        <ele>919</ele>
        <time>2021-09-04T16:54:49Z</time>
      </trkpt>
      <trkpt lat="45.63721" lon="4.59321">
        <ele>916.7</ele>
        <time>2021-09-04T16:54:51Z</time>
      </trkpt>
      <trkpt lat="45.63714" lon="4.59311">
        <ele>914.7</ele>
        <time>2021-09-04T16:54:53Z</time>
      </trkpt>
      <trkpt lat="45.6371" lon="4.59305">
        <ele>913.4</ele>
        <time>2021-09-04T16:54:55Z</time>
      </trkpt>
      <trkpt lat="45.63708" lon="4.59302">
        <ele>912.7</ele>
        <time>2021-09-04T16:54:56Z</time>
      </trkpt>
      <trkpt lat="45.63705" lon="4.59297">
        <ele>911.7</ele>
        <time>2021-09-04T16:54:57Z</time>
      </trkpt>
      <trkpt lat="45.63703" lon="4.5929">
        <ele>910.5</ele>
        <time>2021-09-04T16:54:58Z</time>
      </trkpt>
      <trkpt lat="45.637" lon="4.59286">
        <ele>909.6</ele>
        <time>2021-09-04T16:54:59Z</time>
      </trkpt>
      <trkpt lat="45.63691" lon="4.59272">
        <ele>906.5</ele>
        <time>2021-09-04T16:55:01Z</time>
      </trkpt>
      <trkpt lat="45.63688" lon="4.59266">
        <ele>905.2</ele>
        <time>2021-09-04T16:55:02Z</time>
      </trkpt>
      <trkpt lat="45.63686" lon="4.59257">
        <ele>903.8</ele>
        <time>2021-09-04T16:55:03Z</time>
      </trkpt>
      <trkpt lat="45.63686" lon="4.59249">
        <ele>902.6</ele>
        <time>2021-09-04T16:55:04Z</time>
      </trkpt>
      <trkpt lat="45.63687" lon="4.59231">
        <ele>899.8</ele>
        <time>2021-09-04T16:55:06Z</time>
      </trkpt>
      <trkpt lat="45.63685" lon="4.59223">
        <ele>898.5</ele>
        <time>2021-09-04T16:55:07Z</time>
      </trkpt>
      <trkpt lat="45.63682" lon="4.59215">
        <ele>897.3</ele>
        <time>2021-09-04T16:55:08Z</time>
      </trkpt>
      <trkpt lat="45.63675" lon="4.59211">
        <ele>895.6</ele>
        <time>2021-09-04T16:55:10Z</time>
      </trkpt>
      <trkpt lat="45.63672" lon="4.59207">
        <ele>894.7</ele>
        <time>2021-09-04T16:55:11Z</time>
      </trkpt>
      <trkpt lat="45.6367" lon="4.59204">
        <ele>894.1</ele>
        <time>2021-09-04T16:55:12Z</time>
      </trkpt>
      <trkpt lat="45.63667" lon="4.59194">
        <ele>892.4</ele>
        <time>2021-09-04T16:55:13Z</time>
      </trkpt>
      <trkpt lat="45.63663" lon="4.59185">
        <ele>890.8</ele>
        <time>2021-09-04T16:55:15Z</time>
      </trkpt>
      <trkpt lat="45.6366" lon="4.59182">
        <ele>890</ele>
        <time>2021-09-04T16:55:16Z</time>
      </trkpt>
      <trkpt lat="45.63658" lon="4.5918">
        <ele>889.6</ele>
        <time>2021-09-04T16:55:18Z</time>
      </trkpt>
      <trkpt lat="45.63657" lon="4.59182">
        <ele>889.3</ele>
        <time>2021-09-04T16:55:19Z</time>
      </trkpt>
      <trkpt lat="45.63656" lon="4.59184">
        <ele>889</ele>
        <time>2021-09-04T16:55:21Z</time>
      </trkpt>
      <trkpt lat="45.63656" lon="4.59184">
        <ele>888.9</ele>
        <time>2021-09-04T16:55:22Z</time>
      </trkpt>
      <trkpt lat="45.63655" lon="4.59185">
        <ele>888.8</ele>
        <time>2021-09-04T16:55:24Z</time>
      </trkpt>
      <trkpt lat="45.63655" lon="4.59186">
        <ele>888.7</ele>
        <time>2021-09-04T16:55:26Z</time>
      </trkpt>
      <trkpt lat="45.63655" lon="4.59187">
        <ele>888.5</ele>
        <time>2021-09-04T16:55:27Z</time>
      </trkpt>
      <trkpt lat="45.63655" lon="4.59189">
        <ele>888.3</ele>
        <time>2021-09-04T16:55:28Z</time>
      </trkpt>
      <trkpt lat="45.63654" lon="4.59191">
        <ele>888</ele>
        <time>2021-09-04T16:55:29Z</time>
      </trkpt>
      <trkpt lat="45.6365" lon="4.59193">
        <ele>887.4</ele>
        <time>2021-09-04T16:55:31Z</time>
      </trkpt>
      <trkpt lat="45.63647" lon="4.59193">
        <ele>886.9</ele>
        <time>2021-09-04T16:55:32Z</time>
      </trkpt>
      <trkpt lat="45.6364" lon="4.59192">
        <ele>886.1</ele>
        <time>2021-09-04T16:55:34Z</time>
      </trkpt>
      <trkpt lat="45.63637" lon="4.59193">
        <ele>885.7</ele>
        <time>2021-09-04T16:55:35Z</time>
      </trkpt>
      <trkpt lat="45.63633" lon="4.59198">
        <ele>885.3</ele>
        <time>2021-09-04T16:55:36Z</time>
      </trkpt>
      <trkpt lat="45.63626" lon="4.59206">
        <ele>884.7</ele>
        <time>2021-09-04T16:55:38Z</time>
      </trkpt>
      <trkpt lat="45.63623" lon="4.5921">
        <ele>884.4</ele>
        <time>2021-09-04T16:55:39Z</time>
      </trkpt>
      <trkpt lat="45.63618" lon="4.59214">
        <ele>884.1</ele>
        <time>2021-09-04T16:55:41Z</time>
      </trkpt>
      <trkpt lat="45.63611" lon="4.59223">
        <ele>883.6</ele>
        <time>2021-09-04T16:55:42Z</time>
      </trkpt>
      <trkpt lat="45.636" lon="4.59232">
        <ele>882.9</ele>
        <time>2021-09-04T16:55:44Z</time>
      </trkpt>
      <trkpt lat="45.63591" lon="4.59241">
        <ele>882.1</ele>
        <time>2021-09-04T16:55:46Z</time>
      </trkpt>
      <trkpt lat="45.63584" lon="4.59248">
        <ele>881.3</ele>
        <time>2021-09-04T16:55:48Z</time>
      </trkpt>
      <trkpt lat="45.63579" lon="4.59254">
        <ele>880.8</ele>
        <time>2021-09-04T16:55:49Z</time>
      </trkpt>
      <trkpt lat="45.63576" lon="4.59259">
        <ele>880.3</ele>
        <time>2021-09-04T16:55:50Z</time>
      </trkpt>
      <trkpt lat="45.63572" lon="4.59268">
        <ele>879.3</ele>
        <time>2021-09-04T16:55:52Z</time>
      </trkpt>
      <trkpt lat="45.63571" lon="4.59274">
        <ele>878.7</ele>
        <time>2021-09-04T16:55:53Z</time>
      </trkpt>
      <trkpt lat="45.63569" lon="4.59276">
        <ele>878.4</ele>
        <time>2021-09-04T16:55:54Z</time>
      </trkpt>
      <trkpt lat="45.63567" lon="4.59282">
        <ele>877.5</ele>
        <time>2021-09-04T16:55:55Z</time>
      </trkpt>
      <trkpt lat="45.63564" lon="4.5929">
        <ele>876.4</ele>
        <time>2021-09-04T16:55:57Z</time>
      </trkpt>
      <trkpt lat="45.63562" lon="4.59298">
        <ele>875.3</ele>
        <time>2021-09-04T16:55:58Z</time>
      </trkpt>
      <trkpt lat="45.63559" lon="4.59304">
        <ele>874.3</ele>
        <time>2021-09-04T16:55:59Z</time>
      </trkpt>
      <trkpt lat="45.63557" lon="4.59311">
        <ele>873.3</ele>
        <time>2021-09-04T16:56:01Z</time>
      </trkpt>
      <trkpt lat="45.63556" lon="4.59312">
        <ele>873</ele>
        <time>2021-09-04T16:56:02Z</time>
      </trkpt>
      <trkpt lat="45.63556" lon="4.59314">
        <ele>872.7</ele>
        <time>2021-09-04T16:56:03Z</time>
      </trkpt>
      <trkpt lat="45.63554" lon="4.59318">
        <ele>872.2</ele>
        <time>2021-09-04T16:56:04Z</time>
      </trkpt>
      <trkpt lat="45.63552" lon="4.59324">
        <ele>871.3</ele>
        <time>2021-09-04T16:56:06Z</time>
      </trkpt>
      <trkpt lat="45.6355" lon="4.59328">
        <ele>870.5</ele>
        <time>2021-09-04T16:56:07Z</time>
      </trkpt>
      <trkpt lat="45.63548" lon="4.59334">
        <ele>869.7</ele>
        <time>2021-09-04T16:56:08Z</time>
      </trkpt>
      <trkpt lat="45.63547" lon="4.59338">
        <ele>869.1</ele>
        <time>2021-09-04T16:56:10Z</time>
      </trkpt>
      <trkpt lat="45.63545" lon="4.59343">
        <ele>868.4</ele>
        <time>2021-09-04T16:56:12Z</time>
      </trkpt>
      <trkpt lat="45.63544" lon="4.59347">
        <ele>867.9</ele>
        <time>2021-09-04T16:56:13Z</time>
      </trkpt>
      <trkpt lat="45.63542" lon="4.5935">
        <ele>867.4</ele>
        <time>2021-09-04T16:56:14Z</time>
      </trkpt>
      <trkpt lat="45.63541" lon="4.59354">
        <ele>866.7</ele>
        <time>2021-09-04T16:56:15Z</time>
      </trkpt>
      <trkpt lat="45.63539" lon="4.5936">
        <ele>865.9</ele>
        <time>2021-09-04T16:56:17Z</time>
      </trkpt>
      <trkpt lat="45.63538" lon="4.59364">
        <ele>865.2</ele>
        <time>2021-09-04T16:56:18Z</time>
      </trkpt>
      <trkpt lat="45.63535" lon="4.5937">
        <ele>864.2</ele>
        <time>2021-09-04T16:56:20Z</time>
      </trkpt>
      <trkpt lat="45.63534" lon="4.59372">
        <ele>863.8</ele>
        <time>2021-09-04T16:56:21Z</time>
      </trkpt>
      <trkpt lat="45.63532" lon="4.59376">
        <ele>863.1</ele>
        <time>2021-09-04T16:56:22Z</time>
      </trkpt>
      <trkpt lat="45.63531" lon="4.59379">
        <ele>862.5</ele>
        <time>2021-09-04T16:56:23Z</time>
      </trkpt>
      <trkpt lat="45.63529" lon="4.59384">
        <ele>861.6</ele>
        <time>2021-09-04T16:56:25Z</time>
      </trkpt>
      <trkpt lat="45.63526" lon="4.59389">
        <ele>860.6</ele>
        <time>2021-09-04T16:56:26Z</time>
      </trkpt>
      <trkpt lat="45.63523" lon="4.59394">
        <ele>859.6</ele>
        <time>2021-09-04T16:56:28Z</time>
      </trkpt>
      <trkpt lat="45.63521" lon="4.59399">
        <ele>858.8</ele>
        <time>2021-09-04T16:56:29Z</time>
      </trkpt>
      <trkpt lat="45.6352" lon="4.594">
        <ele>858.5</ele>
        <time>2021-09-04T16:56:30Z</time>
      </trkpt>
      <trkpt lat="45.63518" lon="4.59404">
        <ele>857.9</ele>
        <time>2021-09-04T16:56:31Z</time>
      </trkpt>
      <trkpt lat="45.63516" lon="4.59409">
        <ele>857</ele>
        <time>2021-09-04T16:56:33Z</time>
      </trkpt>
      <trkpt lat="45.63512" lon="4.59421">
        <ele>855.5</ele>
        <time>2021-09-04T16:56:34Z</time>
      </trkpt>
      <trkpt lat="45.63508" lon="4.59437">
        <ele>854.5</ele>
        <time>2021-09-04T16:56:36Z</time>
      </trkpt>
      <trkpt lat="45.63506" lon="4.59455">
        <ele>854.1</ele>
        <time>2021-09-04T16:56:38Z</time>
      </trkpt>
      <trkpt lat="45.63507" lon="4.59464">
        <ele>854</ele>
        <time>2021-09-04T16:56:39Z</time>
      </trkpt>
      <trkpt lat="45.63513" lon="4.59481">
        <ele>854.4</ele>
        <time>2021-09-04T16:56:41Z</time>
      </trkpt>
      <trkpt lat="45.63515" lon="4.59489">
        <ele>854.7</ele>
        <time>2021-09-04T16:56:42Z</time>
      </trkpt>
      <trkpt lat="45.63517" lon="4.59497">
        <ele>855</ele>
        <time>2021-09-04T16:56:43Z</time>
      </trkpt>
      <trkpt lat="45.63518" lon="4.59513">
        <ele>855.5</ele>
        <time>2021-09-04T16:56:45Z</time>
      </trkpt>
      <trkpt lat="45.6352" lon="4.59527">
        <ele>856.1</ele>
        <time>2021-09-04T16:56:47Z</time>
      </trkpt>
      <trkpt lat="45.63522" lon="4.5954">
        <ele>856.7</ele>
        <time>2021-09-04T16:56:49Z</time>
      </trkpt>
      <trkpt lat="45.63523" lon="4.59545">
        <ele>856.9</ele>
        <time>2021-09-04T16:56:50Z</time>
      </trkpt>
      <trkpt lat="45.63523" lon="4.59559">
        <ele>857.6</ele>
        <time>2021-09-04T16:56:52Z</time>
      </trkpt>
      <trkpt lat="45.63525" lon="4.59572">
        <ele>858.2</ele>
        <time>2021-09-04T16:56:54Z</time>
      </trkpt>
      <trkpt lat="45.6353" lon="4.59583">
        <ele>858.9</ele>
        <time>2021-09-04T16:56:56Z</time>
      </trkpt>
      <trkpt lat="45.63533" lon="4.59588">
        <ele>859.2</ele>
        <time>2021-09-04T16:56:57Z</time>
      </trkpt>
      <trkpt lat="45.63536" lon="4.59592">
        <ele>859.4</ele>
        <time>2021-09-04T16:56:58Z</time>
      </trkpt>
      <trkpt lat="45.63539" lon="4.59597">
        <ele>859.7</ele>
        <time>2021-09-04T16:56:59Z</time>
      </trkpt>
      <trkpt lat="45.63545" lon="4.59603">
        <ele>860.1</ele>
        <time>2021-09-04T16:57:01Z</time>
      </trkpt>
      <trkpt lat="45.6355" lon="4.5961">
        <ele>860.4</ele>
        <time>2021-09-04T16:57:02Z</time>
      </trkpt>
      <trkpt lat="45.63559" lon="4.59622">
        <ele>860.8</ele>
        <time>2021-09-04T16:57:04Z</time>
      </trkpt>
      <trkpt lat="45.63564" lon="4.59636">
        <ele>861.1</ele>
        <time>2021-09-04T16:57:06Z</time>
      </trkpt>
      <trkpt lat="45.63569" lon="4.59649">
        <ele>861.2</ele>
        <time>2021-09-04T16:57:08Z</time>
      </trkpt>
      <trkpt lat="45.63571" lon="4.59656">
        <ele>861.3</ele>
        <time>2021-09-04T16:57:09Z</time>
      </trkpt>
      <trkpt lat="45.63573" lon="4.59664">
        <ele>861.3</ele>
        <time>2021-09-04T16:57:10Z</time>
      </trkpt>
      <trkpt lat="45.6358" lon="4.59678">
        <ele>860.3</ele>
        <time>2021-09-04T16:57:12Z</time>
      </trkpt>
      <trkpt lat="45.63585" lon="4.59684">
        <ele>859.8</ele>
        <time>2021-09-04T16:57:13Z</time>
      </trkpt>
      <trkpt lat="45.6359" lon="4.59689">
        <ele>859.2</ele>
        <time>2021-09-04T16:57:14Z</time>
      </trkpt>
      <trkpt lat="45.636" lon="4.59701">
        <ele>858</ele>
        <time>2021-09-04T16:57:16Z</time>
      </trkpt>
      <trkpt lat="45.63605" lon="4.59705">
        <ele>857.5</ele>
        <time>2021-09-04T16:57:17Z</time>
      </trkpt>
      <trkpt lat="45.6361" lon="4.59707">
        <ele>857.1</ele>
        <time>2021-09-04T16:57:18Z</time>
      </trkpt>
      <trkpt lat="45.63616" lon="4.59705">
        <ele>856.6</ele>
        <time>2021-09-04T16:57:19Z</time>
      </trkpt>
      <trkpt lat="45.63629" lon="4.59699">
        <ele>855.8</ele>
        <time>2021-09-04T16:57:21Z</time>
      </trkpt>
      <trkpt lat="45.63642" lon="4.59693">
        <ele>855.2</ele>
        <time>2021-09-04T16:57:23Z</time>
      </trkpt>
      <trkpt lat="45.63648" lon="4.5969">
        <ele>855.1</ele>
        <time>2021-09-04T16:57:24Z</time>
      </trkpt>
      <trkpt lat="45.6366" lon="4.59685">
        <ele>854.8</ele>
        <time>2021-09-04T16:57:26Z</time>
      </trkpt>
      <trkpt lat="45.63665" lon="4.59683">
        <ele>854.6</ele>
        <time>2021-09-04T16:57:27Z</time>
      </trkpt>
      <trkpt lat="45.63671" lon="4.59681">
        <ele>854.4</ele>
        <time>2021-09-04T16:57:28Z</time>
      </trkpt>
      <trkpt lat="45.63677" lon="4.5968">
        <ele>854.3</ele>
        <time>2021-09-04T16:57:29Z</time>
      </trkpt>
      <trkpt lat="45.6369" lon="4.59679">
        <ele>853.8</ele>
        <time>2021-09-04T16:57:31Z</time>
      </trkpt>
      <trkpt lat="45.63696" lon="4.59678">
        <ele>853.5</ele>
        <time>2021-09-04T16:57:32Z</time>
      </trkpt>
      <trkpt lat="45.63707" lon="4.59675">
        <ele>852.7</ele>
        <time>2021-09-04T16:57:34Z</time>
      </trkpt>
      <trkpt lat="45.63718" lon="4.59676">
        <ele>851.6</ele>
        <time>2021-09-04T16:57:36Z</time>
      </trkpt>
      <trkpt lat="45.63724" lon="4.59677">
        <ele>850.9</ele>
        <time>2021-09-04T16:57:37Z</time>
      </trkpt>
      <trkpt lat="45.63733" lon="4.59679">
        <ele>849.7</ele>
        <time>2021-09-04T16:57:39Z</time>
      </trkpt>
      <trkpt lat="45.63738" lon="4.5968">
        <ele>849</ele>
        <time>2021-09-04T16:57:40Z</time>
      </trkpt>
      <trkpt lat="45.63743" lon="4.59681">
        <ele>848.2</ele>
        <time>2021-09-04T16:57:41Z</time>
      </trkpt>
      <trkpt lat="45.63756" lon="4.59683">
        <ele>846.3</ele>
        <time>2021-09-04T16:57:43Z</time>
      </trkpt>
      <trkpt lat="45.63767" lon="4.59687">
        <ele>844.7</ele>
        <time>2021-09-04T16:57:45Z</time>
      </trkpt>
      <trkpt lat="45.63777" lon="4.59689">
        <ele>843.5</ele>
        <time>2021-09-04T16:57:47Z</time>
      </trkpt>
      <trkpt lat="45.63789" lon="4.59692">
        <ele>842.4</ele>
        <time>2021-09-04T16:57:49Z</time>
      </trkpt>
      <trkpt lat="45.63793" lon="4.59693">
        <ele>842.1</ele>
        <time>2021-09-04T16:57:50Z</time>
      </trkpt>
      <trkpt lat="45.63803" lon="4.59695">
        <ele>841.4</ele>
        <time>2021-09-04T16:57:52Z</time>
      </trkpt>
      <trkpt lat="45.63807" lon="4.59695">
        <ele>841.2</ele>
        <time>2021-09-04T16:57:53Z</time>
      </trkpt>
      <trkpt lat="45.63812" lon="4.59697">
        <ele>840.9</ele>
        <time>2021-09-04T16:57:54Z</time>
      </trkpt>
      <trkpt lat="45.63821" lon="4.59701">
        <ele>840.5</ele>
        <time>2021-09-04T16:57:56Z</time>
      </trkpt>
      <trkpt lat="45.63823" lon="4.59703">
        <ele>840.4</ele>
        <time>2021-09-04T16:57:57Z</time>
      </trkpt>
      <trkpt lat="45.63833" lon="4.59705">
        <ele>840.1</ele>
        <time>2021-09-04T16:57:59Z</time>
      </trkpt>
      <trkpt lat="45.63844" lon="4.59707">
        <ele>839.8</ele>
        <time>2021-09-04T16:58:01Z</time>
      </trkpt>
      <trkpt lat="45.6385" lon="4.59708">
        <ele>839.6</ele>
        <time>2021-09-04T16:58:03Z</time>
      </trkpt>
      <trkpt lat="45.63859" lon="4.59711">
        <ele>839.2</ele>
        <time>2021-09-04T16:58:05Z</time>
      </trkpt>
      <trkpt lat="45.63863" lon="4.59712">
        <ele>839.1</ele>
        <time>2021-09-04T16:58:06Z</time>
      </trkpt>
      <trkpt lat="45.63866" lon="4.59713">
        <ele>839</ele>
        <time>2021-09-04T16:58:07Z</time>
      </trkpt>
      <trkpt lat="45.63877" lon="4.59716">
        <ele>838.6</ele>
        <time>2021-09-04T16:58:09Z</time>
      </trkpt>
      <trkpt lat="45.63887" lon="4.59719">
        <ele>838.4</ele>
        <time>2021-09-04T16:58:11Z</time>
      </trkpt>
      <trkpt lat="45.63893" lon="4.5972">
        <ele>838.2</ele>
        <time>2021-09-04T16:58:12Z</time>
      </trkpt>
      <trkpt lat="45.63904" lon="4.59721">
        <ele>838</ele>
        <time>2021-09-04T16:58:14Z</time>
      </trkpt>
      <trkpt lat="45.6391" lon="4.59723">
        <ele>837.9</ele>
        <time>2021-09-04T16:58:15Z</time>
      </trkpt>
      <trkpt lat="45.63921" lon="4.59726">
        <ele>837.7</ele>
        <time>2021-09-04T16:58:17Z</time>
      </trkpt>
      <trkpt lat="45.63922" lon="4.59725">
        <ele>837.7</ele>
        <time>2021-09-04T16:58:18Z</time>
      </trkpt>
      <trkpt lat="45.63934" lon="4.59728">
        <ele>837.5</ele>
        <time>2021-09-04T16:58:20Z</time>
      </trkpt>
      <trkpt lat="45.63944" lon="4.59728">
        <ele>837.2</ele>
        <time>2021-09-04T16:58:22Z</time>
      </trkpt>
      <trkpt lat="45.6395" lon="4.59727">
        <ele>837.1</ele>
        <time>2021-09-04T16:58:23Z</time>
      </trkpt>
      <trkpt lat="45.63956" lon="4.5973">
        <ele>837</ele>
        <time>2021-09-04T16:58:24Z</time>
      </trkpt>
      <trkpt lat="45.63968" lon="4.59732">
        <ele>837</ele>
        <time>2021-09-04T16:58:26Z</time>
      </trkpt>
      <trkpt lat="45.63977" lon="4.59732">
        <ele>837.3</ele>
        <time>2021-09-04T16:58:28Z</time>
      </trkpt>
      <trkpt lat="45.63982" lon="4.5973">
        <ele>837.6</ele>
        <time>2021-09-04T16:58:29Z</time>
      </trkpt>
      <trkpt lat="45.63986" lon="4.59731">
        <ele>837.8</ele>
        <time>2021-09-04T16:58:30Z</time>
      </trkpt>
      <trkpt lat="45.6399" lon="4.5973">
        <ele>838.1</ele>
        <time>2021-09-04T16:58:32Z</time>
      </trkpt>
      <trkpt lat="45.63995" lon="4.59728">
        <ele>838.5</ele>
        <time>2021-09-04T16:58:33Z</time>
      </trkpt>
      <trkpt lat="45.63998" lon="4.59727">
        <ele>838.7</ele>
        <time>2021-09-04T16:58:35Z</time>
      </trkpt>
      <trkpt lat="45.64002" lon="4.59727">
        <ele>838.9</ele>
        <time>2021-09-04T16:58:36Z</time>
      </trkpt>
      <trkpt lat="45.64003" lon="4.59727">
        <ele>839</ele>
        <time>2021-09-04T16:58:37Z</time>
      </trkpt>
      <trkpt lat="45.64005" lon="4.59727">
        <ele>839.2</ele>
        <time>2021-09-04T16:58:38Z</time>
      </trkpt>
      <trkpt lat="45.64006" lon="4.59728">
        <ele>839.2</ele>
        <time>2021-09-04T16:58:40Z</time>
      </trkpt>
      <trkpt lat="45.64008" lon="4.59728">
        <ele>839.3</ele>
        <time>2021-09-04T16:58:41Z</time>
      </trkpt>
      <trkpt lat="45.64011" lon="4.59728">
        <ele>839.4</ele>
        <time>2021-09-04T16:58:42Z</time>
      </trkpt>
      <trkpt lat="45.64014" lon="4.5973">
        <ele>839.5</ele>
        <time>2021-09-04T16:58:44Z</time>
      </trkpt>
      <trkpt lat="45.64018" lon="4.5973">
        <ele>839.6</ele>
        <time>2021-09-04T16:58:45Z</time>
      </trkpt>
      <trkpt lat="45.64019" lon="4.5973">
        <ele>839.6</ele>
        <time>2021-09-04T16:58:46Z</time>
      </trkpt>
      <trkpt lat="45.64022" lon="4.5973">
        <ele>839.5</ele>
        <time>2021-09-04T16:58:47Z</time>
      </trkpt>
      <trkpt lat="45.64023" lon="4.5973">
        <ele>839.5</ele>
        <time>2021-09-04T16:58:48Z</time>
      </trkpt>
      <trkpt lat="45.64026" lon="4.59731">
        <ele>839.4</ele>
        <time>2021-09-04T16:58:50Z</time>
      </trkpt>
      <trkpt lat="45.6403" lon="4.59732">
        <ele>839.2</ele>
        <time>2021-09-04T16:58:51Z</time>
      </trkpt>
      <trkpt lat="45.64033" lon="4.59732">
        <ele>839.1</ele>
        <time>2021-09-04T16:58:52Z</time>
      </trkpt>
      <trkpt lat="45.64039" lon="4.59732">
        <ele>838.6</ele>
        <time>2021-09-04T16:58:54Z</time>
      </trkpt>
      <trkpt lat="45.64045" lon="4.59732">
        <ele>838.1</ele>
        <time>2021-09-04T16:58:56Z</time>
      </trkpt>
      <trkpt lat="45.64051" lon="4.59731">
        <ele>837.6</ele>
        <time>2021-09-04T16:58:58Z</time>
      </trkpt>
      <trkpt lat="45.64056" lon="4.59731">
        <ele>837.3</ele>
        <time>2021-09-04T16:58:59Z</time>
      </trkpt>
      <trkpt lat="45.64061" lon="4.59731">
        <ele>836.9</ele>
        <time>2021-09-04T16:59:01Z</time>
      </trkpt>
      <trkpt lat="45.64064" lon="4.59731">
        <ele>836.6</ele>
        <time>2021-09-04T16:59:02Z</time>
      </trkpt>
      <trkpt lat="45.64068" lon="4.59731">
        <ele>836.2</ele>
        <time>2021-09-04T16:59:03Z</time>
      </trkpt>
      <trkpt lat="45.64073" lon="4.59732">
        <ele>835.8</ele>
        <time>2021-09-04T16:59:04Z</time>
      </trkpt>
      <trkpt lat="45.64082" lon="4.59732">
        <ele>834.9</ele>
        <time>2021-09-04T16:59:06Z</time>
      </trkpt>
      <trkpt lat="45.64093" lon="4.5973">
        <ele>833.7</ele>
        <time>2021-09-04T16:59:07Z</time>
      </trkpt>
      <trkpt lat="45.64102" lon="4.5973">
        <ele>832.6</ele>
        <time>2021-09-04T16:59:08Z</time>
      </trkpt>
      <trkpt lat="45.64119" lon="4.59729">
        <ele>830.6</ele>
        <time>2021-09-04T16:59:10Z</time>
      </trkpt>
      <trkpt lat="45.64124" lon="4.59728">
        <ele>830</ele>
        <time>2021-09-04T16:59:11Z</time>
      </trkpt>
      <trkpt lat="45.64129" lon="4.59729">
        <ele>829.4</ele>
        <time>2021-09-04T16:59:13Z</time>
      </trkpt>
      <trkpt lat="45.64134" lon="4.59729">
        <ele>828.8</ele>
        <time>2021-09-04T16:59:14Z</time>
      </trkpt>
      <trkpt lat="45.64139" lon="4.59729">
        <ele>828.3</ele>
        <time>2021-09-04T16:59:15Z</time>
      </trkpt>
      <trkpt lat="45.64151" lon="4.59727">
        <ele>826.9</ele>
        <time>2021-09-04T16:59:16Z</time>
      </trkpt>
      <trkpt lat="45.64157" lon="4.59725">
        <ele>826.4</ele>
        <time>2021-09-04T16:59:17Z</time>
      </trkpt>
      <trkpt lat="45.64162" lon="4.59724">
        <ele>826.2</ele>
        <time>2021-09-04T16:59:18Z</time>
      </trkpt>
      <trkpt lat="45.64169" lon="4.59723">
        <ele>826.2</ele>
        <time>2021-09-04T16:59:20Z</time>
      </trkpt>
      <trkpt lat="45.64173" lon="4.59722">
        <ele>826.3</ele>
        <time>2021-09-04T16:59:21Z</time>
      </trkpt>
      <trkpt lat="45.6418" lon="4.59721">
        <ele>826.6</ele>
        <time>2021-09-04T16:59:23Z</time>
      </trkpt>
      <trkpt lat="45.64187" lon="4.59722">
        <ele>827.1</ele>
        <time>2021-09-04T16:59:24Z</time>
      </trkpt>
      <trkpt lat="45.64191" lon="4.59723">
        <ele>827.5</ele>
        <time>2021-09-04T16:59:25Z</time>
      </trkpt>
      <trkpt lat="45.64204" lon="4.59723">
        <ele>828.7</ele>
        <time>2021-09-04T16:59:27Z</time>
      </trkpt>
      <trkpt lat="45.64209" lon="4.59722">
        <ele>829.1</ele>
        <time>2021-09-04T16:59:28Z</time>
      </trkpt>
      <trkpt lat="45.64212" lon="4.59722">
        <ele>829.2</ele>
        <time>2021-09-04T16:59:30Z</time>
      </trkpt>
      <trkpt lat="45.64216" lon="4.59722">
        <ele>829.4</ele>
        <time>2021-09-04T16:59:31Z</time>
      </trkpt>
      <trkpt lat="45.64221" lon="4.59722">
        <ele>829.5</ele>
        <time>2021-09-04T16:59:33Z</time>
      </trkpt>
      <trkpt lat="45.64225" lon="4.59722">
        <ele>829.6</ele>
        <time>2021-09-04T16:59:34Z</time>
      </trkpt>
      <trkpt lat="45.6423" lon="4.59724">
        <ele>829.7</ele>
        <time>2021-09-04T16:59:35Z</time>
      </trkpt>
      <trkpt lat="45.64236" lon="4.59726">
        <ele>829.8</ele>
        <time>2021-09-04T16:59:37Z</time>
      </trkpt>
      <trkpt lat="45.64243" lon="4.59727">
        <ele>830.1</ele>
        <time>2021-09-04T16:59:38Z</time>
      </trkpt>
      <trkpt lat="45.64249" lon="4.59728">
        <ele>830.4</ele>
        <time>2021-09-04T16:59:40Z</time>
      </trkpt>
      <trkpt lat="45.64254" lon="4.5973">
        <ele>830.7</ele>
        <time>2021-09-04T16:59:41Z</time>
      </trkpt>
      <trkpt lat="45.64261" lon="4.59731">
        <ele>831.2</ele>
        <time>2021-09-04T16:59:43Z</time>
      </trkpt>
      <trkpt lat="45.64265" lon="4.59732">
        <ele>831.5</ele>
        <time>2021-09-04T16:59:44Z</time>
      </trkpt>
      <trkpt lat="45.64268" lon="4.59731">
        <ele>831.8</ele>
        <time>2021-09-04T16:59:45Z</time>
      </trkpt>
      <trkpt lat="45.64272" lon="4.59731">
        <ele>832</ele>
        <time>2021-09-04T16:59:46Z</time>
      </trkpt>
      <trkpt lat="45.64275" lon="4.5973">
        <ele>832.3</ele>
        <time>2021-09-04T16:59:47Z</time>
      </trkpt>
      <trkpt lat="45.64279" lon="4.59729">
        <ele>832.5</ele>
        <time>2021-09-04T16:59:49Z</time>
      </trkpt>
      <trkpt lat="45.64283" lon="4.59726">
        <ele>832.6</ele>
        <time>2021-09-04T16:59:50Z</time>
      </trkpt>
      <trkpt lat="45.64287" lon="4.59724">
        <ele>832.7</ele>
        <time>2021-09-04T16:59:51Z</time>
      </trkpt>
      <trkpt lat="45.6429" lon="4.59722">
        <ele>832.7</ele>
        <time>2021-09-04T16:59:52Z</time>
      </trkpt>
      <trkpt lat="45.64294" lon="4.59718">
        <ele>832.5</ele>
        <time>2021-09-04T16:59:54Z</time>
      </trkpt>
      <trkpt lat="45.64297" lon="4.59716">
        <ele>832.4</ele>
        <time>2021-09-04T16:59:55Z</time>
      </trkpt>
      <trkpt lat="45.64301" lon="4.59714">
        <ele>832.1</ele>
        <time>2021-09-04T16:59:56Z</time>
      </trkpt>
      <trkpt lat="45.64304" lon="4.59711">
        <ele>831.8</ele>
        <time>2021-09-04T16:59:58Z</time>
      </trkpt>
      <trkpt lat="45.64307" lon="4.59707">
        <ele>831.5</ele>
        <time>2021-09-04T16:59:59Z</time>
      </trkpt>
      <trkpt lat="45.64313" lon="4.59703">
        <ele>830.9</ele>
        <time>2021-09-04T17:00:01Z</time>
      </trkpt>
      <trkpt lat="45.64318" lon="4.59699">
        <ele>830.3</ele>
        <time>2021-09-04T17:00:03Z</time>
      </trkpt>
      <trkpt lat="45.64322" lon="4.59698">
        <ele>829.9</ele>
        <time>2021-09-04T17:00:04Z</time>
      </trkpt>
      <trkpt lat="45.64326" lon="4.59695">
        <ele>829.4</ele>
        <time>2021-09-04T17:00:05Z</time>
      </trkpt>
      <trkpt lat="45.64332" lon="4.59689">
        <ele>828.7</ele>
        <time>2021-09-04T17:00:07Z</time>
      </trkpt>
      <trkpt lat="45.64338" lon="4.59674">
        <ele>827.6</ele>
        <time>2021-09-04T17:00:08Z</time>
      </trkpt>
      <trkpt lat="45.64341" lon="4.59658">
        <ele>826.6</ele>
        <time>2021-09-04T17:00:10Z</time>
      </trkpt>
      <trkpt lat="45.64344" lon="4.59651">
        <ele>826</ele>
        <time>2021-09-04T17:00:11Z</time>
      </trkpt>
      <trkpt lat="45.6435" lon="4.59633">
        <ele>824.5</ele>
        <time>2021-09-04T17:00:13Z</time>
      </trkpt>
      <trkpt lat="45.64357" lon="4.59617">
        <ele>823</ele>
        <time>2021-09-04T17:00:15Z</time>
      </trkpt>
      <trkpt lat="45.64362" lon="4.59603">
        <ele>821.9</ele>
        <time>2021-09-04T17:00:17Z</time>
      </trkpt>
      <trkpt lat="45.64365" lon="4.59596">
        <ele>821.2</ele>
        <time>2021-09-04T17:00:19Z</time>
      </trkpt>
      <trkpt lat="45.64367" lon="4.5959">
        <ele>820.7</ele>
        <time>2021-09-04T17:00:20Z</time>
      </trkpt>
      <trkpt lat="45.64369" lon="4.59582">
        <ele>820</ele>
        <time>2021-09-04T17:00:21Z</time>
      </trkpt>
      <trkpt lat="45.64374" lon="4.59579">
        <ele>819.4</ele>
        <time>2021-09-04T17:00:23Z</time>
      </trkpt>
      <trkpt lat="45.64381" lon="4.59573">
        <ele>818.4</ele>
        <time>2021-09-04T17:00:24Z</time>
      </trkpt>
      <trkpt lat="45.64384" lon="4.59569">
        <ele>817.9</ele>
        <time>2021-09-04T17:00:25Z</time>
      </trkpt>
      <trkpt lat="45.64388" lon="4.59561">
        <ele>817</ele>
        <time>2021-09-04T17:00:27Z</time>
      </trkpt>
      <trkpt lat="45.64391" lon="4.59555">
        <ele>816.4</ele>
        <time>2021-09-04T17:00:28Z</time>
      </trkpt>
      <trkpt lat="45.64392" lon="4.59549">
        <ele>815.9</ele>
        <time>2021-09-04T17:00:29Z</time>
      </trkpt>
      <trkpt lat="45.64395" lon="4.59541">
        <ele>815</ele>
        <time>2021-09-04T17:00:31Z</time>
      </trkpt>
      <trkpt lat="45.644" lon="4.59528">
        <ele>813.5</ele>
        <time>2021-09-04T17:00:32Z</time>
      </trkpt>
      <trkpt lat="45.64403" lon="4.59521">
        <ele>812.6</ele>
        <time>2021-09-04T17:00:33Z</time>
      </trkpt>
      <trkpt lat="45.64407" lon="4.59514">
        <ele>811.7</ele>
        <time>2021-09-04T17:00:34Z</time>
      </trkpt>
      <trkpt lat="45.64414" lon="4.595">
        <ele>809.7</ele>
        <time>2021-09-04T17:00:36Z</time>
      </trkpt>
      <trkpt lat="45.64421" lon="4.59485">
        <ele>807.9</ele>
        <time>2021-09-04T17:00:38Z</time>
      </trkpt>
      <trkpt lat="45.64423" lon="4.59477">
        <ele>806.9</ele>
        <time>2021-09-04T17:00:39Z</time>
      </trkpt>
      <trkpt lat="45.64429" lon="4.59466">
        <ele>805</ele>
        <time>2021-09-04T17:00:41Z</time>
      </trkpt>
      <trkpt lat="45.64434" lon="4.59464">
        <ele>803.9</ele>
        <time>2021-09-04T17:00:42Z</time>
      </trkpt>
      <trkpt lat="45.64439" lon="4.59461">
        <ele>802.9</ele>
        <time>2021-09-04T17:00:43Z</time>
      </trkpt>
      <trkpt lat="45.64446" lon="4.59451">
        <ele>801</ele>
        <time>2021-09-04T17:00:45Z</time>
      </trkpt>
      <trkpt lat="45.6445" lon="4.59442">
        <ele>799.5</ele>
        <time>2021-09-04T17:00:47Z</time>
      </trkpt>
      <trkpt lat="45.64458" lon="4.59431">
        <ele>797.8</ele>
        <time>2021-09-04T17:00:49Z</time>
      </trkpt>
      <trkpt lat="45.64469" lon="4.5942">
        <ele>796.2</ele>
        <time>2021-09-04T17:00:51Z</time>
      </trkpt>
      <trkpt lat="45.6448" lon="4.59408">
        <ele>795.1</ele>
        <time>2021-09-04T17:00:53Z</time>
      </trkpt>
      <trkpt lat="45.64484" lon="4.59403">
        <ele>794.7</ele>
        <time>2021-09-04T17:00:54Z</time>
      </trkpt>
      <trkpt lat="45.64493" lon="4.5939">
        <ele>793.9</ele>
        <time>2021-09-04T17:00:56Z</time>
      </trkpt>
      <trkpt lat="45.64502" lon="4.59382">
        <ele>793.2</ele>
        <time>2021-09-04T17:00:58Z</time>
      </trkpt>
      <trkpt lat="45.64506" lon="4.5938">
        <ele>792.9</ele>
        <time>2021-09-04T17:01:00Z</time>
      </trkpt>
      <trkpt lat="45.64509" lon="4.59379">
        <ele>792.7</ele>
        <time>2021-09-04T17:01:01Z</time>
      </trkpt>
      <trkpt lat="45.64512" lon="4.59377">
        <ele>792.5</ele>
        <time>2021-09-04T17:01:02Z</time>
      </trkpt>
      <trkpt lat="45.64516" lon="4.59374">
        <ele>792</ele>
        <time>2021-09-04T17:01:03Z</time>
      </trkpt>
      <trkpt lat="45.64521" lon="4.59371">
        <ele>791.4</ele>
        <time>2021-09-04T17:01:05Z</time>
      </trkpt>
      <trkpt lat="45.64528" lon="4.59369">
        <ele>790.5</ele>
        <time>2021-09-04T17:01:06Z</time>
      </trkpt>
      <trkpt lat="45.64533" lon="4.5937">
        <ele>789.8</ele>
        <time>2021-09-04T17:01:08Z</time>
      </trkpt>
      <trkpt lat="45.64537" lon="4.59371">
        <ele>789.2</ele>
        <time>2021-09-04T17:01:09Z</time>
      </trkpt>
      <trkpt lat="45.64543" lon="4.59374">
        <ele>788.3</ele>
        <time>2021-09-04T17:01:10Z</time>
      </trkpt>
      <trkpt lat="45.64549" lon="4.59373">
        <ele>787.3</ele>
        <time>2021-09-04T17:01:11Z</time>
      </trkpt>
      <trkpt lat="45.64555" lon="4.59371">
        <ele>786.5</ele>
        <time>2021-09-04T17:01:12Z</time>
      </trkpt>
      <trkpt lat="45.64561" lon="4.59369">
        <ele>785.7</ele>
        <time>2021-09-04T17:01:13Z</time>
      </trkpt>
      <trkpt lat="45.64572" lon="4.59363">
        <ele>784</ele>
        <time>2021-09-04T17:01:15Z</time>
      </trkpt>
      <trkpt lat="45.64577" lon="4.5936">
        <ele>783.3</ele>
        <time>2021-09-04T17:01:16Z</time>
      </trkpt>
      <trkpt lat="45.64582" lon="4.59356">
        <ele>782.6</ele>
        <time>2021-09-04T17:01:17Z</time>
      </trkpt>
      <trkpt lat="45.64592" lon="4.59348">
        <ele>781.2</ele>
        <time>2021-09-04T17:01:19Z</time>
      </trkpt>
      <trkpt lat="45.64601" lon="4.59339">
        <ele>779.9</ele>
        <time>2021-09-04T17:01:21Z</time>
      </trkpt>
      <trkpt lat="45.64604" lon="4.59336">
        <ele>779.4</ele>
        <time>2021-09-04T17:01:22Z</time>
      </trkpt>
      <trkpt lat="45.64608" lon="4.59333">
        <ele>778.9</ele>
        <time>2021-09-04T17:01:23Z</time>
      </trkpt>
      <trkpt lat="45.64609" lon="4.59331">
        <ele>778.7</ele>
        <time>2021-09-04T17:01:24Z</time>
      </trkpt>
      <trkpt lat="45.64613" lon="4.59326">
        <ele>778</ele>
        <time>2021-09-04T17:01:25Z</time>
      </trkpt>
      <trkpt lat="45.64619" lon="4.59312">
        <ele>776.7</ele>
        <time>2021-09-04T17:01:27Z</time>
      </trkpt>
      <trkpt lat="45.64622" lon="4.59302">
        <ele>775.9</ele>
        <time>2021-09-04T17:01:29Z</time>
      </trkpt>
      <trkpt lat="45.64624" lon="4.59295">
        <ele>775.4</ele>
        <time>2021-09-04T17:01:30Z</time>
      </trkpt>
      <trkpt lat="45.64627" lon="4.59285">
        <ele>774.7</ele>
        <time>2021-09-04T17:01:32Z</time>
      </trkpt>
      <trkpt lat="45.64629" lon="4.59276">
        <ele>774.1</ele>
        <time>2021-09-04T17:01:34Z</time>
      </trkpt>
      <trkpt lat="45.64631" lon="4.59267">
        <ele>773.5</ele>
        <time>2021-09-04T17:01:35Z</time>
      </trkpt>
      <trkpt lat="45.64631" lon="4.5926">
        <ele>773.1</ele>
        <time>2021-09-04T17:01:36Z</time>
      </trkpt>
      <trkpt lat="45.64633" lon="4.59245">
        <ele>772.3</ele>
        <time>2021-09-04T17:01:38Z</time>
      </trkpt>
      <trkpt lat="45.64634" lon="4.59228">
        <ele>771.6</ele>
        <time>2021-09-04T17:01:40Z</time>
      </trkpt>
      <trkpt lat="45.64634" lon="4.5922">
        <ele>771.3</ele>
        <time>2021-09-04T17:01:41Z</time>
      </trkpt>
      <trkpt lat="45.64633" lon="4.59202">
        <ele>770.9</ele>
        <time>2021-09-04T17:01:43Z</time>
      </trkpt>
      <trkpt lat="45.64633" lon="4.59192">
        <ele>770.7</ele>
        <time>2021-09-04T17:01:44Z</time>
      </trkpt>
      <trkpt lat="45.64636" lon="4.59174">
        <ele>770.4</ele>
        <time>2021-09-04T17:01:46Z</time>
      </trkpt>
      <trkpt lat="45.64642" lon="4.59159">
        <ele>769.9</ele>
        <time>2021-09-04T17:01:48Z</time>
      </trkpt>
      <trkpt lat="45.64648" lon="4.59145">
        <ele>769.4</ele>
        <time>2021-09-04T17:01:50Z</time>
      </trkpt>
      <trkpt lat="45.64651" lon="4.59142">
        <ele>769.2</ele>
        <time>2021-09-04T17:01:51Z</time>
      </trkpt>
      <trkpt lat="45.64656" lon="4.5914">
        <ele>768.9</ele>
        <time>2021-09-04T17:01:53Z</time>
      </trkpt>
      <trkpt lat="45.64658" lon="4.59141">
        <ele>768.7</ele>
        <time>2021-09-04T17:01:54Z</time>
      </trkpt>
      <trkpt lat="45.6466" lon="4.59148">
        <ele>766.4</ele>
        <time>2021-09-04T17:01:56Z</time>
      </trkpt>
      <trkpt lat="45.64664" lon="4.59153">
        <ele>765.6</ele>
        <time>2021-09-04T17:01:58Z</time>
      </trkpt>
      <trkpt lat="45.64665" lon="4.59156">
        <ele>765.2</ele>
        <time>2021-09-04T17:01:59Z</time>
      </trkpt>
      <trkpt lat="45.64668" lon="4.59162">
        <ele>764.3</ele>
        <time>2021-09-04T17:02:01Z</time>
      </trkpt>
      <trkpt lat="45.64674" lon="4.59169">
        <ele>763</ele>
        <time>2021-09-04T17:02:02Z</time>
      </trkpt>
      <trkpt lat="45.64677" lon="4.59172">
        <ele>762.4</ele>
        <time>2021-09-04T17:02:04Z</time>
      </trkpt>
      <trkpt lat="45.64684" lon="4.59185">
        <ele>760.8</ele>
        <time>2021-09-04T17:02:05Z</time>
      </trkpt>
      <trkpt lat="45.6469" lon="4.59198">
        <ele>759.4</ele>
        <time>2021-09-04T17:02:07Z</time>
      </trkpt>
      <trkpt lat="45.64695" lon="4.59205">
        <ele>758.6</ele>
        <time>2021-09-04T17:02:08Z</time>
      </trkpt>
      <trkpt lat="45.64703" lon="4.59218">
        <ele>757</ele>
        <time>2021-09-04T17:02:10Z</time>
      </trkpt>
      <trkpt lat="45.64712" lon="4.59227">
        <ele>755.4</ele>
        <time>2021-09-04T17:02:12Z</time>
      </trkpt>
      <trkpt lat="45.64722" lon="4.59236">
        <ele>753.8</ele>
        <time>2021-09-04T17:02:14Z</time>
      </trkpt>
      <trkpt lat="45.64727" lon="4.5924">
        <ele>753</ele>
        <time>2021-09-04T17:02:15Z</time>
      </trkpt>
      <trkpt lat="45.64738" lon="4.59251">
        <ele>751.2</ele>
        <time>2021-09-04T17:02:17Z</time>
      </trkpt>
      <trkpt lat="45.64746" lon="4.59258">
        <ele>749.9</ele>
        <time>2021-09-04T17:02:19Z</time>
      </trkpt>
      <trkpt lat="45.64751" lon="4.59262">
        <ele>749.1</ele>
        <time>2021-09-04T17:02:20Z</time>
      </trkpt>
      <trkpt lat="45.6476" lon="4.59267">
        <ele>747.8</ele>
        <time>2021-09-04T17:02:22Z</time>
      </trkpt>
      <trkpt lat="45.64764" lon="4.59266">
        <ele>747.1</ele>
        <time>2021-09-04T17:02:24Z</time>
      </trkpt>
      <trkpt lat="45.64767" lon="4.59264">
        <ele>746.6</ele>
        <time>2021-09-04T17:02:25Z</time>
      </trkpt>
      <trkpt lat="45.64769" lon="4.59262">
        <ele>746.1</ele>
        <time>2021-09-04T17:02:26Z</time>
      </trkpt>
      <trkpt lat="45.64777" lon="4.59253">
        <ele>744.5</ele>
        <time>2021-09-04T17:02:28Z</time>
      </trkpt>
      <trkpt lat="45.6478" lon="4.59249">
        <ele>743.7</ele>
        <time>2021-09-04T17:02:29Z</time>
      </trkpt>
      <trkpt lat="45.64784" lon="4.59237">
        <ele>742.3</ele>
        <time>2021-09-04T17:02:31Z</time>
      </trkpt>
      <trkpt lat="45.64787" lon="4.5923">
        <ele>741.3</ele>
        <time>2021-09-04T17:02:32Z</time>
      </trkpt>
      <trkpt lat="45.6479" lon="4.59221">
        <ele>740.2</ele>
        <time>2021-09-04T17:02:34Z</time>
      </trkpt>
      <trkpt lat="45.64791" lon="4.59217">
        <ele>739.8</ele>
        <time>2021-09-04T17:02:35Z</time>
      </trkpt>
      <trkpt lat="45.64791" lon="4.59215">
        <ele>739.5</ele>
        <time>2021-09-04T17:02:36Z</time>
      </trkpt>
      <trkpt lat="45.64792" lon="4.59213">
        <ele>739.3</ele>
        <time>2021-09-04T17:02:37Z</time>
      </trkpt>
      <trkpt lat="45.64793" lon="4.59212">
        <ele>739.1</ele>
        <time>2021-09-04T17:02:38Z</time>
      </trkpt>
      <trkpt lat="45.64794" lon="4.59208">
        <ele>738.7</ele>
        <time>2021-09-04T17:02:40Z</time>
      </trkpt>
      <trkpt lat="45.64796" lon="4.59203">
        <ele>738.1</ele>
        <time>2021-09-04T17:02:41Z</time>
      </trkpt>
      <trkpt lat="45.64797" lon="4.59202">
        <ele>737.9</ele>
        <time>2021-09-04T17:02:42Z</time>
      </trkpt>
      <trkpt lat="45.64798" lon="4.59197">
        <ele>737.4</ele>
        <time>2021-09-04T17:02:43Z</time>
      </trkpt>
      <trkpt lat="45.64799" lon="4.59192">
        <ele>737</ele>
        <time>2021-09-04T17:02:44Z</time>
      </trkpt>
      <trkpt lat="45.64802" lon="4.59184">
        <ele>736.2</ele>
        <time>2021-09-04T17:02:46Z</time>
      </trkpt>
      <trkpt lat="45.64804" lon="4.59179">
        <ele>735.7</ele>
        <time>2021-09-04T17:02:47Z</time>
      </trkpt>
      <trkpt lat="45.64806" lon="4.59174">
        <ele>735.2</ele>
        <time>2021-09-04T17:02:48Z</time>
      </trkpt>
      <trkpt lat="45.64809" lon="4.59171">
        <ele>734.8</ele>
        <time>2021-09-04T17:02:49Z</time>
      </trkpt>
      <trkpt lat="45.64814" lon="4.59166">
        <ele>734.2</ele>
        <time>2021-09-04T17:02:51Z</time>
      </trkpt>
      <trkpt lat="45.64817" lon="4.59164">
        <ele>733.8</ele>
        <time>2021-09-04T17:02:52Z</time>
      </trkpt>
      <trkpt lat="45.64819" lon="4.59163">
        <ele>733.6</ele>
        <time>2021-09-04T17:02:53Z</time>
      </trkpt>
      <trkpt lat="45.64825" lon="4.59161">
        <ele>732.9</ele>
        <time>2021-09-04T17:02:55Z</time>
      </trkpt>
      <trkpt lat="45.64832" lon="4.59159">
        <ele>732.1</ele>
        <time>2021-09-04T17:02:57Z</time>
      </trkpt>
      <trkpt lat="45.64839" lon="4.59157">
        <ele>731.2</ele>
        <time>2021-09-04T17:02:58Z</time>
      </trkpt>
      <trkpt lat="45.64844" lon="4.59156">
        <ele>730.7</ele>
        <time>2021-09-04T17:02:59Z</time>
      </trkpt>
      <trkpt lat="45.6485" lon="4.59154">
        <ele>730</ele>
        <time>2021-09-04T17:03:01Z</time>
      </trkpt>
      <trkpt lat="45.64853" lon="4.59156">
        <ele>729.7</ele>
        <time>2021-09-04T17:03:02Z</time>
      </trkpt>
      <trkpt lat="45.64856" lon="4.59153">
        <ele>729.3</ele>
        <time>2021-09-04T17:03:03Z</time>
      </trkpt>
      <trkpt lat="45.64863" lon="4.5915">
        <ele>728.6</ele>
        <time>2021-09-04T17:03:05Z</time>
      </trkpt>
      <trkpt lat="45.64868" lon="4.59148">
        <ele>728.2</ele>
        <time>2021-09-04T17:03:06Z</time>
      </trkpt>
      <trkpt lat="45.64874" lon="4.59146">
        <ele>727.8</ele>
        <time>2021-09-04T17:03:07Z</time>
      </trkpt>
      <trkpt lat="45.64879" lon="4.59145">
        <ele>727.4</ele>
        <time>2021-09-04T17:03:08Z</time>
      </trkpt>
      <trkpt lat="45.64888" lon="4.5914">
        <ele>726.9</ele>
        <time>2021-09-04T17:03:10Z</time>
      </trkpt>
      <trkpt lat="45.64893" lon="4.59138">
        <ele>726.7</ele>
        <time>2021-09-04T17:03:11Z</time>
      </trkpt>
      <trkpt lat="45.64896" lon="4.59132">
        <ele>726.6</ele>
        <time>2021-09-04T17:03:13Z</time>
      </trkpt>
      <trkpt lat="45.64905" lon="4.59128">
        <ele>726.5</ele>
        <time>2021-09-04T17:03:14Z</time>
      </trkpt>
      <trkpt lat="45.6491" lon="4.5912">
        <ele>726.5</ele>
        <time>2021-09-04T17:03:16Z</time>
      </trkpt>
      <trkpt lat="45.64913" lon="4.59117">
        <ele>726.6</ele>
        <time>2021-09-04T17:03:17Z</time>
      </trkpt>
      <trkpt lat="45.64921" lon="4.59113">
        <ele>726.6</ele>
        <time>2021-09-04T17:03:19Z</time>
      </trkpt>
      <trkpt lat="45.64929" lon="4.59116">
        <ele>726.8</ele>
        <time>2021-09-04T17:03:21Z</time>
      </trkpt>
      <trkpt lat="45.64934" lon="4.59118">
        <ele>726.8</ele>
        <time>2021-09-04T17:03:23Z</time>
      </trkpt>
      <trkpt lat="45.64937" lon="4.5912">
        <ele>726.9</ele>
        <time>2021-09-04T17:03:24Z</time>
      </trkpt>
      <trkpt lat="45.64942" lon="4.59126">
        <ele>727.1</ele>
        <time>2021-09-04T17:03:26Z</time>
      </trkpt>
      <trkpt lat="45.64945" lon="4.59132">
        <ele>727.2</ele>
        <time>2021-09-04T17:03:28Z</time>
      </trkpt>
      <trkpt lat="45.64948" lon="4.59136">
        <ele>727.3</ele>
        <time>2021-09-04T17:03:29Z</time>
      </trkpt>
      <trkpt lat="45.64951" lon="4.59142">
        <ele>727.4</ele>
        <time>2021-09-04T17:03:30Z</time>
      </trkpt>
      <trkpt lat="45.64953" lon="4.59145">
        <ele>727.5</ele>
        <time>2021-09-04T17:03:31Z</time>
      </trkpt>
      <trkpt lat="45.64957" lon="4.59151">
        <ele>727.7</ele>
        <time>2021-09-04T17:03:33Z</time>
      </trkpt>
      <trkpt lat="45.64959" lon="4.59155">
        <ele>727.7</ele>
        <time>2021-09-04T17:03:34Z</time>
      </trkpt>
      <trkpt lat="45.64961" lon="4.59159">
        <ele>727.8</ele>
        <time>2021-09-04T17:03:35Z</time>
      </trkpt>
      <trkpt lat="45.64963" lon="4.59164">
        <ele>727.9</ele>
        <time>2021-09-04T17:03:37Z</time>
      </trkpt>
      <trkpt lat="45.64964" lon="4.59168">
        <ele>728</ele>
        <time>2021-09-04T17:03:38Z</time>
      </trkpt>
      <trkpt lat="45.64962" lon="4.59165">
        <ele>728.1</ele>
        <time>2021-09-04T17:03:40Z</time>
      </trkpt>
      <trkpt lat="45.64961" lon="4.59164">
        <ele>728.1</ele>
        <time>2021-09-04T17:03:42Z</time>
      </trkpt>
      <trkpt lat="45.64961" lon="4.59163">
        <ele>728.1</ele>
        <time>2021-09-04T17:03:44Z</time>
      </trkpt>
      <trkpt lat="45.64961" lon="4.59163">
        <ele>728.1</ele>
        <time>2021-09-04T17:03:46Z</time>
      </trkpt>
      <trkpt lat="45.64961" lon="4.59162">
        <ele>728.1</ele>
        <time>2021-09-04T17:03:48Z</time>
      </trkpt>
      <trkpt lat="45.64965" lon="4.59169">
        <ele>728.3</ele>
        <time>2021-09-04T17:03:52Z</time>
      </trkpt>
      <trkpt lat="45.64967" lon="4.59173">
        <ele>728.4</ele>
        <time>2021-09-04T17:03:53Z</time>
      </trkpt>
      <trkpt lat="45.6497" lon="4.59178">
        <ele>728.6</ele>
        <time>2021-09-04T17:03:54Z</time>
      </trkpt>
      <trkpt lat="45.64971" lon="4.5918">
        <ele>728.7</ele>
        <time>2021-09-04T17:03:55Z</time>
      </trkpt>
      <trkpt lat="45.64974" lon="4.59184">
        <ele>728.8</ele>
        <time>2021-09-04T17:03:57Z</time>
      </trkpt>
      <trkpt lat="45.64977" lon="4.59187">
        <ele>729</ele>
        <time>2021-09-04T17:03:59Z</time>
      </trkpt>
      <trkpt lat="45.6498" lon="4.59191">
        <ele>729.1</ele>
        <time>2021-09-04T17:04:01Z</time>
      </trkpt>
      <trkpt lat="45.64981" lon="4.59193">
        <ele>729.1</ele>
        <time>2021-09-04T17:04:02Z</time>
      </trkpt>
      <trkpt lat="45.64982" lon="4.59194">
        <ele>729.2</ele>
        <time>2021-09-04T17:04:03Z</time>
      </trkpt>
      <trkpt lat="45.6498" lon="4.59191">
        <ele>729.3</ele>
        <time>2021-09-04T17:04:05Z</time>
      </trkpt>
      <trkpt lat="45.6498" lon="4.59191">
        <ele>729.3</ele>
        <time>2021-09-04T17:04:06Z</time>
      </trkpt>
      <trkpt lat="45.64981" lon="4.59193">
        <ele>729.4</ele>
        <time>2021-09-04T17:04:08Z</time>
      </trkpt>
      <trkpt lat="45.64983" lon="4.59196">
        <ele>729.4</ele>
        <time>2021-09-04T17:04:10Z</time>
      </trkpt>
      <trkpt lat="45.64984" lon="4.59198">
        <ele>729.5</ele>
        <time>2021-09-04T17:04:12Z</time>
      </trkpt>
      <trkpt lat="45.64986" lon="4.59201">
        <ele>729.6</ele>
        <time>2021-09-04T17:04:21Z</time>
      </trkpt>
      <trkpt lat="45.64988" lon="4.59203">
        <ele>729.7</ele>
        <time>2021-09-04T17:04:22Z</time>
      </trkpt>
      <trkpt lat="45.64992" lon="4.59211">
        <ele>730.1</ele>
        <time>2021-09-04T17:04:24Z</time>
      </trkpt>
      <trkpt lat="45.64997" lon="4.59217">
        <ele>730.5</ele>
        <time>2021-09-04T17:04:26Z</time>
      </trkpt>
      <trkpt lat="45.65001" lon="4.59222">
        <ele>730.8</ele>
        <time>2021-09-04T17:04:27Z</time>
      </trkpt>
      <trkpt lat="45.65005" lon="4.59226">
        <ele>731.1</ele>
        <time>2021-09-04T17:04:28Z</time>
      </trkpt>
      <trkpt lat="45.65008" lon="4.59229">
        <ele>731.5</ele>
        <time>2021-09-04T17:04:30Z</time>
      </trkpt>
      <trkpt lat="45.65012" lon="4.59233">
        <ele>731.8</ele>
        <time>2021-09-04T17:04:31Z</time>
      </trkpt>
      <trkpt lat="45.65014" lon="4.59234">
        <ele>732</ele>
        <time>2021-09-04T17:04:32Z</time>
      </trkpt>
      <trkpt lat="45.65017" lon="4.59237">
        <ele>732.2</ele>
        <time>2021-09-04T17:04:34Z</time>
      </trkpt>
      <trkpt lat="45.65019" lon="4.59239">
        <ele>732.4</ele>
        <time>2021-09-04T17:04:35Z</time>
      </trkpt>
      <trkpt lat="45.65023" lon="4.59241">
        <ele>732.6</ele>
        <time>2021-09-04T17:04:37Z</time>
      </trkpt>
      <trkpt lat="45.65027" lon="4.59243">
        <ele>732.7</ele>
        <time>2021-09-04T17:04:39Z</time>
      </trkpt>
      <trkpt lat="45.65029" lon="4.59245">
        <ele>732.8</ele>
        <time>2021-09-04T17:04:40Z</time>
      </trkpt>
      <trkpt lat="45.6503" lon="4.59245">
        <ele>732.8</ele>
        <time>2021-09-04T17:04:41Z</time>
      </trkpt>
      <trkpt lat="45.65032" lon="4.59246">
        <ele>732.8</ele>
        <time>2021-09-04T17:04:42Z</time>
      </trkpt>
      <trkpt lat="45.65035" lon="4.59248">
        <ele>732.7</ele>
        <time>2021-09-04T17:04:44Z</time>
      </trkpt>
      <trkpt lat="45.65037" lon="4.5925">
        <ele>732.7</ele>
        <time>2021-09-04T17:04:45Z</time>
      </trkpt>
      <trkpt lat="45.6504" lon="4.59251">
        <ele>732.5</ele>
        <time>2021-09-04T17:04:47Z</time>
      </trkpt>
      <trkpt lat="45.65044" lon="4.59253">
        <ele>732.3</ele>
        <time>2021-09-04T17:04:48Z</time>
      </trkpt>
      <trkpt lat="45.65045" lon="4.59253">
        <ele>732.2</ele>
        <time>2021-09-04T17:04:49Z</time>
      </trkpt>
      <trkpt lat="45.65052" lon="4.59255">
        <ele>731.7</ele>
        <time>2021-09-04T17:04:51Z</time>
      </trkpt>
      <trkpt lat="45.65057" lon="4.59256">
        <ele>731.2</ele>
        <time>2021-09-04T17:04:52Z</time>
      </trkpt>
      <trkpt lat="45.65061" lon="4.59256">
        <ele>730.6</ele>
        <time>2021-09-04T17:04:53Z</time>
      </trkpt>
      <trkpt lat="45.65067" lon="4.59255">
        <ele>729.9</ele>
        <time>2021-09-04T17:04:55Z</time>
      </trkpt>
      <trkpt lat="45.65071" lon="4.59251">
        <ele>729.4</ele>
        <time>2021-09-04T17:04:56Z</time>
      </trkpt>
      <trkpt lat="45.65075" lon="4.59245">
        <ele>728.6</ele>
        <time>2021-09-04T17:04:57Z</time>
      </trkpt>
      <trkpt lat="45.65079" lon="4.59238">
        <ele>727.9</ele>
        <time>2021-09-04T17:04:59Z</time>
      </trkpt>
      <trkpt lat="45.65116" lon="4.59226">
        <ele>726</ele>
        <time>2021-09-04T17:05:00Z</time>
      </trkpt>
      <trkpt lat="45.65125" lon="4.59224">
        <ele>726.1</ele>
        <time>2021-09-04T17:05:02Z</time>
      </trkpt>
      <trkpt lat="45.65133" lon="4.59223">
        <ele>726.3</ele>
        <time>2021-09-04T17:05:03Z</time>
      </trkpt>
      <trkpt lat="45.65139" lon="4.59222">
        <ele>726.4</ele>
        <time>2021-09-04T17:05:04Z</time>
      </trkpt>
      <trkpt lat="45.65148" lon="4.59224">
        <ele>726.6</ele>
        <time>2021-09-04T17:05:06Z</time>
      </trkpt>
      <trkpt lat="45.65152" lon="4.59225">
        <ele>726.7</ele>
        <time>2021-09-04T17:05:07Z</time>
      </trkpt>
      <trkpt lat="45.65161" lon="4.59225">
        <ele>726.7</ele>
        <time>2021-09-04T17:05:09Z</time>
      </trkpt>
      <trkpt lat="45.65167" lon="4.59226">
        <ele>726.7</ele>
        <time>2021-09-04T17:05:10Z</time>
      </trkpt>
      <trkpt lat="45.65177" lon="4.59225">
        <ele>726.5</ele>
        <time>2021-09-04T17:05:12Z</time>
      </trkpt>
      <trkpt lat="45.65187" lon="4.59225">
        <ele>726.2</ele>
        <time>2021-09-04T17:05:14Z</time>
      </trkpt>
      <trkpt lat="45.65197" lon="4.59226">
        <ele>726</ele>
        <time>2021-09-04T17:05:16Z</time>
      </trkpt>
      <trkpt lat="45.65204" lon="4.59235">
        <ele>725.6</ele>
        <time>2021-09-04T17:05:18Z</time>
      </trkpt>
      <trkpt lat="45.65206" lon="4.59243">
        <ele>725.5</ele>
        <time>2021-09-04T17:05:19Z</time>
      </trkpt>
      <trkpt lat="45.65209" lon="4.59256">
        <ele>725.1</ele>
        <time>2021-09-04T17:05:21Z</time>
      </trkpt>
      <trkpt lat="45.65211" lon="4.59259">
        <ele>724.9</ele>
        <time>2021-09-04T17:05:23Z</time>
      </trkpt>
      <trkpt lat="45.65211" lon="4.5926">
        <ele>724.8</ele>
        <time>2021-09-04T17:05:24Z</time>
      </trkpt>
      <trkpt lat="45.65211" lon="4.59259">
        <ele>724.7</ele>
        <time>2021-09-04T17:05:25Z</time>
      </trkpt>
      <trkpt lat="45.65211" lon="4.59258">
        <ele>724.7</ele>
        <time>2021-09-04T17:05:27Z</time>
      </trkpt>
      <trkpt lat="45.65211" lon="4.59259">
        <ele>724.7</ele>
        <time>2021-09-04T17:05:28Z</time>
      </trkpt>
      <trkpt lat="45.65215" lon="4.5926">
        <ele>724.4</ele>
        <time>2021-09-04T17:05:29Z</time>
      </trkpt>
      <trkpt lat="45.65223" lon="4.59261">
        <ele>723.8</ele>
        <time>2021-09-04T17:05:30Z</time>
      </trkpt>
      <trkpt lat="45.65228" lon="4.5926">
        <ele>723.4</ele>
        <time>2021-09-04T17:05:31Z</time>
      </trkpt>
      <trkpt lat="45.65238" lon="4.59258">
        <ele>722.8</ele>
        <time>2021-09-04T17:05:33Z</time>
      </trkpt>
      <trkpt lat="45.65243" lon="4.59259">
        <ele>722.4</ele>
        <time>2021-09-04T17:05:35Z</time>
      </trkpt>
      <trkpt lat="45.65248" lon="4.59259">
        <ele>722.2</ele>
        <time>2021-09-04T17:05:36Z</time>
      </trkpt>
      <trkpt lat="45.65251" lon="4.59257">
        <ele>721.9</ele>
        <time>2021-09-04T17:05:38Z</time>
      </trkpt>
      <trkpt lat="45.65261" lon="4.59258">
        <ele>721.2</ele>
        <time>2021-09-04T17:05:39Z</time>
      </trkpt>
      <trkpt lat="45.65273" lon="4.59259">
        <ele>720.3</ele>
        <time>2021-09-04T17:05:41Z</time>
      </trkpt>
      <trkpt lat="45.65285" lon="4.59256">
        <ele>719.2</ele>
        <time>2021-09-04T17:05:43Z</time>
      </trkpt>
      <trkpt lat="45.6529" lon="4.59255">
        <ele>718.6</ele>
        <time>2021-09-04T17:05:44Z</time>
      </trkpt>
      <trkpt lat="45.65297" lon="4.59257">
        <ele>718</ele>
        <time>2021-09-04T17:05:45Z</time>
      </trkpt>
      <trkpt lat="45.65307" lon="4.59262">
        <ele>716.8</ele>
        <time>2021-09-04T17:05:47Z</time>
      </trkpt>
      <trkpt lat="45.65317" lon="4.59262">
        <ele>715.8</ele>
        <time>2021-09-04T17:05:49Z</time>
      </trkpt>
      <trkpt lat="45.65327" lon="4.59266">
        <ele>714.9</ele>
        <time>2021-09-04T17:05:51Z</time>
      </trkpt>
      <trkpt lat="45.65337" lon="4.59272">
        <ele>714.2</ele>
        <time>2021-09-04T17:05:53Z</time>
      </trkpt>
      <trkpt lat="45.65347" lon="4.59281">
        <ele>713.5</ele>
        <time>2021-09-04T17:05:55Z</time>
      </trkpt>
      <trkpt lat="45.65352" lon="4.59286">
        <ele>713.2</ele>
        <time>2021-09-04T17:05:56Z</time>
      </trkpt>
      <trkpt lat="45.65357" lon="4.59289">
        <ele>712.9</ele>
        <time>2021-09-04T17:05:57Z</time>
      </trkpt>
      <trkpt lat="45.65362" lon="4.59295">
        <ele>712.5</ele>
        <time>2021-09-04T17:05:58Z</time>
      </trkpt>
      <trkpt lat="45.65366" lon="4.59301">
        <ele>712.2</ele>
        <time>2021-09-04T17:05:59Z</time>
      </trkpt>
      <trkpt lat="45.65374" lon="4.5931">
        <ele>711.5</ele>
        <time>2021-09-04T17:06:01Z</time>
      </trkpt>
      <trkpt lat="45.65378" lon="4.59313">
        <ele>711.1</ele>
        <time>2021-09-04T17:06:02Z</time>
      </trkpt>
      <trkpt lat="45.65382" lon="4.59316">
        <ele>710.9</ele>
        <time>2021-09-04T17:06:03Z</time>
      </trkpt>
      <trkpt lat="45.65387" lon="4.5932">
        <ele>710.4</ele>
        <time>2021-09-04T17:06:04Z</time>
      </trkpt>
      <trkpt lat="45.65402" lon="4.59334">
        <ele>709</ele>
        <time>2021-09-04T17:06:06Z</time>
      </trkpt>
      <trkpt lat="45.6541" lon="4.59342">
        <ele>708.2</ele>
        <time>2021-09-04T17:06:07Z</time>
      </trkpt>
      <trkpt lat="45.65425" lon="4.59358">
        <ele>707</ele>
        <time>2021-09-04T17:06:09Z</time>
      </trkpt>
      <trkpt lat="45.65429" lon="4.59368">
        <ele>706.4</ele>
        <time>2021-09-04T17:06:10Z</time>
      </trkpt>
      <trkpt lat="45.65434" lon="4.59376">
        <ele>705.8</ele>
        <time>2021-09-04T17:06:11Z</time>
      </trkpt>
      <trkpt lat="45.6544" lon="4.59387">
        <ele>704.9</ele>
        <time>2021-09-04T17:06:13Z</time>
      </trkpt>
      <trkpt lat="45.65441" lon="4.59391">
        <ele>704.7</ele>
        <time>2021-09-04T17:06:14Z</time>
      </trkpt>
      <trkpt lat="45.65446" lon="4.59402">
        <ele>703.8</ele>
        <time>2021-09-04T17:06:16Z</time>
      </trkpt>
      <trkpt lat="45.65448" lon="4.59406">
        <ele>703.5</ele>
        <time>2021-09-04T17:06:17Z</time>
      </trkpt>
      <trkpt lat="45.65451" lon="4.59412">
        <ele>703.1</ele>
        <time>2021-09-04T17:06:18Z</time>
      </trkpt>
      <trkpt lat="45.65455" lon="4.59419">
        <ele>702.6</ele>
        <time>2021-09-04T17:06:19Z</time>
      </trkpt>
      <trkpt lat="45.65461" lon="4.5943">
        <ele>701.7</ele>
        <time>2021-09-04T17:06:21Z</time>
      </trkpt>
      <trkpt lat="45.65465" lon="4.59438">
        <ele>701.1</ele>
        <time>2021-09-04T17:06:22Z</time>
      </trkpt>
      <trkpt lat="45.65471" lon="4.59453">
        <ele>700.1</ele>
        <time>2021-09-04T17:06:24Z</time>
      </trkpt>
      <trkpt lat="45.65476" lon="4.59467">
        <ele>699.1</ele>
        <time>2021-09-04T17:06:26Z</time>
      </trkpt>
      <trkpt lat="45.65479" lon="4.59473">
        <ele>698.6</ele>
        <time>2021-09-04T17:06:27Z</time>
      </trkpt>
      <trkpt lat="45.65483" lon="4.59488">
        <ele>697.6</ele>
        <time>2021-09-04T17:06:29Z</time>
      </trkpt>
      <trkpt lat="45.65483" lon="4.59495">
        <ele>697.1</ele>
        <time>2021-09-04T17:06:30Z</time>
      </trkpt>
      <trkpt lat="45.65489" lon="4.59506">
        <ele>696.1</ele>
        <time>2021-09-04T17:06:32Z</time>
      </trkpt>
      <trkpt lat="45.65493" lon="4.5951">
        <ele>695.5</ele>
        <time>2021-09-04T17:06:33Z</time>
      </trkpt>
      <trkpt lat="45.65497" lon="4.59515">
        <ele>694.7</ele>
        <time>2021-09-04T17:06:35Z</time>
      </trkpt>
      <trkpt lat="45.65501" lon="4.59522">
        <ele>693.9</ele>
        <time>2021-09-04T17:06:36Z</time>
      </trkpt>
      <trkpt lat="45.65504" lon="4.59526">
        <ele>693.3</ele>
        <time>2021-09-04T17:06:38Z</time>
      </trkpt>
      <trkpt lat="45.65508" lon="4.59529">
        <ele>692.7</ele>
        <time>2021-09-04T17:06:39Z</time>
      </trkpt>
      <trkpt lat="45.6551" lon="4.59533">
        <ele>692.2</ele>
        <time>2021-09-04T17:06:41Z</time>
      </trkpt>
      <trkpt lat="45.65512" lon="4.59536">
        <ele>691.8</ele>
        <time>2021-09-04T17:06:42Z</time>
      </trkpt>
      <trkpt lat="45.65514" lon="4.59538">
        <ele>691.4</ele>
        <time>2021-09-04T17:06:43Z</time>
      </trkpt>
      <trkpt lat="45.65515" lon="4.59539">
        <ele>691.3</ele>
        <time>2021-09-04T17:06:44Z</time>
      </trkpt>
      <trkpt lat="45.65518" lon="4.59543">
        <ele>690.8</ele>
        <time>2021-09-04T17:06:46Z</time>
      </trkpt>
      <trkpt lat="45.65518" lon="4.59544">
        <ele>690.6</ele>
        <time>2021-09-04T17:06:47Z</time>
      </trkpt>
      <trkpt lat="45.65521" lon="4.59548">
        <ele>690.1</ele>
        <time>2021-09-04T17:06:48Z</time>
      </trkpt>
      <trkpt lat="45.65522" lon="4.5955">
        <ele>689.8</ele>
        <time>2021-09-04T17:06:49Z</time>
      </trkpt>
      <trkpt lat="45.65525" lon="4.59552">
        <ele>689.4</ele>
        <time>2021-09-04T17:06:51Z</time>
      </trkpt>
      <trkpt lat="45.65528" lon="4.59554">
        <ele>688.9</ele>
        <time>2021-09-04T17:06:53Z</time>
      </trkpt>
      <trkpt lat="45.65529" lon="4.59555">
        <ele>688.7</ele>
        <time>2021-09-04T17:06:54Z</time>
      </trkpt>
      <trkpt lat="45.65532" lon="4.59558">
        <ele>688.2</ele>
        <time>2021-09-04T17:06:56Z</time>
      </trkpt>
      <trkpt lat="45.65532" lon="4.59559">
        <ele>688.1</ele>
        <time>2021-09-04T17:06:57Z</time>
      </trkpt>
      <trkpt lat="45.65534" lon="4.5956">
        <ele>687.9</ele>
        <time>2021-09-04T17:06:58Z</time>
      </trkpt>
      <trkpt lat="45.65535" lon="4.59562">
        <ele>687.6</ele>
        <time>2021-09-04T17:06:59Z</time>
      </trkpt>
      <trkpt lat="45.65537" lon="4.59563">
        <ele>687.3</ele>
        <time>2021-09-04T17:07:01Z</time>
      </trkpt>
      <trkpt lat="45.65541" lon="4.59564">
        <ele>686.7</ele>
        <time>2021-09-04T17:07:03Z</time>
      </trkpt>
      <trkpt lat="45.65542" lon="4.59565">
        <ele>686.5</ele>
        <time>2021-09-04T17:07:04Z</time>
      </trkpt>
      <trkpt lat="45.65543" lon="4.59566">
        <ele>686.3</ele>
        <time>2021-09-04T17:07:05Z</time>
      </trkpt>
      <trkpt lat="45.65545" lon="4.59567">
        <ele>686</ele>
        <time>2021-09-04T17:07:06Z</time>
      </trkpt>
      <trkpt lat="45.65548" lon="4.59571">
        <ele>685.5</ele>
        <time>2021-09-04T17:07:08Z</time>
      </trkpt>
      <trkpt lat="45.65553" lon="4.59575">
        <ele>684.7</ele>
        <time>2021-09-04T17:07:09Z</time>
      </trkpt>
      <trkpt lat="45.65559" lon="4.59576">
        <ele>684</ele>
        <time>2021-09-04T17:07:11Z</time>
      </trkpt>
      <trkpt lat="45.65564" lon="4.59579">
        <ele>683.2</ele>
        <time>2021-09-04T17:07:12Z</time>
      </trkpt>
      <trkpt lat="45.6557" lon="4.59583">
        <ele>682.4</ele>
        <time>2021-09-04T17:07:14Z</time>
      </trkpt>
      <trkpt lat="45.65574" lon="4.59586">
        <ele>682</ele>
        <time>2021-09-04T17:07:15Z</time>
      </trkpt>
      <trkpt lat="45.65577" lon="4.59589">
        <ele>681.5</ele>
        <time>2021-09-04T17:07:16Z</time>
      </trkpt>
      <trkpt lat="45.6558" lon="4.59591">
        <ele>681.1</ele>
        <time>2021-09-04T17:07:17Z</time>
      </trkpt>
      <trkpt lat="45.65584" lon="4.59594">
        <ele>680.6</ele>
        <time>2021-09-04T17:07:19Z</time>
      </trkpt>
      <trkpt lat="45.65587" lon="4.59596">
        <ele>680.1</ele>
        <time>2021-09-04T17:07:20Z</time>
      </trkpt>
      <trkpt lat="45.65591" lon="4.59599">
        <ele>679.7</ele>
        <time>2021-09-04T17:07:21Z</time>
      </trkpt>
      <trkpt lat="45.65593" lon="4.59601">
        <ele>679.3</ele>
        <time>2021-09-04T17:07:23Z</time>
      </trkpt>
      <trkpt lat="45.65594" lon="4.59603">
        <ele>679.1</ele>
        <time>2021-09-04T17:07:24Z</time>
      </trkpt>
      <trkpt lat="45.65595" lon="4.59608">
        <ele>678.5</ele>
        <time>2021-09-04T17:07:26Z</time>
      </trkpt>
      <trkpt lat="45.65597" lon="4.59613">
        <ele>677.9</ele>
        <time>2021-09-04T17:07:28Z</time>
      </trkpt>
      <trkpt lat="45.656" lon="4.59616">
        <ele>677.3</ele>
        <time>2021-09-04T17:07:29Z</time>
      </trkpt>
      <trkpt lat="45.65602" lon="4.59621">
        <ele>676.7</ele>
        <time>2021-09-04T17:07:30Z</time>
      </trkpt>
      <trkpt lat="45.65602" lon="4.59622">
        <ele>676.5</ele>
        <time>2021-09-04T17:07:31Z</time>
      </trkpt>
      <trkpt lat="45.65605" lon="4.59629">
        <ele>675.6</ele>
        <time>2021-09-04T17:07:33Z</time>
      </trkpt>
      <trkpt lat="45.65608" lon="4.59635">
        <ele>674.7</ele>
        <time>2021-09-04T17:07:34Z</time>
      </trkpt>
      <trkpt lat="45.65613" lon="4.59641">
        <ele>673.5</ele>
        <time>2021-09-04T17:07:36Z</time>
      </trkpt>
      <trkpt lat="45.65618" lon="4.59648">
        <ele>672.3</ele>
        <time>2021-09-04T17:07:38Z</time>
      </trkpt>
      <trkpt lat="45.65629" lon="4.59646">
        <ele>670.7</ele>
        <time>2021-09-04T17:07:40Z</time>
      </trkpt>
      <trkpt lat="45.65635" lon="4.59643">
        <ele>669.8</ele>
        <time>2021-09-04T17:07:41Z</time>
      </trkpt>
      <trkpt lat="45.65642" lon="4.59639">
        <ele>668.6</ele>
        <time>2021-09-04T17:07:43Z</time>
      </trkpt>
      <trkpt lat="45.65641" lon="4.59635">
        <ele>668.2</ele>
        <time>2021-09-04T17:07:44Z</time>
      </trkpt>
      <trkpt lat="45.65645" lon="4.59633">
        <ele>667.6</ele>
        <time>2021-09-04T17:07:45Z</time>
      </trkpt>
      <trkpt lat="45.65651" lon="4.59629">
        <ele>666.5</ele>
        <time>2021-09-04T17:07:47Z</time>
      </trkpt>
      <trkpt lat="45.65654" lon="4.59628">
        <ele>666</ele>
        <time>2021-09-04T17:07:48Z</time>
      </trkpt>
      <trkpt lat="45.65657" lon="4.59627">
        <ele>665.7</ele>
        <time>2021-09-04T17:07:49Z</time>
      </trkpt>
      <trkpt lat="45.65659" lon="4.59626">
        <ele>665.3</ele>
        <time>2021-09-04T17:07:51Z</time>
      </trkpt>
      <trkpt lat="45.65663" lon="4.59625">
        <ele>664.8</ele>
        <time>2021-09-04T17:07:53Z</time>
      </trkpt>
      <trkpt lat="45.65664" lon="4.59625">
        <ele>664.7</ele>
        <time>2021-09-04T17:07:54Z</time>
      </trkpt>
      <trkpt lat="45.65665" lon="4.59627">
        <ele>664.5</ele>
        <time>2021-09-04T17:07:56Z</time>
      </trkpt>
      <trkpt lat="45.65667" lon="4.59626">
        <ele>664.2</ele>
        <time>2021-09-04T17:07:58Z</time>
      </trkpt>
      <trkpt lat="45.65669" lon="4.59624">
        <ele>663.9</ele>
        <time>2021-09-04T17:08:00Z</time>
      </trkpt>
      <trkpt lat="45.65669" lon="4.59623">
        <ele>663.8</ele>
        <time>2021-09-04T17:08:01Z</time>
      </trkpt>
      <trkpt lat="45.6567" lon="4.59623">
        <ele>663.8</ele>
        <time>2021-09-04T17:08:02Z</time>
      </trkpt>
      <trkpt lat="45.65671" lon="4.59622">
        <ele>663.8</ele>
        <time>2021-09-04T17:08:03Z</time>
      </trkpt>
      <trkpt lat="45.65671" lon="4.59621">
        <ele>663.9</ele>
        <time>2021-09-04T17:08:05Z</time>
      </trkpt>
      <trkpt lat="45.65672" lon="4.59619">
        <ele>663.9</ele>
        <time>2021-09-04T17:08:06Z</time>
      </trkpt>
      <trkpt lat="45.65673" lon="4.59616">
        <ele>664</ele>
        <time>2021-09-04T17:08:07Z</time>
      </trkpt>
      <trkpt lat="45.65673" lon="4.59613">
        <ele>664.1</ele>
        <time>2021-09-04T17:08:08Z</time>
      </trkpt>
      <trkpt lat="45.65673" lon="4.59609">
        <ele>664.1</ele>
        <time>2021-09-04T17:08:10Z</time>
      </trkpt>
      <trkpt lat="45.65673" lon="4.59605">
        <ele>664.2</ele>
        <time>2021-09-04T17:08:12Z</time>
      </trkpt>
      <trkpt lat="45.65669" lon="4.59603">
        <ele>664.3</ele>
        <time>2021-09-04T17:08:13Z</time>
      </trkpt>
      <trkpt lat="45.65667" lon="4.59601">
        <ele>664.4</ele>
        <time>2021-09-04T17:08:14Z</time>
      </trkpt>
      <trkpt lat="45.65664" lon="4.59597">
        <ele>664.6</ele>
        <time>2021-09-04T17:08:16Z</time>
      </trkpt>
      <trkpt lat="45.65662" lon="4.59596">
        <ele>664.6</ele>
        <time>2021-09-04T17:08:17Z</time>
      </trkpt>
      <trkpt lat="45.65661" lon="4.59594">
        <ele>664.7</ele>
        <time>2021-09-04T17:08:18Z</time>
      </trkpt>
      <trkpt lat="45.65658" lon="4.59591">
        <ele>664.8</ele>
        <time>2021-09-04T17:08:20Z</time>
      </trkpt>
      <trkpt lat="45.65657" lon="4.59589">
        <ele>664.9</ele>
        <time>2021-09-04T17:08:21Z</time>
      </trkpt>
      <trkpt lat="45.65655" lon="4.59587">
        <ele>664.9</ele>
        <time>2021-09-04T17:08:23Z</time>
      </trkpt>
      <trkpt lat="45.65652" lon="4.59584">
        <ele>665</ele>
        <time>2021-09-04T17:08:24Z</time>
      </trkpt>
      <trkpt lat="45.65652" lon="4.59583">
        <ele>665.1</ele>
        <time>2021-09-04T17:08:25Z</time>
      </trkpt>
      <trkpt lat="45.6565" lon="4.59579">
        <ele>665.2</ele>
        <time>2021-09-04T17:08:27Z</time>
      </trkpt>
      <trkpt lat="45.65649" lon="4.59578">
        <ele>665.2</ele>
        <time>2021-09-04T17:08:28Z</time>
      </trkpt>
      <trkpt lat="45.65649" lon="4.59578">
        <ele>665.2</ele>
        <time>2021-09-04T17:08:29Z</time>
      </trkpt>
      <trkpt lat="45.65648" lon="4.59577">
        <ele>665.2</ele>
        <time>2021-09-04T17:08:30Z</time>
      </trkpt>
      <trkpt lat="45.65647" lon="4.59576">
        <ele>665.3</ele>
        <time>2021-09-04T17:08:31Z</time>
      </trkpt>
      <trkpt lat="45.65645" lon="4.59573">
        <ele>665.4</ele>
        <time>2021-09-04T17:08:33Z</time>
      </trkpt>
      <trkpt lat="45.65644" lon="4.59571">
        <ele>665.4</ele>
        <time>2021-09-04T17:08:34Z</time>
      </trkpt>
      <trkpt lat="45.65646" lon="4.59572">
        <ele>665.5</ele>
        <time>2021-09-04T17:08:36Z</time>
      </trkpt>
      <trkpt lat="45.65647" lon="4.59573">
        <ele>665.5</ele>
        <time>2021-09-04T17:08:37Z</time>
      </trkpt>
      <trkpt lat="45.65647" lon="4.59573">
        <ele>665.5</ele>
        <time>2021-09-04T17:08:39Z</time>
      </trkpt>
      <trkpt lat="45.65648" lon="4.59573">
        <ele>665.5</ele>
        <time>2021-09-04T17:08:41Z</time>
      </trkpt>
      <trkpt lat="45.65649" lon="4.59574">
        <ele>665.6</ele>
        <time>2021-09-04T17:08:42Z</time>
      </trkpt>
      <trkpt lat="45.6565" lon="4.59574">
        <ele>665.6</ele>
        <time>2021-09-04T17:08:43Z</time>
      </trkpt>
      <trkpt lat="45.65651" lon="4.59575">
        <ele>665.6</ele>
        <time>2021-09-04T17:08:45Z</time>
      </trkpt>
      <trkpt lat="45.65651" lon="4.59575">
        <ele>665.6</ele>
        <time>2021-09-04T17:08:47Z</time>
      </trkpt>
      <trkpt lat="45.65652" lon="4.59575">
        <ele>665.7</ele>
        <time>2021-09-04T17:08:48Z</time>
      </trkpt>
      <trkpt lat="45.65653" lon="4.59576">
        <ele>665.7</ele>
        <time>2021-09-04T17:08:49Z</time>
      </trkpt>
      <trkpt lat="45.65654" lon="4.59576">
        <ele>665.7</ele>
        <time>2021-09-04T17:08:51Z</time>
      </trkpt>
      <trkpt lat="45.65655" lon="4.59577">
        <ele>665.7</ele>
        <time>2021-09-04T17:08:53Z</time>
      </trkpt>
      <trkpt lat="45.65656" lon="4.59577">
        <ele>665.8</ele>
        <time>2021-09-04T17:17:48Z</time>
      </trkpt>
      <trkpt lat="45.65656" lon="4.59578">
        <ele>665.8</ele>
        <time>2021-09-04T17:17:49Z</time>
      </trkpt>
      <trkpt lat="45.65659" lon="4.5958">
        <ele>665.9</ele>
        <time>2021-09-04T17:17:50Z</time>
      </trkpt>
      <trkpt lat="45.65664" lon="4.59585">
        <ele>666</ele>
        <time>2021-09-04T17:17:52Z</time>
      </trkpt>
      <trkpt lat="45.65667" lon="4.59588">
        <ele>666.1</ele>
        <time>2021-09-04T17:17:54Z</time>
      </trkpt>
      <trkpt lat="45.65671" lon="4.59591">
        <ele>666.2</ele>
        <time>2021-09-04T17:17:55Z</time>
      </trkpt>
      <trkpt lat="45.65675" lon="4.59594">
        <ele>666.3</ele>
        <time>2021-09-04T17:17:56Z</time>
      </trkpt>
      <trkpt lat="45.65678" lon="4.59597">
        <ele>666.4</ele>
        <time>2021-09-04T17:17:57Z</time>
      </trkpt>
      <trkpt lat="45.65683" lon="4.596">
        <ele>666.5</ele>
        <time>2021-09-04T17:17:59Z</time>
      </trkpt>
      <trkpt lat="45.65688" lon="4.59603">
        <ele>666.9</ele>
        <time>2021-09-04T17:18:00Z</time>
      </trkpt>
      <trkpt lat="45.65691" lon="4.59607">
        <ele>666.8</ele>
        <time>2021-09-04T17:18:02Z</time>
      </trkpt>
      <trkpt lat="45.65695" lon="4.5961">
        <ele>666.8</ele>
        <time>2021-09-04T17:18:03Z</time>
      </trkpt>
      <trkpt lat="45.657" lon="4.59612">
        <ele>666.7</ele>
        <time>2021-09-04T17:18:05Z</time>
      </trkpt>
      <trkpt lat="45.65705" lon="4.59615">
        <ele>666.7</ele>
        <time>2021-09-04T17:18:06Z</time>
      </trkpt>
      <trkpt lat="45.6571" lon="4.59618">
        <ele>666.6</ele>
        <time>2021-09-04T17:18:08Z</time>
      </trkpt>
      <trkpt lat="45.65713" lon="4.59619">
        <ele>666.6</ele>
        <time>2021-09-04T17:18:09Z</time>
      </trkpt>
      <trkpt lat="45.65718" lon="4.59622">
        <ele>666.5</ele>
        <time>2021-09-04T17:18:10Z</time>
      </trkpt>
      <trkpt lat="45.65721" lon="4.59623">
        <ele>666.5</ele>
        <time>2021-09-04T17:18:11Z</time>
      </trkpt>
      <trkpt lat="45.65725" lon="4.59625">
        <ele>666.4</ele>
        <time>2021-09-04T17:18:13Z</time>
      </trkpt>
      <trkpt lat="45.6573" lon="4.59626">
        <ele>666.3</ele>
        <time>2021-09-04T17:18:14Z</time>
      </trkpt>
      <trkpt lat="45.65733" lon="4.59627">
        <ele>666.2</ele>
        <time>2021-09-04T17:18:15Z</time>
      </trkpt>
      <trkpt lat="45.65737" lon="4.59627">
        <ele>666.1</ele>
        <time>2021-09-04T17:18:16Z</time>
      </trkpt>
      <trkpt lat="45.65738" lon="4.59627">
        <ele>666.1</ele>
        <time>2021-09-04T17:18:17Z</time>
      </trkpt>
      <trkpt lat="45.65741" lon="4.59627">
        <ele>666</ele>
        <time>2021-09-04T17:18:18Z</time>
      </trkpt>
      <trkpt lat="45.65744" lon="4.59627">
        <ele>666</ele>
        <time>2021-09-04T17:18:19Z</time>
      </trkpt>
      <trkpt lat="45.65749" lon="4.59628">
        <ele>665.9</ele>
        <time>2021-09-04T17:18:21Z</time>
      </trkpt>
      <trkpt lat="45.65752" lon="4.59627">
        <ele>665.8</ele>
        <time>2021-09-04T17:18:22Z</time>
      </trkpt>
      <trkpt lat="45.65755" lon="4.59628">
        <ele>665.8</ele>
        <time>2021-09-04T17:18:24Z</time>
      </trkpt>
      <trkpt lat="45.65759" lon="4.59626">
        <ele>665.7</ele>
        <time>2021-09-04T17:18:25Z</time>
      </trkpt>
      <trkpt lat="45.6576" lon="4.59626">
        <ele>665.6</ele>
        <time>2021-09-04T17:18:26Z</time>
      </trkpt>
      <trkpt lat="45.65765" lon="4.59623">
        <ele>665.5</ele>
        <time>2021-09-04T17:18:28Z</time>
      </trkpt>
      <trkpt lat="45.65769" lon="4.59621">
        <ele>665.4</ele>
        <time>2021-09-04T17:18:29Z</time>
      </trkpt>
      <trkpt lat="45.65773" lon="4.5962">
        <ele>665.3</ele>
        <time>2021-09-04T17:18:30Z</time>
      </trkpt>
      <trkpt lat="45.65778" lon="4.59619">
        <ele>665.1</ele>
        <time>2021-09-04T17:18:31Z</time>
      </trkpt>
      <trkpt lat="45.65783" lon="4.59617">
        <ele>664.9</ele>
        <time>2021-09-04T17:18:33Z</time>
      </trkpt>
      <trkpt lat="45.65787" lon="4.59614">
        <ele>664.7</ele>
        <time>2021-09-04T17:18:34Z</time>
      </trkpt>
      <trkpt lat="45.65794" lon="4.59608">
        <ele>664.4</ele>
        <time>2021-09-04T17:18:36Z</time>
      </trkpt>
      <trkpt lat="45.65798" lon="4.59605">
        <ele>664.2</ele>
        <time>2021-09-04T17:18:37Z</time>
      </trkpt>
      <trkpt lat="45.65801" lon="4.59603">
        <ele>664.1</ele>
        <time>2021-09-04T17:18:38Z</time>
      </trkpt>
      <trkpt lat="45.65806" lon="4.59599">
        <ele>663.9</ele>
        <time>2021-09-04T17:18:40Z</time>
      </trkpt>
      <trkpt lat="45.6581" lon="4.59595">
        <ele>663.7</ele>
        <time>2021-09-04T17:18:42Z</time>
      </trkpt>
      <trkpt lat="45.65812" lon="4.59592">
        <ele>663.5</ele>
        <time>2021-09-04T17:18:43Z</time>
      </trkpt>
      <trkpt lat="45.65815" lon="4.5959">
        <ele>663.4</ele>
        <time>2021-09-04T17:18:44Z</time>
      </trkpt>
      <trkpt lat="45.65818" lon="4.59588">
        <ele>663.3</ele>
        <time>2021-09-04T17:18:45Z</time>
      </trkpt>
      <trkpt lat="45.65821" lon="4.59585">
        <ele>663.2</ele>
        <time>2021-09-04T17:18:46Z</time>
      </trkpt>
      <trkpt lat="45.65828" lon="4.5958">
        <ele>662.9</ele>
        <time>2021-09-04T17:18:48Z</time>
      </trkpt>
      <trkpt lat="45.65832" lon="4.59576">
        <ele>662.6</ele>
        <time>2021-09-04T17:18:49Z</time>
      </trkpt>
      <trkpt lat="45.65836" lon="4.59572">
        <ele>662.5</ele>
        <time>2021-09-04T17:18:50Z</time>
      </trkpt>
      <trkpt lat="45.65844" lon="4.59564">
        <ele>662.1</ele>
        <time>2021-09-04T17:18:52Z</time>
      </trkpt>
      <trkpt lat="45.65848" lon="4.59561">
        <ele>661.9</ele>
        <time>2021-09-04T17:18:53Z</time>
      </trkpt>
      <trkpt lat="45.65855" lon="4.59552">
        <ele>661.6</ele>
        <time>2021-09-04T17:18:55Z</time>
      </trkpt>
      <trkpt lat="45.65859" lon="4.59547">
        <ele>661.4</ele>
        <time>2021-09-04T17:18:56Z</time>
      </trkpt>
      <trkpt lat="45.6587" lon="4.59538">
        <ele>661</ele>
        <time>2021-09-04T17:18:58Z</time>
      </trkpt>
      <trkpt lat="45.6588" lon="4.59529">
        <ele>660.7</ele>
        <time>2021-09-04T17:19:00Z</time>
      </trkpt>
      <trkpt lat="45.65884" lon="4.59526">
        <ele>660.5</ele>
        <time>2021-09-04T17:19:01Z</time>
      </trkpt>
      <trkpt lat="45.65893" lon="4.59519">
        <ele>660.3</ele>
        <time>2021-09-04T17:19:03Z</time>
      </trkpt>
      <trkpt lat="45.65898" lon="4.59516">
        <ele>660.1</ele>
        <time>2021-09-04T17:19:04Z</time>
      </trkpt>
      <trkpt lat="45.6591" lon="4.59507">
        <ele>659.8</ele>
        <time>2021-09-04T17:19:06Z</time>
      </trkpt>
      <trkpt lat="45.65915" lon="4.59502">
        <ele>659.6</ele>
        <time>2021-09-04T17:19:07Z</time>
      </trkpt>
      <trkpt lat="45.65926" lon="4.59491">
        <ele>659.3</ele>
        <time>2021-09-04T17:19:09Z</time>
      </trkpt>
      <trkpt lat="45.65932" lon="4.59486">
        <ele>659.1</ele>
        <time>2021-09-04T17:19:10Z</time>
      </trkpt>
      <trkpt lat="45.65938" lon="4.59481">
        <ele>658.9</ele>
        <time>2021-09-04T17:19:11Z</time>
      </trkpt>
      <trkpt lat="45.6595" lon="4.59471">
        <ele>658.5</ele>
        <time>2021-09-04T17:19:13Z</time>
      </trkpt>
      <trkpt lat="45.65956" lon="4.59466">
        <ele>658.3</ele>
        <time>2021-09-04T17:19:14Z</time>
      </trkpt>
      <trkpt lat="45.65966" lon="4.59455">
        <ele>657.9</ele>
        <time>2021-09-04T17:19:16Z</time>
      </trkpt>
      <trkpt lat="45.65978" lon="4.59446">
        <ele>657.6</ele>
        <time>2021-09-04T17:19:18Z</time>
      </trkpt>
      <trkpt lat="45.65984" lon="4.59441">
        <ele>657.4</ele>
        <time>2021-09-04T17:19:19Z</time>
      </trkpt>
      <trkpt lat="45.65997" lon="4.5943">
        <ele>657</ele>
        <time>2021-09-04T17:19:21Z</time>
      </trkpt>
      <trkpt lat="45.6601" lon="4.59419">
        <ele>656.6</ele>
        <time>2021-09-04T17:19:23Z</time>
      </trkpt>
      <trkpt lat="45.66016" lon="4.59413">
        <ele>656.4</ele>
        <time>2021-09-04T17:19:24Z</time>
      </trkpt>
      <trkpt lat="45.66029" lon="4.59402">
        <ele>656.1</ele>
        <time>2021-09-04T17:19:26Z</time>
      </trkpt>
      <trkpt lat="45.66036" lon="4.59398">
        <ele>656.1</ele>
        <time>2021-09-04T17:19:27Z</time>
      </trkpt>
      <trkpt lat="45.66051" lon="4.59391">
        <ele>656</ele>
        <time>2021-09-04T17:19:29Z</time>
      </trkpt>
      <trkpt lat="45.66068" lon="4.59392">
        <ele>655.8</ele>
        <time>2021-09-04T17:19:31Z</time>
      </trkpt>
      <trkpt lat="45.66075" lon="4.59395">
        <ele>655.8</ele>
        <time>2021-09-04T17:19:32Z</time>
      </trkpt>
      <trkpt lat="45.66089" lon="4.59399">
        <ele>655.5</ele>
        <time>2021-09-04T17:19:34Z</time>
      </trkpt>
      <trkpt lat="45.66096" lon="4.59402">
        <ele>655.4</ele>
        <time>2021-09-04T17:19:35Z</time>
      </trkpt>
      <trkpt lat="45.66107" lon="4.59411">
        <ele>655.2</ele>
        <time>2021-09-04T17:19:37Z</time>
      </trkpt>
      <trkpt lat="45.66119" lon="4.59423">
        <ele>655.1</ele>
        <time>2021-09-04T17:19:39Z</time>
      </trkpt>
      <trkpt lat="45.66128" lon="4.59438">
        <ele>655</ele>
        <time>2021-09-04T17:19:41Z</time>
      </trkpt>
      <trkpt lat="45.66133" lon="4.59446">
        <ele>655</ele>
        <time>2021-09-04T17:19:42Z</time>
      </trkpt>
      <trkpt lat="45.66143" lon="4.5946">
        <ele>655.1</ele>
        <time>2021-09-04T17:19:44Z</time>
      </trkpt>
      <trkpt lat="45.66149" lon="4.59468">
        <ele>655.1</ele>
        <time>2021-09-04T17:19:45Z</time>
      </trkpt>
      <trkpt lat="45.66153" lon="4.59473">
        <ele>655.1</ele>
        <time>2021-09-04T17:19:46Z</time>
      </trkpt>
      <trkpt lat="45.66158" lon="4.59479">
        <ele>655.1</ele>
        <time>2021-09-04T17:19:47Z</time>
      </trkpt>
      <trkpt lat="45.66168" lon="4.59493">
        <ele>655</ele>
        <time>2021-09-04T17:19:49Z</time>
      </trkpt>
      <trkpt lat="45.66173" lon="4.595">
        <ele>655</ele>
        <time>2021-09-04T17:19:50Z</time>
      </trkpt>
      <trkpt lat="45.66182" lon="4.59511">
        <ele>654.9</ele>
        <time>2021-09-04T17:19:52Z</time>
      </trkpt>
      <trkpt lat="45.66187" lon="4.59519">
        <ele>654.9</ele>
        <time>2021-09-04T17:19:53Z</time>
      </trkpt>
      <trkpt lat="45.66196" lon="4.59538">
        <ele>654.7</ele>
        <time>2021-09-04T17:19:55Z</time>
      </trkpt>
      <trkpt lat="45.66202" lon="4.59557">
        <ele>654.6</ele>
        <time>2021-09-04T17:19:57Z</time>
      </trkpt>
      <trkpt lat="45.66207" lon="4.59575">
        <ele>654.3</ele>
        <time>2021-09-04T17:19:59Z</time>
      </trkpt>
      <trkpt lat="45.66211" lon="4.59594">
        <ele>654</ele>
        <time>2021-09-04T17:20:01Z</time>
      </trkpt>
      <trkpt lat="45.66213" lon="4.59601">
        <ele>653.8</ele>
        <time>2021-09-04T17:20:02Z</time>
      </trkpt>
      <trkpt lat="45.66215" lon="4.5961">
        <ele>653.6</ele>
        <time>2021-09-04T17:20:03Z</time>
      </trkpt>
      <trkpt lat="45.6622" lon="4.5963">
        <ele>653</ele>
        <time>2021-09-04T17:20:05Z</time>
      </trkpt>
      <trkpt lat="45.66222" lon="4.5964">
        <ele>652.7</ele>
        <time>2021-09-04T17:20:06Z</time>
      </trkpt>
      <trkpt lat="45.66224" lon="4.59649">
        <ele>652.4</ele>
        <time>2021-09-04T17:20:07Z</time>
      </trkpt>
      <trkpt lat="45.66226" lon="4.59671">
        <ele>651.8</ele>
        <time>2021-09-04T17:20:09Z</time>
      </trkpt>
      <trkpt lat="45.66227" lon="4.59682">
        <ele>651.5</ele>
        <time>2021-09-04T17:20:10Z</time>
      </trkpt>
      <trkpt lat="45.66227" lon="4.59693">
        <ele>651.2</ele>
        <time>2021-09-04T17:20:11Z</time>
      </trkpt>
      <trkpt lat="45.66227" lon="4.59704">
        <ele>650.9</ele>
        <time>2021-09-04T17:20:12Z</time>
      </trkpt>
      <trkpt lat="45.66226" lon="4.59725">
        <ele>650.3</ele>
        <time>2021-09-04T17:20:14Z</time>
      </trkpt>
      <trkpt lat="45.66224" lon="4.59746">
        <ele>649.7</ele>
        <time>2021-09-04T17:20:16Z</time>
      </trkpt>
      <trkpt lat="45.66219" lon="4.59766">
        <ele>649</ele>
        <time>2021-09-04T17:20:18Z</time>
      </trkpt>
      <trkpt lat="45.66217" lon="4.59775">
        <ele>648.8</ele>
        <time>2021-09-04T17:20:19Z</time>
      </trkpt>
      <trkpt lat="45.66211" lon="4.59795">
        <ele>648.2</ele>
        <time>2021-09-04T17:20:21Z</time>
      </trkpt>
      <trkpt lat="45.66203" lon="4.59813">
        <ele>647.6</ele>
        <time>2021-09-04T17:20:23Z</time>
      </trkpt>
      <trkpt lat="45.66198" lon="4.59823">
        <ele>647.2</ele>
        <time>2021-09-04T17:20:24Z</time>
      </trkpt>
      <trkpt lat="45.66187" lon="4.59841">
        <ele>646.6</ele>
        <time>2021-09-04T17:20:26Z</time>
      </trkpt>
      <trkpt lat="45.66181" lon="4.5985">
        <ele>646.2</ele>
        <time>2021-09-04T17:20:27Z</time>
      </trkpt>
      <trkpt lat="45.66175" lon="4.59859">
        <ele>645.8</ele>
        <time>2021-09-04T17:20:28Z</time>
      </trkpt>
      <trkpt lat="45.66163" lon="4.59877">
        <ele>645.1</ele>
        <time>2021-09-04T17:20:30Z</time>
      </trkpt>
      <trkpt lat="45.66152" lon="4.59895">
        <ele>644.4</ele>
        <time>2021-09-04T17:20:32Z</time>
      </trkpt>
      <trkpt lat="45.6614" lon="4.59913">
        <ele>643.7</ele>
        <time>2021-09-04T17:20:34Z</time>
      </trkpt>
      <trkpt lat="45.66134" lon="4.59922">
        <ele>643.2</ele>
        <time>2021-09-04T17:20:35Z</time>
      </trkpt>
      <trkpt lat="45.66123" lon="4.5994">
        <ele>642.4</ele>
        <time>2021-09-04T17:20:37Z</time>
      </trkpt>
      <trkpt lat="45.66111" lon="4.59959">
        <ele>641.8</ele>
        <time>2021-09-04T17:20:39Z</time>
      </trkpt>
      <trkpt lat="45.661" lon="4.59978">
        <ele>641.3</ele>
        <time>2021-09-04T17:20:41Z</time>
      </trkpt>
      <trkpt lat="45.66094" lon="4.59988">
        <ele>641</ele>
        <time>2021-09-04T17:20:42Z</time>
      </trkpt>
      <trkpt lat="45.66088" lon="4.59998">
        <ele>640.8</ele>
        <time>2021-09-04T17:20:43Z</time>
      </trkpt>
      <trkpt lat="45.66078" lon="4.60013">
        <ele>640.4</ele>
        <time>2021-09-04T17:20:45Z</time>
      </trkpt>
      <trkpt lat="45.66067" lon="4.60023">
        <ele>640.4</ele>
        <time>2021-09-04T17:20:47Z</time>
      </trkpt>
      <trkpt lat="45.66057" lon="4.60027">
        <ele>640.4</ele>
        <time>2021-09-04T17:20:49Z</time>
      </trkpt>
      <trkpt lat="45.66054" lon="4.60029">
        <ele>640.4</ele>
        <time>2021-09-04T17:20:50Z</time>
      </trkpt>
      <trkpt lat="45.66051" lon="4.60033">
        <ele>640.4</ele>
        <time>2021-09-04T17:20:52Z</time>
      </trkpt>
      <trkpt lat="45.66048" lon="4.60035">
        <ele>640.4</ele>
        <time>2021-09-04T17:20:53Z</time>
      </trkpt>
      <trkpt lat="45.66047" lon="4.60036">
        <ele>640.4</ele>
        <time>2021-09-04T17:20:54Z</time>
      </trkpt>
      <trkpt lat="45.66043" lon="4.60039">
        <ele>640.4</ele>
        <time>2021-09-04T17:20:56Z</time>
      </trkpt>
      <trkpt lat="45.66041" lon="4.60041">
        <ele>640.4</ele>
        <time>2021-09-04T17:20:57Z</time>
      </trkpt>
      <trkpt lat="45.6604" lon="4.60042">
        <ele>640.4</ele>
        <time>2021-09-04T17:20:59Z</time>
      </trkpt>
      <trkpt lat="45.66039" lon="4.60043">
        <ele>640.4</ele>
        <time>2021-09-04T17:21:00Z</time>
      </trkpt>
      <trkpt lat="45.66036" lon="4.60043">
        <ele>640.4</ele>
        <time>2021-09-04T17:21:02Z</time>
      </trkpt>
      <trkpt lat="45.66036" lon="4.60043">
        <ele>640.4</ele>
        <time>2021-09-04T17:21:03Z</time>
      </trkpt>
      <trkpt lat="45.66038" lon="4.60043">
        <ele>640.4</ele>
        <time>2021-09-04T17:21:04Z</time>
      </trkpt>
      <trkpt lat="45.66038" lon="4.60043">
        <ele>640.4</ele>
        <time>2021-09-04T17:21:06Z</time>
      </trkpt>
      <trkpt lat="45.66038" lon="4.60044">
        <ele>640.4</ele>
        <time>2021-09-04T17:21:08Z</time>
      </trkpt>
      <trkpt lat="45.66038" lon="4.60044">
        <ele>640.4</ele>
        <time>2021-09-04T17:21:09Z</time>
      </trkpt>
      <trkpt lat="45.66038" lon="4.60044">
        <ele>640.4</ele>
        <time>2021-09-04T17:21:10Z</time>
      </trkpt>
      <trkpt lat="45.66038" lon="4.60043">
        <ele>640.4</ele>
        <time>2021-09-04T17:21:11Z</time>
      </trkpt>
      <trkpt lat="45.66038" lon="4.60043">
        <ele>640.4</ele>
        <time>2021-09-04T17:21:13Z</time>
      </trkpt>
      <trkpt lat="45.66038" lon="4.60043">
        <ele>640.4</ele>
        <time>2021-09-04T17:21:14Z</time>
      </trkpt>
      <trkpt lat="45.66038" lon="4.60043">
        <ele>640.4</ele>
        <time>2021-09-04T17:21:16Z</time>
      </trkpt>
      <trkpt lat="45.66039" lon="4.60047">
        <ele>640.4</ele>
        <time>2021-09-04T17:30:19Z</time>
      </trkpt>
      <trkpt lat="45.66036" lon="4.60051">
        <ele>640.4</ele>
        <time>2021-09-04T17:30:21Z</time>
      </trkpt>
      <trkpt lat="45.66033" lon="4.60054">
        <ele>640.4</ele>
        <time>2021-09-04T17:30:22Z</time>
      </trkpt>
      <trkpt lat="45.66031" lon="4.60057">
        <ele>640.5</ele>
        <time>2021-09-04T17:30:23Z</time>
      </trkpt>
      <trkpt lat="45.66026" lon="4.60061">
        <ele>640.5</ele>
        <time>2021-09-04T17:30:25Z</time>
      </trkpt>
      <trkpt lat="45.66023" lon="4.60063">
        <ele>640.5</ele>
        <time>2021-09-04T17:30:26Z</time>
      </trkpt>
      <trkpt lat="45.66018" lon="4.60071">
        <ele>640.6</ele>
        <time>2021-09-04T17:30:28Z</time>
      </trkpt>
      <trkpt lat="45.66009" lon="4.60079">
        <ele>640.5</ele>
        <time>2021-09-04T17:30:29Z</time>
      </trkpt>
      <trkpt lat="45.66004" lon="4.60082">
        <ele>640.3</ele>
        <time>2021-09-04T17:30:30Z</time>
      </trkpt>
      <trkpt lat="45.65999" lon="4.60086">
        <ele>640.1</ele>
        <time>2021-09-04T17:30:31Z</time>
      </trkpt>
      <trkpt lat="45.65989" lon="4.60096">
        <ele>639.3</ele>
        <time>2021-09-04T17:30:33Z</time>
      </trkpt>
      <trkpt lat="45.65983" lon="4.60102">
        <ele>638.7</ele>
        <time>2021-09-04T17:30:34Z</time>
      </trkpt>
      <trkpt lat="45.65971" lon="4.60118">
        <ele>637.5</ele>
        <time>2021-09-04T17:30:36Z</time>
      </trkpt>
      <trkpt lat="45.65965" lon="4.60127">
        <ele>637</ele>
        <time>2021-09-04T17:30:37Z</time>
      </trkpt>
      <trkpt lat="45.65959" lon="4.60138">
        <ele>636.6</ele>
        <time>2021-09-04T17:30:38Z</time>
      </trkpt>
      <trkpt lat="45.65945" lon="4.60157">
        <ele>636</ele>
        <time>2021-09-04T17:30:40Z</time>
      </trkpt>
      <trkpt lat="45.65931" lon="4.60172">
        <ele>635.6</ele>
        <time>2021-09-04T17:30:42Z</time>
      </trkpt>
      <trkpt lat="45.65917" lon="4.60186">
        <ele>635.2</ele>
        <time>2021-09-04T17:30:44Z</time>
      </trkpt>
      <trkpt lat="45.6591" lon="4.60194">
        <ele>634.9</ele>
        <time>2021-09-04T17:30:45Z</time>
      </trkpt>
      <trkpt lat="45.65904" lon="4.602">
        <ele>634.7</ele>
        <time>2021-09-04T17:30:46Z</time>
      </trkpt>
      <trkpt lat="45.6589" lon="4.60211">
        <ele>634.3</ele>
        <time>2021-09-04T17:30:48Z</time>
      </trkpt>
      <trkpt lat="45.65876" lon="4.60222">
        <ele>633.8</ele>
        <time>2021-09-04T17:30:50Z</time>
      </trkpt>
      <trkpt lat="45.65863" lon="4.60233">
        <ele>633.2</ele>
        <time>2021-09-04T17:30:52Z</time>
      </trkpt>
      <trkpt lat="45.65857" lon="4.60239">
        <ele>632.9</ele>
        <time>2021-09-04T17:30:53Z</time>
      </trkpt>
      <trkpt lat="45.65845" lon="4.6025">
        <ele>632.3</ele>
        <time>2021-09-04T17:30:55Z</time>
      </trkpt>
      <trkpt lat="45.6584" lon="4.60253">
        <ele>632.1</ele>
        <time>2021-09-04T17:30:56Z</time>
      </trkpt>
      <trkpt lat="45.6583" lon="4.60253">
        <ele>631.6</ele>
        <time>2021-09-04T17:30:58Z</time>
      </trkpt>
      <trkpt lat="45.65825" lon="4.60254">
        <ele>630.4</ele>
        <time>2021-09-04T17:30:59Z</time>
      </trkpt>
      <trkpt lat="45.65812" lon="4.60258">
        <ele>629.7</ele>
        <time>2021-09-04T17:31:01Z</time>
      </trkpt>
      <trkpt lat="45.65805" lon="4.60261">
        <ele>629.3</ele>
        <time>2021-09-04T17:31:02Z</time>
      </trkpt>
      <trkpt lat="45.65792" lon="4.60266">
        <ele>628.3</ele>
        <time>2021-09-04T17:31:04Z</time>
      </trkpt>
      <trkpt lat="45.65785" lon="4.60267">
        <ele>627.5</ele>
        <time>2021-09-04T17:31:05Z</time>
      </trkpt>
      <trkpt lat="45.65777" lon="4.60267">
        <ele>626.5</ele>
        <time>2021-09-04T17:31:06Z</time>
      </trkpt>
      <trkpt lat="45.65764" lon="4.60269">
        <ele>624.5</ele>
        <time>2021-09-04T17:31:08Z</time>
      </trkpt>
      <trkpt lat="45.65758" lon="4.60272">
        <ele>623.6</ele>
        <time>2021-09-04T17:31:09Z</time>
      </trkpt>
      <trkpt lat="45.65753" lon="4.60275">
        <ele>622.6</ele>
        <time>2021-09-04T17:31:10Z</time>
      </trkpt>
      <trkpt lat="45.65739" lon="4.60285">
        <ele>620.1</ele>
        <time>2021-09-04T17:31:12Z</time>
      </trkpt>
      <trkpt lat="45.65732" lon="4.60289">
        <ele>618.8</ele>
        <time>2021-09-04T17:31:13Z</time>
      </trkpt>
      <trkpt lat="45.65719" lon="4.60302">
        <ele>616.2</ele>
        <time>2021-09-04T17:31:15Z</time>
      </trkpt>
      <trkpt lat="45.65707" lon="4.60318">
        <ele>613.7</ele>
        <time>2021-09-04T17:31:17Z</time>
      </trkpt>
      <trkpt lat="45.65698" lon="4.60338">
        <ele>611.2</ele>
        <time>2021-09-04T17:31:19Z</time>
      </trkpt>
      <trkpt lat="45.65693" lon="4.60348">
        <ele>609.9</ele>
        <time>2021-09-04T17:31:20Z</time>
      </trkpt>
      <trkpt lat="45.65683" lon="4.6037">
        <ele>607.6</ele>
        <time>2021-09-04T17:31:22Z</time>
      </trkpt>
      <trkpt lat="45.65678" lon="4.60381">
        <ele>606.6</ele>
        <time>2021-09-04T17:31:23Z</time>
      </trkpt>
      <trkpt lat="45.65674" lon="4.60391">
        <ele>605.6</ele>
        <time>2021-09-04T17:31:24Z</time>
      </trkpt>
      <trkpt lat="45.6567" lon="4.60401">
        <ele>604.8</ele>
        <time>2021-09-04T17:31:25Z</time>
      </trkpt>
      <trkpt lat="45.65667" lon="4.6041">
        <ele>603.9</ele>
        <time>2021-09-04T17:31:26Z</time>
      </trkpt>
      <trkpt lat="45.65661" lon="4.60425">
        <ele>602.4</ele>
        <time>2021-09-04T17:31:28Z</time>
      </trkpt>
      <trkpt lat="45.65657" lon="4.60445">
        <ele>600.4</ele>
        <time>2021-09-04T17:31:30Z</time>
      </trkpt>
      <trkpt lat="45.65653" lon="4.60455">
        <ele>599.2</ele>
        <time>2021-09-04T17:31:31Z</time>
      </trkpt>
      <trkpt lat="45.65647" lon="4.60465">
        <ele>598</ele>
        <time>2021-09-04T17:31:32Z</time>
      </trkpt>
      <trkpt lat="45.65643" lon="4.60476">
        <ele>596.8</ele>
        <time>2021-09-04T17:31:33Z</time>
      </trkpt>
      <trkpt lat="45.6564" lon="4.60488">
        <ele>595.8</ele>
        <time>2021-09-04T17:31:34Z</time>
      </trkpt>
      <trkpt lat="45.65635" lon="4.60509">
        <ele>593.8</ele>
        <time>2021-09-04T17:31:36Z</time>
      </trkpt>
      <trkpt lat="45.65634" lon="4.60518">
        <ele>592.9</ele>
        <time>2021-09-04T17:31:37Z</time>
      </trkpt>
      <trkpt lat="45.65631" lon="4.60527">
        <ele>591.8</ele>
        <time>2021-09-04T17:31:38Z</time>
      </trkpt>
      <trkpt lat="45.65629" lon="4.60538">
        <ele>590.6</ele>
        <time>2021-09-04T17:31:39Z</time>
      </trkpt>
      <trkpt lat="45.65625" lon="4.6055">
        <ele>589.4</ele>
        <time>2021-09-04T17:31:40Z</time>
      </trkpt>
      <trkpt lat="45.6562" lon="4.60561">
        <ele>588.3</ele>
        <time>2021-09-04T17:31:41Z</time>
      </trkpt>
      <trkpt lat="45.65612" lon="4.60584">
        <ele>586.7</ele>
        <time>2021-09-04T17:31:43Z</time>
      </trkpt>
      <trkpt lat="45.65608" lon="4.60596">
        <ele>586.1</ele>
        <time>2021-09-04T17:31:44Z</time>
      </trkpt>
      <trkpt lat="45.65601" lon="4.60619">
        <ele>585</ele>
        <time>2021-09-04T17:31:46Z</time>
      </trkpt>
      <trkpt lat="45.65593" lon="4.60632">
        <ele>584.1</ele>
        <time>2021-09-04T17:31:48Z</time>
      </trkpt>
      <trkpt lat="45.6558" lon="4.60639">
        <ele>582.8</ele>
        <time>2021-09-04T17:31:50Z</time>
      </trkpt>
      <trkpt lat="45.65568" lon="4.60648">
        <ele>581.5</ele>
        <time>2021-09-04T17:31:52Z</time>
      </trkpt>
      <trkpt lat="45.65557" lon="4.60659">
        <ele>580.1</ele>
        <time>2021-09-04T17:31:54Z</time>
      </trkpt>
      <trkpt lat="45.65554" lon="4.60663">
        <ele>579.6</ele>
        <time>2021-09-04T17:31:55Z</time>
      </trkpt>
      <trkpt lat="45.65551" lon="4.60667">
        <ele>579.1</ele>
        <time>2021-09-04T17:31:56Z</time>
      </trkpt>
      <trkpt lat="45.65549" lon="4.60668">
        <ele>578.8</ele>
        <time>2021-09-04T17:31:57Z</time>
      </trkpt>
      <trkpt lat="45.65545" lon="4.60674">
        <ele>578</ele>
        <time>2021-09-04T17:31:59Z</time>
      </trkpt>
      <trkpt lat="45.65543" lon="4.60677">
        <ele>577.7</ele>
        <time>2021-09-04T17:32:00Z</time>
      </trkpt>
      <trkpt lat="45.65539" lon="4.60683">
        <ele>577</ele>
        <time>2021-09-04T17:32:02Z</time>
      </trkpt>
      <trkpt lat="45.65539" lon="4.60686">
        <ele>576.7</ele>
        <time>2021-09-04T17:32:03Z</time>
      </trkpt>
      <trkpt lat="45.65538" lon="4.60689">
        <ele>576.4</ele>
        <time>2021-09-04T17:32:05Z</time>
      </trkpt>
      <trkpt lat="45.65535" lon="4.60694">
        <ele>576</ele>
        <time>2021-09-04T17:32:06Z</time>
      </trkpt>
      <trkpt lat="45.65531" lon="4.60697">
        <ele>575.5</ele>
        <time>2021-09-04T17:32:07Z</time>
      </trkpt>
      <trkpt lat="45.65528" lon="4.60701">
        <ele>575.1</ele>
        <time>2021-09-04T17:32:08Z</time>
      </trkpt>
      <trkpt lat="45.65525" lon="4.60706">
        <ele>574.7</ele>
        <time>2021-09-04T17:32:09Z</time>
      </trkpt>
      <trkpt lat="45.6552" lon="4.60716">
        <ele>574</ele>
        <time>2021-09-04T17:32:10Z</time>
      </trkpt>
      <trkpt lat="45.65518" lon="4.60723">
        <ele>573.6</ele>
        <time>2021-09-04T17:32:11Z</time>
      </trkpt>
      <trkpt lat="45.65512" lon="4.60734">
        <ele>573</ele>
        <time>2021-09-04T17:32:13Z</time>
      </trkpt>
      <trkpt lat="45.65508" lon="4.60739">
        <ele>572.7</ele>
        <time>2021-09-04T17:32:14Z</time>
      </trkpt>
      <trkpt lat="45.65503" lon="4.60753">
        <ele>572.2</ele>
        <time>2021-09-04T17:32:16Z</time>
      </trkpt>
      <trkpt lat="45.65501" lon="4.60758">
        <ele>572</ele>
        <time>2021-09-04T17:32:17Z</time>
      </trkpt>
      <trkpt lat="45.65498" lon="4.60764">
        <ele>571.7</ele>
        <time>2021-09-04T17:32:18Z</time>
      </trkpt>
      <trkpt lat="45.65489" lon="4.60775">
        <ele>571.2</ele>
        <time>2021-09-04T17:32:20Z</time>
      </trkpt>
      <trkpt lat="45.65486" lon="4.60782">
        <ele>570.9</ele>
        <time>2021-09-04T17:32:21Z</time>
      </trkpt>
      <trkpt lat="45.65481" lon="4.608">
        <ele>570.2</ele>
        <time>2021-09-04T17:32:23Z</time>
      </trkpt>
      <trkpt lat="45.6548" lon="4.6082">
        <ele>569.7</ele>
        <time>2021-09-04T17:32:25Z</time>
      </trkpt>
      <trkpt lat="45.6548" lon="4.6083">
        <ele>569.6</ele>
        <time>2021-09-04T17:32:26Z</time>
      </trkpt>
      <trkpt lat="45.65483" lon="4.60845">
        <ele>569.6</ele>
        <time>2021-09-04T17:32:28Z</time>
      </trkpt>
      <trkpt lat="45.65487" lon="4.60855">
        <ele>569.7</ele>
        <time>2021-09-04T17:32:30Z</time>
      </trkpt>
      <trkpt lat="45.65492" lon="4.60871">
        <ele>570</ele>
        <time>2021-09-04T17:32:32Z</time>
      </trkpt>
      <trkpt lat="45.65494" lon="4.60879">
        <ele>570.2</ele>
        <time>2021-09-04T17:32:33Z</time>
      </trkpt>
      <trkpt lat="45.65497" lon="4.60893">
        <ele>570.6</ele>
        <time>2021-09-04T17:32:35Z</time>
      </trkpt>
      <trkpt lat="45.65501" lon="4.60903">
        <ele>571</ele>
        <time>2021-09-04T17:32:37Z</time>
      </trkpt>
      <trkpt lat="45.65504" lon="4.60913">
        <ele>571.3</ele>
        <time>2021-09-04T17:32:39Z</time>
      </trkpt>
      <trkpt lat="45.65507" lon="4.60921">
        <ele>571.5</ele>
        <time>2021-09-04T17:32:40Z</time>
      </trkpt>
      <trkpt lat="45.65512" lon="4.60928">
        <ele>571.8</ele>
        <time>2021-09-04T17:32:41Z</time>
      </trkpt>
      <trkpt lat="45.65514" lon="4.60936">
        <ele>572.1</ele>
        <time>2021-09-04T17:32:42Z</time>
      </trkpt>
      <trkpt lat="45.65517" lon="4.60945">
        <ele>572.4</ele>
        <time>2021-09-04T17:32:43Z</time>
      </trkpt>
      <trkpt lat="45.6552" lon="4.60962">
        <ele>572.9</ele>
        <time>2021-09-04T17:32:45Z</time>
      </trkpt>
      <trkpt lat="45.65524" lon="4.6098">
        <ele>573.5</ele>
        <time>2021-09-04T17:32:47Z</time>
      </trkpt>
      <trkpt lat="45.6553" lon="4.60995">
        <ele>574.1</ele>
        <time>2021-09-04T17:32:49Z</time>
      </trkpt>
      <trkpt lat="45.65533" lon="4.61003">
        <ele>574.5</ele>
        <time>2021-09-04T17:32:50Z</time>
      </trkpt>
      <trkpt lat="45.65538" lon="4.61008">
        <ele>574.8</ele>
        <time>2021-09-04T17:32:51Z</time>
      </trkpt>
      <trkpt lat="45.6555" lon="4.61014">
        <ele>575.4</ele>
        <time>2021-09-04T17:32:53Z</time>
      </trkpt>
      <trkpt lat="45.65562" lon="4.61015">
        <ele>575.8</ele>
        <time>2021-09-04T17:32:55Z</time>
      </trkpt>
      <trkpt lat="45.65575" lon="4.61012">
        <ele>576.1</ele>
        <time>2021-09-04T17:32:57Z</time>
      </trkpt>
      <trkpt lat="45.65581" lon="4.61012">
        <ele>576.2</ele>
        <time>2021-09-04T17:32:58Z</time>
      </trkpt>
      <trkpt lat="45.65592" lon="4.61011">
        <ele>576.3</ele>
        <time>2021-09-04T17:33:00Z</time>
      </trkpt>
      <trkpt lat="45.65598" lon="4.61013">
        <ele>576.4</ele>
        <time>2021-09-04T17:33:01Z</time>
      </trkpt>
      <trkpt lat="45.65609" lon="4.61018">
        <ele>576.6</ele>
        <time>2021-09-04T17:33:03Z</time>
      </trkpt>
      <trkpt lat="45.65619" lon="4.61026">
        <ele>576.7</ele>
        <time>2021-09-04T17:33:05Z</time>
      </trkpt>
      <trkpt lat="45.65624" lon="4.61029">
        <ele>576.8</ele>
        <time>2021-09-04T17:33:06Z</time>
      </trkpt>
      <trkpt lat="45.65633" lon="4.61036">
        <ele>577</ele>
        <time>2021-09-04T17:33:08Z</time>
      </trkpt>
      <trkpt lat="45.65641" lon="4.61045">
        <ele>576.8</ele>
        <time>2021-09-04T17:33:10Z</time>
      </trkpt>
      <trkpt lat="45.65646" lon="4.61059">
        <ele>576.1</ele>
        <time>2021-09-04T17:33:12Z</time>
      </trkpt>
      <trkpt lat="45.65649" lon="4.61067">
        <ele>575.5</ele>
        <time>2021-09-04T17:33:13Z</time>
      </trkpt>
      <trkpt lat="45.65652" lon="4.61077">
        <ele>574.7</ele>
        <time>2021-09-04T17:33:14Z</time>
      </trkpt>
      <trkpt lat="45.65656" lon="4.61097">
        <ele>573.4</ele>
        <time>2021-09-04T17:33:16Z</time>
      </trkpt>
      <trkpt lat="45.65654" lon="4.61107">
        <ele>572.9</ele>
        <time>2021-09-04T17:33:17Z</time>
      </trkpt>
      <trkpt lat="45.65651" lon="4.61116">
        <ele>572.5</ele>
        <time>2021-09-04T17:33:18Z</time>
      </trkpt>
      <trkpt lat="45.65647" lon="4.61124">
        <ele>572.1</ele>
        <time>2021-09-04T17:33:19Z</time>
      </trkpt>
      <trkpt lat="45.65641" lon="4.61137">
        <ele>571.5</ele>
        <time>2021-09-04T17:33:21Z</time>
      </trkpt>
      <trkpt lat="45.65637" lon="4.61143">
        <ele>571.1</ele>
        <time>2021-09-04T17:33:22Z</time>
      </trkpt>
      <trkpt lat="45.65628" lon="4.61156">
        <ele>570.3</ele>
        <time>2021-09-04T17:33:24Z</time>
      </trkpt>
      <trkpt lat="45.65621" lon="4.61172">
        <ele>569.5</ele>
        <time>2021-09-04T17:33:26Z</time>
      </trkpt>
      <trkpt lat="45.65618" lon="4.61179">
        <ele>569.1</ele>
        <time>2021-09-04T17:33:27Z</time>
      </trkpt>
      <trkpt lat="45.65615" lon="4.61195">
        <ele>568.2</ele>
        <time>2021-09-04T17:33:29Z</time>
      </trkpt>
      <trkpt lat="45.65613" lon="4.61203">
        <ele>567.8</ele>
        <time>2021-09-04T17:33:30Z</time>
      </trkpt>
      <trkpt lat="45.65609" lon="4.6122">
        <ele>566.7</ele>
        <time>2021-09-04T17:33:32Z</time>
      </trkpt>
      <trkpt lat="45.65607" lon="4.61235">
        <ele>565.6</ele>
        <time>2021-09-04T17:33:34Z</time>
      </trkpt>
      <trkpt lat="45.65606" lon="4.61252">
        <ele>564.2</ele>
        <time>2021-09-04T17:33:36Z</time>
      </trkpt>
      <trkpt lat="45.65606" lon="4.61271">
        <ele>562.8</ele>
        <time>2021-09-04T17:33:38Z</time>
      </trkpt>
      <trkpt lat="45.65608" lon="4.6128">
        <ele>562.2</ele>
        <time>2021-09-04T17:33:39Z</time>
      </trkpt>
      <trkpt lat="45.65612" lon="4.61288">
        <ele>561.5</ele>
        <time>2021-09-04T17:33:40Z</time>
      </trkpt>
      <trkpt lat="45.65616" lon="4.61295">
        <ele>560.9</ele>
        <time>2021-09-04T17:33:41Z</time>
      </trkpt>
      <trkpt lat="45.6562" lon="4.61304">
        <ele>560.1</ele>
        <time>2021-09-04T17:33:42Z</time>
      </trkpt>
      <trkpt lat="45.65627" lon="4.61319">
        <ele>558.6</ele>
        <time>2021-09-04T17:33:44Z</time>
      </trkpt>
      <trkpt lat="45.6563" lon="4.61327">
        <ele>557.9</ele>
        <time>2021-09-04T17:33:45Z</time>
      </trkpt>
      <trkpt lat="45.65637" lon="4.61342">
        <ele>556.7</ele>
        <time>2021-09-04T17:33:47Z</time>
      </trkpt>
      <trkpt lat="45.6564" lon="4.6135">
        <ele>556</ele>
        <time>2021-09-04T17:33:48Z</time>
      </trkpt>
      <trkpt lat="45.65647" lon="4.61366">
        <ele>554.6</ele>
        <time>2021-09-04T17:33:50Z</time>
      </trkpt>
      <trkpt lat="45.65655" lon="4.61382">
        <ele>553.1</ele>
        <time>2021-09-04T17:33:52Z</time>
      </trkpt>
      <trkpt lat="45.65662" lon="4.61399">
        <ele>551.4</ele>
        <time>2021-09-04T17:33:54Z</time>
      </trkpt>
      <trkpt lat="45.65665" lon="4.61407">
        <ele>550.7</ele>
        <time>2021-09-04T17:33:55Z</time>
      </trkpt>
      <trkpt lat="45.65672" lon="4.61423">
        <ele>549.1</ele>
        <time>2021-09-04T17:33:57Z</time>
      </trkpt>
      <trkpt lat="45.65676" lon="4.61432">
        <ele>548.2</ele>
        <time>2021-09-04T17:33:58Z</time>
      </trkpt>
      <trkpt lat="45.65683" lon="4.61449">
        <ele>546.6</ele>
        <time>2021-09-04T17:34:00Z</time>
      </trkpt>
      <trkpt lat="45.65686" lon="4.61459">
        <ele>545.6</ele>
        <time>2021-09-04T17:34:02Z</time>
      </trkpt>
      <trkpt lat="45.65689" lon="4.61465">
        <ele>544.8</ele>
        <time>2021-09-04T17:34:03Z</time>
      </trkpt>
      <trkpt lat="45.65693" lon="4.61477">
        <ele>543.5</ele>
        <time>2021-09-04T17:34:05Z</time>
      </trkpt>
      <trkpt lat="45.65695" lon="4.61484">
        <ele>542.7</ele>
        <time>2021-09-04T17:34:06Z</time>
      </trkpt>
      <trkpt lat="45.65696" lon="4.61497">
        <ele>541.3</ele>
        <time>2021-09-04T17:34:08Z</time>
      </trkpt>
      <trkpt lat="45.65694" lon="4.61501">
        <ele>540.8</ele>
        <time>2021-09-04T17:34:10Z</time>
      </trkpt>
      <trkpt lat="45.65683" lon="4.61496">
        <ele>539.4</ele>
        <time>2021-09-04T17:34:11Z</time>
      </trkpt>
      <trkpt lat="45.65677" lon="4.61492">
        <ele>538.4</ele>
        <time>2021-09-04T17:34:12Z</time>
      </trkpt>
      <trkpt lat="45.65664" lon="4.61482">
        <ele>536.5</ele>
        <time>2021-09-04T17:34:14Z</time>
      </trkpt>
      <trkpt lat="45.65656" lon="4.61478">
        <ele>535.7</ele>
        <time>2021-09-04T17:34:15Z</time>
      </trkpt>
      <trkpt lat="45.65649" lon="4.61474">
        <ele>534.9</ele>
        <time>2021-09-04T17:34:16Z</time>
      </trkpt>
      <trkpt lat="45.65635" lon="4.61465">
        <ele>533.4</ele>
        <time>2021-09-04T17:34:18Z</time>
      </trkpt>
      <trkpt lat="45.6562" lon="4.61462">
        <ele>532.3</ele>
        <time>2021-09-04T17:34:20Z</time>
      </trkpt>
      <trkpt lat="45.65612" lon="4.61459">
        <ele>531.9</ele>
        <time>2021-09-04T17:34:21Z</time>
      </trkpt>
      <trkpt lat="45.65605" lon="4.61455">
        <ele>531.5</ele>
        <time>2021-09-04T17:34:22Z</time>
      </trkpt>
      <trkpt lat="45.65592" lon="4.61449">
        <ele>530.7</ele>
        <time>2021-09-04T17:34:24Z</time>
      </trkpt>
      <trkpt lat="45.65578" lon="4.61444">
        <ele>529.4</ele>
        <time>2021-09-04T17:34:26Z</time>
      </trkpt>
      <trkpt lat="45.6557" lon="4.61442">
        <ele>528.6</ele>
        <time>2021-09-04T17:34:27Z</time>
      </trkpt>
      <trkpt lat="45.65556" lon="4.61439">
        <ele>527.2</ele>
        <time>2021-09-04T17:34:29Z</time>
      </trkpt>
      <trkpt lat="45.65544" lon="4.61436">
        <ele>526.1</ele>
        <time>2021-09-04T17:34:31Z</time>
      </trkpt>
      <trkpt lat="45.65538" lon="4.61433">
        <ele>525.5</ele>
        <time>2021-09-04T17:34:32Z</time>
      </trkpt>
      <trkpt lat="45.65527" lon="4.61427">
        <ele>524.6</ele>
        <time>2021-09-04T17:34:34Z</time>
      </trkpt>
      <trkpt lat="45.65517" lon="4.61419">
        <ele>523.8</ele>
        <time>2021-09-04T17:34:36Z</time>
      </trkpt>
      <trkpt lat="45.65512" lon="4.61415">
        <ele>523.3</ele>
        <time>2021-09-04T17:34:37Z</time>
      </trkpt>
      <trkpt lat="45.65499" lon="4.61404">
        <ele>522.1</ele>
        <time>2021-09-04T17:34:39Z</time>
      </trkpt>
      <trkpt lat="45.65493" lon="4.61399">
        <ele>521.5</ele>
        <time>2021-09-04T17:34:40Z</time>
      </trkpt>
      <trkpt lat="45.6548" lon="4.61381">
        <ele>520.1</ele>
        <time>2021-09-04T17:34:42Z</time>
      </trkpt>
      <trkpt lat="45.65474" lon="4.61373">
        <ele>519.5</ele>
        <time>2021-09-04T17:34:43Z</time>
      </trkpt>
      <trkpt lat="45.65468" lon="4.61367">
        <ele>518.9</ele>
        <time>2021-09-04T17:34:44Z</time>
      </trkpt>
      <trkpt lat="45.65458" lon="4.61351">
        <ele>517.6</ele>
        <time>2021-09-04T17:34:46Z</time>
      </trkpt>
      <trkpt lat="45.65454" lon="4.61329">
        <ele>516.3</ele>
        <time>2021-09-04T17:34:48Z</time>
      </trkpt>
      <trkpt lat="45.65452" lon="4.61318">
        <ele>515.7</ele>
        <time>2021-09-04T17:34:49Z</time>
      </trkpt>
      <trkpt lat="45.6545" lon="4.61308">
        <ele>515.3</ele>
        <time>2021-09-04T17:34:50Z</time>
      </trkpt>
      <trkpt lat="45.65446" lon="4.61286">
        <ele>514.8</ele>
        <time>2021-09-04T17:34:52Z</time>
      </trkpt>
      <trkpt lat="45.65442" lon="4.61264">
        <ele>514.5</ele>
        <time>2021-09-04T17:34:54Z</time>
      </trkpt>
      <trkpt lat="45.65438" lon="4.61241">
        <ele>514.4</ele>
        <time>2021-09-04T17:34:56Z</time>
      </trkpt>
      <trkpt lat="45.65433" lon="4.6122">
        <ele>514.3</ele>
        <time>2021-09-04T17:34:58Z</time>
      </trkpt>
      <trkpt lat="45.6543" lon="4.61208">
        <ele>514.3</ele>
        <time>2021-09-04T17:34:59Z</time>
      </trkpt>
      <trkpt lat="45.65424" lon="4.61187">
        <ele>514.1</ele>
        <time>2021-09-04T17:35:01Z</time>
      </trkpt>
      <trkpt lat="45.65414" lon="4.6118">
        <ele>514</ele>
        <time>2021-09-04T17:35:03Z</time>
      </trkpt>
      <trkpt lat="45.65409" lon="4.61181">
        <ele>514</ele>
        <time>2021-09-04T17:35:04Z</time>
      </trkpt>
      <trkpt lat="45.65406" lon="4.61193">
        <ele>514.1</ele>
        <time>2021-09-04T17:35:06Z</time>
      </trkpt>
      <trkpt lat="45.65405" lon="4.61201">
        <ele>514.1</ele>
        <time>2021-09-04T17:35:07Z</time>
      </trkpt>
      <trkpt lat="45.65405" lon="4.6121">
        <ele>514.3</ele>
        <time>2021-09-04T17:35:08Z</time>
      </trkpt>
      <trkpt lat="45.65402" lon="4.61225">
        <ele>514.7</ele>
        <time>2021-09-04T17:35:10Z</time>
      </trkpt>
      <trkpt lat="45.65399" lon="4.61233">
        <ele>515</ele>
        <time>2021-09-04T17:35:11Z</time>
      </trkpt>
      <trkpt lat="45.65389" lon="4.61243">
        <ele>515.8</ele>
        <time>2021-09-04T17:35:13Z</time>
      </trkpt>
      <trkpt lat="45.65379" lon="4.61251">
        <ele>516.7</ele>
        <time>2021-09-04T17:35:15Z</time>
      </trkpt>
      <trkpt lat="45.6537" lon="4.61259">
        <ele>517.7</ele>
        <time>2021-09-04T17:35:17Z</time>
      </trkpt>
      <trkpt lat="45.65366" lon="4.61263">
        <ele>518.2</ele>
        <time>2021-09-04T17:35:18Z</time>
      </trkpt>
      <trkpt lat="45.65362" lon="4.61267">
        <ele>518.8</ele>
        <time>2021-09-04T17:35:20Z</time>
      </trkpt>
      <trkpt lat="45.65357" lon="4.61271">
        <ele>519.5</ele>
        <time>2021-09-04T17:35:21Z</time>
      </trkpt>
      <trkpt lat="45.65353" lon="4.61275">
        <ele>520.1</ele>
        <time>2021-09-04T17:35:22Z</time>
      </trkpt>
      <trkpt lat="45.65348" lon="4.6128">
        <ele>521</ele>
        <time>2021-09-04T17:35:24Z</time>
      </trkpt>
      <trkpt lat="45.65345" lon="4.61282">
        <ele>521.5</ele>
        <time>2021-09-04T17:35:25Z</time>
      </trkpt>
      <trkpt lat="45.65342" lon="4.61283">
        <ele>521.9</ele>
        <time>2021-09-04T17:35:26Z</time>
      </trkpt>
      <trkpt lat="45.65338" lon="4.61285">
        <ele>522.6</ele>
        <time>2021-09-04T17:35:28Z</time>
      </trkpt>
      <trkpt lat="45.65334" lon="4.61286">
        <ele>523.1</ele>
        <time>2021-09-04T17:35:29Z</time>
      </trkpt>
      <trkpt lat="45.65331" lon="4.61288">
        <ele>523.7</ele>
        <time>2021-09-04T17:35:30Z</time>
      </trkpt>
      <trkpt lat="45.6533" lon="4.61288">
        <ele>523.8</ele>
        <time>2021-09-04T17:35:31Z</time>
      </trkpt>
      <trkpt lat="45.65327" lon="4.6129">
        <ele>524.3</ele>
        <time>2021-09-04T17:35:33Z</time>
      </trkpt>
      <trkpt lat="45.65324" lon="4.61291">
        <ele>524.8</ele>
        <time>2021-09-04T17:35:34Z</time>
      </trkpt>
      <trkpt lat="45.65321" lon="4.61294">
        <ele>525.4</ele>
        <time>2021-09-04T17:35:36Z</time>
      </trkpt>
      <trkpt lat="45.6532" lon="4.61295">
        <ele>525.6</ele>
        <time>2021-09-04T17:35:37Z</time>
      </trkpt>
      <trkpt lat="45.65318" lon="4.61297">
        <ele>525.9</ele>
        <time>2021-09-04T17:35:38Z</time>
      </trkpt>
      <trkpt lat="45.65316" lon="4.61301">
        <ele>526.4</ele>
        <time>2021-09-04T17:35:40Z</time>
      </trkpt>
      <trkpt lat="45.65315" lon="4.61302">
        <ele>526.6</ele>
        <time>2021-09-04T17:35:41Z</time>
      </trkpt>
      <trkpt lat="45.65313" lon="4.61306">
        <ele>527</ele>
        <time>2021-09-04T17:35:42Z</time>
      </trkpt>
      <trkpt lat="45.65313" lon="4.61307">
        <ele>527.1</ele>
        <time>2021-09-04T17:35:43Z</time>
      </trkpt>
      <trkpt lat="45.65311" lon="4.61311">
        <ele>527.6</ele>
        <time>2021-09-04T17:35:45Z</time>
      </trkpt>
      <trkpt lat="45.65311" lon="4.61313">
        <ele>527.7</ele>
        <time>2021-09-04T17:35:46Z</time>
      </trkpt>
      <trkpt lat="45.65309" lon="4.61316">
        <ele>528</ele>
        <time>2021-09-04T17:35:47Z</time>
      </trkpt>
      <trkpt lat="45.65307" lon="4.61318">
        <ele>528.4</ele>
        <time>2021-09-04T17:35:49Z</time>
      </trkpt>
      <trkpt lat="45.65306" lon="4.61322">
        <ele>528.7</ele>
        <time>2021-09-04T17:35:50Z</time>
      </trkpt>
      <trkpt lat="45.65304" lon="4.61325">
        <ele>529.1</ele>
        <time>2021-09-04T17:35:52Z</time>
      </trkpt>
      <trkpt lat="45.65302" lon="4.61328">
        <ele>529.4</ele>
        <time>2021-09-04T17:35:53Z</time>
      </trkpt>
      <trkpt lat="45.653" lon="4.61332">
        <ele>529.8</ele>
        <time>2021-09-04T17:35:55Z</time>
      </trkpt>
      <trkpt lat="45.65298" lon="4.61335">
        <ele>530.2</ele>
        <time>2021-09-04T17:35:56Z</time>
      </trkpt>
      <trkpt lat="45.65297" lon="4.61336">
        <ele>530.4</ele>
        <time>2021-09-04T17:35:57Z</time>
      </trkpt>
      <trkpt lat="45.65295" lon="4.61339">
        <ele>530.7</ele>
        <time>2021-09-04T17:35:58Z</time>
      </trkpt>
      <trkpt lat="45.65295" lon="4.6134">
        <ele>530.8</ele>
        <time>2021-09-04T17:35:59Z</time>
      </trkpt>
      <trkpt lat="45.65292" lon="4.61343">
        <ele>531.2</ele>
        <time>2021-09-04T17:36:01Z</time>
      </trkpt>
      <trkpt lat="45.6529" lon="4.61346">
        <ele>531.6</ele>
        <time>2021-09-04T17:36:03Z</time>
      </trkpt>
      <trkpt lat="45.65288" lon="4.61349">
        <ele>532</ele>
        <time>2021-09-04T17:36:04Z</time>
      </trkpt>
      <trkpt lat="45.65286" lon="4.61352">
        <ele>532.5</ele>
        <time>2021-09-04T17:36:05Z</time>
      </trkpt>
      <trkpt lat="45.65285" lon="4.61353">
        <ele>532.6</ele>
        <time>2021-09-04T17:36:06Z</time>
      </trkpt>
      <trkpt lat="45.65282" lon="4.61356">
        <ele>533.1</ele>
        <time>2021-09-04T17:36:08Z</time>
      </trkpt>
      <trkpt lat="45.65282" lon="4.61357">
        <ele>533.3</ele>
        <time>2021-09-04T17:36:09Z</time>
      </trkpt>
      <trkpt lat="45.6528" lon="4.6136">
        <ele>533.8</ele>
        <time>2021-09-04T17:36:10Z</time>
      </trkpt>
      <trkpt lat="45.65279" lon="4.61361">
        <ele>534</ele>
        <time>2021-09-04T17:36:11Z</time>
      </trkpt>
      <trkpt lat="45.65275" lon="4.61364">
        <ele>534.7</ele>
        <time>2021-09-04T17:36:13Z</time>
      </trkpt>
      <trkpt lat="45.65272" lon="4.61366">
        <ele>535.3</ele>
        <time>2021-09-04T17:36:15Z</time>
      </trkpt>
      <trkpt lat="45.65269" lon="4.61369">
        <ele>536.1</ele>
        <time>2021-09-04T17:36:16Z</time>
      </trkpt>
      <trkpt lat="45.65268" lon="4.61374">
        <ele>536.8</ele>
        <time>2021-09-04T17:36:18Z</time>
      </trkpt>
      <trkpt lat="45.65268" lon="4.61375">
        <ele>536.9</ele>
        <time>2021-09-04T17:36:19Z</time>
      </trkpt>
      <trkpt lat="45.65267" lon="4.61377">
        <ele>537.2</ele>
        <time>2021-09-04T17:36:20Z</time>
      </trkpt>
      <trkpt lat="45.65266" lon="4.6138">
        <ele>537.8</ele>
        <time>2021-09-04T17:36:22Z</time>
      </trkpt>
      <trkpt lat="45.65265" lon="4.61381">
        <ele>538</ele>
        <time>2021-09-04T17:36:23Z</time>
      </trkpt>
      <trkpt lat="45.65263" lon="4.61384">
        <ele>538.6</ele>
        <time>2021-09-04T17:36:25Z</time>
      </trkpt>
      <trkpt lat="45.65261" lon="4.61386">
        <ele>539</ele>
        <time>2021-09-04T17:36:26Z</time>
      </trkpt>
      <trkpt lat="45.6526" lon="4.61388">
        <ele>539.4</ele>
        <time>2021-09-04T17:36:28Z</time>
      </trkpt>
      <trkpt lat="45.65258" lon="4.6139">
        <ele>539.9</ele>
        <time>2021-09-04T17:36:29Z</time>
      </trkpt>
      <trkpt lat="45.65257" lon="4.61391">
        <ele>540.2</ele>
        <time>2021-09-04T17:36:30Z</time>
      </trkpt>
      <trkpt lat="45.65255" lon="4.61394">
        <ele>540.8</ele>
        <time>2021-09-04T17:36:32Z</time>
      </trkpt>
      <trkpt lat="45.65254" lon="4.61395">
        <ele>541</ele>
        <time>2021-09-04T17:36:33Z</time>
      </trkpt>
      <trkpt lat="45.65252" lon="4.61398">
        <ele>541.6</ele>
        <time>2021-09-04T17:36:35Z</time>
      </trkpt>
      <trkpt lat="45.65252" lon="4.61398">
        <ele>541.7</ele>
        <time>2021-09-04T17:36:36Z</time>
      </trkpt>
      <trkpt lat="45.65249" lon="4.61402">
        <ele>542.4</ele>
        <time>2021-09-04T17:36:38Z</time>
      </trkpt>
      <trkpt lat="45.65248" lon="4.61403">
        <ele>542.6</ele>
        <time>2021-09-04T17:36:39Z</time>
      </trkpt>
      <trkpt lat="45.65246" lon="4.61406">
        <ele>543.2</ele>
        <time>2021-09-04T17:36:41Z</time>
      </trkpt>
      <trkpt lat="45.65246" lon="4.61407">
        <ele>543.4</ele>
        <time>2021-09-04T17:36:42Z</time>
      </trkpt>
      <trkpt lat="45.65243" lon="4.61409">
        <ele>543.9</ele>
        <time>2021-09-04T17:36:44Z</time>
      </trkpt>
      <trkpt lat="45.65242" lon="4.6141">
        <ele>544.1</ele>
        <time>2021-09-04T17:36:45Z</time>
      </trkpt>
      <trkpt lat="45.6524" lon="4.61411">
        <ele>544.6</ele>
        <time>2021-09-04T17:36:47Z</time>
      </trkpt>
      <trkpt lat="45.65237" lon="4.6141">
        <ele>545</ele>
        <time>2021-09-04T17:36:48Z</time>
      </trkpt>
      <trkpt lat="45.65236" lon="4.61406">
        <ele>545.6</ele>
        <time>2021-09-04T17:36:50Z</time>
      </trkpt>
      <trkpt lat="45.65235" lon="4.61405">
        <ele>545.9</ele>
        <time>2021-09-04T17:36:51Z</time>
      </trkpt>
      <trkpt lat="45.65232" lon="4.61405">
        <ele>546.3</ele>
        <time>2021-09-04T17:36:53Z</time>
      </trkpt>
      <trkpt lat="45.65232" lon="4.61406">
        <ele>546.4</ele>
        <time>2021-09-04T17:36:54Z</time>
      </trkpt>
      <trkpt lat="45.65231" lon="4.61406">
        <ele>546.4</ele>
        <time>2021-09-04T17:36:55Z</time>
      </trkpt>
      <trkpt lat="45.65231" lon="4.61407">
        <ele>546.4</ele>
        <time>2021-09-04T17:36:56Z</time>
      </trkpt>
      <trkpt lat="45.65231" lon="4.61407">
        <ele>546.5</ele>
        <time>2021-09-04T17:36:58Z</time>
      </trkpt>
      <trkpt lat="45.65231" lon="4.61407">
        <ele>546.5</ele>
        <time>2021-09-04T17:36:59Z</time>
      </trkpt>
      <trkpt lat="45.65231" lon="4.61407">
        <ele>546.5</ele>
        <time>2021-09-04T17:37:01Z</time>
      </trkpt>
      <trkpt lat="45.65231" lon="4.61407">
        <ele>546.5</ele>
        <time>2021-09-04T17:37:02Z</time>
      </trkpt>
      <trkpt lat="45.65231" lon="4.61407">
        <ele>546.5</ele>
        <time>2021-09-04T17:37:04Z</time>
      </trkpt>
      <trkpt lat="45.65231" lon="4.61407">
        <ele>546.5</ele>
        <time>2021-09-04T17:37:06Z</time>
      </trkpt>
      <trkpt lat="45.65232" lon="4.61409">
        <ele>546.6</ele>
        <time>2021-09-04T17:37:54Z</time>
      </trkpt>
      <trkpt lat="45.65232" lon="4.61411">
        <ele>546.6</ele>
        <time>2021-09-04T17:37:55Z</time>
      </trkpt>
      <trkpt lat="45.65229" lon="4.61414">
        <ele>546.8</ele>
        <time>2021-09-04T17:37:57Z</time>
      </trkpt>
      <trkpt lat="45.65227" lon="4.61416">
        <ele>546.8</ele>
        <time>2021-09-04T17:37:58Z</time>
      </trkpt>
      <trkpt lat="45.65225" lon="4.61418">
        <ele>546.9</ele>
        <time>2021-09-04T17:38:00Z</time>
      </trkpt>
      <trkpt lat="45.65223" lon="4.61419">
        <ele>547</ele>
        <time>2021-09-04T17:38:01Z</time>
      </trkpt>
      <trkpt lat="45.65221" lon="4.61421">
        <ele>547</ele>
        <time>2021-09-04T17:38:03Z</time>
      </trkpt>
      <trkpt lat="45.6522" lon="4.61422">
        <ele>547</ele>
        <time>2021-09-04T17:38:04Z</time>
      </trkpt>
      <trkpt lat="45.65219" lon="4.61424">
        <ele>547</ele>
        <time>2021-09-04T17:38:06Z</time>
      </trkpt>
      <trkpt lat="45.65218" lon="4.61425">
        <ele>547.1</ele>
        <time>2021-09-04T17:38:07Z</time>
      </trkpt>
      <trkpt lat="45.65218" lon="4.61426">
        <ele>547.1</ele>
        <time>2021-09-04T17:38:08Z</time>
      </trkpt>
      <trkpt lat="45.65218" lon="4.61426">
        <ele>547.1</ele>
        <time>2021-09-04T17:38:09Z</time>
      </trkpt>
      <trkpt lat="45.65217" lon="4.61427">
        <ele>547.1</ele>
        <time>2021-09-04T17:38:11Z</time>
      </trkpt>
      <trkpt lat="45.65217" lon="4.61427">
        <ele>547</ele>
        <time>2021-09-04T17:38:13Z</time>
      </trkpt>
      <trkpt lat="45.65217" lon="4.61427">
        <ele>547</ele>
        <time>2021-09-04T17:38:15Z</time>
      </trkpt>
      <trkpt lat="45.65217" lon="4.61427">
        <ele>547</ele>
        <time>2021-09-04T17:38:16Z</time>
      </trkpt>
      <trkpt lat="45.65217" lon="4.61427">
        <ele>547</ele>
        <time>2021-09-04T17:38:17Z</time>
      </trkpt>
      <trkpt lat="45.65217" lon="4.61427">
        <ele>547</ele>
        <time>2021-09-04T17:38:18Z</time>
      </trkpt>
      <trkpt lat="45.65217" lon="4.61427">
        <ele>547</ele>
        <time>2021-09-04T17:38:20Z</time>
      </trkpt>
      <trkpt lat="45.65212" lon="4.61431">
        <ele>546.9</ele>
        <time>2021-09-04T17:38:28Z</time>
      </trkpt>
      <trkpt lat="45.6521" lon="4.61433">
        <ele>546.9</ele>
        <time>2021-09-04T17:38:29Z</time>
      </trkpt>
      <trkpt lat="45.65209" lon="4.61434">
        <ele>546.9</ele>
        <time>2021-09-04T17:38:31Z</time>
      </trkpt>
      <trkpt lat="45.65207" lon="4.61433">
        <ele>546.8</ele>
        <time>2021-09-04T17:38:32Z</time>
      </trkpt>
      <trkpt lat="45.65205" lon="4.61433">
        <ele>546.7</ele>
        <time>2021-09-04T17:38:33Z</time>
      </trkpt>
      <trkpt lat="45.65203" lon="4.61434">
        <ele>546.6</ele>
        <time>2021-09-04T17:38:35Z</time>
      </trkpt>
      <trkpt lat="45.65201" lon="4.61438">
        <ele>546.4</ele>
        <time>2021-09-04T17:38:37Z</time>
      </trkpt>
      <trkpt lat="45.65161" lon="4.61426">
        <ele>544.1</ele>
        <time>2021-09-04T17:38:38Z</time>
      </trkpt>
      <trkpt lat="45.65148" lon="4.61421">
        <ele>543.4</ele>
        <time>2021-09-04T17:38:40Z</time>
      </trkpt>
      <trkpt lat="45.65141" lon="4.61416">
        <ele>543.1</ele>
        <time>2021-09-04T17:38:41Z</time>
      </trkpt>
      <trkpt lat="45.65129" lon="4.61406">
        <ele>542.4</ele>
        <time>2021-09-04T17:38:43Z</time>
      </trkpt>
      <trkpt lat="45.65124" lon="4.61401">
        <ele>542</ele>
        <time>2021-09-04T17:38:44Z</time>
      </trkpt>
      <trkpt lat="45.65118" lon="4.61396">
        <ele>541.6</ele>
        <time>2021-09-04T17:38:45Z</time>
      </trkpt>
      <trkpt lat="45.65112" lon="4.61392">
        <ele>541.2</ele>
        <time>2021-09-04T17:38:46Z</time>
      </trkpt>
      <trkpt lat="45.65098" lon="4.61386">
        <ele>540.1</ele>
        <time>2021-09-04T17:38:48Z</time>
      </trkpt>
      <trkpt lat="45.65091" lon="4.61382">
        <ele>539.5</ele>
        <time>2021-09-04T17:38:49Z</time>
      </trkpt>
      <trkpt lat="45.65079" lon="4.61371">
        <ele>538.1</ele>
        <time>2021-09-04T17:38:51Z</time>
      </trkpt>
      <trkpt lat="45.65072" lon="4.61363">
        <ele>537.4</ele>
        <time>2021-09-04T17:38:52Z</time>
      </trkpt>
      <trkpt lat="45.65067" lon="4.61354">
        <ele>536.6</ele>
        <time>2021-09-04T17:38:53Z</time>
      </trkpt>
      <trkpt lat="45.65054" lon="4.61338">
        <ele>535.1</ele>
        <time>2021-09-04T17:38:55Z</time>
      </trkpt>
      <trkpt lat="45.6504" lon="4.61321">
        <ele>533.5</ele>
        <time>2021-09-04T17:38:57Z</time>
      </trkpt>
      <trkpt lat="45.65034" lon="4.61313">
        <ele>532.9</ele>
        <time>2021-09-04T17:38:58Z</time>
      </trkpt>
      <trkpt lat="45.6502" lon="4.61307">
        <ele>531.8</ele>
        <time>2021-09-04T17:39:00Z</time>
      </trkpt>
      <trkpt lat="45.65006" lon="4.61318">
        <ele>530.5</ele>
        <time>2021-09-04T17:39:02Z</time>
      </trkpt>
      <trkpt lat="45.64999" lon="4.61324">
        <ele>529.9</ele>
        <time>2021-09-04T17:39:03Z</time>
      </trkpt>
      <trkpt lat="45.64984" lon="4.6133">
        <ele>528.7</ele>
        <time>2021-09-04T17:39:05Z</time>
      </trkpt>
      <trkpt lat="45.64966" lon="4.6133">
        <ele>527.4</ele>
        <time>2021-09-04T17:39:07Z</time>
      </trkpt>
      <trkpt lat="45.64949" lon="4.6133">
        <ele>526.3</ele>
        <time>2021-09-04T17:39:09Z</time>
      </trkpt>
      <trkpt lat="45.6494" lon="4.6133">
        <ele>525.6</ele>
        <time>2021-09-04T17:39:10Z</time>
      </trkpt>
      <trkpt lat="45.64921" lon="4.61326">
        <ele>524.3</ele>
        <time>2021-09-04T17:39:12Z</time>
      </trkpt>
      <trkpt lat="45.64913" lon="4.61324">
        <ele>523.7</ele>
        <time>2021-09-04T17:39:13Z</time>
      </trkpt>
      <trkpt lat="45.64894" lon="4.61323">
        <ele>522.5</ele>
        <time>2021-09-04T17:39:15Z</time>
      </trkpt>
      <trkpt lat="45.64886" lon="4.61322">
        <ele>522.1</ele>
        <time>2021-09-04T17:39:16Z</time>
      </trkpt>
      <trkpt lat="45.64877" lon="4.6132">
        <ele>521.6</ele>
        <time>2021-09-04T17:39:17Z</time>
      </trkpt>
      <trkpt lat="45.64868" lon="4.61319">
        <ele>521.2</ele>
        <time>2021-09-04T17:39:18Z</time>
      </trkpt>
      <trkpt lat="45.64852" lon="4.61317">
        <ele>520.4</ele>
        <time>2021-09-04T17:39:20Z</time>
      </trkpt>
      <trkpt lat="45.64836" lon="4.61314">
        <ele>519.8</ele>
        <time>2021-09-04T17:39:22Z</time>
      </trkpt>
      <trkpt lat="45.6482" lon="4.61312">
        <ele>518.9</ele>
        <time>2021-09-04T17:39:24Z</time>
      </trkpt>
      <trkpt lat="45.64804" lon="4.61308">
        <ele>518.1</ele>
        <time>2021-09-04T17:39:26Z</time>
      </trkpt>
      <trkpt lat="45.64796" lon="4.61305">
        <ele>517.8</ele>
        <time>2021-09-04T17:39:27Z</time>
      </trkpt>
      <trkpt lat="45.64785" lon="4.61318">
        <ele>517.3</ele>
        <time>2021-09-04T17:39:29Z</time>
      </trkpt>
      <trkpt lat="45.64785" lon="4.61327">
        <ele>517</ele>
        <time>2021-09-04T17:39:30Z</time>
      </trkpt>
      <trkpt lat="45.64785" lon="4.61338">
        <ele>516.7</ele>
        <time>2021-09-04T17:39:32Z</time>
      </trkpt>
      <trkpt lat="45.64781" lon="4.61343">
        <ele>516.7</ele>
        <time>2021-09-04T17:39:34Z</time>
      </trkpt>
      <trkpt lat="45.6478" lon="4.61344">
        <ele>516.7</ele>
        <time>2021-09-04T17:39:35Z</time>
      </trkpt>
      <trkpt lat="45.64777" lon="4.61346">
        <ele>516.8</ele>
        <time>2021-09-04T17:39:37Z</time>
      </trkpt>
      <trkpt lat="45.64776" lon="4.61345">
        <ele>516.8</ele>
        <time>2021-09-04T17:39:38Z</time>
      </trkpt>
      <trkpt lat="45.64774" lon="4.61344">
        <ele>516.9</ele>
        <time>2021-09-04T17:39:39Z</time>
      </trkpt>
      <trkpt lat="45.6477" lon="4.61342">
        <ele>517.1</ele>
        <time>2021-09-04T17:39:41Z</time>
      </trkpt>
      <trkpt lat="45.64769" lon="4.61342">
        <ele>517.1</ele>
        <time>2021-09-04T17:39:42Z</time>
      </trkpt>
      <trkpt lat="45.64766" lon="4.61345">
        <ele>517.4</ele>
        <time>2021-09-04T17:39:44Z</time>
      </trkpt>
      <trkpt lat="45.64765" lon="4.61346">
        <ele>517.5</ele>
        <time>2021-09-04T17:39:45Z</time>
      </trkpt>
      <trkpt lat="45.64762" lon="4.61348">
        <ele>517.9</ele>
        <time>2021-09-04T17:39:47Z</time>
      </trkpt>
      <trkpt lat="45.64761" lon="4.61348">
        <ele>518</ele>
        <time>2021-09-04T17:39:48Z</time>
      </trkpt>
      <trkpt lat="45.6476" lon="4.61348">
        <ele>518.2</ele>
        <time>2021-09-04T17:39:49Z</time>
      </trkpt>
      <trkpt lat="45.64757" lon="4.61349">
        <ele>518.5</ele>
        <time>2021-09-04T17:39:51Z</time>
      </trkpt>
      <trkpt lat="45.64756" lon="4.6135">
        <ele>518.7</ele>
        <time>2021-09-04T17:39:52Z</time>
      </trkpt>
      <trkpt lat="45.64754" lon="4.6135">
        <ele>518.9</ele>
        <time>2021-09-04T17:39:53Z</time>
      </trkpt>
      <trkpt lat="45.64753" lon="4.61351">
        <ele>519.2</ele>
        <time>2021-09-04T17:39:54Z</time>
      </trkpt>
      <trkpt lat="45.6475" lon="4.61351">
        <ele>519.6</ele>
        <time>2021-09-04T17:39:56Z</time>
      </trkpt>
      <trkpt lat="45.64749" lon="4.61352">
        <ele>519.9</ele>
        <time>2021-09-04T17:39:57Z</time>
      </trkpt>
      <trkpt lat="45.64747" lon="4.61353">
        <ele>520.2</ele>
        <time>2021-09-04T17:39:58Z</time>
      </trkpt>
      <trkpt lat="45.64745" lon="4.61353">
        <ele>520.4</ele>
        <time>2021-09-04T17:40:00Z</time>
      </trkpt>
      <trkpt lat="45.64744" lon="4.61354">
        <ele>520.8</ele>
        <time>2021-09-04T17:40:01Z</time>
      </trkpt>
      <trkpt lat="45.64741" lon="4.61354">
        <ele>521.2</ele>
        <time>2021-09-04T17:40:02Z</time>
      </trkpt>
      <trkpt lat="45.6474" lon="4.61354">
        <ele>521.4</ele>
        <time>2021-09-04T17:40:04Z</time>
      </trkpt>
      <trkpt lat="45.64739" lon="4.61355">
        <ele>521.6</ele>
        <time>2021-09-04T17:40:05Z</time>
      </trkpt>
      <trkpt lat="45.64737" lon="4.61355">
        <ele>521.9</ele>
        <time>2021-09-04T17:40:06Z</time>
      </trkpt>
      <trkpt lat="45.64736" lon="4.61356">
        <ele>522.2</ele>
        <time>2021-09-04T17:40:07Z</time>
      </trkpt>
      <trkpt lat="45.64735" lon="4.61357">
        <ele>522.5</ele>
        <time>2021-09-04T17:40:08Z</time>
      </trkpt>
      <trkpt lat="45.64733" lon="4.6136">
        <ele>522.9</ele>
        <time>2021-09-04T17:40:10Z</time>
      </trkpt>
      <trkpt lat="45.64731" lon="4.6136">
        <ele>523.3</ele>
        <time>2021-09-04T17:40:11Z</time>
      </trkpt>
      <trkpt lat="45.64729" lon="4.6136">
        <ele>523.6</ele>
        <time>2021-09-04T17:40:12Z</time>
      </trkpt>
      <trkpt lat="45.64726" lon="4.61361">
        <ele>524.3</ele>
        <time>2021-09-04T17:40:14Z</time>
      </trkpt>
      <trkpt lat="45.64726" lon="4.61362">
        <ele>524.4</ele>
        <time>2021-09-04T17:40:15Z</time>
      </trkpt>
      <trkpt lat="45.64724" lon="4.61364">
        <ele>524.8</ele>
        <time>2021-09-04T17:40:16Z</time>
      </trkpt>
      <trkpt lat="45.64722" lon="4.61365">
        <ele>525.2</ele>
        <time>2021-09-04T17:40:18Z</time>
      </trkpt>
      <trkpt lat="45.6472" lon="4.61368">
        <ele>525.8</ele>
        <time>2021-09-04T17:40:20Z</time>
      </trkpt>
      <trkpt lat="45.6472" lon="4.61369">
        <ele>526</ele>
        <time>2021-09-04T17:40:21Z</time>
      </trkpt>
      <trkpt lat="45.64719" lon="4.61371">
        <ele>526.2</ele>
        <time>2021-09-04T17:40:22Z</time>
      </trkpt>
      <trkpt lat="45.64718" lon="4.61373">
        <ele>526.6</ele>
        <time>2021-09-04T17:40:24Z</time>
      </trkpt>
      <trkpt lat="45.64716" lon="4.61375">
        <ele>527.1</ele>
        <time>2021-09-04T17:40:25Z</time>
      </trkpt>
      <trkpt lat="45.64715" lon="4.61378">
        <ele>527.6</ele>
        <time>2021-09-04T17:40:27Z</time>
      </trkpt>
      <trkpt lat="45.64713" lon="4.6138">
        <ele>528</ele>
        <time>2021-09-04T17:40:28Z</time>
      </trkpt>
      <trkpt lat="45.64711" lon="4.61383">
        <ele>528.5</ele>
        <time>2021-09-04T17:40:30Z</time>
      </trkpt>
      <trkpt lat="45.6471" lon="4.61384">
        <ele>528.8</ele>
        <time>2021-09-04T17:40:31Z</time>
      </trkpt>
      <trkpt lat="45.64708" lon="4.61385">
        <ele>529.1</ele>
        <time>2021-09-04T17:40:32Z</time>
      </trkpt>
      <trkpt lat="45.64705" lon="4.61385">
        <ele>529.7</ele>
        <time>2021-09-04T17:40:34Z</time>
      </trkpt>
      <trkpt lat="45.64704" lon="4.61386">
        <ele>529.8</ele>
        <time>2021-09-04T17:40:35Z</time>
      </trkpt>
      <trkpt lat="45.64703" lon="4.61387">
        <ele>530.1</ele>
        <time>2021-09-04T17:40:36Z</time>
      </trkpt>
      <trkpt lat="45.64702" lon="4.61388">
        <ele>530.4</ele>
        <time>2021-09-04T17:40:37Z</time>
      </trkpt>
      <trkpt lat="45.64699" lon="4.61391">
        <ele>530.9</ele>
        <time>2021-09-04T17:40:39Z</time>
      </trkpt>
      <trkpt lat="45.64698" lon="4.61391">
        <ele>531</ele>
        <time>2021-09-04T17:40:40Z</time>
      </trkpt>
      <trkpt lat="45.64697" lon="4.61392">
        <ele>531.3</ele>
        <time>2021-09-04T17:40:41Z</time>
      </trkpt>
      <trkpt lat="45.64695" lon="4.61393">
        <ele>531.5</ele>
        <time>2021-09-04T17:40:42Z</time>
      </trkpt>
      <trkpt lat="45.64693" lon="4.61396">
        <ele>532</ele>
        <time>2021-09-04T17:40:44Z</time>
      </trkpt>
      <trkpt lat="45.64692" lon="4.61397">
        <ele>532.3</ele>
        <time>2021-09-04T17:40:45Z</time>
      </trkpt>
      <trkpt lat="45.6469" lon="4.61401">
        <ele>532.7</ele>
        <time>2021-09-04T17:40:47Z</time>
      </trkpt>
      <trkpt lat="45.6469" lon="4.61402">
        <ele>532.9</ele>
        <time>2021-09-04T17:40:48Z</time>
      </trkpt>
      <trkpt lat="45.64689" lon="4.61404">
        <ele>533.1</ele>
        <time>2021-09-04T17:40:49Z</time>
      </trkpt>
      <trkpt lat="45.64686" lon="4.61404">
        <ele>533.6</ele>
        <time>2021-09-04T17:40:50Z</time>
      </trkpt>
      <trkpt lat="45.64684" lon="4.61404">
        <ele>533.8</ele>
        <time>2021-09-04T17:40:52Z</time>
      </trkpt>
      <trkpt lat="45.64683" lon="4.61404">
        <ele>533.9</ele>
        <time>2021-09-04T17:40:53Z</time>
      </trkpt>
      <trkpt lat="45.64681" lon="4.61404">
        <ele>534.1</ele>
        <time>2021-09-04T17:40:54Z</time>
      </trkpt>
      <trkpt lat="45.64677" lon="4.61403">
        <ele>534.6</ele>
        <time>2021-09-04T17:40:56Z</time>
      </trkpt>
      <trkpt lat="45.64675" lon="4.61402">
        <ele>534.7</ele>
        <time>2021-09-04T17:40:57Z</time>
      </trkpt>
      <trkpt lat="45.64674" lon="4.61402">
        <ele>534.8</ele>
        <time>2021-09-04T17:40:58Z</time>
      </trkpt>
      <trkpt lat="45.64668" lon="4.61398">
        <ele>535.1</ele>
        <time>2021-09-04T17:41:00Z</time>
      </trkpt>
      <trkpt lat="45.64664" lon="4.61397">
        <ele>535.1</ele>
        <time>2021-09-04T17:41:01Z</time>
      </trkpt>
      <trkpt lat="45.6466" lon="4.61399">
        <ele>535.1</ele>
        <time>2021-09-04T17:41:03Z</time>
      </trkpt>
      <trkpt lat="45.64655" lon="4.61398">
        <ele>535.1</ele>
        <time>2021-09-04T17:41:04Z</time>
      </trkpt>
      <trkpt lat="45.64646" lon="4.61395">
        <ele>535</ele>
        <time>2021-09-04T17:41:06Z</time>
      </trkpt>
      <trkpt lat="45.6464" lon="4.61394">
        <ele>534.9</ele>
        <time>2021-09-04T17:41:07Z</time>
      </trkpt>
      <trkpt lat="45.64636" lon="4.61396">
        <ele>534.9</ele>
        <time>2021-09-04T17:41:08Z</time>
      </trkpt>
      <trkpt lat="45.64629" lon="4.61397">
        <ele>534.9</ele>
        <time>2021-09-04T17:41:10Z</time>
      </trkpt>
      <trkpt lat="45.64623" lon="4.61398">
        <ele>535</ele>
        <time>2021-09-04T17:41:12Z</time>
      </trkpt>
      <trkpt lat="45.64619" lon="4.61399">
        <ele>535.1</ele>
        <time>2021-09-04T17:41:13Z</time>
      </trkpt>
      <trkpt lat="45.64616" lon="4.614">
        <ele>535.2</ele>
        <time>2021-09-04T17:41:14Z</time>
      </trkpt>
      <trkpt lat="45.6461" lon="4.61402">
        <ele>535.3</ele>
        <time>2021-09-04T17:41:16Z</time>
      </trkpt>
      <trkpt lat="45.64605" lon="4.61402">
        <ele>535.5</ele>
        <time>2021-09-04T17:41:18Z</time>
      </trkpt>
      <trkpt lat="45.64601" lon="4.61402">
        <ele>535.6</ele>
        <time>2021-09-04T17:41:19Z</time>
      </trkpt>
      <trkpt lat="45.64599" lon="4.61402">
        <ele>535.7</ele>
        <time>2021-09-04T17:41:20Z</time>
      </trkpt>
      <trkpt lat="45.64594" lon="4.61402">
        <ele>535.9</ele>
        <time>2021-09-04T17:41:22Z</time>
      </trkpt>
      <trkpt lat="45.64589" lon="4.61402">
        <ele>536</ele>
        <time>2021-09-04T17:41:24Z</time>
      </trkpt>
      <trkpt lat="45.64588" lon="4.61402">
        <ele>536.1</ele>
        <time>2021-09-04T17:41:25Z</time>
      </trkpt>
      <trkpt lat="45.64586" lon="4.61403">
        <ele>536.2</ele>
        <time>2021-09-04T17:41:26Z</time>
      </trkpt>
      <trkpt lat="45.64583" lon="4.61404">
        <ele>536.3</ele>
        <time>2021-09-04T17:41:27Z</time>
      </trkpt>
      <trkpt lat="45.6458" lon="4.61405">
        <ele>536.4</ele>
        <time>2021-09-04T17:41:28Z</time>
      </trkpt>
      <trkpt lat="45.64575" lon="4.61407">
        <ele>536.7</ele>
        <time>2021-09-04T17:41:30Z</time>
      </trkpt>
      <trkpt lat="45.64573" lon="4.61408">
        <ele>536.8</ele>
        <time>2021-09-04T17:41:31Z</time>
      </trkpt>
      <trkpt lat="45.64571" lon="4.61408">
        <ele>536.9</ele>
        <time>2021-09-04T17:41:32Z</time>
      </trkpt>
      <trkpt lat="45.64568" lon="4.61411">
        <ele>537.1</ele>
        <time>2021-09-04T17:41:33Z</time>
      </trkpt>
      <trkpt lat="45.64567" lon="4.61412">
        <ele>537.2</ele>
        <time>2021-09-04T17:41:34Z</time>
      </trkpt>
      <trkpt lat="45.64565" lon="4.61415">
        <ele>537.4</ele>
        <time>2021-09-04T17:41:36Z</time>
      </trkpt>
      <trkpt lat="45.64562" lon="4.61417">
        <ele>537.5</ele>
        <time>2021-09-04T17:41:37Z</time>
      </trkpt>
      <trkpt lat="45.6456" lon="4.61418">
        <ele>537.7</ele>
        <time>2021-09-04T17:41:38Z</time>
      </trkpt>
      <trkpt lat="45.64557" lon="4.61418">
        <ele>537.9</ele>
        <time>2021-09-04T17:41:40Z</time>
      </trkpt>
      <trkpt lat="45.64554" lon="4.61419">
        <ele>538.1</ele>
        <time>2021-09-04T17:41:41Z</time>
      </trkpt>
      <trkpt lat="45.6455" lon="4.61419">
        <ele>538.5</ele>
        <time>2021-09-04T17:41:43Z</time>
      </trkpt>
      <trkpt lat="45.64547" lon="4.61417">
        <ele>538.7</ele>
        <time>2021-09-04T17:41:44Z</time>
      </trkpt>
      <trkpt lat="45.64543" lon="4.61414">
        <ele>539.1</ele>
        <time>2021-09-04T17:41:46Z</time>
      </trkpt>
      <trkpt lat="45.64539" lon="4.61412">
        <ele>539.5</ele>
        <time>2021-09-04T17:41:48Z</time>
      </trkpt>
      <trkpt lat="45.64535" lon="4.61409">
        <ele>539.9</ele>
        <time>2021-09-04T17:41:50Z</time>
      </trkpt>
      <trkpt lat="45.64532" lon="4.61408">
        <ele>540.2</ele>
        <time>2021-09-04T17:41:51Z</time>
      </trkpt>
      <trkpt lat="45.6453" lon="4.61407">
        <ele>540.4</ele>
        <time>2021-09-04T17:41:52Z</time>
      </trkpt>
      <trkpt lat="45.64528" lon="4.61406">
        <ele>540.6</ele>
        <time>2021-09-04T17:41:54Z</time>
      </trkpt>
      <trkpt lat="45.64526" lon="4.61406">
        <ele>540.7</ele>
        <time>2021-09-04T17:41:55Z</time>
      </trkpt>
      <trkpt lat="45.64523" lon="4.61405">
        <ele>541</ele>
        <time>2021-09-04T17:41:57Z</time>
      </trkpt>
      <trkpt lat="45.6452" lon="4.61403">
        <ele>541.3</ele>
        <time>2021-09-04T17:41:59Z</time>
      </trkpt>
      <trkpt lat="45.64518" lon="4.61403">
        <ele>541.5</ele>
        <time>2021-09-04T17:42:00Z</time>
      </trkpt>
      <trkpt lat="45.64515" lon="4.61403">
        <ele>541.8</ele>
        <time>2021-09-04T17:42:02Z</time>
      </trkpt>
      <trkpt lat="45.64511" lon="4.61402">
        <ele>542.1</ele>
        <time>2021-09-04T17:42:04Z</time>
      </trkpt>
      <trkpt lat="45.64508" lon="4.61403">
        <ele>542.3</ele>
        <time>2021-09-04T17:42:05Z</time>
      </trkpt>
      <trkpt lat="45.64507" lon="4.61404">
        <ele>542.5</ele>
        <time>2021-09-04T17:42:06Z</time>
      </trkpt>
      <trkpt lat="45.64503" lon="4.61405">
        <ele>542.7</ele>
        <time>2021-09-04T17:42:08Z</time>
      </trkpt>
      <trkpt lat="45.64501" lon="4.61405">
        <ele>542.9</ele>
        <time>2021-09-04T17:42:09Z</time>
      </trkpt>
      <trkpt lat="45.64499" lon="4.61404">
        <ele>543.1</ele>
        <time>2021-09-04T17:42:11Z</time>
      </trkpt>
      <trkpt lat="45.64497" lon="4.61404">
        <ele>543.3</ele>
        <time>2021-09-04T17:42:12Z</time>
      </trkpt>
      <trkpt lat="45.64495" lon="4.61404">
        <ele>543.4</ele>
        <time>2021-09-04T17:42:13Z</time>
      </trkpt>
      <trkpt lat="45.64493" lon="4.61406">
        <ele>543.6</ele>
        <time>2021-09-04T17:42:15Z</time>
      </trkpt>
      <trkpt lat="45.64491" lon="4.61406">
        <ele>543.7</ele>
        <time>2021-09-04T17:42:16Z</time>
      </trkpt>
      <trkpt lat="45.64489" lon="4.61407">
        <ele>543.9</ele>
        <time>2021-09-04T17:42:18Z</time>
      </trkpt>
      <trkpt lat="45.64486" lon="4.61408">
        <ele>544.1</ele>
        <time>2021-09-04T17:42:19Z</time>
      </trkpt>
      <trkpt lat="45.64485" lon="4.61409">
        <ele>544.2</ele>
        <time>2021-09-04T17:42:20Z</time>
      </trkpt>
      <trkpt lat="45.64483" lon="4.6141">
        <ele>544.4</ele>
        <time>2021-09-04T17:42:21Z</time>
      </trkpt>
      <trkpt lat="45.64482" lon="4.61413">
        <ele>544.6</ele>
        <time>2021-09-04T17:42:23Z</time>
      </trkpt>
      <trkpt lat="45.6448" lon="4.61415">
        <ele>544.8</ele>
        <time>2021-09-04T17:42:24Z</time>
      </trkpt>
      <trkpt lat="45.64478" lon="4.61418">
        <ele>545.1</ele>
        <time>2021-09-04T17:42:26Z</time>
      </trkpt>
      <trkpt lat="45.64475" lon="4.61421">
        <ele>545.4</ele>
        <time>2021-09-04T17:42:28Z</time>
      </trkpt>
      <trkpt lat="45.64474" lon="4.61422">
        <ele>545.5</ele>
        <time>2021-09-04T17:42:29Z</time>
      </trkpt>
      <trkpt lat="45.64472" lon="4.61424">
        <ele>545.8</ele>
        <time>2021-09-04T17:42:30Z</time>
      </trkpt>
      <trkpt lat="45.6447" lon="4.61425">
        <ele>545.9</ele>
        <time>2021-09-04T17:42:31Z</time>
      </trkpt>
      <trkpt lat="45.64468" lon="4.61426">
        <ele>546.2</ele>
        <time>2021-09-04T17:42:33Z</time>
      </trkpt>
      <trkpt lat="45.64465" lon="4.61427">
        <ele>546.5</ele>
        <time>2021-09-04T17:42:34Z</time>
      </trkpt>
      <trkpt lat="45.64464" lon="4.61427">
        <ele>546.6</ele>
        <time>2021-09-04T17:42:35Z</time>
      </trkpt>
      <trkpt lat="45.64463" lon="4.61426">
        <ele>546.8</ele>
        <time>2021-09-04T17:42:36Z</time>
      </trkpt>
      <trkpt lat="45.6446" lon="4.61426">
        <ele>547.1</ele>
        <time>2021-09-04T17:42:38Z</time>
      </trkpt>
      <trkpt lat="45.64457" lon="4.61425">
        <ele>547.5</ele>
        <time>2021-09-04T17:42:40Z</time>
      </trkpt>
      <trkpt lat="45.64456" lon="4.61424">
        <ele>547.6</ele>
        <time>2021-09-04T17:42:41Z</time>
      </trkpt>
      <trkpt lat="45.64454" lon="4.61424">
        <ele>547.8</ele>
        <time>2021-09-04T17:42:42Z</time>
      </trkpt>
      <trkpt lat="45.64452" lon="4.61424">
        <ele>548</ele>
        <time>2021-09-04T17:42:43Z</time>
      </trkpt>
      <trkpt lat="45.6445" lon="4.61425">
        <ele>548.2</ele>
        <time>2021-09-04T17:42:45Z</time>
      </trkpt>
      <trkpt lat="45.64449" lon="4.61426">
        <ele>548.4</ele>
        <time>2021-09-04T17:42:46Z</time>
      </trkpt>
      <trkpt lat="45.64448" lon="4.61426">
        <ele>548.6</ele>
        <time>2021-09-04T17:42:47Z</time>
      </trkpt>
      <trkpt lat="45.64446" lon="4.61426">
        <ele>548.8</ele>
        <time>2021-09-04T17:42:48Z</time>
      </trkpt>
      <trkpt lat="45.64443" lon="4.61426">
        <ele>549.2</ele>
        <time>2021-09-04T17:42:50Z</time>
      </trkpt>
      <trkpt lat="45.64442" lon="4.61426">
        <ele>549.3</ele>
        <time>2021-09-04T17:42:51Z</time>
      </trkpt>
      <trkpt lat="45.64439" lon="4.61425">
        <ele>549.7</ele>
        <time>2021-09-04T17:42:52Z</time>
      </trkpt>
      <trkpt lat="45.64438" lon="4.61424">
        <ele>549.9</ele>
        <time>2021-09-04T17:42:54Z</time>
      </trkpt>
      <trkpt lat="45.64437" lon="4.61423">
        <ele>550.1</ele>
        <time>2021-09-04T17:42:55Z</time>
      </trkpt>
      <trkpt lat="45.64435" lon="4.61423">
        <ele>550.3</ele>
        <time>2021-09-04T17:42:56Z</time>
      </trkpt>
      <trkpt lat="45.64432" lon="4.61421">
        <ele>550.7</ele>
        <time>2021-09-04T17:42:58Z</time>
      </trkpt>
      <trkpt lat="45.6443" lon="4.6142">
        <ele>550.9</ele>
        <time>2021-09-04T17:42:59Z</time>
      </trkpt>
      <trkpt lat="45.64428" lon="4.6142">
        <ele>551.3</ele>
        <time>2021-09-04T17:43:01Z</time>
      </trkpt>
      <trkpt lat="45.64426" lon="4.6142">
        <ele>551.5</ele>
        <time>2021-09-04T17:43:03Z</time>
      </trkpt>
      <trkpt lat="45.64424" lon="4.61419">
        <ele>551.7</ele>
        <time>2021-09-04T17:43:04Z</time>
      </trkpt>
      <trkpt lat="45.64422" lon="4.61419">
        <ele>552</ele>
        <time>2021-09-04T17:43:05Z</time>
      </trkpt>
      <trkpt lat="45.6442" lon="4.61419">
        <ele>552.3</ele>
        <time>2021-09-04T17:43:07Z</time>
      </trkpt>
      <trkpt lat="45.64419" lon="4.61418">
        <ele>552.5</ele>
        <time>2021-09-04T17:43:08Z</time>
      </trkpt>
      <trkpt lat="45.64417" lon="4.61418">
        <ele>552.8</ele>
        <time>2021-09-04T17:43:10Z</time>
      </trkpt>
      <trkpt lat="45.64415" lon="4.61417">
        <ele>553.1</ele>
        <time>2021-09-04T17:43:11Z</time>
      </trkpt>
      <trkpt lat="45.64413" lon="4.61417">
        <ele>553.3</ele>
        <time>2021-09-04T17:43:13Z</time>
      </trkpt>
      <trkpt lat="45.64411" lon="4.61416">
        <ele>553.5</ele>
        <time>2021-09-04T17:43:14Z</time>
      </trkpt>
      <trkpt lat="45.64409" lon="4.61414">
        <ele>553.8</ele>
        <time>2021-09-04T17:43:16Z</time>
      </trkpt>
      <trkpt lat="45.64408" lon="4.61414">
        <ele>554</ele>
        <time>2021-09-04T17:43:17Z</time>
      </trkpt>
      <trkpt lat="45.64407" lon="4.61414">
        <ele>554.2</ele>
        <time>2021-09-04T17:43:18Z</time>
      </trkpt>
      <trkpt lat="45.64405" lon="4.61413">
        <ele>554.5</ele>
        <time>2021-09-04T17:43:20Z</time>
      </trkpt>
      <trkpt lat="45.64404" lon="4.61413">
        <ele>554.6</ele>
        <time>2021-09-04T17:43:21Z</time>
      </trkpt>
      <trkpt lat="45.64403" lon="4.61412">
        <ele>554.7</ele>
        <time>2021-09-04T17:43:22Z</time>
      </trkpt>
      <trkpt lat="45.64403" lon="4.61412">
        <ele>554.8</ele>
        <time>2021-09-04T17:43:23Z</time>
      </trkpt>
      <trkpt lat="45.64403" lon="4.61412">
        <ele>554.8</ele>
        <time>2021-09-04T17:43:24Z</time>
      </trkpt>
      <trkpt lat="45.64404" lon="4.61412">
        <ele>554.9</ele>
        <time>2021-09-04T17:43:26Z</time>
      </trkpt>
      <trkpt lat="45.64404" lon="4.61412">
        <ele>554.9</ele>
        <time>2021-09-04T17:43:27Z</time>
      </trkpt>
      <trkpt lat="45.64405" lon="4.61411">
        <ele>555</ele>
        <time>2021-09-04T17:43:28Z</time>
      </trkpt>
      <trkpt lat="45.64406" lon="4.61411">
        <ele>555.2</ele>
        <time>2021-09-04T17:43:30Z</time>
      </trkpt>
      <trkpt lat="45.64407" lon="4.61413">
        <ele>555.4</ele>
        <time>2021-09-04T17:43:31Z</time>
      </trkpt>
      <trkpt lat="45.64409" lon="4.61416">
        <ele>555.8</ele>
        <time>2021-09-04T17:43:33Z</time>
      </trkpt>
      <trkpt lat="45.64409" lon="4.61418">
        <ele>556</ele>
        <time>2021-09-04T17:43:35Z</time>
      </trkpt>
      <trkpt lat="45.64409" lon="4.6142">
        <ele>556.2</ele>
        <time>2021-09-04T17:43:36Z</time>
      </trkpt>
      <trkpt lat="45.6441" lon="4.61421">
        <ele>556.3</ele>
        <time>2021-09-04T17:43:37Z</time>
      </trkpt>
      <trkpt lat="45.6441" lon="4.61422">
        <ele>556.4</ele>
        <time>2021-09-04T17:43:39Z</time>
      </trkpt>
      <trkpt lat="45.64409" lon="4.61423">
        <ele>556.5</ele>
        <time>2021-09-04T17:43:40Z</time>
      </trkpt>
      <trkpt lat="45.64409" lon="4.61424">
        <ele>556.6</ele>
        <time>2021-09-04T17:43:42Z</time>
      </trkpt>
      <trkpt lat="45.64409" lon="4.61424">
        <ele>556.6</ele>
        <time>2021-09-04T17:43:44Z</time>
      </trkpt>
      <trkpt lat="45.64409" lon="4.61424">
        <ele>556.7</ele>
        <time>2021-09-04T17:43:45Z</time>
      </trkpt>
      <trkpt lat="45.64409" lon="4.61425">
        <ele>556.7</ele>
        <time>2021-09-04T17:43:46Z</time>
      </trkpt>
      <trkpt lat="45.64412" lon="4.61423">
        <ele>557</ele>
        <time>2021-09-04T17:45:41Z</time>
      </trkpt>
      <trkpt lat="45.64412" lon="4.61424">
        <ele>557.1</ele>
        <time>2021-09-04T17:45:42Z</time>
      </trkpt>
      <trkpt lat="45.64412" lon="4.61424">
        <ele>557.1</ele>
        <time>2021-09-04T17:45:44Z</time>
      </trkpt>
      <trkpt lat="45.64412" lon="4.61424">
        <ele>557.1</ele>
        <time>2021-09-04T17:45:46Z</time>
      </trkpt>
      <trkpt lat="45.64412" lon="4.61424">
        <ele>557.1</ele>
        <time>2021-09-04T17:45:48Z</time>
      </trkpt>
      <trkpt lat="45.64413" lon="4.61425">
        <ele>557.2</ele>
        <time>2021-09-04T17:45:50Z</time>
      </trkpt>
      <trkpt lat="45.64413" lon="4.61425">
        <ele>557.3</ele>
        <time>2021-09-04T17:45:51Z</time>
      </trkpt>
      <trkpt lat="45.64413" lon="4.61425">
        <ele>557.3</ele>
        <time>2021-09-04T17:45:53Z</time>
      </trkpt>
      <trkpt lat="45.64413" lon="4.61425">
        <ele>557.3</ele>
        <time>2021-09-04T17:45:54Z</time>
      </trkpt>
      <trkpt lat="45.64413" lon="4.61425">
        <ele>557.3</ele>
        <time>2021-09-04T17:45:56Z</time>
      </trkpt>
      <trkpt lat="45.64413" lon="4.61425">
        <ele>557.3</ele>
        <time>2021-09-04T17:45:58Z</time>
      </trkpt>
      <trkpt lat="45.64413" lon="4.61426">
        <ele>557.3</ele>
        <time>2021-09-04T17:46:00Z</time>
      </trkpt>
      <trkpt lat="45.64413" lon="4.61428">
        <ele>557.5</ele>
        <time>2021-09-04T17:46:03Z</time>
      </trkpt>
      <trkpt lat="45.64413" lon="4.61428">
        <ele>557.5</ele>
        <time>2021-09-04T17:46:05Z</time>
      </trkpt>
      <trkpt lat="45.64413" lon="4.61427">
        <ele>557.6</ele>
        <time>2021-09-04T17:46:06Z</time>
      </trkpt>
      <trkpt lat="45.64413" lon="4.61427">
        <ele>557.6</ele>
        <time>2021-09-04T17:46:08Z</time>
      </trkpt>
      <trkpt lat="45.64413" lon="4.61427">
        <ele>557.6</ele>
        <time>2021-09-04T17:46:10Z</time>
      </trkpt>
      <trkpt lat="45.64413" lon="4.61428">
        <ele>557.7</ele>
        <time>2021-09-04T17:46:12Z</time>
      </trkpt>
      <trkpt lat="45.64413" lon="4.61428">
        <ele>557.7</ele>
        <time>2021-09-04T17:46:13Z</time>
      </trkpt>
      <trkpt lat="45.64413" lon="4.61428">
        <ele>557.7</ele>
        <time>2021-09-04T17:46:15Z</time>
      </trkpt>
      <trkpt lat="45.64413" lon="4.61427">
        <ele>557.7</ele>
        <time>2021-09-04T17:46:16Z</time>
      </trkpt>
      <trkpt lat="45.64413" lon="4.61427">
        <ele>557.7</ele>
        <time>2021-09-04T17:46:17Z</time>
      </trkpt>
      <trkpt lat="45.64413" lon="4.61427">
        <ele>557.7</ele>
        <time>2021-09-04T17:46:18Z</time>
      </trkpt>
      <trkpt lat="45.64413" lon="4.61428">
        <ele>557.8</ele>
        <time>2021-09-04T17:46:20Z</time>
      </trkpt>
      <trkpt lat="45.64413" lon="4.61428">
        <ele>557.8</ele>
        <time>2021-09-04T17:46:21Z</time>
      </trkpt>
      <trkpt lat="45.64413" lon="4.61428">
        <ele>557.8</ele>
        <time>2021-09-04T17:46:22Z</time>
      </trkpt>
      <trkpt lat="45.64413" lon="4.61427">
        <ele>557.8</ele>
        <time>2021-09-04T17:46:24Z</time>
      </trkpt>
      <trkpt lat="45.64413" lon="4.61428">
        <ele>557.8</ele>
        <time>2021-09-04T17:46:26Z</time>
      </trkpt>
      <trkpt lat="45.64413" lon="4.61428">
        <ele>557.8</ele>
        <time>2021-09-04T17:46:28Z</time>
      </trkpt>
      <trkpt lat="45.64413" lon="4.61428">
        <ele>557.8</ele>
        <time>2021-09-04T17:46:30Z</time>
      </trkpt>
      <trkpt lat="45.64413" lon="4.61428">
        <ele>557.9</ele>
        <time>2021-09-04T17:46:31Z</time>
      </trkpt>
      <trkpt lat="45.64413" lon="4.61428">
        <ele>557.9</ele>
        <time>2021-09-04T17:46:32Z</time>
      </trkpt>
      <trkpt lat="45.64413" lon="4.61428">
        <ele>557.9</ele>
        <time>2021-09-04T17:46:33Z</time>
      </trkpt>
      <trkpt lat="45.64413" lon="4.61428">
        <ele>557.9</ele>
        <time>2021-09-04T17:46:35Z</time>
      </trkpt>
      <trkpt lat="45.64413" lon="4.61428">
        <ele>557.9</ele>
        <time>2021-09-04T17:46:36Z</time>
      </trkpt>
      <trkpt lat="45.64413" lon="4.61428">
        <ele>557.9</ele>
        <time>2021-09-04T17:46:37Z</time>
      </trkpt>
      <trkpt lat="45.64413" lon="4.61428">
        <ele>557.9</ele>
        <time>2021-09-04T17:46:38Z</time>
      </trkpt>
      <trkpt lat="45.64413" lon="4.61428">
        <ele>557.9</ele>
        <time>2021-09-04T17:46:40Z</time>
      </trkpt>
      <trkpt lat="45.64413" lon="4.61428">
        <ele>557.9</ele>
        <time>2021-09-04T17:46:42Z</time>
      </trkpt>
      <trkpt lat="45.64413" lon="4.61428">
        <ele>557.9</ele>
        <time>2021-09-04T17:46:44Z</time>
      </trkpt>
      <trkpt lat="45.64413" lon="4.61428">
        <ele>557.9</ele>
        <time>2021-09-04T17:46:46Z</time>
      </trkpt>
      <trkpt lat="45.64413" lon="4.61429">
        <ele>557.9</ele>
        <time>2021-09-04T17:46:47Z</time>
      </trkpt>
      <trkpt lat="45.64413" lon="4.61429">
        <ele>557.9</ele>
        <time>2021-09-04T17:46:49Z</time>
      </trkpt>
      <trkpt lat="45.64413" lon="4.61429">
        <ele>558</ele>
        <time>2021-09-04T17:46:51Z</time>
      </trkpt>
      <trkpt lat="45.64413" lon="4.61429">
        <ele>558</ele>
        <time>2021-09-04T17:46:53Z</time>
      </trkpt>
      <trkpt lat="45.64413" lon="4.61429">
        <ele>558</ele>
        <time>2021-09-04T17:46:54Z</time>
      </trkpt>
      <trkpt lat="45.64414" lon="4.61429">
        <ele>558.1</ele>
        <time>2021-09-04T17:46:56Z</time>
      </trkpt>
      <trkpt lat="45.64413" lon="4.6143">
        <ele>558.2</ele>
        <time>2021-09-04T17:46:58Z</time>
      </trkpt>
      <trkpt lat="45.64412" lon="4.61429">
        <ele>558.2</ele>
        <time>2021-09-04T17:46:59Z</time>
      </trkpt>
      <trkpt lat="45.64413" lon="4.61429">
        <ele>558.2</ele>
        <time>2021-09-04T17:47:00Z</time>
      </trkpt>
      <trkpt lat="45.64413" lon="4.61429">
        <ele>558.2</ele>
        <time>2021-09-04T17:47:01Z</time>
      </trkpt>
      <trkpt lat="45.64413" lon="4.61429">
        <ele>558.3</ele>
        <time>2021-09-04T17:47:02Z</time>
      </trkpt>
      <trkpt lat="45.64413" lon="4.61429">
        <ele>558.3</ele>
        <time>2021-09-04T17:47:03Z</time>
      </trkpt>
      <trkpt lat="45.64413" lon="4.61429">
        <ele>558.3</ele>
        <time>2021-09-04T17:47:04Z</time>
      </trkpt>
      <trkpt lat="45.64413" lon="4.61428">
        <ele>558.4</ele>
        <time>2021-09-04T17:49:55Z</time>
      </trkpt>
      <trkpt lat="45.64413" lon="4.61429">
        <ele>558.5</ele>
        <time>2021-09-04T17:49:57Z</time>
      </trkpt>
      <trkpt lat="45.64413" lon="4.61429">
        <ele>558.5</ele>
        <time>2021-09-04T17:49:58Z</time>
      </trkpt>
      <trkpt lat="45.64412" lon="4.61432">
        <ele>558.7</ele>
        <time>2021-09-04T17:50:00Z</time>
      </trkpt>
      <trkpt lat="45.64412" lon="4.61432">
        <ele>558.8</ele>
        <time>2021-09-04T17:50:01Z</time>
      </trkpt>
      <trkpt lat="45.64411" lon="4.61431">
        <ele>558.8</ele>
        <time>2021-09-04T17:50:02Z</time>
      </trkpt>
      <trkpt lat="45.64411" lon="4.61431">
        <ele>558.9</ele>
        <time>2021-09-04T17:50:04Z</time>
      </trkpt>
      <trkpt lat="45.64411" lon="4.61431">
        <ele>558.9</ele>
        <time>2021-09-04T17:50:06Z</time>
      </trkpt>
      <trkpt lat="45.6441" lon="4.61431">
        <ele>559</ele>
        <time>2021-09-04T17:50:07Z</time>
      </trkpt>
      <trkpt lat="45.6441" lon="4.61431">
        <ele>559</ele>
        <time>2021-09-04T17:50:08Z</time>
      </trkpt>
      <trkpt lat="45.6441" lon="4.61431">
        <ele>559</ele>
        <time>2021-09-04T17:50:10Z</time>
      </trkpt>
      <trkpt lat="45.64412" lon="4.61428">
        <ele>559.2</ele>
        <time>2021-09-04T17:53:45Z</time>
      </trkpt>
      <trkpt lat="45.64412" lon="4.61428">
        <ele>559.3</ele>
        <time>2021-09-04T17:53:46Z</time>
      </trkpt>
      <trkpt lat="45.64412" lon="4.61427">
        <ele>559.3</ele>
        <time>2021-09-04T17:53:47Z</time>
      </trkpt>
      <trkpt lat="45.64411" lon="4.61427">
        <ele>559.3</ele>
        <time>2021-09-04T17:53:49Z</time>
      </trkpt>
      <trkpt lat="45.64411" lon="4.61428">
        <ele>559.3</ele>
        <time>2021-09-04T17:53:51Z</time>
      </trkpt>
      <trkpt lat="45.64412" lon="4.61428">
        <ele>559.3</ele>
        <time>2021-09-04T17:53:52Z</time>
      </trkpt>
      <trkpt lat="45.64412" lon="4.61428">
        <ele>559.3</ele>
        <time>2021-09-04T17:53:53Z</time>
      </trkpt>
      <trkpt lat="45.64412" lon="4.61427">
        <ele>559.4</ele>
        <time>2021-09-04T17:53:55Z</time>
      </trkpt>
      <trkpt lat="45.64411" lon="4.61427">
        <ele>559.4</ele>
        <time>2021-09-04T17:53:57Z</time>
      </trkpt>
      <trkpt lat="45.64411" lon="4.61427">
        <ele>559.4</ele>
        <time>2021-09-04T17:53:58Z</time>
      </trkpt>
      <trkpt lat="45.64411" lon="4.61426">
        <ele>559.5</ele>
        <time>2021-09-04T17:53:59Z</time>
      </trkpt>
      <trkpt lat="45.64411" lon="4.61426">
        <ele>559.5</ele>
        <time>2021-09-04T17:54:01Z</time>
      </trkpt>
      <trkpt lat="45.64411" lon="4.61427">
        <ele>559.5</ele>
        <time>2021-09-04T17:54:02Z</time>
      </trkpt>
      <trkpt lat="45.64411" lon="4.61427">
        <ele>559.5</ele>
        <time>2021-09-04T17:54:04Z</time>
      </trkpt>
      <trkpt lat="45.6441" lon="4.61432">
        <ele>559.9</ele>
        <time>2021-09-04T17:54:29Z</time>
      </trkpt>
      <trkpt lat="45.64409" lon="4.61433">
        <ele>560</ele>
        <time>2021-09-04T17:54:30Z</time>
      </trkpt>
      <trkpt lat="45.64408" lon="4.61433">
        <ele>560.1</ele>
        <time>2021-09-04T17:54:32Z</time>
      </trkpt>
      <trkpt lat="45.64408" lon="4.61432">
        <ele>560.2</ele>
        <time>2021-09-04T17:54:33Z</time>
      </trkpt>
      <trkpt lat="45.64409" lon="4.61432">
        <ele>560.3</ele>
        <time>2021-09-04T17:54:34Z</time>
      </trkpt>
      <trkpt lat="45.6441" lon="4.61432">
        <ele>560.3</ele>
        <time>2021-09-04T17:54:36Z</time>
      </trkpt>
      <trkpt lat="45.6441" lon="4.61432">
        <ele>560.3</ele>
        <time>2021-09-04T17:54:37Z</time>
      </trkpt>
      <trkpt lat="45.64409" lon="4.61432">
        <ele>560.4</ele>
        <time>2021-09-04T17:54:39Z</time>
      </trkpt>
      <trkpt lat="45.64409" lon="4.61432">
        <ele>560.4</ele>
        <time>2021-09-04T17:54:41Z</time>
      </trkpt>
      <trkpt lat="45.64409" lon="4.61432">
        <ele>560.4</ele>
        <time>2021-09-04T17:54:42Z</time>
      </trkpt>
      <trkpt lat="45.64409" lon="4.61432">
        <ele>560.4</ele>
        <time>2021-09-04T17:54:43Z</time>
      </trkpt>
      <trkpt lat="45.64409" lon="4.61432">
        <ele>560.4</ele>
        <time>2021-09-04T17:54:44Z</time>
      </trkpt>
      <trkpt lat="45.64413" lon="4.61431">
        <ele>560.7</ele>
        <time>2021-09-04T17:59:55Z</time>
      </trkpt>
      <trkpt lat="45.64412" lon="4.61432">
        <ele>560.8</ele>
        <time>2021-09-04T17:59:57Z</time>
      </trkpt>
      <trkpt lat="45.64413" lon="4.61432">
        <ele>560.8</ele>
        <time>2021-09-04T17:59:58Z</time>
      </trkpt>
      <trkpt lat="45.64413" lon="4.61432">
        <ele>560.8</ele>
        <time>2021-09-04T17:59:59Z</time>
      </trkpt>
      <trkpt lat="45.64413" lon="4.61432">
        <ele>560.8</ele>
        <time>2021-09-04T18:00:00Z</time>
      </trkpt>
      <trkpt lat="45.64413" lon="4.61432">
        <ele>560.8</ele>
        <time>2021-09-04T18:00:02Z</time>
      </trkpt>
      <trkpt lat="45.64413" lon="4.61432">
        <ele>560.9</ele>
        <time>2021-09-04T18:00:04Z</time>
      </trkpt>
      <trkpt lat="45.64413" lon="4.61432">
        <ele>560.9</ele>
        <time>2021-09-04T18:00:06Z</time>
      </trkpt>
      <trkpt lat="45.64413" lon="4.61432">
        <ele>560.9</ele>
        <time>2021-09-04T18:00:08Z</time>
      </trkpt>
      <trkpt lat="45.64413" lon="4.61427">
        <ele>561.2</ele>
        <time>2021-09-04T18:03:00Z</time>
      </trkpt>
      <trkpt lat="45.64413" lon="4.61426">
        <ele>561.3</ele>
        <time>2021-09-04T18:03:02Z</time>
      </trkpt>
      <trkpt lat="45.64413" lon="4.61423">
        <ele>561.5</ele>
        <time>2021-09-04T18:03:03Z</time>
      </trkpt>
      <trkpt lat="45.6441" lon="4.61421">
        <ele>561.8</ele>
        <time>2021-09-04T18:03:05Z</time>
      </trkpt>
      <trkpt lat="45.64405" lon="4.6142">
        <ele>562.2</ele>
        <time>2021-09-04T18:03:07Z</time>
      </trkpt>
      <trkpt lat="45.64403" lon="4.6142">
        <ele>562.3</ele>
        <time>2021-09-04T18:03:08Z</time>
      </trkpt>
      <trkpt lat="45.64402" lon="4.6142">
        <ele>562.5</ele>
        <time>2021-09-04T18:03:09Z</time>
      </trkpt>
      <trkpt lat="45.64398" lon="4.6142">
        <ele>562.8</ele>
        <time>2021-09-04T18:03:11Z</time>
      </trkpt>
      <trkpt lat="45.64395" lon="4.61419">
        <ele>563.1</ele>
        <time>2021-09-04T18:03:12Z</time>
      </trkpt>
      <trkpt lat="45.64392" lon="4.61418">
        <ele>563.4</ele>
        <time>2021-09-04T18:03:13Z</time>
      </trkpt>
      <trkpt lat="45.64387" lon="4.61418">
        <ele>563.8</ele>
        <time>2021-09-04T18:03:15Z</time>
      </trkpt>
      <trkpt lat="45.64384" lon="4.61418">
        <ele>564.2</ele>
        <time>2021-09-04T18:03:16Z</time>
      </trkpt>
      <trkpt lat="45.64379" lon="4.61418">
        <ele>564.7</ele>
        <time>2021-09-04T18:03:18Z</time>
      </trkpt>
      <trkpt lat="45.64375" lon="4.61419">
        <ele>565.1</ele>
        <time>2021-09-04T18:03:19Z</time>
      </trkpt>
      <trkpt lat="45.64371" lon="4.61418">
        <ele>565.5</ele>
        <time>2021-09-04T18:03:21Z</time>
      </trkpt>
      <trkpt lat="45.64368" lon="4.61419">
        <ele>565.8</ele>
        <time>2021-09-04T18:03:22Z</time>
      </trkpt>
      <trkpt lat="45.64365" lon="4.61419">
        <ele>566.1</ele>
        <time>2021-09-04T18:03:23Z</time>
      </trkpt>
      <trkpt lat="45.6436" lon="4.61418">
        <ele>566.6</ele>
        <time>2021-09-04T18:03:25Z</time>
      </trkpt>
      <trkpt lat="45.64357" lon="4.61417">
        <ele>566.9</ele>
        <time>2021-09-04T18:03:26Z</time>
      </trkpt>
      <trkpt lat="45.64352" lon="4.61416">
        <ele>567.5</ele>
        <time>2021-09-04T18:03:28Z</time>
      </trkpt>
      <trkpt lat="45.6435" lon="4.61415">
        <ele>567.7</ele>
        <time>2021-09-04T18:03:29Z</time>
      </trkpt>
      <trkpt lat="45.64347" lon="4.61415">
        <ele>567.9</ele>
        <time>2021-09-04T18:03:31Z</time>
      </trkpt>
      <trkpt lat="45.64344" lon="4.61414">
        <ele>568.2</ele>
        <time>2021-09-04T18:03:32Z</time>
      </trkpt>
      <trkpt lat="45.6434" lon="4.61411">
        <ele>568.5</ele>
        <time>2021-09-04T18:03:34Z</time>
      </trkpt>
      <trkpt lat="45.64337" lon="4.6141">
        <ele>568.8</ele>
        <time>2021-09-04T18:03:35Z</time>
      </trkpt>
      <trkpt lat="45.64332" lon="4.61409">
        <ele>569.1</ele>
        <time>2021-09-04T18:03:37Z</time>
      </trkpt>
      <trkpt lat="45.64328" lon="4.61408">
        <ele>569.4</ele>
        <time>2021-09-04T18:03:38Z</time>
      </trkpt>
      <trkpt lat="45.64323" lon="4.61407">
        <ele>569.7</ele>
        <time>2021-09-04T18:03:40Z</time>
      </trkpt>
      <trkpt lat="45.64319" lon="4.61406">
        <ele>569.9</ele>
        <time>2021-09-04T18:03:41Z</time>
      </trkpt>
      <trkpt lat="45.64314" lon="4.61403">
        <ele>570.1</ele>
        <time>2021-09-04T18:03:43Z</time>
      </trkpt>
      <trkpt lat="45.6431" lon="4.614">
        <ele>570.4</ele>
        <time>2021-09-04T18:03:45Z</time>
      </trkpt>
      <trkpt lat="45.64306" lon="4.61396">
        <ele>570.6</ele>
        <time>2021-09-04T18:03:46Z</time>
      </trkpt>
      <trkpt lat="45.64303" lon="4.61395">
        <ele>570.7</ele>
        <time>2021-09-04T18:03:47Z</time>
      </trkpt>
      <trkpt lat="45.64297" lon="4.61393">
        <ele>570.9</ele>
        <time>2021-09-04T18:03:49Z</time>
      </trkpt>
      <trkpt lat="45.64294" lon="4.61392">
        <ele>571.1</ele>
        <time>2021-09-04T18:03:50Z</time>
      </trkpt>
      <trkpt lat="45.64288" lon="4.61387">
        <ele>571.3</ele>
        <time>2021-09-04T18:03:52Z</time>
      </trkpt>
      <trkpt lat="45.64284" lon="4.61384">
        <ele>571.5</ele>
        <time>2021-09-04T18:03:53Z</time>
      </trkpt>
      <trkpt lat="45.6428" lon="4.6138">
        <ele>571.7</ele>
        <time>2021-09-04T18:03:55Z</time>
      </trkpt>
      <trkpt lat="45.64275" lon="4.61375">
        <ele>572</ele>
        <time>2021-09-04T18:03:56Z</time>
      </trkpt>
      <trkpt lat="45.64272" lon="4.61372">
        <ele>572.2</ele>
        <time>2021-09-04T18:03:57Z</time>
      </trkpt>
      <trkpt lat="45.64267" lon="4.6137">
        <ele>572.5</ele>
        <time>2021-09-04T18:03:59Z</time>
      </trkpt>
      <trkpt lat="45.64261" lon="4.61368">
        <ele>572.8</ele>
        <time>2021-09-04T18:04:00Z</time>
      </trkpt>
      <trkpt lat="45.64254" lon="4.61366">
        <ele>573.3</ele>
        <time>2021-09-04T18:04:02Z</time>
      </trkpt>
      <trkpt lat="45.6425" lon="4.61367">
        <ele>573.6</ele>
        <time>2021-09-04T18:04:04Z</time>
      </trkpt>
      <trkpt lat="45.64246" lon="4.61373">
        <ele>575.1</ele>
        <time>2021-09-04T18:04:05Z</time>
      </trkpt>
      <trkpt lat="45.64248" lon="4.61382">
        <ele>576</ele>
        <time>2021-09-04T18:04:06Z</time>
      </trkpt>
      <trkpt lat="45.64252" lon="4.61389">
        <ele>577</ele>
        <time>2021-09-04T18:04:08Z</time>
      </trkpt>
      <trkpt lat="45.64255" lon="4.6139">
        <ele>577.5</ele>
        <time>2021-09-04T18:04:10Z</time>
      </trkpt>
      <trkpt lat="45.64256" lon="4.61392">
        <ele>577.9</ele>
        <time>2021-09-04T18:04:11Z</time>
      </trkpt>
      <trkpt lat="45.64258" lon="4.61394">
        <ele>578.4</ele>
        <time>2021-09-04T18:04:13Z</time>
      </trkpt>
      <trkpt lat="45.64259" lon="4.61396">
        <ele>578.7</ele>
        <time>2021-09-04T18:04:14Z</time>
      </trkpt>
      <trkpt lat="45.6426" lon="4.61397">
        <ele>578.9</ele>
        <time>2021-09-04T18:04:15Z</time>
      </trkpt>
      <trkpt lat="45.6426" lon="4.61401">
        <ele>579.4</ele>
        <time>2021-09-04T18:04:17Z</time>
      </trkpt>
      <trkpt lat="45.64261" lon="4.61404">
        <ele>579.9</ele>
        <time>2021-09-04T18:04:19Z</time>
      </trkpt>
      <trkpt lat="45.64261" lon="4.61405">
        <ele>580.2</ele>
        <time>2021-09-04T18:04:20Z</time>
      </trkpt>
      <trkpt lat="45.64262" lon="4.61407">
        <ele>580.5</ele>
        <time>2021-09-04T18:04:21Z</time>
      </trkpt>
      <trkpt lat="45.64263" lon="4.61408">
        <ele>580.8</ele>
        <time>2021-09-04T18:04:22Z</time>
      </trkpt>
      <trkpt lat="45.64264" lon="4.6141">
        <ele>581.2</ele>
        <time>2021-09-04T18:04:24Z</time>
      </trkpt>
      <trkpt lat="45.64264" lon="4.61412">
        <ele>581.5</ele>
        <time>2021-09-04T18:04:25Z</time>
      </trkpt>
      <trkpt lat="45.64266" lon="4.61413">
        <ele>581.9</ele>
        <time>2021-09-04T18:04:26Z</time>
      </trkpt>
      <trkpt lat="45.64267" lon="4.61414">
        <ele>582.4</ele>
        <time>2021-09-04T18:04:27Z</time>
      </trkpt>
      <trkpt lat="45.64269" lon="4.61416">
        <ele>582.8</ele>
        <time>2021-09-04T18:04:28Z</time>
      </trkpt>
      <trkpt lat="45.64269" lon="4.61417">
        <ele>583</ele>
        <time>2021-09-04T18:04:29Z</time>
      </trkpt>
      <trkpt lat="45.64271" lon="4.6142">
        <ele>583.8</ele>
        <time>2021-09-04T18:04:31Z</time>
      </trkpt>
      <trkpt lat="45.64273" lon="4.61421">
        <ele>584.2</ele>
        <time>2021-09-04T18:04:32Z</time>
      </trkpt>
      <trkpt lat="45.64274" lon="4.61422">
        <ele>584.5</ele>
        <time>2021-09-04T18:04:33Z</time>
      </trkpt>
      <trkpt lat="45.64275" lon="4.61424">
        <ele>585</ele>
        <time>2021-09-04T18:04:35Z</time>
      </trkpt>
      <trkpt lat="45.64276" lon="4.61426">
        <ele>585.4</ele>
        <time>2021-09-04T18:04:36Z</time>
      </trkpt>
      <trkpt lat="45.64277" lon="4.6143">
        <ele>586.1</ele>
        <time>2021-09-04T18:04:37Z</time>
      </trkpt>
      <trkpt lat="45.64277" lon="4.61431">
        <ele>586.3</ele>
        <time>2021-09-04T18:04:38Z</time>
      </trkpt>
      <trkpt lat="45.64278" lon="4.61435">
        <ele>587</ele>
        <time>2021-09-04T18:04:39Z</time>
      </trkpt>
      <trkpt lat="45.64278" lon="4.61437">
        <ele>587.4</ele>
        <time>2021-09-04T18:04:41Z</time>
      </trkpt>
      <trkpt lat="45.64278" lon="4.61438">
        <ele>587.7</ele>
        <time>2021-09-04T18:04:42Z</time>
      </trkpt>
      <trkpt lat="45.64278" lon="4.6144">
        <ele>588</ele>
        <time>2021-09-04T18:04:44Z</time>
      </trkpt>
      <trkpt lat="45.64278" lon="4.61442">
        <ele>588.4</ele>
        <time>2021-09-04T18:04:45Z</time>
      </trkpt>
      <trkpt lat="45.64279" lon="4.61444">
        <ele>588.7</ele>
        <time>2021-09-04T18:04:46Z</time>
      </trkpt>
      <trkpt lat="45.64279" lon="4.61446">
        <ele>589</ele>
        <time>2021-09-04T18:04:48Z</time>
      </trkpt>
      <trkpt lat="45.6428" lon="4.61447">
        <ele>589.3</ele>
        <time>2021-09-04T18:04:49Z</time>
      </trkpt>
      <trkpt lat="45.6428" lon="4.61449">
        <ele>589.7</ele>
        <time>2021-09-04T18:04:50Z</time>
      </trkpt>
      <trkpt lat="45.64282" lon="4.6145">
        <ele>590.2</ele>
        <time>2021-09-04T18:04:52Z</time>
      </trkpt>
      <trkpt lat="45.64283" lon="4.6145">
        <ele>590.5</ele>
        <time>2021-09-04T18:04:53Z</time>
      </trkpt>
      <trkpt lat="45.64284" lon="4.61451">
        <ele>590.7</ele>
        <time>2021-09-04T18:04:54Z</time>
      </trkpt>
      <trkpt lat="45.64285" lon="4.61452">
        <ele>591.1</ele>
        <time>2021-09-04T18:04:56Z</time>
      </trkpt>
      <trkpt lat="45.64285" lon="4.61453">
        <ele>591.3</ele>
        <time>2021-09-04T18:04:57Z</time>
      </trkpt>
      <trkpt lat="45.64285" lon="4.61455">
        <ele>591.6</ele>
        <time>2021-09-04T18:04:59Z</time>
      </trkpt>
      <trkpt lat="45.64286" lon="4.61456">
        <ele>591.9</ele>
        <time>2021-09-04T18:05:00Z</time>
      </trkpt>
      <trkpt lat="45.64286" lon="4.61458">
        <ele>592.1</ele>
        <time>2021-09-04T18:05:01Z</time>
      </trkpt>
      <trkpt lat="45.64286" lon="4.61459">
        <ele>592.4</ele>
        <time>2021-09-04T18:05:02Z</time>
      </trkpt>
      <trkpt lat="45.64286" lon="4.61462">
        <ele>592.9</ele>
        <time>2021-09-04T18:05:04Z</time>
      </trkpt>
      <trkpt lat="45.64286" lon="4.61464">
        <ele>593.2</ele>
        <time>2021-09-04T18:05:05Z</time>
      </trkpt>
      <trkpt lat="45.64286" lon="4.61465">
        <ele>593.5</ele>
        <time>2021-09-04T18:05:06Z</time>
      </trkpt>
      <trkpt lat="45.64286" lon="4.61467">
        <ele>593.8</ele>
        <time>2021-09-04T18:05:08Z</time>
      </trkpt>
      <trkpt lat="45.64287" lon="4.6147">
        <ele>594.3</ele>
        <time>2021-09-04T18:05:09Z</time>
      </trkpt>
      <trkpt lat="45.64288" lon="4.61471">
        <ele>594.6</ele>
        <time>2021-09-04T18:05:11Z</time>
      </trkpt>
      <trkpt lat="45.64289" lon="4.61472">
        <ele>595</ele>
        <time>2021-09-04T18:05:12Z</time>
      </trkpt>
      <trkpt lat="45.6429" lon="4.61474">
        <ele>595.4</ele>
        <time>2021-09-04T18:05:14Z</time>
      </trkpt>
      <trkpt lat="45.6429" lon="4.61477">
        <ele>595.9</ele>
        <time>2021-09-04T18:05:15Z</time>
      </trkpt>
      <trkpt lat="45.6429" lon="4.61479">
        <ele>596.3</ele>
        <time>2021-09-04T18:05:17Z</time>
      </trkpt>
      <trkpt lat="45.6429" lon="4.61481">
        <ele>596.6</ele>
        <time>2021-09-04T18:05:18Z</time>
      </trkpt>
      <trkpt lat="45.64291" lon="4.61483">
        <ele>596.9</ele>
        <time>2021-09-04T18:05:19Z</time>
      </trkpt>
      <trkpt lat="45.64291" lon="4.61484">
        <ele>597.1</ele>
        <time>2021-09-04T18:05:20Z</time>
      </trkpt>
      <trkpt lat="45.64293" lon="4.61486">
        <ele>597.7</ele>
        <time>2021-09-04T18:05:22Z</time>
      </trkpt>
      <trkpt lat="45.64294" lon="4.61488">
        <ele>598.1</ele>
        <time>2021-09-04T18:05:24Z</time>
      </trkpt>
      <trkpt lat="45.64294" lon="4.6149">
        <ele>598.3</ele>
        <time>2021-09-04T18:05:25Z</time>
      </trkpt>
      <trkpt lat="45.64294" lon="4.61491">
        <ele>598.5</ele>
        <time>2021-09-04T18:05:26Z</time>
      </trkpt>
      <trkpt lat="45.64294" lon="4.61493">
        <ele>598.9</ele>
        <time>2021-09-04T18:05:28Z</time>
      </trkpt>
      <trkpt lat="45.64295" lon="4.61494">
        <ele>599.1</ele>
        <time>2021-09-04T18:05:29Z</time>
      </trkpt>
      <trkpt lat="45.64296" lon="4.61496">
        <ele>599.4</ele>
        <time>2021-09-04T18:05:31Z</time>
      </trkpt>
      <trkpt lat="45.64296" lon="4.61497">
        <ele>599.7</ele>
        <time>2021-09-04T18:05:32Z</time>
      </trkpt>
      <trkpt lat="45.64298" lon="4.61499">
        <ele>600.3</ele>
        <time>2021-09-04T18:05:33Z</time>
      </trkpt>
      <trkpt lat="45.64299" lon="4.615">
        <ele>600.5</ele>
        <time>2021-09-04T18:05:34Z</time>
      </trkpt>
      <trkpt lat="45.64299" lon="4.61501">
        <ele>600.6</ele>
        <time>2021-09-04T18:05:35Z</time>
      </trkpt>
      <trkpt lat="45.64301" lon="4.61502">
        <ele>601</ele>
        <time>2021-09-04T18:05:37Z</time>
      </trkpt>
      <trkpt lat="45.64302" lon="4.61503">
        <ele>601.3</ele>
        <time>2021-09-04T18:05:38Z</time>
      </trkpt>
      <trkpt lat="45.64303" lon="4.61504">
        <ele>601.5</ele>
        <time>2021-09-04T18:05:39Z</time>
      </trkpt>
      <trkpt lat="45.64304" lon="4.61505">
        <ele>601.9</ele>
        <time>2021-09-04T18:05:41Z</time>
      </trkpt>
      <trkpt lat="45.64305" lon="4.61507">
        <ele>602.2</ele>
        <time>2021-09-04T18:05:42Z</time>
      </trkpt>
      <trkpt lat="45.64307" lon="4.61508">
        <ele>602.7</ele>
        <time>2021-09-04T18:05:44Z</time>
      </trkpt>
      <trkpt lat="45.64307" lon="4.61509">
        <ele>602.8</ele>
        <time>2021-09-04T18:05:45Z</time>
      </trkpt>
      <trkpt lat="45.64308" lon="4.6151">
        <ele>603</ele>
        <time>2021-09-04T18:05:46Z</time>
      </trkpt>
      <trkpt lat="45.64309" lon="4.61511">
        <ele>603.3</ele>
        <time>2021-09-04T18:05:47Z</time>
      </trkpt>
      <trkpt lat="45.6431" lon="4.61513">
        <ele>603.7</ele>
        <time>2021-09-04T18:05:49Z</time>
      </trkpt>
      <trkpt lat="45.64311" lon="4.61513">
        <ele>603.9</ele>
        <time>2021-09-04T18:05:50Z</time>
      </trkpt>
      <trkpt lat="45.64312" lon="4.61514">
        <ele>604.1</ele>
        <time>2021-09-04T18:05:51Z</time>
      </trkpt>
      <trkpt lat="45.64313" lon="4.61515">
        <ele>604.3</ele>
        <time>2021-09-04T18:05:52Z</time>
      </trkpt>
      <trkpt lat="45.64314" lon="4.61517">
        <ele>604.6</ele>
        <time>2021-09-04T18:05:54Z</time>
      </trkpt>
      <trkpt lat="45.64315" lon="4.61518">
        <ele>604.9</ele>
        <time>2021-09-04T18:05:55Z</time>
      </trkpt>
      <trkpt lat="45.64316" lon="4.61519">
        <ele>605.1</ele>
        <time>2021-09-04T18:05:56Z</time>
      </trkpt>
      <trkpt lat="45.64317" lon="4.61519">
        <ele>605.4</ele>
        <time>2021-09-04T18:05:57Z</time>
      </trkpt>
      <trkpt lat="45.64318" lon="4.6152">
        <ele>605.6</ele>
        <time>2021-09-04T18:05:58Z</time>
      </trkpt>
      <trkpt lat="45.6432" lon="4.61521">
        <ele>606</ele>
        <time>2021-09-04T18:06:00Z</time>
      </trkpt>
      <trkpt lat="45.6432" lon="4.61522">
        <ele>606.2</ele>
        <time>2021-09-04T18:06:01Z</time>
      </trkpt>
      <trkpt lat="45.64321" lon="4.61524">
        <ele>606.5</ele>
        <time>2021-09-04T18:06:02Z</time>
      </trkpt>
      <trkpt lat="45.64322" lon="4.61526">
        <ele>606.9</ele>
        <time>2021-09-04T18:06:04Z</time>
      </trkpt>
      <trkpt lat="45.64323" lon="4.61527">
        <ele>607.1</ele>
        <time>2021-09-04T18:06:05Z</time>
      </trkpt>
      <trkpt lat="45.64324" lon="4.61528">
        <ele>607.3</ele>
        <time>2021-09-04T18:06:06Z</time>
      </trkpt>
      <trkpt lat="45.64325" lon="4.61529">
        <ele>607.5</ele>
        <time>2021-09-04T18:06:08Z</time>
      </trkpt>
      <trkpt lat="45.64325" lon="4.61531">
        <ele>607.7</ele>
        <time>2021-09-04T18:06:09Z</time>
      </trkpt>
      <trkpt lat="45.64326" lon="4.61532">
        <ele>607.9</ele>
        <time>2021-09-04T18:06:10Z</time>
      </trkpt>
      <trkpt lat="45.64327" lon="4.61533">
        <ele>608.1</ele>
        <time>2021-09-04T18:06:11Z</time>
      </trkpt>
      <trkpt lat="45.64327" lon="4.61534">
        <ele>608.3</ele>
        <time>2021-09-04T18:06:12Z</time>
      </trkpt>
      <trkpt lat="45.64328" lon="4.61535">
        <ele>608.5</ele>
        <time>2021-09-04T18:06:14Z</time>
      </trkpt>
      <trkpt lat="45.64328" lon="4.61537">
        <ele>608.7</ele>
        <time>2021-09-04T18:06:15Z</time>
      </trkpt>
      <trkpt lat="45.64329" lon="4.61538">
        <ele>608.9</ele>
        <time>2021-09-04T18:06:16Z</time>
      </trkpt>
      <trkpt lat="45.64329" lon="4.61539">
        <ele>609</ele>
        <time>2021-09-04T18:06:18Z</time>
      </trkpt>
      <trkpt lat="45.64329" lon="4.6154">
        <ele>609.1</ele>
        <time>2021-09-04T18:06:19Z</time>
      </trkpt>
      <trkpt lat="45.6433" lon="4.6154">
        <ele>609.2</ele>
        <time>2021-09-04T18:06:21Z</time>
      </trkpt>
      <trkpt lat="45.6433" lon="4.61541">
        <ele>609.3</ele>
        <time>2021-09-04T18:06:22Z</time>
      </trkpt>
      <trkpt lat="45.6433" lon="4.61542">
        <ele>609.4</ele>
        <time>2021-09-04T18:06:24Z</time>
      </trkpt>
      <trkpt lat="45.64331" lon="4.61543">
        <ele>609.5</ele>
        <time>2021-09-04T18:06:25Z</time>
      </trkpt>
      <trkpt lat="45.64331" lon="4.61543">
        <ele>609.7</ele>
        <time>2021-09-04T18:06:32Z</time>
      </trkpt>
      <trkpt lat="45.64331" lon="4.61544">
        <ele>609.8</ele>
        <time>2021-09-04T18:06:33Z</time>
      </trkpt>
      <trkpt lat="45.64332" lon="4.61545">
        <ele>609.9</ele>
        <time>2021-09-04T18:06:35Z</time>
      </trkpt>
      <trkpt lat="45.64332" lon="4.61546">
        <ele>610</ele>
        <time>2021-09-04T18:06:36Z</time>
      </trkpt>
      <trkpt lat="45.64333" lon="4.6155">
        <ele>610.6</ele>
        <time>2021-09-04T18:06:37Z</time>
      </trkpt>
      <trkpt lat="45.64333" lon="4.61551">
        <ele>610.7</ele>
        <time>2021-09-04T18:06:38Z</time>
      </trkpt>
      <trkpt lat="45.64334" lon="4.61555">
        <ele>611.2</ele>
        <time>2021-09-04T18:06:40Z</time>
      </trkpt>
      <trkpt lat="45.64334" lon="4.61557">
        <ele>611.5</ele>
        <time>2021-09-04T18:06:41Z</time>
      </trkpt>
      <trkpt lat="45.64335" lon="4.61559">
        <ele>611.7</ele>
        <time>2021-09-04T18:06:42Z</time>
      </trkpt>
      <trkpt lat="45.64336" lon="4.61563">
        <ele>612.3</ele>
        <time>2021-09-04T18:06:44Z</time>
      </trkpt>
      <trkpt lat="45.64339" lon="4.61566">
        <ele>612.8</ele>
        <time>2021-09-04T18:06:45Z</time>
      </trkpt>
      <trkpt lat="45.6434" lon="4.61568">
        <ele>613.1</ele>
        <time>2021-09-04T18:06:46Z</time>
      </trkpt>
      <trkpt lat="45.64341" lon="4.61569">
        <ele>613.3</ele>
        <time>2021-09-04T18:06:48Z</time>
      </trkpt>
      <trkpt lat="45.64342" lon="4.61571">
        <ele>613.6</ele>
        <time>2021-09-04T18:06:49Z</time>
      </trkpt>
      <trkpt lat="45.64342" lon="4.61573">
        <ele>613.8</ele>
        <time>2021-09-04T18:06:50Z</time>
      </trkpt>
      <trkpt lat="45.64343" lon="4.61574">
        <ele>614</ele>
        <time>2021-09-04T18:06:51Z</time>
      </trkpt>
      <trkpt lat="45.64344" lon="4.61575">
        <ele>614.2</ele>
        <time>2021-09-04T18:06:53Z</time>
      </trkpt>
      <trkpt lat="45.64345" lon="4.61577">
        <ele>614.5</ele>
        <time>2021-09-04T18:06:54Z</time>
      </trkpt>
      <trkpt lat="45.64346" lon="4.6158">
        <ele>614.9</ele>
        <time>2021-09-04T18:06:56Z</time>
      </trkpt>
      <trkpt lat="45.64347" lon="4.61581">
        <ele>615.1</ele>
        <time>2021-09-04T18:06:57Z</time>
      </trkpt>
      <trkpt lat="45.64347" lon="4.61583">
        <ele>615.2</ele>
        <time>2021-09-04T18:06:58Z</time>
      </trkpt>
      <trkpt lat="45.64348" lon="4.61584">
        <ele>615.4</ele>
        <time>2021-09-04T18:06:59Z</time>
      </trkpt>
      <trkpt lat="45.64348" lon="4.61585">
        <ele>615.6</ele>
        <time>2021-09-04T18:07:00Z</time>
      </trkpt>
      <trkpt lat="45.64349" lon="4.61587">
        <ele>615.8</ele>
        <time>2021-09-04T18:07:02Z</time>
      </trkpt>
      <trkpt lat="45.64349" lon="4.61588">
        <ele>616</ele>
        <time>2021-09-04T18:07:03Z</time>
      </trkpt>
      <trkpt lat="45.64351" lon="4.61591">
        <ele>616.4</ele>
        <time>2021-09-04T18:07:04Z</time>
      </trkpt>
      <trkpt lat="45.64351" lon="4.61593">
        <ele>616.6</ele>
        <time>2021-09-04T18:07:06Z</time>
      </trkpt>
      <trkpt lat="45.64352" lon="4.61594">
        <ele>616.8</ele>
        <time>2021-09-04T18:07:07Z</time>
      </trkpt>
      <trkpt lat="45.64353" lon="4.61595">
        <ele>617</ele>
        <time>2021-09-04T18:07:08Z</time>
      </trkpt>
      <trkpt lat="45.64353" lon="4.61596">
        <ele>617.1</ele>
        <time>2021-09-04T18:07:09Z</time>
      </trkpt>
      <trkpt lat="45.64355" lon="4.616">
        <ele>617.7</ele>
        <time>2021-09-04T18:07:11Z</time>
      </trkpt>
      <trkpt lat="45.64355" lon="4.61601">
        <ele>617.8</ele>
        <time>2021-09-04T18:07:12Z</time>
      </trkpt>
      <trkpt lat="45.64356" lon="4.61603">
        <ele>618.1</ele>
        <time>2021-09-04T18:07:13Z</time>
      </trkpt>
      <trkpt lat="45.64357" lon="4.61605">
        <ele>618.5</ele>
        <time>2021-09-04T18:07:15Z</time>
      </trkpt>
      <trkpt lat="45.64359" lon="4.61608">
        <ele>619</ele>
        <time>2021-09-04T18:07:17Z</time>
      </trkpt>
      <trkpt lat="45.6436" lon="4.61609">
        <ele>619.1</ele>
        <time>2021-09-04T18:07:18Z</time>
      </trkpt>
      <trkpt lat="45.64361" lon="4.61611">
        <ele>619.4</ele>
        <time>2021-09-04T18:07:20Z</time>
      </trkpt>
      <trkpt lat="45.64362" lon="4.61613">
        <ele>619.6</ele>
        <time>2021-09-04T18:07:21Z</time>
      </trkpt>
      <trkpt lat="45.64363" lon="4.61615">
        <ele>620</ele>
        <time>2021-09-04T18:07:22Z</time>
      </trkpt>
      <trkpt lat="45.64364" lon="4.61617">
        <ele>620.2</ele>
        <time>2021-09-04T18:07:23Z</time>
      </trkpt>
      <trkpt lat="45.64365" lon="4.61619">
        <ele>620.5</ele>
        <time>2021-09-04T18:07:25Z</time>
      </trkpt>
      <trkpt lat="45.64366" lon="4.6162">
        <ele>620.7</ele>
        <time>2021-09-04T18:07:26Z</time>
      </trkpt>
      <trkpt lat="45.64368" lon="4.61622">
        <ele>621</ele>
        <time>2021-09-04T18:07:27Z</time>
      </trkpt>
      <trkpt lat="45.64369" lon="4.61623">
        <ele>621.3</ele>
        <time>2021-09-04T18:07:28Z</time>
      </trkpt>
      <trkpt lat="45.6437" lon="4.61624">
        <ele>621.5</ele>
        <time>2021-09-04T18:07:30Z</time>
      </trkpt>
      <trkpt lat="45.64372" lon="4.61626">
        <ele>621.8</ele>
        <time>2021-09-04T18:07:31Z</time>
      </trkpt>
      <trkpt lat="45.64373" lon="4.61627">
        <ele>622</ele>
        <time>2021-09-04T18:07:32Z</time>
      </trkpt>
      <trkpt lat="45.64374" lon="4.61629">
        <ele>622.2</ele>
        <time>2021-09-04T18:07:33Z</time>
      </trkpt>
      <trkpt lat="45.64375" lon="4.6163">
        <ele>622.4</ele>
        <time>2021-09-04T18:07:35Z</time>
      </trkpt>
      <trkpt lat="45.64376" lon="4.61632">
        <ele>622.6</ele>
        <time>2021-09-04T18:07:36Z</time>
      </trkpt>
      <trkpt lat="45.64377" lon="4.61633">
        <ele>622.7</ele>
        <time>2021-09-04T18:07:37Z</time>
      </trkpt>
      <trkpt lat="45.64378" lon="4.61635">
        <ele>622.9</ele>
        <time>2021-09-04T18:07:38Z</time>
      </trkpt>
      <trkpt lat="45.64379" lon="4.61636">
        <ele>623.1</ele>
        <time>2021-09-04T18:07:39Z</time>
      </trkpt>
      <trkpt lat="45.6438" lon="4.61638">
        <ele>623.3</ele>
        <time>2021-09-04T18:07:41Z</time>
      </trkpt>
      <trkpt lat="45.64381" lon="4.6164">
        <ele>623.5</ele>
        <time>2021-09-04T18:07:42Z</time>
      </trkpt>
      <trkpt lat="45.64382" lon="4.61643">
        <ele>623.7</ele>
        <time>2021-09-04T18:07:44Z</time>
      </trkpt>
      <trkpt lat="45.64383" lon="4.61644">
        <ele>623.8</ele>
        <time>2021-09-04T18:07:45Z</time>
      </trkpt>
      <trkpt lat="45.64384" lon="4.61647">
        <ele>624.1</ele>
        <time>2021-09-04T18:07:46Z</time>
      </trkpt>
      <trkpt lat="45.64385" lon="4.61648">
        <ele>624.1</ele>
        <time>2021-09-04T18:07:47Z</time>
      </trkpt>
      <trkpt lat="45.64385" lon="4.61649">
        <ele>624.2</ele>
        <time>2021-09-04T18:07:48Z</time>
      </trkpt>
      <trkpt lat="45.64386" lon="4.61651">
        <ele>624.4</ele>
        <time>2021-09-04T18:07:50Z</time>
      </trkpt>
      <trkpt lat="45.64387" lon="4.61653">
        <ele>624.5</ele>
        <time>2021-09-04T18:07:51Z</time>
      </trkpt>
      <trkpt lat="45.64388" lon="4.61655">
        <ele>624.7</ele>
        <time>2021-09-04T18:07:53Z</time>
      </trkpt>
      <trkpt lat="45.64389" lon="4.61656">
        <ele>624.8</ele>
        <time>2021-09-04T18:07:54Z</time>
      </trkpt>
      <trkpt lat="45.64389" lon="4.61658">
        <ele>624.9</ele>
        <time>2021-09-04T18:07:55Z</time>
      </trkpt>
      <trkpt lat="45.64391" lon="4.61661">
        <ele>625.1</ele>
        <time>2021-09-04T18:07:57Z</time>
      </trkpt>
      <trkpt lat="45.64392" lon="4.61663">
        <ele>625.3</ele>
        <time>2021-09-04T18:07:58Z</time>
      </trkpt>
      <trkpt lat="45.64393" lon="4.61665">
        <ele>625.4</ele>
        <time>2021-09-04T18:08:00Z</time>
      </trkpt>
      <trkpt lat="45.64393" lon="4.61666">
        <ele>625.5</ele>
        <time>2021-09-04T18:08:01Z</time>
      </trkpt>
      <trkpt lat="45.64395" lon="4.61669">
        <ele>625.6</ele>
        <time>2021-09-04T18:08:02Z</time>
      </trkpt>
      <trkpt lat="45.64397" lon="4.61673">
        <ele>625.9</ele>
        <time>2021-09-04T18:08:04Z</time>
      </trkpt>
      <trkpt lat="45.64397" lon="4.61674">
        <ele>625.9</ele>
        <time>2021-09-04T18:08:05Z</time>
      </trkpt>
      <trkpt lat="45.64398" lon="4.61676">
        <ele>626</ele>
        <time>2021-09-04T18:08:06Z</time>
      </trkpt>
      <trkpt lat="45.64399" lon="4.61679">
        <ele>626.2</ele>
        <time>2021-09-04T18:08:08Z</time>
      </trkpt>
      <trkpt lat="45.64401" lon="4.61683">
        <ele>626.3</ele>
        <time>2021-09-04T18:08:10Z</time>
      </trkpt>
      <trkpt lat="45.64402" lon="4.61684">
        <ele>626.3</ele>
        <time>2021-09-04T18:08:11Z</time>
      </trkpt>
      <trkpt lat="45.64403" lon="4.61687">
        <ele>626.4</ele>
        <time>2021-09-04T18:08:12Z</time>
      </trkpt>
      <trkpt lat="45.64404" lon="4.6169">
        <ele>626.5</ele>
        <time>2021-09-04T18:08:14Z</time>
      </trkpt>
      <trkpt lat="45.64406" lon="4.61693">
        <ele>626.6</ele>
        <time>2021-09-04T18:08:15Z</time>
      </trkpt>
      <trkpt lat="45.64408" lon="4.61693">
        <ele>626.6</ele>
        <time>2021-09-04T18:08:16Z</time>
      </trkpt>
      <trkpt lat="45.64409" lon="4.61694">
        <ele>626.7</ele>
        <time>2021-09-04T18:08:17Z</time>
      </trkpt>
      <trkpt lat="45.64411" lon="4.61696">
        <ele>626.8</ele>
        <time>2021-09-04T18:08:19Z</time>
      </trkpt>
      <trkpt lat="45.64412" lon="4.61697">
        <ele>626.8</ele>
        <time>2021-09-04T18:08:20Z</time>
      </trkpt>
      <trkpt lat="45.64414" lon="4.61698">
        <ele>626.9</ele>
        <time>2021-09-04T18:08:21Z</time>
      </trkpt>
      <trkpt lat="45.64416" lon="4.617">
        <ele>627</ele>
        <time>2021-09-04T18:08:23Z</time>
      </trkpt>
      <trkpt lat="45.64417" lon="4.61701">
        <ele>627</ele>
        <time>2021-09-04T18:08:24Z</time>
      </trkpt>
      <trkpt lat="45.6442" lon="4.61703">
        <ele>627.2</ele>
        <time>2021-09-04T18:08:26Z</time>
      </trkpt>
      <trkpt lat="45.64421" lon="4.61704">
        <ele>627.3</ele>
        <time>2021-09-04T18:08:27Z</time>
      </trkpt>
      <trkpt lat="45.64424" lon="4.61707">
        <ele>627.5</ele>
        <time>2021-09-04T18:08:29Z</time>
      </trkpt>
      <trkpt lat="45.64427" lon="4.61709">
        <ele>627.7</ele>
        <time>2021-09-04T18:08:30Z</time>
      </trkpt>
      <trkpt lat="45.6443" lon="4.61711">
        <ele>627.9</ele>
        <time>2021-09-04T18:08:32Z</time>
      </trkpt>
      <trkpt lat="45.64433" lon="4.61714">
        <ele>628.3</ele>
        <time>2021-09-04T18:08:33Z</time>
      </trkpt>
      <trkpt lat="45.64436" lon="4.61717">
        <ele>628.7</ele>
        <time>2021-09-04T18:08:35Z</time>
      </trkpt>
      <trkpt lat="45.6444" lon="4.61721">
        <ele>629.1</ele>
        <time>2021-09-04T18:08:37Z</time>
      </trkpt>
      <trkpt lat="45.64443" lon="4.61722">
        <ele>629.4</ele>
        <time>2021-09-04T18:08:38Z</time>
      </trkpt>
      <trkpt lat="45.64446" lon="4.61725">
        <ele>629.8</ele>
        <time>2021-09-04T18:08:40Z</time>
      </trkpt>
      <trkpt lat="45.64449" lon="4.61727">
        <ele>630.1</ele>
        <time>2021-09-04T18:08:41Z</time>
      </trkpt>
      <trkpt lat="45.64452" lon="4.61729">
        <ele>630.5</ele>
        <time>2021-09-04T18:08:43Z</time>
      </trkpt>
      <trkpt lat="45.64455" lon="4.61732">
        <ele>630.9</ele>
        <time>2021-09-04T18:08:44Z</time>
      </trkpt>
      <trkpt lat="45.64457" lon="4.61733">
        <ele>631.1</ele>
        <time>2021-09-04T18:08:45Z</time>
      </trkpt>
      <trkpt lat="45.6446" lon="4.61736">
        <ele>631.5</ele>
        <time>2021-09-04T18:08:46Z</time>
      </trkpt>
      <trkpt lat="45.64461" lon="4.61738">
        <ele>631.6</ele>
        <time>2021-09-04T18:08:47Z</time>
      </trkpt>
      <trkpt lat="45.64464" lon="4.6174">
        <ele>631.9</ele>
        <time>2021-09-04T18:08:49Z</time>
      </trkpt>
      <trkpt lat="45.64466" lon="4.61742">
        <ele>632.2</ele>
        <time>2021-09-04T18:08:50Z</time>
      </trkpt>
      <trkpt lat="45.64468" lon="4.61744">
        <ele>632.4</ele>
        <time>2021-09-04T18:08:51Z</time>
      </trkpt>
      <trkpt lat="45.64471" lon="4.61747">
        <ele>632.7</ele>
        <time>2021-09-04T18:08:53Z</time>
      </trkpt>
      <trkpt lat="45.64474" lon="4.6175">
        <ele>633</ele>
        <time>2021-09-04T18:08:54Z</time>
      </trkpt>
      <trkpt lat="45.64477" lon="4.61752">
        <ele>633.3</ele>
        <time>2021-09-04T18:08:55Z</time>
      </trkpt>
      <trkpt lat="45.64477" lon="4.61753">
        <ele>633.3</ele>
        <time>2021-09-04T18:08:56Z</time>
      </trkpt>
      <trkpt lat="45.6448" lon="4.61757">
        <ele>633.6</ele>
        <time>2021-09-04T18:08:58Z</time>
      </trkpt>
      <trkpt lat="45.64482" lon="4.61759">
        <ele>633.8</ele>
        <time>2021-09-04T18:08:59Z</time>
      </trkpt>
      <trkpt lat="45.64488" lon="4.61763">
        <ele>634.1</ele>
        <time>2021-09-04T18:09:01Z</time>
      </trkpt>
      <trkpt lat="45.6449" lon="4.61764">
        <ele>634.3</ele>
        <time>2021-09-04T18:09:02Z</time>
      </trkpt>
      <trkpt lat="45.64492" lon="4.61768">
        <ele>634.5</ele>
        <time>2021-09-04T18:09:04Z</time>
      </trkpt>
      <trkpt lat="45.64494" lon="4.61772">
        <ele>634.7</ele>
        <time>2021-09-04T18:09:05Z</time>
      </trkpt>
      <trkpt lat="45.64495" lon="4.61773">
        <ele>634.7</ele>
        <time>2021-09-04T18:09:06Z</time>
      </trkpt>
      <trkpt lat="45.64495" lon="4.61778">
        <ele>635</ele>
        <time>2021-09-04T18:09:08Z</time>
      </trkpt>
      <trkpt lat="45.64495" lon="4.6178">
        <ele>635.1</ele>
        <time>2021-09-04T18:09:09Z</time>
      </trkpt>
      <trkpt lat="45.64494" lon="4.61784">
        <ele>635.3</ele>
        <time>2021-09-04T18:09:10Z</time>
      </trkpt>
      <trkpt lat="45.64494" lon="4.61785">
        <ele>635.4</ele>
        <time>2021-09-04T18:09:11Z</time>
      </trkpt>
      <trkpt lat="45.64492" lon="4.61791">
        <ele>635.7</ele>
        <time>2021-09-04T18:09:13Z</time>
      </trkpt>
      <trkpt lat="45.64491" lon="4.61793">
        <ele>635.8</ele>
        <time>2021-09-04T18:09:14Z</time>
      </trkpt>
      <trkpt lat="45.6449" lon="4.61794">
        <ele>635.9</ele>
        <time>2021-09-04T18:09:15Z</time>
      </trkpt>
      <trkpt lat="45.64488" lon="4.61799">
        <ele>636.3</ele>
        <time>2021-09-04T18:09:17Z</time>
      </trkpt>
      <trkpt lat="45.64487" lon="4.618">
        <ele>636.4</ele>
        <time>2021-09-04T18:09:18Z</time>
      </trkpt>
      <trkpt lat="45.64485" lon="4.61804">
        <ele>636.7</ele>
        <time>2021-09-04T18:09:20Z</time>
      </trkpt>
      <trkpt lat="45.64482" lon="4.61806">
        <ele>637</ele>
        <time>2021-09-04T18:09:22Z</time>
      </trkpt>
      <trkpt lat="45.64481" lon="4.61808">
        <ele>637.2</ele>
        <time>2021-09-04T18:09:23Z</time>
      </trkpt>
      <trkpt lat="45.6448" lon="4.6181">
        <ele>637.4</ele>
        <time>2021-09-04T18:09:24Z</time>
      </trkpt>
      <trkpt lat="45.64478" lon="4.6181">
        <ele>637.5</ele>
        <time>2021-09-04T18:09:25Z</time>
      </trkpt>
      <trkpt lat="45.64477" lon="4.61811">
        <ele>637.7</ele>
        <time>2021-09-04T18:09:27Z</time>
      </trkpt>
      <trkpt lat="45.64474" lon="4.61813">
        <ele>638</ele>
        <time>2021-09-04T18:09:28Z</time>
      </trkpt>
      <trkpt lat="45.64472" lon="4.61815">
        <ele>638.2</ele>
        <time>2021-09-04T18:09:30Z</time>
      </trkpt>
      <trkpt lat="45.64471" lon="4.61817">
        <ele>638.4</ele>
        <time>2021-09-04T18:09:31Z</time>
      </trkpt>
      <trkpt lat="45.64469" lon="4.61817">
        <ele>638.6</ele>
        <time>2021-09-04T18:09:32Z</time>
      </trkpt>
      <trkpt lat="45.64468" lon="4.61817">
        <ele>638.7</ele>
        <time>2021-09-04T18:09:33Z</time>
      </trkpt>
      <trkpt lat="45.64465" lon="4.61818">
        <ele>639</ele>
        <time>2021-09-04T18:09:35Z</time>
      </trkpt>
      <trkpt lat="45.64462" lon="4.61819">
        <ele>639.3</ele>
        <time>2021-09-04T18:09:36Z</time>
      </trkpt>
      <trkpt lat="45.64461" lon="4.6182">
        <ele>639.4</ele>
        <time>2021-09-04T18:09:37Z</time>
      </trkpt>
      <trkpt lat="45.6446" lon="4.61821">
        <ele>639.5</ele>
        <time>2021-09-04T18:09:38Z</time>
      </trkpt>
      <trkpt lat="45.64458" lon="4.61822">
        <ele>639.7</ele>
        <time>2021-09-04T18:09:39Z</time>
      </trkpt>
      <trkpt lat="45.64455" lon="4.61823">
        <ele>639.9</ele>
        <time>2021-09-04T18:09:41Z</time>
      </trkpt>
      <trkpt lat="45.64453" lon="4.61825">
        <ele>640.2</ele>
        <time>2021-09-04T18:09:43Z</time>
      </trkpt>
      <trkpt lat="45.64449" lon="4.61826">
        <ele>640.5</ele>
        <time>2021-09-04T18:09:45Z</time>
      </trkpt>
      <trkpt lat="45.64447" lon="4.61831">
        <ele>640.8</ele>
        <time>2021-09-04T18:09:47Z</time>
      </trkpt>
      <trkpt lat="45.64445" lon="4.61834">
        <ele>640.9</ele>
        <time>2021-09-04T18:09:48Z</time>
      </trkpt>
      <trkpt lat="45.64442" lon="4.6184">
        <ele>641.2</ele>
        <time>2021-09-04T18:09:50Z</time>
      </trkpt>
      <trkpt lat="45.64437" lon="4.61847">
        <ele>641.4</ele>
        <time>2021-09-04T18:09:52Z</time>
      </trkpt>
      <trkpt lat="45.64432" lon="4.61855">
        <ele>641.5</ele>
        <time>2021-09-04T18:09:54Z</time>
      </trkpt>
      <trkpt lat="45.64428" lon="4.61862">
        <ele>641.5</ele>
        <time>2021-09-04T18:09:56Z</time>
      </trkpt>
      <trkpt lat="45.64425" lon="4.61867">
        <ele>641.4</ele>
        <time>2021-09-04T18:09:57Z</time>
      </trkpt>
      <trkpt lat="45.64424" lon="4.61869">
        <ele>641.4</ele>
        <time>2021-09-04T18:09:58Z</time>
      </trkpt>
      <trkpt lat="45.64423" lon="4.61873">
        <ele>641.4</ele>
        <time>2021-09-04T18:09:59Z</time>
      </trkpt>
      <trkpt lat="45.64421" lon="4.61881">
        <ele>641.4</ele>
        <time>2021-09-04T18:10:01Z</time>
      </trkpt>
      <trkpt lat="45.64419" lon="4.61885">
        <ele>641.4</ele>
        <time>2021-09-04T18:10:02Z</time>
      </trkpt>
      <trkpt lat="45.64417" lon="4.61893">
        <ele>641.5</ele>
        <time>2021-09-04T18:10:04Z</time>
      </trkpt>
      <trkpt lat="45.64416" lon="4.61898">
        <ele>641.5</ele>
        <time>2021-09-04T18:10:05Z</time>
      </trkpt>
      <trkpt lat="45.64415" lon="4.61899">
        <ele>641.5</ele>
        <time>2021-09-04T18:10:06Z</time>
      </trkpt>
      <trkpt lat="45.64414" lon="4.61907">
        <ele>641.6</ele>
        <time>2021-09-04T18:10:08Z</time>
      </trkpt>
      <trkpt lat="45.64414" lon="4.61915">
        <ele>641.8</ele>
        <time>2021-09-04T18:10:10Z</time>
      </trkpt>
      <trkpt lat="45.64414" lon="4.61923">
        <ele>642</ele>
        <time>2021-09-04T18:10:12Z</time>
      </trkpt>
      <trkpt lat="45.64414" lon="4.61927">
        <ele>642.2</ele>
        <time>2021-09-04T18:10:13Z</time>
      </trkpt>
      <trkpt lat="45.64415" lon="4.61931">
        <ele>642.3</ele>
        <time>2021-09-04T18:10:14Z</time>
      </trkpt>
      <trkpt lat="45.64415" lon="4.61938">
        <ele>642.6</ele>
        <time>2021-09-04T18:10:16Z</time>
      </trkpt>
      <trkpt lat="45.64416" lon="4.61943">
        <ele>642.8</ele>
        <time>2021-09-04T18:10:18Z</time>
      </trkpt>
      <trkpt lat="45.64418" lon="4.6195">
        <ele>643.1</ele>
        <time>2021-09-04T18:10:20Z</time>
      </trkpt>
      <trkpt lat="45.64419" lon="4.61955">
        <ele>643.4</ele>
        <time>2021-09-04T18:10:21Z</time>
      </trkpt>
      <trkpt lat="45.64419" lon="4.61956">
        <ele>643.5</ele>
        <time>2021-09-04T18:10:22Z</time>
      </trkpt>
      <trkpt lat="45.6442" lon="4.61959">
        <ele>643.7</ele>
        <time>2021-09-04T18:10:23Z</time>
      </trkpt>
      <trkpt lat="45.64421" lon="4.61964">
        <ele>644</ele>
        <time>2021-09-04T18:10:25Z</time>
      </trkpt>
      <trkpt lat="45.64422" lon="4.61968">
        <ele>644.3</ele>
        <time>2021-09-04T18:10:26Z</time>
      </trkpt>
      <trkpt lat="45.64425" lon="4.61974">
        <ele>644.7</ele>
        <time>2021-09-04T18:10:28Z</time>
      </trkpt>
      <trkpt lat="45.64426" lon="4.61978">
        <ele>645</ele>
        <time>2021-09-04T18:10:29Z</time>
      </trkpt>
      <trkpt lat="45.64427" lon="4.61979">
        <ele>645.1</ele>
        <time>2021-09-04T18:10:30Z</time>
      </trkpt>
      <trkpt lat="45.64429" lon="4.61985">
        <ele>645.5</ele>
        <time>2021-09-04T18:10:32Z</time>
      </trkpt>
      <trkpt lat="45.64429" lon="4.61988">
        <ele>645.7</ele>
        <time>2021-09-04T18:10:33Z</time>
      </trkpt>
      <trkpt lat="45.6443" lon="4.61991">
        <ele>645.9</ele>
        <time>2021-09-04T18:10:34Z</time>
      </trkpt>
      <trkpt lat="45.64432" lon="4.61996">
        <ele>646.3</ele>
        <time>2021-09-04T18:10:36Z</time>
      </trkpt>
      <trkpt lat="45.64433" lon="4.62002">
        <ele>646.8</ele>
        <time>2021-09-04T18:10:38Z</time>
      </trkpt>
      <trkpt lat="45.64434" lon="4.62004">
        <ele>646.9</ele>
        <time>2021-09-04T18:10:39Z</time>
      </trkpt>
      <trkpt lat="45.64434" lon="4.62007">
        <ele>647.1</ele>
        <time>2021-09-04T18:10:40Z</time>
      </trkpt>
      <trkpt lat="45.64436" lon="4.62013">
        <ele>647.6</ele>
        <time>2021-09-04T18:10:42Z</time>
      </trkpt>
      <trkpt lat="45.64437" lon="4.62015">
        <ele>647.8</ele>
        <time>2021-09-04T18:10:43Z</time>
      </trkpt>
      <trkpt lat="45.64438" lon="4.62017">
        <ele>648</ele>
        <time>2021-09-04T18:10:44Z</time>
      </trkpt>
      <trkpt lat="45.6444" lon="4.62022">
        <ele>648.3</ele>
        <time>2021-09-04T18:10:46Z</time>
      </trkpt>
      <trkpt lat="45.64441" lon="4.62024">
        <ele>648.5</ele>
        <time>2021-09-04T18:10:47Z</time>
      </trkpt>
      <trkpt lat="45.64442" lon="4.6203">
        <ele>648.8</ele>
        <time>2021-09-04T18:10:49Z</time>
      </trkpt>
      <trkpt lat="45.64442" lon="4.62033">
        <ele>649</ele>
        <time>2021-09-04T18:10:50Z</time>
      </trkpt>
      <trkpt lat="45.64443" lon="4.62036">
        <ele>649.2</ele>
        <time>2021-09-04T18:10:52Z</time>
      </trkpt>
      <trkpt lat="45.64444" lon="4.6204">
        <ele>649.4</ele>
        <time>2021-09-04T18:10:53Z</time>
      </trkpt>
      <trkpt lat="45.64446" lon="4.62045">
        <ele>649.6</ele>
        <time>2021-09-04T18:10:55Z</time>
      </trkpt>
      <trkpt lat="45.64448" lon="4.6205">
        <ele>649.9</ele>
        <time>2021-09-04T18:10:56Z</time>
      </trkpt>
      <trkpt lat="45.64448" lon="4.62052">
        <ele>650</ele>
        <time>2021-09-04T18:10:57Z</time>
      </trkpt>
      <trkpt lat="45.64449" lon="4.62056">
        <ele>650.2</ele>
        <time>2021-09-04T18:10:59Z</time>
      </trkpt>
      <trkpt lat="45.64451" lon="4.62061">
        <ele>650.4</ele>
        <time>2021-09-04T18:11:00Z</time>
      </trkpt>
      <trkpt lat="45.64452" lon="4.62065">
        <ele>650.6</ele>
        <time>2021-09-04T18:11:01Z</time>
      </trkpt>
      <trkpt lat="45.64453" lon="4.6207">
        <ele>650.8</ele>
        <time>2021-09-04T18:11:03Z</time>
      </trkpt>
      <trkpt lat="45.64454" lon="4.62074">
        <ele>651</ele>
        <time>2021-09-04T18:11:04Z</time>
      </trkpt>
      <trkpt lat="45.64455" lon="4.62078">
        <ele>651.2</ele>
        <time>2021-09-04T18:11:06Z</time>
      </trkpt>
      <trkpt lat="45.64455" lon="4.62083">
        <ele>651.4</ele>
        <time>2021-09-04T18:11:07Z</time>
      </trkpt>
      <trkpt lat="45.64457" lon="4.62088">
        <ele>651.6</ele>
        <time>2021-09-04T18:11:08Z</time>
      </trkpt>
      <trkpt lat="45.64457" lon="4.6209">
        <ele>651.7</ele>
        <time>2021-09-04T18:11:09Z</time>
      </trkpt>
      <trkpt lat="45.64457" lon="4.62093">
        <ele>651.8</ele>
        <time>2021-09-04T18:11:10Z</time>
      </trkpt>
      <trkpt lat="45.64458" lon="4.62097">
        <ele>652</ele>
        <time>2021-09-04T18:11:12Z</time>
      </trkpt>
      <trkpt lat="45.64459" lon="4.62102">
        <ele>652.2</ele>
        <time>2021-09-04T18:11:13Z</time>
      </trkpt>
      <trkpt lat="45.64459" lon="4.62106">
        <ele>652.3</ele>
        <time>2021-09-04T18:11:14Z</time>
      </trkpt>
      <trkpt lat="45.6446" lon="4.6211">
        <ele>652.5</ele>
        <time>2021-09-04T18:11:16Z</time>
      </trkpt>
      <trkpt lat="45.64461" lon="4.62115">
        <ele>652.8</ele>
        <time>2021-09-04T18:11:17Z</time>
      </trkpt>
      <trkpt lat="45.64461" lon="4.62118">
        <ele>652.9</ele>
        <time>2021-09-04T18:11:18Z</time>
      </trkpt>
      <trkpt lat="45.64462" lon="4.62121">
        <ele>653</ele>
        <time>2021-09-04T18:11:19Z</time>
      </trkpt>
      <trkpt lat="45.64463" lon="4.62127">
        <ele>653.3</ele>
        <time>2021-09-04T18:11:21Z</time>
      </trkpt>
      <trkpt lat="45.64463" lon="4.6213">
        <ele>653.4</ele>
        <time>2021-09-04T18:11:22Z</time>
      </trkpt>
      <trkpt lat="45.64463" lon="4.62134">
        <ele>653.6</ele>
        <time>2021-09-04T18:11:23Z</time>
      </trkpt>
      <trkpt lat="45.64464" lon="4.62138">
        <ele>653.8</ele>
        <time>2021-09-04T18:11:25Z</time>
      </trkpt>
      <trkpt lat="45.64464" lon="4.62142">
        <ele>654</ele>
        <time>2021-09-04T18:11:26Z</time>
      </trkpt>
      <trkpt lat="45.64464" lon="4.62146">
        <ele>654.1</ele>
        <time>2021-09-04T18:11:27Z</time>
      </trkpt>
      <trkpt lat="45.64465" lon="4.62152">
        <ele>654.4</ele>
        <time>2021-09-04T18:11:28Z</time>
      </trkpt>
      <trkpt lat="45.64465" lon="4.62153">
        <ele>654.5</ele>
        <time>2021-09-04T18:11:29Z</time>
      </trkpt>
      <trkpt lat="45.64465" lon="4.62158">
        <ele>654.7</ele>
        <time>2021-09-04T18:11:31Z</time>
      </trkpt>
      <trkpt lat="45.64465" lon="4.62162">
        <ele>654.8</ele>
        <time>2021-09-04T18:11:32Z</time>
      </trkpt>
      <trkpt lat="45.64465" lon="4.62166">
        <ele>655</ele>
        <time>2021-09-04T18:11:33Z</time>
      </trkpt>
      <trkpt lat="45.64466" lon="4.62172">
        <ele>655.2</ele>
        <time>2021-09-04T18:11:34Z</time>
      </trkpt>
      <trkpt lat="45.64467" lon="4.62173">
        <ele>655.3</ele>
        <time>2021-09-04T18:11:35Z</time>
      </trkpt>
      <trkpt lat="45.64467" lon="4.62178">
        <ele>655.5</ele>
        <time>2021-09-04T18:11:37Z</time>
      </trkpt>
      <trkpt lat="45.64467" lon="4.62182">
        <ele>655.6</ele>
        <time>2021-09-04T18:11:38Z</time>
      </trkpt>
      <trkpt lat="45.64467" lon="4.62186">
        <ele>655.8</ele>
        <time>2021-09-04T18:11:39Z</time>
      </trkpt>
      <trkpt lat="45.64468" lon="4.6219">
        <ele>656</ele>
        <time>2021-09-04T18:11:40Z</time>
      </trkpt>
      <trkpt lat="45.64468" lon="4.62194">
        <ele>656.1</ele>
        <time>2021-09-04T18:11:42Z</time>
      </trkpt>
      <trkpt lat="45.64469" lon="4.62199">
        <ele>656.4</ele>
        <time>2021-09-04T18:11:43Z</time>
      </trkpt>
      <trkpt lat="45.6447" lon="4.62202">
        <ele>656.5</ele>
        <time>2021-09-04T18:11:44Z</time>
      </trkpt>
      <trkpt lat="45.6447" lon="4.62206">
        <ele>656.6</ele>
        <time>2021-09-04T18:11:46Z</time>
      </trkpt>
      <trkpt lat="45.64471" lon="4.62211">
        <ele>656.7</ele>
        <time>2021-09-04T18:11:47Z</time>
      </trkpt>
      <trkpt lat="45.64471" lon="4.62215">
        <ele>656.7</ele>
        <time>2021-09-04T18:11:48Z</time>
      </trkpt>
      <trkpt lat="45.64471" lon="4.62219">
        <ele>656.7</ele>
        <time>2021-09-04T18:11:49Z</time>
      </trkpt>
      <trkpt lat="45.64471" lon="4.62223">
        <ele>656.7</ele>
        <time>2021-09-04T18:11:50Z</time>
      </trkpt>
      <trkpt lat="45.6447" lon="4.62231">
        <ele>656.7</ele>
        <time>2021-09-04T18:11:52Z</time>
      </trkpt>
      <trkpt lat="45.64469" lon="4.6224">
        <ele>656.6</ele>
        <time>2021-09-04T18:11:54Z</time>
      </trkpt>
      <trkpt lat="45.64468" lon="4.62247">
        <ele>656.4</ele>
        <time>2021-09-04T18:11:56Z</time>
      </trkpt>
      <trkpt lat="45.64467" lon="4.62252">
        <ele>656.3</ele>
        <time>2021-09-04T18:11:57Z</time>
      </trkpt>
      <trkpt lat="45.64466" lon="4.62257">
        <ele>656.2</ele>
        <time>2021-09-04T18:11:58Z</time>
      </trkpt>
      <trkpt lat="45.64465" lon="4.62265">
        <ele>656</ele>
        <time>2021-09-04T18:12:00Z</time>
      </trkpt>
      <trkpt lat="45.64464" lon="4.62272">
        <ele>655.7</ele>
        <time>2021-09-04T18:12:02Z</time>
      </trkpt>
      <trkpt lat="45.64464" lon="4.62276">
        <ele>655.6</ele>
        <time>2021-09-04T18:12:03Z</time>
      </trkpt>
      <trkpt lat="45.64463" lon="4.6228">
        <ele>655.4</ele>
        <time>2021-09-04T18:12:05Z</time>
      </trkpt>
      <trkpt lat="45.64462" lon="4.62285">
        <ele>655.2</ele>
        <time>2021-09-04T18:12:06Z</time>
      </trkpt>
      <trkpt lat="45.64461" lon="4.62286">
        <ele>655.2</ele>
        <time>2021-09-04T18:12:07Z</time>
      </trkpt>
      <trkpt lat="45.64461" lon="4.62287">
        <ele>655.1</ele>
        <time>2021-09-04T18:12:09Z</time>
      </trkpt>
      <trkpt lat="45.6446" lon="4.62288">
        <ele>655</ele>
        <time>2021-09-04T18:12:11Z</time>
      </trkpt>
      <trkpt lat="45.6446" lon="4.6229">
        <ele>654.9</ele>
        <time>2021-09-04T18:12:13Z</time>
      </trkpt>
      <trkpt lat="45.6446" lon="4.62291">
        <ele>654.9</ele>
        <time>2021-09-04T18:12:14Z</time>
      </trkpt>
      <trkpt lat="45.64459" lon="4.62292">
        <ele>654.8</ele>
        <time>2021-09-04T18:12:16Z</time>
      </trkpt>
      <trkpt lat="45.64459" lon="4.62293">
        <ele>654.7</ele>
        <time>2021-09-04T18:13:10Z</time>
      </trkpt>
      <trkpt lat="45.64458" lon="4.62295">
        <ele>654.6</ele>
        <time>2021-09-04T18:13:11Z</time>
      </trkpt>
      <trkpt lat="45.64457" lon="4.623">
        <ele>654.3</ele>
        <time>2021-09-04T18:13:12Z</time>
      </trkpt>
      <trkpt lat="45.64456" lon="4.62311">
        <ele>653.6</ele>
        <time>2021-09-04T18:13:14Z</time>
      </trkpt>
      <trkpt lat="45.64457" lon="4.62318">
        <ele>653.1</ele>
        <time>2021-09-04T18:13:15Z</time>
      </trkpt>
      <trkpt lat="45.64456" lon="4.62325">
        <ele>652.5</ele>
        <time>2021-09-04T18:13:16Z</time>
      </trkpt>
      <trkpt lat="45.64456" lon="4.62333">
        <ele>651.7</ele>
        <time>2021-09-04T18:13:17Z</time>
      </trkpt>
      <trkpt lat="45.64458" lon="4.62339">
        <ele>651.1</ele>
        <time>2021-09-04T18:13:18Z</time>
      </trkpt>
      <trkpt lat="45.64458" lon="4.62347">
        <ele>650.4</ele>
        <time>2021-09-04T18:13:20Z</time>
      </trkpt>
      <trkpt lat="45.64457" lon="4.62356">
        <ele>649.5</ele>
        <time>2021-09-04T18:13:21Z</time>
      </trkpt>
      <trkpt lat="45.64456" lon="4.62362">
        <ele>648.9</ele>
        <time>2021-09-04T18:13:22Z</time>
      </trkpt>
      <trkpt lat="45.64457" lon="4.62366">
        <ele>648.5</ele>
        <time>2021-09-04T18:13:24Z</time>
      </trkpt>
      <trkpt lat="45.64457" lon="4.62371">
        <ele>648.1</ele>
        <time>2021-09-04T18:13:25Z</time>
      </trkpt>
      <trkpt lat="45.64457" lon="4.62374">
        <ele>647.9</ele>
        <time>2021-09-04T18:13:26Z</time>
      </trkpt>
      <trkpt lat="45.64456" lon="4.62376">
        <ele>647.7</ele>
        <time>2021-09-04T18:13:28Z</time>
      </trkpt>
      <trkpt lat="45.64455" lon="4.62379">
        <ele>647.4</ele>
        <time>2021-09-04T18:13:30Z</time>
      </trkpt>
      <trkpt lat="45.64455" lon="4.6238">
        <ele>647.3</ele>
        <time>2021-09-04T18:13:31Z</time>
      </trkpt>
      <trkpt lat="45.64455" lon="4.62381">
        <ele>647.3</ele>
        <time>2021-09-04T18:13:32Z</time>
      </trkpt>
      <trkpt lat="45.64455" lon="4.62381">
        <ele>647.3</ele>
        <time>2021-09-04T18:13:34Z</time>
      </trkpt>
      <trkpt lat="45.64455" lon="4.62381">
        <ele>647.3</ele>
        <time>2021-09-04T18:13:35Z</time>
      </trkpt>
      <trkpt lat="45.64455" lon="4.6238">
        <ele>647.2</ele>
        <time>2021-09-04T18:13:37Z</time>
      </trkpt>
      <trkpt lat="45.64455" lon="4.6238">
        <ele>647.2</ele>
        <time>2021-09-04T18:13:39Z</time>
      </trkpt>
      <trkpt lat="45.64455" lon="4.62381">
        <ele>647.2</ele>
        <time>2021-09-04T18:13:40Z</time>
      </trkpt>
      <trkpt lat="45.64456" lon="4.62382">
        <ele>647.1</ele>
        <time>2021-09-04T18:13:41Z</time>
      </trkpt>
      <trkpt lat="45.64458" lon="4.62398">
        <ele>646.4</ele>
        <time>2021-09-04T18:13:43Z</time>
      </trkpt>
      <trkpt lat="45.64459" lon="4.62407">
        <ele>645.8</ele>
        <time>2021-09-04T18:13:44Z</time>
      </trkpt>
      <trkpt lat="45.64461" lon="4.62424">
        <ele>644.3</ele>
        <time>2021-09-04T18:13:46Z</time>
      </trkpt>
      <trkpt lat="45.64466" lon="4.62441">
        <ele>642.7</ele>
        <time>2021-09-04T18:13:48Z</time>
      </trkpt>
      <trkpt lat="45.64471" lon="4.62454">
        <ele>640.5</ele>
        <time>2021-09-04T18:13:50Z</time>
      </trkpt>
      <trkpt lat="45.64471" lon="4.62461">
        <ele>639.7</ele>
        <time>2021-09-04T18:13:51Z</time>
      </trkpt>
      <trkpt lat="45.64465" lon="4.62474">
        <ele>638.1</ele>
        <time>2021-09-04T18:13:53Z</time>
      </trkpt>
      <trkpt lat="45.64451" lon="4.6248">
        <ele>636.3</ele>
        <time>2021-09-04T18:13:55Z</time>
      </trkpt>
      <trkpt lat="45.64444" lon="4.62482">
        <ele>635.3</ele>
        <time>2021-09-04T18:13:56Z</time>
      </trkpt>
      <trkpt lat="45.64435" lon="4.62482">
        <ele>634.3</ele>
        <time>2021-09-04T18:13:57Z</time>
      </trkpt>
      <trkpt lat="45.64427" lon="4.62482">
        <ele>633.2</ele>
        <time>2021-09-04T18:13:58Z</time>
      </trkpt>
      <trkpt lat="45.6441" lon="4.62486">
        <ele>631</ele>
        <time>2021-09-04T18:14:00Z</time>
      </trkpt>
      <trkpt lat="45.64403" lon="4.62492">
        <ele>629.9</ele>
        <time>2021-09-04T18:14:01Z</time>
      </trkpt>
      <trkpt lat="45.64398" lon="4.62502">
        <ele>628.8</ele>
        <time>2021-09-04T18:14:02Z</time>
      </trkpt>
      <trkpt lat="45.64398" lon="4.62531">
        <ele>625.8</ele>
        <time>2021-09-04T18:14:04Z</time>
      </trkpt>
      <trkpt lat="45.64399" lon="4.62559">
        <ele>623.1</ele>
        <time>2021-09-04T18:14:06Z</time>
      </trkpt>
      <trkpt lat="45.64398" lon="4.62573">
        <ele>622</ele>
        <time>2021-09-04T18:14:07Z</time>
      </trkpt>
      <trkpt lat="45.64393" lon="4.62597">
        <ele>620.4</ele>
        <time>2021-09-04T18:14:09Z</time>
      </trkpt>
      <trkpt lat="45.64388" lon="4.62608">
        <ele>619.7</ele>
        <time>2021-09-04T18:14:10Z</time>
      </trkpt>
      <trkpt lat="45.64375" lon="4.62629">
        <ele>618.7</ele>
        <time>2021-09-04T18:14:12Z</time>
      </trkpt>
      <trkpt lat="45.64369" lon="4.62637">
        <ele>618.3</ele>
        <time>2021-09-04T18:14:13Z</time>
      </trkpt>
      <trkpt lat="45.64355" lon="4.62653">
        <ele>617.1</ele>
        <time>2021-09-04T18:14:15Z</time>
      </trkpt>
      <trkpt lat="45.64344" lon="4.62675">
        <ele>614.8</ele>
        <time>2021-09-04T18:14:17Z</time>
      </trkpt>
      <trkpt lat="45.6434" lon="4.62689">
        <ele>613.2</ele>
        <time>2021-09-04T18:14:18Z</time>
      </trkpt>
      <trkpt lat="45.64333" lon="4.62717">
        <ele>610.9</ele>
        <time>2021-09-04T18:14:20Z</time>
      </trkpt>
      <trkpt lat="45.64334" lon="4.62743">
        <ele>611</ele>
        <time>2021-09-04T18:14:22Z</time>
      </trkpt>
      <trkpt lat="45.64338" lon="4.62753">
        <ele>611.5</ele>
        <time>2021-09-04T18:14:23Z</time>
      </trkpt>
      <trkpt lat="45.6434" lon="4.62763">
        <ele>611.9</ele>
        <time>2021-09-04T18:14:24Z</time>
      </trkpt>
      <trkpt lat="45.64337" lon="4.62785">
        <ele>613</ele>
        <time>2021-09-04T18:14:26Z</time>
      </trkpt>
      <trkpt lat="45.64334" lon="4.62793">
        <ele>613.5</ele>
        <time>2021-09-04T18:14:27Z</time>
      </trkpt>
      <trkpt lat="45.64327" lon="4.62806">
        <ele>614.4</ele>
        <time>2021-09-04T18:14:29Z</time>
      </trkpt>
      <trkpt lat="45.64318" lon="4.62817">
        <ele>615.2</ele>
        <time>2021-09-04T18:14:31Z</time>
      </trkpt>
      <trkpt lat="45.64313" lon="4.62823">
        <ele>615.6</ele>
        <time>2021-09-04T18:14:32Z</time>
      </trkpt>
      <trkpt lat="45.64304" lon="4.62834">
        <ele>616.4</ele>
        <time>2021-09-04T18:14:34Z</time>
      </trkpt>
      <trkpt lat="45.643" lon="4.6284">
        <ele>616.7</ele>
        <time>2021-09-04T18:14:35Z</time>
      </trkpt>
      <trkpt lat="45.64297" lon="4.62847">
        <ele>617</ele>
        <time>2021-09-04T18:14:36Z</time>
      </trkpt>
      <trkpt lat="45.64294" lon="4.62862">
        <ele>617.1</ele>
        <time>2021-09-04T18:14:38Z</time>
      </trkpt>
      <trkpt lat="45.64292" lon="4.62869">
        <ele>617</ele>
        <time>2021-09-04T18:14:39Z</time>
      </trkpt>
      <trkpt lat="45.6429" lon="4.62887">
        <ele>616.7</ele>
        <time>2021-09-04T18:14:41Z</time>
      </trkpt>
      <trkpt lat="45.64294" lon="4.62907">
        <ele>615.8</ele>
        <time>2021-09-04T18:14:43Z</time>
      </trkpt>
      <trkpt lat="45.64298" lon="4.62916">
        <ele>615.5</ele>
        <time>2021-09-04T18:14:44Z</time>
      </trkpt>
      <trkpt lat="45.64302" lon="4.62926">
        <ele>615.2</ele>
        <time>2021-09-04T18:14:45Z</time>
      </trkpt>
      <trkpt lat="45.64309" lon="4.62946">
        <ele>614.8</ele>
        <time>2021-09-04T18:14:47Z</time>
      </trkpt>
      <trkpt lat="45.64312" lon="4.62956">
        <ele>614.6</ele>
        <time>2021-09-04T18:14:48Z</time>
      </trkpt>
      <trkpt lat="45.64318" lon="4.62976">
        <ele>614.3</ele>
        <time>2021-09-04T18:14:50Z</time>
      </trkpt>
      <trkpt lat="45.64323" lon="4.62997">
        <ele>614.3</ele>
        <time>2021-09-04T18:14:52Z</time>
      </trkpt>
      <trkpt lat="45.64324" lon="4.63007">
        <ele>614.2</ele>
        <time>2021-09-04T18:14:53Z</time>
      </trkpt>
      <trkpt lat="45.64326" lon="4.63027">
        <ele>614.3</ele>
        <time>2021-09-04T18:14:55Z</time>
      </trkpt>
      <trkpt lat="45.64328" lon="4.63045">
        <ele>614.5</ele>
        <time>2021-09-04T18:14:57Z</time>
      </trkpt>
      <trkpt lat="45.64332" lon="4.63061">
        <ele>614.8</ele>
        <time>2021-09-04T18:14:59Z</time>
      </trkpt>
      <trkpt lat="45.64336" lon="4.63073">
        <ele>615</ele>
        <time>2021-09-04T18:15:01Z</time>
      </trkpt>
      <trkpt lat="45.64337" lon="4.63078">
        <ele>615.1</ele>
        <time>2021-09-04T18:15:02Z</time>
      </trkpt>
      <trkpt lat="45.64339" lon="4.63086">
        <ele>615.2</ele>
        <time>2021-09-04T18:15:04Z</time>
      </trkpt>
      <trkpt lat="45.64338" lon="4.63096">
        <ele>614.9</ele>
        <time>2021-09-04T18:15:06Z</time>
      </trkpt>
      <trkpt lat="45.64336" lon="4.63102">
        <ele>614.7</ele>
        <time>2021-09-04T18:15:07Z</time>
      </trkpt>
      <trkpt lat="45.64334" lon="4.63117">
        <ele>613.5</ele>
        <time>2021-09-04T18:15:09Z</time>
      </trkpt>
      <trkpt lat="45.64331" lon="4.63132">
        <ele>611.9</ele>
        <time>2021-09-04T18:15:11Z</time>
      </trkpt>
      <trkpt lat="45.6433" lon="4.6314">
        <ele>610.9</ele>
        <time>2021-09-04T18:15:12Z</time>
      </trkpt>
      <trkpt lat="45.64329" lon="4.63153">
        <ele>609.2</ele>
        <time>2021-09-04T18:15:14Z</time>
      </trkpt>
      <trkpt lat="45.64329" lon="4.63155">
        <ele>609</ele>
        <time>2021-09-04T18:15:15Z</time>
      </trkpt>
      <trkpt lat="45.64327" lon="4.63172">
        <ele>606.9</ele>
        <time>2021-09-04T18:15:17Z</time>
      </trkpt>
      <trkpt lat="45.64328" lon="4.63181">
        <ele>605.8</ele>
        <time>2021-09-04T18:15:18Z</time>
      </trkpt>
      <trkpt lat="45.64329" lon="4.63191">
        <ele>604.7</ele>
        <time>2021-09-04T18:15:19Z</time>
      </trkpt>
      <trkpt lat="45.64332" lon="4.63209">
        <ele>602.7</ele>
        <time>2021-09-04T18:15:21Z</time>
      </trkpt>
      <trkpt lat="45.64333" lon="4.63218">
        <ele>602</ele>
        <time>2021-09-04T18:15:22Z</time>
      </trkpt>
      <trkpt lat="45.64334" lon="4.63225">
        <ele>601.4</ele>
        <time>2021-09-04T18:15:23Z</time>
      </trkpt>
      <trkpt lat="45.64335" lon="4.63233">
        <ele>600.9</ele>
        <time>2021-09-04T18:15:24Z</time>
      </trkpt>
      <trkpt lat="45.64334" lon="4.63247">
        <ele>599.8</ele>
        <time>2021-09-04T18:15:26Z</time>
      </trkpt>
      <trkpt lat="45.64332" lon="4.63257">
        <ele>599</ele>
        <time>2021-09-04T18:15:28Z</time>
      </trkpt>
      <trkpt lat="45.64331" lon="4.63261">
        <ele>598.6</ele>
        <time>2021-09-04T18:15:29Z</time>
      </trkpt>
      <trkpt lat="45.6433" lon="4.63265">
        <ele>598</ele>
        <time>2021-09-04T18:15:30Z</time>
      </trkpt>
      <trkpt lat="45.64329" lon="4.63273">
        <ele>597.1</ele>
        <time>2021-09-04T18:15:32Z</time>
      </trkpt>
      <trkpt lat="45.64326" lon="4.63277">
        <ele>596.4</ele>
        <time>2021-09-04T18:15:34Z</time>
      </trkpt>
      <trkpt lat="45.64324" lon="4.63283">
        <ele>595.2</ele>
        <time>2021-09-04T18:15:35Z</time>
      </trkpt>
      <trkpt lat="45.64326" lon="4.63298">
        <ele>592.8</ele>
        <time>2021-09-04T18:15:37Z</time>
      </trkpt>
      <trkpt lat="45.64326" lon="4.63307">
        <ele>591.5</ele>
        <time>2021-09-04T18:15:38Z</time>
      </trkpt>
      <trkpt lat="45.64323" lon="4.63316">
        <ele>590.1</ele>
        <time>2021-09-04T18:15:39Z</time>
      </trkpt>
      <trkpt lat="45.64321" lon="4.63334">
        <ele>587.6</ele>
        <time>2021-09-04T18:15:41Z</time>
      </trkpt>
      <trkpt lat="45.64322" lon="4.63342">
        <ele>586.6</ele>
        <time>2021-09-04T18:15:42Z</time>
      </trkpt>
      <trkpt lat="45.64322" lon="4.63356">
        <ele>584.7</ele>
        <time>2021-09-04T18:15:44Z</time>
      </trkpt>
      <trkpt lat="45.64324" lon="4.63361">
        <ele>583.8</ele>
        <time>2021-09-04T18:15:45Z</time>
      </trkpt>
      <trkpt lat="45.64325" lon="4.63367">
        <ele>582.8</ele>
        <time>2021-09-04T18:15:46Z</time>
      </trkpt>
      <trkpt lat="45.64318" lon="4.6338">
        <ele>580</ele>
        <time>2021-09-04T18:15:48Z</time>
      </trkpt>
      <trkpt lat="45.64313" lon="4.63378">
        <ele>578.8</ele>
        <time>2021-09-04T18:15:50Z</time>
      </trkpt>
      <trkpt lat="45.64304" lon="4.63379">
        <ele>576.4</ele>
        <time>2021-09-04T18:15:51Z</time>
      </trkpt>
      <trkpt lat="45.64299" lon="4.63379">
        <ele>575.3</ele>
        <time>2021-09-04T18:15:52Z</time>
      </trkpt>
      <trkpt lat="45.64295" lon="4.63382">
        <ele>574.2</ele>
        <time>2021-09-04T18:15:53Z</time>
      </trkpt>
      <trkpt lat="45.64282" lon="4.6339">
        <ele>571.2</ele>
        <time>2021-09-04T18:15:55Z</time>
      </trkpt>
      <trkpt lat="45.64279" lon="4.63398">
        <ele>569.7</ele>
        <time>2021-09-04T18:15:56Z</time>
      </trkpt>
      <trkpt lat="45.64278" lon="4.63409">
        <ele>568.1</ele>
        <time>2021-09-04T18:15:57Z</time>
      </trkpt>
      <trkpt lat="45.64273" lon="4.63427">
        <ele>565.1</ele>
        <time>2021-09-04T18:15:59Z</time>
      </trkpt>
      <trkpt lat="45.6427" lon="4.63435">
        <ele>563.6</ele>
        <time>2021-09-04T18:16:00Z</time>
      </trkpt>
      <trkpt lat="45.64267" lon="4.63449">
        <ele>561.3</ele>
        <time>2021-09-04T18:16:02Z</time>
      </trkpt>
      <trkpt lat="45.64264" lon="4.63464">
        <ele>558.7</ele>
        <time>2021-09-04T18:16:04Z</time>
      </trkpt>
      <trkpt lat="45.64261" lon="4.63472">
        <ele>557.3</ele>
        <time>2021-09-04T18:16:05Z</time>
      </trkpt>
      <trkpt lat="45.64255" lon="4.63481">
        <ele>555.1</ele>
        <time>2021-09-04T18:16:07Z</time>
      </trkpt>
      <trkpt lat="45.64252" lon="4.63481">
        <ele>554.4</ele>
        <time>2021-09-04T18:16:08Z</time>
      </trkpt>
      <trkpt lat="45.64246" lon="4.63486">
        <ele>552.7</ele>
        <time>2021-09-04T18:16:10Z</time>
      </trkpt>
      <trkpt lat="45.64244" lon="4.63491">
        <ele>551.7</ele>
        <time>2021-09-04T18:16:11Z</time>
      </trkpt>
      <trkpt lat="45.64242" lon="4.63498">
        <ele>550.5</ele>
        <time>2021-09-04T18:16:12Z</time>
      </trkpt>
      <trkpt lat="45.64235" lon="4.63512">
        <ele>548</ele>
        <time>2021-09-04T18:16:14Z</time>
      </trkpt>
      <trkpt lat="45.64225" lon="4.63526">
        <ele>545.3</ele>
        <time>2021-09-04T18:16:16Z</time>
      </trkpt>
      <trkpt lat="45.64221" lon="4.63534">
        <ele>544</ele>
        <time>2021-09-04T18:16:17Z</time>
      </trkpt>
      <trkpt lat="45.64216" lon="4.6354">
        <ele>542.8</ele>
        <time>2021-09-04T18:16:18Z</time>
      </trkpt>
      <trkpt lat="45.64209" lon="4.63556">
        <ele>540.5</ele>
        <time>2021-09-04T18:16:20Z</time>
      </trkpt>
      <trkpt lat="45.64208" lon="4.6356">
        <ele>540.1</ele>
        <time>2021-09-04T18:16:21Z</time>
      </trkpt>
      <trkpt lat="45.64198" lon="4.63569">
        <ele>537.7</ele>
        <time>2021-09-04T18:16:23Z</time>
      </trkpt>
      <trkpt lat="45.64192" lon="4.63574">
        <ele>536.3</ele>
        <time>2021-09-04T18:16:24Z</time>
      </trkpt>
      <trkpt lat="45.64183" lon="4.63585">
        <ele>533.8</ele>
        <time>2021-09-04T18:16:26Z</time>
      </trkpt>
      <trkpt lat="45.6418" lon="4.63591">
        <ele>532.7</ele>
        <time>2021-09-04T18:16:27Z</time>
      </trkpt>
      <trkpt lat="45.64177" lon="4.63598">
        <ele>531.5</ele>
        <time>2021-09-04T18:16:28Z</time>
      </trkpt>
      <trkpt lat="45.64173" lon="4.63603">
        <ele>530.6</ele>
        <time>2021-09-04T18:16:29Z</time>
      </trkpt>
      <trkpt lat="45.64168" lon="4.63614">
        <ele>528.7</ele>
        <time>2021-09-04T18:16:31Z</time>
      </trkpt>
      <trkpt lat="45.64165" lon="4.63629">
        <ele>526.6</ele>
        <time>2021-09-04T18:16:33Z</time>
      </trkpt>
      <trkpt lat="45.64162" lon="4.63643">
        <ele>524.5</ele>
        <time>2021-09-04T18:16:35Z</time>
      </trkpt>
      <trkpt lat="45.6416" lon="4.63646">
        <ele>524</ele>
        <time>2021-09-04T18:16:36Z</time>
      </trkpt>
      <trkpt lat="45.64155" lon="4.63651">
        <ele>522.6</ele>
        <time>2021-09-04T18:16:38Z</time>
      </trkpt>
      <trkpt lat="45.64153" lon="4.63654">
        <ele>522</ele>
        <time>2021-09-04T18:16:39Z</time>
      </trkpt>
      <trkpt lat="45.64149" lon="4.63662">
        <ele>520.4</ele>
        <time>2021-09-04T18:16:41Z</time>
      </trkpt>
      <trkpt lat="45.64141" lon="4.63661">
        <ele>518.8</ele>
        <time>2021-09-04T18:16:43Z</time>
      </trkpt>
      <trkpt lat="45.64133" lon="4.63663">
        <ele>517.2</ele>
        <time>2021-09-04T18:16:45Z</time>
      </trkpt>
      <trkpt lat="45.64125" lon="4.63663">
        <ele>515.7</ele>
        <time>2021-09-04T18:16:46Z</time>
      </trkpt>
      <trkpt lat="45.64115" lon="4.63655">
        <ele>513.4</ele>
        <time>2021-09-04T18:16:48Z</time>
      </trkpt>
      <trkpt lat="45.64115" lon="4.6365">
        <ele>512.6</ele>
        <time>2021-09-04T18:16:49Z</time>
      </trkpt>
      <trkpt lat="45.64114" lon="4.63646">
        <ele>511.9</ele>
        <time>2021-09-04T18:16:51Z</time>
      </trkpt>
      <trkpt lat="45.64113" lon="4.63641">
        <ele>510</ele>
        <time>2021-09-04T18:16:52Z</time>
      </trkpt>
      <trkpt lat="45.64111" lon="4.6364">
        <ele>509.9</ele>
        <time>2021-09-04T18:16:53Z</time>
      </trkpt>
      <trkpt lat="45.64108" lon="4.63641">
        <ele>509.7</ele>
        <time>2021-09-04T18:16:55Z</time>
      </trkpt>
      <trkpt lat="45.64107" lon="4.63645">
        <ele>509.6</ele>
        <time>2021-09-04T18:16:56Z</time>
      </trkpt>
      <trkpt lat="45.64107" lon="4.63647">
        <ele>509.5</ele>
        <time>2021-09-04T18:16:57Z</time>
      </trkpt>
      <trkpt lat="45.64107" lon="4.6365">
        <ele>509.4</ele>
        <time>2021-09-04T18:16:58Z</time>
      </trkpt>
      <trkpt lat="45.64108" lon="4.63659">
        <ele>509.2</ele>
        <time>2021-09-04T18:17:00Z</time>
      </trkpt>
      <trkpt lat="45.64108" lon="4.63668">
        <ele>509</ele>
        <time>2021-09-04T18:17:01Z</time>
      </trkpt>
      <trkpt lat="45.6411" lon="4.63679">
        <ele>508.7</ele>
        <time>2021-09-04T18:17:03Z</time>
      </trkpt>
      <trkpt lat="45.64118" lon="4.63692">
        <ele>507.9</ele>
        <time>2021-09-04T18:17:04Z</time>
      </trkpt>
      <trkpt lat="45.64122" lon="4.63697">
        <ele>507.5</ele>
        <time>2021-09-04T18:17:05Z</time>
      </trkpt>
      <trkpt lat="45.64127" lon="4.637">
        <ele>507.1</ele>
        <time>2021-09-04T18:17:06Z</time>
      </trkpt>
      <trkpt lat="45.6414" lon="4.63703">
        <ele>506.4</ele>
        <time>2021-09-04T18:17:08Z</time>
      </trkpt>
      <trkpt lat="45.6415" lon="4.63711">
        <ele>505.9</ele>
        <time>2021-09-04T18:17:10Z</time>
      </trkpt>
      <trkpt lat="45.64156" lon="4.63719">
        <ele>505.9</ele>
        <time>2021-09-04T18:17:12Z</time>
      </trkpt>
      <trkpt lat="45.64149" lon="4.6373">
        <ele>506.2</ele>
        <time>2021-09-04T18:17:13Z</time>
      </trkpt>
      <trkpt lat="45.64143" lon="4.63737">
        <ele>506.7</ele>
        <time>2021-09-04T18:17:15Z</time>
      </trkpt>
      <trkpt lat="45.64139" lon="4.63744">
        <ele>507.2</ele>
        <time>2021-09-04T18:17:17Z</time>
      </trkpt>
      <trkpt lat="45.64133" lon="4.63752">
        <ele>508.1</ele>
        <time>2021-09-04T18:17:18Z</time>
      </trkpt>
      <trkpt lat="45.64129" lon="4.63759">
        <ele>508.8</ele>
        <time>2021-09-04T18:17:19Z</time>
      </trkpt>
      <trkpt lat="45.64126" lon="4.63765">
        <ele>509.5</ele>
        <time>2021-09-04T18:17:21Z</time>
      </trkpt>
      <trkpt lat="45.64123" lon="4.63772">
        <ele>510.3</ele>
        <time>2021-09-04T18:17:22Z</time>
      </trkpt>
      <trkpt lat="45.64121" lon="4.63779">
        <ele>510.9</ele>
        <time>2021-09-04T18:17:24Z</time>
      </trkpt>
      <trkpt lat="45.6412" lon="4.63782">
        <ele>511.3</ele>
        <time>2021-09-04T18:17:25Z</time>
      </trkpt>
      <trkpt lat="45.6412" lon="4.63786">
        <ele>511.6</ele>
        <time>2021-09-04T18:17:27Z</time>
      </trkpt>
      <trkpt lat="45.64119" lon="4.6379">
        <ele>512.1</ele>
        <time>2021-09-04T18:17:28Z</time>
      </trkpt>
      <trkpt lat="45.64118" lon="4.63792">
        <ele>512.2</ele>
        <time>2021-09-04T18:17:29Z</time>
      </trkpt>
      <trkpt lat="45.64118" lon="4.63794">
        <ele>512.5</ele>
        <time>2021-09-04T18:17:30Z</time>
      </trkpt>
      <trkpt lat="45.64117" lon="4.63801">
        <ele>513.1</ele>
        <time>2021-09-04T18:17:32Z</time>
      </trkpt>
      <trkpt lat="45.64117" lon="4.63804">
        <ele>513.4</ele>
        <time>2021-09-04T18:17:33Z</time>
      </trkpt>
      <trkpt lat="45.64117" lon="4.63809">
        <ele>513.8</ele>
        <time>2021-09-04T18:17:35Z</time>
      </trkpt>
      <trkpt lat="45.64116" lon="4.63813">
        <ele>514.2</ele>
        <time>2021-09-04T18:17:36Z</time>
      </trkpt>
      <trkpt lat="45.64116" lon="4.63817">
        <ele>514.6</ele>
        <time>2021-09-04T18:17:38Z</time>
      </trkpt>
      <trkpt lat="45.64115" lon="4.63818">
        <ele>514.7</ele>
        <time>2021-09-04T18:17:39Z</time>
      </trkpt>
      <trkpt lat="45.64114" lon="4.6382">
        <ele>514.9</ele>
        <time>2021-09-04T18:17:41Z</time>
      </trkpt>
      <trkpt lat="45.64114" lon="4.63822">
        <ele>515.1</ele>
        <time>2021-09-04T18:17:42Z</time>
      </trkpt>
      <trkpt lat="45.64113" lon="4.63825">
        <ele>515.3</ele>
        <time>2021-09-04T18:17:44Z</time>
      </trkpt>
      <trkpt lat="45.64114" lon="4.63826">
        <ele>515.4</ele>
        <time>2021-09-04T18:17:45Z</time>
      </trkpt>
      <trkpt lat="45.64114" lon="4.63829">
        <ele>515.6</ele>
        <time>2021-09-04T18:17:46Z</time>
      </trkpt>
      <trkpt lat="45.64114" lon="4.63831">
        <ele>515.8</ele>
        <time>2021-09-04T18:17:47Z</time>
      </trkpt>
      <trkpt lat="45.64114" lon="4.63835">
        <ele>516.1</ele>
        <time>2021-09-04T18:17:49Z</time>
      </trkpt>
      <trkpt lat="45.64114" lon="4.63836">
        <ele>516.2</ele>
        <time>2021-09-04T18:17:50Z</time>
      </trkpt>
      <trkpt lat="45.64115" lon="4.63839">
        <ele>516.4</ele>
        <time>2021-09-04T18:17:52Z</time>
      </trkpt>
      <trkpt lat="45.64115" lon="4.63841">
        <ele>516.6</ele>
        <time>2021-09-04T18:17:53Z</time>
      </trkpt>
      <trkpt lat="45.64116" lon="4.63845">
        <ele>516.9</ele>
        <time>2021-09-04T18:17:55Z</time>
      </trkpt>
      <trkpt lat="45.64117" lon="4.63849">
        <ele>517.2</ele>
        <time>2021-09-04T18:17:56Z</time>
      </trkpt>
      <trkpt lat="45.64117" lon="4.63851">
        <ele>517.3</ele>
        <time>2021-09-04T18:17:57Z</time>
      </trkpt>
      <trkpt lat="45.64119" lon="4.63857">
        <ele>517.9</ele>
        <time>2021-09-04T18:17:59Z</time>
      </trkpt>
      <trkpt lat="45.6412" lon="4.63859">
        <ele>518</ele>
        <time>2021-09-04T18:18:00Z</time>
      </trkpt>
      <trkpt lat="45.64121" lon="4.6386">
        <ele>518.2</ele>
        <time>2021-09-04T18:18:01Z</time>
      </trkpt>
      <trkpt lat="45.64121" lon="4.63863">
        <ele>518.5</ele>
        <time>2021-09-04T18:18:02Z</time>
      </trkpt>
      <trkpt lat="45.64122" lon="4.63868">
        <ele>518.8</ele>
        <time>2021-09-04T18:18:04Z</time>
      </trkpt>
      <trkpt lat="45.64122" lon="4.63872">
        <ele>519.1</ele>
        <time>2021-09-04T18:18:06Z</time>
      </trkpt>
      <trkpt lat="45.64122" lon="4.63875">
        <ele>519.4</ele>
        <time>2021-09-04T18:18:07Z</time>
      </trkpt>
      <trkpt lat="45.64123" lon="4.63878">
        <ele>519.6</ele>
        <time>2021-09-04T18:18:08Z</time>
      </trkpt>
      <trkpt lat="45.64124" lon="4.63883">
        <ele>519.9</ele>
        <time>2021-09-04T18:18:10Z</time>
      </trkpt>
      <trkpt lat="45.64124" lon="4.63888">
        <ele>520.3</ele>
        <time>2021-09-04T18:18:11Z</time>
      </trkpt>
      <trkpt lat="45.64126" lon="4.63893">
        <ele>520.7</ele>
        <time>2021-09-04T18:18:13Z</time>
      </trkpt>
      <trkpt lat="45.64126" lon="4.63896">
        <ele>520.9</ele>
        <time>2021-09-04T18:18:14Z</time>
      </trkpt>
      <trkpt lat="45.64127" lon="4.63898">
        <ele>521.1</ele>
        <time>2021-09-04T18:18:15Z</time>
      </trkpt>
      <trkpt lat="45.64128" lon="4.63905">
        <ele>521.7</ele>
        <time>2021-09-04T18:18:17Z</time>
      </trkpt>
      <trkpt lat="45.64128" lon="4.63907">
        <ele>521.9</ele>
        <time>2021-09-04T18:18:19Z</time>
      </trkpt>
      <trkpt lat="45.64128" lon="4.6391">
        <ele>522.2</ele>
        <time>2021-09-04T18:18:20Z</time>
      </trkpt>
      <trkpt lat="45.64128" lon="4.63913">
        <ele>522.4</ele>
        <time>2021-09-04T18:18:21Z</time>
      </trkpt>
      <trkpt lat="45.64128" lon="4.63915">
        <ele>522.7</ele>
        <time>2021-09-04T18:18:22Z</time>
      </trkpt>
      <trkpt lat="45.64129" lon="4.6392">
        <ele>523.2</ele>
        <time>2021-09-04T18:18:24Z</time>
      </trkpt>
      <trkpt lat="45.6413" lon="4.63922">
        <ele>523.4</ele>
        <time>2021-09-04T18:18:25Z</time>
      </trkpt>
      <trkpt lat="45.64131" lon="4.63923">
        <ele>523.6</ele>
        <time>2021-09-04T18:18:26Z</time>
      </trkpt>
      <trkpt lat="45.64133" lon="4.63926">
        <ele>524.1</ele>
        <time>2021-09-04T18:18:28Z</time>
      </trkpt>
      <trkpt lat="45.64137" lon="4.63927">
        <ele>524.5</ele>
        <time>2021-09-04T18:18:30Z</time>
      </trkpt>
      <trkpt lat="45.64136" lon="4.63927">
        <ele>524.6</ele>
        <time>2021-09-04T18:18:31Z</time>
      </trkpt>
      <trkpt lat="45.64133" lon="4.63924">
        <ele>525.1</ele>
        <time>2021-09-04T18:18:33Z</time>
      </trkpt>
      <trkpt lat="45.64132" lon="4.63923">
        <ele>525.2</ele>
        <time>2021-09-04T18:18:34Z</time>
      </trkpt>
      <trkpt lat="45.64132" lon="4.63923">
        <ele>525.3</ele>
        <time>2021-09-04T18:18:36Z</time>
      </trkpt>
      <trkpt lat="45.64133" lon="4.63923">
        <ele>525.3</ele>
        <time>2021-09-04T18:18:37Z</time>
      </trkpt>
      <trkpt lat="45.64133" lon="4.63924">
        <ele>525.4</ele>
        <time>2021-09-04T18:18:38Z</time>
      </trkpt>
      <trkpt lat="45.64135" lon="4.63924">
        <ele>525.5</ele>
        <time>2021-09-04T18:18:40Z</time>
      </trkpt>
      <trkpt lat="45.64135" lon="4.63921">
        <ele>525.7</ele>
        <time>2021-09-04T18:18:41Z</time>
      </trkpt>
      <trkpt lat="45.64136" lon="4.63918">
        <ele>525.9</ele>
        <time>2021-09-04T18:18:42Z</time>
      </trkpt>
      <trkpt lat="45.64137" lon="4.63917">
        <ele>526.1</ele>
        <time>2021-09-04T18:18:43Z</time>
      </trkpt>
      <trkpt lat="45.64137" lon="4.63915">
        <ele>526.2</ele>
        <time>2021-09-04T18:18:44Z</time>
      </trkpt>
      <trkpt lat="45.64137" lon="4.63912">
        <ele>526.3</ele>
        <time>2021-09-04T18:18:46Z</time>
      </trkpt>
      <trkpt lat="45.64137" lon="4.63909">
        <ele>526.5</ele>
        <time>2021-09-04T18:18:47Z</time>
      </trkpt>
      <trkpt lat="45.64137" lon="4.63907">
        <ele>526.7</ele>
        <time>2021-09-04T18:18:48Z</time>
      </trkpt>
      <trkpt lat="45.64139" lon="4.63904">
        <ele>526.9</ele>
        <time>2021-09-04T18:18:50Z</time>
      </trkpt>
      <trkpt lat="45.6414" lon="4.63902">
        <ele>527</ele>
        <time>2021-09-04T18:18:52Z</time>
      </trkpt>
      <trkpt lat="45.64141" lon="4.639">
        <ele>527.2</ele>
        <time>2021-09-04T18:18:53Z</time>
      </trkpt>
      <trkpt lat="45.64142" lon="4.63897">
        <ele>527.3</ele>
        <time>2021-09-04T18:18:54Z</time>
      </trkpt>
      <trkpt lat="45.64143" lon="4.63896">
        <ele>527.4</ele>
        <time>2021-09-04T18:18:55Z</time>
      </trkpt>
      <trkpt lat="45.64143" lon="4.63895">
        <ele>527.5</ele>
        <time>2021-09-04T18:18:56Z</time>
      </trkpt>
      <trkpt lat="45.64145" lon="4.63891">
        <ele>527.8</ele>
        <time>2021-09-04T18:18:58Z</time>
      </trkpt>
      <trkpt lat="45.64146" lon="4.63888">
        <ele>527.9</ele>
        <time>2021-09-04T18:18:59Z</time>
      </trkpt>
      <trkpt lat="45.64147" lon="4.63883">
        <ele>528.2</ele>
        <time>2021-09-04T18:19:01Z</time>
      </trkpt>
      <trkpt lat="45.64147" lon="4.63881">
        <ele>528.4</ele>
        <time>2021-09-04T18:19:02Z</time>
      </trkpt>
      <trkpt lat="45.64148" lon="4.63876">
        <ele>528.6</ele>
        <time>2021-09-04T18:19:04Z</time>
      </trkpt>
      <trkpt lat="45.6415" lon="4.63872">
        <ele>528.9</ele>
        <time>2021-09-04T18:19:05Z</time>
      </trkpt>
      <trkpt lat="45.6415" lon="4.6387">
        <ele>529</ele>
        <time>2021-09-04T18:19:06Z</time>
      </trkpt>
      <trkpt lat="45.64152" lon="4.63866">
        <ele>529.4</ele>
        <time>2021-09-04T18:19:08Z</time>
      </trkpt>
      <trkpt lat="45.64155" lon="4.63862">
        <ele>529.7</ele>
        <time>2021-09-04T18:19:09Z</time>
      </trkpt>
      <trkpt lat="45.64156" lon="4.63861">
        <ele>529.8</ele>
        <time>2021-09-04T18:19:10Z</time>
      </trkpt>
      <trkpt lat="45.64158" lon="4.63857">
        <ele>530.1</ele>
        <time>2021-09-04T18:19:12Z</time>
      </trkpt>
      <trkpt lat="45.64158" lon="4.63856">
        <ele>530.2</ele>
        <time>2021-09-04T18:19:13Z</time>
      </trkpt>
      <trkpt lat="45.64161" lon="4.63853">
        <ele>530.6</ele>
        <time>2021-09-04T18:19:15Z</time>
      </trkpt>
      <trkpt lat="45.64164" lon="4.6385">
        <ele>531</ele>
        <time>2021-09-04T18:19:17Z</time>
      </trkpt>
      <trkpt lat="45.64166" lon="4.63847">
        <ele>531.4</ele>
        <time>2021-09-04T18:19:18Z</time>
      </trkpt>
      <trkpt lat="45.64168" lon="4.63843">
        <ele>531.9</ele>
        <time>2021-09-04T18:19:20Z</time>
      </trkpt>
      <trkpt lat="45.64169" lon="4.6384">
        <ele>532.3</ele>
        <time>2021-09-04T18:19:21Z</time>
      </trkpt>
      <trkpt lat="45.64171" lon="4.63837">
        <ele>532.6</ele>
        <time>2021-09-04T18:19:23Z</time>
      </trkpt>
      <trkpt lat="45.64173" lon="4.63834">
        <ele>533.1</ele>
        <time>2021-09-04T18:19:24Z</time>
      </trkpt>
      <trkpt lat="45.64175" lon="4.63833">
        <ele>533.5</ele>
        <time>2021-09-04T18:19:25Z</time>
      </trkpt>
      <trkpt lat="45.64178" lon="4.63834">
        <ele>533.9</ele>
        <time>2021-09-04T18:19:27Z</time>
      </trkpt>
      <trkpt lat="45.64179" lon="4.63837">
        <ele>534.3</ele>
        <time>2021-09-04T18:19:28Z</time>
      </trkpt>
      <trkpt lat="45.6418" lon="4.63839">
        <ele>534.5</ele>
        <time>2021-09-04T18:19:29Z</time>
      </trkpt>
      <trkpt lat="45.6418" lon="4.63841">
        <ele>534.7</ele>
        <time>2021-09-04T18:19:30Z</time>
      </trkpt>
      <trkpt lat="45.6418" lon="4.63843">
        <ele>534.9</ele>
        <time>2021-09-04T18:19:31Z</time>
      </trkpt>
      <trkpt lat="45.6418" lon="4.63845">
        <ele>535.1</ele>
        <time>2021-09-04T18:19:32Z</time>
      </trkpt>
      <trkpt lat="45.6418" lon="4.63849">
        <ele>535.5</ele>
        <time>2021-09-04T18:19:34Z</time>
      </trkpt>
      <trkpt lat="45.6418" lon="4.63853">
        <ele>535.8</ele>
        <time>2021-09-04T18:19:35Z</time>
      </trkpt>
      <trkpt lat="45.6418" lon="4.63855">
        <ele>535.9</ele>
        <time>2021-09-04T18:19:36Z</time>
      </trkpt>
      <trkpt lat="45.64179" lon="4.63857">
        <ele>536.1</ele>
        <time>2021-09-04T18:19:37Z</time>
      </trkpt>
      <trkpt lat="45.64179" lon="4.6386">
        <ele>536.4</ele>
        <time>2021-09-04T18:19:39Z</time>
      </trkpt>
      <trkpt lat="45.64179" lon="4.63863">
        <ele>536.6</ele>
        <time>2021-09-04T18:19:40Z</time>
      </trkpt>
      <trkpt lat="45.6418" lon="4.63866">
        <ele>536.8</ele>
        <time>2021-09-04T18:19:42Z</time>
      </trkpt>
      <trkpt lat="45.6418" lon="4.6387">
        <ele>537</ele>
        <time>2021-09-04T18:19:43Z</time>
      </trkpt>
      <trkpt lat="45.64179" lon="4.63873">
        <ele>537.2</ele>
        <time>2021-09-04T18:19:45Z</time>
      </trkpt>
      <trkpt lat="45.64179" lon="4.63876">
        <ele>537.4</ele>
        <time>2021-09-04T18:19:46Z</time>
      </trkpt>
      <trkpt lat="45.64178" lon="4.63879">
        <ele>537.6</ele>
        <time>2021-09-04T18:19:48Z</time>
      </trkpt>
      <trkpt lat="45.64179" lon="4.63884">
        <ele>537.8</ele>
        <time>2021-09-04T18:19:49Z</time>
      </trkpt>
      <trkpt lat="45.64179" lon="4.63885">
        <ele>537.9</ele>
        <time>2021-09-04T18:19:50Z</time>
      </trkpt>
      <trkpt lat="45.64179" lon="4.6389">
        <ele>538.1</ele>
        <time>2021-09-04T18:19:52Z</time>
      </trkpt>
      <trkpt lat="45.64179" lon="4.63892">
        <ele>538.2</ele>
        <time>2021-09-04T18:19:53Z</time>
      </trkpt>
      <trkpt lat="45.6418" lon="4.63894">
        <ele>538.3</ele>
        <time>2021-09-04T18:19:54Z</time>
      </trkpt>
      <trkpt lat="45.6418" lon="4.63899">
        <ele>538.6</ele>
        <time>2021-09-04T18:19:56Z</time>
      </trkpt>
      <trkpt lat="45.6418" lon="4.63903">
        <ele>538.8</ele>
        <time>2021-09-04T18:19:57Z</time>
      </trkpt>
      <trkpt lat="45.6418" lon="4.63909">
        <ele>539.2</ele>
        <time>2021-09-04T18:19:59Z</time>
      </trkpt>
      <trkpt lat="45.6418" lon="4.63913">
        <ele>539.4</ele>
        <time>2021-09-04T18:20:00Z</time>
      </trkpt>
      <trkpt lat="45.64181" lon="4.63914">
        <ele>539.5</ele>
        <time>2021-09-04T18:20:01Z</time>
      </trkpt>
      <trkpt lat="45.64182" lon="4.63917">
        <ele>539.8</ele>
        <time>2021-09-04T18:20:03Z</time>
      </trkpt>
      <trkpt lat="45.64183" lon="4.63919">
        <ele>539.9</ele>
        <time>2021-09-04T18:20:04Z</time>
      </trkpt>
      <trkpt lat="45.64184" lon="4.6392">
        <ele>540.1</ele>
        <time>2021-09-04T18:20:05Z</time>
      </trkpt>
      <trkpt lat="45.64185" lon="4.63922">
        <ele>540.3</ele>
        <time>2021-09-04T18:20:06Z</time>
      </trkpt>
      <trkpt lat="45.64187" lon="4.63926">
        <ele>540.6</ele>
        <time>2021-09-04T18:20:08Z</time>
      </trkpt>
      <trkpt lat="45.64187" lon="4.63927">
        <ele>540.7</ele>
        <time>2021-09-04T18:20:09Z</time>
      </trkpt>
      <trkpt lat="45.64189" lon="4.63929">
        <ele>540.9</ele>
        <time>2021-09-04T18:20:10Z</time>
      </trkpt>
      <trkpt lat="45.6419" lon="4.63931">
        <ele>541.1</ele>
        <time>2021-09-04T18:20:11Z</time>
      </trkpt>
      <trkpt lat="45.64192" lon="4.63933">
        <ele>541.5</ele>
        <time>2021-09-04T18:20:13Z</time>
      </trkpt>
      <trkpt lat="45.64193" lon="4.63934">
        <ele>541.5</ele>
        <time>2021-09-04T18:20:14Z</time>
      </trkpt>
      <trkpt lat="45.64194" lon="4.63936">
        <ele>541.8</ele>
        <time>2021-09-04T18:20:15Z</time>
      </trkpt>
      <trkpt lat="45.64196" lon="4.63938">
        <ele>542</ele>
        <time>2021-09-04T18:20:17Z</time>
      </trkpt>
      <trkpt lat="45.64197" lon="4.63941">
        <ele>542.3</ele>
        <time>2021-09-04T18:20:18Z</time>
      </trkpt>
      <trkpt lat="45.642" lon="4.63943">
        <ele>542.6</ele>
        <time>2021-09-04T18:20:20Z</time>
      </trkpt>
      <trkpt lat="45.64203" lon="4.63945">
        <ele>543</ele>
        <time>2021-09-04T18:20:22Z</time>
      </trkpt>
      <trkpt lat="45.64204" lon="4.63946">
        <ele>543.1</ele>
        <time>2021-09-04T18:20:23Z</time>
      </trkpt>
      <trkpt lat="45.64205" lon="4.63947">
        <ele>543.4</ele>
        <time>2021-09-04T18:20:24Z</time>
      </trkpt>
      <trkpt lat="45.64208" lon="4.6395">
        <ele>543.7</ele>
        <time>2021-09-04T18:20:26Z</time>
      </trkpt>
      <trkpt lat="45.64208" lon="4.63951">
        <ele>543.8</ele>
        <time>2021-09-04T18:20:27Z</time>
      </trkpt>
      <trkpt lat="45.6421" lon="4.63952">
        <ele>543.9</ele>
        <time>2021-09-04T18:20:28Z</time>
      </trkpt>
      <trkpt lat="45.64211" lon="4.63953">
        <ele>544.1</ele>
        <time>2021-09-04T18:20:29Z</time>
      </trkpt>
      <trkpt lat="45.64213" lon="4.63955">
        <ele>544.3</ele>
        <time>2021-09-04T18:20:30Z</time>
      </trkpt>
      <trkpt lat="45.64215" lon="4.63956">
        <ele>544.5</ele>
        <time>2021-09-04T18:20:32Z</time>
      </trkpt>
      <trkpt lat="45.64217" lon="4.63958">
        <ele>544.7</ele>
        <time>2021-09-04T18:20:33Z</time>
      </trkpt>
      <trkpt lat="45.64219" lon="4.63959">
        <ele>544.9</ele>
        <time>2021-09-04T18:20:35Z</time>
      </trkpt>
      <trkpt lat="45.64222" lon="4.63961">
        <ele>545.1</ele>
        <time>2021-09-04T18:20:36Z</time>
      </trkpt>
      <trkpt lat="45.64223" lon="4.63961">
        <ele>545.2</ele>
        <time>2021-09-04T18:20:37Z</time>
      </trkpt>
      <trkpt lat="45.64225" lon="4.63961">
        <ele>545.4</ele>
        <time>2021-09-04T18:20:38Z</time>
      </trkpt>
      <trkpt lat="45.64226" lon="4.63962">
        <ele>545.5</ele>
        <time>2021-09-04T18:20:39Z</time>
      </trkpt>
      <trkpt lat="45.6423" lon="4.63963">
        <ele>545.9</ele>
        <time>2021-09-04T18:20:41Z</time>
      </trkpt>
      <trkpt lat="45.64232" lon="4.63964">
        <ele>546</ele>
        <time>2021-09-04T18:20:42Z</time>
      </trkpt>
      <trkpt lat="45.64233" lon="4.63964">
        <ele>546.1</ele>
        <time>2021-09-04T18:20:43Z</time>
      </trkpt>
      <trkpt lat="45.64236" lon="4.63966">
        <ele>546.3</ele>
        <time>2021-09-04T18:20:45Z</time>
      </trkpt>
      <trkpt lat="45.64237" lon="4.63966">
        <ele>546.4</ele>
        <time>2021-09-04T18:20:46Z</time>
      </trkpt>
      <trkpt lat="45.64239" lon="4.63967">
        <ele>546.6</ele>
        <time>2021-09-04T18:20:47Z</time>
      </trkpt>
      <trkpt lat="45.64241" lon="4.63968">
        <ele>546.7</ele>
        <time>2021-09-04T18:20:49Z</time>
      </trkpt>
      <trkpt lat="45.64244" lon="4.63968">
        <ele>546.9</ele>
        <time>2021-09-04T18:20:50Z</time>
      </trkpt>
      <trkpt lat="45.64247" lon="4.63969">
        <ele>547.1</ele>
        <time>2021-09-04T18:20:52Z</time>
      </trkpt>
      <trkpt lat="45.6425" lon="4.6397">
        <ele>547.3</ele>
        <time>2021-09-04T18:20:54Z</time>
      </trkpt>
      <trkpt lat="45.64252" lon="4.6397">
        <ele>547.4</ele>
        <time>2021-09-04T18:20:55Z</time>
      </trkpt>
      <trkpt lat="45.64254" lon="4.63971">
        <ele>547.6</ele>
        <time>2021-09-04T18:20:57Z</time>
      </trkpt>
      <trkpt lat="45.64256" lon="4.63971">
        <ele>547.7</ele>
        <time>2021-09-04T18:20:58Z</time>
      </trkpt>
      <trkpt lat="45.64259" lon="4.63972">
        <ele>547.8</ele>
        <time>2021-09-04T18:21:00Z</time>
      </trkpt>
      <trkpt lat="45.64262" lon="4.63973">
        <ele>548</ele>
        <time>2021-09-04T18:21:01Z</time>
      </trkpt>
      <trkpt lat="45.64263" lon="4.63973">
        <ele>548</ele>
        <time>2021-09-04T18:21:02Z</time>
      </trkpt>
      <trkpt lat="45.64265" lon="4.63973">
        <ele>548.1</ele>
        <time>2021-09-04T18:21:03Z</time>
      </trkpt>
      <trkpt lat="45.64268" lon="4.63974">
        <ele>548.3</ele>
        <time>2021-09-04T18:21:05Z</time>
      </trkpt>
      <trkpt lat="45.6427" lon="4.63975">
        <ele>548.4</ele>
        <time>2021-09-04T18:21:06Z</time>
      </trkpt>
      <trkpt lat="45.64272" lon="4.63975">
        <ele>548.5</ele>
        <time>2021-09-04T18:21:08Z</time>
      </trkpt>
      <trkpt lat="45.64275" lon="4.63977">
        <ele>548.7</ele>
        <time>2021-09-04T18:21:09Z</time>
      </trkpt>
      <trkpt lat="45.64276" lon="4.63977">
        <ele>548.7</ele>
        <time>2021-09-04T18:21:10Z</time>
      </trkpt>
      <trkpt lat="45.64279" lon="4.63978">
        <ele>548.9</ele>
        <time>2021-09-04T18:21:12Z</time>
      </trkpt>
      <trkpt lat="45.64282" lon="4.63979">
        <ele>549</ele>
        <time>2021-09-04T18:21:13Z</time>
      </trkpt>
      <trkpt lat="45.64284" lon="4.63979">
        <ele>549.1</ele>
        <time>2021-09-04T18:21:14Z</time>
      </trkpt>
      <trkpt lat="45.64288" lon="4.6398">
        <ele>549.3</ele>
        <time>2021-09-04T18:21:17Z</time>
      </trkpt>
      <trkpt lat="45.64292" lon="4.63982">
        <ele>549.5</ele>
        <time>2021-09-04T18:21:18Z</time>
      </trkpt>
      <trkpt lat="45.64297" lon="4.63983">
        <ele>549.7</ele>
        <time>2021-09-04T18:21:20Z</time>
      </trkpt>
      <trkpt lat="45.64299" lon="4.63984">
        <ele>549.7</ele>
        <time>2021-09-04T18:21:22Z</time>
      </trkpt>
      <trkpt lat="45.643" lon="4.63984">
        <ele>549.8</ele>
        <time>2021-09-04T18:21:23Z</time>
      </trkpt>
      <trkpt lat="45.64304" lon="4.63985">
        <ele>549.9</ele>
        <time>2021-09-04T18:21:25Z</time>
      </trkpt>
      <trkpt lat="45.64308" lon="4.63986">
        <ele>550.1</ele>
        <time>2021-09-04T18:21:27Z</time>
      </trkpt>
      <trkpt lat="45.64312" lon="4.63987">
        <ele>550.2</ele>
        <time>2021-09-04T18:21:29Z</time>
      </trkpt>
      <trkpt lat="45.64315" lon="4.63988">
        <ele>550.2</ele>
        <time>2021-09-04T18:21:31Z</time>
      </trkpt>
      <trkpt lat="45.64319" lon="4.63987">
        <ele>550.4</ele>
        <time>2021-09-04T18:21:33Z</time>
      </trkpt>
      <trkpt lat="45.64322" lon="4.63988">
        <ele>550.4</ele>
        <time>2021-09-04T18:21:34Z</time>
      </trkpt>
      <trkpt lat="45.64323" lon="4.63989">
        <ele>550.5</ele>
        <time>2021-09-04T18:21:35Z</time>
      </trkpt>
      <trkpt lat="45.64325" lon="4.63989">
        <ele>550.5</ele>
        <time>2021-09-04T18:21:36Z</time>
      </trkpt>
      <trkpt lat="45.64327" lon="4.63989">
        <ele>550.6</ele>
        <time>2021-09-04T18:21:38Z</time>
      </trkpt>
      <trkpt lat="45.6433" lon="4.63988">
        <ele>550.6</ele>
        <time>2021-09-04T18:21:39Z</time>
      </trkpt>
      <trkpt lat="45.64331" lon="4.63988">
        <ele>550.7</ele>
        <time>2021-09-04T18:21:40Z</time>
      </trkpt>
      <trkpt lat="45.64334" lon="4.63989">
        <ele>550.7</ele>
        <time>2021-09-04T18:21:42Z</time>
      </trkpt>
      <trkpt lat="45.64337" lon="4.63988">
        <ele>550.7</ele>
        <time>2021-09-04T18:21:43Z</time>
      </trkpt>
      <trkpt lat="45.64342" lon="4.63988">
        <ele>550.8</ele>
        <time>2021-09-04T18:21:45Z</time>
      </trkpt>
      <trkpt lat="45.64347" lon="4.63989">
        <ele>550.8</ele>
        <time>2021-09-04T18:21:47Z</time>
      </trkpt>
      <trkpt lat="45.6435" lon="4.63989">
        <ele>550.8</ele>
        <time>2021-09-04T18:21:48Z</time>
      </trkpt>
      <trkpt lat="45.64354" lon="4.6399">
        <ele>550.7</ele>
        <time>2021-09-04T18:21:50Z</time>
      </trkpt>
      <trkpt lat="45.64358" lon="4.63991">
        <ele>550.7</ele>
        <time>2021-09-04T18:21:51Z</time>
      </trkpt>
      <trkpt lat="45.64359" lon="4.63991">
        <ele>550.7</ele>
        <time>2021-09-04T18:21:52Z</time>
      </trkpt>
      <trkpt lat="45.64362" lon="4.63992">
        <ele>550.7</ele>
        <time>2021-09-04T18:21:53Z</time>
      </trkpt>
      <trkpt lat="45.64367" lon="4.63993">
        <ele>550.5</ele>
        <time>2021-09-04T18:21:55Z</time>
      </trkpt>
      <trkpt lat="45.64371" lon="4.63995">
        <ele>550.4</ele>
        <time>2021-09-04T18:21:56Z</time>
      </trkpt>
      <trkpt lat="45.64374" lon="4.63994">
        <ele>550.3</ele>
        <time>2021-09-04T18:21:57Z</time>
      </trkpt>
      <trkpt lat="45.64377" lon="4.63992">
        <ele>550.2</ele>
        <time>2021-09-04T18:21:58Z</time>
      </trkpt>
      <trkpt lat="45.64379" lon="4.63992">
        <ele>550.2</ele>
        <time>2021-09-04T18:21:59Z</time>
      </trkpt>
      <trkpt lat="45.64384" lon="4.63992">
        <ele>550</ele>
        <time>2021-09-04T18:22:01Z</time>
      </trkpt>
      <trkpt lat="45.6439" lon="4.63992">
        <ele>549.8</ele>
        <time>2021-09-04T18:22:02Z</time>
      </trkpt>
      <trkpt lat="45.64397" lon="4.63992">
        <ele>549.5</ele>
        <time>2021-09-04T18:22:03Z</time>
      </trkpt>
      <trkpt lat="45.64407" lon="4.63993">
        <ele>549</ele>
        <time>2021-09-04T18:22:05Z</time>
      </trkpt>
      <trkpt lat="45.64413" lon="4.63993">
        <ele>548.8</ele>
        <time>2021-09-04T18:22:06Z</time>
      </trkpt>
      <trkpt lat="45.64423" lon="4.63994">
        <ele>548.4</ele>
        <time>2021-09-04T18:22:08Z</time>
      </trkpt>
      <trkpt lat="45.64434" lon="4.63995">
        <ele>548.2</ele>
        <time>2021-09-04T18:22:10Z</time>
      </trkpt>
      <trkpt lat="45.64444" lon="4.63999">
        <ele>548.1</ele>
        <time>2021-09-04T18:22:12Z</time>
      </trkpt>
      <trkpt lat="45.64453" lon="4.64003">
        <ele>548.1</ele>
        <time>2021-09-04T18:22:14Z</time>
      </trkpt>
      <trkpt lat="45.6446" lon="4.64006">
        <ele>548.2</ele>
        <time>2021-09-04T18:22:16Z</time>
      </trkpt>
      <trkpt lat="45.64463" lon="4.64008">
        <ele>548.3</ele>
        <time>2021-09-04T18:22:17Z</time>
      </trkpt>
      <trkpt lat="45.64471" lon="4.64012">
        <ele>548.4</ele>
        <time>2021-09-04T18:22:19Z</time>
      </trkpt>
      <trkpt lat="45.64474" lon="4.64014">
        <ele>548.4</ele>
        <time>2021-09-04T18:22:20Z</time>
      </trkpt>
      <trkpt lat="45.64475" lon="4.64018">
        <ele>548.4</ele>
        <time>2021-09-04T18:22:22Z</time>
      </trkpt>
      <trkpt lat="45.64479" lon="4.64022">
        <ele>548.4</ele>
        <time>2021-09-04T18:22:23Z</time>
      </trkpt>
      <trkpt lat="45.64484" lon="4.64026">
        <ele>548.3</ele>
        <time>2021-09-04T18:22:25Z</time>
      </trkpt>
      <trkpt lat="45.64491" lon="4.64035">
        <ele>548</ele>
        <time>2021-09-04T18:22:26Z</time>
      </trkpt>
      <trkpt lat="45.64493" lon="4.64043">
        <ele>547.7</ele>
        <time>2021-09-04T18:22:27Z</time>
      </trkpt>
      <trkpt lat="45.64495" lon="4.64051">
        <ele>547.3</ele>
        <time>2021-09-04T18:22:28Z</time>
      </trkpt>
      <trkpt lat="45.64498" lon="4.64067">
        <ele>546.6</ele>
        <time>2021-09-04T18:22:30Z</time>
      </trkpt>
      <trkpt lat="45.64498" lon="4.64076">
        <ele>546.4</ele>
        <time>2021-09-04T18:22:31Z</time>
      </trkpt>
      <trkpt lat="45.64499" lon="4.64092">
        <ele>546</ele>
        <time>2021-09-04T18:22:33Z</time>
      </trkpt>
      <trkpt lat="45.64499" lon="4.64099">
        <ele>545.8</ele>
        <time>2021-09-04T18:22:34Z</time>
      </trkpt>
      <trkpt lat="45.64498" lon="4.64113">
        <ele>545.6</ele>
        <time>2021-09-04T18:22:36Z</time>
      </trkpt>
      <trkpt lat="45.64497" lon="4.64127">
        <ele>545.5</ele>
        <time>2021-09-04T18:22:38Z</time>
      </trkpt>
      <trkpt lat="45.64495" lon="4.64141">
        <ele>545.4</ele>
        <time>2021-09-04T18:22:40Z</time>
      </trkpt>
      <trkpt lat="45.64495" lon="4.64147">
        <ele>545.3</ele>
        <time>2021-09-04T18:22:41Z</time>
      </trkpt>
      <trkpt lat="45.64494" lon="4.64154">
        <ele>545.3</ele>
        <time>2021-09-04T18:22:42Z</time>
      </trkpt>
      <trkpt lat="45.64493" lon="4.64158">
        <ele>545.3</ele>
        <time>2021-09-04T18:22:43Z</time>
      </trkpt>
      <trkpt lat="45.64492" lon="4.64171">
        <ele>545.2</ele>
        <time>2021-09-04T18:22:45Z</time>
      </trkpt>
      <trkpt lat="45.6449" lon="4.64185">
        <ele>545</ele>
        <time>2021-09-04T18:22:47Z</time>
      </trkpt>
      <trkpt lat="45.6449" lon="4.64193">
        <ele>544.9</ele>
        <time>2021-09-04T18:22:49Z</time>
      </trkpt>
      <trkpt lat="45.64489" lon="4.64202">
        <ele>544.8</ele>
        <time>2021-09-04T18:22:50Z</time>
      </trkpt>
      <trkpt lat="45.64486" lon="4.64211">
        <ele>544.6</ele>
        <time>2021-09-04T18:22:52Z</time>
      </trkpt>
      <trkpt lat="45.64485" lon="4.64218">
        <ele>544.5</ele>
        <time>2021-09-04T18:22:53Z</time>
      </trkpt>
      <trkpt lat="45.64485" lon="4.64226">
        <ele>544.4</ele>
        <time>2021-09-04T18:22:54Z</time>
      </trkpt>
      <trkpt lat="45.64486" lon="4.64239">
        <ele>544.2</ele>
        <time>2021-09-04T18:22:56Z</time>
      </trkpt>
      <trkpt lat="45.64487" lon="4.64245">
        <ele>544.2</ele>
        <time>2021-09-04T18:22:57Z</time>
      </trkpt>
      <trkpt lat="45.64492" lon="4.64254">
        <ele>544.1</ele>
        <time>2021-09-04T18:22:59Z</time>
      </trkpt>
      <trkpt lat="45.64498" lon="4.64256">
        <ele>544.6</ele>
        <time>2021-09-04T18:23:01Z</time>
      </trkpt>
      <trkpt lat="45.64502" lon="4.64254">
        <ele>544.8</ele>
        <time>2021-09-04T18:23:02Z</time>
      </trkpt>
      <trkpt lat="45.64505" lon="4.64251">
        <ele>545</ele>
        <time>2021-09-04T18:23:03Z</time>
      </trkpt>
      <trkpt lat="45.64508" lon="4.64251">
        <ele>545.1</ele>
        <time>2021-09-04T18:23:04Z</time>
      </trkpt>
      <trkpt lat="45.64512" lon="4.64249">
        <ele>545.3</ele>
        <time>2021-09-04T18:23:06Z</time>
      </trkpt>
      <trkpt lat="45.64515" lon="4.64248">
        <ele>545.4</ele>
        <time>2021-09-04T18:23:07Z</time>
      </trkpt>
      <trkpt lat="45.64519" lon="4.64248">
        <ele>545.5</ele>
        <time>2021-09-04T18:23:08Z</time>
      </trkpt>
      <trkpt lat="45.6452" lon="4.64247">
        <ele>545.6</ele>
        <time>2021-09-04T18:23:09Z</time>
      </trkpt>
      <trkpt lat="45.64523" lon="4.64246">
        <ele>545.7</ele>
        <time>2021-09-04T18:23:11Z</time>
      </trkpt>
      <trkpt lat="45.64526" lon="4.64245">
        <ele>545.7</ele>
        <time>2021-09-04T18:23:12Z</time>
      </trkpt>
      <trkpt lat="45.6453" lon="4.64243">
        <ele>545.7</ele>
        <time>2021-09-04T18:23:13Z</time>
      </trkpt>
      <trkpt lat="45.64532" lon="4.64243">
        <ele>545.7</ele>
        <time>2021-09-04T18:23:14Z</time>
      </trkpt>
      <trkpt lat="45.64534" lon="4.64242">
        <ele>545.7</ele>
        <time>2021-09-04T18:23:15Z</time>
      </trkpt>
      <trkpt lat="45.64538" lon="4.64241">
        <ele>545.7</ele>
        <time>2021-09-04T18:23:17Z</time>
      </trkpt>
      <trkpt lat="45.64541" lon="4.64239">
        <ele>545.5</ele>
        <time>2021-09-04T18:23:18Z</time>
      </trkpt>
      <trkpt lat="45.64543" lon="4.64238">
        <ele>545.5</ele>
        <time>2021-09-04T18:23:19Z</time>
      </trkpt>
      <trkpt lat="45.64546" lon="4.64236">
        <ele>545.3</ele>
        <time>2021-09-04T18:23:21Z</time>
      </trkpt>
      <trkpt lat="45.6455" lon="4.64233">
        <ele>545</ele>
        <time>2021-09-04T18:23:22Z</time>
      </trkpt>
      <trkpt lat="45.64551" lon="4.64231">
        <ele>544.9</ele>
        <time>2021-09-04T18:23:23Z</time>
      </trkpt>
      <trkpt lat="45.64554" lon="4.64225">
        <ele>544.5</ele>
        <time>2021-09-04T18:23:25Z</time>
      </trkpt>
      <trkpt lat="45.64556" lon="4.6422">
        <ele>544.2</ele>
        <time>2021-09-04T18:23:27Z</time>
      </trkpt>
      <trkpt lat="45.64558" lon="4.64217">
        <ele>543.9</ele>
        <time>2021-09-04T18:23:29Z</time>
      </trkpt>
      <trkpt lat="45.64559" lon="4.64214">
        <ele>543.7</ele>
        <time>2021-09-04T18:23:30Z</time>
      </trkpt>
      <trkpt lat="45.64561" lon="4.64209">
        <ele>543.3</ele>
        <time>2021-09-04T18:23:32Z</time>
      </trkpt>
      <trkpt lat="45.64596" lon="4.64159">
        <ele>538.3</ele>
        <time>2021-09-04T18:23:33Z</time>
      </trkpt>
      <trkpt lat="45.64599" lon="4.64152">
        <ele>537.7</ele>
        <time>2021-09-04T18:23:34Z</time>
      </trkpt>
      <trkpt lat="45.64605" lon="4.64138">
        <ele>537</ele>
        <time>2021-09-04T18:23:35Z</time>
      </trkpt>
      <trkpt lat="45.6461" lon="4.64127">
        <ele>536.7</ele>
        <time>2021-09-04T18:23:36Z</time>
      </trkpt>
      <trkpt lat="45.64614" lon="4.64121">
        <ele>536.6</ele>
        <time>2021-09-04T18:23:37Z</time>
      </trkpt>
      <trkpt lat="45.64619" lon="4.6412">
        <ele>536.5</ele>
        <time>2021-09-04T18:23:39Z</time>
      </trkpt>
      <trkpt lat="45.64621" lon="4.64123">
        <ele>536.5</ele>
        <time>2021-09-04T18:23:40Z</time>
      </trkpt>
      <trkpt lat="45.64622" lon="4.64124">
        <ele>536.5</ele>
        <time>2021-09-04T18:23:41Z</time>
      </trkpt>
      <trkpt lat="45.64627" lon="4.64124">
        <ele>536.5</ele>
        <time>2021-09-04T18:23:43Z</time>
      </trkpt>
      <trkpt lat="45.64631" lon="4.64123">
        <ele>536.6</ele>
        <time>2021-09-04T18:23:45Z</time>
      </trkpt>
      <trkpt lat="45.64636" lon="4.64123">
        <ele>536.6</ele>
        <time>2021-09-04T18:23:46Z</time>
      </trkpt>
      <trkpt lat="45.64639" lon="4.64127">
        <ele>536.7</ele>
        <time>2021-09-04T18:23:47Z</time>
      </trkpt>
      <trkpt lat="45.64644" lon="4.64131">
        <ele>536.9</ele>
        <time>2021-09-04T18:23:49Z</time>
      </trkpt>
      <trkpt lat="45.64647" lon="4.64135">
        <ele>537</ele>
        <time>2021-09-04T18:23:50Z</time>
      </trkpt>
      <trkpt lat="45.64652" lon="4.6414">
        <ele>537.3</ele>
        <time>2021-09-04T18:23:52Z</time>
      </trkpt>
      <trkpt lat="45.64655" lon="4.64143">
        <ele>537.6</ele>
        <time>2021-09-04T18:23:53Z</time>
      </trkpt>
      <trkpt lat="45.64658" lon="4.64145">
        <ele>537.8</ele>
        <time>2021-09-04T18:23:54Z</time>
      </trkpt>
      <trkpt lat="45.64662" lon="4.64148">
        <ele>538.1</ele>
        <time>2021-09-04T18:23:56Z</time>
      </trkpt>
      <trkpt lat="45.64665" lon="4.6415">
        <ele>538.3</ele>
        <time>2021-09-04T18:23:57Z</time>
      </trkpt>
      <trkpt lat="45.64667" lon="4.64151">
        <ele>538.6</ele>
        <time>2021-09-04T18:23:58Z</time>
      </trkpt>
      <trkpt lat="45.64671" lon="4.64153">
        <ele>538.8</ele>
        <time>2021-09-04T18:24:00Z</time>
      </trkpt>
      <trkpt lat="45.64674" lon="4.64154">
        <ele>539</ele>
        <time>2021-09-04T18:24:01Z</time>
      </trkpt>
      <trkpt lat="45.64677" lon="4.64154">
        <ele>539.3</ele>
        <time>2021-09-04T18:24:03Z</time>
      </trkpt>
      <trkpt lat="45.64681" lon="4.64154">
        <ele>539.5</ele>
        <time>2021-09-04T18:24:04Z</time>
      </trkpt>
      <trkpt lat="45.64684" lon="4.64154">
        <ele>539.6</ele>
        <time>2021-09-04T18:24:05Z</time>
      </trkpt>
      <trkpt lat="45.64685" lon="4.64154">
        <ele>539.7</ele>
        <time>2021-09-04T18:24:06Z</time>
      </trkpt>
      <trkpt lat="45.64689" lon="4.64152">
        <ele>539.9</ele>
        <time>2021-09-04T18:24:08Z</time>
      </trkpt>
      <trkpt lat="45.64692" lon="4.64152">
        <ele>540</ele>
        <time>2021-09-04T18:24:09Z</time>
      </trkpt>
      <trkpt lat="45.64697" lon="4.6415">
        <ele>540.2</ele>
        <time>2021-09-04T18:24:11Z</time>
      </trkpt>
      <trkpt lat="45.64702" lon="4.6415">
        <ele>540.5</ele>
        <time>2021-09-04T18:24:13Z</time>
      </trkpt>
      <trkpt lat="45.64705" lon="4.64149">
        <ele>540.7</ele>
        <time>2021-09-04T18:24:14Z</time>
      </trkpt>
      <trkpt lat="45.64707" lon="4.64148">
        <ele>540.7</ele>
        <time>2021-09-04T18:24:15Z</time>
      </trkpt>
      <trkpt lat="45.64709" lon="4.64147">
        <ele>540.8</ele>
        <time>2021-09-04T18:24:17Z</time>
      </trkpt>
      <trkpt lat="45.64713" lon="4.64145">
        <ele>541</ele>
        <time>2021-09-04T18:24:18Z</time>
      </trkpt>
      <trkpt lat="45.64717" lon="4.64142">
        <ele>541.3</ele>
        <time>2021-09-04T18:24:20Z</time>
      </trkpt>
      <trkpt lat="45.64721" lon="4.6414">
        <ele>541.5</ele>
        <time>2021-09-04T18:24:22Z</time>
      </trkpt>
      <trkpt lat="45.64724" lon="4.64139">
        <ele>541.6</ele>
        <time>2021-09-04T18:24:23Z</time>
      </trkpt>
      <trkpt lat="45.64726" lon="4.64138">
        <ele>541.7</ele>
        <time>2021-09-04T18:24:24Z</time>
      </trkpt>
      <trkpt lat="45.64729" lon="4.64137">
        <ele>541.9</ele>
        <time>2021-09-04T18:24:26Z</time>
      </trkpt>
      <trkpt lat="45.64732" lon="4.64135">
        <ele>542.1</ele>
        <time>2021-09-04T18:24:27Z</time>
      </trkpt>
      <trkpt lat="45.64735" lon="4.64134">
        <ele>542.2</ele>
        <time>2021-09-04T18:24:28Z</time>
      </trkpt>
      <trkpt lat="45.64736" lon="4.64134">
        <ele>542.3</ele>
        <time>2021-09-04T18:24:29Z</time>
      </trkpt>
      <trkpt lat="45.64738" lon="4.64133">
        <ele>542.4</ele>
        <time>2021-09-04T18:24:30Z</time>
      </trkpt>
      <trkpt lat="45.64742" lon="4.64131">
        <ele>542.6</ele>
        <time>2021-09-04T18:24:32Z</time>
      </trkpt>
      <trkpt lat="45.64747" lon="4.6413">
        <ele>542.9</ele>
        <time>2021-09-04T18:24:34Z</time>
      </trkpt>
      <trkpt lat="45.64749" lon="4.64128">
        <ele>543</ele>
        <time>2021-09-04T18:24:35Z</time>
      </trkpt>
      <trkpt lat="45.64753" lon="4.64127">
        <ele>543.2</ele>
        <time>2021-09-04T18:24:37Z</time>
      </trkpt>
      <trkpt lat="45.64755" lon="4.64126">
        <ele>543.3</ele>
        <time>2021-09-04T18:24:38Z</time>
      </trkpt>
      <trkpt lat="45.64759" lon="4.64125">
        <ele>543.5</ele>
        <time>2021-09-04T18:24:40Z</time>
      </trkpt>
      <trkpt lat="45.64761" lon="4.64123">
        <ele>543.6</ele>
        <time>2021-09-04T18:24:41Z</time>
      </trkpt>
      <trkpt lat="45.64765" lon="4.64122">
        <ele>543.7</ele>
        <time>2021-09-04T18:24:43Z</time>
      </trkpt>
      <trkpt lat="45.64768" lon="4.64121">
        <ele>543.9</ele>
        <time>2021-09-04T18:24:44Z</time>
      </trkpt>
      <trkpt lat="45.64772" lon="4.64119">
        <ele>544.1</ele>
        <time>2021-09-04T18:24:46Z</time>
      </trkpt>
      <trkpt lat="45.64774" lon="4.64118">
        <ele>544.2</ele>
        <time>2021-09-04T18:24:47Z</time>
      </trkpt>
      <trkpt lat="45.64778" lon="4.64118">
        <ele>544.4</ele>
        <time>2021-09-04T18:24:49Z</time>
      </trkpt>
      <trkpt lat="45.64782" lon="4.64118">
        <ele>544.6</ele>
        <time>2021-09-04T18:24:51Z</time>
      </trkpt>
      <trkpt lat="45.64785" lon="4.6412">
        <ele>544.8</ele>
        <time>2021-09-04T18:24:53Z</time>
      </trkpt>
      <trkpt lat="45.64788" lon="4.64121">
        <ele>544.9</ele>
        <time>2021-09-04T18:24:54Z</time>
      </trkpt>
      <trkpt lat="45.64792" lon="4.64122">
        <ele>545.1</ele>
        <time>2021-09-04T18:24:56Z</time>
      </trkpt>
      <trkpt lat="45.64796" lon="4.64124">
        <ele>545.2</ele>
        <time>2021-09-04T18:24:57Z</time>
      </trkpt>
      <trkpt lat="45.64798" lon="4.64125">
        <ele>545.3</ele>
        <time>2021-09-04T18:24:58Z</time>
      </trkpt>
      <trkpt lat="45.64802" lon="4.64128">
        <ele>545.4</ele>
        <time>2021-09-04T18:25:00Z</time>
      </trkpt>
      <trkpt lat="45.64806" lon="4.64131">
        <ele>545.5</ele>
        <time>2021-09-04T18:25:02Z</time>
      </trkpt>
      <trkpt lat="45.64809" lon="4.64131">
        <ele>545.6</ele>
        <time>2021-09-04T18:25:03Z</time>
      </trkpt>
      <trkpt lat="45.64812" lon="4.64132">
        <ele>545.7</ele>
        <time>2021-09-04T18:25:04Z</time>
      </trkpt>
      <trkpt lat="45.64816" lon="4.64134">
        <ele>545.8</ele>
        <time>2021-09-04T18:25:06Z</time>
      </trkpt>
      <trkpt lat="45.6482" lon="4.64135">
        <ele>545.8</ele>
        <time>2021-09-04T18:25:08Z</time>
      </trkpt>
      <trkpt lat="45.64822" lon="4.64137">
        <ele>545.9</ele>
        <time>2021-09-04T18:25:09Z</time>
      </trkpt>
      <trkpt lat="45.64827" lon="4.64138">
        <ele>546</ele>
        <time>2021-09-04T18:25:11Z</time>
      </trkpt>
      <trkpt lat="45.6483" lon="4.64139">
        <ele>546</ele>
        <time>2021-09-04T18:25:13Z</time>
      </trkpt>
      <trkpt lat="45.64834" lon="4.64141">
        <ele>546.1</ele>
        <time>2021-09-04T18:25:14Z</time>
      </trkpt>
      <trkpt lat="45.64836" lon="4.64142">
        <ele>546.2</ele>
        <time>2021-09-04T18:25:15Z</time>
      </trkpt>
      <trkpt lat="45.64841" lon="4.64144">
        <ele>546.3</ele>
        <time>2021-09-04T18:25:17Z</time>
      </trkpt>
      <trkpt lat="45.64844" lon="4.64145">
        <ele>546.4</ele>
        <time>2021-09-04T18:25:18Z</time>
      </trkpt>
      <trkpt lat="45.64849" lon="4.64147">
        <ele>546.7</ele>
        <time>2021-09-04T18:25:20Z</time>
      </trkpt>
      <trkpt lat="45.64852" lon="4.64149">
        <ele>546.7</ele>
        <time>2021-09-04T18:25:21Z</time>
      </trkpt>
      <trkpt lat="45.64855" lon="4.64153">
        <ele>546.9</ele>
        <time>2021-09-04T18:25:23Z</time>
      </trkpt>
      <trkpt lat="45.64858" lon="4.64158">
        <ele>547.2</ele>
        <time>2021-09-04T18:25:25Z</time>
      </trkpt>
      <trkpt lat="45.64861" lon="4.64163">
        <ele>547.4</ele>
        <time>2021-09-04T18:25:26Z</time>
      </trkpt>
      <trkpt lat="45.64864" lon="4.64169">
        <ele>547.7</ele>
        <time>2021-09-04T18:25:28Z</time>
      </trkpt>
      <trkpt lat="45.64866" lon="4.64174">
        <ele>548</ele>
        <time>2021-09-04T18:25:30Z</time>
      </trkpt>
      <trkpt lat="45.64868" lon="4.6418">
        <ele>548.3</ele>
        <time>2021-09-04T18:25:31Z</time>
      </trkpt>
      <trkpt lat="45.64869" lon="4.64186">
        <ele>548.8</ele>
        <time>2021-09-04T18:25:33Z</time>
      </trkpt>
      <trkpt lat="45.64872" lon="4.64191">
        <ele>549.2</ele>
        <time>2021-09-04T18:25:35Z</time>
      </trkpt>
      <trkpt lat="45.64874" lon="4.64196">
        <ele>549.5</ele>
        <time>2021-09-04T18:25:36Z</time>
      </trkpt>
      <trkpt lat="45.64876" lon="4.642">
        <ele>549.8</ele>
        <time>2021-09-04T18:25:37Z</time>
      </trkpt>
      <trkpt lat="45.64876" lon="4.64202">
        <ele>549.9</ele>
        <time>2021-09-04T18:25:38Z</time>
      </trkpt>
      <trkpt lat="45.64879" lon="4.64206">
        <ele>550.3</ele>
        <time>2021-09-04T18:25:40Z</time>
      </trkpt>
      <trkpt lat="45.6488" lon="4.64212">
        <ele>550.6</ele>
        <time>2021-09-04T18:25:42Z</time>
      </trkpt>
      <trkpt lat="45.64881" lon="4.64217">
        <ele>550.9</ele>
        <time>2021-09-04T18:25:44Z</time>
      </trkpt>
      <trkpt lat="45.64883" lon="4.64222">
        <ele>551.2</ele>
        <time>2021-09-04T18:25:46Z</time>
      </trkpt>
      <trkpt lat="45.64883" lon="4.64226">
        <ele>551.4</ele>
        <time>2021-09-04T18:25:47Z</time>
      </trkpt>
      <trkpt lat="45.64884" lon="4.6423">
        <ele>551.6</ele>
        <time>2021-09-04T18:25:49Z</time>
      </trkpt>
      <trkpt lat="45.64886" lon="4.64235">
        <ele>551.8</ele>
        <time>2021-09-04T18:25:50Z</time>
      </trkpt>
      <trkpt lat="45.64889" lon="4.6424">
        <ele>552.2</ele>
        <time>2021-09-04T18:25:52Z</time>
      </trkpt>
      <trkpt lat="45.64892" lon="4.64243">
        <ele>552.5</ele>
        <time>2021-09-04T18:25:54Z</time>
      </trkpt>
      <trkpt lat="45.64896" lon="4.64245">
        <ele>552.8</ele>
        <time>2021-09-04T18:25:56Z</time>
      </trkpt>
      <trkpt lat="45.649" lon="4.64246">
        <ele>553.1</ele>
        <time>2021-09-04T18:25:57Z</time>
      </trkpt>
      <trkpt lat="45.64901" lon="4.64246">
        <ele>553.2</ele>
        <time>2021-09-04T18:25:58Z</time>
      </trkpt>
      <trkpt lat="45.64905" lon="4.64245">
        <ele>553.5</ele>
        <time>2021-09-04T18:26:00Z</time>
      </trkpt>
      <trkpt lat="45.64907" lon="4.64245">
        <ele>553.6</ele>
        <time>2021-09-04T18:26:01Z</time>
      </trkpt>
      <trkpt lat="45.64911" lon="4.64245">
        <ele>553.9</ele>
        <time>2021-09-04T18:26:03Z</time>
      </trkpt>
      <trkpt lat="45.64914" lon="4.64245">
        <ele>554.2</ele>
        <time>2021-09-04T18:26:05Z</time>
      </trkpt>
      <trkpt lat="45.64917" lon="4.64245">
        <ele>554.4</ele>
        <time>2021-09-04T18:26:06Z</time>
      </trkpt>
      <trkpt lat="45.64921" lon="4.64243">
        <ele>554.6</ele>
        <time>2021-09-04T18:26:07Z</time>
      </trkpt>
      <trkpt lat="45.64922" lon="4.64243">
        <ele>554.7</ele>
        <time>2021-09-04T18:26:08Z</time>
      </trkpt>
      <trkpt lat="45.64926" lon="4.64242">
        <ele>554.9</ele>
        <time>2021-09-04T18:26:10Z</time>
      </trkpt>
      <trkpt lat="45.64929" lon="4.64241">
        <ele>555.1</ele>
        <time>2021-09-04T18:26:11Z</time>
      </trkpt>
      <trkpt lat="45.6493" lon="4.6424">
        <ele>555.2</ele>
        <time>2021-09-04T18:26:12Z</time>
      </trkpt>
      <trkpt lat="45.64934" lon="4.64239">
        <ele>555.4</ele>
        <time>2021-09-04T18:26:13Z</time>
      </trkpt>
      <trkpt lat="45.64935" lon="4.64239">
        <ele>555.4</ele>
        <time>2021-09-04T18:26:14Z</time>
      </trkpt>
      <trkpt lat="45.64939" lon="4.64239">
        <ele>555.6</ele>
        <time>2021-09-04T18:26:16Z</time>
      </trkpt>
      <trkpt lat="45.64943" lon="4.6424">
        <ele>555.3</ele>
        <time>2021-09-04T18:26:17Z</time>
      </trkpt>
      <trkpt lat="45.64944" lon="4.64241">
        <ele>555.2</ele>
        <time>2021-09-04T18:26:18Z</time>
      </trkpt>
      <trkpt lat="45.64947" lon="4.64244">
        <ele>555</ele>
        <time>2021-09-04T18:26:19Z</time>
      </trkpt>
      <trkpt lat="45.64948" lon="4.64246">
        <ele>554.9</ele>
        <time>2021-09-04T18:26:20Z</time>
      </trkpt>
      <trkpt lat="45.64952" lon="4.64254">
        <ele>554.4</ele>
        <time>2021-09-04T18:26:22Z</time>
      </trkpt>
      <trkpt lat="45.64955" lon="4.64261">
        <ele>554</ele>
        <time>2021-09-04T18:26:24Z</time>
      </trkpt>
      <trkpt lat="45.64959" lon="4.64268">
        <ele>553.5</ele>
        <time>2021-09-04T18:26:25Z</time>
      </trkpt>
      <trkpt lat="45.64963" lon="4.64279">
        <ele>552.8</ele>
        <time>2021-09-04T18:26:26Z</time>
      </trkpt>
      <trkpt lat="45.6497" lon="4.64294">
        <ele>551.6</ele>
        <time>2021-09-04T18:26:28Z</time>
      </trkpt>
      <trkpt lat="45.64978" lon="4.64312">
        <ele>550.2</ele>
        <time>2021-09-04T18:26:30Z</time>
      </trkpt>
      <trkpt lat="45.64982" lon="4.64321">
        <ele>549.4</ele>
        <time>2021-09-04T18:26:31Z</time>
      </trkpt>
      <trkpt lat="45.64992" lon="4.64341">
        <ele>547.8</ele>
        <time>2021-09-04T18:26:33Z</time>
      </trkpt>
      <trkpt lat="45.65002" lon="4.64362">
        <ele>546.4</ele>
        <time>2021-09-04T18:26:35Z</time>
      </trkpt>
      <trkpt lat="45.65008" lon="4.64373">
        <ele>545.7</ele>
        <time>2021-09-04T18:26:36Z</time>
      </trkpt>
      <trkpt lat="45.65021" lon="4.64392">
        <ele>544.7</ele>
        <time>2021-09-04T18:26:38Z</time>
      </trkpt>
      <trkpt lat="45.65034" lon="4.64411">
        <ele>544</ele>
        <time>2021-09-04T18:26:40Z</time>
      </trkpt>
      <trkpt lat="45.6504" lon="4.6442">
        <ele>543.9</ele>
        <time>2021-09-04T18:26:41Z</time>
      </trkpt>
      <trkpt lat="45.6505" lon="4.64439">
        <ele>543.7</ele>
        <time>2021-09-04T18:26:43Z</time>
      </trkpt>
      <trkpt lat="45.65054" lon="4.64449">
        <ele>543.6</ele>
        <time>2021-09-04T18:26:44Z</time>
      </trkpt>
      <trkpt lat="45.65058" lon="4.64459">
        <ele>543.6</ele>
        <time>2021-09-04T18:26:45Z</time>
      </trkpt>
      <trkpt lat="45.65066" lon="4.64477">
        <ele>543.8</ele>
        <time>2021-09-04T18:26:47Z</time>
      </trkpt>
      <trkpt lat="45.6507" lon="4.64485">
        <ele>543.9</ele>
        <time>2021-09-04T18:26:48Z</time>
      </trkpt>
      <trkpt lat="45.65077" lon="4.645">
        <ele>544.1</ele>
        <time>2021-09-04T18:26:50Z</time>
      </trkpt>
      <trkpt lat="45.65081" lon="4.64506">
        <ele>544.2</ele>
        <time>2021-09-04T18:26:51Z</time>
      </trkpt>
      <trkpt lat="45.65087" lon="4.64519">
        <ele>544.3</ele>
        <time>2021-09-04T18:26:53Z</time>
      </trkpt>
      <trkpt lat="45.65092" lon="4.64532">
        <ele>544.2</ele>
        <time>2021-09-04T18:26:55Z</time>
      </trkpt>
      <trkpt lat="45.65099" lon="4.64541">
        <ele>544.2</ele>
        <time>2021-09-04T18:26:57Z</time>
      </trkpt>
      <trkpt lat="45.65104" lon="4.6455">
        <ele>544.2</ele>
        <time>2021-09-04T18:26:59Z</time>
      </trkpt>
      <trkpt lat="45.65107" lon="4.64556">
        <ele>544.2</ele>
        <time>2021-09-04T18:27:00Z</time>
      </trkpt>
      <trkpt lat="45.65113" lon="4.64568">
        <ele>544.3</ele>
        <time>2021-09-04T18:27:02Z</time>
      </trkpt>
      <trkpt lat="45.65116" lon="4.64575">
        <ele>544.3</ele>
        <time>2021-09-04T18:27:03Z</time>
      </trkpt>
      <trkpt lat="45.65121" lon="4.64588">
        <ele>544.4</ele>
        <time>2021-09-04T18:27:05Z</time>
      </trkpt>
      <trkpt lat="45.65124" lon="4.64594">
        <ele>544.5</ele>
        <time>2021-09-04T18:27:06Z</time>
      </trkpt>
      <trkpt lat="45.6513" lon="4.64606">
        <ele>544.6</ele>
        <time>2021-09-04T18:27:08Z</time>
      </trkpt>
      <trkpt lat="45.65135" lon="4.64618">
        <ele>544.7</ele>
        <time>2021-09-04T18:27:10Z</time>
      </trkpt>
      <trkpt lat="45.65138" lon="4.64624">
        <ele>544.7</ele>
        <time>2021-09-04T18:27:11Z</time>
      </trkpt>
      <trkpt lat="45.65143" lon="4.64636">
        <ele>544.8</ele>
        <time>2021-09-04T18:27:13Z</time>
      </trkpt>
      <trkpt lat="45.65148" lon="4.64649">
        <ele>545</ele>
        <time>2021-09-04T18:27:15Z</time>
      </trkpt>
      <trkpt lat="45.65153" lon="4.64661">
        <ele>545.2</ele>
        <time>2021-09-04T18:27:17Z</time>
      </trkpt>
      <trkpt lat="45.65158" lon="4.64672">
        <ele>545.4</ele>
        <time>2021-09-04T18:27:19Z</time>
      </trkpt>
      <trkpt lat="45.65163" lon="4.64684">
        <ele>545.5</ele>
        <time>2021-09-04T18:27:21Z</time>
      </trkpt>
      <trkpt lat="45.65165" lon="4.6469">
        <ele>545.6</ele>
        <time>2021-09-04T18:27:22Z</time>
      </trkpt>
      <trkpt lat="45.65167" lon="4.64696">
        <ele>545.7</ele>
        <time>2021-09-04T18:27:23Z</time>
      </trkpt>
      <trkpt lat="45.65169" lon="4.64702">
        <ele>545.8</ele>
        <time>2021-09-04T18:27:24Z</time>
      </trkpt>
      <trkpt lat="45.65172" lon="4.64712">
        <ele>546</ele>
        <time>2021-09-04T18:27:26Z</time>
      </trkpt>
      <trkpt lat="45.65173" lon="4.64718">
        <ele>546.1</ele>
        <time>2021-09-04T18:27:27Z</time>
      </trkpt>
      <trkpt lat="45.65175" lon="4.64728">
        <ele>546.3</ele>
        <time>2021-09-04T18:27:29Z</time>
      </trkpt>
      <trkpt lat="45.65177" lon="4.64739">
        <ele>546.6</ele>
        <time>2021-09-04T18:27:31Z</time>
      </trkpt>
      <trkpt lat="45.65178" lon="4.64745">
        <ele>546.7</ele>
        <time>2021-09-04T18:27:33Z</time>
      </trkpt>
      <trkpt lat="45.6518" lon="4.64755">
        <ele>546.9</ele>
        <time>2021-09-04T18:27:34Z</time>
      </trkpt>
      <trkpt lat="45.65181" lon="4.64761">
        <ele>547</ele>
        <time>2021-09-04T18:27:35Z</time>
      </trkpt>
      <trkpt lat="45.65183" lon="4.64769">
        <ele>547.1</ele>
        <time>2021-09-04T18:27:37Z</time>
      </trkpt>
      <trkpt lat="45.65186" lon="4.64776">
        <ele>547.1</ele>
        <time>2021-09-04T18:27:38Z</time>
      </trkpt>
      <trkpt lat="45.65192" lon="4.64784">
        <ele>547.2</ele>
        <time>2021-09-04T18:27:40Z</time>
      </trkpt>
      <trkpt lat="45.65195" lon="4.64788">
        <ele>547.2</ele>
        <time>2021-09-04T18:27:41Z</time>
      </trkpt>
      <trkpt lat="45.65199" lon="4.64792">
        <ele>547.3</ele>
        <time>2021-09-04T18:27:43Z</time>
      </trkpt>
      <trkpt lat="45.65204" lon="4.64798">
        <ele>547.3</ele>
        <time>2021-09-04T18:27:44Z</time>
      </trkpt>
      <trkpt lat="45.65208" lon="4.64802">
        <ele>547.4</ele>
        <time>2021-09-04T18:27:45Z</time>
      </trkpt>
      <trkpt lat="45.65211" lon="4.64806">
        <ele>547.5</ele>
        <time>2021-09-04T18:27:46Z</time>
      </trkpt>
      <trkpt lat="45.65217" lon="4.64812">
        <ele>547.6</ele>
        <time>2021-09-04T18:27:48Z</time>
      </trkpt>
      <trkpt lat="45.65223" lon="4.64818">
        <ele>547.8</ele>
        <time>2021-09-04T18:27:50Z</time>
      </trkpt>
      <trkpt lat="45.65227" lon="4.64822">
        <ele>547.9</ele>
        <time>2021-09-04T18:27:51Z</time>
      </trkpt>
      <trkpt lat="45.65233" lon="4.64829">
        <ele>548</ele>
        <time>2021-09-04T18:27:53Z</time>
      </trkpt>
      <trkpt lat="45.65238" lon="4.64836">
        <ele>548.2</ele>
        <time>2021-09-04T18:27:55Z</time>
      </trkpt>
      <trkpt lat="45.65243" lon="4.64841">
        <ele>548.3</ele>
        <time>2021-09-04T18:27:56Z</time>
      </trkpt>
      <trkpt lat="45.65245" lon="4.64845">
        <ele>548.4</ele>
        <time>2021-09-04T18:27:57Z</time>
      </trkpt>
      <trkpt lat="45.65251" lon="4.64851">
        <ele>548.6</ele>
        <time>2021-09-04T18:27:59Z</time>
      </trkpt>
      <trkpt lat="45.65254" lon="4.64855">
        <ele>548.7</ele>
        <time>2021-09-04T18:28:00Z</time>
      </trkpt>
      <trkpt lat="45.65257" lon="4.64859">
        <ele>548.8</ele>
        <time>2021-09-04T18:28:01Z</time>
      </trkpt>
      <trkpt lat="45.6526" lon="4.64863">
        <ele>549</ele>
        <time>2021-09-04T18:28:02Z</time>
      </trkpt>
      <trkpt lat="45.65265" lon="4.64869">
        <ele>549.1</ele>
        <time>2021-09-04T18:28:04Z</time>
      </trkpt>
      <trkpt lat="45.65268" lon="4.64874">
        <ele>549.3</ele>
        <time>2021-09-04T18:28:05Z</time>
      </trkpt>
      <trkpt lat="45.65271" lon="4.64878">
        <ele>549.4</ele>
        <time>2021-09-04T18:28:06Z</time>
      </trkpt>
      <trkpt lat="45.65274" lon="4.64881">
        <ele>549.5</ele>
        <time>2021-09-04T18:28:07Z</time>
      </trkpt>
      <trkpt lat="45.65277" lon="4.64885">
        <ele>549.6</ele>
        <time>2021-09-04T18:28:08Z</time>
      </trkpt>
      <trkpt lat="45.65283" lon="4.64891">
        <ele>549.9</ele>
        <time>2021-09-04T18:28:10Z</time>
      </trkpt>
      <trkpt lat="45.65287" lon="4.64894">
        <ele>550</ele>
        <time>2021-09-04T18:28:11Z</time>
      </trkpt>
      <trkpt lat="45.6529" lon="4.64897">
        <ele>550.1</ele>
        <time>2021-09-04T18:28:12Z</time>
      </trkpt>
      <trkpt lat="45.65294" lon="4.649">
        <ele>550.3</ele>
        <time>2021-09-04T18:28:14Z</time>
      </trkpt>
      <trkpt lat="45.65299" lon="4.64904">
        <ele>550.6</ele>
        <time>2021-09-04T18:28:15Z</time>
      </trkpt>
      <trkpt lat="45.65302" lon="4.64908">
        <ele>550.7</ele>
        <time>2021-09-04T18:28:16Z</time>
      </trkpt>
      <trkpt lat="45.65305" lon="4.64915">
        <ele>550.9</ele>
        <time>2021-09-04T18:28:18Z</time>
      </trkpt>
      <trkpt lat="45.65308" lon="4.64918">
        <ele>551</ele>
        <time>2021-09-04T18:28:19Z</time>
      </trkpt>
      <trkpt lat="45.65311" lon="4.64921">
        <ele>551.1</ele>
        <time>2021-09-04T18:28:20Z</time>
      </trkpt>
      <trkpt lat="45.65313" lon="4.64923">
        <ele>551.3</ele>
        <time>2021-09-04T18:28:21Z</time>
      </trkpt>
      <trkpt lat="45.65318" lon="4.64929">
        <ele>551.5</ele>
        <time>2021-09-04T18:28:23Z</time>
      </trkpt>
      <trkpt lat="45.65322" lon="4.64932">
        <ele>551.6</ele>
        <time>2021-09-04T18:28:24Z</time>
      </trkpt>
      <trkpt lat="45.65324" lon="4.64935">
        <ele>551.8</ele>
        <time>2021-09-04T18:28:25Z</time>
      </trkpt>
      <trkpt lat="45.65327" lon="4.64937">
        <ele>551.9</ele>
        <time>2021-09-04T18:28:26Z</time>
      </trkpt>
      <trkpt lat="45.6533" lon="4.64941">
        <ele>552</ele>
        <time>2021-09-04T18:28:28Z</time>
      </trkpt>
      <trkpt lat="45.65334" lon="4.64946">
        <ele>552.1</ele>
        <time>2021-09-04T18:28:29Z</time>
      </trkpt>
      <trkpt lat="45.65339" lon="4.6495">
        <ele>552.3</ele>
        <time>2021-09-04T18:28:31Z</time>
      </trkpt>
      <trkpt lat="45.65343" lon="4.64955">
        <ele>552.4</ele>
        <time>2021-09-04T18:28:33Z</time>
      </trkpt>
      <trkpt lat="45.65347" lon="4.64959">
        <ele>552.5</ele>
        <time>2021-09-04T18:28:34Z</time>
      </trkpt>
      <trkpt lat="45.6535" lon="4.64962">
        <ele>552.5</ele>
        <time>2021-09-04T18:28:36Z</time>
      </trkpt>
      <trkpt lat="45.65355" lon="4.64966">
        <ele>552.5</ele>
        <time>2021-09-04T18:28:37Z</time>
      </trkpt>
      <trkpt lat="45.65357" lon="4.64969">
        <ele>552.5</ele>
        <time>2021-09-04T18:28:38Z</time>
      </trkpt>
      <trkpt lat="45.65361" lon="4.64973">
        <ele>552.5</ele>
        <time>2021-09-04T18:28:40Z</time>
      </trkpt>
      <trkpt lat="45.65363" lon="4.64975">
        <ele>552.5</ele>
        <time>2021-09-04T18:28:41Z</time>
      </trkpt>
      <trkpt lat="45.65366" lon="4.64978">
        <ele>552.4</ele>
        <time>2021-09-04T18:28:42Z</time>
      </trkpt>
      <trkpt lat="45.65371" lon="4.64983">
        <ele>552.2</ele>
        <time>2021-09-04T18:28:44Z</time>
      </trkpt>
      <trkpt lat="45.65374" lon="4.64987">
        <ele>552.1</ele>
        <time>2021-09-04T18:28:45Z</time>
      </trkpt>
      <trkpt lat="45.65375" lon="4.64988">
        <ele>552.1</ele>
        <time>2021-09-04T18:28:46Z</time>
      </trkpt>
      <trkpt lat="45.65377" lon="4.64991">
        <ele>551.9</ele>
        <time>2021-09-04T18:28:47Z</time>
      </trkpt>
      <trkpt lat="45.65382" lon="4.64997">
        <ele>551.6</ele>
        <time>2021-09-04T18:28:49Z</time>
      </trkpt>
      <trkpt lat="45.65385" lon="4.65002">
        <ele>551.3</ele>
        <time>2021-09-04T18:28:50Z</time>
      </trkpt>
      <trkpt lat="45.65388" lon="4.65005">
        <ele>551.1</ele>
        <time>2021-09-04T18:28:51Z</time>
      </trkpt>
      <trkpt lat="45.65395" lon="4.65013">
        <ele>550.5</ele>
        <time>2021-09-04T18:28:53Z</time>
      </trkpt>
      <trkpt lat="45.65402" lon="4.65025">
        <ele>549.8</ele>
        <time>2021-09-04T18:28:55Z</time>
      </trkpt>
      <trkpt lat="45.65407" lon="4.65031">
        <ele>549.4</ele>
        <time>2021-09-04T18:28:56Z</time>
      </trkpt>
      <trkpt lat="45.65416" lon="4.65043">
        <ele>548.5</ele>
        <time>2021-09-04T18:28:58Z</time>
      </trkpt>
      <trkpt lat="45.65421" lon="4.6505">
        <ele>548</ele>
        <time>2021-09-04T18:28:59Z</time>
      </trkpt>
      <trkpt lat="45.6543" lon="4.65064">
        <ele>547.1</ele>
        <time>2021-09-04T18:29:01Z</time>
      </trkpt>
      <trkpt lat="45.65435" lon="4.65071">
        <ele>546.5</ele>
        <time>2021-09-04T18:29:02Z</time>
      </trkpt>
      <trkpt lat="45.65441" lon="4.65078">
        <ele>546</ele>
        <time>2021-09-04T18:29:03Z</time>
      </trkpt>
      <trkpt lat="45.65446" lon="4.65086">
        <ele>545.4</ele>
        <time>2021-09-04T18:29:04Z</time>
      </trkpt>
      <trkpt lat="45.65458" lon="4.65103">
        <ele>544</ele>
        <time>2021-09-04T18:29:06Z</time>
      </trkpt>
      <trkpt lat="45.6547" lon="4.65119">
        <ele>542.6</ele>
        <time>2021-09-04T18:29:08Z</time>
      </trkpt>
      <trkpt lat="45.65476" lon="4.65126">
        <ele>541.9</ele>
        <time>2021-09-04T18:29:09Z</time>
      </trkpt>
      <trkpt lat="45.65482" lon="4.65134">
        <ele>541.2</ele>
        <time>2021-09-04T18:29:10Z</time>
      </trkpt>
      <trkpt lat="45.65495" lon="4.65148">
        <ele>539.7</ele>
        <time>2021-09-04T18:29:12Z</time>
      </trkpt>
      <trkpt lat="45.65507" lon="4.65163">
        <ele>538.3</ele>
        <time>2021-09-04T18:29:14Z</time>
      </trkpt>
      <trkpt lat="45.65514" lon="4.6517">
        <ele>537.6</ele>
        <time>2021-09-04T18:29:15Z</time>
      </trkpt>
      <trkpt lat="45.6552" lon="4.65178">
        <ele>536.9</ele>
        <time>2021-09-04T18:29:16Z</time>
      </trkpt>
      <trkpt lat="45.65532" lon="4.65192">
        <ele>535.5</ele>
        <time>2021-09-04T18:29:18Z</time>
      </trkpt>
      <trkpt lat="45.65546" lon="4.65208">
        <ele>534.1</ele>
        <time>2021-09-04T18:29:20Z</time>
      </trkpt>
      <trkpt lat="45.65553" lon="4.65216">
        <ele>533.4</ele>
        <time>2021-09-04T18:29:21Z</time>
      </trkpt>
      <trkpt lat="45.65568" lon="4.65231">
        <ele>531.8</ele>
        <time>2021-09-04T18:29:23Z</time>
      </trkpt>
      <trkpt lat="45.65585" lon="4.65245">
        <ele>530.3</ele>
        <time>2021-09-04T18:29:25Z</time>
      </trkpt>
      <trkpt lat="45.65594" lon="4.65251">
        <ele>529.5</ele>
        <time>2021-09-04T18:29:26Z</time>
      </trkpt>
      <trkpt lat="45.65612" lon="4.65264">
        <ele>528.3</ele>
        <time>2021-09-04T18:29:28Z</time>
      </trkpt>
      <trkpt lat="45.65628" lon="4.65275">
        <ele>527.3</ele>
        <time>2021-09-04T18:29:30Z</time>
      </trkpt>
      <trkpt lat="45.65635" lon="4.65281">
        <ele>526.9</ele>
        <time>2021-09-04T18:29:31Z</time>
      </trkpt>
      <trkpt lat="45.65649" lon="4.65291">
        <ele>526.2</ele>
        <time>2021-09-04T18:29:33Z</time>
      </trkpt>
      <trkpt lat="45.65664" lon="4.65298">
        <ele>525.9</ele>
        <time>2021-09-04T18:29:35Z</time>
      </trkpt>
      <trkpt lat="45.65671" lon="4.65303">
        <ele>525.8</ele>
        <time>2021-09-04T18:29:36Z</time>
      </trkpt>
      <trkpt lat="45.65677" lon="4.65307">
        <ele>525.7</ele>
        <time>2021-09-04T18:29:37Z</time>
      </trkpt>
      <trkpt lat="45.65688" lon="4.65319">
        <ele>525.8</ele>
        <time>2021-09-04T18:29:39Z</time>
      </trkpt>
      <trkpt lat="45.65698" lon="4.65328">
        <ele>525.9</ele>
        <time>2021-09-04T18:29:41Z</time>
      </trkpt>
      <trkpt lat="45.65703" lon="4.65334">
        <ele>526</ele>
        <time>2021-09-04T18:29:42Z</time>
      </trkpt>
      <trkpt lat="45.65707" lon="4.6534">
        <ele>526.2</ele>
        <time>2021-09-04T18:29:43Z</time>
      </trkpt>
      <trkpt lat="45.65715" lon="4.6535">
        <ele>526.5</ele>
        <time>2021-09-04T18:29:45Z</time>
      </trkpt>
      <trkpt lat="45.6572" lon="4.65355">
        <ele>526.6</ele>
        <time>2021-09-04T18:29:46Z</time>
      </trkpt>
      <trkpt lat="45.65727" lon="4.65365">
        <ele>527.2</ele>
        <time>2021-09-04T18:29:48Z</time>
      </trkpt>
      <trkpt lat="45.6573" lon="4.65369">
        <ele>527.4</ele>
        <time>2021-09-04T18:29:49Z</time>
      </trkpt>
      <trkpt lat="45.65736" lon="4.65375">
        <ele>527.8</ele>
        <time>2021-09-04T18:29:51Z</time>
      </trkpt>
      <trkpt lat="45.65738" lon="4.6538">
        <ele>528</ele>
        <time>2021-09-04T18:29:52Z</time>
      </trkpt>
      <trkpt lat="45.65742" lon="4.65387">
        <ele>528.4</ele>
        <time>2021-09-04T18:29:54Z</time>
      </trkpt>
      <trkpt lat="45.65747" lon="4.65393">
        <ele>528.7</ele>
        <time>2021-09-04T18:29:56Z</time>
      </trkpt>
      <trkpt lat="45.65749" lon="4.65396">
        <ele>528.9</ele>
        <time>2021-09-04T18:29:57Z</time>
      </trkpt>
      <trkpt lat="45.65752" lon="4.654">
        <ele>529.1</ele>
        <time>2021-09-04T18:29:58Z</time>
      </trkpt>
      <trkpt lat="45.65756" lon="4.65406">
        <ele>529.4</ele>
        <time>2021-09-04T18:30:00Z</time>
      </trkpt>
      <trkpt lat="45.65759" lon="4.65411">
        <ele>529.7</ele>
        <time>2021-09-04T18:30:01Z</time>
      </trkpt>
      <trkpt lat="45.65763" lon="4.65416">
        <ele>529.9</ele>
        <time>2021-09-04T18:30:03Z</time>
      </trkpt>
      <trkpt lat="45.65766" lon="4.6542">
        <ele>530.1</ele>
        <time>2021-09-04T18:30:04Z</time>
      </trkpt>
      <trkpt lat="45.65768" lon="4.65422">
        <ele>530.2</ele>
        <time>2021-09-04T18:30:05Z</time>
      </trkpt>
      <trkpt lat="45.65771" lon="4.65427">
        <ele>530.4</ele>
        <time>2021-09-04T18:30:07Z</time>
      </trkpt>
      <trkpt lat="45.65775" lon="4.65433">
        <ele>530.5</ele>
        <time>2021-09-04T18:30:09Z</time>
      </trkpt>
      <trkpt lat="45.65779" lon="4.65439">
        <ele>530.5</ele>
        <time>2021-09-04T18:30:11Z</time>
      </trkpt>
      <trkpt lat="45.65782" lon="4.65443">
        <ele>530.5</ele>
        <time>2021-09-04T18:30:12Z</time>
      </trkpt>
      <trkpt lat="45.65787" lon="4.6545">
        <ele>530.2</ele>
        <time>2021-09-04T18:30:14Z</time>
      </trkpt>
      <trkpt lat="45.65789" lon="4.65453">
        <ele>530.1</ele>
        <time>2021-09-04T18:30:15Z</time>
      </trkpt>
      <trkpt lat="45.65795" lon="4.65461">
        <ele>529.6</ele>
        <time>2021-09-04T18:30:17Z</time>
      </trkpt>
      <trkpt lat="45.65798" lon="4.65465">
        <ele>529.2</ele>
        <time>2021-09-04T18:30:18Z</time>
      </trkpt>
      <trkpt lat="45.65805" lon="4.65476">
        <ele>528.3</ele>
        <time>2021-09-04T18:30:20Z</time>
      </trkpt>
      <trkpt lat="45.65809" lon="4.65481">
        <ele>527.9</ele>
        <time>2021-09-04T18:30:21Z</time>
      </trkpt>
      <trkpt lat="45.65812" lon="4.65485">
        <ele>527.4</ele>
        <time>2021-09-04T18:30:22Z</time>
      </trkpt>
      <trkpt lat="45.65824" lon="4.65499">
        <ele>526</ele>
        <time>2021-09-04T18:30:24Z</time>
      </trkpt>
      <trkpt lat="45.6583" lon="4.65507">
        <ele>525.2</ele>
        <time>2021-09-04T18:30:25Z</time>
      </trkpt>
      <trkpt lat="45.65843" lon="4.65522">
        <ele>523.6</ele>
        <time>2021-09-04T18:30:27Z</time>
      </trkpt>
      <trkpt lat="45.65852" lon="4.65542">
        <ele>522</ele>
        <time>2021-09-04T18:30:29Z</time>
      </trkpt>
      <trkpt lat="45.65855" lon="4.65552">
        <ele>521.3</ele>
        <time>2021-09-04T18:30:30Z</time>
      </trkpt>
      <trkpt lat="45.65859" lon="4.65573">
        <ele>519.8</ele>
        <time>2021-09-04T18:30:32Z</time>
      </trkpt>
      <trkpt lat="45.65859" lon="4.65591">
        <ele>518.3</ele>
        <time>2021-09-04T18:30:34Z</time>
      </trkpt>
      <trkpt lat="45.65863" lon="4.65607">
        <ele>517</ele>
        <time>2021-09-04T18:30:36Z</time>
      </trkpt>
      <trkpt lat="45.6587" lon="4.65622">
        <ele>515.5</ele>
        <time>2021-09-04T18:30:38Z</time>
      </trkpt>
      <trkpt lat="45.65878" lon="4.65636">
        <ele>514</ele>
        <time>2021-09-04T18:30:40Z</time>
      </trkpt>
      <trkpt lat="45.65889" lon="4.65646">
        <ele>512.5</ele>
        <time>2021-09-04T18:30:42Z</time>
      </trkpt>
      <trkpt lat="45.65894" lon="4.6565">
        <ele>511.8</ele>
        <time>2021-09-04T18:30:43Z</time>
      </trkpt>
      <trkpt lat="45.65899" lon="4.65655">
        <ele>511.2</ele>
        <time>2021-09-04T18:30:44Z</time>
      </trkpt>
      <trkpt lat="45.65909" lon="4.65666">
        <ele>510.1</ele>
        <time>2021-09-04T18:30:46Z</time>
      </trkpt>
      <trkpt lat="45.6592" lon="4.65676">
        <ele>509.1</ele>
        <time>2021-09-04T18:30:48Z</time>
      </trkpt>
      <trkpt lat="45.65925" lon="4.65681">
        <ele>508.8</ele>
        <time>2021-09-04T18:30:49Z</time>
      </trkpt>
      <trkpt lat="45.65931" lon="4.65687">
        <ele>508.5</ele>
        <time>2021-09-04T18:30:50Z</time>
      </trkpt>
      <trkpt lat="45.6594" lon="4.657">
        <ele>508</ele>
        <time>2021-09-04T18:30:52Z</time>
      </trkpt>
      <trkpt lat="45.65949" lon="4.65711">
        <ele>507.6</ele>
        <time>2021-09-04T18:30:54Z</time>
      </trkpt>
      <trkpt lat="45.65954" lon="4.65717">
        <ele>507.5</ele>
        <time>2021-09-04T18:30:55Z</time>
      </trkpt>
      <trkpt lat="45.65964" lon="4.65727">
        <ele>507.2</ele>
        <time>2021-09-04T18:30:57Z</time>
      </trkpt>
      <trkpt lat="45.65976" lon="4.65735">
        <ele>506.9</ele>
        <time>2021-09-04T18:30:59Z</time>
      </trkpt>
      <trkpt lat="45.65981" lon="4.65739">
        <ele>506.9</ele>
        <time>2021-09-04T18:31:00Z</time>
      </trkpt>
      <trkpt lat="45.65987" lon="4.65743">
        <ele>506.8</ele>
        <time>2021-09-04T18:31:01Z</time>
      </trkpt>
      <trkpt lat="45.65997" lon="4.65753">
        <ele>506.8</ele>
        <time>2021-09-04T18:31:03Z</time>
      </trkpt>
      <trkpt lat="45.66002" lon="4.65758">
        <ele>506.8</ele>
        <time>2021-09-04T18:31:04Z</time>
      </trkpt>
      <trkpt lat="45.6601" lon="4.65768">
        <ele>507</ele>
        <time>2021-09-04T18:31:06Z</time>
      </trkpt>
      <trkpt lat="45.66013" lon="4.65773">
        <ele>507</ele>
        <time>2021-09-04T18:31:07Z</time>
      </trkpt>
      <trkpt lat="45.6602" lon="4.65784">
        <ele>507.2</ele>
        <time>2021-09-04T18:31:09Z</time>
      </trkpt>
      <trkpt lat="45.66024" lon="4.65788">
        <ele>507.3</ele>
        <time>2021-09-04T18:31:10Z</time>
      </trkpt>
      <trkpt lat="45.66027" lon="4.65793">
        <ele>507.5</ele>
        <time>2021-09-04T18:31:11Z</time>
      </trkpt>
      <trkpt lat="45.6603" lon="4.65797">
        <ele>507.6</ele>
        <time>2021-09-04T18:31:12Z</time>
      </trkpt>
      <trkpt lat="45.66033" lon="4.65801">
        <ele>507.7</ele>
        <time>2021-09-04T18:31:13Z</time>
      </trkpt>
      <trkpt lat="45.66036" lon="4.65807">
        <ele>507.8</ele>
        <time>2021-09-04T18:31:14Z</time>
      </trkpt>
      <trkpt lat="45.66041" lon="4.65819">
        <ele>508.1</ele>
        <time>2021-09-04T18:31:16Z</time>
      </trkpt>
      <trkpt lat="45.66043" lon="4.65822">
        <ele>508.2</ele>
        <time>2021-09-04T18:31:17Z</time>
      </trkpt>
      <trkpt lat="45.66049" lon="4.65832">
        <ele>508.5</ele>
        <time>2021-09-04T18:31:19Z</time>
      </trkpt>
      <trkpt lat="45.66052" lon="4.65841">
        <ele>508.8</ele>
        <time>2021-09-04T18:31:20Z</time>
      </trkpt>
      <trkpt lat="45.66054" lon="4.65847">
        <ele>508.9</ele>
        <time>2021-09-04T18:31:22Z</time>
      </trkpt>
      <trkpt lat="45.66055" lon="4.65852">
        <ele>509.1</ele>
        <time>2021-09-04T18:31:24Z</time>
      </trkpt>
      <trkpt lat="45.66056" lon="4.65856">
        <ele>509.2</ele>
        <time>2021-09-04T18:31:25Z</time>
      </trkpt>
      <trkpt lat="45.66058" lon="4.65861">
        <ele>509.4</ele>
        <time>2021-09-04T18:31:26Z</time>
      </trkpt>
      <trkpt lat="45.6606" lon="4.65866">
        <ele>509.5</ele>
        <time>2021-09-04T18:31:27Z</time>
      </trkpt>
      <trkpt lat="45.66061" lon="4.65871">
        <ele>509.7</ele>
        <time>2021-09-04T18:31:28Z</time>
      </trkpt>
      <trkpt lat="45.66063" lon="4.6588">
        <ele>509.9</ele>
        <time>2021-09-04T18:31:30Z</time>
      </trkpt>
      <trkpt lat="45.66066" lon="4.65884">
        <ele>510</ele>
        <time>2021-09-04T18:31:31Z</time>
      </trkpt>
      <trkpt lat="45.66068" lon="4.65887">
        <ele>510.1</ele>
        <time>2021-09-04T18:31:32Z</time>
      </trkpt>
      <trkpt lat="45.66071" lon="4.6589">
        <ele>510.1</ele>
        <time>2021-09-04T18:31:34Z</time>
      </trkpt>
      <trkpt lat="45.66073" lon="4.65894">
        <ele>510</ele>
        <time>2021-09-04T18:31:35Z</time>
      </trkpt>
      <trkpt lat="45.66074" lon="4.65898">
        <ele>509.9</ele>
        <time>2021-09-04T18:31:36Z</time>
      </trkpt>
      <trkpt lat="45.66074" lon="4.65902">
        <ele>509.8</ele>
        <time>2021-09-04T18:31:38Z</time>
      </trkpt>
      <trkpt lat="45.66075" lon="4.65907">
        <ele>509.6</ele>
        <time>2021-09-04T18:31:39Z</time>
      </trkpt>
      <trkpt lat="45.66076" lon="4.65909">
        <ele>509.5</ele>
        <time>2021-09-04T18:31:40Z</time>
      </trkpt>
      <trkpt lat="45.66078" lon="4.65913">
        <ele>509.3</ele>
        <time>2021-09-04T18:31:42Z</time>
      </trkpt>
      <trkpt lat="45.66081" lon="4.65917">
        <ele>509.1</ele>
        <time>2021-09-04T18:31:43Z</time>
      </trkpt>
      <trkpt lat="45.66082" lon="4.65919">
        <ele>509.1</ele>
        <time>2021-09-04T18:31:44Z</time>
      </trkpt>
      <trkpt lat="45.66085" lon="4.65924">
        <ele>508.8</ele>
        <time>2021-09-04T18:31:46Z</time>
      </trkpt>
      <trkpt lat="45.66087" lon="4.65956">
        <ele>507.6</ele>
        <time>2021-09-04T18:31:48Z</time>
      </trkpt>
      <trkpt lat="45.66088" lon="4.65965">
        <ele>507.2</ele>
        <time>2021-09-04T18:31:49Z</time>
      </trkpt>
      <trkpt lat="45.66089" lon="4.65974">
        <ele>506.9</ele>
        <time>2021-09-04T18:31:50Z</time>
      </trkpt>
      <trkpt lat="45.6609" lon="4.6599">
        <ele>506.2</ele>
        <time>2021-09-04T18:31:52Z</time>
      </trkpt>
      <trkpt lat="45.6609" lon="4.65999">
        <ele>505.8</ele>
        <time>2021-09-04T18:31:53Z</time>
      </trkpt>
      <trkpt lat="45.6609" lon="4.66015">
        <ele>504.9</ele>
        <time>2021-09-04T18:31:55Z</time>
      </trkpt>
      <trkpt lat="45.6609" lon="4.66024">
        <ele>504.4</ele>
        <time>2021-09-04T18:31:56Z</time>
      </trkpt>
      <trkpt lat="45.66091" lon="4.66043">
        <ele>503.3</ele>
        <time>2021-09-04T18:31:58Z</time>
      </trkpt>
      <trkpt lat="45.6609" lon="4.66053">
        <ele>502.7</ele>
        <time>2021-09-04T18:31:59Z</time>
      </trkpt>
      <trkpt lat="45.66089" lon="4.66071">
        <ele>501.7</ele>
        <time>2021-09-04T18:32:01Z</time>
      </trkpt>
      <trkpt lat="45.66088" lon="4.6608">
        <ele>501.3</ele>
        <time>2021-09-04T18:32:02Z</time>
      </trkpt>
      <trkpt lat="45.66088" lon="4.6609">
        <ele>500.8</ele>
        <time>2021-09-04T18:32:03Z</time>
      </trkpt>
      <trkpt lat="45.66092" lon="4.66109">
        <ele>499.8</ele>
        <time>2021-09-04T18:32:05Z</time>
      </trkpt>
      <trkpt lat="45.66095" lon="4.6613">
        <ele>498.7</ele>
        <time>2021-09-04T18:32:07Z</time>
      </trkpt>
      <trkpt lat="45.66095" lon="4.6615">
        <ele>497.6</ele>
        <time>2021-09-04T18:32:09Z</time>
      </trkpt>
      <trkpt lat="45.66097" lon="4.6616">
        <ele>497.1</ele>
        <time>2021-09-04T18:32:10Z</time>
      </trkpt>
      <trkpt lat="45.66099" lon="4.66168">
        <ele>496.5</ele>
        <time>2021-09-04T18:32:11Z</time>
      </trkpt>
      <trkpt lat="45.66098" lon="4.66178">
        <ele>495.9</ele>
        <time>2021-09-04T18:32:12Z</time>
      </trkpt>
      <trkpt lat="45.66091" lon="4.66195">
        <ele>494.4</ele>
        <time>2021-09-04T18:32:14Z</time>
      </trkpt>
      <trkpt lat="45.66087" lon="4.66201">
        <ele>493.7</ele>
        <time>2021-09-04T18:32:15Z</time>
      </trkpt>
      <trkpt lat="45.66079" lon="4.66212">
        <ele>492.4</ele>
        <time>2021-09-04T18:32:17Z</time>
      </trkpt>
      <trkpt lat="45.66074" lon="4.66221">
        <ele>491.6</ele>
        <time>2021-09-04T18:32:19Z</time>
      </trkpt>
      <trkpt lat="45.66073" lon="4.66223">
        <ele>491.3</ele>
        <time>2021-09-04T18:32:20Z</time>
      </trkpt>
      <trkpt lat="45.6607" lon="4.6623">
        <ele>490.4</ele>
        <time>2021-09-04T18:32:22Z</time>
      </trkpt>
      <trkpt lat="45.6607" lon="4.66235">
        <ele>490.1</ele>
        <time>2021-09-04T18:32:23Z</time>
      </trkpt>
      <trkpt lat="45.66073" lon="4.66243">
        <ele>489.6</ele>
        <time>2021-09-04T18:32:25Z</time>
      </trkpt>
      <trkpt lat="45.66075" lon="4.66245">
        <ele>489.2</ele>
        <time>2021-09-04T18:32:26Z</time>
      </trkpt>
      <trkpt lat="45.6608" lon="4.66249">
        <ele>488.6</ele>
        <time>2021-09-04T18:32:28Z</time>
      </trkpt>
      <trkpt lat="45.66089" lon="4.66253">
        <ele>487.4</ele>
        <time>2021-09-04T18:32:29Z</time>
      </trkpt>
      <trkpt lat="45.66099" lon="4.66261">
        <ele>485.8</ele>
        <time>2021-09-04T18:32:31Z</time>
      </trkpt>
      <trkpt lat="45.66108" lon="4.66269">
        <ele>484.3</ele>
        <time>2021-09-04T18:32:33Z</time>
      </trkpt>
      <trkpt lat="45.66113" lon="4.66272">
        <ele>483.5</ele>
        <time>2021-09-04T18:32:34Z</time>
      </trkpt>
      <trkpt lat="45.66118" lon="4.66275">
        <ele>482.8</ele>
        <time>2021-09-04T18:32:35Z</time>
      </trkpt>
      <trkpt lat="45.66128" lon="4.66283">
        <ele>481.3</ele>
        <time>2021-09-04T18:32:37Z</time>
      </trkpt>
      <trkpt lat="45.66132" lon="4.66288">
        <ele>480.6</ele>
        <time>2021-09-04T18:32:38Z</time>
      </trkpt>
      <trkpt lat="45.6614" lon="4.66295">
        <ele>479.2</ele>
        <time>2021-09-04T18:32:40Z</time>
      </trkpt>
      <trkpt lat="45.66145" lon="4.66297">
        <ele>478.6</ele>
        <time>2021-09-04T18:32:41Z</time>
      </trkpt>
      <trkpt lat="45.66153" lon="4.66304">
        <ele>477.3</ele>
        <time>2021-09-04T18:32:43Z</time>
      </trkpt>
      <trkpt lat="45.66164" lon="4.66311">
        <ele>475.7</ele>
        <time>2021-09-04T18:32:45Z</time>
      </trkpt>
      <trkpt lat="45.66174" lon="4.66317">
        <ele>474.1</ele>
        <time>2021-09-04T18:32:47Z</time>
      </trkpt>
      <trkpt lat="45.66179" lon="4.6632">
        <ele>473.3</ele>
        <time>2021-09-04T18:32:48Z</time>
      </trkpt>
      <trkpt lat="45.66189" lon="4.66324">
        <ele>471.5</ele>
        <time>2021-09-04T18:32:50Z</time>
      </trkpt>
      <trkpt lat="45.66192" lon="4.66326">
        <ele>470.9</ele>
        <time>2021-09-04T18:32:51Z</time>
      </trkpt>
      <trkpt lat="45.66194" lon="4.66328">
        <ele>470.4</ele>
        <time>2021-09-04T18:32:52Z</time>
      </trkpt>
      <trkpt lat="45.66199" lon="4.66332">
        <ele>469.6</ele>
        <time>2021-09-04T18:32:53Z</time>
      </trkpt>
      <trkpt lat="45.66204" lon="4.66338">
        <ele>468.7</ele>
        <time>2021-09-04T18:32:54Z</time>
      </trkpt>
      <trkpt lat="45.66213" lon="4.66351">
        <ele>467.1</ele>
        <time>2021-09-04T18:32:56Z</time>
      </trkpt>
      <trkpt lat="45.66218" lon="4.66357">
        <ele>466.3</ele>
        <time>2021-09-04T18:32:57Z</time>
      </trkpt>
      <trkpt lat="45.66228" lon="4.6637">
        <ele>465.1</ele>
        <time>2021-09-04T18:32:59Z</time>
      </trkpt>
      <trkpt lat="45.66239" lon="4.66384">
        <ele>464.1</ele>
        <time>2021-09-04T18:33:01Z</time>
      </trkpt>
      <trkpt lat="45.66253" lon="4.66392">
        <ele>463.2</ele>
        <time>2021-09-04T18:33:03Z</time>
      </trkpt>
      <trkpt lat="45.66266" lon="4.66399">
        <ele>462.4</ele>
        <time>2021-09-04T18:33:05Z</time>
      </trkpt>
      <trkpt lat="45.66279" lon="4.66407">
        <ele>461.5</ele>
        <time>2021-09-04T18:33:07Z</time>
      </trkpt>
      <trkpt lat="45.66285" lon="4.6641">
        <ele>460.9</ele>
        <time>2021-09-04T18:33:08Z</time>
      </trkpt>
      <trkpt lat="45.66297" lon="4.66415">
        <ele>459.7</ele>
        <time>2021-09-04T18:33:10Z</time>
      </trkpt>
      <trkpt lat="45.66302" lon="4.66417">
        <ele>459.2</ele>
        <time>2021-09-04T18:33:11Z</time>
      </trkpt>
      <trkpt lat="45.66304" lon="4.66422">
        <ele>458.8</ele>
        <time>2021-09-04T18:33:12Z</time>
      </trkpt>
      <trkpt lat="45.66305" lon="4.66424">
        <ele>458.6</ele>
        <time>2021-09-04T18:33:13Z</time>
      </trkpt>
      <trkpt lat="45.66306" lon="4.6643">
        <ele>458.4</ele>
        <time>2021-09-04T18:33:15Z</time>
      </trkpt>
      <trkpt lat="45.66305" lon="4.66435">
        <ele>458.1</ele>
        <time>2021-09-04T18:33:17Z</time>
      </trkpt>
      <trkpt lat="45.66304" lon="4.66435">
        <ele>458</ele>
        <time>2021-09-04T18:33:19Z</time>
      </trkpt>
      <trkpt lat="45.66303" lon="4.66437">
        <ele>457.8</ele>
        <time>2021-09-04T18:33:20Z</time>
      </trkpt>
      <trkpt lat="45.66303" lon="4.66441">
        <ele>457.6</ele>
        <time>2021-09-04T18:33:22Z</time>
      </trkpt>
      <trkpt lat="45.66302" lon="4.66441">
        <ele>457.5</ele>
        <time>2021-09-04T18:33:23Z</time>
      </trkpt>
      <trkpt lat="45.66301" lon="4.66441">
        <ele>457.5</ele>
        <time>2021-09-04T18:33:24Z</time>
      </trkpt>
      <trkpt lat="45.66301" lon="4.66441">
        <ele>457.4</ele>
        <time>2021-09-04T18:33:26Z</time>
      </trkpt>
      <trkpt lat="45.66301" lon="4.66441">
        <ele>457.4</ele>
        <time>2021-09-04T18:33:28Z</time>
      </trkpt>
      <trkpt lat="45.66301" lon="4.66442">
        <ele>457.4</ele>
        <time>2021-09-04T18:33:30Z</time>
      </trkpt>
      <trkpt lat="45.663" lon="4.66444">
        <ele>457.2</ele>
        <time>2021-09-04T18:38:01Z</time>
      </trkpt>
      <trkpt lat="45.66295" lon="4.6645">
        <ele>456.7</ele>
        <time>2021-09-04T18:38:03Z</time>
      </trkpt>
      <trkpt lat="45.66293" lon="4.66455">
        <ele>456.4</ele>
        <time>2021-09-04T18:38:04Z</time>
      </trkpt>
      <trkpt lat="45.66289" lon="4.66462">
        <ele>456</ele>
        <time>2021-09-04T18:38:06Z</time>
      </trkpt>
      <trkpt lat="45.66285" lon="4.66479">
        <ele>455.1</ele>
        <time>2021-09-04T18:38:08Z</time>
      </trkpt>
      <trkpt lat="45.66283" lon="4.66493">
        <ele>454.5</ele>
        <time>2021-09-04T18:38:10Z</time>
      </trkpt>
      <trkpt lat="45.66282" lon="4.665">
        <ele>454.1</ele>
        <time>2021-09-04T18:38:11Z</time>
      </trkpt>
      <trkpt lat="45.66281" lon="4.66518">
        <ele>453.3</ele>
        <time>2021-09-04T18:38:13Z</time>
      </trkpt>
      <trkpt lat="45.66281" lon="4.66527">
        <ele>452.9</ele>
        <time>2021-09-04T18:38:14Z</time>
      </trkpt>
      <trkpt lat="45.66282" lon="4.66537">
        <ele>452.4</ele>
        <time>2021-09-04T18:38:15Z</time>
      </trkpt>
      <trkpt lat="45.66282" lon="4.66558">
        <ele>451.5</ele>
        <time>2021-09-04T18:38:17Z</time>
      </trkpt>
      <trkpt lat="45.66281" lon="4.66569">
        <ele>451.1</ele>
        <time>2021-09-04T18:38:18Z</time>
      </trkpt>
      <trkpt lat="45.66278" lon="4.66586">
        <ele>450.2</ele>
        <time>2021-09-04T18:38:20Z</time>
      </trkpt>
      <trkpt lat="45.6628" lon="4.66592">
        <ele>449.8</ele>
        <time>2021-09-04T18:38:22Z</time>
      </trkpt>
      <trkpt lat="45.66284" lon="4.66593">
        <ele>449.6</ele>
        <time>2021-09-04T18:38:23Z</time>
      </trkpt>
      <trkpt lat="45.66292" lon="4.66595">
        <ele>449</ele>
        <time>2021-09-04T18:38:25Z</time>
      </trkpt>
      <trkpt lat="45.663" lon="4.66599">
        <ele>448.5</ele>
        <time>2021-09-04T18:38:27Z</time>
      </trkpt>
      <trkpt lat="45.66305" lon="4.66603">
        <ele>448.3</ele>
        <time>2021-09-04T18:38:28Z</time>
      </trkpt>
      <trkpt lat="45.66315" lon="4.6661">
        <ele>447.8</ele>
        <time>2021-09-04T18:38:30Z</time>
      </trkpt>
      <trkpt lat="45.66319" lon="4.66614">
        <ele>447.7</ele>
        <time>2021-09-04T18:38:31Z</time>
      </trkpt>
      <trkpt lat="45.66328" lon="4.66614">
        <ele>447.5</ele>
        <time>2021-09-04T18:38:33Z</time>
      </trkpt>
      <trkpt lat="45.66334" lon="4.66605">
        <ele>447.4</ele>
        <time>2021-09-04T18:38:35Z</time>
      </trkpt>
      <trkpt lat="45.66334" lon="4.666">
        <ele>447.3</ele>
        <time>2021-09-04T18:38:36Z</time>
      </trkpt>
      <trkpt lat="45.66335" lon="4.66595">
        <ele>447.3</ele>
        <time>2021-09-04T18:38:37Z</time>
      </trkpt>
      <trkpt lat="45.6634" lon="4.66586">
        <ele>447.3</ele>
        <time>2021-09-04T18:38:39Z</time>
      </trkpt>
      <trkpt lat="45.66347" lon="4.66581">
        <ele>447.2</ele>
        <time>2021-09-04T18:38:41Z</time>
      </trkpt>
      <trkpt lat="45.66352" lon="4.6658">
        <ele>447.1</ele>
        <time>2021-09-04T18:38:42Z</time>
      </trkpt>
      <trkpt lat="45.66359" lon="4.66582">
        <ele>447</ele>
        <time>2021-09-04T18:38:44Z</time>
      </trkpt>
      <trkpt lat="45.66367" lon="4.66585">
        <ele>446.9</ele>
        <time>2021-09-04T18:38:45Z</time>
      </trkpt>
      <trkpt lat="45.66377" lon="4.66588">
        <ele>446.8</ele>
        <time>2021-09-04T18:38:47Z</time>
      </trkpt>
      <trkpt lat="45.66387" lon="4.6659">
        <ele>446.7</ele>
        <time>2021-09-04T18:38:49Z</time>
      </trkpt>
      <trkpt lat="45.66398" lon="4.66593">
        <ele>446.6</ele>
        <time>2021-09-04T18:38:51Z</time>
      </trkpt>
      <trkpt lat="45.66403" lon="4.66594">
        <ele>446.5</ele>
        <time>2021-09-04T18:38:52Z</time>
      </trkpt>
      <trkpt lat="45.66414" lon="4.66594">
        <ele>446.4</ele>
        <time>2021-09-04T18:38:54Z</time>
      </trkpt>
      <trkpt lat="45.66424" lon="4.66591">
        <ele>446.4</ele>
        <time>2021-09-04T18:38:56Z</time>
      </trkpt>
      <trkpt lat="45.66435" lon="4.66588">
        <ele>446.4</ele>
        <time>2021-09-04T18:38:58Z</time>
      </trkpt>
      <trkpt lat="45.66446" lon="4.66584">
        <ele>446.4</ele>
        <time>2021-09-04T18:39:00Z</time>
      </trkpt>
      <trkpt lat="45.66452" lon="4.66582">
        <ele>446.5</ele>
        <time>2021-09-04T18:39:01Z</time>
      </trkpt>
      <trkpt lat="45.66464" lon="4.66579">
        <ele>446.7</ele>
        <time>2021-09-04T18:39:03Z</time>
      </trkpt>
      <trkpt lat="45.66476" lon="4.66578">
        <ele>446.9</ele>
        <time>2021-09-04T18:39:05Z</time>
      </trkpt>
      <trkpt lat="45.66487" lon="4.66576">
        <ele>447</ele>
        <time>2021-09-04T18:39:07Z</time>
      </trkpt>
      <trkpt lat="45.66497" lon="4.66582">
        <ele>447</ele>
        <time>2021-09-04T18:39:09Z</time>
      </trkpt>
      <trkpt lat="45.66501" lon="4.66586">
        <ele>447</ele>
        <time>2021-09-04T18:39:10Z</time>
      </trkpt>
      <trkpt lat="45.66506" lon="4.66591">
        <ele>447</ele>
        <time>2021-09-04T18:39:11Z</time>
      </trkpt>
      <trkpt lat="45.66515" lon="4.666">
        <ele>446.9</ele>
        <time>2021-09-04T18:39:13Z</time>
      </trkpt>
      <trkpt lat="45.66524" lon="4.66607">
        <ele>446.8</ele>
        <time>2021-09-04T18:39:15Z</time>
      </trkpt>
      <trkpt lat="45.66529" lon="4.66611">
        <ele>446.7</ele>
        <time>2021-09-04T18:39:16Z</time>
      </trkpt>
      <trkpt lat="45.66534" lon="4.66615">
        <ele>446.6</ele>
        <time>2021-09-04T18:39:17Z</time>
      </trkpt>
      <trkpt lat="45.66539" lon="4.66619">
        <ele>446.4</ele>
        <time>2021-09-04T18:39:18Z</time>
      </trkpt>
      <trkpt lat="45.66549" lon="4.66627">
        <ele>446</ele>
        <time>2021-09-04T18:39:20Z</time>
      </trkpt>
      <trkpt lat="45.6656" lon="4.66633">
        <ele>445.5</ele>
        <time>2021-09-04T18:39:22Z</time>
      </trkpt>
      <trkpt lat="45.66566" lon="4.66637">
        <ele>445.3</ele>
        <time>2021-09-04T18:39:23Z</time>
      </trkpt>
      <trkpt lat="45.66571" lon="4.66642">
        <ele>445.1</ele>
        <time>2021-09-04T18:39:24Z</time>
      </trkpt>
      <trkpt lat="45.66577" lon="4.66646">
        <ele>444.9</ele>
        <time>2021-09-04T18:39:25Z</time>
      </trkpt>
      <trkpt lat="45.66588" lon="4.66655">
        <ele>444.5</ele>
        <time>2021-09-04T18:39:27Z</time>
      </trkpt>
      <trkpt lat="45.66593" lon="4.66659">
        <ele>444.1</ele>
        <time>2021-09-04T18:39:28Z</time>
      </trkpt>
      <trkpt lat="45.66604" lon="4.66669">
        <ele>443.3</ele>
        <time>2021-09-04T18:39:30Z</time>
      </trkpt>
      <trkpt lat="45.66614" lon="4.6668">
        <ele>442.2</ele>
        <time>2021-09-04T18:39:32Z</time>
      </trkpt>
      <trkpt lat="45.66619" lon="4.66689">
        <ele>441.6</ele>
        <time>2021-09-04T18:39:33Z</time>
      </trkpt>
      <trkpt lat="45.66623" lon="4.66698">
        <ele>441.1</ele>
        <time>2021-09-04T18:39:34Z</time>
      </trkpt>
      <trkpt lat="45.66628" lon="4.66709">
        <ele>440.7</ele>
        <time>2021-09-04T18:39:35Z</time>
      </trkpt>
      <trkpt lat="45.66636" lon="4.66729">
        <ele>440.2</ele>
        <time>2021-09-04T18:39:37Z</time>
      </trkpt>
      <trkpt lat="45.66643" lon="4.66748">
        <ele>439.9</ele>
        <time>2021-09-04T18:39:39Z</time>
      </trkpt>
      <trkpt lat="45.66645" lon="4.66758">
        <ele>439.7</ele>
        <time>2021-09-04T18:39:40Z</time>
      </trkpt>
      <trkpt lat="45.66648" lon="4.66767">
        <ele>439.5</ele>
        <time>2021-09-04T18:39:41Z</time>
      </trkpt>
      <trkpt lat="45.66651" lon="4.66786">
        <ele>439</ele>
        <time>2021-09-04T18:39:43Z</time>
      </trkpt>
      <trkpt lat="45.66652" lon="4.66805">
        <ele>438.3</ele>
        <time>2021-09-04T18:39:45Z</time>
      </trkpt>
      <trkpt lat="45.66653" lon="4.66815">
        <ele>437.9</ele>
        <time>2021-09-04T18:39:46Z</time>
      </trkpt>
      <trkpt lat="45.66659" lon="4.66833">
        <ele>437.1</ele>
        <time>2021-09-04T18:39:48Z</time>
      </trkpt>
      <trkpt lat="45.66668" lon="4.66848">
        <ele>436.4</ele>
        <time>2021-09-04T18:39:50Z</time>
      </trkpt>
      <trkpt lat="45.66672" lon="4.66853">
        <ele>436.1</ele>
        <time>2021-09-04T18:39:51Z</time>
      </trkpt>
      <trkpt lat="45.66675" lon="4.66857">
        <ele>435.9</ele>
        <time>2021-09-04T18:39:52Z</time>
      </trkpt>
      <trkpt lat="45.66679" lon="4.6686">
        <ele>435.8</ele>
        <time>2021-09-04T18:39:53Z</time>
      </trkpt>
      <trkpt lat="45.66689" lon="4.6686">
        <ele>435.7</ele>
        <time>2021-09-04T18:39:55Z</time>
      </trkpt>
      <trkpt lat="45.66699" lon="4.66852">
        <ele>435.7</ele>
        <time>2021-09-04T18:39:57Z</time>
      </trkpt>
      <trkpt lat="45.66703" lon="4.66846">
        <ele>435.8</ele>
        <time>2021-09-04T18:39:58Z</time>
      </trkpt>
      <trkpt lat="45.66711" lon="4.66837">
        <ele>435.9</ele>
        <time>2021-09-04T18:40:00Z</time>
      </trkpt>
      <trkpt lat="45.66715" lon="4.66832">
        <ele>435.9</ele>
        <time>2021-09-04T18:40:01Z</time>
      </trkpt>
      <trkpt lat="45.66719" lon="4.66823">
        <ele>436</ele>
        <time>2021-09-04T18:40:03Z</time>
      </trkpt>
      <trkpt lat="45.66721" lon="4.66818">
        <ele>436</ele>
        <time>2021-09-04T18:40:04Z</time>
      </trkpt>
      <trkpt lat="45.66724" lon="4.66806">
        <ele>435.9</ele>
        <time>2021-09-04T18:40:06Z</time>
      </trkpt>
      <trkpt lat="45.66727" lon="4.668">
        <ele>435.9</ele>
        <time>2021-09-04T18:40:07Z</time>
      </trkpt>
      <trkpt lat="45.66727" lon="4.66796">
        <ele>435.9</ele>
        <time>2021-09-04T18:40:08Z</time>
      </trkpt>
      <trkpt lat="45.66726" lon="4.66798">
        <ele>435.8</ele>
        <time>2021-09-04T18:40:09Z</time>
      </trkpt>
      <trkpt lat="45.66728" lon="4.66791">
        <ele>435.8</ele>
        <time>2021-09-04T18:40:10Z</time>
      </trkpt>
      <trkpt lat="45.66733" lon="4.66771">
        <ele>435.4</ele>
        <time>2021-09-04T18:40:12Z</time>
      </trkpt>
      <trkpt lat="45.66735" lon="4.66756">
        <ele>434.9</ele>
        <time>2021-09-04T18:40:14Z</time>
      </trkpt>
      <trkpt lat="45.66735" lon="4.66748">
        <ele>434.6</ele>
        <time>2021-09-04T18:40:15Z</time>
      </trkpt>
      <trkpt lat="45.66737" lon="4.6673">
        <ele>434.3</ele>
        <time>2021-09-04T18:40:17Z</time>
      </trkpt>
      <trkpt lat="45.6674" lon="4.66711">
        <ele>434.1</ele>
        <time>2021-09-04T18:40:19Z</time>
      </trkpt>
      <trkpt lat="45.66742" lon="4.66693">
        <ele>434</ele>
        <time>2021-09-04T18:40:21Z</time>
      </trkpt>
      <trkpt lat="45.66744" lon="4.66685">
        <ele>434</ele>
        <time>2021-09-04T18:40:22Z</time>
      </trkpt>
      <trkpt lat="45.66748" lon="4.6667">
        <ele>434</ele>
        <time>2021-09-04T18:40:24Z</time>
      </trkpt>
      <trkpt lat="45.6675" lon="4.66663">
        <ele>434</ele>
        <time>2021-09-04T18:40:25Z</time>
      </trkpt>
      <trkpt lat="45.66754" lon="4.66652">
        <ele>434</ele>
        <time>2021-09-04T18:40:27Z</time>
      </trkpt>
      <trkpt lat="45.66757" lon="4.66643">
        <ele>434</ele>
        <time>2021-09-04T18:40:29Z</time>
      </trkpt>
      <trkpt lat="45.66759" lon="4.66639">
        <ele>433.8</ele>
        <time>2021-09-04T18:40:30Z</time>
      </trkpt>
      <trkpt lat="45.66762" lon="4.66637">
        <ele>433.5</ele>
        <time>2021-09-04T18:40:31Z</time>
      </trkpt>
      <trkpt lat="45.66765" lon="4.66633">
        <ele>433.2</ele>
        <time>2021-09-04T18:40:32Z</time>
      </trkpt>
      <trkpt lat="45.66773" lon="4.66626">
        <ele>432.2</ele>
        <time>2021-09-04T18:40:34Z</time>
      </trkpt>
      <trkpt lat="45.66777" lon="4.66623">
        <ele>431.6</ele>
        <time>2021-09-04T18:40:35Z</time>
      </trkpt>
      <trkpt lat="45.6678" lon="4.66622">
        <ele>431.2</ele>
        <time>2021-09-04T18:40:36Z</time>
      </trkpt>
      <trkpt lat="45.66791" lon="4.66625">
        <ele>429.2</ele>
        <time>2021-09-04T18:40:38Z</time>
      </trkpt>
      <trkpt lat="45.668" lon="4.66627">
        <ele>427.4</ele>
        <time>2021-09-04T18:40:40Z</time>
      </trkpt>
      <trkpt lat="45.66804" lon="4.66621">
        <ele>426.1</ele>
        <time>2021-09-04T18:40:41Z</time>
      </trkpt>
      <trkpt lat="45.66811" lon="4.66609">
        <ele>423.8</ele>
        <time>2021-09-04T18:40:43Z</time>
      </trkpt>
      <trkpt lat="45.66818" lon="4.66592">
        <ele>421.2</ele>
        <time>2021-09-04T18:40:45Z</time>
      </trkpt>
      <trkpt lat="45.66828" lon="4.66574">
        <ele>418.8</ele>
        <time>2021-09-04T18:40:47Z</time>
      </trkpt>
      <trkpt lat="45.66836" lon="4.66557">
        <ele>417.3</ele>
        <time>2021-09-04T18:40:49Z</time>
      </trkpt>
      <trkpt lat="45.6684" lon="4.66549">
        <ele>416.6</ele>
        <time>2021-09-04T18:40:50Z</time>
      </trkpt>
      <trkpt lat="45.66853" lon="4.66541">
        <ele>415.2</ele>
        <time>2021-09-04T18:40:52Z</time>
      </trkpt>
      <trkpt lat="45.66861" lon="4.6654">
        <ele>414.2</ele>
        <time>2021-09-04T18:40:53Z</time>
      </trkpt>
      <trkpt lat="45.66877" lon="4.66535">
        <ele>412.1</ele>
        <time>2021-09-04T18:40:55Z</time>
      </trkpt>
      <trkpt lat="45.66885" lon="4.66533">
        <ele>411.1</ele>
        <time>2021-09-04T18:40:56Z</time>
      </trkpt>
      <trkpt lat="45.66898" lon="4.66525">
        <ele>409</ele>
        <time>2021-09-04T18:40:58Z</time>
      </trkpt>
      <trkpt lat="45.66902" lon="4.66517">
        <ele>408</ele>
        <time>2021-09-04T18:40:59Z</time>
      </trkpt>
      <trkpt lat="45.66908" lon="4.6651">
        <ele>407.1</ele>
        <time>2021-09-04T18:41:00Z</time>
      </trkpt>
      <trkpt lat="45.66914" lon="4.66504">
        <ele>406.2</ele>
        <time>2021-09-04T18:41:01Z</time>
      </trkpt>
      <trkpt lat="45.66921" lon="4.66499">
        <ele>405.3</ele>
        <time>2021-09-04T18:41:02Z</time>
      </trkpt>
      <trkpt lat="45.66927" lon="4.66493">
        <ele>404.3</ele>
        <time>2021-09-04T18:41:03Z</time>
      </trkpt>
      <trkpt lat="45.66938" lon="4.66483">
        <ele>402.6</ele>
        <time>2021-09-04T18:41:05Z</time>
      </trkpt>
      <trkpt lat="45.6695" lon="4.66478">
        <ele>400.7</ele>
        <time>2021-09-04T18:41:07Z</time>
      </trkpt>
      <trkpt lat="45.66956" lon="4.66474">
        <ele>399.7</ele>
        <time>2021-09-04T18:41:08Z</time>
      </trkpt>
      <trkpt lat="45.66966" lon="4.66468">
        <ele>397.6</ele>
        <time>2021-09-04T18:41:10Z</time>
      </trkpt>
      <trkpt lat="45.66976" lon="4.66464">
        <ele>395.6</ele>
        <time>2021-09-04T18:41:12Z</time>
      </trkpt>
      <trkpt lat="45.66987" lon="4.66462">
        <ele>393.4</ele>
        <time>2021-09-04T18:41:14Z</time>
      </trkpt>
      <trkpt lat="45.67" lon="4.66465">
        <ele>391.1</ele>
        <time>2021-09-04T18:41:16Z</time>
      </trkpt>
      <trkpt lat="45.67012" lon="4.6646">
        <ele>388.7</ele>
        <time>2021-09-04T18:41:18Z</time>
      </trkpt>
      <trkpt lat="45.67019" lon="4.66455">
        <ele>387.4</ele>
        <time>2021-09-04T18:41:19Z</time>
      </trkpt>
      <trkpt lat="45.67026" lon="4.66452">
        <ele>386.1</ele>
        <time>2021-09-04T18:41:20Z</time>
      </trkpt>
      <trkpt lat="45.67041" lon="4.66449">
        <ele>383.8</ele>
        <time>2021-09-04T18:41:22Z</time>
      </trkpt>
      <trkpt lat="45.67056" lon="4.6645">
        <ele>381.7</ele>
        <time>2021-09-04T18:41:24Z</time>
      </trkpt>
      <trkpt lat="45.67064" lon="4.66452">
        <ele>380.6</ele>
        <time>2021-09-04T18:41:25Z</time>
      </trkpt>
      <trkpt lat="45.67081" lon="4.66454">
        <ele>378.1</ele>
        <time>2021-09-04T18:41:27Z</time>
      </trkpt>
      <trkpt lat="45.67099" lon="4.66454">
        <ele>375.5</ele>
        <time>2021-09-04T18:41:29Z</time>
      </trkpt>
      <trkpt lat="45.67108" lon="4.66454">
        <ele>374.2</ele>
        <time>2021-09-04T18:41:30Z</time>
      </trkpt>
      <trkpt lat="45.67123" lon="4.66445">
        <ele>371.6</ele>
        <time>2021-09-04T18:41:32Z</time>
      </trkpt>
      <trkpt lat="45.67131" lon="4.66438">
        <ele>370.3</ele>
        <time>2021-09-04T18:41:33Z</time>
      </trkpt>
      <trkpt lat="45.67146" lon="4.66421">
        <ele>368.1</ele>
        <time>2021-09-04T18:41:35Z</time>
      </trkpt>
      <trkpt lat="45.67159" lon="4.66401">
        <ele>366.4</ele>
        <time>2021-09-04T18:41:37Z</time>
      </trkpt>
      <trkpt lat="45.67173" lon="4.66379">
        <ele>365.3</ele>
        <time>2021-09-04T18:41:39Z</time>
      </trkpt>
      <trkpt lat="45.6718" lon="4.66368">
        <ele>364.9</ele>
        <time>2021-09-04T18:41:40Z</time>
      </trkpt>
      <trkpt lat="45.67193" lon="4.66349">
        <ele>364.3</ele>
        <time>2021-09-04T18:41:42Z</time>
      </trkpt>
      <trkpt lat="45.67208" lon="4.6633">
        <ele>363.6</ele>
        <time>2021-09-04T18:41:44Z</time>
      </trkpt>
      <trkpt lat="45.67221" lon="4.66312">
        <ele>363.2</ele>
        <time>2021-09-04T18:41:46Z</time>
      </trkpt>
      <trkpt lat="45.67228" lon="4.66302">
        <ele>363</ele>
        <time>2021-09-04T18:41:47Z</time>
      </trkpt>
      <trkpt lat="45.6724" lon="4.66284">
        <ele>362.6</ele>
        <time>2021-09-04T18:41:49Z</time>
      </trkpt>
      <trkpt lat="45.67251" lon="4.66267">
        <ele>362.2</ele>
        <time>2021-09-04T18:41:51Z</time>
      </trkpt>
      <trkpt lat="45.67264" lon="4.66255">
        <ele>361.9</ele>
        <time>2021-09-04T18:41:53Z</time>
      </trkpt>
      <trkpt lat="45.67279" lon="4.66245">
        <ele>361.6</ele>
        <time>2021-09-04T18:41:55Z</time>
      </trkpt>
      <trkpt lat="45.67292" lon="4.66233">
        <ele>361.3</ele>
        <time>2021-09-04T18:41:57Z</time>
      </trkpt>
      <trkpt lat="45.67299" lon="4.66226">
        <ele>361.1</ele>
        <time>2021-09-04T18:41:58Z</time>
      </trkpt>
      <trkpt lat="45.67307" lon="4.66218">
        <ele>360.9</ele>
        <time>2021-09-04T18:41:59Z</time>
      </trkpt>
      <trkpt lat="45.6732" lon="4.66202">
        <ele>360.5</ele>
        <time>2021-09-04T18:42:01Z</time>
      </trkpt>
      <trkpt lat="45.67326" lon="4.66194">
        <ele>360.2</ele>
        <time>2021-09-04T18:42:02Z</time>
      </trkpt>
      <trkpt lat="45.67333" lon="4.66186">
        <ele>359.8</ele>
        <time>2021-09-04T18:42:03Z</time>
      </trkpt>
      <trkpt lat="45.67347" lon="4.66169">
        <ele>359.1</ele>
        <time>2021-09-04T18:42:05Z</time>
      </trkpt>
      <trkpt lat="45.67354" lon="4.66161">
        <ele>358.8</ele>
        <time>2021-09-04T18:42:06Z</time>
      </trkpt>
      <trkpt lat="45.67369" lon="4.66148">
        <ele>358.3</ele>
        <time>2021-09-04T18:42:08Z</time>
      </trkpt>
      <trkpt lat="45.67376" lon="4.66141">
        <ele>358.2</ele>
        <time>2021-09-04T18:42:09Z</time>
      </trkpt>
      <trkpt lat="45.67384" lon="4.66136">
        <ele>358.1</ele>
        <time>2021-09-04T18:42:10Z</time>
      </trkpt>
      <trkpt lat="45.67392" lon="4.66133">
        <ele>358.1</ele>
        <time>2021-09-04T18:42:11Z</time>
      </trkpt>
      <trkpt lat="45.674" lon="4.66129">
        <ele>358.1</ele>
        <time>2021-09-04T18:42:12Z</time>
      </trkpt>
      <trkpt lat="45.67415" lon="4.66121">
        <ele>358.1</ele>
        <time>2021-09-04T18:42:14Z</time>
      </trkpt>
      <trkpt lat="45.67421" lon="4.66117">
        <ele>358</ele>
        <time>2021-09-04T18:42:15Z</time>
      </trkpt>
      <trkpt lat="45.67436" lon="4.66111">
        <ele>357.5</ele>
        <time>2021-09-04T18:42:17Z</time>
      </trkpt>
      <trkpt lat="45.67445" lon="4.66112">
        <ele>357</ele>
        <time>2021-09-04T18:42:18Z</time>
      </trkpt>
      <trkpt lat="45.67462" lon="4.66116">
        <ele>356</ele>
        <time>2021-09-04T18:42:20Z</time>
      </trkpt>
      <trkpt lat="45.67478" lon="4.66122">
        <ele>355.2</ele>
        <time>2021-09-04T18:42:22Z</time>
      </trkpt>
      <trkpt lat="45.67496" lon="4.66127">
        <ele>354.5</ele>
        <time>2021-09-04T18:42:24Z</time>
      </trkpt>
      <trkpt lat="45.67505" lon="4.66127">
        <ele>354.2</ele>
        <time>2021-09-04T18:42:25Z</time>
      </trkpt>
      <trkpt lat="45.67522" lon="4.66121">
        <ele>353.6</ele>
        <time>2021-09-04T18:42:27Z</time>
      </trkpt>
      <trkpt lat="45.67529" lon="4.66115">
        <ele>353.5</ele>
        <time>2021-09-04T18:42:28Z</time>
      </trkpt>
      <trkpt lat="45.67537" lon="4.66108">
        <ele>353.3</ele>
        <time>2021-09-04T18:42:29Z</time>
      </trkpt>
      <trkpt lat="45.6755" lon="4.66096">
        <ele>352.9</ele>
        <time>2021-09-04T18:42:31Z</time>
      </trkpt>
      <trkpt lat="45.67564" lon="4.66086">
        <ele>352.1</ele>
        <time>2021-09-04T18:42:33Z</time>
      </trkpt>
      <trkpt lat="45.67579" lon="4.66076">
        <ele>350.9</ele>
        <time>2021-09-04T18:42:35Z</time>
      </trkpt>
      <trkpt lat="45.67595" lon="4.66065">
        <ele>349.4</ele>
        <time>2021-09-04T18:42:37Z</time>
      </trkpt>
      <trkpt lat="45.67603" lon="4.6606">
        <ele>348.5</ele>
        <time>2021-09-04T18:42:38Z</time>
      </trkpt>
      <trkpt lat="45.67622" lon="4.66053">
        <ele>346.1</ele>
        <time>2021-09-04T18:42:40Z</time>
      </trkpt>
      <trkpt lat="45.67633" lon="4.66051">
        <ele>344.7</ele>
        <time>2021-09-04T18:42:41Z</time>
      </trkpt>
      <trkpt lat="45.67655" lon="4.66047">
        <ele>341.8</ele>
        <time>2021-09-04T18:42:43Z</time>
      </trkpt>
      <trkpt lat="45.67679" lon="4.66043">
        <ele>339</ele>
        <time>2021-09-04T18:42:45Z</time>
      </trkpt>
      <trkpt lat="45.67691" lon="4.6604">
        <ele>337.6</ele>
        <time>2021-09-04T18:42:46Z</time>
      </trkpt>
      <trkpt lat="45.67711" lon="4.66035">
        <ele>335.3</ele>
        <time>2021-09-04T18:42:48Z</time>
      </trkpt>
      <trkpt lat="45.67719" lon="4.66028">
        <ele>334.1</ele>
        <time>2021-09-04T18:42:49Z</time>
      </trkpt>
      <trkpt lat="45.67734" lon="4.66011">
        <ele>331.7</ele>
        <time>2021-09-04T18:42:51Z</time>
      </trkpt>
      <trkpt lat="45.67742" lon="4.66">
        <ele>330.5</ele>
        <time>2021-09-04T18:42:52Z</time>
      </trkpt>
      <trkpt lat="45.67757" lon="4.65979">
        <ele>327.8</ele>
        <time>2021-09-04T18:42:54Z</time>
      </trkpt>
      <trkpt lat="45.67766" lon="4.65958">
        <ele>325.5</ele>
        <time>2021-09-04T18:42:56Z</time>
      </trkpt>
      <trkpt lat="45.6777" lon="4.6594">
        <ele>323.8</ele>
        <time>2021-09-04T18:42:58Z</time>
      </trkpt>
      <trkpt lat="45.67779" lon="4.65926">
        <ele>322.2</ele>
        <time>2021-09-04T18:43:00Z</time>
      </trkpt>
      <trkpt lat="45.67784" lon="4.65924">
        <ele>321.6</ele>
        <time>2021-09-04T18:43:01Z</time>
      </trkpt>
      <trkpt lat="45.67791" lon="4.65925">
        <ele>320.9</ele>
        <time>2021-09-04T18:43:02Z</time>
      </trkpt>
      <trkpt lat="45.67805" lon="4.65926">
        <ele>319.4</ele>
        <time>2021-09-04T18:43:04Z</time>
      </trkpt>
      <trkpt lat="45.67822" lon="4.65929">
        <ele>317.9</ele>
        <time>2021-09-04T18:43:06Z</time>
      </trkpt>
      <trkpt lat="45.67831" lon="4.6593">
        <ele>317.3</ele>
        <time>2021-09-04T18:43:07Z</time>
      </trkpt>
      <trkpt lat="45.67846" lon="4.65933">
        <ele>316.5</ele>
        <time>2021-09-04T18:43:09Z</time>
      </trkpt>
      <trkpt lat="45.67853" lon="4.65934">
        <ele>316.3</ele>
        <time>2021-09-04T18:43:10Z</time>
      </trkpt>
      <trkpt lat="45.67865" lon="4.6594">
        <ele>316.2</ele>
        <time>2021-09-04T18:43:12Z</time>
      </trkpt>
      <trkpt lat="45.67872" lon="4.65954">
        <ele>316.2</ele>
        <time>2021-09-04T18:43:14Z</time>
      </trkpt>
      <trkpt lat="45.67877" lon="4.65964">
        <ele>316.3</ele>
        <time>2021-09-04T18:43:16Z</time>
      </trkpt>
      <trkpt lat="45.67879" lon="4.6597">
        <ele>316</ele>
        <time>2021-09-04T18:43:17Z</time>
      </trkpt>
      <trkpt lat="45.67879" lon="4.65977">
        <ele>315.9</ele>
        <time>2021-09-04T18:43:18Z</time>
      </trkpt>
      <trkpt lat="45.67874" lon="4.65991">
        <ele>315.7</ele>
        <time>2021-09-04T18:43:20Z</time>
      </trkpt>
      <trkpt lat="45.6787" lon="4.66005">
        <ele>315.5</ele>
        <time>2021-09-04T18:43:22Z</time>
      </trkpt>
      <trkpt lat="45.6787" lon="4.66017">
        <ele>315.4</ele>
        <time>2021-09-04T18:43:24Z</time>
      </trkpt>
      <trkpt lat="45.6787" lon="4.6603">
        <ele>315.2</ele>
        <time>2021-09-04T18:43:26Z</time>
      </trkpt>
      <trkpt lat="45.67873" lon="4.66047">
        <ele>315.1</ele>
        <time>2021-09-04T18:43:28Z</time>
      </trkpt>
      <trkpt lat="45.67874" lon="4.66063">
        <ele>314.9</ele>
        <time>2021-09-04T18:43:30Z</time>
      </trkpt>
      <trkpt lat="45.67875" lon="4.6607">
        <ele>314.9</ele>
        <time>2021-09-04T18:43:31Z</time>
      </trkpt>
      <trkpt lat="45.67877" lon="4.66086">
        <ele>314.8</ele>
        <time>2021-09-04T18:43:33Z</time>
      </trkpt>
      <trkpt lat="45.67879" lon="4.66102">
        <ele>314.7</ele>
        <time>2021-09-04T18:43:35Z</time>
      </trkpt>
      <trkpt lat="45.67881" lon="4.66118">
        <ele>314.6</ele>
        <time>2021-09-04T18:43:37Z</time>
      </trkpt>
      <trkpt lat="45.67884" lon="4.66134">
        <ele>314.6</ele>
        <time>2021-09-04T18:43:39Z</time>
      </trkpt>
      <trkpt lat="45.67885" lon="4.6615">
        <ele>314.7</ele>
        <time>2021-09-04T18:43:41Z</time>
      </trkpt>
      <trkpt lat="45.67886" lon="4.66158">
        <ele>314.8</ele>
        <time>2021-09-04T18:43:42Z</time>
      </trkpt>
      <trkpt lat="45.67888" lon="4.66166">
        <ele>314.9</ele>
        <time>2021-09-04T18:43:43Z</time>
      </trkpt>
      <trkpt lat="45.67889" lon="4.6618">
        <ele>315.1</ele>
        <time>2021-09-04T18:43:45Z</time>
      </trkpt>
      <trkpt lat="45.67889" lon="4.66186">
        <ele>315.3</ele>
        <time>2021-09-04T18:43:46Z</time>
      </trkpt>
      <trkpt lat="45.6789" lon="4.66199">
        <ele>315.6</ele>
        <time>2021-09-04T18:43:48Z</time>
      </trkpt>
      <trkpt lat="45.6789" lon="4.6621">
        <ele>316</ele>
        <time>2021-09-04T18:43:50Z</time>
      </trkpt>
      <trkpt lat="45.67891" lon="4.66219">
        <ele>316.3</ele>
        <time>2021-09-04T18:43:52Z</time>
      </trkpt>
      <trkpt lat="45.67891" lon="4.66225">
        <ele>316.6</ele>
        <time>2021-09-04T18:43:53Z</time>
      </trkpt>
      <trkpt lat="45.67892" lon="4.66235">
        <ele>317</ele>
        <time>2021-09-04T18:43:55Z</time>
      </trkpt>
      <trkpt lat="45.67894" lon="4.66239">
        <ele>317.2</ele>
        <time>2021-09-04T18:43:57Z</time>
      </trkpt>
      <trkpt lat="45.67894" lon="4.66249">
        <ele>317.6</ele>
        <time>2021-09-04T18:43:58Z</time>
      </trkpt>
      <trkpt lat="45.67894" lon="4.66258">
        <ele>318</ele>
        <time>2021-09-04T18:44:00Z</time>
      </trkpt>
      <trkpt lat="45.67894" lon="4.66264">
        <ele>318.3</ele>
        <time>2021-09-04T18:44:01Z</time>
      </trkpt>
      <trkpt lat="45.67893" lon="4.66274">
        <ele>318.8</ele>
        <time>2021-09-04T18:44:03Z</time>
      </trkpt>
      <trkpt lat="45.67893" lon="4.66282">
        <ele>319.2</ele>
        <time>2021-09-04T18:44:05Z</time>
      </trkpt>
      <trkpt lat="45.67893" lon="4.66291">
        <ele>319.6</ele>
        <time>2021-09-04T18:44:07Z</time>
      </trkpt>
      <trkpt lat="45.67893" lon="4.66298">
        <ele>319.9</ele>
        <time>2021-09-04T18:44:08Z</time>
      </trkpt>
      <trkpt lat="45.67893" lon="4.66303">
        <ele>320.2</ele>
        <time>2021-09-04T18:44:09Z</time>
      </trkpt>
      <trkpt lat="45.67894" lon="4.66308">
        <ele>320.4</ele>
        <time>2021-09-04T18:44:10Z</time>
      </trkpt>
      <trkpt lat="45.67895" lon="4.66316">
        <ele>320.8</ele>
        <time>2021-09-04T18:44:12Z</time>
      </trkpt>
      <trkpt lat="45.67896" lon="4.66322">
        <ele>321</ele>
        <time>2021-09-04T18:44:13Z</time>
      </trkpt>
      <trkpt lat="45.67897" lon="4.6633">
        <ele>321.4</ele>
        <time>2021-09-04T18:44:15Z</time>
      </trkpt>
      <trkpt lat="45.67897" lon="4.66336">
        <ele>321.6</ele>
        <time>2021-09-04T18:44:16Z</time>
      </trkpt>
      <trkpt lat="45.67899" lon="4.66345">
        <ele>322</ele>
        <time>2021-09-04T18:44:18Z</time>
      </trkpt>
      <trkpt lat="45.67902" lon="4.66349">
        <ele>322.2</ele>
        <time>2021-09-04T18:44:19Z</time>
      </trkpt>
      <trkpt lat="45.67905" lon="4.66355">
        <ele>322.3</ele>
        <time>2021-09-04T18:44:21Z</time>
      </trkpt>
      <trkpt lat="45.67909" lon="4.66361">
        <ele>322.4</ele>
        <time>2021-09-04T18:44:22Z</time>
      </trkpt>
      <trkpt lat="45.67911" lon="4.66367">
        <ele>322.5</ele>
        <time>2021-09-04T18:44:23Z</time>
      </trkpt>
      <trkpt lat="45.67913" lon="4.66376">
        <ele>322.7</ele>
        <time>2021-09-04T18:44:25Z</time>
      </trkpt>
      <trkpt lat="45.67915" lon="4.66383">
        <ele>322.8</ele>
        <time>2021-09-04T18:44:26Z</time>
      </trkpt>
      <trkpt lat="45.67915" lon="4.66392">
        <ele>322.9</ele>
        <time>2021-09-04T18:44:28Z</time>
      </trkpt>
      <trkpt lat="45.67916" lon="4.66399">
        <ele>323</ele>
        <time>2021-09-04T18:44:29Z</time>
      </trkpt>
      <trkpt lat="45.67916" lon="4.66405">
        <ele>323</ele>
        <time>2021-09-04T18:44:31Z</time>
      </trkpt>
      <trkpt lat="45.67918" lon="4.66414">
        <ele>323.1</ele>
        <time>2021-09-04T18:44:32Z</time>
      </trkpt>
      <trkpt lat="45.67918" lon="4.66419">
        <ele>323.1</ele>
        <time>2021-09-04T18:44:33Z</time>
      </trkpt>
      <trkpt lat="45.67919" lon="4.66424">
        <ele>323.1</ele>
        <time>2021-09-04T18:44:34Z</time>
      </trkpt>
      <trkpt lat="45.67921" lon="4.66433">
        <ele>323</ele>
        <time>2021-09-04T18:44:36Z</time>
      </trkpt>
      <trkpt lat="45.67923" lon="4.66438">
        <ele>323</ele>
        <time>2021-09-04T18:44:37Z</time>
      </trkpt>
      <trkpt lat="45.67925" lon="4.66444">
        <ele>322.9</ele>
        <time>2021-09-04T18:44:39Z</time>
      </trkpt>
      <trkpt lat="45.67928" lon="4.66452">
        <ele>322.8</ele>
        <time>2021-09-04T18:44:40Z</time>
      </trkpt>
      <trkpt lat="45.67929" lon="4.66457">
        <ele>322.7</ele>
        <time>2021-09-04T18:44:41Z</time>
      </trkpt>
      <trkpt lat="45.67931" lon="4.66463">
        <ele>322.6</ele>
        <time>2021-09-04T18:44:42Z</time>
      </trkpt>
      <trkpt lat="45.67935" lon="4.66476">
        <ele>322.4</ele>
        <time>2021-09-04T18:44:44Z</time>
      </trkpt>
      <trkpt lat="45.67937" lon="4.66482">
        <ele>322.3</ele>
        <time>2021-09-04T18:44:45Z</time>
      </trkpt>
      <trkpt lat="45.67941" lon="4.66494">
        <ele>322.1</ele>
        <time>2021-09-04T18:44:47Z</time>
      </trkpt>
      <trkpt lat="45.67943" lon="4.66501">
        <ele>322</ele>
        <time>2021-09-04T18:44:48Z</time>
      </trkpt>
      <trkpt lat="45.67945" lon="4.66507">
        <ele>321.9</ele>
        <time>2021-09-04T18:44:49Z</time>
      </trkpt>
      <trkpt lat="45.67949" lon="4.66521">
        <ele>321.7</ele>
        <time>2021-09-04T18:44:51Z</time>
      </trkpt>
      <trkpt lat="45.67951" lon="4.66527">
        <ele>321.6</ele>
        <time>2021-09-04T18:44:52Z</time>
      </trkpt>
      <trkpt lat="45.67955" lon="4.66541">
        <ele>321.4</ele>
        <time>2021-09-04T18:44:54Z</time>
      </trkpt>
      <trkpt lat="45.67958" lon="4.66548">
        <ele>321.4</ele>
        <time>2021-09-04T18:44:55Z</time>
      </trkpt>
      <trkpt lat="45.6796" lon="4.66555">
        <ele>321.3</ele>
        <time>2021-09-04T18:44:56Z</time>
      </trkpt>
      <trkpt lat="45.67965" lon="4.6657">
        <ele>321.2</ele>
        <time>2021-09-04T18:44:58Z</time>
      </trkpt>
      <trkpt lat="45.67967" lon="4.66578">
        <ele>321.2</ele>
        <time>2021-09-04T18:44:59Z</time>
      </trkpt>
      <trkpt lat="45.67969" lon="4.66585">
        <ele>321.2</ele>
        <time>2021-09-04T18:45:00Z</time>
      </trkpt>
      <trkpt lat="45.67973" lon="4.666">
        <ele>321</ele>
        <time>2021-09-04T18:45:02Z</time>
      </trkpt>
      <trkpt lat="45.67975" lon="4.66608">
        <ele>321</ele>
        <time>2021-09-04T18:45:03Z</time>
      </trkpt>
      <trkpt lat="45.67979" lon="4.66623">
        <ele>320.9</ele>
        <time>2021-09-04T18:45:05Z</time>
      </trkpt>
      <trkpt lat="45.67981" lon="4.6663">
        <ele>320.8</ele>
        <time>2021-09-04T18:45:06Z</time>
      </trkpt>
      <trkpt lat="45.67985" lon="4.66645">
        <ele>320.7</ele>
        <time>2021-09-04T18:45:08Z</time>
      </trkpt>
      <trkpt lat="45.67987" lon="4.66653">
        <ele>320.7</ele>
        <time>2021-09-04T18:45:09Z</time>
      </trkpt>
      <trkpt lat="45.67989" lon="4.6666">
        <ele>320.6</ele>
        <time>2021-09-04T18:45:10Z</time>
      </trkpt>
      <trkpt lat="45.67992" lon="4.66668">
        <ele>320.6</ele>
        <time>2021-09-04T18:45:11Z</time>
      </trkpt>
      <trkpt lat="45.67996" lon="4.66682">
        <ele>320.4</ele>
        <time>2021-09-04T18:45:13Z</time>
      </trkpt>
      <trkpt lat="45.67998" lon="4.66688">
        <ele>320.4</ele>
        <time>2021-09-04T18:45:14Z</time>
      </trkpt>
      <trkpt lat="45.68" lon="4.66695">
        <ele>320.3</ele>
        <time>2021-09-04T18:45:15Z</time>
      </trkpt>
      <trkpt lat="45.68004" lon="4.66708">
        <ele>319.9</ele>
        <time>2021-09-04T18:45:17Z</time>
      </trkpt>
      <trkpt lat="45.68006" lon="4.66716">
        <ele>319.7</ele>
        <time>2021-09-04T18:45:18Z</time>
      </trkpt>
      <trkpt lat="45.68013" lon="4.6673">
        <ele>319</ele>
        <time>2021-09-04T18:45:20Z</time>
      </trkpt>
      <trkpt lat="45.68017" lon="4.66737">
        <ele>318.7</ele>
        <time>2021-09-04T18:45:21Z</time>
      </trkpt>
      <trkpt lat="45.68029" lon="4.66748">
        <ele>318</ele>
        <time>2021-09-04T18:45:23Z</time>
      </trkpt>
      <trkpt lat="45.68035" lon="4.66751">
        <ele>317.6</ele>
        <time>2021-09-04T18:45:24Z</time>
      </trkpt>
      <trkpt lat="45.68041" lon="4.66754">
        <ele>317.2</ele>
        <time>2021-09-04T18:45:25Z</time>
      </trkpt>
      <trkpt lat="45.68053" lon="4.66764">
        <ele>316.2</ele>
        <time>2021-09-04T18:45:27Z</time>
      </trkpt>
      <trkpt lat="45.6806" lon="4.66782">
        <ele>315</ele>
        <time>2021-09-04T18:45:29Z</time>
      </trkpt>
      <trkpt lat="45.68066" lon="4.66802">
        <ele>313.6</ele>
        <time>2021-09-04T18:45:31Z</time>
      </trkpt>
      <trkpt lat="45.68069" lon="4.66815">
        <ele>312.7</ele>
        <time>2021-09-04T18:45:32Z</time>
      </trkpt>
      <trkpt lat="45.68072" lon="4.6684">
        <ele>311</ele>
        <time>2021-09-04T18:45:34Z</time>
      </trkpt>
      <trkpt lat="45.68078" lon="4.66852">
        <ele>310.1</ele>
        <time>2021-09-04T18:45:35Z</time>
      </trkpt>
      <trkpt lat="45.68094" lon="4.6687">
        <ele>308.7</ele>
        <time>2021-09-04T18:45:37Z</time>
      </trkpt>
      <trkpt lat="45.68108" lon="4.66891">
        <ele>308.1</ele>
        <time>2021-09-04T18:45:39Z</time>
      </trkpt>
      <trkpt lat="45.68115" lon="4.66912">
        <ele>307.8</ele>
        <time>2021-09-04T18:45:41Z</time>
      </trkpt>
      <trkpt lat="45.68121" lon="4.66931">
        <ele>307.7</ele>
        <time>2021-09-04T18:45:43Z</time>
      </trkpt>
      <trkpt lat="45.68125" lon="4.66943">
        <ele>307.7</ele>
        <time>2021-09-04T18:45:44Z</time>
      </trkpt>
      <trkpt lat="45.6813" lon="4.66955">
        <ele>307.9</ele>
        <time>2021-09-04T18:45:45Z</time>
      </trkpt>
      <trkpt lat="45.68135" lon="4.66975">
        <ele>308.3</ele>
        <time>2021-09-04T18:45:47Z</time>
      </trkpt>
      <trkpt lat="45.68137" lon="4.66996">
        <ele>308.8</ele>
        <time>2021-09-04T18:45:49Z</time>
      </trkpt>
      <trkpt lat="45.6814" lon="4.67003">
        <ele>309</ele>
        <time>2021-09-04T18:45:50Z</time>
      </trkpt>
      <trkpt lat="45.68147" lon="4.67018">
        <ele>309.3</ele>
        <time>2021-09-04T18:45:52Z</time>
      </trkpt>
      <trkpt lat="45.6815" lon="4.67026">
        <ele>309.5</ele>
        <time>2021-09-04T18:45:53Z</time>
      </trkpt>
      <trkpt lat="45.68152" lon="4.67034">
        <ele>309.7</ele>
        <time>2021-09-04T18:45:54Z</time>
      </trkpt>
      <trkpt lat="45.68155" lon="4.67042">
        <ele>309.8</ele>
        <time>2021-09-04T18:45:55Z</time>
      </trkpt>
      <trkpt lat="45.6816" lon="4.67056">
        <ele>310.2</ele>
        <time>2021-09-04T18:45:57Z</time>
      </trkpt>
      <trkpt lat="45.68164" lon="4.67072">
        <ele>310.5</ele>
        <time>2021-09-04T18:45:59Z</time>
      </trkpt>
      <trkpt lat="45.68166" lon="4.67079">
        <ele>310.7</ele>
        <time>2021-09-04T18:46:00Z</time>
      </trkpt>
      <trkpt lat="45.6817" lon="4.67094">
        <ele>311.2</ele>
        <time>2021-09-04T18:46:02Z</time>
      </trkpt>
      <trkpt lat="45.68173" lon="4.671">
        <ele>311.4</ele>
        <time>2021-09-04T18:46:03Z</time>
      </trkpt>
      <trkpt lat="45.68175" lon="4.67105">
        <ele>311.7</ele>
        <time>2021-09-04T18:46:04Z</time>
      </trkpt>
      <trkpt lat="45.68176" lon="4.67109">
        <ele>311.9</ele>
        <time>2021-09-04T18:46:05Z</time>
      </trkpt>
      <trkpt lat="45.68176" lon="4.67122">
        <ele>312.6</ele>
        <time>2021-09-04T18:46:07Z</time>
      </trkpt>
      <trkpt lat="45.68177" lon="4.67127">
        <ele>312.9</ele>
        <time>2021-09-04T18:46:08Z</time>
      </trkpt>
      <trkpt lat="45.68179" lon="4.67139">
        <ele>313.6</ele>
        <time>2021-09-04T18:46:10Z</time>
      </trkpt>
      <trkpt lat="45.68182" lon="4.67148">
        <ele>314.2</ele>
        <time>2021-09-04T18:46:12Z</time>
      </trkpt>
      <trkpt lat="45.68183" lon="4.6715">
        <ele>314.4</ele>
        <time>2021-09-04T18:46:13Z</time>
      </trkpt>
      <trkpt lat="45.68187" lon="4.67156">
        <ele>314.9</ele>
        <time>2021-09-04T18:46:15Z</time>
      </trkpt>
      <trkpt lat="45.6819" lon="4.67162">
        <ele>315.2</ele>
        <time>2021-09-04T18:46:16Z</time>
      </trkpt>
      <trkpt lat="45.68192" lon="4.67168">
        <ele>315.5</ele>
        <time>2021-09-04T18:46:18Z</time>
      </trkpt>
      <trkpt lat="45.68193" lon="4.67172">
        <ele>315.7</ele>
        <time>2021-09-04T18:46:19Z</time>
      </trkpt>
      <trkpt lat="45.68194" lon="4.67175">
        <ele>315.9</ele>
        <time>2021-09-04T18:46:20Z</time>
      </trkpt>
      <trkpt lat="45.68196" lon="4.67179">
        <ele>316.1</ele>
        <time>2021-09-04T18:46:21Z</time>
      </trkpt>
      <trkpt lat="45.68198" lon="4.67185">
        <ele>316.5</ele>
        <time>2021-09-04T18:46:23Z</time>
      </trkpt>
      <trkpt lat="45.68201" lon="4.6719">
        <ele>316.6</ele>
        <time>2021-09-04T18:46:24Z</time>
      </trkpt>
      <trkpt lat="45.68203" lon="4.67193">
        <ele>316.7</ele>
        <time>2021-09-04T18:46:25Z</time>
      </trkpt>
      <trkpt lat="45.68206" lon="4.672">
        <ele>316.9</ele>
        <time>2021-09-04T18:46:27Z</time>
      </trkpt>
      <trkpt lat="45.68207" lon="4.67205">
        <ele>317</ele>
        <time>2021-09-04T18:46:29Z</time>
      </trkpt>
      <trkpt lat="45.68209" lon="4.6721">
        <ele>317.1</ele>
        <time>2021-09-04T18:46:30Z</time>
      </trkpt>
      <trkpt lat="45.6821" lon="4.67215">
        <ele>317.2</ele>
        <time>2021-09-04T18:46:31Z</time>
      </trkpt>
      <trkpt lat="45.68212" lon="4.67221">
        <ele>317.4</ele>
        <time>2021-09-04T18:46:33Z</time>
      </trkpt>
      <trkpt lat="45.68213" lon="4.67225">
        <ele>317.5</ele>
        <time>2021-09-04T18:46:34Z</time>
      </trkpt>
      <trkpt lat="45.68214" lon="4.67231">
        <ele>317.6</ele>
        <time>2021-09-04T18:46:35Z</time>
      </trkpt>
      <trkpt lat="45.68215" lon="4.67238">
        <ele>317.8</ele>
        <time>2021-09-04T18:46:37Z</time>
      </trkpt>
      <trkpt lat="45.68216" lon="4.67242">
        <ele>317.8</ele>
        <time>2021-09-04T18:46:38Z</time>
      </trkpt>
      <trkpt lat="45.68217" lon="4.67246">
        <ele>317.9</ele>
        <time>2021-09-04T18:46:39Z</time>
      </trkpt>
      <trkpt lat="45.68218" lon="4.67251">
        <ele>317.9</ele>
        <time>2021-09-04T18:46:40Z</time>
      </trkpt>
      <trkpt lat="45.68218" lon="4.67259">
        <ele>318</ele>
        <time>2021-09-04T18:46:42Z</time>
      </trkpt>
      <trkpt lat="45.68219" lon="4.67263">
        <ele>318</ele>
        <time>2021-09-04T18:46:43Z</time>
      </trkpt>
      <trkpt lat="45.6822" lon="4.6727">
        <ele>318</ele>
        <time>2021-09-04T18:46:45Z</time>
      </trkpt>
      <trkpt lat="45.68221" lon="4.67277">
        <ele>317.9</ele>
        <time>2021-09-04T18:46:46Z</time>
      </trkpt>
      <trkpt lat="45.68221" lon="4.67284">
        <ele>317.8</ele>
        <time>2021-09-04T18:46:48Z</time>
      </trkpt>
      <trkpt lat="45.68222" lon="4.67291">
        <ele>317.6</ele>
        <time>2021-09-04T18:46:49Z</time>
      </trkpt>
      <trkpt lat="45.68222" lon="4.67298">
        <ele>317.4</ele>
        <time>2021-09-04T18:46:51Z</time>
      </trkpt>
      <trkpt lat="45.68223" lon="4.67305">
        <ele>317.2</ele>
        <time>2021-09-04T18:46:52Z</time>
      </trkpt>
      <trkpt lat="45.68224" lon="4.67313">
        <ele>316.9</ele>
        <time>2021-09-04T18:46:53Z</time>
      </trkpt>
      <trkpt lat="45.68224" lon="4.6732">
        <ele>316.7</ele>
        <time>2021-09-04T18:46:54Z</time>
      </trkpt>
      <trkpt lat="45.68225" lon="4.67335">
        <ele>316.3</ele>
        <time>2021-09-04T18:46:56Z</time>
      </trkpt>
      <trkpt lat="45.68226" lon="4.6735">
        <ele>315.8</ele>
        <time>2021-09-04T18:46:58Z</time>
      </trkpt>
      <trkpt lat="45.68227" lon="4.67367">
        <ele>315.3</ele>
        <time>2021-09-04T18:47:00Z</time>
      </trkpt>
      <trkpt lat="45.68227" lon="4.67375">
        <ele>315</ele>
        <time>2021-09-04T18:47:01Z</time>
      </trkpt>
      <trkpt lat="45.68228" lon="4.67384">
        <ele>314.7</ele>
        <time>2021-09-04T18:47:02Z</time>
      </trkpt>
      <trkpt lat="45.68229" lon="4.67404">
        <ele>314.2</ele>
        <time>2021-09-04T18:47:04Z</time>
      </trkpt>
      <trkpt lat="45.68229" lon="4.67415">
        <ele>314</ele>
        <time>2021-09-04T18:47:05Z</time>
      </trkpt>
      <trkpt lat="45.6823" lon="4.67435">
        <ele>313.8</ele>
        <time>2021-09-04T18:47:07Z</time>
      </trkpt>
      <trkpt lat="45.68231" lon="4.67454">
        <ele>313.9</ele>
        <time>2021-09-04T18:47:09Z</time>
      </trkpt>
      <trkpt lat="45.68232" lon="4.67473">
        <ele>314</ele>
        <time>2021-09-04T18:47:11Z</time>
      </trkpt>
      <trkpt lat="45.68232" lon="4.67481">
        <ele>314.1</ele>
        <time>2021-09-04T18:47:12Z</time>
      </trkpt>
      <trkpt lat="45.68233" lon="4.67498">
        <ele>314.4</ele>
        <time>2021-09-04T18:47:14Z</time>
      </trkpt>
      <trkpt lat="45.68233" lon="4.67506">
        <ele>314.6</ele>
        <time>2021-09-04T18:47:15Z</time>
      </trkpt>
      <trkpt lat="45.68233" lon="4.67522">
        <ele>315</ele>
        <time>2021-09-04T18:47:17Z</time>
      </trkpt>
      <trkpt lat="45.68233" lon="4.67536">
        <ele>315.5</ele>
        <time>2021-09-04T18:47:19Z</time>
      </trkpt>
      <trkpt lat="45.68232" lon="4.67549">
        <ele>315.9</ele>
        <time>2021-09-04T18:47:21Z</time>
      </trkpt>
      <trkpt lat="45.68232" lon="4.67561">
        <ele>316.3</ele>
        <time>2021-09-04T18:47:23Z</time>
      </trkpt>
      <trkpt lat="45.68232" lon="4.67573">
        <ele>316.6</ele>
        <time>2021-09-04T18:47:25Z</time>
      </trkpt>
      <trkpt lat="45.68232" lon="4.67579">
        <ele>316.8</ele>
        <time>2021-09-04T18:47:26Z</time>
      </trkpt>
      <trkpt lat="45.68233" lon="4.6759">
        <ele>317.2</ele>
        <time>2021-09-04T18:47:28Z</time>
      </trkpt>
      <trkpt lat="45.68233" lon="4.67597">
        <ele>317.4</ele>
        <time>2021-09-04T18:47:29Z</time>
      </trkpt>
      <trkpt lat="45.68233" lon="4.67601">
        <ele>317.6</ele>
        <time>2021-09-04T18:47:30Z</time>
      </trkpt>
      <trkpt lat="45.68232" lon="4.67608">
        <ele>317.9</ele>
        <time>2021-09-04T18:47:32Z</time>
      </trkpt>
      <trkpt lat="45.68232" lon="4.67617">
        <ele>318.2</ele>
        <time>2021-09-04T18:47:33Z</time>
      </trkpt>
      <trkpt lat="45.68232" lon="4.67628">
        <ele>318.6</ele>
        <time>2021-09-04T18:47:35Z</time>
      </trkpt>
      <trkpt lat="45.68232" lon="4.67637">
        <ele>318.9</ele>
        <time>2021-09-04T18:47:37Z</time>
      </trkpt>
      <trkpt lat="45.68233" lon="4.67645">
        <ele>319.2</ele>
        <time>2021-09-04T18:47:38Z</time>
      </trkpt>
      <trkpt lat="45.68233" lon="4.67654">
        <ele>319.5</ele>
        <time>2021-09-04T18:47:40Z</time>
      </trkpt>
      <trkpt lat="45.68232" lon="4.67662">
        <ele>319.8</ele>
        <time>2021-09-04T18:47:42Z</time>
      </trkpt>
      <trkpt lat="45.68232" lon="4.67669">
        <ele>320.1</ele>
        <time>2021-09-04T18:47:43Z</time>
      </trkpt>
      <trkpt lat="45.68232" lon="4.67678">
        <ele>320.4</ele>
        <time>2021-09-04T18:47:45Z</time>
      </trkpt>
      <trkpt lat="45.68232" lon="4.67687">
        <ele>320.7</ele>
        <time>2021-09-04T18:47:47Z</time>
      </trkpt>
      <trkpt lat="45.68232" lon="4.67695">
        <ele>321</ele>
        <time>2021-09-04T18:47:49Z</time>
      </trkpt>
      <trkpt lat="45.68232" lon="4.67701">
        <ele>321.2</ele>
        <time>2021-09-04T18:47:50Z</time>
      </trkpt>
      <trkpt lat="45.68231" lon="4.67708">
        <ele>321.5</ele>
        <time>2021-09-04T18:47:52Z</time>
      </trkpt>
      <trkpt lat="45.68231" lon="4.67714">
        <ele>321.7</ele>
        <time>2021-09-04T18:47:53Z</time>
      </trkpt>
      <trkpt lat="45.6823" lon="4.67723">
        <ele>321.7</ele>
        <time>2021-09-04T18:47:55Z</time>
      </trkpt>
      <trkpt lat="45.68231" lon="4.67728">
        <ele>321.8</ele>
        <time>2021-09-04T18:47:57Z</time>
      </trkpt>
      <trkpt lat="45.68231" lon="4.67735">
        <ele>321.8</ele>
        <time>2021-09-04T18:47:58Z</time>
      </trkpt>
      <trkpt lat="45.68231" lon="4.67743">
        <ele>321.8</ele>
        <time>2021-09-04T18:48:00Z</time>
      </trkpt>
      <trkpt lat="45.6823" lon="4.67746">
        <ele>321.8</ele>
        <time>2021-09-04T18:48:01Z</time>
      </trkpt>
      <trkpt lat="45.68231" lon="4.67754">
        <ele>321.9</ele>
        <time>2021-09-04T18:48:03Z</time>
      </trkpt>
      <trkpt lat="45.68231" lon="4.6776">
        <ele>321.9</ele>
        <time>2021-09-04T18:48:04Z</time>
      </trkpt>
      <trkpt lat="45.68232" lon="4.67766">
        <ele>321.9</ele>
        <time>2021-09-04T18:48:05Z</time>
      </trkpt>
      <trkpt lat="45.68233" lon="4.67772">
        <ele>321.9</ele>
        <time>2021-09-04T18:48:07Z</time>
      </trkpt>
      <trkpt lat="45.68234" lon="4.67781">
        <ele>322</ele>
        <time>2021-09-04T18:48:08Z</time>
      </trkpt>
      <trkpt lat="45.68235" lon="4.67791">
        <ele>322.2</ele>
        <time>2021-09-04T18:48:10Z</time>
      </trkpt>
      <trkpt lat="45.68236" lon="4.67798">
        <ele>322.3</ele>
        <time>2021-09-04T18:48:11Z</time>
      </trkpt>
      <trkpt lat="45.68237" lon="4.67807">
        <ele>322.4</ele>
        <time>2021-09-04T18:48:13Z</time>
      </trkpt>
      <trkpt lat="45.68237" lon="4.67814">
        <ele>322.5</ele>
        <time>2021-09-04T18:48:14Z</time>
      </trkpt>
      <trkpt lat="45.68238" lon="4.67824">
        <ele>322.6</ele>
        <time>2021-09-04T18:48:16Z</time>
      </trkpt>
      <trkpt lat="45.68239" lon="4.6783">
        <ele>322.7</ele>
        <time>2021-09-04T18:48:17Z</time>
      </trkpt>
      <trkpt lat="45.6824" lon="4.67841">
        <ele>322.9</ele>
        <time>2021-09-04T18:48:19Z</time>
      </trkpt>
      <trkpt lat="45.6824" lon="4.67847">
        <ele>323</ele>
        <time>2021-09-04T18:48:20Z</time>
      </trkpt>
      <trkpt lat="45.68241" lon="4.67857">
        <ele>323.2</ele>
        <time>2021-09-04T18:48:22Z</time>
      </trkpt>
      <trkpt lat="45.68242" lon="4.67863">
        <ele>323.3</ele>
        <time>2021-09-04T18:48:23Z</time>
      </trkpt>
      <trkpt lat="45.68242" lon="4.67869">
        <ele>323.4</ele>
        <time>2021-09-04T18:48:24Z</time>
      </trkpt>
      <trkpt lat="45.68244" lon="4.67879">
        <ele>323.5</ele>
        <time>2021-09-04T18:48:26Z</time>
      </trkpt>
      <trkpt lat="45.68246" lon="4.67888">
        <ele>323.6</ele>
        <time>2021-09-04T18:48:28Z</time>
      </trkpt>
      <trkpt lat="45.68248" lon="4.67895">
        <ele>323.8</ele>
        <time>2021-09-04T18:48:29Z</time>
      </trkpt>
      <trkpt lat="45.68249" lon="4.67901">
        <ele>323.8</ele>
        <time>2021-09-04T18:48:30Z</time>
      </trkpt>
      <trkpt lat="45.68252" lon="4.6791">
        <ele>324</ele>
        <time>2021-09-04T18:48:32Z</time>
      </trkpt>
      <trkpt lat="45.68254" lon="4.67917">
        <ele>324.1</ele>
        <time>2021-09-04T18:48:33Z</time>
      </trkpt>
      <trkpt lat="45.68256" lon="4.67923">
        <ele>324.3</ele>
        <time>2021-09-04T18:48:34Z</time>
      </trkpt>
      <trkpt lat="45.68258" lon="4.67931">
        <ele>324.4</ele>
        <time>2021-09-04T18:48:36Z</time>
      </trkpt>
      <trkpt lat="45.68261" lon="4.67938">
        <ele>324.6</ele>
        <time>2021-09-04T18:48:37Z</time>
      </trkpt>
      <trkpt lat="45.68263" lon="4.67944">
        <ele>324.7</ele>
        <time>2021-09-04T18:48:38Z</time>
      </trkpt>
      <trkpt lat="45.68264" lon="4.67949">
        <ele>324.8</ele>
        <time>2021-09-04T18:48:39Z</time>
      </trkpt>
      <trkpt lat="45.68266" lon="4.67957">
        <ele>325</ele>
        <time>2021-09-04T18:48:41Z</time>
      </trkpt>
      <trkpt lat="45.68268" lon="4.67965">
        <ele>325.2</ele>
        <time>2021-09-04T18:48:42Z</time>
      </trkpt>
      <trkpt lat="45.6827" lon="4.67971">
        <ele>325.3</ele>
        <time>2021-09-04T18:48:43Z</time>
      </trkpt>
      <trkpt lat="45.68272" lon="4.6798">
        <ele>325.5</ele>
        <time>2021-09-04T18:48:45Z</time>
      </trkpt>
      <trkpt lat="45.68273" lon="4.67986">
        <ele>325.6</ele>
        <time>2021-09-04T18:48:46Z</time>
      </trkpt>
      <trkpt lat="45.68273" lon="4.67991">
        <ele>325.7</ele>
        <time>2021-09-04T18:48:47Z</time>
      </trkpt>
      <trkpt lat="45.68274" lon="4.67998">
        <ele>325.9</ele>
        <time>2021-09-04T18:48:49Z</time>
      </trkpt>
      <trkpt lat="45.68275" lon="4.68005">
        <ele>326</ele>
        <time>2021-09-04T18:48:50Z</time>
      </trkpt>
      <trkpt lat="45.68276" lon="4.68011">
        <ele>326.1</ele>
        <time>2021-09-04T18:48:51Z</time>
      </trkpt>
      <trkpt lat="45.68276" lon="4.68016">
        <ele>326.2</ele>
        <time>2021-09-04T18:48:52Z</time>
      </trkpt>
      <trkpt lat="45.68277" lon="4.68025">
        <ele>326.3</ele>
        <time>2021-09-04T18:48:54Z</time>
      </trkpt>
      <trkpt lat="45.68278" lon="4.6803">
        <ele>326.3</ele>
        <time>2021-09-04T18:48:55Z</time>
      </trkpt>
      <trkpt lat="45.68279" lon="4.68039">
        <ele>326.4</ele>
        <time>2021-09-04T18:48:57Z</time>
      </trkpt>
      <trkpt lat="45.6828" lon="4.68046">
        <ele>326.5</ele>
        <time>2021-09-04T18:48:58Z</time>
      </trkpt>
      <trkpt lat="45.68282" lon="4.68053">
        <ele>326.6</ele>
        <time>2021-09-04T18:49:00Z</time>
      </trkpt>
      <trkpt lat="45.68283" lon="4.6806">
        <ele>326.7</ele>
        <time>2021-09-04T18:49:01Z</time>
      </trkpt>
      <trkpt lat="45.68284" lon="4.68067">
        <ele>326.7</ele>
        <time>2021-09-04T18:49:03Z</time>
      </trkpt>
      <trkpt lat="45.68285" lon="4.68074">
        <ele>326.7</ele>
        <time>2021-09-04T18:49:04Z</time>
      </trkpt>
      <trkpt lat="45.68286" lon="4.68081">
        <ele>326.7</ele>
        <time>2021-09-04T18:49:06Z</time>
      </trkpt>
      <trkpt lat="45.68286" lon="4.68088">
        <ele>326.6</ele>
        <time>2021-09-04T18:49:07Z</time>
      </trkpt>
      <trkpt lat="45.68287" lon="4.68092">
        <ele>326.5</ele>
        <time>2021-09-04T18:49:08Z</time>
      </trkpt>
      <trkpt lat="45.68287" lon="4.68098">
        <ele>326.4</ele>
        <time>2021-09-04T18:49:09Z</time>
      </trkpt>
      <trkpt lat="45.68288" lon="4.68103">
        <ele>326.3</ele>
        <time>2021-09-04T18:49:10Z</time>
      </trkpt>
      <trkpt lat="45.6829" lon="4.68115">
        <ele>326</ele>
        <time>2021-09-04T18:49:12Z</time>
      </trkpt>
      <trkpt lat="45.6829" lon="4.6812">
        <ele>325.9</ele>
        <time>2021-09-04T18:49:13Z</time>
      </trkpt>
      <trkpt lat="45.68291" lon="4.68133">
        <ele>325.5</ele>
        <time>2021-09-04T18:49:15Z</time>
      </trkpt>
      <trkpt lat="45.68292" lon="4.68147">
        <ele>325.1</ele>
        <time>2021-09-04T18:49:17Z</time>
      </trkpt>
      <trkpt lat="45.68293" lon="4.68154">
        <ele>324.9</ele>
        <time>2021-09-04T18:49:18Z</time>
      </trkpt>
      <trkpt lat="45.68294" lon="4.68169">
        <ele>324.5</ele>
        <time>2021-09-04T18:49:20Z</time>
      </trkpt>
      <trkpt lat="45.68295" lon="4.68177">
        <ele>324.4</ele>
        <time>2021-09-04T18:49:21Z</time>
      </trkpt>
      <trkpt lat="45.68295" lon="4.68184">
        <ele>324.2</ele>
        <time>2021-09-04T18:49:22Z</time>
      </trkpt>
      <trkpt lat="45.68297" lon="4.68199">
        <ele>323.8</ele>
        <time>2021-09-04T18:49:24Z</time>
      </trkpt>
      <trkpt lat="45.68298" lon="4.68207">
        <ele>323.6</ele>
        <time>2021-09-04T18:49:25Z</time>
      </trkpt>
      <trkpt lat="45.68298" lon="4.68215">
        <ele>323.4</ele>
        <time>2021-09-04T18:49:26Z</time>
      </trkpt>
      <trkpt lat="45.683" lon="4.68232">
        <ele>323</ele>
        <time>2021-09-04T18:49:28Z</time>
      </trkpt>
      <trkpt lat="45.68301" lon="4.6824">
        <ele>322.8</ele>
        <time>2021-09-04T18:49:29Z</time>
      </trkpt>
      <trkpt lat="45.68301" lon="4.68248">
        <ele>322.6</ele>
        <time>2021-09-04T18:49:30Z</time>
      </trkpt>
      <trkpt lat="45.68302" lon="4.68256">
        <ele>322.4</ele>
        <time>2021-09-04T18:49:31Z</time>
      </trkpt>
      <trkpt lat="45.68303" lon="4.68272">
        <ele>322.1</ele>
        <time>2021-09-04T18:49:33Z</time>
      </trkpt>
      <trkpt lat="45.68304" lon="4.68288">
        <ele>321.6</ele>
        <time>2021-09-04T18:49:35Z</time>
      </trkpt>
      <trkpt lat="45.68306" lon="4.68304">
        <ele>320.9</ele>
        <time>2021-09-04T18:49:37Z</time>
      </trkpt>
      <trkpt lat="45.68306" lon="4.68313">
        <ele>320.5</ele>
        <time>2021-09-04T18:49:38Z</time>
      </trkpt>
      <trkpt lat="45.68307" lon="4.68323">
        <ele>320.1</ele>
        <time>2021-09-04T18:49:39Z</time>
      </trkpt>
      <trkpt lat="45.68308" lon="4.68343">
        <ele>319.3</ele>
        <time>2021-09-04T18:49:41Z</time>
      </trkpt>
      <trkpt lat="45.68308" lon="4.68362">
        <ele>318.8</ele>
        <time>2021-09-04T18:49:43Z</time>
      </trkpt>
      <trkpt lat="45.68309" lon="4.68381">
        <ele>318.5</ele>
        <time>2021-09-04T18:49:45Z</time>
      </trkpt>
      <trkpt lat="45.68309" lon="4.68391">
        <ele>318.4</ele>
        <time>2021-09-04T18:49:46Z</time>
      </trkpt>
      <trkpt lat="45.68311" lon="4.684">
        <ele>318.4</ele>
        <time>2021-09-04T18:49:47Z</time>
      </trkpt>
      <trkpt lat="45.68316" lon="4.68416">
        <ele>318.4</ele>
        <time>2021-09-04T18:49:49Z</time>
      </trkpt>
      <trkpt lat="45.68318" lon="4.68424">
        <ele>318.5</ele>
        <time>2021-09-04T18:49:50Z</time>
      </trkpt>
      <trkpt lat="45.68324" lon="4.68437">
        <ele>318.7</ele>
        <time>2021-09-04T18:49:52Z</time>
      </trkpt>
      <trkpt lat="45.68327" lon="4.68442">
        <ele>318.8</ele>
        <time>2021-09-04T18:49:53Z</time>
      </trkpt>
      <trkpt lat="45.68333" lon="4.68453">
        <ele>319.1</ele>
        <time>2021-09-04T18:49:55Z</time>
      </trkpt>
      <trkpt lat="45.68336" lon="4.68458">
        <ele>319.4</ele>
        <time>2021-09-04T18:49:56Z</time>
      </trkpt>
      <trkpt lat="45.68338" lon="4.68462">
        <ele>319.5</ele>
        <time>2021-09-04T18:49:57Z</time>
      </trkpt>
      <trkpt lat="45.68343" lon="4.68471">
        <ele>320</ele>
        <time>2021-09-04T18:49:59Z</time>
      </trkpt>
      <trkpt lat="45.68346" lon="4.68475">
        <ele>320.2</ele>
        <time>2021-09-04T18:50:00Z</time>
      </trkpt>
      <trkpt lat="45.68348" lon="4.68478">
        <ele>320.4</ele>
        <time>2021-09-04T18:50:01Z</time>
      </trkpt>
      <trkpt lat="45.68352" lon="4.68485">
        <ele>320.8</ele>
        <time>2021-09-04T18:50:03Z</time>
      </trkpt>
      <trkpt lat="45.68354" lon="4.68491">
        <ele>321.1</ele>
        <time>2021-09-04T18:50:05Z</time>
      </trkpt>
      <trkpt lat="45.68358" lon="4.68497">
        <ele>321.5</ele>
        <time>2021-09-04T18:50:06Z</time>
      </trkpt>
      <trkpt lat="45.6836" lon="4.68501">
        <ele>321.7</ele>
        <time>2021-09-04T18:50:07Z</time>
      </trkpt>
      <trkpt lat="45.68363" lon="4.68505">
        <ele>322</ele>
        <time>2021-09-04T18:50:08Z</time>
      </trkpt>
      <trkpt lat="45.68365" lon="4.68509">
        <ele>322.2</ele>
        <time>2021-09-04T18:50:09Z</time>
      </trkpt>
      <trkpt lat="45.68368" lon="4.68514">
        <ele>322.4</ele>
        <time>2021-09-04T18:50:10Z</time>
      </trkpt>
      <trkpt lat="45.68371" lon="4.6852">
        <ele>322.8</ele>
        <time>2021-09-04T18:50:12Z</time>
      </trkpt>
      <trkpt lat="45.68373" lon="4.68524">
        <ele>323</ele>
        <time>2021-09-04T18:50:13Z</time>
      </trkpt>
      <trkpt lat="45.68375" lon="4.68527">
        <ele>323.2</ele>
        <time>2021-09-04T18:50:14Z</time>
      </trkpt>
      <trkpt lat="45.68379" lon="4.68535">
        <ele>323.6</ele>
        <time>2021-09-04T18:50:16Z</time>
      </trkpt>
      <trkpt lat="45.68383" lon="4.68542">
        <ele>324</ele>
        <time>2021-09-04T18:50:18Z</time>
      </trkpt>
      <trkpt lat="45.68385" lon="4.68545">
        <ele>324.2</ele>
        <time>2021-09-04T18:50:19Z</time>
      </trkpt>
      <trkpt lat="45.68387" lon="4.68549">
        <ele>324.3</ele>
        <time>2021-09-04T18:50:20Z</time>
      </trkpt>
      <trkpt lat="45.68391" lon="4.68557">
        <ele>324.6</ele>
        <time>2021-09-04T18:50:22Z</time>
      </trkpt>
      <trkpt lat="45.68392" lon="4.68561">
        <ele>324.8</ele>
        <time>2021-09-04T18:50:23Z</time>
      </trkpt>
      <trkpt lat="45.68395" lon="4.68567">
        <ele>325</ele>
        <time>2021-09-04T18:50:25Z</time>
      </trkpt>
      <trkpt lat="45.68397" lon="4.68571">
        <ele>325.1</ele>
        <time>2021-09-04T18:50:26Z</time>
      </trkpt>
      <trkpt lat="45.68401" lon="4.68578">
        <ele>325.3</ele>
        <time>2021-09-04T18:50:28Z</time>
      </trkpt>
      <trkpt lat="45.68403" lon="4.68582">
        <ele>325.4</ele>
        <time>2021-09-04T18:50:29Z</time>
      </trkpt>
      <trkpt lat="45.68406" lon="4.68589">
        <ele>325.6</ele>
        <time>2021-09-04T18:50:31Z</time>
      </trkpt>
      <trkpt lat="45.68408" lon="4.68592">
        <ele>325.6</ele>
        <time>2021-09-04T18:50:32Z</time>
      </trkpt>
      <trkpt lat="45.68411" lon="4.686">
        <ele>325.7</ele>
        <time>2021-09-04T18:50:34Z</time>
      </trkpt>
      <trkpt lat="45.68415" lon="4.6861">
        <ele>325.7</ele>
        <time>2021-09-04T18:50:36Z</time>
      </trkpt>
      <trkpt lat="45.68419" lon="4.68618">
        <ele>325.7</ele>
        <time>2021-09-04T18:50:38Z</time>
      </trkpt>
      <trkpt lat="45.68423" lon="4.68628">
        <ele>325.6</ele>
        <time>2021-09-04T18:50:40Z</time>
      </trkpt>
      <trkpt lat="45.68425" lon="4.68633">
        <ele>325.5</ele>
        <time>2021-09-04T18:50:41Z</time>
      </trkpt>
      <trkpt lat="45.6843" lon="4.68643">
        <ele>325.4</ele>
        <time>2021-09-04T18:50:43Z</time>
      </trkpt>
      <trkpt lat="45.68433" lon="4.6865">
        <ele>325.3</ele>
        <time>2021-09-04T18:50:45Z</time>
      </trkpt>
      <trkpt lat="45.68438" lon="4.6866">
        <ele>325.2</ele>
        <time>2021-09-04T18:50:46Z</time>
      </trkpt>
      <trkpt lat="45.68443" lon="4.68672">
        <ele>325</ele>
        <time>2021-09-04T18:50:48Z</time>
      </trkpt>
      <trkpt lat="45.68448" lon="4.68684">
        <ele>324.8</ele>
        <time>2021-09-04T18:50:50Z</time>
      </trkpt>
      <trkpt lat="45.68451" lon="4.6869">
        <ele>324.7</ele>
        <time>2021-09-04T18:50:51Z</time>
      </trkpt>
      <trkpt lat="45.68454" lon="4.68696">
        <ele>324.6</ele>
        <time>2021-09-04T18:50:52Z</time>
      </trkpt>
      <trkpt lat="45.6846" lon="4.68708">
        <ele>324.5</ele>
        <time>2021-09-04T18:50:54Z</time>
      </trkpt>
      <trkpt lat="45.68462" lon="4.68714">
        <ele>324.4</ele>
        <time>2021-09-04T18:50:55Z</time>
      </trkpt>
      <trkpt lat="45.68468" lon="4.68726">
        <ele>324.3</ele>
        <time>2021-09-04T18:50:57Z</time>
      </trkpt>
      <trkpt lat="45.68471" lon="4.68733">
        <ele>324.3</ele>
        <time>2021-09-04T18:50:58Z</time>
      </trkpt>
      <trkpt lat="45.68476" lon="4.68745">
        <ele>324.1</ele>
        <time>2021-09-04T18:51:00Z</time>
      </trkpt>
      <trkpt lat="45.68482" lon="4.68758">
        <ele>324</ele>
        <time>2021-09-04T18:51:02Z</time>
      </trkpt>
      <trkpt lat="45.68485" lon="4.68764">
        <ele>324</ele>
        <time>2021-09-04T18:51:03Z</time>
      </trkpt>
      <trkpt lat="45.68488" lon="4.6877">
        <ele>323.9</ele>
        <time>2021-09-04T18:51:04Z</time>
      </trkpt>
      <trkpt lat="45.68494" lon="4.68782">
        <ele>323.7</ele>
        <time>2021-09-04T18:51:06Z</time>
      </trkpt>
      <trkpt lat="45.68497" lon="4.68789">
        <ele>323.6</ele>
        <time>2021-09-04T18:51:07Z</time>
      </trkpt>
      <trkpt lat="45.685" lon="4.68795">
        <ele>323.5</ele>
        <time>2021-09-04T18:51:08Z</time>
      </trkpt>
      <trkpt lat="45.68503" lon="4.68801">
        <ele>323.4</ele>
        <time>2021-09-04T18:51:09Z</time>
      </trkpt>
      <trkpt lat="45.68508" lon="4.68815">
        <ele>323.1</ele>
        <time>2021-09-04T18:51:11Z</time>
      </trkpt>
      <trkpt lat="45.68514" lon="4.6883">
        <ele>322.7</ele>
        <time>2021-09-04T18:51:13Z</time>
      </trkpt>
      <trkpt lat="45.6852" lon="4.68845">
        <ele>322.4</ele>
        <time>2021-09-04T18:51:15Z</time>
      </trkpt>
      <trkpt lat="45.68524" lon="4.6886">
        <ele>322.1</ele>
        <time>2021-09-04T18:51:17Z</time>
      </trkpt>
      <trkpt lat="45.68529" lon="4.68875">
        <ele>321.8</ele>
        <time>2021-09-04T18:51:19Z</time>
      </trkpt>
      <trkpt lat="45.68531" lon="4.68883">
        <ele>321.6</ele>
        <time>2021-09-04T18:51:20Z</time>
      </trkpt>
      <trkpt lat="45.68535" lon="4.68899">
        <ele>321.2</ele>
        <time>2021-09-04T18:51:22Z</time>
      </trkpt>
      <trkpt lat="45.68539" lon="4.68916">
        <ele>320.8</ele>
        <time>2021-09-04T18:51:24Z</time>
      </trkpt>
      <trkpt lat="45.68542" lon="4.68932">
        <ele>320.4</ele>
        <time>2021-09-04T18:51:26Z</time>
      </trkpt>
      <trkpt lat="45.68544" lon="4.68949">
        <ele>320</ele>
        <time>2021-09-04T18:51:28Z</time>
      </trkpt>
      <trkpt lat="45.68546" lon="4.68958">
        <ele>319.8</ele>
        <time>2021-09-04T18:51:29Z</time>
      </trkpt>
      <trkpt lat="45.68548" lon="4.68975">
        <ele>319.4</ele>
        <time>2021-09-04T18:51:31Z</time>
      </trkpt>
      <trkpt lat="45.68551" lon="4.68993">
        <ele>319</ele>
        <time>2021-09-04T18:51:33Z</time>
      </trkpt>
      <trkpt lat="45.68552" lon="4.69012">
        <ele>318.5</ele>
        <time>2021-09-04T18:51:35Z</time>
      </trkpt>
      <trkpt lat="45.68553" lon="4.69022">
        <ele>318.3</ele>
        <time>2021-09-04T18:51:36Z</time>
      </trkpt>
      <trkpt lat="45.68554" lon="4.69031">
        <ele>318.1</ele>
        <time>2021-09-04T18:51:37Z</time>
      </trkpt>
      <trkpt lat="45.68555" lon="4.6905">
        <ele>317.7</ele>
        <time>2021-09-04T18:51:39Z</time>
      </trkpt>
      <trkpt lat="45.68557" lon="4.69059">
        <ele>317.6</ele>
        <time>2021-09-04T18:51:40Z</time>
      </trkpt>
      <trkpt lat="45.68561" lon="4.69077">
        <ele>317.5</ele>
        <time>2021-09-04T18:51:42Z</time>
      </trkpt>
      <trkpt lat="45.68566" lon="4.69093">
        <ele>317.4</ele>
        <time>2021-09-04T18:51:44Z</time>
      </trkpt>
      <trkpt lat="45.68568" lon="4.69101">
        <ele>317.4</ele>
        <time>2021-09-04T18:51:45Z</time>
      </trkpt>
      <trkpt lat="45.68573" lon="4.69118">
        <ele>317.5</ele>
        <time>2021-09-04T18:51:47Z</time>
      </trkpt>
      <trkpt lat="45.68575" lon="4.69126">
        <ele>317.7</ele>
        <time>2021-09-04T18:51:48Z</time>
      </trkpt>
      <trkpt lat="45.68577" lon="4.69144">
        <ele>318.2</ele>
        <time>2021-09-04T18:51:50Z</time>
      </trkpt>
      <trkpt lat="45.68578" lon="4.69151">
        <ele>318.5</ele>
        <time>2021-09-04T18:51:51Z</time>
      </trkpt>
      <trkpt lat="45.68579" lon="4.69166">
        <ele>319.2</ele>
        <time>2021-09-04T18:51:53Z</time>
      </trkpt>
      <trkpt lat="45.68579" lon="4.69178">
        <ele>319.9</ele>
        <time>2021-09-04T18:51:55Z</time>
      </trkpt>
      <trkpt lat="45.6858" lon="4.69187">
        <ele>320.4</ele>
        <time>2021-09-04T18:51:57Z</time>
      </trkpt>
      <trkpt lat="45.6858" lon="4.69193">
        <ele>320.7</ele>
        <time>2021-09-04T18:51:58Z</time>
      </trkpt>
      <trkpt lat="45.68579" lon="4.69202">
        <ele>321.2</ele>
        <time>2021-09-04T18:52:00Z</time>
      </trkpt>
      <trkpt lat="45.68579" lon="4.6921">
        <ele>321.7</ele>
        <time>2021-09-04T18:52:02Z</time>
      </trkpt>
      <trkpt lat="45.68578" lon="4.69209">
        <ele>321.9</ele>
        <time>2021-09-04T18:52:03Z</time>
      </trkpt>
      <trkpt lat="45.68578" lon="4.69216">
        <ele>322.3</ele>
        <time>2021-09-04T18:52:05Z</time>
      </trkpt>
      <trkpt lat="45.68578" lon="4.69223">
        <ele>322.7</ele>
        <time>2021-09-04T18:52:06Z</time>
      </trkpt>
      <trkpt lat="45.68578" lon="4.69228">
        <ele>323</ele>
        <time>2021-09-04T18:52:07Z</time>
      </trkpt>
      <trkpt lat="45.68577" lon="4.69235">
        <ele>323.3</ele>
        <time>2021-09-04T18:52:09Z</time>
      </trkpt>
      <trkpt lat="45.68576" lon="4.69242">
        <ele>323.7</ele>
        <time>2021-09-04T18:52:10Z</time>
      </trkpt>
      <trkpt lat="45.68575" lon="4.6925">
        <ele>324.2</ele>
        <time>2021-09-04T18:52:12Z</time>
      </trkpt>
      <trkpt lat="45.68574" lon="4.69255">
        <ele>324.4</ele>
        <time>2021-09-04T18:52:14Z</time>
      </trkpt>
      <trkpt lat="45.68573" lon="4.6926">
        <ele>324.7</ele>
        <time>2021-09-04T18:52:15Z</time>
      </trkpt>
      <trkpt lat="45.68572" lon="4.69265">
        <ele>324.9</ele>
        <time>2021-09-04T18:52:16Z</time>
      </trkpt>
      <trkpt lat="45.6857" lon="4.69273">
        <ele>325.3</ele>
        <time>2021-09-04T18:52:18Z</time>
      </trkpt>
      <trkpt lat="45.68569" lon="4.69278">
        <ele>325.5</ele>
        <time>2021-09-04T18:52:20Z</time>
      </trkpt>
      <trkpt lat="45.68567" lon="4.69284">
        <ele>325.8</ele>
        <time>2021-09-04T18:52:21Z</time>
      </trkpt>
      <trkpt lat="45.68565" lon="4.69291">
        <ele>326.1</ele>
        <time>2021-09-04T18:52:23Z</time>
      </trkpt>
      <trkpt lat="45.68564" lon="4.69296">
        <ele>326.4</ele>
        <time>2021-09-04T18:52:25Z</time>
      </trkpt>
      <trkpt lat="45.68563" lon="4.69301">
        <ele>326.6</ele>
        <time>2021-09-04T18:52:26Z</time>
      </trkpt>
      <trkpt lat="45.68561" lon="4.69306">
        <ele>326.9</ele>
        <time>2021-09-04T18:52:27Z</time>
      </trkpt>
      <trkpt lat="45.6856" lon="4.6931">
        <ele>327.1</ele>
        <time>2021-09-04T18:52:28Z</time>
      </trkpt>
      <trkpt lat="45.68558" lon="4.69314">
        <ele>327.3</ele>
        <time>2021-09-04T18:52:30Z</time>
      </trkpt>
      <trkpt lat="45.68557" lon="4.69319">
        <ele>327.5</ele>
        <time>2021-09-04T18:52:31Z</time>
      </trkpt>
      <trkpt lat="45.68555" lon="4.69324">
        <ele>327.7</ele>
        <time>2021-09-04T18:52:32Z</time>
      </trkpt>
      <trkpt lat="45.68553" lon="4.69329">
        <ele>328</ele>
        <time>2021-09-04T18:52:34Z</time>
      </trkpt>
      <trkpt lat="45.68551" lon="4.69335">
        <ele>328.2</ele>
        <time>2021-09-04T18:52:35Z</time>
      </trkpt>
      <trkpt lat="45.6855" lon="4.69339">
        <ele>328.4</ele>
        <time>2021-09-04T18:52:36Z</time>
      </trkpt>
      <trkpt lat="45.68549" lon="4.69342">
        <ele>328.6</ele>
        <time>2021-09-04T18:52:37Z</time>
      </trkpt>
      <trkpt lat="45.68547" lon="4.69348">
        <ele>328.8</ele>
        <time>2021-09-04T18:52:39Z</time>
      </trkpt>
      <trkpt lat="45.68545" lon="4.69353">
        <ele>329.1</ele>
        <time>2021-09-04T18:52:40Z</time>
      </trkpt>
      <trkpt lat="45.68544" lon="4.69357">
        <ele>329.3</ele>
        <time>2021-09-04T18:52:41Z</time>
      </trkpt>
      <trkpt lat="45.68541" lon="4.69363">
        <ele>329.5</ele>
        <time>2021-09-04T18:52:43Z</time>
      </trkpt>
      <trkpt lat="45.6854" lon="4.69367">
        <ele>329.7</ele>
        <time>2021-09-04T18:52:44Z</time>
      </trkpt>
      <trkpt lat="45.68537" lon="4.69374">
        <ele>330.1</ele>
        <time>2021-09-04T18:52:46Z</time>
      </trkpt>
      <trkpt lat="45.68536" lon="4.69378">
        <ele>330.2</ele>
        <time>2021-09-04T18:52:47Z</time>
      </trkpt>
      <trkpt lat="45.68534" lon="4.69381">
        <ele>330.4</ele>
        <time>2021-09-04T18:52:49Z</time>
      </trkpt>
      <trkpt lat="45.68532" lon="4.69387">
        <ele>330.7</ele>
        <time>2021-09-04T18:52:50Z</time>
      </trkpt>
      <trkpt lat="45.68529" lon="4.69394">
        <ele>331.1</ele>
        <time>2021-09-04T18:52:52Z</time>
      </trkpt>
      <trkpt lat="45.68527" lon="4.69399">
        <ele>331.4</ele>
        <time>2021-09-04T18:52:54Z</time>
      </trkpt>
      <trkpt lat="45.68524" lon="4.69404">
        <ele>331.6</ele>
        <time>2021-09-04T18:52:56Z</time>
      </trkpt>
      <trkpt lat="45.68523" lon="4.69409">
        <ele>331.8</ele>
        <time>2021-09-04T18:52:57Z</time>
      </trkpt>
      <trkpt lat="45.68521" lon="4.69413">
        <ele>332</ele>
        <time>2021-09-04T18:52:58Z</time>
      </trkpt>
      <trkpt lat="45.68519" lon="4.69418">
        <ele>332.3</ele>
        <time>2021-09-04T18:53:00Z</time>
      </trkpt>
      <trkpt lat="45.68517" lon="4.69423">
        <ele>332.5</ele>
        <time>2021-09-04T18:53:01Z</time>
      </trkpt>
      <trkpt lat="45.68516" lon="4.69427">
        <ele>332.6</ele>
        <time>2021-09-04T18:53:02Z</time>
      </trkpt>
      <trkpt lat="45.68514" lon="4.69433">
        <ele>332.9</ele>
        <time>2021-09-04T18:53:04Z</time>
      </trkpt>
      <trkpt lat="45.68512" lon="4.69438">
        <ele>333</ele>
        <time>2021-09-04T18:53:05Z</time>
      </trkpt>
      <trkpt lat="45.6851" lon="4.69443">
        <ele>333.2</ele>
        <time>2021-09-04T18:53:07Z</time>
      </trkpt>
      <trkpt lat="45.68508" lon="4.69447">
        <ele>333.4</ele>
        <time>2021-09-04T18:53:08Z</time>
      </trkpt>
      <trkpt lat="45.68506" lon="4.69454">
        <ele>333.5</ele>
        <time>2021-09-04T18:53:10Z</time>
      </trkpt>
      <trkpt lat="45.68504" lon="4.69461">
        <ele>333.7</ele>
        <time>2021-09-04T18:53:12Z</time>
      </trkpt>
      <trkpt lat="45.68503" lon="4.69466">
        <ele>333.8</ele>
        <time>2021-09-04T18:53:13Z</time>
      </trkpt>
      <trkpt lat="45.68502" lon="4.6947">
        <ele>333.8</ele>
        <time>2021-09-04T18:53:14Z</time>
      </trkpt>
      <trkpt lat="45.68501" lon="4.69475">
        <ele>333.9</ele>
        <time>2021-09-04T18:53:16Z</time>
      </trkpt>
      <trkpt lat="45.68499" lon="4.69481">
        <ele>334</ele>
        <time>2021-09-04T18:53:17Z</time>
      </trkpt>
      <trkpt lat="45.68496" lon="4.69488">
        <ele>334.1</ele>
        <time>2021-09-04T18:53:19Z</time>
      </trkpt>
      <trkpt lat="45.68495" lon="4.69494">
        <ele>334.2</ele>
        <time>2021-09-04T18:53:20Z</time>
      </trkpt>
      <trkpt lat="45.68493" lon="4.69499">
        <ele>334.2</ele>
        <time>2021-09-04T18:53:22Z</time>
      </trkpt>
      <trkpt lat="45.68492" lon="4.69504">
        <ele>334.3</ele>
        <time>2021-09-04T18:53:23Z</time>
      </trkpt>
      <trkpt lat="45.68491" lon="4.6951">
        <ele>334.4</ele>
        <time>2021-09-04T18:53:24Z</time>
      </trkpt>
      <trkpt lat="45.6849" lon="4.69515">
        <ele>334.5</ele>
        <time>2021-09-04T18:53:25Z</time>
      </trkpt>
      <trkpt lat="45.68489" lon="4.69521">
        <ele>334.5</ele>
        <time>2021-09-04T18:53:27Z</time>
      </trkpt>
      <trkpt lat="45.68488" lon="4.69528">
        <ele>334.7</ele>
        <time>2021-09-04T18:53:28Z</time>
      </trkpt>
      <trkpt lat="45.68488" lon="4.69535">
        <ele>334.8</ele>
        <time>2021-09-04T18:53:30Z</time>
      </trkpt>
      <trkpt lat="45.68488" lon="4.6954">
        <ele>334.9</ele>
        <time>2021-09-04T18:53:31Z</time>
      </trkpt>
      <trkpt lat="45.68488" lon="4.69545">
        <ele>335</ele>
        <time>2021-09-04T18:53:32Z</time>
      </trkpt>
      <trkpt lat="45.68488" lon="4.69552">
        <ele>335.1</ele>
        <time>2021-09-04T18:53:34Z</time>
      </trkpt>
      <trkpt lat="45.68488" lon="4.69558">
        <ele>335.3</ele>
        <time>2021-09-04T18:53:35Z</time>
      </trkpt>
      <trkpt lat="45.68487" lon="4.69562">
        <ele>335.4</ele>
        <time>2021-09-04T18:53:36Z</time>
      </trkpt>
      <trkpt lat="45.68487" lon="4.69571">
        <ele>335.6</ele>
        <time>2021-09-04T18:53:38Z</time>
      </trkpt>
      <trkpt lat="45.68487" lon="4.69576">
        <ele>335.7</ele>
        <time>2021-09-04T18:53:39Z</time>
      </trkpt>
      <trkpt lat="45.68487" lon="4.6958">
        <ele>335.9</ele>
        <time>2021-09-04T18:53:40Z</time>
      </trkpt>
      <trkpt lat="45.68487" lon="4.69589">
        <ele>336.1</ele>
        <time>2021-09-04T18:53:42Z</time>
      </trkpt>
      <trkpt lat="45.68487" lon="4.69597">
        <ele>336.4</ele>
        <time>2021-09-04T18:53:44Z</time>
      </trkpt>
      <trkpt lat="45.68487" lon="4.69602">
        <ele>336.6</ele>
        <time>2021-09-04T18:53:45Z</time>
      </trkpt>
      <trkpt lat="45.68487" lon="4.69606">
        <ele>336.8</ele>
        <time>2021-09-04T18:53:46Z</time>
      </trkpt>
      <trkpt lat="45.68486" lon="4.69612">
        <ele>337</ele>
        <time>2021-09-04T18:53:48Z</time>
      </trkpt>
      <trkpt lat="45.68486" lon="4.69618">
        <ele>337.3</ele>
        <time>2021-09-04T18:53:49Z</time>
      </trkpt>
      <trkpt lat="45.68485" lon="4.69626">
        <ele>337.7</ele>
        <time>2021-09-04T18:53:51Z</time>
      </trkpt>
      <trkpt lat="45.68483" lon="4.69633">
        <ele>338</ele>
        <time>2021-09-04T18:53:53Z</time>
      </trkpt>
      <trkpt lat="45.68482" lon="4.69638">
        <ele>338.3</ele>
        <time>2021-09-04T18:53:54Z</time>
      </trkpt>
      <trkpt lat="45.68481" lon="4.69643">
        <ele>338.6</ele>
        <time>2021-09-04T18:53:55Z</time>
      </trkpt>
      <trkpt lat="45.68478" lon="4.6965">
        <ele>338.9</ele>
        <time>2021-09-04T18:53:57Z</time>
      </trkpt>
      <trkpt lat="45.68477" lon="4.69654">
        <ele>339.2</ele>
        <time>2021-09-04T18:53:59Z</time>
      </trkpt>
      <trkpt lat="45.68475" lon="4.69658">
        <ele>339.4</ele>
        <time>2021-09-04T18:54:00Z</time>
      </trkpt>
      <trkpt lat="45.68473" lon="4.69663">
        <ele>339.7</ele>
        <time>2021-09-04T18:54:01Z</time>
      </trkpt>
      <trkpt lat="45.68471" lon="4.69667">
        <ele>339.8</ele>
        <time>2021-09-04T18:54:02Z</time>
      </trkpt>
      <trkpt lat="45.68469" lon="4.69674">
        <ele>340.2</ele>
        <time>2021-09-04T18:54:04Z</time>
      </trkpt>
      <trkpt lat="45.68468" lon="4.69677">
        <ele>340.4</ele>
        <time>2021-09-04T18:54:05Z</time>
      </trkpt>
      <trkpt lat="45.68467" lon="4.69684">
        <ele>340.7</ele>
        <time>2021-09-04T18:54:07Z</time>
      </trkpt>
      <trkpt lat="45.68466" lon="4.69688">
        <ele>340.9</ele>
        <time>2021-09-04T18:54:08Z</time>
      </trkpt>
      <trkpt lat="45.68464" lon="4.69695">
        <ele>341.2</ele>
        <time>2021-09-04T18:54:10Z</time>
      </trkpt>
      <trkpt lat="45.68462" lon="4.69699">
        <ele>341.4</ele>
        <time>2021-09-04T18:54:11Z</time>
      </trkpt>
      <trkpt lat="45.6846" lon="4.69703">
        <ele>341.7</ele>
        <time>2021-09-04T18:54:13Z</time>
      </trkpt>
      <trkpt lat="45.68459" lon="4.69708">
        <ele>342</ele>
        <time>2021-09-04T18:54:14Z</time>
      </trkpt>
      <trkpt lat="45.68458" lon="4.69712">
        <ele>342.2</ele>
        <time>2021-09-04T18:54:15Z</time>
      </trkpt>
      <trkpt lat="45.68457" lon="4.69716">
        <ele>342.4</ele>
        <time>2021-09-04T18:54:16Z</time>
      </trkpt>
      <trkpt lat="45.68456" lon="4.69721">
        <ele>342.7</ele>
        <time>2021-09-04T18:54:18Z</time>
      </trkpt>
      <trkpt lat="45.68455" lon="4.69726">
        <ele>343</ele>
        <time>2021-09-04T18:54:19Z</time>
      </trkpt>
      <trkpt lat="45.68454" lon="4.69729">
        <ele>343.2</ele>
        <time>2021-09-04T18:54:20Z</time>
      </trkpt>
      <trkpt lat="45.68453" lon="4.69733">
        <ele>343.5</ele>
        <time>2021-09-04T18:54:22Z</time>
      </trkpt>
      <trkpt lat="45.68452" lon="4.69738">
        <ele>343.8</ele>
        <time>2021-09-04T18:54:23Z</time>
      </trkpt>
      <trkpt lat="45.68451" lon="4.69743">
        <ele>344.1</ele>
        <time>2021-09-04T18:54:24Z</time>
      </trkpt>
      <trkpt lat="45.68451" lon="4.69745">
        <ele>344.2</ele>
        <time>2021-09-04T18:54:25Z</time>
      </trkpt>
      <trkpt lat="45.6845" lon="4.69749">
        <ele>344.5</ele>
        <time>2021-09-04T18:54:27Z</time>
      </trkpt>
      <trkpt lat="45.68448" lon="4.69754">
        <ele>344.8</ele>
        <time>2021-09-04T18:54:28Z</time>
      </trkpt>
      <trkpt lat="45.68448" lon="4.69757">
        <ele>345</ele>
        <time>2021-09-04T18:54:29Z</time>
      </trkpt>
      <trkpt lat="45.68446" lon="4.69762">
        <ele>345.3</ele>
        <time>2021-09-04T18:54:31Z</time>
      </trkpt>
      <trkpt lat="45.68445" lon="4.69767">
        <ele>345.6</ele>
        <time>2021-09-04T18:54:32Z</time>
      </trkpt>
      <trkpt lat="45.68444" lon="4.69771">
        <ele>345.9</ele>
        <time>2021-09-04T18:54:34Z</time>
      </trkpt>
      <trkpt lat="45.68442" lon="4.69776">
        <ele>346.2</ele>
        <time>2021-09-04T18:54:35Z</time>
      </trkpt>
      <trkpt lat="45.68442" lon="4.6978">
        <ele>346.4</ele>
        <time>2021-09-04T18:54:36Z</time>
      </trkpt>
      <trkpt lat="45.68441" lon="4.69784">
        <ele>346.7</ele>
        <time>2021-09-04T18:54:38Z</time>
      </trkpt>
      <trkpt lat="45.68441" lon="4.6979">
        <ele>347</ele>
        <time>2021-09-04T18:54:39Z</time>
      </trkpt>
      <trkpt lat="45.6844" lon="4.69792">
        <ele>347.1</ele>
        <time>2021-09-04T18:54:40Z</time>
      </trkpt>
      <trkpt lat="45.68438" lon="4.69795">
        <ele>347.4</ele>
        <time>2021-09-04T18:54:42Z</time>
      </trkpt>
      <trkpt lat="45.68436" lon="4.69798">
        <ele>347.6</ele>
        <time>2021-09-04T18:54:43Z</time>
      </trkpt>
      <trkpt lat="45.68433" lon="4.69804">
        <ele>347.9</ele>
        <time>2021-09-04T18:54:45Z</time>
      </trkpt>
      <trkpt lat="45.68433" lon="4.69807">
        <ele>348.1</ele>
        <time>2021-09-04T18:54:46Z</time>
      </trkpt>
      <trkpt lat="45.68432" lon="4.69809">
        <ele>348.2</ele>
        <time>2021-09-04T18:54:47Z</time>
      </trkpt>
      <trkpt lat="45.6843" lon="4.69812">
        <ele>348.4</ele>
        <time>2021-09-04T18:54:49Z</time>
      </trkpt>
      <trkpt lat="45.68428" lon="4.69816">
        <ele>348.6</ele>
        <time>2021-09-04T18:54:50Z</time>
      </trkpt>
      <trkpt lat="45.68426" lon="4.69819">
        <ele>348.7</ele>
        <time>2021-09-04T18:54:51Z</time>
      </trkpt>
      <trkpt lat="45.68423" lon="4.69823">
        <ele>349</ele>
        <time>2021-09-04T18:54:53Z</time>
      </trkpt>
      <trkpt lat="45.6842" lon="4.69827">
        <ele>349.2</ele>
        <time>2021-09-04T18:54:55Z</time>
      </trkpt>
      <trkpt lat="45.68418" lon="4.6983">
        <ele>349.4</ele>
        <time>2021-09-04T18:54:56Z</time>
      </trkpt>
      <trkpt lat="45.68415" lon="4.69834">
        <ele>349.6</ele>
        <time>2021-09-04T18:54:58Z</time>
      </trkpt>
      <trkpt lat="45.68413" lon="4.69837">
        <ele>349.8</ele>
        <time>2021-09-04T18:54:59Z</time>
      </trkpt>
      <trkpt lat="45.68412" lon="4.6984">
        <ele>349.9</ele>
        <time>2021-09-04T18:55:00Z</time>
      </trkpt>
      <trkpt lat="45.68408" lon="4.69844">
        <ele>350.1</ele>
        <time>2021-09-04T18:55:02Z</time>
      </trkpt>
      <trkpt lat="45.68407" lon="4.69848">
        <ele>350.3</ele>
        <time>2021-09-04T18:55:03Z</time>
      </trkpt>
      <trkpt lat="45.68405" lon="4.69852">
        <ele>350.4</ele>
        <time>2021-09-04T18:55:05Z</time>
      </trkpt>
      <trkpt lat="45.68403" lon="4.69856">
        <ele>350.5</ele>
        <time>2021-09-04T18:55:06Z</time>
      </trkpt>
      <trkpt lat="45.68401" lon="4.69861">
        <ele>350.6</ele>
        <time>2021-09-04T18:55:08Z</time>
      </trkpt>
      <trkpt lat="45.68398" lon="4.69866">
        <ele>350.8</ele>
        <time>2021-09-04T18:55:10Z</time>
      </trkpt>
      <trkpt lat="45.68397" lon="4.69871">
        <ele>350.9</ele>
        <time>2021-09-04T18:55:11Z</time>
      </trkpt>
      <trkpt lat="45.68395" lon="4.69876">
        <ele>351</ele>
        <time>2021-09-04T18:55:12Z</time>
      </trkpt>
      <trkpt lat="45.68395" lon="4.69878">
        <ele>351</ele>
        <time>2021-09-04T18:55:13Z</time>
      </trkpt>
      <trkpt lat="45.68393" lon="4.69882">
        <ele>351.1</ele>
        <time>2021-09-04T18:55:15Z</time>
      </trkpt>
      <trkpt lat="45.68391" lon="4.69887">
        <ele>351.2</ele>
        <time>2021-09-04T18:55:16Z</time>
      </trkpt>
      <trkpt lat="45.68388" lon="4.69893">
        <ele>351.3</ele>
        <time>2021-09-04T18:55:18Z</time>
      </trkpt>
      <trkpt lat="45.68387" lon="4.69895">
        <ele>351.3</ele>
        <time>2021-09-04T18:55:20Z</time>
      </trkpt>
      <trkpt lat="45.68386" lon="4.69898">
        <ele>351.3</ele>
        <time>2021-09-04T18:55:21Z</time>
      </trkpt>
      <trkpt lat="45.68385" lon="4.699">
        <ele>351.4</ele>
        <time>2021-09-04T18:55:22Z</time>
      </trkpt>
      <trkpt lat="45.68384" lon="4.69904">
        <ele>351.4</ele>
        <time>2021-09-04T18:55:23Z</time>
      </trkpt>
      <trkpt lat="45.68384" lon="4.69906">
        <ele>351.5</ele>
        <time>2021-09-04T18:55:24Z</time>
      </trkpt>
      <trkpt lat="45.68382" lon="4.69912">
        <ele>351.6</ele>
        <time>2021-09-04T18:55:26Z</time>
      </trkpt>
      <trkpt lat="45.68381" lon="4.69913">
        <ele>351.6</ele>
        <time>2021-09-04T18:55:27Z</time>
      </trkpt>
      <trkpt lat="45.6838" lon="4.69915">
        <ele>351.6</ele>
        <time>2021-09-04T18:55:28Z</time>
      </trkpt>
      <trkpt lat="45.68379" lon="4.69917">
        <ele>351.6</ele>
        <time>2021-09-04T18:55:29Z</time>
      </trkpt>
      <trkpt lat="45.68377" lon="4.69923">
        <ele>351.7</ele>
        <time>2021-09-04T18:55:31Z</time>
      </trkpt>
      <trkpt lat="45.68376" lon="4.69926">
        <ele>351.7</ele>
        <time>2021-09-04T18:55:32Z</time>
      </trkpt>
      <trkpt lat="45.68375" lon="4.69929">
        <ele>351.8</ele>
        <time>2021-09-04T18:55:33Z</time>
      </trkpt>
      <trkpt lat="45.68373" lon="4.69935">
        <ele>351.8</ele>
        <time>2021-09-04T18:55:35Z</time>
      </trkpt>
      <trkpt lat="45.68371" lon="4.6994">
        <ele>351.8</ele>
        <time>2021-09-04T18:55:37Z</time>
      </trkpt>
      <trkpt lat="45.6837" lon="4.69946">
        <ele>351.9</ele>
        <time>2021-09-04T18:55:38Z</time>
      </trkpt>
      <trkpt lat="45.68368" lon="4.69954">
        <ele>351.9</ele>
        <time>2021-09-04T18:55:40Z</time>
      </trkpt>
      <trkpt lat="45.68368" lon="4.69958">
        <ele>351.9</ele>
        <time>2021-09-04T18:55:41Z</time>
      </trkpt>
      <trkpt lat="45.68371" lon="4.69966">
        <ele>351.9</ele>
        <time>2021-09-04T18:55:43Z</time>
      </trkpt>
      <trkpt lat="45.68374" lon="4.69968">
        <ele>351.9</ele>
        <time>2021-09-04T18:55:44Z</time>
      </trkpt>
      <trkpt lat="45.68378" lon="4.6997">
        <ele>351.9</ele>
        <time>2021-09-04T18:55:45Z</time>
      </trkpt>
      <trkpt lat="45.68383" lon="4.69973">
        <ele>351.9</ele>
        <time>2021-09-04T18:55:47Z</time>
      </trkpt>
      <trkpt lat="45.68387" lon="4.69975">
        <ele>351.9</ele>
        <time>2021-09-04T18:55:48Z</time>
      </trkpt>
      <trkpt lat="45.6839" lon="4.69976">
        <ele>351.9</ele>
        <time>2021-09-04T18:55:49Z</time>
      </trkpt>
      <trkpt lat="45.68395" lon="4.69978">
        <ele>351.8</ele>
        <time>2021-09-04T18:55:51Z</time>
      </trkpt>
      <trkpt lat="45.68401" lon="4.69983">
        <ele>351.7</ele>
        <time>2021-09-04T18:55:53Z</time>
      </trkpt>
      <trkpt lat="45.68406" lon="4.69985">
        <ele>351.6</ele>
        <time>2021-09-04T18:55:55Z</time>
      </trkpt>
      <trkpt lat="45.68408" lon="4.69987">
        <ele>351.5</ele>
        <time>2021-09-04T18:55:56Z</time>
      </trkpt>
      <trkpt lat="45.68411" lon="4.6999">
        <ele>351.5</ele>
        <time>2021-09-04T18:55:57Z</time>
      </trkpt>
      <trkpt lat="45.68417" lon="4.69995">
        <ele>351.3</ele>
        <time>2021-09-04T18:55:59Z</time>
      </trkpt>
      <trkpt lat="45.68423" lon="4.7">
        <ele>351.1</ele>
        <time>2021-09-04T18:56:01Z</time>
      </trkpt>
      <trkpt lat="45.68425" lon="4.70002">
        <ele>351</ele>
        <time>2021-09-04T18:56:02Z</time>
      </trkpt>
      <trkpt lat="45.68431" lon="4.70008">
        <ele>350.8</ele>
        <time>2021-09-04T18:56:04Z</time>
      </trkpt>
      <trkpt lat="45.68437" lon="4.70016">
        <ele>350.6</ele>
        <time>2021-09-04T18:56:05Z</time>
      </trkpt>
      <trkpt lat="45.6844" lon="4.70021">
        <ele>350.4</ele>
        <time>2021-09-04T18:56:06Z</time>
      </trkpt>
      <trkpt lat="45.68442" lon="4.70032">
        <ele>350.3</ele>
        <time>2021-09-04T18:56:07Z</time>
      </trkpt>
      <trkpt lat="45.68445" lon="4.70047">
        <ele>350.1</ele>
        <time>2021-09-04T18:56:09Z</time>
      </trkpt>
      <trkpt lat="45.68446" lon="4.70054">
        <ele>350</ele>
        <time>2021-09-04T18:56:10Z</time>
      </trkpt>
      <trkpt lat="45.68448" lon="4.70066">
        <ele>349.9</ele>
        <time>2021-09-04T18:56:12Z</time>
      </trkpt>
      <trkpt lat="45.6845" lon="4.70079">
        <ele>349.8</ele>
        <time>2021-09-04T18:56:14Z</time>
      </trkpt>
      <trkpt lat="45.68452" lon="4.70092">
        <ele>349.7</ele>
        <time>2021-09-04T18:56:16Z</time>
      </trkpt>
      <trkpt lat="45.68454" lon="4.70105">
        <ele>349.6</ele>
        <time>2021-09-04T18:56:18Z</time>
      </trkpt>
      <trkpt lat="45.68456" lon="4.7011">
        <ele>349.6</ele>
        <time>2021-09-04T18:56:19Z</time>
      </trkpt>
      <trkpt lat="45.6846" lon="4.70119">
        <ele>349.5</ele>
        <time>2021-09-04T18:56:21Z</time>
      </trkpt>
      <trkpt lat="45.68461" lon="4.70129">
        <ele>349.4</ele>
        <time>2021-09-04T18:56:22Z</time>
      </trkpt>
      <trkpt lat="45.68464" lon="4.70138">
        <ele>349.4</ele>
        <time>2021-09-04T18:56:24Z</time>
      </trkpt>
      <trkpt lat="45.68466" lon="4.70144">
        <ele>349.3</ele>
        <time>2021-09-04T18:56:25Z</time>
      </trkpt>
      <trkpt lat="45.68471" lon="4.7015">
        <ele>349.2</ele>
        <time>2021-09-04T18:56:26Z</time>
      </trkpt>
      <trkpt lat="45.68474" lon="4.70155">
        <ele>349.2</ele>
        <time>2021-09-04T18:56:27Z</time>
      </trkpt>
      <trkpt lat="45.68478" lon="4.70159">
        <ele>349.1</ele>
        <time>2021-09-04T18:56:28Z</time>
      </trkpt>
      <trkpt lat="45.68482" lon="4.70165">
        <ele>349.1</ele>
        <time>2021-09-04T18:56:29Z</time>
      </trkpt>
      <trkpt lat="45.68489" lon="4.70176">
        <ele>348.9</ele>
        <time>2021-09-04T18:56:31Z</time>
      </trkpt>
      <trkpt lat="45.68492" lon="4.70182">
        <ele>348.8</ele>
        <time>2021-09-04T18:56:32Z</time>
      </trkpt>
      <trkpt lat="45.68495" lon="4.70187">
        <ele>348.8</ele>
        <time>2021-09-04T18:56:33Z</time>
      </trkpt>
      <trkpt lat="45.68498" lon="4.70193">
        <ele>348.7</ele>
        <time>2021-09-04T18:56:34Z</time>
      </trkpt>
      <trkpt lat="45.68501" lon="4.70208">
        <ele>348.5</ele>
        <time>2021-09-04T18:56:36Z</time>
      </trkpt>
      <trkpt lat="45.68503" lon="4.70223">
        <ele>348.4</ele>
        <time>2021-09-04T18:56:38Z</time>
      </trkpt>
      <trkpt lat="45.68506" lon="4.70238">
        <ele>348.3</ele>
        <time>2021-09-04T18:56:40Z</time>
      </trkpt>
      <trkpt lat="45.68508" lon="4.70245">
        <ele>348.2</ele>
        <time>2021-09-04T18:56:41Z</time>
      </trkpt>
      <trkpt lat="45.68511" lon="4.70258">
        <ele>348</ele>
        <time>2021-09-04T18:56:43Z</time>
      </trkpt>
      <trkpt lat="45.68514" lon="4.70271">
        <ele>347.7</ele>
        <time>2021-09-04T18:56:45Z</time>
      </trkpt>
      <trkpt lat="45.68515" lon="4.70277">
        <ele>347.5</ele>
        <time>2021-09-04T18:56:46Z</time>
      </trkpt>
      <trkpt lat="45.68516" lon="4.70291">
        <ele>347</ele>
        <time>2021-09-04T18:56:48Z</time>
      </trkpt>
      <trkpt lat="45.68516" lon="4.70308">
        <ele>346.1</ele>
        <time>2021-09-04T18:56:50Z</time>
      </trkpt>
      <trkpt lat="45.68514" lon="4.70328">
        <ele>345</ele>
        <time>2021-09-04T18:56:52Z</time>
      </trkpt>
      <trkpt lat="45.68512" lon="4.70339">
        <ele>344.4</ele>
        <time>2021-09-04T18:56:53Z</time>
      </trkpt>
      <trkpt lat="45.68511" lon="4.7035">
        <ele>343.8</ele>
        <time>2021-09-04T18:56:54Z</time>
      </trkpt>
      <trkpt lat="45.68507" lon="4.70368">
        <ele>342.8</ele>
        <time>2021-09-04T18:56:56Z</time>
      </trkpt>
      <trkpt lat="45.685" lon="4.70383">
        <ele>342</ele>
        <time>2021-09-04T18:56:58Z</time>
      </trkpt>
      <trkpt lat="45.68493" lon="4.704">
        <ele>341.7</ele>
        <time>2021-09-04T18:57:00Z</time>
      </trkpt>
      <trkpt lat="45.68491" lon="4.70409">
        <ele>341.7</ele>
        <time>2021-09-04T18:57:01Z</time>
      </trkpt>
      <trkpt lat="45.68485" lon="4.70426">
        <ele>341.9</ele>
        <time>2021-09-04T18:57:03Z</time>
      </trkpt>
      <trkpt lat="45.68484" lon="4.70433">
        <ele>342</ele>
        <time>2021-09-04T18:57:04Z</time>
      </trkpt>
      <trkpt lat="45.6848" lon="4.70448">
        <ele>342.2</ele>
        <time>2021-09-04T18:57:06Z</time>
      </trkpt>
      <trkpt lat="45.68479" lon="4.70455">
        <ele>342.3</ele>
        <time>2021-09-04T18:57:07Z</time>
      </trkpt>
      <trkpt lat="45.68475" lon="4.70467">
        <ele>342.5</ele>
        <time>2021-09-04T18:57:09Z</time>
      </trkpt>
      <trkpt lat="45.68474" lon="4.7047">
        <ele>342.6</ele>
        <time>2021-09-04T18:57:10Z</time>
      </trkpt>
      <trkpt lat="45.68472" lon="4.70477">
        <ele>342.7</ele>
        <time>2021-09-04T18:57:11Z</time>
      </trkpt>
      <trkpt lat="45.68468" lon="4.7049">
        <ele>343</ele>
        <time>2021-09-04T18:57:13Z</time>
      </trkpt>
      <trkpt lat="45.68466" lon="4.70496">
        <ele>343.1</ele>
        <time>2021-09-04T18:57:14Z</time>
      </trkpt>
      <trkpt lat="45.68463" lon="4.70508">
        <ele>343.3</ele>
        <time>2021-09-04T18:57:16Z</time>
      </trkpt>
      <trkpt lat="45.68462" lon="4.70513">
        <ele>343.3</ele>
        <time>2021-09-04T18:57:17Z</time>
      </trkpt>
      <trkpt lat="45.6846" lon="4.70527">
        <ele>343.5</ele>
        <time>2021-09-04T18:57:19Z</time>
      </trkpt>
      <trkpt lat="45.68459" lon="4.70541">
        <ele>343.5</ele>
        <time>2021-09-04T18:57:21Z</time>
      </trkpt>
      <trkpt lat="45.68459" lon="4.70548">
        <ele>343.5</ele>
        <time>2021-09-04T18:57:22Z</time>
      </trkpt>
      <trkpt lat="45.68459" lon="4.70562">
        <ele>343.4</ele>
        <time>2021-09-04T18:57:24Z</time>
      </trkpt>
      <trkpt lat="45.68459" lon="4.70576">
        <ele>343.2</ele>
        <time>2021-09-04T18:57:26Z</time>
      </trkpt>
      <trkpt lat="45.68458" lon="4.7059">
        <ele>343.1</ele>
        <time>2021-09-04T18:57:28Z</time>
      </trkpt>
      <trkpt lat="45.68458" lon="4.70597">
        <ele>343</ele>
        <time>2021-09-04T18:57:29Z</time>
      </trkpt>
      <trkpt lat="45.68459" lon="4.70612">
        <ele>342.8</ele>
        <time>2021-09-04T18:57:31Z</time>
      </trkpt>
      <trkpt lat="45.68459" lon="4.7062">
        <ele>342.7</ele>
        <time>2021-09-04T18:57:32Z</time>
      </trkpt>
      <trkpt lat="45.6846" lon="4.70637">
        <ele>342.4</ele>
        <time>2021-09-04T18:57:34Z</time>
      </trkpt>
      <trkpt lat="45.68462" lon="4.70652">
        <ele>341.9</ele>
        <time>2021-09-04T18:57:36Z</time>
      </trkpt>
      <trkpt lat="45.68464" lon="4.70659">
        <ele>341.6</ele>
        <time>2021-09-04T18:57:37Z</time>
      </trkpt>
      <trkpt lat="45.6847" lon="4.70674">
        <ele>340.7</ele>
        <time>2021-09-04T18:57:39Z</time>
      </trkpt>
      <trkpt lat="45.68474" lon="4.70681">
        <ele>340.2</ele>
        <time>2021-09-04T18:57:40Z</time>
      </trkpt>
      <trkpt lat="45.68485" lon="4.70696">
        <ele>339.2</ele>
        <time>2021-09-04T18:57:42Z</time>
      </trkpt>
      <trkpt lat="45.68497" lon="4.7071">
        <ele>338.1</ele>
        <time>2021-09-04T18:57:44Z</time>
      </trkpt>
      <trkpt lat="45.68503" lon="4.70717">
        <ele>337.6</ele>
        <time>2021-09-04T18:57:45Z</time>
      </trkpt>
      <trkpt lat="45.68516" lon="4.70734">
        <ele>336.5</ele>
        <time>2021-09-04T18:57:47Z</time>
      </trkpt>
      <trkpt lat="45.68529" lon="4.70752">
        <ele>335.3</ele>
        <time>2021-09-04T18:57:49Z</time>
      </trkpt>
      <trkpt lat="45.68536" lon="4.70762">
        <ele>334.7</ele>
        <time>2021-09-04T18:57:50Z</time>
      </trkpt>
      <trkpt lat="45.68543" lon="4.70771">
        <ele>334.1</ele>
        <time>2021-09-04T18:57:51Z</time>
      </trkpt>
      <trkpt lat="45.68557" lon="4.7079">
        <ele>332.9</ele>
        <time>2021-09-04T18:57:53Z</time>
      </trkpt>
      <trkpt lat="45.68565" lon="4.708">
        <ele>332.3</ele>
        <time>2021-09-04T18:57:54Z</time>
      </trkpt>
      <trkpt lat="45.6858" lon="4.70819">
        <ele>331.1</ele>
        <time>2021-09-04T18:57:56Z</time>
      </trkpt>
      <trkpt lat="45.68588" lon="4.70828">
        <ele>330.5</ele>
        <time>2021-09-04T18:57:57Z</time>
      </trkpt>
      <trkpt lat="45.68596" lon="4.70836">
        <ele>330</ele>
        <time>2021-09-04T18:57:58Z</time>
      </trkpt>
      <trkpt lat="45.68613" lon="4.70852">
        <ele>329</ele>
        <time>2021-09-04T18:58:00Z</time>
      </trkpt>
      <trkpt lat="45.68621" lon="4.7086">
        <ele>328.6</ele>
        <time>2021-09-04T18:58:01Z</time>
      </trkpt>
      <trkpt lat="45.68637" lon="4.70877">
        <ele>327.7</ele>
        <time>2021-09-04T18:58:03Z</time>
      </trkpt>
      <trkpt lat="45.68652" lon="4.70893">
        <ele>327</ele>
        <time>2021-09-04T18:58:05Z</time>
      </trkpt>
      <trkpt lat="45.68659" lon="4.709">
        <ele>326.7</ele>
        <time>2021-09-04T18:58:06Z</time>
      </trkpt>
      <trkpt lat="45.68675" lon="4.70912">
        <ele>326.2</ele>
        <time>2021-09-04T18:58:08Z</time>
      </trkpt>
      <trkpt lat="45.68682" lon="4.70917">
        <ele>325.9</ele>
        <time>2021-09-04T18:58:09Z</time>
      </trkpt>
      <trkpt lat="45.68693" lon="4.70925">
        <ele>325.6</ele>
        <time>2021-09-04T18:58:11Z</time>
      </trkpt>
      <trkpt lat="45.68696" lon="4.70929">
        <ele>325.5</ele>
        <time>2021-09-04T18:58:12Z</time>
      </trkpt>
      <trkpt lat="45.687" lon="4.70934">
        <ele>325.4</ele>
        <time>2021-09-04T18:58:14Z</time>
      </trkpt>
      <trkpt lat="45.68701" lon="4.70936">
        <ele>325.3</ele>
        <time>2021-09-04T18:58:15Z</time>
      </trkpt>
      <trkpt lat="45.68704" lon="4.7094">
        <ele>325.2</ele>
        <time>2021-09-04T18:58:17Z</time>
      </trkpt>
      <trkpt lat="45.68705" lon="4.70941">
        <ele>325.2</ele>
        <time>2021-09-04T18:58:18Z</time>
      </trkpt>
      <trkpt lat="45.68706" lon="4.70942">
        <ele>325.2</ele>
        <time>2021-09-04T18:58:20Z</time>
      </trkpt>
      <trkpt lat="45.68707" lon="4.70944">
        <ele>325.1</ele>
        <time>2021-09-04T18:58:21Z</time>
      </trkpt>
      <trkpt lat="45.68709" lon="4.70946">
        <ele>325.1</ele>
        <time>2021-09-04T18:58:23Z</time>
      </trkpt>
      <trkpt lat="45.68709" lon="4.70947">
        <ele>325.1</ele>
        <time>2021-09-04T18:58:24Z</time>
      </trkpt>
      <trkpt lat="45.68709" lon="4.70949">
        <ele>325.1</ele>
        <time>2021-09-04T18:58:25Z</time>
      </trkpt>
      <trkpt lat="45.68708" lon="4.7095">
        <ele>325</ele>
        <time>2021-09-04T18:58:26Z</time>
      </trkpt>
      <trkpt lat="45.68708" lon="4.70952">
        <ele>325</ele>
        <time>2021-09-04T18:58:28Z</time>
      </trkpt>
      <trkpt lat="45.68709" lon="4.70951">
        <ele>325</ele>
        <time>2021-09-04T18:58:29Z</time>
      </trkpt>
      <trkpt lat="45.68709" lon="4.70951">
        <ele>325</ele>
        <time>2021-09-04T18:58:30Z</time>
      </trkpt>
      <trkpt lat="45.68709" lon="4.7095">
        <ele>325</ele>
        <time>2021-09-04T18:58:32Z</time>
      </trkpt>
      <trkpt lat="45.68709" lon="4.7095">
        <ele>325</ele>
        <time>2021-09-04T18:58:33Z</time>
      </trkpt>
      <trkpt lat="45.68709" lon="4.70949">
        <ele>325</ele>
        <time>2021-09-04T18:58:35Z</time>
      </trkpt>
      <trkpt lat="45.68709" lon="4.70949">
        <ele>325</ele>
        <time>2021-09-04T18:58:37Z</time>
      </trkpt>
      <trkpt lat="45.68711" lon="4.70948">
        <ele>324.9</ele>
        <time>2021-09-04T18:58:56Z</time>
      </trkpt>
      <trkpt lat="45.68712" lon="4.70949">
        <ele>324.9</ele>
        <time>2021-09-04T18:58:58Z</time>
      </trkpt>
      <trkpt lat="45.68713" lon="4.70951">
        <ele>324.9</ele>
        <time>2021-09-04T18:58:59Z</time>
      </trkpt>
      <trkpt lat="45.68714" lon="4.70954">
        <ele>324.9</ele>
        <time>2021-09-04T18:59:01Z</time>
      </trkpt>
      <trkpt lat="45.68715" lon="4.70955">
        <ele>324.9</ele>
        <time>2021-09-04T18:59:02Z</time>
      </trkpt>
      <trkpt lat="45.68714" lon="4.70952">
        <ele>324.8</ele>
        <time>2021-09-04T18:59:04Z</time>
      </trkpt>
      <trkpt lat="45.68713" lon="4.70951">
        <ele>324.8</ele>
        <time>2021-09-04T18:59:05Z</time>
      </trkpt>
      <trkpt lat="45.68712" lon="4.70951">
        <ele>324.8</ele>
        <time>2021-09-04T18:59:06Z</time>
      </trkpt>
      <trkpt lat="45.6871" lon="4.7095">
        <ele>324.8</ele>
        <time>2021-09-04T18:59:07Z</time>
      </trkpt>
      <trkpt lat="45.6871" lon="4.70952">
        <ele>324.8</ele>
        <time>2021-09-04T18:59:09Z</time>
      </trkpt>
      <trkpt lat="45.68711" lon="4.70952">
        <ele>324.8</ele>
        <time>2021-09-04T18:59:10Z</time>
      </trkpt>
      <trkpt lat="45.68713" lon="4.70953">
        <ele>324.8</ele>
        <time>2021-09-04T18:59:12Z</time>
      </trkpt>
      <trkpt lat="45.68714" lon="4.70954">
        <ele>324.7</ele>
        <time>2021-09-04T18:59:13Z</time>
      </trkpt>
      <trkpt lat="45.68716" lon="4.70956">
        <ele>324.7</ele>
        <time>2021-09-04T18:59:14Z</time>
      </trkpt>
      <trkpt lat="45.68716" lon="4.70957">
        <ele>324.7</ele>
        <time>2021-09-04T18:59:15Z</time>
      </trkpt>
      <trkpt lat="45.68717" lon="4.70958">
        <ele>324.7</ele>
        <time>2021-09-04T18:59:16Z</time>
      </trkpt>
      <trkpt lat="45.6872" lon="4.70959">
        <ele>324.7</ele>
        <time>2021-09-04T18:59:17Z</time>
      </trkpt>
      <trkpt lat="45.68721" lon="4.7096">
        <ele>324.7</ele>
        <time>2021-09-04T18:59:19Z</time>
      </trkpt>
      <trkpt lat="45.68722" lon="4.7096">
        <ele>324.7</ele>
        <time>2021-09-04T18:59:20Z</time>
      </trkpt>
      <trkpt lat="45.68723" lon="4.7096">
        <ele>324.7</ele>
        <time>2021-09-04T18:59:21Z</time>
      </trkpt>
      <trkpt lat="45.68724" lon="4.70961">
        <ele>324.6</ele>
        <time>2021-09-04T18:59:22Z</time>
      </trkpt>
      <trkpt lat="45.68724" lon="4.70961">
        <ele>324.6</ele>
        <time>2021-09-04T18:59:23Z</time>
      </trkpt>
      <trkpt lat="45.68724" lon="4.7096">
        <ele>324.6</ele>
        <time>2021-09-04T18:59:25Z</time>
      </trkpt>
      <trkpt lat="45.68724" lon="4.7096">
        <ele>324.6</ele>
        <time>2021-09-04T18:59:26Z</time>
      </trkpt>
      <trkpt lat="45.68724" lon="4.7096">
        <ele>324.6</ele>
        <time>2021-09-04T18:59:28Z</time>
      </trkpt>
      <trkpt lat="45.68724" lon="4.7096">
        <ele>324.6</ele>
        <time>2021-09-04T18:59:29Z</time>
      </trkpt>
      <trkpt lat="45.68724" lon="4.7096">
        <ele>324.6</ele>
        <time>2021-09-04T18:59:30Z</time>
      </trkpt>
      <trkpt lat="45.68724" lon="4.70961">
        <ele>324.6</ele>
        <time>2021-09-04T18:59:32Z</time>
      </trkpt>
      <trkpt lat="45.68724" lon="4.70961">
        <ele>324.6</ele>
        <time>2021-09-04T18:59:33Z</time>
      </trkpt>
      <trkpt lat="45.68723" lon="4.70963">
        <ele>324.6</ele>
        <time>2021-09-04T19:03:15Z</time>
      </trkpt>
      <trkpt lat="45.68721" lon="4.70965">
        <ele>324.6</ele>
        <time>2021-09-04T19:03:17Z</time>
      </trkpt>
      <trkpt lat="45.68721" lon="4.70965">
        <ele>324.6</ele>
        <time>2021-09-04T19:03:18Z</time>
      </trkpt>
      <trkpt lat="45.68721" lon="4.70964">
        <ele>324.6</ele>
        <time>2021-09-04T19:03:20Z</time>
      </trkpt>
      <trkpt lat="45.68721" lon="4.70964">
        <ele>324.6</ele>
        <time>2021-09-04T19:03:21Z</time>
      </trkpt>
      <trkpt lat="45.68721" lon="4.70964">
        <ele>324.6</ele>
        <time>2021-09-04T19:03:23Z</time>
      </trkpt>
      <trkpt lat="45.68721" lon="4.70964">
        <ele>324.6</ele>
        <time>2021-09-04T19:03:24Z</time>
      </trkpt>
      <trkpt lat="45.68721" lon="4.70964">
        <ele>324.6</ele>
        <time>2021-09-04T19:03:25Z</time>
      </trkpt>
      <trkpt lat="45.68721" lon="4.70964">
        <ele>324.6</ele>
        <time>2021-09-04T19:03:27Z</time>
      </trkpt>
      <trkpt lat="45.68721" lon="4.70964">
        <ele>324.6</ele>
        <time>2021-09-04T19:03:29Z</time>
      </trkpt>
      <trkpt lat="45.68721" lon="4.70964">
        <ele>324.6</ele>
        <time>2021-09-04T19:03:30Z</time>
      </trkpt>
      <trkpt lat="45.68721" lon="4.70964">
        <ele>324.6</ele>
        <time>2021-09-04T19:03:31Z</time>
      </trkpt>
      <trkpt lat="45.68721" lon="4.70964">
        <ele>324.6</ele>
        <time>2021-09-04T19:03:32Z</time>
      </trkpt>
      <trkpt lat="45.68721" lon="4.70964">
        <ele>324.6</ele>
        <time>2021-09-04T19:03:34Z</time>
      </trkpt>
      <trkpt lat="45.68721" lon="4.70964">
        <ele>324.6</ele>
        <time>2021-09-04T19:03:35Z</time>
      </trkpt>
      <trkpt lat="45.68721" lon="4.70964">
        <ele>324.6</ele>
        <time>2021-09-04T19:03:37Z</time>
      </trkpt>
      <trkpt lat="45.68721" lon="4.70964">
        <ele>324.6</ele>
        <time>2021-09-04T19:03:39Z</time>
      </trkpt>
      <trkpt lat="45.68721" lon="4.70964">
        <ele>324.6</ele>
        <time>2021-09-04T19:03:41Z</time>
      </trkpt>
      <trkpt lat="45.68721" lon="4.70964">
        <ele>324.6</ele>
        <time>2021-09-04T19:03:42Z</time>
      </trkpt>
      <trkpt lat="45.68721" lon="4.70964">
        <ele>324.6</ele>
        <time>2021-09-04T19:03:43Z</time>
      </trkpt>
      <trkpt lat="45.68721" lon="4.70964">
        <ele>324.6</ele>
        <time>2021-09-04T19:03:45Z</time>
      </trkpt>
      <trkpt lat="45.68721" lon="4.70964">
        <ele>324.6</ele>
        <time>2021-09-04T19:03:47Z</time>
      </trkpt>
      <trkpt lat="45.68721" lon="4.70964">
        <ele>324.6</ele>
        <time>2021-09-04T19:03:48Z</time>
      </trkpt>
      <trkpt lat="45.68721" lon="4.70964">
        <ele>324.6</ele>
        <time>2021-09-04T19:03:50Z</time>
      </trkpt>
      <trkpt lat="45.68721" lon="4.70964">
        <ele>324.6</ele>
        <time>2021-09-04T19:03:51Z</time>
      </trkpt>
      <trkpt lat="45.68721" lon="4.70964">
        <ele>324.6</ele>
        <time>2021-09-04T19:03:53Z</time>
      </trkpt>
      <trkpt lat="45.68721" lon="4.70964">
        <ele>324.6</ele>
        <time>2021-09-04T19:03:55Z</time>
      </trkpt>
      <trkpt lat="45.68721" lon="4.70964">
        <ele>324.6</ele>
        <time>2021-09-04T19:03:56Z</time>
      </trkpt>
      <trkpt lat="45.68721" lon="4.70964">
        <ele>324.6</ele>
        <time>2021-09-04T19:03:57Z</time>
      </trkpt>
      <trkpt lat="45.68721" lon="4.70964">
        <ele>324.6</ele>
        <time>2021-09-04T19:03:59Z</time>
      </trkpt>
      <trkpt lat="45.68721" lon="4.70964">
        <ele>324.6</ele>
        <time>2021-09-04T19:04:00Z</time>
      </trkpt>
      <trkpt lat="45.68721" lon="4.70964">
        <ele>324.6</ele>
        <time>2021-09-04T19:04:02Z</time>
      </trkpt>
      <trkpt lat="45.68721" lon="4.70964">
        <ele>324.6</ele>
        <time>2021-09-04T19:04:04Z</time>
      </trkpt>
      <trkpt lat="45.68721" lon="4.70964">
        <ele>324.6</ele>
        <time>2021-09-04T19:04:05Z</time>
      </trkpt>
      <trkpt lat="45.68721" lon="4.70964">
        <ele>324.6</ele>
        <time>2021-09-04T19:04:07Z</time>
      </trkpt>
      <trkpt lat="45.68721" lon="4.70964">
        <ele>324.6</ele>
        <time>2021-09-04T19:04:09Z</time>
      </trkpt>
      <trkpt lat="45.68721" lon="4.70964">
        <ele>324.6</ele>
        <time>2021-09-04T19:04:10Z</time>
      </trkpt>
      <trkpt lat="45.68721" lon="4.70964">
        <ele>324.6</ele>
        <time>2021-09-04T19:04:12Z</time>
      </trkpt>
      <trkpt lat="45.68721" lon="4.70964">
        <ele>324.6</ele>
        <time>2021-09-04T19:04:14Z</time>
      </trkpt>
      <trkpt lat="45.68721" lon="4.70964">
        <ele>324.6</ele>
        <time>2021-09-04T19:04:15Z</time>
      </trkpt>
      <trkpt lat="45.68721" lon="4.70964">
        <ele>324.6</ele>
        <time>2021-09-04T19:04:17Z</time>
      </trkpt>
      <trkpt lat="45.68721" lon="4.70964">
        <ele>324.6</ele>
        <time>2021-09-04T19:04:19Z</time>
      </trkpt>
      <trkpt lat="45.68721" lon="4.70964">
        <ele>324.6</ele>
        <time>2021-09-04T19:04:20Z</time>
      </trkpt>
      <trkpt lat="45.68721" lon="4.70964">
        <ele>324.6</ele>
        <time>2021-09-04T19:04:21Z</time>
      </trkpt>
      <trkpt lat="45.68721" lon="4.70964">
        <ele>324.6</ele>
        <time>2021-09-04T19:04:22Z</time>
      </trkpt>
      <trkpt lat="45.68721" lon="4.70964">
        <ele>324.6</ele>
        <time>2021-09-04T19:04:23Z</time>
      </trkpt>
      <trkpt lat="45.68721" lon="4.70964">
        <ele>324.6</ele>
        <time>2021-09-04T19:04:24Z</time>
      </trkpt>
      <trkpt lat="45.68721" lon="4.70964">
        <ele>324.6</ele>
        <time>2021-09-04T19:04:25Z</time>
      </trkpt>
      <trkpt lat="45.68721" lon="4.70964">
        <ele>324.6</ele>
        <time>2021-09-04T19:04:27Z</time>
      </trkpt>
      <trkpt lat="45.68721" lon="4.70964">
        <ele>324.6</ele>
        <time>2021-09-04T19:04:29Z</time>
      </trkpt>
      <trkpt lat="45.68721" lon="4.70964">
        <ele>324.6</ele>
        <time>2021-09-04T19:04:30Z</time>
      </trkpt>
      <trkpt lat="45.68721" lon="4.70964">
        <ele>324.6</ele>
        <time>2021-09-04T19:04:32Z</time>
      </trkpt>
      <trkpt lat="45.68722" lon="4.70964">
        <ele>324.6</ele>
        <time>2021-09-04T19:04:34Z</time>
      </trkpt>
      <trkpt lat="45.68722" lon="4.70964">
        <ele>324.6</ele>
        <time>2021-09-04T19:04:35Z</time>
      </trkpt>
      <trkpt lat="45.68722" lon="4.70964">
        <ele>324.6</ele>
        <time>2021-09-04T19:04:37Z</time>
      </trkpt>
      <trkpt lat="45.68722" lon="4.70964">
        <ele>324.6</ele>
        <time>2021-09-04T19:04:39Z</time>
      </trkpt>
      <trkpt lat="45.68722" lon="4.70964">
        <ele>324.6</ele>
        <time>2021-09-04T19:04:40Z</time>
      </trkpt>
      <trkpt lat="45.68722" lon="4.70964">
        <ele>324.6</ele>
        <time>2021-09-04T19:04:42Z</time>
      </trkpt>
      <trkpt lat="45.68722" lon="4.70964">
        <ele>324.6</ele>
        <time>2021-09-04T19:04:43Z</time>
      </trkpt>
      <trkpt lat="45.68722" lon="4.70964">
        <ele>324.6</ele>
        <time>2021-09-04T19:04:44Z</time>
      </trkpt>
      <trkpt lat="45.68722" lon="4.70964">
        <ele>324.6</ele>
        <time>2021-09-04T19:04:45Z</time>
      </trkpt>
      <trkpt lat="45.68722" lon="4.70964">
        <ele>324.6</ele>
        <time>2021-09-04T19:04:46Z</time>
      </trkpt>
      <trkpt lat="45.68722" lon="4.70964">
        <ele>324.6</ele>
        <time>2021-09-04T19:04:48Z</time>
      </trkpt>
      <trkpt lat="45.68722" lon="4.70964">
        <ele>324.6</ele>
        <time>2021-09-04T19:04:50Z</time>
      </trkpt>
      <trkpt lat="45.68722" lon="4.70964">
        <ele>324.6</ele>
        <time>2021-09-04T19:04:52Z</time>
      </trkpt>
      <trkpt lat="45.68722" lon="4.70963">
        <ele>324.6</ele>
        <time>2021-09-04T19:04:54Z</time>
      </trkpt>
      <trkpt lat="45.68722" lon="4.70963">
        <ele>324.6</ele>
        <time>2021-09-04T19:04:55Z</time>
      </trkpt>
      <trkpt lat="45.68722" lon="4.70963">
        <ele>324.6</ele>
        <time>2021-09-04T19:04:56Z</time>
      </trkpt>
      <trkpt lat="45.68722" lon="4.70963">
        <ele>324.6</ele>
        <time>2021-09-04T19:04:57Z</time>
      </trkpt>
      <trkpt lat="45.68722" lon="4.70963">
        <ele>324.6</ele>
        <time>2021-09-04T19:04:59Z</time>
      </trkpt>
      <trkpt lat="45.68722" lon="4.70963">
        <ele>324.6</ele>
        <time>2021-09-04T19:05:00Z</time>
      </trkpt>
      <trkpt lat="45.68723" lon="4.70964">
        <ele>324.6</ele>
        <time>2021-09-04T19:05:01Z</time>
      </trkpt>
      <trkpt lat="45.68723" lon="4.70964">
        <ele>324.6</ele>
        <time>2021-09-04T19:05:03Z</time>
      </trkpt>
      <trkpt lat="45.68723" lon="4.70964">
        <ele>324.6</ele>
        <time>2021-09-04T19:05:04Z</time>
      </trkpt>
      <trkpt lat="45.68723" lon="4.70964">
        <ele>324.6</ele>
        <time>2021-09-04T19:05:05Z</time>
      </trkpt>
      <trkpt lat="45.68723" lon="4.70964">
        <ele>324.6</ele>
        <time>2021-09-04T19:05:07Z</time>
      </trkpt>
      <trkpt lat="45.68723" lon="4.70964">
        <ele>324.6</ele>
        <time>2021-09-04T19:05:08Z</time>
      </trkpt>
      <trkpt lat="45.68723" lon="4.70964">
        <ele>324.6</ele>
        <time>2021-09-04T19:05:09Z</time>
      </trkpt>
      <trkpt lat="45.68724" lon="4.70964">
        <ele>324.5</ele>
        <time>2021-09-04T19:05:11Z</time>
      </trkpt>
      <trkpt lat="45.68724" lon="4.70964">
        <ele>324.5</ele>
        <time>2021-09-04T19:05:13Z</time>
      </trkpt>
      <trkpt lat="45.68724" lon="4.70964">
        <ele>324.5</ele>
        <time>2021-09-04T19:05:14Z</time>
      </trkpt>
      <trkpt lat="45.68719" lon="4.70961">
        <ele>324.5</ele>
        <time>2021-09-04T19:05:27Z</time>
      </trkpt>
      <trkpt lat="45.68718" lon="4.70959">
        <ele>324.5</ele>
        <time>2021-09-04T19:05:28Z</time>
      </trkpt>
      <trkpt lat="45.68717" lon="4.70958">
        <ele>324.5</ele>
        <time>2021-09-04T19:05:29Z</time>
      </trkpt>
      <trkpt lat="45.68715" lon="4.70958">
        <ele>324.4</ele>
        <time>2021-09-04T19:05:31Z</time>
      </trkpt>
      <trkpt lat="45.68714" lon="4.70957">
        <ele>324.4</ele>
        <time>2021-09-04T19:05:32Z</time>
      </trkpt>
      <trkpt lat="45.68712" lon="4.70954">
        <ele>324.4</ele>
        <time>2021-09-04T19:05:34Z</time>
      </trkpt>
      <trkpt lat="45.68711" lon="4.70953">
        <ele>324.4</ele>
        <time>2021-09-04T19:05:35Z</time>
      </trkpt>
      <trkpt lat="45.6871" lon="4.70952">
        <ele>324.4</ele>
        <time>2021-09-04T19:05:36Z</time>
      </trkpt>
      <trkpt lat="45.68709" lon="4.70951">
        <ele>324.4</ele>
        <time>2021-09-04T19:05:37Z</time>
      </trkpt>
      <trkpt lat="45.68708" lon="4.7095">
        <ele>324.3</ele>
        <time>2021-09-04T19:05:38Z</time>
      </trkpt>
      <trkpt lat="45.68707" lon="4.70949">
        <ele>324.3</ele>
        <time>2021-09-04T19:05:39Z</time>
      </trkpt>
      <trkpt lat="45.68706" lon="4.70947">
        <ele>324.3</ele>
        <time>2021-09-04T19:05:41Z</time>
      </trkpt>
      <trkpt lat="45.68707" lon="4.70947">
        <ele>324.3</ele>
        <time>2021-09-04T19:05:43Z</time>
      </trkpt>
      <trkpt lat="45.68707" lon="4.70948">
        <ele>324.3</ele>
        <time>2021-09-04T19:05:44Z</time>
      </trkpt>
      <trkpt lat="45.68707" lon="4.70947">
        <ele>324.3</ele>
        <time>2021-09-04T19:05:45Z</time>
      </trkpt>
      <trkpt lat="45.68708" lon="4.70947">
        <ele>324.3</ele>
        <time>2021-09-04T19:05:46Z</time>
      </trkpt>
      <trkpt lat="45.68708" lon="4.70947">
        <ele>324.3</ele>
        <time>2021-09-04T19:05:47Z</time>
      </trkpt>
      <trkpt lat="45.68708" lon="4.70945">
        <ele>324.3</ele>
        <time>2021-09-04T19:05:48Z</time>
      </trkpt>
      <trkpt lat="45.68707" lon="4.70945">
        <ele>324.2</ele>
        <time>2021-09-04T19:05:50Z</time>
      </trkpt>
      <trkpt lat="45.68707" lon="4.70945">
        <ele>324.2</ele>
        <time>2021-09-04T19:05:51Z</time>
      </trkpt>
      <trkpt lat="45.68708" lon="4.70943">
        <ele>324.2</ele>
        <time>2021-09-04T19:05:53Z</time>
      </trkpt>
      <trkpt lat="45.68712" lon="4.70947">
        <ele>324.1</ele>
        <time>2021-09-04T19:05:55Z</time>
      </trkpt>
      <trkpt lat="45.68713" lon="4.7095">
        <ele>324.1</ele>
        <time>2021-09-04T19:05:56Z</time>
      </trkpt>
      <trkpt lat="45.68714" lon="4.70952">
        <ele>324.1</ele>
        <time>2021-09-04T19:05:57Z</time>
      </trkpt>
      <trkpt lat="45.68716" lon="4.70954">
        <ele>324</ele>
        <time>2021-09-04T19:05:59Z</time>
      </trkpt>
      <trkpt lat="45.68717" lon="4.70951">
        <ele>324</ele>
        <time>2021-09-04T19:06:00Z</time>
      </trkpt>
      <trkpt lat="45.68717" lon="4.70949">
        <ele>323.9</ele>
        <time>2021-09-04T19:06:02Z</time>
      </trkpt>
      <trkpt lat="45.68716" lon="4.70949">
        <ele>323.9</ele>
        <time>2021-09-04T19:06:03Z</time>
      </trkpt>
      <trkpt lat="45.68716" lon="4.70949">
        <ele>323.9</ele>
        <time>2021-09-04T19:06:04Z</time>
      </trkpt>
      <trkpt lat="45.68716" lon="4.70949">
        <ele>323.9</ele>
        <time>2021-09-04T19:06:05Z</time>
      </trkpt>
      <trkpt lat="45.68716" lon="4.70949">
        <ele>323.9</ele>
        <time>2021-09-04T19:06:07Z</time>
      </trkpt>
      <trkpt lat="45.68716" lon="4.70949">
        <ele>323.9</ele>
        <time>2021-09-04T19:06:09Z</time>
      </trkpt>
      <trkpt lat="45.68716" lon="4.70949">
        <ele>323.9</ele>
        <time>2021-09-04T19:06:10Z</time>
      </trkpt>
      <trkpt lat="45.68716" lon="4.70958">
        <ele>323.7</ele>
        <time>2021-09-04T19:08:12Z</time>
      </trkpt>
      <trkpt lat="45.68717" lon="4.70961">
        <ele>323.6</ele>
        <time>2021-09-04T19:08:13Z</time>
      </trkpt>
      <trkpt lat="45.6872" lon="4.70963">
        <ele>323.4</ele>
        <time>2021-09-04T19:08:15Z</time>
      </trkpt>
      <trkpt lat="45.68719" lon="4.70966">
        <ele>323.3</ele>
        <time>2021-09-04T19:08:16Z</time>
      </trkpt>
      <trkpt lat="45.68718" lon="4.70969">
        <ele>323.2</ele>
        <time>2021-09-04T19:08:18Z</time>
      </trkpt>
      <trkpt lat="45.68717" lon="4.7097">
        <ele>323.2</ele>
        <time>2021-09-04T19:08:19Z</time>
      </trkpt>
      <trkpt lat="45.68717" lon="4.70971">
        <ele>323.1</ele>
        <time>2021-09-04T19:08:21Z</time>
      </trkpt>
      <trkpt lat="45.68717" lon="4.70972">
        <ele>323.1</ele>
        <time>2021-09-04T19:08:22Z</time>
      </trkpt>
      <trkpt lat="45.68717" lon="4.70973">
        <ele>323.1</ele>
        <time>2021-09-04T19:08:24Z</time>
      </trkpt>
      <trkpt lat="45.68717" lon="4.70974">
        <ele>323</ele>
        <time>2021-09-04T19:08:25Z</time>
      </trkpt>
      <trkpt lat="45.68716" lon="4.70975">
        <ele>323</ele>
        <time>2021-09-04T19:08:27Z</time>
      </trkpt>
      <trkpt lat="45.68716" lon="4.70976">
        <ele>322.9</ele>
        <time>2021-09-04T19:08:28Z</time>
      </trkpt>
      <trkpt lat="45.68714" lon="4.70983">
        <ele>322.6</ele>
        <time>2021-09-04T19:08:30Z</time>
      </trkpt>
      <trkpt lat="45.68712" lon="4.70992">
        <ele>322.3</ele>
        <time>2021-09-04T19:08:31Z</time>
      </trkpt>
      <trkpt lat="45.68711" lon="4.70998">
        <ele>322</ele>
        <time>2021-09-04T19:08:32Z</time>
      </trkpt>
      <trkpt lat="45.68713" lon="4.71017">
        <ele>321.1</ele>
        <time>2021-09-04T19:08:34Z</time>
      </trkpt>
      <trkpt lat="45.68717" lon="4.71033">
        <ele>320.3</ele>
        <time>2021-09-04T19:08:36Z</time>
      </trkpt>
      <trkpt lat="45.6872" lon="4.71043">
        <ele>319.8</ele>
        <time>2021-09-04T19:08:37Z</time>
      </trkpt>
      <trkpt lat="45.68726" lon="4.71062">
        <ele>318.9</ele>
        <time>2021-09-04T19:08:39Z</time>
      </trkpt>
      <trkpt lat="45.68728" lon="4.71073">
        <ele>318.4</ele>
        <time>2021-09-04T19:08:40Z</time>
      </trkpt>
      <trkpt lat="45.68731" lon="4.71083">
        <ele>317.9</ele>
        <time>2021-09-04T19:08:41Z</time>
      </trkpt>
      <trkpt lat="45.68734" lon="4.71094">
        <ele>317.4</ele>
        <time>2021-09-04T19:08:42Z</time>
      </trkpt>
      <trkpt lat="45.68737" lon="4.71105">
        <ele>316.9</ele>
        <time>2021-09-04T19:08:43Z</time>
      </trkpt>
      <trkpt lat="45.6874" lon="4.71116">
        <ele>316.4</ele>
        <time>2021-09-04T19:08:44Z</time>
      </trkpt>
      <trkpt lat="45.68747" lon="4.71139">
        <ele>315.2</ele>
        <time>2021-09-04T19:08:46Z</time>
      </trkpt>
      <trkpt lat="45.6875" lon="4.71151">
        <ele>314.7</ele>
        <time>2021-09-04T19:08:47Z</time>
      </trkpt>
      <trkpt lat="45.68757" lon="4.71176">
        <ele>313.7</ele>
        <time>2021-09-04T19:08:49Z</time>
      </trkpt>
      <trkpt lat="45.68761" lon="4.71189">
        <ele>313.4</ele>
        <time>2021-09-04T19:08:50Z</time>
      </trkpt>
      <trkpt lat="45.68767" lon="4.71213">
        <ele>312.7</ele>
        <time>2021-09-04T19:08:52Z</time>
      </trkpt>
      <trkpt lat="45.6877" lon="4.71226">
        <ele>312.4</ele>
        <time>2021-09-04T19:08:53Z</time>
      </trkpt>
      <trkpt lat="45.68777" lon="4.71251">
        <ele>311.7</ele>
        <time>2021-09-04T19:08:55Z</time>
      </trkpt>
      <trkpt lat="45.6878" lon="4.71263">
        <ele>311.2</ele>
        <time>2021-09-04T19:08:56Z</time>
      </trkpt>
      <trkpt lat="45.68785" lon="4.71275">
        <ele>310.7</ele>
        <time>2021-09-04T19:08:57Z</time>
      </trkpt>
      <trkpt lat="45.6879" lon="4.71286">
        <ele>310.1</ele>
        <time>2021-09-04T19:08:58Z</time>
      </trkpt>
      <trkpt lat="45.68803" lon="4.71307">
        <ele>309</ele>
        <time>2021-09-04T19:09:00Z</time>
      </trkpt>
      <trkpt lat="45.6881" lon="4.71317">
        <ele>308.4</ele>
        <time>2021-09-04T19:09:01Z</time>
      </trkpt>
      <trkpt lat="45.68828" lon="4.71334">
        <ele>307.3</ele>
        <time>2021-09-04T19:09:03Z</time>
      </trkpt>
      <trkpt lat="45.68837" lon="4.71341">
        <ele>306.9</ele>
        <time>2021-09-04T19:09:04Z</time>
      </trkpt>
      <trkpt lat="45.68846" lon="4.71348">
        <ele>306.5</ele>
        <time>2021-09-04T19:09:05Z</time>
      </trkpt>
      <trkpt lat="45.68864" lon="4.71362">
        <ele>305.9</ele>
        <time>2021-09-04T19:09:07Z</time>
      </trkpt>
      <trkpt lat="45.68881" lon="4.71375">
        <ele>305.1</ele>
        <time>2021-09-04T19:09:09Z</time>
      </trkpt>
      <trkpt lat="45.68888" lon="4.71382">
        <ele>304.7</ele>
        <time>2021-09-04T19:09:10Z</time>
      </trkpt>
      <trkpt lat="45.68905" lon="4.71397">
        <ele>303.8</ele>
        <time>2021-09-04T19:09:12Z</time>
      </trkpt>
      <trkpt lat="45.68922" lon="4.7141">
        <ele>303</ele>
        <time>2021-09-04T19:09:14Z</time>
      </trkpt>
      <trkpt lat="45.6893" lon="4.71417">
        <ele>302.6</ele>
        <time>2021-09-04T19:09:15Z</time>
      </trkpt>
      <trkpt lat="45.68947" lon="4.71428">
        <ele>302</ele>
        <time>2021-09-04T19:09:17Z</time>
      </trkpt>
      <trkpt lat="45.68956" lon="4.71435">
        <ele>301.8</ele>
        <time>2021-09-04T19:09:18Z</time>
      </trkpt>
      <trkpt lat="45.68971" lon="4.71448">
        <ele>301.6</ele>
        <time>2021-09-04T19:09:20Z</time>
      </trkpt>
      <trkpt lat="45.68979" lon="4.71453">
        <ele>301.4</ele>
        <time>2021-09-04T19:09:21Z</time>
      </trkpt>
      <trkpt lat="45.68994" lon="4.71463">
        <ele>301.1</ele>
        <time>2021-09-04T19:09:23Z</time>
      </trkpt>
      <trkpt lat="45.69008" lon="4.71473">
        <ele>300.9</ele>
        <time>2021-09-04T19:09:25Z</time>
      </trkpt>
      <trkpt lat="45.69015" lon="4.71478">
        <ele>300.8</ele>
        <time>2021-09-04T19:09:26Z</time>
      </trkpt>
      <trkpt lat="45.69029" lon="4.71487">
        <ele>300.6</ele>
        <time>2021-09-04T19:09:28Z</time>
      </trkpt>
      <trkpt lat="45.69036" lon="4.71492">
        <ele>300.4</ele>
        <time>2021-09-04T19:09:29Z</time>
      </trkpt>
      <trkpt lat="45.6905" lon="4.71502">
        <ele>300.2</ele>
        <time>2021-09-04T19:09:31Z</time>
      </trkpt>
      <trkpt lat="45.69057" lon="4.71506">
        <ele>300</ele>
        <time>2021-09-04T19:09:32Z</time>
      </trkpt>
      <trkpt lat="45.69072" lon="4.71515">
        <ele>299.7</ele>
        <time>2021-09-04T19:09:34Z</time>
      </trkpt>
      <trkpt lat="45.69087" lon="4.71524">
        <ele>299.4</ele>
        <time>2021-09-04T19:09:36Z</time>
      </trkpt>
      <trkpt lat="45.69094" lon="4.71527">
        <ele>299.2</ele>
        <time>2021-09-04T19:09:37Z</time>
      </trkpt>
      <trkpt lat="45.69109" lon="4.71535">
        <ele>299.1</ele>
        <time>2021-09-04T19:09:39Z</time>
      </trkpt>
      <trkpt lat="45.69124" lon="4.71541">
        <ele>299</ele>
        <time>2021-09-04T19:09:41Z</time>
      </trkpt>
      <trkpt lat="45.6914" lon="4.71546">
        <ele>299</ele>
        <time>2021-09-04T19:09:43Z</time>
      </trkpt>
      <trkpt lat="45.69148" lon="4.71546">
        <ele>299</ele>
        <time>2021-09-04T19:09:44Z</time>
      </trkpt>
      <trkpt lat="45.69156" lon="4.71548">
        <ele>299</ele>
        <time>2021-09-04T19:09:45Z</time>
      </trkpt>
      <trkpt lat="45.69171" lon="4.71552">
        <ele>299</ele>
        <time>2021-09-04T19:09:47Z</time>
      </trkpt>
      <trkpt lat="45.69178" lon="4.71556">
        <ele>299</ele>
        <time>2021-09-04T19:09:48Z</time>
      </trkpt>
      <trkpt lat="45.69191" lon="4.71564">
        <ele>299</ele>
        <time>2021-09-04T19:09:50Z</time>
      </trkpt>
      <trkpt lat="45.69198" lon="4.71568">
        <ele>299</ele>
        <time>2021-09-04T19:09:51Z</time>
      </trkpt>
      <trkpt lat="45.69204" lon="4.71574">
        <ele>298.9</ele>
        <time>2021-09-04T19:09:52Z</time>
      </trkpt>
      <trkpt lat="45.69216" lon="4.71586">
        <ele>298.8</ele>
        <time>2021-09-04T19:09:54Z</time>
      </trkpt>
      <trkpt lat="45.69222" lon="4.71593">
        <ele>298.6</ele>
        <time>2021-09-04T19:09:55Z</time>
      </trkpt>
      <trkpt lat="45.69231" lon="4.7161">
        <ele>298.4</ele>
        <time>2021-09-04T19:09:57Z</time>
      </trkpt>
      <trkpt lat="45.69235" lon="4.71619">
        <ele>298.3</ele>
        <time>2021-09-04T19:09:58Z</time>
      </trkpt>
      <trkpt lat="45.69242" lon="4.71637">
        <ele>298.2</ele>
        <time>2021-09-04T19:10:00Z</time>
      </trkpt>
      <trkpt lat="45.6925" lon="4.71655">
        <ele>298.1</ele>
        <time>2021-09-04T19:10:02Z</time>
      </trkpt>
      <trkpt lat="45.69259" lon="4.7167">
        <ele>298</ele>
        <time>2021-09-04T19:10:04Z</time>
      </trkpt>
      <trkpt lat="45.69263" lon="4.71677">
        <ele>298</ele>
        <time>2021-09-04T19:10:05Z</time>
      </trkpt>
      <trkpt lat="45.69271" lon="4.7169">
        <ele>297.7</ele>
        <time>2021-09-04T19:10:07Z</time>
      </trkpt>
      <trkpt lat="45.69275" lon="4.71697">
        <ele>297.5</ele>
        <time>2021-09-04T19:10:08Z</time>
      </trkpt>
      <trkpt lat="45.69279" lon="4.71704">
        <ele>297.3</ele>
        <time>2021-09-04T19:10:09Z</time>
      </trkpt>
      <trkpt lat="45.69288" lon="4.71717">
        <ele>296.8</ele>
        <time>2021-09-04T19:10:11Z</time>
      </trkpt>
      <trkpt lat="45.69297" lon="4.71731">
        <ele>296</ele>
        <time>2021-09-04T19:10:13Z</time>
      </trkpt>
      <trkpt lat="45.69302" lon="4.71738">
        <ele>295.6</ele>
        <time>2021-09-04T19:10:14Z</time>
      </trkpt>
      <trkpt lat="45.69307" lon="4.71746">
        <ele>295.1</ele>
        <time>2021-09-04T19:10:15Z</time>
      </trkpt>
      <trkpt lat="45.69317" lon="4.71762">
        <ele>294</ele>
        <time>2021-09-04T19:10:17Z</time>
      </trkpt>
      <trkpt lat="45.69322" lon="4.7177">
        <ele>293.4</ele>
        <time>2021-09-04T19:10:18Z</time>
      </trkpt>
      <trkpt lat="45.69333" lon="4.71787">
        <ele>292.3</ele>
        <time>2021-09-04T19:10:20Z</time>
      </trkpt>
      <trkpt lat="45.6934" lon="4.71795">
        <ele>291.8</ele>
        <time>2021-09-04T19:10:21Z</time>
      </trkpt>
      <trkpt lat="45.69352" lon="4.71813">
        <ele>290.8</ele>
        <time>2021-09-04T19:10:23Z</time>
      </trkpt>
      <trkpt lat="45.69358" lon="4.71821">
        <ele>290.3</ele>
        <time>2021-09-04T19:10:24Z</time>
      </trkpt>
      <trkpt lat="45.6937" lon="4.71838">
        <ele>289.5</ele>
        <time>2021-09-04T19:10:26Z</time>
      </trkpt>
      <trkpt lat="45.69376" lon="4.71845">
        <ele>289.1</ele>
        <time>2021-09-04T19:10:27Z</time>
      </trkpt>
      <trkpt lat="45.69387" lon="4.71861">
        <ele>288.5</ele>
        <time>2021-09-04T19:10:29Z</time>
      </trkpt>
      <trkpt lat="45.69393" lon="4.7187">
        <ele>288.2</ele>
        <time>2021-09-04T19:10:30Z</time>
      </trkpt>
      <trkpt lat="45.69398" lon="4.71878">
        <ele>288</ele>
        <time>2021-09-04T19:10:31Z</time>
      </trkpt>
      <trkpt lat="45.69403" lon="4.71884">
        <ele>287.8</ele>
        <time>2021-09-04T19:10:32Z</time>
      </trkpt>
      <trkpt lat="45.69413" lon="4.71899">
        <ele>287.6</ele>
        <time>2021-09-04T19:10:34Z</time>
      </trkpt>
      <trkpt lat="45.69416" lon="4.71907">
        <ele>287.6</ele>
        <time>2021-09-04T19:10:35Z</time>
      </trkpt>
      <trkpt lat="45.69419" lon="4.71913">
        <ele>287.6</ele>
        <time>2021-09-04T19:10:36Z</time>
      </trkpt>
      <trkpt lat="45.69425" lon="4.71924">
        <ele>287.5</ele>
        <time>2021-09-04T19:10:38Z</time>
      </trkpt>
      <trkpt lat="45.69429" lon="4.71932">
        <ele>287.4</ele>
        <time>2021-09-04T19:10:39Z</time>
      </trkpt>
      <trkpt lat="45.69432" lon="4.71939">
        <ele>287.3</ele>
        <time>2021-09-04T19:10:40Z</time>
      </trkpt>
      <trkpt lat="45.69436" lon="4.71946">
        <ele>287.3</ele>
        <time>2021-09-04T19:10:41Z</time>
      </trkpt>
      <trkpt lat="45.69438" lon="4.71954">
        <ele>287.2</ele>
        <time>2021-09-04T19:10:42Z</time>
      </trkpt>
      <trkpt lat="45.6944" lon="4.71968">
        <ele>287.2</ele>
        <time>2021-09-04T19:10:44Z</time>
      </trkpt>
      <trkpt lat="45.6944" lon="4.71976">
        <ele>287.2</ele>
        <time>2021-09-04T19:10:45Z</time>
      </trkpt>
      <trkpt lat="45.6944" lon="4.71982">
        <ele>287.2</ele>
        <time>2021-09-04T19:10:46Z</time>
      </trkpt>
      <trkpt lat="45.69438" lon="4.71996">
        <ele>287.1</ele>
        <time>2021-09-04T19:10:48Z</time>
      </trkpt>
      <trkpt lat="45.69438" lon="4.72005">
        <ele>287.1</ele>
        <time>2021-09-04T19:10:49Z</time>
      </trkpt>
      <trkpt lat="45.69438" lon="4.72011">
        <ele>287</ele>
        <time>2021-09-04T19:10:50Z</time>
      </trkpt>
      <trkpt lat="45.69438" lon="4.72024">
        <ele>286.8</ele>
        <time>2021-09-04T19:10:52Z</time>
      </trkpt>
      <trkpt lat="45.69437" lon="4.72029">
        <ele>286.6</ele>
        <time>2021-09-04T19:10:53Z</time>
      </trkpt>
      <trkpt lat="45.69437" lon="4.72034">
        <ele>286.4</ele>
        <time>2021-09-04T19:10:55Z</time>
      </trkpt>
      <trkpt lat="45.69437" lon="4.72036">
        <ele>286.3</ele>
        <time>2021-09-04T19:10:56Z</time>
      </trkpt>
      <trkpt lat="45.69438" lon="4.72042">
        <ele>285.9</ele>
        <time>2021-09-04T19:10:57Z</time>
      </trkpt>
      <trkpt lat="45.69437" lon="4.72048">
        <ele>285.4</ele>
        <time>2021-09-04T19:10:58Z</time>
      </trkpt>
      <trkpt lat="45.69438" lon="4.72056">
        <ele>284.7</ele>
        <time>2021-09-04T19:11:00Z</time>
      </trkpt>
      <trkpt lat="45.69438" lon="4.72061">
        <ele>284.2</ele>
        <time>2021-09-04T19:11:01Z</time>
      </trkpt>
      <trkpt lat="45.6944" lon="4.72072">
        <ele>282.9</ele>
        <time>2021-09-04T19:11:03Z</time>
      </trkpt>
      <trkpt lat="45.6944" lon="4.72079">
        <ele>282</ele>
        <time>2021-09-04T19:11:04Z</time>
      </trkpt>
      <trkpt lat="45.69439" lon="4.72084">
        <ele>281.4</ele>
        <time>2021-09-04T19:11:06Z</time>
      </trkpt>
      <trkpt lat="45.69438" lon="4.72086">
        <ele>281.1</ele>
        <time>2021-09-04T19:11:07Z</time>
      </trkpt>
      <trkpt lat="45.69437" lon="4.72092">
        <ele>280.3</ele>
        <time>2021-09-04T19:11:08Z</time>
      </trkpt>
      <trkpt lat="45.69436" lon="4.72095">
        <ele>279.9</ele>
        <time>2021-09-04T19:11:09Z</time>
      </trkpt>
      <trkpt lat="45.69437" lon="4.721">
        <ele>279.3</ele>
        <time>2021-09-04T19:11:11Z</time>
      </trkpt>
      <trkpt lat="45.69438" lon="4.72104">
        <ele>278.7</ele>
        <time>2021-09-04T19:11:12Z</time>
      </trkpt>
      <trkpt lat="45.69439" lon="4.72109">
        <ele>278.1</ele>
        <time>2021-09-04T19:11:13Z</time>
      </trkpt>
      <trkpt lat="45.69439" lon="4.72111">
        <ele>277.9</ele>
        <time>2021-09-04T19:11:14Z</time>
      </trkpt>
      <trkpt lat="45.69439" lon="4.72117">
        <ele>277.1</ele>
        <time>2021-09-04T19:11:16Z</time>
      </trkpt>
      <trkpt lat="45.69439" lon="4.72129">
        <ele>275.8</ele>
        <time>2021-09-04T19:11:17Z</time>
      </trkpt>
      <trkpt lat="45.69439" lon="4.72138">
        <ele>274.7</ele>
        <time>2021-09-04T19:11:19Z</time>
      </trkpt>
      <trkpt lat="45.69438" lon="4.72148">
        <ele>273.5</ele>
        <time>2021-09-04T19:11:20Z</time>
      </trkpt>
      <trkpt lat="45.69438" lon="4.72165">
        <ele>271.5</ele>
        <time>2021-09-04T19:11:22Z</time>
      </trkpt>
      <trkpt lat="45.69438" lon="4.72173">
        <ele>270.5</ele>
        <time>2021-09-04T19:11:23Z</time>
      </trkpt>
      <trkpt lat="45.69439" lon="4.7219">
        <ele>268.7</ele>
        <time>2021-09-04T19:11:25Z</time>
      </trkpt>
      <trkpt lat="45.6944" lon="4.72197">
        <ele>267.9</ele>
        <time>2021-09-04T19:11:26Z</time>
      </trkpt>
      <trkpt lat="45.69443" lon="4.72215">
        <ele>266.3</ele>
        <time>2021-09-04T19:11:28Z</time>
      </trkpt>
      <trkpt lat="45.69444" lon="4.72223">
        <ele>265.6</ele>
        <time>2021-09-04T19:11:29Z</time>
      </trkpt>
      <trkpt lat="45.69446" lon="4.72241">
        <ele>264.3</ele>
        <time>2021-09-04T19:11:31Z</time>
      </trkpt>
      <trkpt lat="45.69446" lon="4.72255">
        <ele>263.2</ele>
        <time>2021-09-04T19:11:33Z</time>
      </trkpt>
      <trkpt lat="45.69446" lon="4.72258">
        <ele>262.9</ele>
        <time>2021-09-04T19:11:34Z</time>
      </trkpt>
      <trkpt lat="45.69446" lon="4.7227">
        <ele>261.9</ele>
        <time>2021-09-04T19:11:36Z</time>
      </trkpt>
      <trkpt lat="45.69447" lon="4.72274">
        <ele>261.4</ele>
        <time>2021-09-04T19:11:37Z</time>
      </trkpt>
      <trkpt lat="45.69447" lon="4.72286">
        <ele>260.2</ele>
        <time>2021-09-04T19:11:39Z</time>
      </trkpt>
      <trkpt lat="45.69448" lon="4.72293">
        <ele>259.4</ele>
        <time>2021-09-04T19:11:41Z</time>
      </trkpt>
      <trkpt lat="45.69448" lon="4.723">
        <ele>258.4</ele>
        <time>2021-09-04T19:11:42Z</time>
      </trkpt>
      <trkpt lat="45.69449" lon="4.72305">
        <ele>257.7</ele>
        <time>2021-09-04T19:11:43Z</time>
      </trkpt>
      <trkpt lat="45.69449" lon="4.7231">
        <ele>257</ele>
        <time>2021-09-04T19:11:45Z</time>
      </trkpt>
      <trkpt lat="45.69447" lon="4.72315">
        <ele>256.1</ele>
        <time>2021-09-04T19:11:46Z</time>
      </trkpt>
      <trkpt lat="45.69445" lon="4.72319">
        <ele>255.3</ele>
        <time>2021-09-04T19:11:48Z</time>
      </trkpt>
      <trkpt lat="45.69441" lon="4.72326">
        <ele>253.9</ele>
        <time>2021-09-04T19:11:50Z</time>
      </trkpt>
      <trkpt lat="45.69438" lon="4.72328">
        <ele>253.2</ele>
        <time>2021-09-04T19:11:51Z</time>
      </trkpt>
      <trkpt lat="45.69435" lon="4.72333">
        <ele>252.2</ele>
        <time>2021-09-04T19:11:53Z</time>
      </trkpt>
      <trkpt lat="45.69435" lon="4.7235">
        <ele>249.2</ele>
        <time>2021-09-04T19:11:55Z</time>
      </trkpt>
      <trkpt lat="45.69438" lon="4.72357">
        <ele>248.4</ele>
        <time>2021-09-04T19:11:56Z</time>
      </trkpt>
      <trkpt lat="45.69444" lon="4.7237">
        <ele>246.9</ele>
        <time>2021-09-04T19:11:58Z</time>
      </trkpt>
      <trkpt lat="45.69454" lon="4.72383">
        <ele>245.1</ele>
        <time>2021-09-04T19:12:00Z</time>
      </trkpt>
      <trkpt lat="45.6946" lon="4.7239">
        <ele>244</ele>
        <time>2021-09-04T19:12:01Z</time>
      </trkpt>
      <trkpt lat="45.69472" lon="4.72404">
        <ele>241.8</ele>
        <time>2021-09-04T19:12:03Z</time>
      </trkpt>
      <trkpt lat="45.69476" lon="4.7241">
        <ele>241</ele>
        <time>2021-09-04T19:12:04Z</time>
      </trkpt>
      <trkpt lat="45.69481" lon="4.72417">
        <ele>239.9</ele>
        <time>2021-09-04T19:12:06Z</time>
      </trkpt>
      <trkpt lat="45.69478" lon="4.72423">
        <ele>239.1</ele>
        <time>2021-09-04T19:12:07Z</time>
      </trkpt>
      <trkpt lat="45.69473" lon="4.72425">
        <ele>238.4</ele>
        <time>2021-09-04T19:12:08Z</time>
      </trkpt>
      <trkpt lat="45.69469" lon="4.72422">
        <ele>237.8</ele>
        <time>2021-09-04T19:12:09Z</time>
      </trkpt>
      <trkpt lat="45.69465" lon="4.72421">
        <ele>237.3</ele>
        <time>2021-09-04T19:12:10Z</time>
      </trkpt>
      <trkpt lat="45.69454" lon="4.72414">
        <ele>236</ele>
        <time>2021-09-04T19:12:12Z</time>
      </trkpt>
      <trkpt lat="45.69449" lon="4.7241">
        <ele>235.6</ele>
        <time>2021-09-04T19:12:13Z</time>
      </trkpt>
      <trkpt lat="45.69437" lon="4.72403">
        <ele>234.6</ele>
        <time>2021-09-04T19:12:15Z</time>
      </trkpt>
      <trkpt lat="45.69432" lon="4.72399">
        <ele>234.2</ele>
        <time>2021-09-04T19:12:16Z</time>
      </trkpt>
      <trkpt lat="45.69425" lon="4.72397">
        <ele>233.8</ele>
        <time>2021-09-04T19:12:17Z</time>
      </trkpt>
      <trkpt lat="45.69416" lon="4.7239">
        <ele>233.2</ele>
        <time>2021-09-04T19:12:19Z</time>
      </trkpt>
      <trkpt lat="45.69412" lon="4.72386">
        <ele>233</ele>
        <time>2021-09-04T19:12:20Z</time>
      </trkpt>
      <trkpt lat="45.69409" lon="4.72386">
        <ele>232.7</ele>
        <time>2021-09-04T19:12:21Z</time>
      </trkpt>
      <trkpt lat="45.6941" lon="4.72387">
        <ele>232.6</ele>
        <time>2021-09-04T19:12:22Z</time>
      </trkpt>
      <trkpt lat="45.69406" lon="4.72399">
        <ele>231.2</ele>
        <time>2021-09-04T19:12:24Z</time>
      </trkpt>
      <trkpt lat="45.6941" lon="4.72405">
        <ele>230.9</ele>
        <time>2021-09-04T19:12:26Z</time>
      </trkpt>
      <trkpt lat="45.6941" lon="4.72418">
        <ele>230.4</ele>
        <time>2021-09-04T19:12:27Z</time>
      </trkpt>
      <trkpt lat="45.69411" lon="4.72436">
        <ele>229.9</ele>
        <time>2021-09-04T19:12:29Z</time>
      </trkpt>
      <trkpt lat="45.69416" lon="4.72451">
        <ele>229.5</ele>
        <time>2021-09-04T19:12:31Z</time>
      </trkpt>
      <trkpt lat="45.69419" lon="4.72467">
        <ele>229.1</ele>
        <time>2021-09-04T19:12:33Z</time>
      </trkpt>
      <trkpt lat="45.69419" lon="4.72477">
        <ele>228.9</ele>
        <time>2021-09-04T19:12:34Z</time>
      </trkpt>
      <trkpt lat="45.69421" lon="4.72495">
        <ele>228.6</ele>
        <time>2021-09-04T19:12:36Z</time>
      </trkpt>
      <trkpt lat="45.69422" lon="4.72503">
        <ele>228.5</ele>
        <time>2021-09-04T19:12:37Z</time>
      </trkpt>
      <trkpt lat="45.69422" lon="4.72513">
        <ele>228.4</ele>
        <time>2021-09-04T19:12:38Z</time>
      </trkpt>
      <trkpt lat="45.69425" lon="4.7253">
        <ele>228.2</ele>
        <time>2021-09-04T19:12:40Z</time>
      </trkpt>
      <trkpt lat="45.69423" lon="4.72546">
        <ele>228</ele>
        <time>2021-09-04T19:12:42Z</time>
      </trkpt>
      <trkpt lat="45.6942" lon="4.72554">
        <ele>227.8</ele>
        <time>2021-09-04T19:12:43Z</time>
      </trkpt>
      <trkpt lat="45.69415" lon="4.72571">
        <ele>227.6</ele>
        <time>2021-09-04T19:12:45Z</time>
      </trkpt>
      <trkpt lat="45.69414" lon="4.72578">
        <ele>227.5</ele>
        <time>2021-09-04T19:12:46Z</time>
      </trkpt>
      <trkpt lat="45.69413" lon="4.72583">
        <ele>227.4</ele>
        <time>2021-09-04T19:12:47Z</time>
      </trkpt>
      <trkpt lat="45.69412" lon="4.72586">
        <ele>227.4</ele>
        <time>2021-09-04T19:12:49Z</time>
      </trkpt>
      <trkpt lat="45.69412" lon="4.72587">
        <ele>227.4</ele>
        <time>2021-09-04T19:12:50Z</time>
      </trkpt>
      <trkpt lat="45.6941" lon="4.72589">
        <ele>227.4</ele>
        <time>2021-09-04T19:12:52Z</time>
      </trkpt>
      <trkpt lat="45.6941" lon="4.72589">
        <ele>227.4</ele>
        <time>2021-09-04T19:12:53Z</time>
      </trkpt>
      <trkpt lat="45.6941" lon="4.72589">
        <ele>227.4</ele>
        <time>2021-09-04T19:12:55Z</time>
      </trkpt>
      <trkpt lat="45.69412" lon="4.72592">
        <ele>227.4</ele>
        <time>2021-09-04T19:12:56Z</time>
      </trkpt>
      <trkpt lat="45.69414" lon="4.72594">
        <ele>227.4</ele>
        <time>2021-09-04T19:12:57Z</time>
      </trkpt>
      <trkpt lat="45.69415" lon="4.72596">
        <ele>227.4</ele>
        <time>2021-09-04T19:12:59Z</time>
      </trkpt>
      <trkpt lat="45.69418" lon="4.726">
        <ele>227.5</ele>
        <time>2021-09-04T19:13:00Z</time>
      </trkpt>
      <trkpt lat="45.69418" lon="4.72602">
        <ele>227.5</ele>
        <time>2021-09-04T19:13:01Z</time>
      </trkpt>
      <trkpt lat="45.6942" lon="4.72606">
        <ele>227.6</ele>
        <time>2021-09-04T19:13:03Z</time>
      </trkpt>
      <trkpt lat="45.69419" lon="4.72611">
        <ele>227.6</ele>
        <time>2021-09-04T19:13:05Z</time>
      </trkpt>
      <trkpt lat="45.69417" lon="4.72616">
        <ele>227.6</ele>
        <time>2021-09-04T19:13:06Z</time>
      </trkpt>
      <trkpt lat="45.69413" lon="4.72618">
        <ele>227.6</ele>
        <time>2021-09-04T19:13:08Z</time>
      </trkpt>
      <trkpt lat="45.69409" lon="4.72617">
        <ele>227.5</ele>
        <time>2021-09-04T19:13:09Z</time>
      </trkpt>
      <trkpt lat="45.69404" lon="4.72618">
        <ele>227.5</ele>
        <time>2021-09-04T19:13:10Z</time>
      </trkpt>
      <trkpt lat="45.694" lon="4.72622">
        <ele>227.5</ele>
        <time>2021-09-04T19:13:12Z</time>
      </trkpt>
      <trkpt lat="45.69396" lon="4.72625">
        <ele>227.5</ele>
        <time>2021-09-04T19:13:13Z</time>
      </trkpt>
      <trkpt lat="45.69387" lon="4.72631">
        <ele>227.5</ele>
        <time>2021-09-04T19:13:15Z</time>
      </trkpt>
      <trkpt lat="45.69384" lon="4.72629">
        <ele>227.5</ele>
        <time>2021-09-04T19:13:17Z</time>
      </trkpt>
      <trkpt lat="45.69379" lon="4.72633">
        <ele>227.6</ele>
        <time>2021-09-04T19:13:18Z</time>
      </trkpt>
      <trkpt lat="45.69374" lon="4.72637">
        <ele>227.6</ele>
        <time>2021-09-04T19:13:20Z</time>
      </trkpt>
      <trkpt lat="45.69369" lon="4.72641">
        <ele>227.7</ele>
        <time>2021-09-04T19:13:21Z</time>
      </trkpt>
      <trkpt lat="45.69363" lon="4.72645">
        <ele>227.8</ele>
        <time>2021-09-04T19:13:22Z</time>
      </trkpt>
      <trkpt lat="45.69355" lon="4.72652">
        <ele>227.9</ele>
        <time>2021-09-04T19:13:24Z</time>
      </trkpt>
      <trkpt lat="45.6935" lon="4.72656">
        <ele>227.9</ele>
        <time>2021-09-04T19:13:26Z</time>
      </trkpt>
      <trkpt lat="45.69346" lon="4.72658">
        <ele>227.9</ele>
        <time>2021-09-04T19:13:27Z</time>
      </trkpt>
      <trkpt lat="45.69341" lon="4.72663">
        <ele>227.9</ele>
        <time>2021-09-04T19:13:29Z</time>
      </trkpt>
      <trkpt lat="45.69332" lon="4.72676">
        <ele>227.8</ele>
        <time>2021-09-04T19:13:30Z</time>
      </trkpt>
      <trkpt lat="45.69327" lon="4.72682">
        <ele>227.8</ele>
        <time>2021-09-04T19:13:31Z</time>
      </trkpt>
      <trkpt lat="45.69322" lon="4.72688">
        <ele>227.8</ele>
        <time>2021-09-04T19:13:32Z</time>
      </trkpt>
      <trkpt lat="45.69311" lon="4.72698">
        <ele>227.8</ele>
        <time>2021-09-04T19:13:34Z</time>
      </trkpt>
      <trkpt lat="45.69299" lon="4.72705">
        <ele>227.9</ele>
        <time>2021-09-04T19:13:36Z</time>
      </trkpt>
      <trkpt lat="45.69287" lon="4.72709">
        <ele>227.9</ele>
        <time>2021-09-04T19:13:38Z</time>
      </trkpt>
      <trkpt lat="45.69279" lon="4.72721">
        <ele>228</ele>
        <time>2021-09-04T19:13:40Z</time>
      </trkpt>
      <trkpt lat="45.69275" lon="4.72727">
        <ele>228</ele>
        <time>2021-09-04T19:13:41Z</time>
      </trkpt>
      <trkpt lat="45.69271" lon="4.72731">
        <ele>228</ele>
        <time>2021-09-04T19:13:42Z</time>
      </trkpt>
      <trkpt lat="45.69261" lon="4.7274">
        <ele>228.1</ele>
        <time>2021-09-04T19:13:44Z</time>
      </trkpt>
      <trkpt lat="45.69257" lon="4.72744">
        <ele>228.1</ele>
        <time>2021-09-04T19:13:45Z</time>
      </trkpt>
      <trkpt lat="45.69249" lon="4.72753">
        <ele>228.1</ele>
        <time>2021-09-04T19:13:47Z</time>
      </trkpt>
      <trkpt lat="45.69245" lon="4.72758">
        <ele>228.2</ele>
        <time>2021-09-04T19:13:48Z</time>
      </trkpt>
      <trkpt lat="45.69236" lon="4.72768">
        <ele>228.2</ele>
        <time>2021-09-04T19:13:50Z</time>
      </trkpt>
      <trkpt lat="45.69229" lon="4.7278">
        <ele>228.2</ele>
        <time>2021-09-04T19:13:52Z</time>
      </trkpt>
      <trkpt lat="45.69225" lon="4.72787">
        <ele>228.2</ele>
        <time>2021-09-04T19:13:53Z</time>
      </trkpt>
      <trkpt lat="45.69219" lon="4.72799">
        <ele>228.2</ele>
        <time>2021-09-04T19:13:55Z</time>
      </trkpt>
      <trkpt lat="45.69213" lon="4.7281">
        <ele>228.2</ele>
        <time>2021-09-04T19:13:57Z</time>
      </trkpt>
      <trkpt lat="45.69204" lon="4.72821">
        <ele>228</ele>
        <time>2021-09-04T19:13:59Z</time>
      </trkpt>
      <trkpt lat="45.69197" lon="4.72837">
        <ele>228</ele>
        <time>2021-09-04T19:14:01Z</time>
      </trkpt>
      <trkpt lat="45.69194" lon="4.72844">
        <ele>228</ele>
        <time>2021-09-04T19:14:02Z</time>
      </trkpt>
      <trkpt lat="45.69191" lon="4.72849">
        <ele>227.9</ele>
        <time>2021-09-04T19:14:03Z</time>
      </trkpt>
      <trkpt lat="45.69184" lon="4.72858">
        <ele>227.9</ele>
        <time>2021-09-04T19:14:05Z</time>
      </trkpt>
      <trkpt lat="45.69179" lon="4.72863">
        <ele>227.9</ele>
        <time>2021-09-04T19:14:06Z</time>
      </trkpt>
      <trkpt lat="45.69175" lon="4.72868">
        <ele>227.9</ele>
        <time>2021-09-04T19:14:07Z</time>
      </trkpt>
      <trkpt lat="45.69167" lon="4.72881">
        <ele>227.9</ele>
        <time>2021-09-04T19:14:09Z</time>
      </trkpt>
      <trkpt lat="45.69159" lon="4.72894">
        <ele>228</ele>
        <time>2021-09-04T19:14:11Z</time>
      </trkpt>
      <trkpt lat="45.69155" lon="4.7291">
        <ele>228.1</ele>
        <time>2021-09-04T19:14:13Z</time>
      </trkpt>
      <trkpt lat="45.69153" lon="4.72918">
        <ele>228.2</ele>
        <time>2021-09-04T19:14:14Z</time>
      </trkpt>
      <trkpt lat="45.69149" lon="4.72934">
        <ele>228.5</ele>
        <time>2021-09-04T19:14:16Z</time>
      </trkpt>
      <trkpt lat="45.69148" lon="4.72949">
        <ele>228.7</ele>
        <time>2021-09-04T19:14:18Z</time>
      </trkpt>
      <trkpt lat="45.69147" lon="4.72957">
        <ele>228.8</ele>
        <time>2021-09-04T19:14:19Z</time>
      </trkpt>
      <trkpt lat="45.69146" lon="4.72972">
        <ele>228.9</ele>
        <time>2021-09-04T19:14:21Z</time>
      </trkpt>
      <trkpt lat="45.69144" lon="4.72989">
        <ele>228.8</ele>
        <time>2021-09-04T19:14:23Z</time>
      </trkpt>
      <trkpt lat="45.69142" lon="4.72997">
        <ele>228.8</ele>
        <time>2021-09-04T19:14:24Z</time>
      </trkpt>
      <trkpt lat="45.69137" lon="4.73011">
        <ele>228.6</ele>
        <time>2021-09-04T19:14:26Z</time>
      </trkpt>
      <trkpt lat="45.69135" lon="4.73017">
        <ele>228.5</ele>
        <time>2021-09-04T19:14:27Z</time>
      </trkpt>
      <trkpt lat="45.69132" lon="4.73024">
        <ele>228.4</ele>
        <time>2021-09-04T19:14:28Z</time>
      </trkpt>
      <trkpt lat="45.69127" lon="4.73039">
        <ele>228.1</ele>
        <time>2021-09-04T19:14:30Z</time>
      </trkpt>
      <trkpt lat="45.69123" lon="4.73046">
        <ele>227.9</ele>
        <time>2021-09-04T19:14:31Z</time>
      </trkpt>
      <trkpt lat="45.69121" lon="4.73054">
        <ele>227.7</ele>
        <time>2021-09-04T19:14:32Z</time>
      </trkpt>
      <trkpt lat="45.69119" lon="4.73072">
        <ele>227.6</ele>
        <time>2021-09-04T19:14:34Z</time>
      </trkpt>
      <trkpt lat="45.69121" lon="4.73081">
        <ele>227.6</ele>
        <time>2021-09-04T19:14:35Z</time>
      </trkpt>
      <trkpt lat="45.69123" lon="4.73088">
        <ele>227.7</ele>
        <time>2021-09-04T19:14:36Z</time>
      </trkpt>
      <trkpt lat="45.69129" lon="4.73102">
        <ele>227.9</ele>
        <time>2021-09-04T19:14:38Z</time>
      </trkpt>
      <trkpt lat="45.69137" lon="4.73112">
        <ele>228.1</ele>
        <time>2021-09-04T19:14:40Z</time>
      </trkpt>
      <trkpt lat="45.69141" lon="4.73117">
        <ele>228.2</ele>
        <time>2021-09-04T19:14:41Z</time>
      </trkpt>
      <trkpt lat="45.69149" lon="4.73127">
        <ele>228.6</ele>
        <time>2021-09-04T19:14:43Z</time>
      </trkpt>
      <trkpt lat="45.69154" lon="4.73131">
        <ele>228.8</ele>
        <time>2021-09-04T19:14:44Z</time>
      </trkpt>
      <trkpt lat="45.69164" lon="4.7314">
        <ele>229.3</ele>
        <time>2021-09-04T19:14:46Z</time>
      </trkpt>
      <trkpt lat="45.69168" lon="4.73144">
        <ele>229.5</ele>
        <time>2021-09-04T19:14:47Z</time>
      </trkpt>
      <trkpt lat="45.69171" lon="4.73146">
        <ele>229.6</ele>
        <time>2021-09-04T19:14:48Z</time>
      </trkpt>
      <trkpt lat="45.69179" lon="4.73152">
        <ele>230.1</ele>
        <time>2021-09-04T19:14:50Z</time>
      </trkpt>
      <trkpt lat="45.69186" lon="4.73155">
        <ele>230.4</ele>
        <time>2021-09-04T19:14:52Z</time>
      </trkpt>
      <trkpt lat="45.69194" lon="4.73158">
        <ele>230.8</ele>
        <time>2021-09-04T19:14:54Z</time>
      </trkpt>
      <trkpt lat="45.69196" lon="4.7316">
        <ele>230.7</ele>
        <time>2021-09-04T19:14:55Z</time>
      </trkpt>
      <trkpt lat="45.69202" lon="4.73165">
        <ele>230.5</ele>
        <time>2021-09-04T19:14:57Z</time>
      </trkpt>
      <trkpt lat="45.69204" lon="4.73166">
        <ele>230.5</ele>
        <time>2021-09-04T19:14:58Z</time>
      </trkpt>
      <trkpt lat="45.69209" lon="4.73173">
        <ele>230.3</ele>
        <time>2021-09-04T19:15:00Z</time>
      </trkpt>
      <trkpt lat="45.69211" lon="4.73185">
        <ele>230</ele>
        <time>2021-09-04T19:15:01Z</time>
      </trkpt>
      <trkpt lat="45.69212" lon="4.73191">
        <ele>229.9</ele>
        <time>2021-09-04T19:15:02Z</time>
      </trkpt>
      <trkpt lat="45.69214" lon="4.732">
        <ele>229.7</ele>
        <time>2021-09-04T19:15:04Z</time>
      </trkpt>
      <trkpt lat="45.69219" lon="4.7321">
        <ele>229.4</ele>
        <time>2021-09-04T19:15:05Z</time>
      </trkpt>
      <trkpt lat="45.69223" lon="4.73225">
        <ele>228.9</ele>
        <time>2021-09-04T19:15:07Z</time>
      </trkpt>
      <trkpt lat="45.69225" lon="4.73233">
        <ele>228.6</ele>
        <time>2021-09-04T19:15:08Z</time>
      </trkpt>
      <trkpt lat="45.69229" lon="4.73249">
        <ele>227.9</ele>
        <time>2021-09-04T19:15:10Z</time>
      </trkpt>
      <trkpt lat="45.69233" lon="4.73264">
        <ele>227.2</ele>
        <time>2021-09-04T19:15:12Z</time>
      </trkpt>
      <trkpt lat="45.69231" lon="4.73274">
        <ele>226.8</ele>
        <time>2021-09-04T19:15:13Z</time>
      </trkpt>
      <trkpt lat="45.69229" lon="4.73284">
        <ele>226.4</ele>
        <time>2021-09-04T19:15:14Z</time>
      </trkpt>
      <trkpt lat="45.69222" lon="4.73302">
        <ele>225.7</ele>
        <time>2021-09-04T19:15:16Z</time>
      </trkpt>
      <trkpt lat="45.69218" lon="4.73311">
        <ele>225.4</ele>
        <time>2021-09-04T19:15:17Z</time>
      </trkpt>
      <trkpt lat="45.69209" lon="4.73329">
        <ele>224.9</ele>
        <time>2021-09-04T19:15:19Z</time>
      </trkpt>
      <trkpt lat="45.69207" lon="4.73339">
        <ele>224.7</ele>
        <time>2021-09-04T19:15:20Z</time>
      </trkpt>
      <trkpt lat="45.69202" lon="4.73357">
        <ele>224.5</ele>
        <time>2021-09-04T19:15:22Z</time>
      </trkpt>
      <trkpt lat="45.692" lon="4.73367">
        <ele>224.5</ele>
        <time>2021-09-04T19:15:23Z</time>
      </trkpt>
      <trkpt lat="45.69196" lon="4.73385">
        <ele>224.5</ele>
        <time>2021-09-04T19:15:25Z</time>
      </trkpt>
      <trkpt lat="45.69193" lon="4.73405">
        <ele>224.6</ele>
        <time>2021-09-04T19:15:27Z</time>
      </trkpt>
      <trkpt lat="45.69191" lon="4.73416">
        <ele>224.7</ele>
        <time>2021-09-04T19:15:28Z</time>
      </trkpt>
      <trkpt lat="45.69187" lon="4.73434">
        <ele>224.9</ele>
        <time>2021-09-04T19:15:30Z</time>
      </trkpt>
      <trkpt lat="45.69183" lon="4.73448">
        <ele>225.1</ele>
        <time>2021-09-04T19:15:32Z</time>
      </trkpt>
      <trkpt lat="45.6918" lon="4.73454">
        <ele>225.2</ele>
        <time>2021-09-04T19:15:33Z</time>
      </trkpt>
      <trkpt lat="45.69177" lon="4.73458">
        <ele>225.3</ele>
        <time>2021-09-04T19:15:34Z</time>
      </trkpt>
      <trkpt lat="45.6917" lon="4.73463">
        <ele>225.4</ele>
        <time>2021-09-04T19:15:36Z</time>
      </trkpt>
      <trkpt lat="45.69166" lon="4.73468">
        <ele>225.4</ele>
        <time>2021-09-04T19:15:37Z</time>
      </trkpt>
      <trkpt lat="45.69163" lon="4.73473">
        <ele>225.4</ele>
        <time>2021-09-04T19:15:38Z</time>
      </trkpt>
      <trkpt lat="45.6916" lon="4.73478">
        <ele>225.5</ele>
        <time>2021-09-04T19:15:39Z</time>
      </trkpt>
      <trkpt lat="45.69152" lon="4.73487">
        <ele>225.6</ele>
        <time>2021-09-04T19:15:41Z</time>
      </trkpt>
      <trkpt lat="45.69148" lon="4.73492">
        <ele>225.6</ele>
        <time>2021-09-04T19:15:42Z</time>
      </trkpt>
      <trkpt lat="45.69144" lon="4.73496">
        <ele>225.6</ele>
        <time>2021-09-04T19:15:43Z</time>
      </trkpt>
      <trkpt lat="45.69138" lon="4.73507">
        <ele>225.7</ele>
        <time>2021-09-04T19:15:45Z</time>
      </trkpt>
      <trkpt lat="45.69133" lon="4.73521">
        <ele>225.8</ele>
        <time>2021-09-04T19:15:47Z</time>
      </trkpt>
      <trkpt lat="45.6913" lon="4.73527">
        <ele>225.9</ele>
        <time>2021-09-04T19:15:48Z</time>
      </trkpt>
      <trkpt lat="45.69124" lon="4.73539">
        <ele>226</ele>
        <time>2021-09-04T19:15:50Z</time>
      </trkpt>
      <trkpt lat="45.69121" lon="4.73545">
        <ele>226</ele>
        <time>2021-09-04T19:15:51Z</time>
      </trkpt>
      <trkpt lat="45.69115" lon="4.73555">
        <ele>226.1</ele>
        <time>2021-09-04T19:15:53Z</time>
      </trkpt>
      <trkpt lat="45.69113" lon="4.7356">
        <ele>226.1</ele>
        <time>2021-09-04T19:15:54Z</time>
      </trkpt>
      <trkpt lat="45.69111" lon="4.73567">
        <ele>226</ele>
        <time>2021-09-04T19:15:55Z</time>
      </trkpt>
      <trkpt lat="45.69107" lon="4.73579">
        <ele>225.8</ele>
        <time>2021-09-04T19:15:57Z</time>
      </trkpt>
      <trkpt lat="45.69107" lon="4.73594">
        <ele>225.6</ele>
        <time>2021-09-04T19:15:59Z</time>
      </trkpt>
      <trkpt lat="45.69107" lon="4.73601">
        <ele>225.5</ele>
        <time>2021-09-04T19:16:00Z</time>
      </trkpt>
      <trkpt lat="45.69106" lon="4.73617">
        <ele>225.2</ele>
        <time>2021-09-04T19:16:02Z</time>
      </trkpt>
      <trkpt lat="45.69105" lon="4.73624">
        <ele>225</ele>
        <time>2021-09-04T19:16:03Z</time>
      </trkpt>
      <trkpt lat="45.691" lon="4.73639">
        <ele>224.7</ele>
        <time>2021-09-04T19:16:05Z</time>
      </trkpt>
      <trkpt lat="45.69097" lon="4.73646">
        <ele>224.5</ele>
        <time>2021-09-04T19:16:06Z</time>
      </trkpt>
      <trkpt lat="45.69088" lon="4.73659">
        <ele>224.4</ele>
        <time>2021-09-04T19:16:08Z</time>
      </trkpt>
      <trkpt lat="45.69083" lon="4.73665">
        <ele>224.4</ele>
        <time>2021-09-04T19:16:09Z</time>
      </trkpt>
      <trkpt lat="45.69079" lon="4.73672">
        <ele>224.3</ele>
        <time>2021-09-04T19:16:10Z</time>
      </trkpt>
      <trkpt lat="45.69075" lon="4.73678">
        <ele>224.3</ele>
        <time>2021-09-04T19:16:11Z</time>
      </trkpt>
      <trkpt lat="45.69072" lon="4.73685">
        <ele>224.3</ele>
        <time>2021-09-04T19:16:12Z</time>
      </trkpt>
      <trkpt lat="45.69065" lon="4.73699">
        <ele>224.3</ele>
        <time>2021-09-04T19:16:14Z</time>
      </trkpt>
      <trkpt lat="45.6906" lon="4.73713">
        <ele>224.4</ele>
        <time>2021-09-04T19:16:16Z</time>
      </trkpt>
      <trkpt lat="45.69057" lon="4.7373">
        <ele>224.5</ele>
        <time>2021-09-04T19:16:18Z</time>
      </trkpt>
      <trkpt lat="45.69057" lon="4.73739">
        <ele>224.5</ele>
        <time>2021-09-04T19:16:19Z</time>
      </trkpt>
      <trkpt lat="45.69057" lon="4.73757">
        <ele>224.6</ele>
        <time>2021-09-04T19:16:21Z</time>
      </trkpt>
      <trkpt lat="45.69058" lon="4.73765">
        <ele>224.7</ele>
        <time>2021-09-04T19:16:22Z</time>
      </trkpt>
      <trkpt lat="45.69057" lon="4.73782">
        <ele>224.9</ele>
        <time>2021-09-04T19:16:24Z</time>
      </trkpt>
      <trkpt lat="45.69057" lon="4.7379">
        <ele>225</ele>
        <time>2021-09-04T19:16:25Z</time>
      </trkpt>
      <trkpt lat="45.69058" lon="4.73797">
        <ele>225.1</ele>
        <time>2021-09-04T19:16:26Z</time>
      </trkpt>
      <trkpt lat="45.6906" lon="4.73813">
        <ele>225.3</ele>
        <time>2021-09-04T19:16:28Z</time>
      </trkpt>
      <trkpt lat="45.69061" lon="4.73824">
        <ele>225.5</ele>
        <time>2021-09-04T19:16:30Z</time>
      </trkpt>
      <trkpt lat="45.6906" lon="4.73831">
        <ele>225.5</ele>
        <time>2021-09-04T19:16:31Z</time>
      </trkpt>
      <trkpt lat="45.69059" lon="4.73838">
        <ele>225.5</ele>
        <time>2021-09-04T19:16:32Z</time>
      </trkpt>
      <trkpt lat="45.69056" lon="4.7385">
        <ele>225.4</ele>
        <time>2021-09-04T19:16:34Z</time>
      </trkpt>
      <trkpt lat="45.69051" lon="4.73864">
        <ele>225.2</ele>
        <time>2021-09-04T19:16:36Z</time>
      </trkpt>
      <trkpt lat="45.69049" lon="4.73872">
        <ele>225</ele>
        <time>2021-09-04T19:16:37Z</time>
      </trkpt>
      <trkpt lat="45.69047" lon="4.73887">
        <ele>224.7</ele>
        <time>2021-09-04T19:16:39Z</time>
      </trkpt>
      <trkpt lat="45.69044" lon="4.73903">
        <ele>224.4</ele>
        <time>2021-09-04T19:16:41Z</time>
      </trkpt>
      <trkpt lat="45.69042" lon="4.73911">
        <ele>224.3</ele>
        <time>2021-09-04T19:16:42Z</time>
      </trkpt>
      <trkpt lat="45.69036" lon="4.73926">
        <ele>224</ele>
        <time>2021-09-04T19:16:44Z</time>
      </trkpt>
      <trkpt lat="45.69034" lon="4.73933">
        <ele>223.9</ele>
        <time>2021-09-04T19:16:45Z</time>
      </trkpt>
      <trkpt lat="45.69029" lon="4.73945">
        <ele>223.8</ele>
        <time>2021-09-04T19:16:47Z</time>
      </trkpt>
      <trkpt lat="45.69027" lon="4.73952">
        <ele>223.8</ele>
        <time>2021-09-04T19:16:48Z</time>
      </trkpt>
      <trkpt lat="45.6902" lon="4.73963">
        <ele>223.6</ele>
        <time>2021-09-04T19:16:50Z</time>
      </trkpt>
      <trkpt lat="45.69017" lon="4.73969">
        <ele>223.5</ele>
        <time>2021-09-04T19:16:51Z</time>
      </trkpt>
      <trkpt lat="45.6901" lon="4.73981">
        <ele>223.3</ele>
        <time>2021-09-04T19:16:53Z</time>
      </trkpt>
      <trkpt lat="45.69003" lon="4.73993">
        <ele>223.2</ele>
        <time>2021-09-04T19:16:55Z</time>
      </trkpt>
      <trkpt lat="45.68999" lon="4.74007">
        <ele>223.1</ele>
        <time>2021-09-04T19:16:57Z</time>
      </trkpt>
      <trkpt lat="45.68997" lon="4.74014">
        <ele>223</ele>
        <time>2021-09-04T19:16:58Z</time>
      </trkpt>
      <trkpt lat="45.68995" lon="4.74021">
        <ele>223</ele>
        <time>2021-09-04T19:16:59Z</time>
      </trkpt>
      <trkpt lat="45.68989" lon="4.74033">
        <ele>222.9</ele>
        <time>2021-09-04T19:17:01Z</time>
      </trkpt>
      <trkpt lat="45.68985" lon="4.74038">
        <ele>222.9</ele>
        <time>2021-09-04T19:17:02Z</time>
      </trkpt>
      <trkpt lat="45.68978" lon="4.74052">
        <ele>222.8</ele>
        <time>2021-09-04T19:17:04Z</time>
      </trkpt>
      <trkpt lat="45.68971" lon="4.74065">
        <ele>222.7</ele>
        <time>2021-09-04T19:17:06Z</time>
      </trkpt>
      <trkpt lat="45.68967" lon="4.74071">
        <ele>222.7</ele>
        <time>2021-09-04T19:17:07Z</time>
      </trkpt>
      <trkpt lat="45.68959" lon="4.74084">
        <ele>222.5</ele>
        <time>2021-09-04T19:17:09Z</time>
      </trkpt>
      <trkpt lat="45.68952" lon="4.74098">
        <ele>222.2</ele>
        <time>2021-09-04T19:17:11Z</time>
      </trkpt>
      <trkpt lat="45.68944" lon="4.74112">
        <ele>222.2</ele>
        <time>2021-09-04T19:17:13Z</time>
      </trkpt>
      <trkpt lat="45.68935" lon="4.74123">
        <ele>222.2</ele>
        <time>2021-09-04T19:17:15Z</time>
      </trkpt>
      <trkpt lat="45.68932" lon="4.74129">
        <ele>222.2</ele>
        <time>2021-09-04T19:17:16Z</time>
      </trkpt>
      <trkpt lat="45.68928" lon="4.74136">
        <ele>222.2</ele>
        <time>2021-09-04T19:17:17Z</time>
      </trkpt>
      <trkpt lat="45.68921" lon="4.7415">
        <ele>222.1</ele>
        <time>2021-09-04T19:17:19Z</time>
      </trkpt>
      <trkpt lat="45.68918" lon="4.74157">
        <ele>222.1</ele>
        <time>2021-09-04T19:17:20Z</time>
      </trkpt>
      <trkpt lat="45.68915" lon="4.74164">
        <ele>222.1</ele>
        <time>2021-09-04T19:17:21Z</time>
      </trkpt>
      <trkpt lat="45.6891" lon="4.74179">
        <ele>222</ele>
        <time>2021-09-04T19:17:23Z</time>
      </trkpt>
      <trkpt lat="45.68908" lon="4.74188">
        <ele>221.9</ele>
        <time>2021-09-04T19:17:24Z</time>
      </trkpt>
      <trkpt lat="45.68905" lon="4.74196">
        <ele>221.9</ele>
        <time>2021-09-04T19:17:25Z</time>
      </trkpt>
      <trkpt lat="45.68901" lon="4.74211">
        <ele>221.8</ele>
        <time>2021-09-04T19:17:27Z</time>
      </trkpt>
      <trkpt lat="45.68899" lon="4.74219">
        <ele>221.8</ele>
        <time>2021-09-04T19:17:28Z</time>
      </trkpt>
      <trkpt lat="45.68894" lon="4.74235">
        <ele>221.8</ele>
        <time>2021-09-04T19:17:30Z</time>
      </trkpt>
      <trkpt lat="45.68891" lon="4.74248">
        <ele>221.8</ele>
        <time>2021-09-04T19:17:32Z</time>
      </trkpt>
      <trkpt lat="45.68889" lon="4.74256">
        <ele>221.8</ele>
        <time>2021-09-04T19:17:33Z</time>
      </trkpt>
      <trkpt lat="45.68886" lon="4.74273">
        <ele>221.9</ele>
        <time>2021-09-04T19:17:35Z</time>
      </trkpt>
      <trkpt lat="45.68882" lon="4.74288">
        <ele>221.9</ele>
        <time>2021-09-04T19:17:37Z</time>
      </trkpt>
      <trkpt lat="45.6888" lon="4.74297">
        <ele>221.9</ele>
        <time>2021-09-04T19:17:38Z</time>
      </trkpt>
      <trkpt lat="45.68875" lon="4.74312">
        <ele>221.7</ele>
        <time>2021-09-04T19:17:40Z</time>
      </trkpt>
      <trkpt lat="45.68869" lon="4.74327">
        <ele>221.4</ele>
        <time>2021-09-04T19:17:42Z</time>
      </trkpt>
      <trkpt lat="45.68867" lon="4.74337">
        <ele>221.2</ele>
        <time>2021-09-04T19:17:43Z</time>
      </trkpt>
      <trkpt lat="45.68863" lon="4.74345">
        <ele>221.1</ele>
        <time>2021-09-04T19:17:44Z</time>
      </trkpt>
      <trkpt lat="45.68853" lon="4.74358">
        <ele>221</ele>
        <time>2021-09-04T19:17:46Z</time>
      </trkpt>
      <trkpt lat="45.68849" lon="4.74365">
        <ele>220.9</ele>
        <time>2021-09-04T19:17:47Z</time>
      </trkpt>
      <trkpt lat="45.68841" lon="4.74378">
        <ele>220.8</ele>
        <time>2021-09-04T19:17:49Z</time>
      </trkpt>
      <trkpt lat="45.68833" lon="4.7439">
        <ele>220.7</ele>
        <time>2021-09-04T19:17:51Z</time>
      </trkpt>
      <trkpt lat="45.68829" lon="4.74399">
        <ele>220.7</ele>
        <time>2021-09-04T19:17:52Z</time>
      </trkpt>
      <trkpt lat="45.68826" lon="4.74406">
        <ele>220.6</ele>
        <time>2021-09-04T19:17:53Z</time>
      </trkpt>
      <trkpt lat="45.6882" lon="4.7442">
        <ele>220.5</ele>
        <time>2021-09-04T19:17:55Z</time>
      </trkpt>
      <trkpt lat="45.68818" lon="4.74437">
        <ele>220.5</ele>
        <time>2021-09-04T19:17:57Z</time>
      </trkpt>
      <trkpt lat="45.68816" lon="4.74445">
        <ele>220.5</ele>
        <time>2021-09-04T19:17:58Z</time>
      </trkpt>
      <trkpt lat="45.68815" lon="4.74462">
        <ele>220.6</ele>
        <time>2021-09-04T19:18:00Z</time>
      </trkpt>
      <trkpt lat="45.68815" lon="4.7447">
        <ele>220.6</ele>
        <time>2021-09-04T19:18:01Z</time>
      </trkpt>
      <trkpt lat="45.68815" lon="4.74478">
        <ele>220.6</ele>
        <time>2021-09-04T19:18:02Z</time>
      </trkpt>
      <trkpt lat="45.68815" lon="4.74494">
        <ele>220.7</ele>
        <time>2021-09-04T19:18:04Z</time>
      </trkpt>
      <trkpt lat="45.68815" lon="4.74502">
        <ele>220.8</ele>
        <time>2021-09-04T19:18:05Z</time>
      </trkpt>
      <trkpt lat="45.68816" lon="4.74518">
        <ele>221</ele>
        <time>2021-09-04T19:18:07Z</time>
      </trkpt>
      <trkpt lat="45.68817" lon="4.74525">
        <ele>221.1</ele>
        <time>2021-09-04T19:18:08Z</time>
      </trkpt>
      <trkpt lat="45.6882" lon="4.74539">
        <ele>221.4</ele>
        <time>2021-09-04T19:18:10Z</time>
      </trkpt>
      <trkpt lat="45.68818" lon="4.74547">
        <ele>221.5</ele>
        <time>2021-09-04T19:18:11Z</time>
      </trkpt>
      <trkpt lat="45.68817" lon="4.74554">
        <ele>221.7</ele>
        <time>2021-09-04T19:18:12Z</time>
      </trkpt>
      <trkpt lat="45.68813" lon="4.74566">
        <ele>222.1</ele>
        <time>2021-09-04T19:18:14Z</time>
      </trkpt>
      <trkpt lat="45.68812" lon="4.7457">
        <ele>222.2</ele>
        <time>2021-09-04T19:18:15Z</time>
      </trkpt>
      <trkpt lat="45.68811" lon="4.74575">
        <ele>222.4</ele>
        <time>2021-09-04T19:18:16Z</time>
      </trkpt>
      <trkpt lat="45.68808" lon="4.74586">
        <ele>222.8</ele>
        <time>2021-09-04T19:18:18Z</time>
      </trkpt>
      <trkpt lat="45.68806" lon="4.74592">
        <ele>223</ele>
        <time>2021-09-04T19:18:19Z</time>
      </trkpt>
      <trkpt lat="45.68803" lon="4.74601">
        <ele>223.3</ele>
        <time>2021-09-04T19:18:21Z</time>
      </trkpt>
      <trkpt lat="45.68799" lon="4.74609">
        <ele>223.5</ele>
        <time>2021-09-04T19:18:23Z</time>
      </trkpt>
      <trkpt lat="45.68798" lon="4.74614">
        <ele>223.6</ele>
        <time>2021-09-04T19:18:24Z</time>
      </trkpt>
      <trkpt lat="45.68796" lon="4.74618">
        <ele>223.6</ele>
        <time>2021-09-04T19:18:25Z</time>
      </trkpt>
      <trkpt lat="45.68792" lon="4.74626">
        <ele>223.6</ele>
        <time>2021-09-04T19:18:27Z</time>
      </trkpt>
      <trkpt lat="45.68789" lon="4.74631">
        <ele>223.6</ele>
        <time>2021-09-04T19:18:28Z</time>
      </trkpt>
      <trkpt lat="45.68783" lon="4.74637">
        <ele>223.4</ele>
        <time>2021-09-04T19:18:30Z</time>
      </trkpt>
      <trkpt lat="45.6878" lon="4.74639">
        <ele>223.3</ele>
        <time>2021-09-04T19:18:31Z</time>
      </trkpt>
      <trkpt lat="45.68774" lon="4.74643">
        <ele>223.2</ele>
        <time>2021-09-04T19:18:33Z</time>
      </trkpt>
      <trkpt lat="45.68778" lon="4.74653">
        <ele>225.1</ele>
        <time>2021-09-04T19:18:35Z</time>
      </trkpt>
      <trkpt lat="45.68782" lon="4.74653">
        <ele>225.9</ele>
        <time>2021-09-04T19:18:37Z</time>
      </trkpt>
      <trkpt lat="45.68787" lon="4.74654">
        <ele>227</ele>
        <time>2021-09-04T19:18:38Z</time>
      </trkpt>
      <trkpt lat="45.6879" lon="4.74654">
        <ele>227.8</ele>
        <time>2021-09-04T19:18:39Z</time>
      </trkpt>
      <trkpt lat="45.68795" lon="4.74655">
        <ele>228.8</ele>
        <time>2021-09-04T19:18:41Z</time>
      </trkpt>
      <trkpt lat="45.68798" lon="4.74657">
        <ele>229.4</ele>
        <time>2021-09-04T19:18:43Z</time>
      </trkpt>
      <trkpt lat="45.68798" lon="4.74659">
        <ele>229.7</ele>
        <time>2021-09-04T19:18:44Z</time>
      </trkpt>
      <trkpt lat="45.68799" lon="4.74661">
        <ele>230</ele>
        <time>2021-09-04T19:18:45Z</time>
      </trkpt>
      <trkpt lat="45.688" lon="4.74661">
        <ele>230.1</ele>
        <time>2021-09-04T19:18:46Z</time>
      </trkpt>
      <trkpt lat="45.68801" lon="4.74662">
        <ele>230.3</ele>
        <time>2021-09-04T19:18:48Z</time>
      </trkpt>
      <trkpt lat="45.68802" lon="4.74661">
        <ele>230.5</ele>
        <time>2021-09-04T19:18:49Z</time>
      </trkpt>
      <trkpt lat="45.68804" lon="4.74663">
        <ele>230.9</ele>
        <time>2021-09-04T19:18:50Z</time>
      </trkpt>
      <trkpt lat="45.68804" lon="4.74665">
        <ele>231.1</ele>
        <time>2021-09-04T19:18:51Z</time>
      </trkpt>
      <trkpt lat="45.68804" lon="4.74666">
        <ele>231.3</ele>
        <time>2021-09-04T19:18:52Z</time>
      </trkpt>
      <trkpt lat="45.68804" lon="4.74669">
        <ele>231.6</ele>
        <time>2021-09-04T19:18:53Z</time>
      </trkpt>
      <trkpt lat="45.68805" lon="4.74669">
        <ele>231.7</ele>
        <time>2021-09-04T19:18:54Z</time>
      </trkpt>
      <trkpt lat="45.68806" lon="4.74669">
        <ele>231.9</ele>
        <time>2021-09-04T19:18:55Z</time>
      </trkpt>
      <trkpt lat="45.68807" lon="4.74669">
        <ele>232.1</ele>
        <time>2021-09-04T19:18:56Z</time>
      </trkpt>
      <trkpt lat="45.68807" lon="4.74668">
        <ele>232.2</ele>
        <time>2021-09-04T19:18:58Z</time>
      </trkpt>
      <trkpt lat="45.68808" lon="4.74667">
        <ele>232.5</ele>
        <time>2021-09-04T19:18:59Z</time>
      </trkpt>
      <trkpt lat="45.6881" lon="4.74666">
        <ele>232.8</ele>
        <time>2021-09-04T19:19:00Z</time>
      </trkpt>
      <trkpt lat="45.68812" lon="4.74665">
        <ele>233.3</ele>
        <time>2021-09-04T19:19:02Z</time>
      </trkpt>
      <trkpt lat="45.68813" lon="4.74665">
        <ele>233.5</ele>
        <time>2021-09-04T19:19:03Z</time>
      </trkpt>
      <trkpt lat="45.68814" lon="4.74664">
        <ele>233.7</ele>
        <time>2021-09-04T19:19:04Z</time>
      </trkpt>
      <trkpt lat="45.68813" lon="4.74663">
        <ele>234.1</ele>
        <time>2021-09-04T19:19:06Z</time>
      </trkpt>
      <trkpt lat="45.68815" lon="4.74662">
        <ele>234.4</ele>
        <time>2021-09-04T19:19:08Z</time>
      </trkpt>
      <trkpt lat="45.68816" lon="4.74662">
        <ele>234.6</ele>
        <time>2021-09-04T19:19:10Z</time>
      </trkpt>
      <trkpt lat="45.68817" lon="4.74663">
        <ele>234.9</ele>
        <time>2021-09-04T19:19:11Z</time>
      </trkpt>
      <trkpt lat="45.68819" lon="4.74664">
        <ele>235.3</ele>
        <time>2021-09-04T19:19:13Z</time>
      </trkpt>
      <trkpt lat="45.6882" lon="4.74664">
        <ele>235.5</ele>
        <time>2021-09-04T19:19:14Z</time>
      </trkpt>
      <trkpt lat="45.68822" lon="4.74663">
        <ele>235.9</ele>
        <time>2021-09-04T19:19:15Z</time>
      </trkpt>
      <trkpt lat="45.68825" lon="4.74662">
        <ele>236.4</ele>
        <time>2021-09-04T19:19:17Z</time>
      </trkpt>
      <trkpt lat="45.68826" lon="4.74662">
        <ele>236.7</ele>
        <time>2021-09-04T19:19:18Z</time>
      </trkpt>
      <trkpt lat="45.68827" lon="4.74661">
        <ele>236.9</ele>
        <time>2021-09-04T19:19:19Z</time>
      </trkpt>
      <trkpt lat="45.68829" lon="4.74661">
        <ele>237.3</ele>
        <time>2021-09-04T19:19:21Z</time>
      </trkpt>
      <trkpt lat="45.6883" lon="4.74662">
        <ele>237.6</ele>
        <time>2021-09-04T19:19:22Z</time>
      </trkpt>
      <trkpt lat="45.68831" lon="4.74662">
        <ele>237.8</ele>
        <time>2021-09-04T19:19:23Z</time>
      </trkpt>
      <trkpt lat="45.68833" lon="4.74661">
        <ele>238.2</ele>
        <time>2021-09-04T19:19:25Z</time>
      </trkpt>
      <trkpt lat="45.68834" lon="4.74662">
        <ele>238.5</ele>
        <time>2021-09-04T19:19:26Z</time>
      </trkpt>
      <trkpt lat="45.68836" lon="4.74662">
        <ele>238.9</ele>
        <time>2021-09-04T19:19:27Z</time>
      </trkpt>
      <trkpt lat="45.68837" lon="4.74662">
        <ele>239.1</ele>
        <time>2021-09-04T19:19:29Z</time>
      </trkpt>
      <trkpt lat="45.68839" lon="4.74662">
        <ele>239.5</ele>
        <time>2021-09-04T19:19:30Z</time>
      </trkpt>
      <trkpt lat="45.68841" lon="4.7466">
        <ele>239.8</ele>
        <time>2021-09-04T19:19:31Z</time>
      </trkpt>
      <trkpt lat="45.68842" lon="4.7466">
        <ele>240.1</ele>
        <time>2021-09-04T19:19:32Z</time>
      </trkpt>
      <trkpt lat="45.68845" lon="4.7466">
        <ele>240.7</ele>
        <time>2021-09-04T19:19:34Z</time>
      </trkpt>
      <trkpt lat="45.68848" lon="4.74659">
        <ele>241.4</ele>
        <time>2021-09-04T19:19:35Z</time>
      </trkpt>
      <trkpt lat="45.6885" lon="4.74658">
        <ele>241.7</ele>
        <time>2021-09-04T19:19:36Z</time>
      </trkpt>
      <trkpt lat="45.68852" lon="4.74657">
        <ele>242.1</ele>
        <time>2021-09-04T19:19:38Z</time>
      </trkpt>
      <trkpt lat="45.68854" lon="4.74654">
        <ele>242.7</ele>
        <time>2021-09-04T19:19:39Z</time>
      </trkpt>
      <trkpt lat="45.68855" lon="4.74653">
        <ele>242.9</ele>
        <time>2021-09-04T19:19:40Z</time>
      </trkpt>
      <trkpt lat="45.68855" lon="4.74654">
        <ele>243</ele>
        <time>2021-09-04T19:19:41Z</time>
      </trkpt>
      <trkpt lat="45.68854" lon="4.74656">
        <ele>243.3</ele>
        <time>2021-09-04T19:19:43Z</time>
      </trkpt>
      <trkpt lat="45.68854" lon="4.74657">
        <ele>243.5</ele>
        <time>2021-09-04T19:19:44Z</time>
      </trkpt>
      <trkpt lat="45.68854" lon="4.74657">
        <ele>243.5</ele>
        <time>2021-09-04T19:19:45Z</time>
      </trkpt>
      <trkpt lat="45.68854" lon="4.74656">
        <ele>243.5</ele>
        <time>2021-09-04T19:19:47Z</time>
      </trkpt>
      <trkpt lat="45.68855" lon="4.74658">
        <ele>243.8</ele>
        <time>2021-09-04T19:19:48Z</time>
      </trkpt>
      <trkpt lat="45.68855" lon="4.74658">
        <ele>243.9</ele>
        <time>2021-09-04T19:19:49Z</time>
      </trkpt>
      <trkpt lat="45.68855" lon="4.74659">
        <ele>244</ele>
        <time>2021-09-04T19:19:51Z</time>
      </trkpt>
      <trkpt lat="45.68854" lon="4.74659">
        <ele>244.1</ele>
        <time>2021-09-04T19:19:52Z</time>
      </trkpt>
      <trkpt lat="45.68854" lon="4.74658">
        <ele>244.1</ele>
        <time>2021-09-04T19:19:54Z</time>
      </trkpt>
      <trkpt lat="45.68856" lon="4.74657">
        <ele>244.4</ele>
        <time>2021-09-04T19:19:55Z</time>
      </trkpt>
      <trkpt lat="45.68856" lon="4.74657">
        <ele>244.5</ele>
        <time>2021-09-04T19:19:57Z</time>
      </trkpt>
      <trkpt lat="45.68856" lon="4.74656">
        <ele>244.6</ele>
        <time>2021-09-04T19:19:58Z</time>
      </trkpt>
      <trkpt lat="45.68858" lon="4.74655">
        <ele>244.9</ele>
        <time>2021-09-04T19:20:00Z</time>
      </trkpt>
      <trkpt lat="45.68859" lon="4.74655">
        <ele>245.1</ele>
        <time>2021-09-04T19:20:01Z</time>
      </trkpt>
      <trkpt lat="45.68859" lon="4.74656">
        <ele>245.2</ele>
        <time>2021-09-04T19:20:02Z</time>
      </trkpt>
      <trkpt lat="45.68859" lon="4.74657">
        <ele>245.4</ele>
        <time>2021-09-04T19:20:03Z</time>
      </trkpt>
      <trkpt lat="45.68859" lon="4.74658">
        <ele>245.5</ele>
        <time>2021-09-04T19:20:05Z</time>
      </trkpt>
      <trkpt lat="45.6886" lon="4.74657">
        <ele>245.8</ele>
        <time>2021-09-04T19:20:06Z</time>
      </trkpt>
      <trkpt lat="45.68861" lon="4.74657">
        <ele>245.9</ele>
        <time>2021-09-04T19:20:08Z</time>
      </trkpt>
      <trkpt lat="45.68861" lon="4.74657">
        <ele>246</ele>
        <time>2021-09-04T19:20:09Z</time>
      </trkpt>
      <trkpt lat="45.68862" lon="4.74657">
        <ele>246.1</ele>
        <time>2021-09-04T19:20:10Z</time>
      </trkpt>
      <trkpt lat="45.68863" lon="4.74657">
        <ele>246.3</ele>
        <time>2021-09-04T19:20:12Z</time>
      </trkpt>
      <trkpt lat="45.68863" lon="4.74658">
        <ele>246.4</ele>
        <time>2021-09-04T19:20:13Z</time>
      </trkpt>
      <trkpt lat="45.68863" lon="4.74658">
        <ele>246.5</ele>
        <time>2021-09-04T19:20:15Z</time>
      </trkpt>
      <trkpt lat="45.68864" lon="4.74658">
        <ele>246.6</ele>
        <time>2021-09-04T19:20:16Z</time>
      </trkpt>
      <trkpt lat="45.68865" lon="4.74657">
        <ele>246.8</ele>
        <time>2021-09-04T19:20:17Z</time>
      </trkpt>
      <trkpt lat="45.68865" lon="4.74656">
        <ele>246.9</ele>
        <time>2021-09-04T19:20:18Z</time>
      </trkpt>
      <trkpt lat="45.68866" lon="4.74655">
        <ele>247</ele>
        <time>2021-09-04T19:20:20Z</time>
      </trkpt>
      <trkpt lat="45.68866" lon="4.74654">
        <ele>247.1</ele>
        <time>2021-09-04T19:20:21Z</time>
      </trkpt>
      <trkpt lat="45.68867" lon="4.74653">
        <ele>247.4</ele>
        <time>2021-09-04T19:20:23Z</time>
      </trkpt>
      <trkpt lat="45.68868" lon="4.74653">
        <ele>247.6</ele>
        <time>2021-09-04T19:20:24Z</time>
      </trkpt>
      <trkpt lat="45.68869" lon="4.74652">
        <ele>247.8</ele>
        <time>2021-09-04T19:20:25Z</time>
      </trkpt>
      <trkpt lat="45.68871" lon="4.74651">
        <ele>248.1</ele>
        <time>2021-09-04T19:20:27Z</time>
      </trkpt>
      <trkpt lat="45.68872" lon="4.74651">
        <ele>248.3</ele>
        <time>2021-09-04T19:20:28Z</time>
      </trkpt>
      <trkpt lat="45.68874" lon="4.74651">
        <ele>248.5</ele>
        <time>2021-09-04T19:20:30Z</time>
      </trkpt>
      <trkpt lat="45.68875" lon="4.74651">
        <ele>248.7</ele>
        <time>2021-09-04T19:20:31Z</time>
      </trkpt>
      <trkpt lat="45.68876" lon="4.74651">
        <ele>248.9</ele>
        <time>2021-09-04T19:20:32Z</time>
      </trkpt>
      <trkpt lat="45.68877" lon="4.74651">
        <ele>249.1</ele>
        <time>2021-09-04T19:20:34Z</time>
      </trkpt>
      <trkpt lat="45.68878" lon="4.74652">
        <ele>249.3</ele>
        <time>2021-09-04T19:20:35Z</time>
      </trkpt>
      <trkpt lat="45.68879" lon="4.74653">
        <ele>249.5</ele>
        <time>2021-09-04T19:20:36Z</time>
      </trkpt>
      <trkpt lat="45.6888" lon="4.74654">
        <ele>249.7</ele>
        <time>2021-09-04T19:20:38Z</time>
      </trkpt>
      <trkpt lat="45.68881" lon="4.74655">
        <ele>249.9</ele>
        <time>2021-09-04T19:20:39Z</time>
      </trkpt>
      <trkpt lat="45.68882" lon="4.74656">
        <ele>250</ele>
        <time>2021-09-04T19:20:40Z</time>
      </trkpt>
      <trkpt lat="45.68883" lon="4.74657">
        <ele>250.3</ele>
        <time>2021-09-04T19:20:42Z</time>
      </trkpt>
      <trkpt lat="45.68883" lon="4.74658">
        <ele>250.4</ele>
        <time>2021-09-04T19:20:43Z</time>
      </trkpt>
      <trkpt lat="45.68884" lon="4.74659">
        <ele>250.5</ele>
        <time>2021-09-04T19:20:44Z</time>
      </trkpt>
      <trkpt lat="45.68885" lon="4.7466">
        <ele>250.7</ele>
        <time>2021-09-04T19:20:45Z</time>
      </trkpt>
      <trkpt lat="45.68887" lon="4.7466">
        <ele>251</ele>
        <time>2021-09-04T19:20:47Z</time>
      </trkpt>
      <trkpt lat="45.68888" lon="4.7466">
        <ele>251.3</ele>
        <time>2021-09-04T19:20:49Z</time>
      </trkpt>
      <trkpt lat="45.68889" lon="4.7466">
        <ele>251.4</ele>
        <time>2021-09-04T19:20:50Z</time>
      </trkpt>
      <trkpt lat="45.6889" lon="4.7466">
        <ele>251.6</ele>
        <time>2021-09-04T19:20:51Z</time>
      </trkpt>
      <trkpt lat="45.68891" lon="4.7466">
        <ele>251.7</ele>
        <time>2021-09-04T19:20:52Z</time>
      </trkpt>
      <trkpt lat="45.68891" lon="4.7466">
        <ele>251.8</ele>
        <time>2021-09-04T19:20:53Z</time>
      </trkpt>
      <trkpt lat="45.68893" lon="4.74661">
        <ele>252</ele>
        <time>2021-09-04T19:20:55Z</time>
      </trkpt>
      <trkpt lat="45.68893" lon="4.74661">
        <ele>252.1</ele>
        <time>2021-09-04T19:20:56Z</time>
      </trkpt>
      <trkpt lat="45.68894" lon="4.74661">
        <ele>252.3</ele>
        <time>2021-09-04T19:20:57Z</time>
      </trkpt>
      <trkpt lat="45.68896" lon="4.74661">
        <ele>252.5</ele>
        <time>2021-09-04T19:20:59Z</time>
      </trkpt>
      <trkpt lat="45.68896" lon="4.74662">
        <ele>252.6</ele>
        <time>2021-09-04T19:21:00Z</time>
      </trkpt>
      <trkpt lat="45.68896" lon="4.74661">
        <ele>252.6</ele>
        <time>2021-09-04T19:21:02Z</time>
      </trkpt>
      <trkpt lat="45.68895" lon="4.7466">
        <ele>252.8</ele>
        <time>2021-09-04T19:21:04Z</time>
      </trkpt>
      <trkpt lat="45.68895" lon="4.7466">
        <ele>252.9</ele>
        <time>2021-09-04T19:21:06Z</time>
      </trkpt>
      <trkpt lat="45.68896" lon="4.74659">
        <ele>253</ele>
        <time>2021-09-04T19:21:07Z</time>
      </trkpt>
      <trkpt lat="45.68896" lon="4.74659">
        <ele>253</ele>
        <time>2021-09-04T19:21:09Z</time>
      </trkpt>
      <trkpt lat="45.68897" lon="4.7466">
        <ele>253.2</ele>
        <time>2021-09-04T19:21:11Z</time>
      </trkpt>
      <trkpt lat="45.68899" lon="4.74661">
        <ele>253.5</ele>
        <time>2021-09-04T19:21:12Z</time>
      </trkpt>
      <trkpt lat="45.68901" lon="4.74661">
        <ele>253.8</ele>
        <time>2021-09-04T19:21:13Z</time>
      </trkpt>
      <trkpt lat="45.68902" lon="4.74662">
        <ele>254.1</ele>
        <time>2021-09-04T19:21:14Z</time>
      </trkpt>
      <trkpt lat="45.68905" lon="4.74664">
        <ele>254.5</ele>
        <time>2021-09-04T19:21:16Z</time>
      </trkpt>
      <trkpt lat="45.68906" lon="4.74664">
        <ele>254.6</ele>
        <time>2021-09-04T19:21:17Z</time>
      </trkpt>
      <trkpt lat="45.68907" lon="4.74665">
        <ele>254.8</ele>
        <time>2021-09-04T19:21:18Z</time>
      </trkpt>
      <trkpt lat="45.68908" lon="4.74666">
        <ele>255.1</ele>
        <time>2021-09-04T19:21:20Z</time>
      </trkpt>
      <trkpt lat="45.6891" lon="4.74667">
        <ele>255.3</ele>
        <time>2021-09-04T19:21:22Z</time>
      </trkpt>
      <trkpt lat="45.68911" lon="4.74669">
        <ele>255.6</ele>
        <time>2021-09-04T19:21:23Z</time>
      </trkpt>
      <trkpt lat="45.68912" lon="4.74669">
        <ele>255.7</ele>
        <time>2021-09-04T19:21:24Z</time>
      </trkpt>
      <trkpt lat="45.68914" lon="4.74671">
        <ele>256</ele>
        <time>2021-09-04T19:21:26Z</time>
      </trkpt>
      <trkpt lat="45.68915" lon="4.74672">
        <ele>256.2</ele>
        <time>2021-09-04T19:21:27Z</time>
      </trkpt>
      <trkpt lat="45.68917" lon="4.74674">
        <ele>256.6</ele>
        <time>2021-09-04T19:21:29Z</time>
      </trkpt>
      <trkpt lat="45.6892" lon="4.74677">
        <ele>257.1</ele>
        <time>2021-09-04T19:21:31Z</time>
      </trkpt>
      <trkpt lat="45.6892" lon="4.74678">
        <ele>257.2</ele>
        <time>2021-09-04T19:21:32Z</time>
      </trkpt>
      <trkpt lat="45.68922" lon="4.7468">
        <ele>257.5</ele>
        <time>2021-09-04T19:21:34Z</time>
      </trkpt>
      <trkpt lat="45.68923" lon="4.74681">
        <ele>257.7</ele>
        <time>2021-09-04T19:21:35Z</time>
      </trkpt>
      <trkpt lat="45.68926" lon="4.74681">
        <ele>258</ele>
        <time>2021-09-04T19:21:37Z</time>
      </trkpt>
      <trkpt lat="45.68928" lon="4.74682">
        <ele>258.3</ele>
        <time>2021-09-04T19:21:39Z</time>
      </trkpt>
      <trkpt lat="45.68931" lon="4.74684">
        <ele>258.7</ele>
        <time>2021-09-04T19:21:40Z</time>
      </trkpt>
      <trkpt lat="45.68932" lon="4.74685">
        <ele>258.8</ele>
        <time>2021-09-04T19:21:41Z</time>
      </trkpt>
      <trkpt lat="45.68933" lon="4.74685">
        <ele>259</ele>
        <time>2021-09-04T19:21:42Z</time>
      </trkpt>
      <trkpt lat="45.68935" lon="4.74685">
        <ele>259.3</ele>
        <time>2021-09-04T19:21:44Z</time>
      </trkpt>
      <trkpt lat="45.68938" lon="4.74684">
        <ele>259.6</ele>
        <time>2021-09-04T19:21:45Z</time>
      </trkpt>
      <trkpt lat="45.68939" lon="4.74685">
        <ele>259.7</ele>
        <time>2021-09-04T19:21:46Z</time>
      </trkpt>
      <trkpt lat="45.6894" lon="4.74685">
        <ele>259.9</ele>
        <time>2021-09-04T19:21:47Z</time>
      </trkpt>
      <trkpt lat="45.68942" lon="4.74685">
        <ele>260.1</ele>
        <time>2021-09-04T19:21:49Z</time>
      </trkpt>
      <trkpt lat="45.68944" lon="4.74686">
        <ele>260.4</ele>
        <time>2021-09-04T19:21:50Z</time>
      </trkpt>
      <trkpt lat="45.68945" lon="4.74687">
        <ele>260.6</ele>
        <time>2021-09-04T19:21:51Z</time>
      </trkpt>
      <trkpt lat="45.68947" lon="4.74688">
        <ele>260.9</ele>
        <time>2021-09-04T19:21:52Z</time>
      </trkpt>
      <trkpt lat="45.6895" lon="4.74688">
        <ele>261.3</ele>
        <time>2021-09-04T19:21:54Z</time>
      </trkpt>
      <trkpt lat="45.68952" lon="4.74689">
        <ele>261.6</ele>
        <time>2021-09-04T19:21:56Z</time>
      </trkpt>
      <trkpt lat="45.68953" lon="4.74688">
        <ele>261.7</ele>
        <time>2021-09-04T19:21:57Z</time>
      </trkpt>
      <trkpt lat="45.68955" lon="4.74689">
        <ele>262.1</ele>
        <time>2021-09-04T19:21:58Z</time>
      </trkpt>
      <trkpt lat="45.68956" lon="4.74689">
        <ele>262.3</ele>
        <time>2021-09-04T19:22:00Z</time>
      </trkpt>
      <trkpt lat="45.68957" lon="4.74689">
        <ele>262.4</ele>
        <time>2021-09-04T19:22:01Z</time>
      </trkpt>
      <trkpt lat="45.68958" lon="4.74689">
        <ele>262.5</ele>
        <time>2021-09-04T19:22:02Z</time>
      </trkpt>
      <trkpt lat="45.68959" lon="4.74689">
        <ele>262.7</ele>
        <time>2021-09-04T19:22:04Z</time>
      </trkpt>
      <trkpt lat="45.6896" lon="4.74689">
        <ele>262.9</ele>
        <time>2021-09-04T19:22:05Z</time>
      </trkpt>
      <trkpt lat="45.68962" lon="4.74689">
        <ele>263.1</ele>
        <time>2021-09-04T19:22:07Z</time>
      </trkpt>
      <trkpt lat="45.68962" lon="4.74689">
        <ele>263.3</ele>
        <time>2021-09-04T19:22:08Z</time>
      </trkpt>
      <trkpt lat="45.68963" lon="4.7469">
        <ele>263.4</ele>
        <time>2021-09-04T19:22:09Z</time>
      </trkpt>
      <trkpt lat="45.68965" lon="4.7469">
        <ele>263.8</ele>
        <time>2021-09-04T19:22:11Z</time>
      </trkpt>
      <trkpt lat="45.68966" lon="4.7469">
        <ele>263.9</ele>
        <time>2021-09-04T19:22:12Z</time>
      </trkpt>
      <trkpt lat="45.68967" lon="4.7469">
        <ele>264</ele>
        <time>2021-09-04T19:22:13Z</time>
      </trkpt>
      <trkpt lat="45.68967" lon="4.7469">
        <ele>264.1</ele>
        <time>2021-09-04T19:22:15Z</time>
      </trkpt>
      <trkpt lat="45.68969" lon="4.7469">
        <ele>264.3</ele>
        <time>2021-09-04T19:22:16Z</time>
      </trkpt>
      <trkpt lat="45.68969" lon="4.74691">
        <ele>264.4</ele>
        <time>2021-09-04T19:22:17Z</time>
      </trkpt>
      <trkpt lat="45.6897" lon="4.74693">
        <ele>264.6</ele>
        <time>2021-09-04T19:22:19Z</time>
      </trkpt>
      <trkpt lat="45.6897" lon="4.74694">
        <ele>264.8</ele>
        <time>2021-09-04T19:22:20Z</time>
      </trkpt>
      <trkpt lat="45.68971" lon="4.74695">
        <ele>265</ele>
        <time>2021-09-04T19:22:21Z</time>
      </trkpt>
      <trkpt lat="45.68972" lon="4.74695">
        <ele>265.2</ele>
        <time>2021-09-04T19:22:22Z</time>
      </trkpt>
      <trkpt lat="45.68974" lon="4.74696">
        <ele>265.4</ele>
        <time>2021-09-04T19:22:24Z</time>
      </trkpt>
      <trkpt lat="45.68975" lon="4.74697">
        <ele>265.6</ele>
        <time>2021-09-04T19:22:26Z</time>
      </trkpt>
      <trkpt lat="45.68975" lon="4.74698">
        <ele>265.8</ele>
        <time>2021-09-04T19:22:27Z</time>
      </trkpt>
      <trkpt lat="45.68976" lon="4.74699">
        <ele>265.9</ele>
        <time>2021-09-04T19:22:28Z</time>
      </trkpt>
      <trkpt lat="45.68977" lon="4.74699">
        <ele>266.1</ele>
        <time>2021-09-04T19:22:30Z</time>
      </trkpt>
      <trkpt lat="45.68977" lon="4.74698">
        <ele>266.1</ele>
        <time>2021-09-04T19:22:31Z</time>
      </trkpt>
      <trkpt lat="45.68977" lon="4.74698">
        <ele>266.2</ele>
        <time>2021-09-04T19:22:32Z</time>
      </trkpt>
      <trkpt lat="45.68977" lon="4.74698">
        <ele>266.2</ele>
        <time>2021-09-04T19:22:34Z</time>
      </trkpt>
      <trkpt lat="45.68977" lon="4.74698">
        <ele>266.2</ele>
        <time>2021-09-04T19:22:35Z</time>
      </trkpt>
      <trkpt lat="45.68977" lon="4.74697">
        <ele>266.3</ele>
        <time>2021-09-04T19:22:36Z</time>
      </trkpt>
      <trkpt lat="45.68977" lon="4.74697">
        <ele>266.3</ele>
        <time>2021-09-04T19:22:38Z</time>
      </trkpt>
      <trkpt lat="45.68981" lon="4.747">
        <ele>267.1</ele>
        <time>2021-09-04T19:22:54Z</time>
      </trkpt>
      <trkpt lat="45.68983" lon="4.74701">
        <ele>267.4</ele>
        <time>2021-09-04T19:22:55Z</time>
      </trkpt>
      <trkpt lat="45.68984" lon="4.74701">
        <ele>267.7</ele>
        <time>2021-09-04T19:22:57Z</time>
      </trkpt>
      <trkpt lat="45.68986" lon="4.74701">
        <ele>268</ele>
        <time>2021-09-04T19:22:59Z</time>
      </trkpt>
      <trkpt lat="45.68987" lon="4.74702">
        <ele>268.2</ele>
        <time>2021-09-04T19:23:00Z</time>
      </trkpt>
      <trkpt lat="45.68988" lon="4.74702">
        <ele>268.4</ele>
        <time>2021-09-04T19:23:01Z</time>
      </trkpt>
      <trkpt lat="45.68989" lon="4.74702">
        <ele>268.5</ele>
        <time>2021-09-04T19:23:02Z</time>
      </trkpt>
      <trkpt lat="45.6899" lon="4.74702">
        <ele>268.7</ele>
        <time>2021-09-04T19:23:04Z</time>
      </trkpt>
      <trkpt lat="45.68991" lon="4.74703">
        <ele>268.9</ele>
        <time>2021-09-04T19:23:05Z</time>
      </trkpt>
      <trkpt lat="45.68992" lon="4.74703">
        <ele>269</ele>
        <time>2021-09-04T19:23:06Z</time>
      </trkpt>
      <trkpt lat="45.68993" lon="4.74703">
        <ele>269.3</ele>
        <time>2021-09-04T19:23:08Z</time>
      </trkpt>
      <trkpt lat="45.68994" lon="4.74703">
        <ele>269.4</ele>
        <time>2021-09-04T19:23:09Z</time>
      </trkpt>
      <trkpt lat="45.68995" lon="4.74704">
        <ele>269.7</ele>
        <time>2021-09-04T19:23:11Z</time>
      </trkpt>
      <trkpt lat="45.68996" lon="4.74704">
        <ele>269.9</ele>
        <time>2021-09-04T19:23:12Z</time>
      </trkpt>
      <trkpt lat="45.68997" lon="4.74704">
        <ele>270</ele>
        <time>2021-09-04T19:23:13Z</time>
      </trkpt>
      <trkpt lat="45.68998" lon="4.74704">
        <ele>270.2</ele>
        <time>2021-09-04T19:23:15Z</time>
      </trkpt>
      <trkpt lat="45.68999" lon="4.74703">
        <ele>270.4</ele>
        <time>2021-09-04T19:23:16Z</time>
      </trkpt>
      <trkpt lat="45.69" lon="4.74703">
        <ele>270.5</ele>
        <time>2021-09-04T19:23:17Z</time>
      </trkpt>
      <trkpt lat="45.69" lon="4.74703">
        <ele>270.7</ele>
        <time>2021-09-04T19:23:18Z</time>
      </trkpt>
      <trkpt lat="45.69001" lon="4.74703">
        <ele>270.8</ele>
        <time>2021-09-04T19:23:19Z</time>
      </trkpt>
      <trkpt lat="45.69002" lon="4.74703">
        <ele>270.9</ele>
        <time>2021-09-04T19:23:20Z</time>
      </trkpt>
      <trkpt lat="45.69002" lon="4.74703">
        <ele>271.1</ele>
        <time>2021-09-04T19:23:21Z</time>
      </trkpt>
      <trkpt lat="45.69003" lon="4.74704">
        <ele>271.2</ele>
        <time>2021-09-04T19:23:22Z</time>
      </trkpt>
      <trkpt lat="45.69004" lon="4.74704">
        <ele>271.5</ele>
        <time>2021-09-04T19:23:24Z</time>
      </trkpt>
      <trkpt lat="45.69005" lon="4.74704">
        <ele>271.6</ele>
        <time>2021-09-04T19:23:26Z</time>
      </trkpt>
      <trkpt lat="45.69006" lon="4.74704">
        <ele>271.8</ele>
        <time>2021-09-04T19:23:27Z</time>
      </trkpt>
      <trkpt lat="45.69008" lon="4.74704">
        <ele>272.2</ele>
        <time>2021-09-04T19:23:28Z</time>
      </trkpt>
      <trkpt lat="45.6901" lon="4.74705">
        <ele>272.5</ele>
        <time>2021-09-04T19:23:30Z</time>
      </trkpt>
      <trkpt lat="45.69011" lon="4.74706">
        <ele>272.8</ele>
        <time>2021-09-04T19:23:31Z</time>
      </trkpt>
      <trkpt lat="45.69013" lon="4.74707">
        <ele>273</ele>
        <time>2021-09-04T19:23:33Z</time>
      </trkpt>
      <trkpt lat="45.69013" lon="4.74708">
        <ele>273.2</ele>
        <time>2021-09-04T19:23:34Z</time>
      </trkpt>
      <trkpt lat="45.69014" lon="4.74709">
        <ele>273.4</ele>
        <time>2021-09-04T19:23:35Z</time>
      </trkpt>
      <trkpt lat="45.69016" lon="4.74709">
        <ele>273.6</ele>
        <time>2021-09-04T19:23:37Z</time>
      </trkpt>
      <trkpt lat="45.69017" lon="4.7471">
        <ele>273.8</ele>
        <time>2021-09-04T19:23:38Z</time>
      </trkpt>
      <trkpt lat="45.69018" lon="4.74711">
        <ele>274</ele>
        <time>2021-09-04T19:23:40Z</time>
      </trkpt>
      <trkpt lat="45.6902" lon="4.74711">
        <ele>274.4</ele>
        <time>2021-09-04T19:23:41Z</time>
      </trkpt>
      <trkpt lat="45.69021" lon="4.74711">
        <ele>274.5</ele>
        <time>2021-09-04T19:23:43Z</time>
      </trkpt>
      <trkpt lat="45.69022" lon="4.74711">
        <ele>274.6</ele>
        <time>2021-09-04T19:23:44Z</time>
      </trkpt>
      <trkpt lat="45.69022" lon="4.74711">
        <ele>274.7</ele>
        <time>2021-09-04T19:23:45Z</time>
      </trkpt>
      <trkpt lat="45.69023" lon="4.74711">
        <ele>274.8</ele>
        <time>2021-09-04T19:23:46Z</time>
      </trkpt>
      <trkpt lat="45.69024" lon="4.74711">
        <ele>275</ele>
        <time>2021-09-04T19:23:48Z</time>
      </trkpt>
      <trkpt lat="45.69025" lon="4.74712">
        <ele>275.2</ele>
        <time>2021-09-04T19:23:49Z</time>
      </trkpt>
      <trkpt lat="45.69027" lon="4.74713">
        <ele>275.4</ele>
        <time>2021-09-04T19:23:50Z</time>
      </trkpt>
      <trkpt lat="45.69027" lon="4.74714">
        <ele>275.6</ele>
        <time>2021-09-04T19:23:52Z</time>
      </trkpt>
      <trkpt lat="45.69028" lon="4.74714">
        <ele>275.7</ele>
        <time>2021-09-04T19:23:53Z</time>
      </trkpt>
      <trkpt lat="45.69029" lon="4.74715">
        <ele>275.8</ele>
        <time>2021-09-04T19:23:54Z</time>
      </trkpt>
      <trkpt lat="45.6903" lon="4.74715">
        <ele>276</ele>
        <time>2021-09-04T19:23:55Z</time>
      </trkpt>
      <trkpt lat="45.69032" lon="4.74715">
        <ele>276.3</ele>
        <time>2021-09-04T19:23:57Z</time>
      </trkpt>
      <trkpt lat="45.69034" lon="4.74715">
        <ele>276.6</ele>
        <time>2021-09-04T19:23:59Z</time>
      </trkpt>
      <trkpt lat="45.69035" lon="4.74714">
        <ele>276.8</ele>
        <time>2021-09-04T19:24:00Z</time>
      </trkpt>
      <trkpt lat="45.69036" lon="4.74715">
        <ele>277</ele>
        <time>2021-09-04T19:24:02Z</time>
      </trkpt>
      <trkpt lat="45.69037" lon="4.74715">
        <ele>277.2</ele>
        <time>2021-09-04T19:24:03Z</time>
      </trkpt>
      <trkpt lat="45.69039" lon="4.74716">
        <ele>277.4</ele>
        <time>2021-09-04T19:24:05Z</time>
      </trkpt>
      <trkpt lat="45.69039" lon="4.74717">
        <ele>277.6</ele>
        <time>2021-09-04T19:24:06Z</time>
      </trkpt>
      <trkpt lat="45.6904" lon="4.74717">
        <ele>277.8</ele>
        <time>2021-09-04T19:24:07Z</time>
      </trkpt>
      <trkpt lat="45.69042" lon="4.74718">
        <ele>278</ele>
        <time>2021-09-04T19:24:09Z</time>
      </trkpt>
      <trkpt lat="45.69042" lon="4.74718">
        <ele>278</ele>
        <time>2021-09-04T19:24:10Z</time>
      </trkpt>
      <trkpt lat="45.69041" lon="4.74718">
        <ele>278.1</ele>
        <time>2021-09-04T19:24:11Z</time>
      </trkpt>
      <trkpt lat="45.69041" lon="4.74717">
        <ele>278.2</ele>
        <time>2021-09-04T19:24:13Z</time>
      </trkpt>
      <trkpt lat="45.69041" lon="4.74717">
        <ele>278.2</ele>
        <time>2021-09-04T19:24:14Z</time>
      </trkpt>
      <trkpt lat="45.69041" lon="4.74717">
        <ele>278.3</ele>
        <time>2021-09-04T19:24:16Z</time>
      </trkpt>
      <trkpt lat="45.69042" lon="4.74717">
        <ele>278.4</ele>
        <time>2021-09-04T19:24:17Z</time>
      </trkpt>
      <trkpt lat="45.69042" lon="4.74716">
        <ele>278.5</ele>
        <time>2021-09-04T19:24:19Z</time>
      </trkpt>
      <trkpt lat="45.69042" lon="4.74716">
        <ele>278.5</ele>
        <time>2021-09-04T19:24:20Z</time>
      </trkpt>
      <trkpt lat="45.69042" lon="4.74716">
        <ele>278.5</ele>
        <time>2021-09-04T19:24:21Z</time>
      </trkpt>
      <trkpt lat="45.69042" lon="4.74716">
        <ele>278.5</ele>
        <time>2021-09-04T19:24:23Z</time>
      </trkpt>
      <trkpt lat="45.69042" lon="4.74716">
        <ele>278.5</ele>
        <time>2021-09-04T19:24:25Z</time>
      </trkpt>
      <trkpt lat="45.69043" lon="4.74716">
        <ele>278.6</ele>
        <time>2021-09-04T19:24:26Z</time>
      </trkpt>
      <trkpt lat="45.69043" lon="4.74716">
        <ele>278.7</ele>
        <time>2021-09-04T19:24:27Z</time>
      </trkpt>
      <trkpt lat="45.69044" lon="4.74716">
        <ele>278.9</ele>
        <time>2021-09-04T19:24:28Z</time>
      </trkpt>
      <trkpt lat="45.69046" lon="4.74715">
        <ele>279.3</ele>
        <time>2021-09-04T19:24:30Z</time>
      </trkpt>
      <trkpt lat="45.69047" lon="4.74714">
        <ele>279.5</ele>
        <time>2021-09-04T19:24:31Z</time>
      </trkpt>
      <trkpt lat="45.69048" lon="4.74714">
        <ele>279.6</ele>
        <time>2021-09-04T19:24:32Z</time>
      </trkpt>
      <trkpt lat="45.6905" lon="4.74714">
        <ele>280</ele>
        <time>2021-09-04T19:24:34Z</time>
      </trkpt>
      <trkpt lat="45.6905" lon="4.74714">
        <ele>280</ele>
        <time>2021-09-04T19:24:35Z</time>
      </trkpt>
      <trkpt lat="45.6905" lon="4.74714">
        <ele>280</ele>
        <time>2021-09-04T19:24:36Z</time>
      </trkpt>
      <trkpt lat="45.69051" lon="4.74714">
        <ele>280.2</ele>
        <time>2021-09-04T19:24:38Z</time>
      </trkpt>
      <trkpt lat="45.69051" lon="4.74714">
        <ele>280.3</ele>
        <time>2021-09-04T19:24:39Z</time>
      </trkpt>
      <trkpt lat="45.69052" lon="4.74714">
        <ele>280.4</ele>
        <time>2021-09-04T19:24:40Z</time>
      </trkpt>
      <trkpt lat="45.69052" lon="4.74714">
        <ele>280.5</ele>
        <time>2021-09-04T19:24:41Z</time>
      </trkpt>
      <trkpt lat="45.69053" lon="4.74713">
        <ele>280.7</ele>
        <time>2021-09-04T19:24:43Z</time>
      </trkpt>
      <trkpt lat="45.69054" lon="4.74713">
        <ele>280.9</ele>
        <time>2021-09-04T19:24:44Z</time>
      </trkpt>
      <trkpt lat="45.69055" lon="4.74713">
        <ele>281.1</ele>
        <time>2021-09-04T19:24:45Z</time>
      </trkpt>
      <trkpt lat="45.69055" lon="4.74712">
        <ele>281.2</ele>
        <time>2021-09-04T19:24:46Z</time>
      </trkpt>
      <trkpt lat="45.69056" lon="4.74712">
        <ele>281.3</ele>
        <time>2021-09-04T19:24:48Z</time>
      </trkpt>
      <trkpt lat="45.69056" lon="4.74712">
        <ele>281.4</ele>
        <time>2021-09-04T19:24:49Z</time>
      </trkpt>
      <trkpt lat="45.69057" lon="4.74712">
        <ele>281.6</ele>
        <time>2021-09-04T19:24:50Z</time>
      </trkpt>
      <trkpt lat="45.69057" lon="4.74712">
        <ele>282</ele>
        <time>2021-09-04T19:24:52Z</time>
      </trkpt>
      <trkpt lat="45.69058" lon="4.74712">
        <ele>282.1</ele>
        <time>2021-09-04T19:24:53Z</time>
      </trkpt>
      <trkpt lat="45.69059" lon="4.74712">
        <ele>282.2</ele>
        <time>2021-09-04T19:24:54Z</time>
      </trkpt>
      <trkpt lat="45.69059" lon="4.74711">
        <ele>282.3</ele>
        <time>2021-09-04T19:24:56Z</time>
      </trkpt>
      <trkpt lat="45.6906" lon="4.74711">
        <ele>282.4</ele>
        <time>2021-09-04T19:24:57Z</time>
      </trkpt>
      <trkpt lat="45.69061" lon="4.7471">
        <ele>282.5</ele>
        <time>2021-09-04T19:24:58Z</time>
      </trkpt>
      <trkpt lat="45.69061" lon="4.74709">
        <ele>282.7</ele>
        <time>2021-09-04T19:24:59Z</time>
      </trkpt>
      <trkpt lat="45.69063" lon="4.74707">
        <ele>283.1</ele>
        <time>2021-09-04T19:25:01Z</time>
      </trkpt>
      <trkpt lat="45.69065" lon="4.74704">
        <ele>283.6</ele>
        <time>2021-09-04T19:25:03Z</time>
      </trkpt>
      <trkpt lat="45.69066" lon="4.74704">
        <ele>283.7</ele>
        <time>2021-09-04T19:25:04Z</time>
      </trkpt>
      <trkpt lat="45.69067" lon="4.74705">
        <ele>283.8</ele>
        <time>2021-09-04T19:25:05Z</time>
      </trkpt>
      <trkpt lat="45.69067" lon="4.74706">
        <ele>284</ele>
        <time>2021-09-04T19:25:07Z</time>
      </trkpt>
      <trkpt lat="45.69067" lon="4.74707">
        <ele>284.1</ele>
        <time>2021-09-04T19:25:09Z</time>
      </trkpt>
      <trkpt lat="45.69067" lon="4.74707">
        <ele>284.1</ele>
        <time>2021-09-04T19:25:11Z</time>
      </trkpt>
      <trkpt lat="45.69067" lon="4.74707">
        <ele>284.1</ele>
        <time>2021-09-04T19:25:12Z</time>
      </trkpt>
      <trkpt lat="45.69068" lon="4.74706">
        <ele>284.3</ele>
        <time>2021-09-04T19:25:13Z</time>
      </trkpt>
      <trkpt lat="45.69068" lon="4.74704">
        <ele>284.5</ele>
        <time>2021-09-04T19:25:15Z</time>
      </trkpt>
      <trkpt lat="45.69069" lon="4.74702">
        <ele>284.7</ele>
        <time>2021-09-04T19:25:19Z</time>
      </trkpt>
      <trkpt lat="45.69069" lon="4.74701">
        <ele>284.9</ele>
        <time>2021-09-04T19:25:20Z</time>
      </trkpt>
      <trkpt lat="45.6907" lon="4.74699">
        <ele>285</ele>
        <time>2021-09-04T19:25:21Z</time>
      </trkpt>
      <trkpt lat="45.6907" lon="4.74697">
        <ele>285.2</ele>
        <time>2021-09-04T19:25:23Z</time>
      </trkpt>
      <trkpt lat="45.69071" lon="4.74696">
        <ele>285.4</ele>
        <time>2021-09-04T19:25:24Z</time>
      </trkpt>
      <trkpt lat="45.69071" lon="4.74694">
        <ele>285.5</ele>
        <time>2021-09-04T19:25:25Z</time>
      </trkpt>
      <trkpt lat="45.69072" lon="4.74692">
        <ele>285.7</ele>
        <time>2021-09-04T19:25:26Z</time>
      </trkpt>
      <trkpt lat="45.69073" lon="4.74689">
        <ele>286</ele>
        <time>2021-09-04T19:25:27Z</time>
      </trkpt>
      <trkpt lat="45.69074" lon="4.74687">
        <ele>286.2</ele>
        <time>2021-09-04T19:25:28Z</time>
      </trkpt>
      <trkpt lat="45.69075" lon="4.74683">
        <ele>286.6</ele>
        <time>2021-09-04T19:25:30Z</time>
      </trkpt>
      <trkpt lat="45.69076" lon="4.7468">
        <ele>286.8</ele>
        <time>2021-09-04T19:25:31Z</time>
      </trkpt>
      <trkpt lat="45.69078" lon="4.74677">
        <ele>287.1</ele>
        <time>2021-09-04T19:25:32Z</time>
      </trkpt>
      <trkpt lat="45.69079" lon="4.74673">
        <ele>287.4</ele>
        <time>2021-09-04T19:25:33Z</time>
      </trkpt>
      <trkpt lat="45.69081" lon="4.7467">
        <ele>287.6</ele>
        <time>2021-09-04T19:25:35Z</time>
      </trkpt>
      <trkpt lat="45.69083" lon="4.74666">
        <ele>287.9</ele>
        <time>2021-09-04T19:25:36Z</time>
      </trkpt>
      <trkpt lat="45.69085" lon="4.74661">
        <ele>288.3</ele>
        <time>2021-09-04T19:25:37Z</time>
      </trkpt>
      <trkpt lat="45.69088" lon="4.74659">
        <ele>288.5</ele>
        <time>2021-09-04T19:25:39Z</time>
      </trkpt>
      <trkpt lat="45.69089" lon="4.7466">
        <ele>288.6</ele>
        <time>2021-09-04T19:25:40Z</time>
      </trkpt>
      <trkpt lat="45.69089" lon="4.74661">
        <ele>288.6</ele>
        <time>2021-09-04T19:25:42Z</time>
      </trkpt>
      <trkpt lat="45.6909" lon="4.74661">
        <ele>288.7</ele>
        <time>2021-09-04T19:25:43Z</time>
      </trkpt>
      <trkpt lat="45.6909" lon="4.74662">
        <ele>288.7</ele>
        <time>2021-09-04T19:25:45Z</time>
      </trkpt>
      <trkpt lat="45.6909" lon="4.74663">
        <ele>288.8</ele>
        <time>2021-09-04T19:25:47Z</time>
      </trkpt>
      <trkpt lat="45.69091" lon="4.74664">
        <ele>288.8</ele>
        <time>2021-09-04T19:25:49Z</time>
      </trkpt>
      <trkpt lat="45.69091" lon="4.74665">
        <ele>288.9</ele>
        <time>2021-09-04T19:25:50Z</time>
      </trkpt>
      <trkpt lat="45.69092" lon="4.74665">
        <ele>288.9</ele>
        <time>2021-09-04T19:25:52Z</time>
      </trkpt>
      <trkpt lat="45.69092" lon="4.74666">
        <ele>288.9</ele>
        <time>2021-09-04T19:25:54Z</time>
      </trkpt>
      <trkpt lat="45.69093" lon="4.74667">
        <ele>289</ele>
        <time>2021-09-04T19:27:42Z</time>
      </trkpt>
      <trkpt lat="45.69093" lon="4.74668">
        <ele>289</ele>
        <time>2021-09-04T19:27:43Z</time>
      </trkpt>
      <trkpt lat="45.69096" lon="4.74668">
        <ele>289.2</ele>
        <time>2021-09-04T19:27:44Z</time>
      </trkpt>
      <trkpt lat="45.69099" lon="4.74668">
        <ele>289.4</ele>
        <time>2021-09-04T19:27:45Z</time>
      </trkpt>
      <trkpt lat="45.69105" lon="4.74666">
        <ele>289.8</ele>
        <time>2021-09-04T19:27:47Z</time>
      </trkpt>
      <trkpt lat="45.6911" lon="4.74665">
        <ele>290.2</ele>
        <time>2021-09-04T19:27:48Z</time>
      </trkpt>
      <trkpt lat="45.69116" lon="4.74663">
        <ele>290.6</ele>
        <time>2021-09-04T19:27:49Z</time>
      </trkpt>
      <trkpt lat="45.69123" lon="4.74661">
        <ele>291.1</ele>
        <time>2021-09-04T19:27:51Z</time>
      </trkpt>
      <trkpt lat="45.69127" lon="4.74659">
        <ele>291.5</ele>
        <time>2021-09-04T19:27:52Z</time>
      </trkpt>
      <trkpt lat="45.69132" lon="4.74658">
        <ele>291.9</ele>
        <time>2021-09-04T19:27:54Z</time>
      </trkpt>
      <trkpt lat="45.69136" lon="4.74657">
        <ele>292.3</ele>
        <time>2021-09-04T19:27:55Z</time>
      </trkpt>
      <trkpt lat="45.6914" lon="4.74656">
        <ele>292.7</ele>
        <time>2021-09-04T19:27:57Z</time>
      </trkpt>
      <trkpt lat="45.69145" lon="4.74655">
        <ele>293</ele>
        <time>2021-09-04T19:27:58Z</time>
      </trkpt>
      <trkpt lat="45.69148" lon="4.74654">
        <ele>293.3</ele>
        <time>2021-09-04T19:27:59Z</time>
      </trkpt>
      <trkpt lat="45.69152" lon="4.74653">
        <ele>293.5</ele>
        <time>2021-09-04T19:28:01Z</time>
      </trkpt>
      <trkpt lat="45.69157" lon="4.74652">
        <ele>293.8</ele>
        <time>2021-09-04T19:28:02Z</time>
      </trkpt>
      <trkpt lat="45.69162" lon="4.74651">
        <ele>293.9</ele>
        <time>2021-09-04T19:28:03Z</time>
      </trkpt>
      <trkpt lat="45.69167" lon="4.74651">
        <ele>294</ele>
        <time>2021-09-04T19:28:05Z</time>
      </trkpt>
      <trkpt lat="45.69172" lon="4.7465">
        <ele>294</ele>
        <time>2021-09-04T19:28:06Z</time>
      </trkpt>
      <trkpt lat="45.69177" lon="4.74649">
        <ele>294</ele>
        <time>2021-09-04T19:28:08Z</time>
      </trkpt>
      <trkpt lat="45.69182" lon="4.7465">
        <ele>293.9</ele>
        <time>2021-09-04T19:28:09Z</time>
      </trkpt>
      <trkpt lat="45.69187" lon="4.7465">
        <ele>293.8</ele>
        <time>2021-09-04T19:28:11Z</time>
      </trkpt>
      <trkpt lat="45.69193" lon="4.7465">
        <ele>293.7</ele>
        <time>2021-09-04T19:28:12Z</time>
      </trkpt>
      <trkpt lat="45.69197" lon="4.74651">
        <ele>293.6</ele>
        <time>2021-09-04T19:28:14Z</time>
      </trkpt>
      <trkpt lat="45.69202" lon="4.74652">
        <ele>293.4</ele>
        <time>2021-09-04T19:28:15Z</time>
      </trkpt>
      <trkpt lat="45.69205" lon="4.74655">
        <ele>293.4</ele>
        <time>2021-09-04T19:28:16Z</time>
      </trkpt>
      <trkpt lat="45.6921" lon="4.74656">
        <ele>293.3</ele>
        <time>2021-09-04T19:28:18Z</time>
      </trkpt>
      <trkpt lat="45.69214" lon="4.74657">
        <ele>293.2</ele>
        <time>2021-09-04T19:28:19Z</time>
      </trkpt>
      <trkpt lat="45.69217" lon="4.74657">
        <ele>293.2</ele>
        <time>2021-09-04T19:28:20Z</time>
      </trkpt>
      <trkpt lat="45.69223" lon="4.74658">
        <ele>293.2</ele>
        <time>2021-09-04T19:28:22Z</time>
      </trkpt>
      <trkpt lat="45.69229" lon="4.74658">
        <ele>293.2</ele>
        <time>2021-09-04T19:28:24Z</time>
      </trkpt>
      <trkpt lat="45.69233" lon="4.74659">
        <ele>293.2</ele>
        <time>2021-09-04T19:28:25Z</time>
      </trkpt>
      <trkpt lat="45.69236" lon="4.7466">
        <ele>293.2</ele>
        <time>2021-09-04T19:28:26Z</time>
      </trkpt>
      <trkpt lat="45.69244" lon="4.74662">
        <ele>293.2</ele>
        <time>2021-09-04T19:28:28Z</time>
      </trkpt>
      <trkpt lat="45.69248" lon="4.74662">
        <ele>293.2</ele>
        <time>2021-09-04T19:28:29Z</time>
      </trkpt>
      <trkpt lat="45.69251" lon="4.74663">
        <ele>293.2</ele>
        <time>2021-09-04T19:28:30Z</time>
      </trkpt>
      <trkpt lat="45.69258" lon="4.74665">
        <ele>293.3</ele>
        <time>2021-09-04T19:28:32Z</time>
      </trkpt>
      <trkpt lat="45.69263" lon="4.74668">
        <ele>293.4</ele>
        <time>2021-09-04T19:28:33Z</time>
      </trkpt>
      <trkpt lat="45.6927" lon="4.7467">
        <ele>293.4</ele>
        <time>2021-09-04T19:28:35Z</time>
      </trkpt>
      <trkpt lat="45.69277" lon="4.7467">
        <ele>293.5</ele>
        <time>2021-09-04T19:28:37Z</time>
      </trkpt>
      <trkpt lat="45.69281" lon="4.74671">
        <ele>293.6</ele>
        <time>2021-09-04T19:28:39Z</time>
      </trkpt>
      <trkpt lat="45.69285" lon="4.7467">
        <ele>293.6</ele>
        <time>2021-09-04T19:28:40Z</time>
      </trkpt>
      <trkpt lat="45.69289" lon="4.74669">
        <ele>293.6</ele>
        <time>2021-09-04T19:28:42Z</time>
      </trkpt>
      <trkpt lat="45.69292" lon="4.74668">
        <ele>293.7</ele>
        <time>2021-09-04T19:28:43Z</time>
      </trkpt>
      <trkpt lat="45.69295" lon="4.74668">
        <ele>293.7</ele>
        <time>2021-09-04T19:28:44Z</time>
      </trkpt>
      <trkpt lat="45.693" lon="4.74668">
        <ele>293.8</ele>
        <time>2021-09-04T19:28:46Z</time>
      </trkpt>
      <trkpt lat="45.69304" lon="4.74668">
        <ele>293.8</ele>
        <time>2021-09-04T19:28:47Z</time>
      </trkpt>
      <trkpt lat="45.69308" lon="4.74669">
        <ele>293.8</ele>
        <time>2021-09-04T19:28:48Z</time>
      </trkpt>
      <trkpt lat="45.69353" lon="4.74676">
        <ele>294.4</ele>
        <time>2021-09-04T19:28:50Z</time>
      </trkpt>
      <trkpt lat="45.69364" lon="4.74678">
        <ele>294.6</ele>
        <time>2021-09-04T19:28:51Z</time>
      </trkpt>
      <trkpt lat="45.69379" lon="4.74681">
        <ele>294.8</ele>
        <time>2021-09-04T19:28:53Z</time>
      </trkpt>
      <trkpt lat="45.69392" lon="4.74683">
        <ele>295.1</ele>
        <time>2021-09-04T19:28:55Z</time>
      </trkpt>
      <trkpt lat="45.69405" lon="4.74682">
        <ele>295.3</ele>
        <time>2021-09-04T19:28:57Z</time>
      </trkpt>
      <trkpt lat="45.69411" lon="4.74681">
        <ele>295.3</ele>
        <time>2021-09-04T19:28:58Z</time>
      </trkpt>
      <trkpt lat="45.69422" lon="4.74677">
        <ele>295.5</ele>
        <time>2021-09-04T19:29:00Z</time>
      </trkpt>
      <trkpt lat="45.69433" lon="4.74674">
        <ele>295.7</ele>
        <time>2021-09-04T19:29:02Z</time>
      </trkpt>
      <trkpt lat="45.69438" lon="4.74672">
        <ele>295.7</ele>
        <time>2021-09-04T19:29:03Z</time>
      </trkpt>
      <trkpt lat="45.69443" lon="4.74671">
        <ele>295.8</ele>
        <time>2021-09-04T19:29:04Z</time>
      </trkpt>
      <trkpt lat="45.69454" lon="4.74668">
        <ele>295.9</ele>
        <time>2021-09-04T19:29:06Z</time>
      </trkpt>
      <trkpt lat="45.69459" lon="4.74667">
        <ele>296</ele>
        <time>2021-09-04T19:29:07Z</time>
      </trkpt>
      <trkpt lat="45.69465" lon="4.74665">
        <ele>296.1</ele>
        <time>2021-09-04T19:29:08Z</time>
      </trkpt>
      <trkpt lat="45.69469" lon="4.74664">
        <ele>296.2</ele>
        <time>2021-09-04T19:29:09Z</time>
      </trkpt>
      <trkpt lat="45.6948" lon="4.74663">
        <ele>296.4</ele>
        <time>2021-09-04T19:29:11Z</time>
      </trkpt>
      <trkpt lat="45.69485" lon="4.74661">
        <ele>296.5</ele>
        <time>2021-09-04T19:29:12Z</time>
      </trkpt>
      <trkpt lat="45.69495" lon="4.74659">
        <ele>296.7</ele>
        <time>2021-09-04T19:29:14Z</time>
      </trkpt>
      <trkpt lat="45.695" lon="4.74658">
        <ele>296.8</ele>
        <time>2021-09-04T19:29:15Z</time>
      </trkpt>
      <trkpt lat="45.69511" lon="4.74656">
        <ele>297</ele>
        <time>2021-09-04T19:29:17Z</time>
      </trkpt>
      <trkpt lat="45.69515" lon="4.74655">
        <ele>297.1</ele>
        <time>2021-09-04T19:29:18Z</time>
      </trkpt>
      <trkpt lat="45.69525" lon="4.74653">
        <ele>297.4</ele>
        <time>2021-09-04T19:29:20Z</time>
      </trkpt>
      <trkpt lat="45.6953" lon="4.74651">
        <ele>297.5</ele>
        <time>2021-09-04T19:29:21Z</time>
      </trkpt>
      <trkpt lat="45.69535" lon="4.7465">
        <ele>297.6</ele>
        <time>2021-09-04T19:29:22Z</time>
      </trkpt>
      <trkpt lat="45.69545" lon="4.74646">
        <ele>297.8</ele>
        <time>2021-09-04T19:29:24Z</time>
      </trkpt>
      <trkpt lat="45.6955" lon="4.74644">
        <ele>297.9</ele>
        <time>2021-09-04T19:29:25Z</time>
      </trkpt>
      <trkpt lat="45.6956" lon="4.74641">
        <ele>298.1</ele>
        <time>2021-09-04T19:29:27Z</time>
      </trkpt>
      <trkpt lat="45.69565" lon="4.74638">
        <ele>298.2</ele>
        <time>2021-09-04T19:29:28Z</time>
      </trkpt>
      <trkpt lat="45.6957" lon="4.74637">
        <ele>298.3</ele>
        <time>2021-09-04T19:29:29Z</time>
      </trkpt>
      <trkpt lat="45.69579" lon="4.74633">
        <ele>298.5</ele>
        <time>2021-09-04T19:29:31Z</time>
      </trkpt>
      <trkpt lat="45.69589" lon="4.74629">
        <ele>298.7</ele>
        <time>2021-09-04T19:29:33Z</time>
      </trkpt>
      <trkpt lat="45.69594" lon="4.74627">
        <ele>298.8</ele>
        <time>2021-09-04T19:29:34Z</time>
      </trkpt>
      <trkpt lat="45.69599" lon="4.74625">
        <ele>298.9</ele>
        <time>2021-09-04T19:29:35Z</time>
      </trkpt>
      <trkpt lat="45.69609" lon="4.74622">
        <ele>299.1</ele>
        <time>2021-09-04T19:29:37Z</time>
      </trkpt>
      <trkpt lat="45.69614" lon="4.74619">
        <ele>299.2</ele>
        <time>2021-09-04T19:29:38Z</time>
      </trkpt>
      <trkpt lat="45.69623" lon="4.74615">
        <ele>299.3</ele>
        <time>2021-09-04T19:29:40Z</time>
      </trkpt>
      <trkpt lat="45.69628" lon="4.74614">
        <ele>299.4</ele>
        <time>2021-09-04T19:29:41Z</time>
      </trkpt>
      <trkpt lat="45.69637" lon="4.74609">
        <ele>299.7</ele>
        <time>2021-09-04T19:29:43Z</time>
      </trkpt>
      <trkpt lat="45.69641" lon="4.74607">
        <ele>299.8</ele>
        <time>2021-09-04T19:29:44Z</time>
      </trkpt>
      <trkpt lat="45.6965" lon="4.74602">
        <ele>300.1</ele>
        <time>2021-09-04T19:29:46Z</time>
      </trkpt>
      <trkpt lat="45.69655" lon="4.746">
        <ele>300.2</ele>
        <time>2021-09-04T19:29:47Z</time>
      </trkpt>
      <trkpt lat="45.6966" lon="4.74598">
        <ele>300.3</ele>
        <time>2021-09-04T19:29:48Z</time>
      </trkpt>
      <trkpt lat="45.69669" lon="4.74594">
        <ele>300.6</ele>
        <time>2021-09-04T19:29:50Z</time>
      </trkpt>
      <trkpt lat="45.69678" lon="4.7459">
        <ele>300.9</ele>
        <time>2021-09-04T19:29:52Z</time>
      </trkpt>
      <trkpt lat="45.69682" lon="4.74588">
        <ele>301</ele>
        <time>2021-09-04T19:29:53Z</time>
      </trkpt>
      <trkpt lat="45.6969" lon="4.74584">
        <ele>301.2</ele>
        <time>2021-09-04T19:29:55Z</time>
      </trkpt>
      <trkpt lat="45.69695" lon="4.74583">
        <ele>301.3</ele>
        <time>2021-09-04T19:29:56Z</time>
      </trkpt>
      <trkpt lat="45.69699" lon="4.74581">
        <ele>301.4</ele>
        <time>2021-09-04T19:29:57Z</time>
      </trkpt>
      <trkpt lat="45.69702" lon="4.74581">
        <ele>301.5</ele>
        <time>2021-09-04T19:29:58Z</time>
      </trkpt>
      <trkpt lat="45.69712" lon="4.7458">
        <ele>301.7</ele>
        <time>2021-09-04T19:30:00Z</time>
      </trkpt>
      <trkpt lat="45.69717" lon="4.7458">
        <ele>301.7</ele>
        <time>2021-09-04T19:30:01Z</time>
      </trkpt>
      <trkpt lat="45.69721" lon="4.7458">
        <ele>301.8</ele>
        <time>2021-09-04T19:30:02Z</time>
      </trkpt>
      <trkpt lat="45.69731" lon="4.7458">
        <ele>301.9</ele>
        <time>2021-09-04T19:30:04Z</time>
      </trkpt>
      <trkpt lat="45.69741" lon="4.74579">
        <ele>302</ele>
        <time>2021-09-04T19:30:06Z</time>
      </trkpt>
      <trkpt lat="45.69752" lon="4.74579">
        <ele>302</ele>
        <time>2021-09-04T19:30:08Z</time>
      </trkpt>
      <trkpt lat="45.69762" lon="4.74579">
        <ele>302.1</ele>
        <time>2021-09-04T19:30:10Z</time>
      </trkpt>
      <trkpt lat="45.69767" lon="4.74579">
        <ele>302.2</ele>
        <time>2021-09-04T19:30:11Z</time>
      </trkpt>
      <trkpt lat="45.69777" lon="4.74579">
        <ele>302.4</ele>
        <time>2021-09-04T19:30:13Z</time>
      </trkpt>
      <trkpt lat="45.69787" lon="4.74581">
        <ele>302.5</ele>
        <time>2021-09-04T19:30:15Z</time>
      </trkpt>
      <trkpt lat="45.69791" lon="4.74583">
        <ele>302.6</ele>
        <time>2021-09-04T19:30:16Z</time>
      </trkpt>
      <trkpt lat="45.69801" lon="4.74587">
        <ele>302.7</ele>
        <time>2021-09-04T19:30:18Z</time>
      </trkpt>
      <trkpt lat="45.69809" lon="4.74593">
        <ele>302.9</ele>
        <time>2021-09-04T19:30:20Z</time>
      </trkpt>
      <trkpt lat="45.69813" lon="4.74596">
        <ele>303</ele>
        <time>2021-09-04T19:30:21Z</time>
      </trkpt>
      <trkpt lat="45.69821" lon="4.74604">
        <ele>303.2</ele>
        <time>2021-09-04T19:30:23Z</time>
      </trkpt>
      <trkpt lat="45.69826" lon="4.74608">
        <ele>303.3</ele>
        <time>2021-09-04T19:30:24Z</time>
      </trkpt>
      <trkpt lat="45.69833" lon="4.74618">
        <ele>303.6</ele>
        <time>2021-09-04T19:30:26Z</time>
      </trkpt>
      <trkpt lat="45.69837" lon="4.74624">
        <ele>303.8</ele>
        <time>2021-09-04T19:30:27Z</time>
      </trkpt>
      <trkpt lat="45.69844" lon="4.74635">
        <ele>304.2</ele>
        <time>2021-09-04T19:30:29Z</time>
      </trkpt>
      <trkpt lat="45.69848" lon="4.74641">
        <ele>304.4</ele>
        <time>2021-09-04T19:30:30Z</time>
      </trkpt>
      <trkpt lat="45.69852" lon="4.74646">
        <ele>304.6</ele>
        <time>2021-09-04T19:30:31Z</time>
      </trkpt>
      <trkpt lat="45.69856" lon="4.74651">
        <ele>304.8</ele>
        <time>2021-09-04T19:30:32Z</time>
      </trkpt>
      <trkpt lat="45.69863" lon="4.74661">
        <ele>305.3</ele>
        <time>2021-09-04T19:30:34Z</time>
      </trkpt>
      <trkpt lat="45.69866" lon="4.74666">
        <ele>305.5</ele>
        <time>2021-09-04T19:30:35Z</time>
      </trkpt>
      <trkpt lat="45.6987" lon="4.7467">
        <ele>305.7</ele>
        <time>2021-09-04T19:30:36Z</time>
      </trkpt>
      <trkpt lat="45.69877" lon="4.7468">
        <ele>306</ele>
        <time>2021-09-04T19:30:38Z</time>
      </trkpt>
      <trkpt lat="45.69881" lon="4.74685">
        <ele>306.1</ele>
        <time>2021-09-04T19:30:39Z</time>
      </trkpt>
      <trkpt lat="45.69887" lon="4.74696">
        <ele>306.4</ele>
        <time>2021-09-04T19:30:41Z</time>
      </trkpt>
      <trkpt lat="45.69891" lon="4.74702">
        <ele>306.4</ele>
        <time>2021-09-04T19:30:42Z</time>
      </trkpt>
      <trkpt lat="45.69897" lon="4.74714">
        <ele>306.6</ele>
        <time>2021-09-04T19:30:44Z</time>
      </trkpt>
      <trkpt lat="45.69901" lon="4.7472">
        <ele>306.6</ele>
        <time>2021-09-04T19:30:45Z</time>
      </trkpt>
      <trkpt lat="45.69908" lon="4.74732">
        <ele>306.5</ele>
        <time>2021-09-04T19:30:47Z</time>
      </trkpt>
      <trkpt lat="45.69917" lon="4.74739">
        <ele>306.7</ele>
        <time>2021-09-04T19:30:49Z</time>
      </trkpt>
      <trkpt lat="45.69923" lon="4.74741">
        <ele>306.7</ele>
        <time>2021-09-04T19:30:50Z</time>
      </trkpt>
      <trkpt lat="45.69929" lon="4.74741">
        <ele>306.8</ele>
        <time>2021-09-04T19:30:51Z</time>
      </trkpt>
      <trkpt lat="45.6994" lon="4.74735">
        <ele>307</ele>
        <time>2021-09-04T19:30:53Z</time>
      </trkpt>
      <trkpt lat="45.69946" lon="4.74732">
        <ele>307.1</ele>
        <time>2021-09-04T19:30:54Z</time>
      </trkpt>
      <trkpt lat="45.69951" lon="4.74729">
        <ele>307.2</ele>
        <time>2021-09-04T19:30:55Z</time>
      </trkpt>
      <trkpt lat="45.69961" lon="4.74723">
        <ele>307.4</ele>
        <time>2021-09-04T19:30:57Z</time>
      </trkpt>
      <trkpt lat="45.69971" lon="4.74718">
        <ele>307.6</ele>
        <time>2021-09-04T19:30:59Z</time>
      </trkpt>
      <trkpt lat="45.69976" lon="4.74715">
        <ele>307.8</ele>
        <time>2021-09-04T19:31:00Z</time>
      </trkpt>
      <trkpt lat="45.69986" lon="4.7471">
        <ele>308.2</ele>
        <time>2021-09-04T19:31:02Z</time>
      </trkpt>
      <trkpt lat="45.69991" lon="4.74708">
        <ele>308.3</ele>
        <time>2021-09-04T19:31:03Z</time>
      </trkpt>
      <trkpt lat="45.7" lon="4.74703">
        <ele>308.7</ele>
        <time>2021-09-04T19:31:05Z</time>
      </trkpt>
      <trkpt lat="45.70005" lon="4.747">
        <ele>308.9</ele>
        <time>2021-09-04T19:31:06Z</time>
      </trkpt>
      <trkpt lat="45.7001" lon="4.74698">
        <ele>309</ele>
        <time>2021-09-04T19:31:07Z</time>
      </trkpt>
      <trkpt lat="45.70019" lon="4.74693">
        <ele>309.4</ele>
        <time>2021-09-04T19:31:09Z</time>
      </trkpt>
      <trkpt lat="45.70026" lon="4.7469">
        <ele>309.7</ele>
        <time>2021-09-04T19:31:11Z</time>
      </trkpt>
      <trkpt lat="45.70033" lon="4.74687">
        <ele>310.1</ele>
        <time>2021-09-04T19:31:13Z</time>
      </trkpt>
      <trkpt lat="45.70042" lon="4.74683">
        <ele>310.6</ele>
        <time>2021-09-04T19:31:15Z</time>
      </trkpt>
      <trkpt lat="45.70049" lon="4.74679">
        <ele>311</ele>
        <time>2021-09-04T19:31:17Z</time>
      </trkpt>
      <trkpt lat="45.70053" lon="4.74678">
        <ele>311.2</ele>
        <time>2021-09-04T19:31:18Z</time>
      </trkpt>
      <trkpt lat="45.70059" lon="4.74675">
        <ele>311.6</ele>
        <time>2021-09-04T19:31:20Z</time>
      </trkpt>
      <trkpt lat="45.70064" lon="4.74671">
        <ele>311.9</ele>
        <time>2021-09-04T19:31:21Z</time>
      </trkpt>
      <trkpt lat="45.70068" lon="4.74668">
        <ele>312.1</ele>
        <time>2021-09-04T19:31:22Z</time>
      </trkpt>
      <trkpt lat="45.70074" lon="4.74663">
        <ele>312.4</ele>
        <time>2021-09-04T19:31:24Z</time>
      </trkpt>
      <trkpt lat="45.70079" lon="4.74658">
        <ele>312.7</ele>
        <time>2021-09-04T19:31:25Z</time>
      </trkpt>
      <trkpt lat="45.70083" lon="4.74654">
        <ele>312.8</ele>
        <time>2021-09-04T19:31:26Z</time>
      </trkpt>
      <trkpt lat="45.70088" lon="4.74649">
        <ele>313.1</ele>
        <time>2021-09-04T19:31:28Z</time>
      </trkpt>
      <trkpt lat="45.70094" lon="4.74644">
        <ele>313.3</ele>
        <time>2021-09-04T19:31:29Z</time>
      </trkpt>
      <trkpt lat="45.701" lon="4.74638">
        <ele>313.5</ele>
        <time>2021-09-04T19:31:31Z</time>
      </trkpt>
      <trkpt lat="45.70105" lon="4.74632">
        <ele>313.8</ele>
        <time>2021-09-04T19:31:33Z</time>
      </trkpt>
      <trkpt lat="45.7011" lon="4.74627">
        <ele>314</ele>
        <time>2021-09-04T19:31:34Z</time>
      </trkpt>
      <trkpt lat="45.70113" lon="4.74624">
        <ele>314.1</ele>
        <time>2021-09-04T19:31:35Z</time>
      </trkpt>
      <trkpt lat="45.70116" lon="4.74621">
        <ele>314.2</ele>
        <time>2021-09-04T19:31:36Z</time>
      </trkpt>
      <trkpt lat="45.70121" lon="4.74617">
        <ele>314.4</ele>
        <time>2021-09-04T19:31:38Z</time>
      </trkpt>
      <trkpt lat="45.70125" lon="4.74613">
        <ele>314.5</ele>
        <time>2021-09-04T19:31:40Z</time>
      </trkpt>
      <trkpt lat="45.70129" lon="4.74612">
        <ele>314.6</ele>
        <time>2021-09-04T19:31:41Z</time>
      </trkpt>
      <trkpt lat="45.70135" lon="4.74611">
        <ele>314.7</ele>
        <time>2021-09-04T19:31:43Z</time>
      </trkpt>
      <trkpt lat="45.70139" lon="4.7461">
        <ele>314.8</ele>
        <time>2021-09-04T19:31:44Z</time>
      </trkpt>
      <trkpt lat="45.70142" lon="4.74609">
        <ele>314.8</ele>
        <time>2021-09-04T19:31:45Z</time>
      </trkpt>
      <trkpt lat="45.70148" lon="4.74608">
        <ele>314.9</ele>
        <time>2021-09-04T19:31:47Z</time>
      </trkpt>
      <trkpt lat="45.70152" lon="4.74607">
        <ele>314.9</ele>
        <time>2021-09-04T19:31:48Z</time>
      </trkpt>
      <trkpt lat="45.70155" lon="4.74607">
        <ele>314.9</ele>
        <time>2021-09-04T19:31:49Z</time>
      </trkpt>
      <trkpt lat="45.70159" lon="4.74607">
        <ele>314.8</ele>
        <time>2021-09-04T19:31:50Z</time>
      </trkpt>
      <trkpt lat="45.70166" lon="4.74606">
        <ele>314.8</ele>
        <time>2021-09-04T19:31:52Z</time>
      </trkpt>
      <trkpt lat="45.70169" lon="4.74605">
        <ele>314.8</ele>
        <time>2021-09-04T19:31:53Z</time>
      </trkpt>
      <trkpt lat="45.70172" lon="4.74604">
        <ele>314.7</ele>
        <time>2021-09-04T19:31:54Z</time>
      </trkpt>
      <trkpt lat="45.70175" lon="4.74603">
        <ele>314.7</ele>
        <time>2021-09-04T19:31:55Z</time>
      </trkpt>
      <trkpt lat="45.70179" lon="4.74603">
        <ele>314.7</ele>
        <time>2021-09-04T19:31:56Z</time>
      </trkpt>
      <trkpt lat="45.70186" lon="4.74602">
        <ele>314.6</ele>
        <time>2021-09-04T19:31:58Z</time>
      </trkpt>
      <trkpt lat="45.70191" lon="4.74601">
        <ele>314.6</ele>
        <time>2021-09-04T19:31:59Z</time>
      </trkpt>
      <trkpt lat="45.70195" lon="4.746">
        <ele>314.5</ele>
        <time>2021-09-04T19:32:00Z</time>
      </trkpt>
      <trkpt lat="45.70202" lon="4.74599">
        <ele>314.4</ele>
        <time>2021-09-04T19:32:02Z</time>
      </trkpt>
      <trkpt lat="45.7021" lon="4.74599">
        <ele>314.3</ele>
        <time>2021-09-04T19:32:04Z</time>
      </trkpt>
      <trkpt lat="45.70218" lon="4.74598">
        <ele>314.2</ele>
        <time>2021-09-04T19:32:05Z</time>
      </trkpt>
      <trkpt lat="45.70226" lon="4.74597">
        <ele>314.1</ele>
        <time>2021-09-04T19:32:07Z</time>
      </trkpt>
      <trkpt lat="45.70228" lon="4.74595">
        <ele>314</ele>
        <time>2021-09-04T19:32:08Z</time>
      </trkpt>
      <trkpt lat="45.70237" lon="4.74593">
        <ele>313.9</ele>
        <time>2021-09-04T19:32:10Z</time>
      </trkpt>
      <trkpt lat="45.70248" lon="4.74592">
        <ele>313.8</ele>
        <time>2021-09-04T19:32:12Z</time>
      </trkpt>
      <trkpt lat="45.70253" lon="4.74591">
        <ele>313.7</ele>
        <time>2021-09-04T19:32:13Z</time>
      </trkpt>
      <trkpt lat="45.70258" lon="4.74591">
        <ele>313.6</ele>
        <time>2021-09-04T19:32:14Z</time>
      </trkpt>
      <trkpt lat="45.70268" lon="4.74591">
        <ele>313.5</ele>
        <time>2021-09-04T19:32:16Z</time>
      </trkpt>
      <trkpt lat="45.70274" lon="4.74591">
        <ele>313.5</ele>
        <time>2021-09-04T19:32:17Z</time>
      </trkpt>
      <trkpt lat="45.70279" lon="4.74591">
        <ele>313.4</ele>
        <time>2021-09-04T19:32:18Z</time>
      </trkpt>
      <trkpt lat="45.70284" lon="4.74589">
        <ele>313.4</ele>
        <time>2021-09-04T19:32:19Z</time>
      </trkpt>
      <trkpt lat="45.70289" lon="4.74589">
        <ele>313.3</ele>
        <time>2021-09-04T19:32:20Z</time>
      </trkpt>
      <trkpt lat="45.70299" lon="4.74587">
        <ele>313.2</ele>
        <time>2021-09-04T19:32:22Z</time>
      </trkpt>
      <trkpt lat="45.70304" lon="4.74587">
        <ele>313.2</ele>
        <time>2021-09-04T19:32:23Z</time>
      </trkpt>
      <trkpt lat="45.70314" lon="4.74586">
        <ele>313.1</ele>
        <time>2021-09-04T19:32:25Z</time>
      </trkpt>
      <trkpt lat="45.70323" lon="4.74586">
        <ele>313</ele>
        <time>2021-09-04T19:32:27Z</time>
      </trkpt>
      <trkpt lat="45.70328" lon="4.74586">
        <ele>313</ele>
        <time>2021-09-04T19:32:28Z</time>
      </trkpt>
      <trkpt lat="45.70338" lon="4.74585">
        <ele>312.9</ele>
        <time>2021-09-04T19:32:30Z</time>
      </trkpt>
      <trkpt lat="45.70347" lon="4.74582">
        <ele>312.8</ele>
        <time>2021-09-04T19:32:32Z</time>
      </trkpt>
      <trkpt lat="45.70352" lon="4.74582">
        <ele>312.7</ele>
        <time>2021-09-04T19:32:33Z</time>
      </trkpt>
      <trkpt lat="45.70362" lon="4.7458">
        <ele>312.6</ele>
        <time>2021-09-04T19:32:35Z</time>
      </trkpt>
      <trkpt lat="45.70366" lon="4.74579">
        <ele>312.6</ele>
        <time>2021-09-04T19:32:36Z</time>
      </trkpt>
      <trkpt lat="45.70371" lon="4.74578">
        <ele>312.5</ele>
        <time>2021-09-04T19:32:37Z</time>
      </trkpt>
      <trkpt lat="45.70375" lon="4.74578">
        <ele>312.5</ele>
        <time>2021-09-04T19:32:38Z</time>
      </trkpt>
      <trkpt lat="45.70384" lon="4.74578">
        <ele>312.4</ele>
        <time>2021-09-04T19:32:40Z</time>
      </trkpt>
      <trkpt lat="45.70389" lon="4.74578">
        <ele>312.3</ele>
        <time>2021-09-04T19:32:41Z</time>
      </trkpt>
      <trkpt lat="45.70397" lon="4.74578">
        <ele>312.2</ele>
        <time>2021-09-04T19:32:43Z</time>
      </trkpt>
      <trkpt lat="45.70406" lon="4.74579">
        <ele>312</ele>
        <time>2021-09-04T19:32:45Z</time>
      </trkpt>
      <trkpt lat="45.70414" lon="4.74576">
        <ele>311.9</ele>
        <time>2021-09-04T19:32:47Z</time>
      </trkpt>
      <trkpt lat="45.70419" lon="4.74576">
        <ele>311.9</ele>
        <time>2021-09-04T19:32:48Z</time>
      </trkpt>
      <trkpt lat="45.70429" lon="4.74575">
        <ele>311.8</ele>
        <time>2021-09-04T19:32:50Z</time>
      </trkpt>
      <trkpt lat="45.70433" lon="4.74575">
        <ele>311.8</ele>
        <time>2021-09-04T19:32:51Z</time>
      </trkpt>
      <trkpt lat="45.70437" lon="4.74573">
        <ele>311.8</ele>
        <time>2021-09-04T19:32:53Z</time>
      </trkpt>
      <trkpt lat="45.70445" lon="4.74578">
        <ele>311.8</ele>
        <time>2021-09-04T19:32:54Z</time>
      </trkpt>
      <trkpt lat="45.70456" lon="4.74583">
        <ele>311.8</ele>
        <time>2021-09-04T19:32:56Z</time>
      </trkpt>
      <trkpt lat="45.7046" lon="4.74587">
        <ele>311.8</ele>
        <time>2021-09-04T19:32:57Z</time>
      </trkpt>
      <trkpt lat="45.70465" lon="4.74589">
        <ele>311.8</ele>
        <time>2021-09-04T19:32:58Z</time>
      </trkpt>
      <trkpt lat="45.70474" lon="4.74595">
        <ele>311.7</ele>
        <time>2021-09-04T19:33:00Z</time>
      </trkpt>
      <trkpt lat="45.70484" lon="4.74599">
        <ele>311.5</ele>
        <time>2021-09-04T19:33:02Z</time>
      </trkpt>
      <trkpt lat="45.70487" lon="4.746">
        <ele>311.4</ele>
        <time>2021-09-04T19:33:03Z</time>
      </trkpt>
      <trkpt lat="45.70496" lon="4.74606">
        <ele>311.1</ele>
        <time>2021-09-04T19:33:05Z</time>
      </trkpt>
      <trkpt lat="45.70508" lon="4.74611">
        <ele>310.7</ele>
        <time>2021-09-04T19:33:07Z</time>
      </trkpt>
      <trkpt lat="45.70519" lon="4.74614">
        <ele>310.3</ele>
        <time>2021-09-04T19:33:09Z</time>
      </trkpt>
      <trkpt lat="45.70524" lon="4.74617">
        <ele>310</ele>
        <time>2021-09-04T19:33:10Z</time>
      </trkpt>
      <trkpt lat="45.70534" lon="4.7462">
        <ele>309.6</ele>
        <time>2021-09-04T19:33:12Z</time>
      </trkpt>
      <trkpt lat="45.70538" lon="4.74624">
        <ele>309.4</ele>
        <time>2021-09-04T19:33:14Z</time>
      </trkpt>
      <trkpt lat="45.70543" lon="4.74626">
        <ele>309.2</ele>
        <time>2021-09-04T19:33:15Z</time>
      </trkpt>
      <trkpt lat="45.70548" lon="4.74628">
        <ele>308.9</ele>
        <time>2021-09-04T19:33:17Z</time>
      </trkpt>
      <trkpt lat="45.7055" lon="4.7463">
        <ele>308.8</ele>
        <time>2021-09-04T19:33:18Z</time>
      </trkpt>
      <trkpt lat="45.7055" lon="4.74635">
        <ele>308.6</ele>
        <time>2021-09-04T19:33:20Z</time>
      </trkpt>
      <trkpt lat="45.70548" lon="4.74638">
        <ele>308.5</ele>
        <time>2021-09-04T19:33:21Z</time>
      </trkpt>
      <trkpt lat="45.70543" lon="4.74642">
        <ele>308.4</ele>
        <time>2021-09-04T19:33:22Z</time>
      </trkpt>
      <trkpt lat="45.70538" lon="4.74651">
        <ele>308.3</ele>
        <time>2021-09-04T19:33:24Z</time>
      </trkpt>
      <trkpt lat="45.70538" lon="4.74665">
        <ele>307.7</ele>
        <time>2021-09-04T19:33:26Z</time>
      </trkpt>
      <trkpt lat="45.7054" lon="4.74683">
        <ele>307</ele>
        <time>2021-09-04T19:33:28Z</time>
      </trkpt>
      <trkpt lat="45.70541" lon="4.74692">
        <ele>306.7</ele>
        <time>2021-09-04T19:33:29Z</time>
      </trkpt>
      <trkpt lat="45.70543" lon="4.74701">
        <ele>306.3</ele>
        <time>2021-09-04T19:33:30Z</time>
      </trkpt>
      <trkpt lat="45.70545" lon="4.74719">
        <ele>305.6</ele>
        <time>2021-09-04T19:33:32Z</time>
      </trkpt>
      <trkpt lat="45.70546" lon="4.74729">
        <ele>305.1</ele>
        <time>2021-09-04T19:33:33Z</time>
      </trkpt>
      <trkpt lat="45.70549" lon="4.7475">
        <ele>303.9</ele>
        <time>2021-09-04T19:33:35Z</time>
      </trkpt>
      <trkpt lat="45.70552" lon="4.74772">
        <ele>302.5</ele>
        <time>2021-09-04T19:33:37Z</time>
      </trkpt>
      <trkpt lat="45.70553" lon="4.74784">
        <ele>301.8</ele>
        <time>2021-09-04T19:33:38Z</time>
      </trkpt>
      <trkpt lat="45.70556" lon="4.74809">
        <ele>300.3</ele>
        <time>2021-09-04T19:33:40Z</time>
      </trkpt>
      <trkpt lat="45.70558" lon="4.74822">
        <ele>299.9</ele>
        <time>2021-09-04T19:33:41Z</time>
      </trkpt>
      <trkpt lat="45.70559" lon="4.74834">
        <ele>299.6</ele>
        <time>2021-09-04T19:33:42Z</time>
      </trkpt>
      <trkpt lat="45.70562" lon="4.74847">
        <ele>298.8</ele>
        <time>2021-09-04T19:33:43Z</time>
      </trkpt>
      <trkpt lat="45.70574" lon="4.74868">
        <ele>297.2</ele>
        <time>2021-09-04T19:33:45Z</time>
      </trkpt>
      <trkpt lat="45.7059" lon="4.74884">
        <ele>296</ele>
        <time>2021-09-04T19:33:47Z</time>
      </trkpt>
      <trkpt lat="45.70599" lon="4.74887">
        <ele>295.6</ele>
        <time>2021-09-04T19:33:48Z</time>
      </trkpt>
      <trkpt lat="45.70616" lon="4.7489">
        <ele>294.9</ele>
        <time>2021-09-04T19:33:50Z</time>
      </trkpt>
      <trkpt lat="45.70632" lon="4.74889">
        <ele>294.7</ele>
        <time>2021-09-04T19:33:52Z</time>
      </trkpt>
      <trkpt lat="45.70647" lon="4.74887">
        <ele>294.5</ele>
        <time>2021-09-04T19:33:54Z</time>
      </trkpt>
      <trkpt lat="45.70654" lon="4.74888">
        <ele>294.4</ele>
        <time>2021-09-04T19:33:55Z</time>
      </trkpt>
      <trkpt lat="45.70661" lon="4.74889">
        <ele>294.2</ele>
        <time>2021-09-04T19:33:56Z</time>
      </trkpt>
      <trkpt lat="45.70667" lon="4.74891">
        <ele>293.9</ele>
        <time>2021-09-04T19:33:57Z</time>
      </trkpt>
      <trkpt lat="45.70678" lon="4.74897">
        <ele>293.4</ele>
        <time>2021-09-04T19:33:59Z</time>
      </trkpt>
      <trkpt lat="45.70689" lon="4.74907">
        <ele>292.6</ele>
        <time>2021-09-04T19:34:01Z</time>
      </trkpt>
      <trkpt lat="45.70695" lon="4.74909">
        <ele>292.3</ele>
        <time>2021-09-04T19:34:02Z</time>
      </trkpt>
      <trkpt lat="45.70702" lon="4.74907">
        <ele>292.3</ele>
        <time>2021-09-04T19:34:03Z</time>
      </trkpt>
      <trkpt lat="45.70707" lon="4.74902">
        <ele>292.4</ele>
        <time>2021-09-04T19:34:04Z</time>
      </trkpt>
      <trkpt lat="45.70715" lon="4.74894">
        <ele>292.5</ele>
        <time>2021-09-04T19:34:06Z</time>
      </trkpt>
      <trkpt lat="45.70724" lon="4.74889">
        <ele>292.6</ele>
        <time>2021-09-04T19:34:08Z</time>
      </trkpt>
      <trkpt lat="45.70735" lon="4.74887">
        <ele>292.5</ele>
        <time>2021-09-04T19:34:10Z</time>
      </trkpt>
      <trkpt lat="45.70748" lon="4.74889">
        <ele>292.3</ele>
        <time>2021-09-04T19:34:12Z</time>
      </trkpt>
      <trkpt lat="45.70755" lon="4.74893">
        <ele>292.3</ele>
        <time>2021-09-04T19:34:13Z</time>
      </trkpt>
      <trkpt lat="45.70767" lon="4.74887">
        <ele>292</ele>
        <time>2021-09-04T19:34:15Z</time>
      </trkpt>
      <trkpt lat="45.70776" lon="4.74878">
        <ele>292.5</ele>
        <time>2021-09-04T19:34:17Z</time>
      </trkpt>
      <trkpt lat="45.7078" lon="4.74875">
        <ele>292.7</ele>
        <time>2021-09-04T19:34:18Z</time>
      </trkpt>
      <trkpt lat="45.70781" lon="4.74872">
        <ele>292.8</ele>
        <time>2021-09-04T19:34:19Z</time>
      </trkpt>
      <trkpt lat="45.70785" lon="4.74862">
        <ele>293.2</ele>
        <time>2021-09-04T19:34:21Z</time>
      </trkpt>
      <trkpt lat="45.70787" lon="4.74858">
        <ele>293.3</ele>
        <time>2021-09-04T19:34:22Z</time>
      </trkpt>
      <trkpt lat="45.7079" lon="4.74855">
        <ele>293.4</ele>
        <time>2021-09-04T19:34:23Z</time>
      </trkpt>
      <trkpt lat="45.70796" lon="4.74854">
        <ele>293.6</ele>
        <time>2021-09-04T19:34:25Z</time>
      </trkpt>
      <trkpt lat="45.70803" lon="4.74851">
        <ele>293.7</ele>
        <time>2021-09-04T19:34:27Z</time>
      </trkpt>
      <trkpt lat="45.70809" lon="4.74849">
        <ele>293.7</ele>
        <time>2021-09-04T19:34:28Z</time>
      </trkpt>
      <trkpt lat="45.70814" lon="4.74847">
        <ele>293.6</ele>
        <time>2021-09-04T19:34:29Z</time>
      </trkpt>
      <trkpt lat="45.70818" lon="4.74845">
        <ele>293.6</ele>
        <time>2021-09-04T19:34:31Z</time>
      </trkpt>
      <trkpt lat="45.70826" lon="4.74843">
        <ele>293.5</ele>
        <time>2021-09-04T19:34:32Z</time>
      </trkpt>
      <trkpt lat="45.7083" lon="4.74842">
        <ele>293.5</ele>
        <time>2021-09-04T19:34:33Z</time>
      </trkpt>
      <trkpt lat="45.70834" lon="4.74841">
        <ele>293.5</ele>
        <time>2021-09-04T19:34:34Z</time>
      </trkpt>
      <trkpt lat="45.7084" lon="4.74838">
        <ele>293.4</ele>
        <time>2021-09-04T19:34:36Z</time>
      </trkpt>
      <trkpt lat="45.70844" lon="4.74837">
        <ele>293.4</ele>
        <time>2021-09-04T19:34:37Z</time>
      </trkpt>
      <trkpt lat="45.70848" lon="4.74836">
        <ele>293.4</ele>
        <time>2021-09-04T19:34:38Z</time>
      </trkpt>
      <trkpt lat="45.70856" lon="4.74833">
        <ele>293.4</ele>
        <time>2021-09-04T19:34:40Z</time>
      </trkpt>
      <trkpt lat="45.70863" lon="4.74828">
        <ele>293.4</ele>
        <time>2021-09-04T19:34:42Z</time>
      </trkpt>
      <trkpt lat="45.7087" lon="4.74822">
        <ele>293.4</ele>
        <time>2021-09-04T19:34:43Z</time>
      </trkpt>
      <trkpt lat="45.70877" lon="4.74816">
        <ele>293.5</ele>
        <time>2021-09-04T19:34:45Z</time>
      </trkpt>
      <trkpt lat="45.70881" lon="4.74813">
        <ele>293.5</ele>
        <time>2021-09-04T19:34:46Z</time>
      </trkpt>
      <trkpt lat="45.70885" lon="4.74811">
        <ele>293.5</ele>
        <time>2021-09-04T19:34:47Z</time>
      </trkpt>
      <trkpt lat="45.70889" lon="4.7481">
        <ele>293.5</ele>
        <time>2021-09-04T19:34:48Z</time>
      </trkpt>
      <trkpt lat="45.70895" lon="4.74811">
        <ele>293.5</ele>
        <time>2021-09-04T19:34:50Z</time>
      </trkpt>
      <trkpt lat="45.70899" lon="4.74811">
        <ele>293.4</ele>
        <time>2021-09-04T19:34:51Z</time>
      </trkpt>
      <trkpt lat="45.70903" lon="4.74811">
        <ele>293.3</ele>
        <time>2021-09-04T19:34:52Z</time>
      </trkpt>
      <trkpt lat="45.70907" lon="4.7481">
        <ele>293.2</ele>
        <time>2021-09-04T19:34:53Z</time>
      </trkpt>
      <trkpt lat="45.70916" lon="4.7481">
        <ele>292.7</ele>
        <time>2021-09-04T19:34:55Z</time>
      </trkpt>
      <trkpt lat="45.70921" lon="4.7481">
        <ele>292.4</ele>
        <time>2021-09-04T19:34:56Z</time>
      </trkpt>
      <trkpt lat="45.70925" lon="4.74809">
        <ele>292.2</ele>
        <time>2021-09-04T19:34:57Z</time>
      </trkpt>
      <trkpt lat="45.70929" lon="4.74809">
        <ele>291.9</ele>
        <time>2021-09-04T19:34:58Z</time>
      </trkpt>
      <trkpt lat="45.70935" lon="4.74809">
        <ele>291.6</ele>
        <time>2021-09-04T19:35:00Z</time>
      </trkpt>
      <trkpt lat="45.7094" lon="4.74808">
        <ele>291.3</ele>
        <time>2021-09-04T19:35:01Z</time>
      </trkpt>
      <trkpt lat="45.70946" lon="4.74809">
        <ele>290.9</ele>
        <time>2021-09-04T19:35:03Z</time>
      </trkpt>
      <trkpt lat="45.7095" lon="4.7481">
        <ele>290.8</ele>
        <time>2021-09-04T19:35:04Z</time>
      </trkpt>
      <trkpt lat="45.70954" lon="4.74813">
        <ele>290.5</ele>
        <time>2021-09-04T19:35:05Z</time>
      </trkpt>
      <trkpt lat="45.7096" lon="4.74816">
        <ele>290.2</ele>
        <time>2021-09-04T19:35:07Z</time>
      </trkpt>
      <trkpt lat="45.70972" lon="4.74827">
        <ele>289.1</ele>
        <time>2021-09-04T19:35:08Z</time>
      </trkpt>
      <trkpt lat="45.70983" lon="4.74837">
        <ele>287.9</ele>
        <time>2021-09-04T19:35:10Z</time>
      </trkpt>
      <trkpt lat="45.70988" lon="4.74847">
        <ele>287.9</ele>
        <time>2021-09-04T19:35:12Z</time>
      </trkpt>
      <trkpt lat="45.7099" lon="4.74855">
        <ele>287.7</ele>
        <time>2021-09-04T19:35:14Z</time>
      </trkpt>
      <trkpt lat="45.70987" lon="4.74862">
        <ele>287.5</ele>
        <time>2021-09-04T19:35:15Z</time>
      </trkpt>
      <trkpt lat="45.70985" lon="4.74867">
        <ele>287.3</ele>
        <time>2021-09-04T19:35:16Z</time>
      </trkpt>
      <trkpt lat="45.70973" lon="4.74874">
        <ele>286.8</ele>
        <time>2021-09-04T19:35:18Z</time>
      </trkpt>
      <trkpt lat="45.7096" lon="4.74876">
        <ele>286.4</ele>
        <time>2021-09-04T19:35:20Z</time>
      </trkpt>
      <trkpt lat="45.70948" lon="4.7488">
        <ele>286.1</ele>
        <time>2021-09-04T19:35:22Z</time>
      </trkpt>
      <trkpt lat="45.70944" lon="4.74882">
        <ele>285.9</ele>
        <time>2021-09-04T19:35:23Z</time>
      </trkpt>
      <trkpt lat="45.70939" lon="4.74884">
        <ele>285.7</ele>
        <time>2021-09-04T19:35:24Z</time>
      </trkpt>
      <trkpt lat="45.70927" lon="4.74886">
        <ele>285.4</ele>
        <time>2021-09-04T19:35:26Z</time>
      </trkpt>
      <trkpt lat="45.70921" lon="4.74887">
        <ele>285.1</ele>
        <time>2021-09-04T19:35:27Z</time>
      </trkpt>
      <trkpt lat="45.70916" lon="4.74888">
        <ele>284.9</ele>
        <time>2021-09-04T19:35:28Z</time>
      </trkpt>
      <trkpt lat="45.70904" lon="4.74891">
        <ele>284.4</ele>
        <time>2021-09-04T19:35:30Z</time>
      </trkpt>
      <trkpt lat="45.7089" lon="4.74892">
        <ele>283.8</ele>
        <time>2021-09-04T19:35:32Z</time>
      </trkpt>
      <trkpt lat="45.70884" lon="4.74893">
        <ele>283.5</ele>
        <time>2021-09-04T19:35:33Z</time>
      </trkpt>
      <trkpt lat="45.70871" lon="4.74896">
        <ele>283</ele>
        <time>2021-09-04T19:35:35Z</time>
      </trkpt>
      <trkpt lat="45.70865" lon="4.74898">
        <ele>282.8</ele>
        <time>2021-09-04T19:35:36Z</time>
      </trkpt>
      <trkpt lat="45.70854" lon="4.74905">
        <ele>282.4</ele>
        <time>2021-09-04T19:35:38Z</time>
      </trkpt>
      <trkpt lat="45.70845" lon="4.7491">
        <ele>282.1</ele>
        <time>2021-09-04T19:35:40Z</time>
      </trkpt>
      <trkpt lat="45.70832" lon="4.74918">
        <ele>281.6</ele>
        <time>2021-09-04T19:35:42Z</time>
      </trkpt>
      <trkpt lat="45.70818" lon="4.74923">
        <ele>281</ele>
        <time>2021-09-04T19:35:44Z</time>
      </trkpt>
      <trkpt lat="45.7081" lon="4.74927">
        <ele>280.7</ele>
        <time>2021-09-04T19:35:45Z</time>
      </trkpt>
      <trkpt lat="45.70803" lon="4.74932">
        <ele>280.3</ele>
        <time>2021-09-04T19:35:46Z</time>
      </trkpt>
      <trkpt lat="45.70796" lon="4.74936">
        <ele>280</ele>
        <time>2021-09-04T19:35:47Z</time>
      </trkpt>
      <trkpt lat="45.70789" lon="4.74941">
        <ele>279.7</ele>
        <time>2021-09-04T19:35:48Z</time>
      </trkpt>
      <trkpt lat="45.70777" lon="4.74953">
        <ele>279.3</ele>
        <time>2021-09-04T19:35:50Z</time>
      </trkpt>
      <trkpt lat="45.70773" lon="4.74962">
        <ele>279.1</ele>
        <time>2021-09-04T19:35:51Z</time>
      </trkpt>
      <trkpt lat="45.70768" lon="4.74981">
        <ele>278.8</ele>
        <time>2021-09-04T19:35:53Z</time>
      </trkpt>
      <trkpt lat="45.70764" lon="4.74987">
        <ele>278.6</ele>
        <time>2021-09-04T19:35:54Z</time>
      </trkpt>
      <trkpt lat="45.70756" lon="4.74999">
        <ele>278.4</ele>
        <time>2021-09-04T19:35:56Z</time>
      </trkpt>
      <trkpt lat="45.70752" lon="4.75007">
        <ele>278.2</ele>
        <time>2021-09-04T19:35:57Z</time>
      </trkpt>
      <trkpt lat="45.70747" lon="4.75024">
        <ele>277.9</ele>
        <time>2021-09-04T19:35:59Z</time>
      </trkpt>
      <trkpt lat="45.70747" lon="4.7504">
        <ele>277.8</ele>
        <time>2021-09-04T19:36:01Z</time>
      </trkpt>
      <trkpt lat="45.70748" lon="4.75048">
        <ele>277.8</ele>
        <time>2021-09-04T19:36:02Z</time>
      </trkpt>
      <trkpt lat="45.7075" lon="4.75056">
        <ele>277.8</ele>
        <time>2021-09-04T19:36:03Z</time>
      </trkpt>
      <trkpt lat="45.70751" lon="4.75063">
        <ele>277.8</ele>
        <time>2021-09-04T19:36:04Z</time>
      </trkpt>
      <trkpt lat="45.70754" lon="4.75074">
        <ele>277.8</ele>
        <time>2021-09-04T19:36:06Z</time>
      </trkpt>
      <trkpt lat="45.70754" lon="4.75081">
        <ele>277.9</ele>
        <time>2021-09-04T19:36:07Z</time>
      </trkpt>
      <trkpt lat="45.70755" lon="4.75086">
        <ele>277.9</ele>
        <time>2021-09-04T19:36:08Z</time>
      </trkpt>
      <trkpt lat="45.70756" lon="4.75093">
        <ele>277.9</ele>
        <time>2021-09-04T19:36:09Z</time>
      </trkpt>
      <trkpt lat="45.70756" lon="4.75108">
        <ele>278</ele>
        <time>2021-09-04T19:36:11Z</time>
      </trkpt>
      <trkpt lat="45.70757" lon="4.75114">
        <ele>278</ele>
        <time>2021-09-04T19:36:12Z</time>
      </trkpt>
      <trkpt lat="45.70758" lon="4.75119">
        <ele>278</ele>
        <time>2021-09-04T19:36:14Z</time>
      </trkpt>
      <trkpt lat="45.70756" lon="4.75124">
        <ele>278</ele>
        <time>2021-09-04T19:36:15Z</time>
      </trkpt>
      <trkpt lat="45.70754" lon="4.75125">
        <ele>278</ele>
        <time>2021-09-04T19:36:16Z</time>
      </trkpt>
      <trkpt lat="45.70747" lon="4.75128">
        <ele>278</ele>
        <time>2021-09-04T19:36:18Z</time>
      </trkpt>
      <trkpt lat="45.70742" lon="4.7513">
        <ele>278</ele>
        <time>2021-09-04T19:36:19Z</time>
      </trkpt>
      <trkpt lat="45.70732" lon="4.75129">
        <ele>277.9</ele>
        <time>2021-09-04T19:36:20Z</time>
      </trkpt>
      <trkpt lat="45.70722" lon="4.7513">
        <ele>277.9</ele>
        <time>2021-09-04T19:36:22Z</time>
      </trkpt>
      <trkpt lat="45.70718" lon="4.75132">
        <ele>277.8</ele>
        <time>2021-09-04T19:36:23Z</time>
      </trkpt>
      <trkpt lat="45.70711" lon="4.75131">
        <ele>277.8</ele>
        <time>2021-09-04T19:36:24Z</time>
      </trkpt>
      <trkpt lat="45.70703" lon="4.75133">
        <ele>277.7</ele>
        <time>2021-09-04T19:36:26Z</time>
      </trkpt>
      <trkpt lat="45.70696" lon="4.75134">
        <ele>277.6</ele>
        <time>2021-09-04T19:36:27Z</time>
      </trkpt>
      <trkpt lat="45.70691" lon="4.75135">
        <ele>277.5</ele>
        <time>2021-09-04T19:36:28Z</time>
      </trkpt>
      <trkpt lat="45.70683" lon="4.75137">
        <ele>277.3</ele>
        <time>2021-09-04T19:36:30Z</time>
      </trkpt>
      <trkpt lat="45.70676" lon="4.75139">
        <ele>277.1</ele>
        <time>2021-09-04T19:36:32Z</time>
      </trkpt>
      <trkpt lat="45.7067" lon="4.75141">
        <ele>276.9</ele>
        <time>2021-09-04T19:36:34Z</time>
      </trkpt>
      <trkpt lat="45.70664" lon="4.75141">
        <ele>276.4</ele>
        <time>2021-09-04T19:36:35Z</time>
      </trkpt>
      <trkpt lat="45.70655" lon="4.75136">
        <ele>275.4</ele>
        <time>2021-09-04T19:36:36Z</time>
      </trkpt>
      <trkpt lat="45.70651" lon="4.75134">
        <ele>274.8</ele>
        <time>2021-09-04T19:36:37Z</time>
      </trkpt>
      <trkpt lat="45.7064" lon="4.75134">
        <ele>273.5</ele>
        <time>2021-09-04T19:36:39Z</time>
      </trkpt>
      <trkpt lat="45.70627" lon="4.75138">
        <ele>272.4</ele>
        <time>2021-09-04T19:36:41Z</time>
      </trkpt>
      <trkpt lat="45.70614" lon="4.75143">
        <ele>271.6</ele>
        <time>2021-09-04T19:36:43Z</time>
      </trkpt>
      <trkpt lat="45.70607" lon="4.75146">
        <ele>271.2</ele>
        <time>2021-09-04T19:36:44Z</time>
      </trkpt>
      <trkpt lat="45.70601" lon="4.7515">
        <ele>270.9</ele>
        <time>2021-09-04T19:36:45Z</time>
      </trkpt>
      <trkpt lat="45.70595" lon="4.75155">
        <ele>270.6</ele>
        <time>2021-09-04T19:36:46Z</time>
      </trkpt>
      <trkpt lat="45.70583" lon="4.75168">
        <ele>270</ele>
        <time>2021-09-04T19:36:48Z</time>
      </trkpt>
      <trkpt lat="45.70572" lon="4.75183">
        <ele>269.7</ele>
        <time>2021-09-04T19:36:50Z</time>
      </trkpt>
      <trkpt lat="45.70567" lon="4.7519">
        <ele>269.5</ele>
        <time>2021-09-04T19:36:51Z</time>
      </trkpt>
      <trkpt lat="45.70562" lon="4.75197">
        <ele>269.4</ele>
        <time>2021-09-04T19:36:52Z</time>
      </trkpt>
      <trkpt lat="45.70557" lon="4.75202">
        <ele>269.3</ele>
        <time>2021-09-04T19:36:53Z</time>
      </trkpt>
      <trkpt lat="45.70553" lon="4.75208">
        <ele>269.2</ele>
        <time>2021-09-04T19:36:54Z</time>
      </trkpt>
      <trkpt lat="45.70547" lon="4.75214">
        <ele>269</ele>
        <time>2021-09-04T19:36:55Z</time>
      </trkpt>
      <trkpt lat="45.70539" lon="4.75228">
        <ele>268.6</ele>
        <time>2021-09-04T19:36:57Z</time>
      </trkpt>
      <trkpt lat="45.70535" lon="4.75234">
        <ele>268.4</ele>
        <time>2021-09-04T19:36:58Z</time>
      </trkpt>
      <trkpt lat="45.70524" lon="4.75245">
        <ele>268</ele>
        <time>2021-09-04T19:37:00Z</time>
      </trkpt>
      <trkpt lat="45.70516" lon="4.75261">
        <ele>267.5</ele>
        <time>2021-09-04T19:37:02Z</time>
      </trkpt>
      <trkpt lat="45.70509" lon="4.75274">
        <ele>267.2</ele>
        <time>2021-09-04T19:37:04Z</time>
      </trkpt>
      <trkpt lat="45.70506" lon="4.75282">
        <ele>267.1</ele>
        <time>2021-09-04T19:37:05Z</time>
      </trkpt>
      <trkpt lat="45.70499" lon="4.753">
        <ele>266.9</ele>
        <time>2021-09-04T19:37:07Z</time>
      </trkpt>
      <trkpt lat="45.70495" lon="4.75308">
        <ele>266.9</ele>
        <time>2021-09-04T19:37:08Z</time>
      </trkpt>
      <trkpt lat="45.70487" lon="4.75322">
        <ele>266.8</ele>
        <time>2021-09-04T19:37:10Z</time>
      </trkpt>
      <trkpt lat="45.70482" lon="4.75325">
        <ele>266.8</ele>
        <time>2021-09-04T19:37:11Z</time>
      </trkpt>
      <trkpt lat="45.70479" lon="4.75327">
        <ele>266.8</ele>
        <time>2021-09-04T19:37:12Z</time>
      </trkpt>
      <trkpt lat="45.70475" lon="4.75334">
        <ele>266.8</ele>
        <time>2021-09-04T19:37:14Z</time>
      </trkpt>
      <trkpt lat="45.70475" lon="4.75337">
        <ele>266.9</ele>
        <time>2021-09-04T19:37:15Z</time>
      </trkpt>
      <trkpt lat="45.70474" lon="4.75341">
        <ele>266.9</ele>
        <time>2021-09-04T19:37:17Z</time>
      </trkpt>
      <trkpt lat="45.70471" lon="4.75343">
        <ele>266.9</ele>
        <time>2021-09-04T19:37:18Z</time>
      </trkpt>
      <trkpt lat="45.7047" lon="4.75341">
        <ele>266.9</ele>
        <time>2021-09-04T19:37:19Z</time>
      </trkpt>
      <trkpt lat="45.70467" lon="4.75343">
        <ele>266.9</ele>
        <time>2021-09-04T19:37:21Z</time>
      </trkpt>
      <trkpt lat="45.70464" lon="4.75345">
        <ele>267</ele>
        <time>2021-09-04T19:37:23Z</time>
      </trkpt>
      <trkpt lat="45.70462" lon="4.75347">
        <ele>267</ele>
        <time>2021-09-04T19:37:24Z</time>
      </trkpt>
      <trkpt lat="45.70458" lon="4.75349">
        <ele>267.1</ele>
        <time>2021-09-04T19:37:26Z</time>
      </trkpt>
      <trkpt lat="45.70453" lon="4.75353">
        <ele>267.2</ele>
        <time>2021-09-04T19:37:27Z</time>
      </trkpt>
      <trkpt lat="45.70449" lon="4.75356">
        <ele>267.4</ele>
        <time>2021-09-04T19:37:29Z</time>
      </trkpt>
      <trkpt lat="45.70446" lon="4.7536">
        <ele>267.5</ele>
        <time>2021-09-04T19:37:30Z</time>
      </trkpt>
      <trkpt lat="45.70443" lon="4.75363">
        <ele>267.7</ele>
        <time>2021-09-04T19:37:31Z</time>
      </trkpt>
      <trkpt lat="45.70441" lon="4.75366">
        <ele>267.8</ele>
        <time>2021-09-04T19:37:32Z</time>
      </trkpt>
      <trkpt lat="45.70437" lon="4.7537">
        <ele>268.1</ele>
        <time>2021-09-04T19:37:34Z</time>
      </trkpt>
      <trkpt lat="45.70434" lon="4.75374">
        <ele>268.3</ele>
        <time>2021-09-04T19:37:35Z</time>
      </trkpt>
      <trkpt lat="45.7043" lon="4.75379">
        <ele>268.7</ele>
        <time>2021-09-04T19:37:37Z</time>
      </trkpt>
      <trkpt lat="45.70428" lon="4.75384">
        <ele>269</ele>
        <time>2021-09-04T19:37:38Z</time>
      </trkpt>
      <trkpt lat="45.70426" lon="4.75388">
        <ele>269.3</ele>
        <time>2021-09-04T19:37:39Z</time>
      </trkpt>
      <trkpt lat="45.70424" lon="4.75393">
        <ele>269.7</ele>
        <time>2021-09-04T19:37:41Z</time>
      </trkpt>
      <trkpt lat="45.70424" lon="4.75397">
        <ele>270</ele>
        <time>2021-09-04T19:37:42Z</time>
      </trkpt>
      <trkpt lat="45.70426" lon="4.75402">
        <ele>270.5</ele>
        <time>2021-09-04T19:37:44Z</time>
      </trkpt>
      <trkpt lat="45.70428" lon="4.75406">
        <ele>271</ele>
        <time>2021-09-04T19:37:45Z</time>
      </trkpt>
      <trkpt lat="45.70429" lon="4.75411">
        <ele>271.6</ele>
        <time>2021-09-04T19:37:47Z</time>
      </trkpt>
      <trkpt lat="45.70431" lon="4.75415">
        <ele>272</ele>
        <time>2021-09-04T19:37:48Z</time>
      </trkpt>
      <trkpt lat="45.70433" lon="4.75419">
        <ele>272.5</ele>
        <time>2021-09-04T19:37:50Z</time>
      </trkpt>
      <trkpt lat="45.70434" lon="4.75423">
        <ele>272.9</ele>
        <time>2021-09-04T19:37:51Z</time>
      </trkpt>
      <trkpt lat="45.70434" lon="4.75427">
        <ele>273.4</ele>
        <time>2021-09-04T19:37:53Z</time>
      </trkpt>
      <trkpt lat="45.70435" lon="4.75431">
        <ele>273.7</ele>
        <time>2021-09-04T19:37:54Z</time>
      </trkpt>
      <trkpt lat="45.70436" lon="4.75435">
        <ele>274.1</ele>
        <time>2021-09-04T19:37:56Z</time>
      </trkpt>
      <trkpt lat="45.70437" lon="4.75439">
        <ele>274.6</ele>
        <time>2021-09-04T19:37:57Z</time>
      </trkpt>
      <trkpt lat="45.70437" lon="4.75441">
        <ele>274.8</ele>
        <time>2021-09-04T19:37:58Z</time>
      </trkpt>
      <trkpt lat="45.70437" lon="4.75445">
        <ele>275.2</ele>
        <time>2021-09-04T19:37:59Z</time>
      </trkpt>
      <trkpt lat="45.70437" lon="4.75447">
        <ele>275.4</ele>
        <time>2021-09-04T19:38:01Z</time>
      </trkpt>
      <trkpt lat="45.70437" lon="4.75449">
        <ele>275.7</ele>
        <time>2021-09-04T19:38:02Z</time>
      </trkpt>
      <trkpt lat="45.70437" lon="4.75451">
        <ele>275.9</ele>
        <time>2021-09-04T19:38:03Z</time>
      </trkpt>
      <trkpt lat="45.70438" lon="4.75454">
        <ele>276.2</ele>
        <time>2021-09-04T19:38:04Z</time>
      </trkpt>
      <trkpt lat="45.70439" lon="4.75458">
        <ele>276.7</ele>
        <time>2021-09-04T19:38:06Z</time>
      </trkpt>
      <trkpt lat="45.7044" lon="4.7546">
        <ele>277</ele>
        <time>2021-09-04T19:38:07Z</time>
      </trkpt>
      <trkpt lat="45.7044" lon="4.75463">
        <ele>277.3</ele>
        <time>2021-09-04T19:38:09Z</time>
      </trkpt>
      <trkpt lat="45.70441" lon="4.75467">
        <ele>277.8</ele>
        <time>2021-09-04T19:38:10Z</time>
      </trkpt>
      <trkpt lat="45.70441" lon="4.75468">
        <ele>278</ele>
        <time>2021-09-04T19:38:11Z</time>
      </trkpt>
      <trkpt lat="45.70442" lon="4.75473">
        <ele>278.6</ele>
        <time>2021-09-04T19:38:13Z</time>
      </trkpt>
      <trkpt lat="45.70443" lon="4.75474">
        <ele>278.8</ele>
        <time>2021-09-04T19:38:14Z</time>
      </trkpt>
      <trkpt lat="45.70443" lon="4.75476">
        <ele>279</ele>
        <time>2021-09-04T19:38:15Z</time>
      </trkpt>
      <trkpt lat="45.70445" lon="4.75478">
        <ele>279.3</ele>
        <time>2021-09-04T19:38:17Z</time>
      </trkpt>
      <trkpt lat="45.70445" lon="4.75478">
        <ele>279.4</ele>
        <time>2021-09-04T19:38:18Z</time>
      </trkpt>
      <trkpt lat="45.70445" lon="4.75478">
        <ele>279.5</ele>
        <time>2021-09-04T19:38:19Z</time>
      </trkpt>
      <trkpt lat="45.70445" lon="4.75479">
        <ele>279.5</ele>
        <time>2021-09-04T19:38:21Z</time>
      </trkpt>
      <trkpt lat="45.70445" lon="4.75479">
        <ele>279.6</ele>
        <time>2021-09-04T19:38:23Z</time>
      </trkpt>
      <trkpt lat="45.70445" lon="4.7548">
        <ele>279.7</ele>
        <time>2021-09-04T19:38:24Z</time>
      </trkpt>
      <trkpt lat="45.70446" lon="4.7548">
        <ele>279.8</ele>
        <time>2021-09-04T19:38:25Z</time>
      </trkpt>
      <trkpt lat="45.70446" lon="4.75481">
        <ele>280</ele>
        <time>2021-09-04T19:38:27Z</time>
      </trkpt>
      <trkpt lat="45.70447" lon="4.75482">
        <ele>280.2</ele>
        <time>2021-09-04T19:38:29Z</time>
      </trkpt>
      <trkpt lat="45.70447" lon="4.75484">
        <ele>280.3</ele>
        <time>2021-09-04T19:38:30Z</time>
      </trkpt>
      <trkpt lat="45.70447" lon="4.75486">
        <ele>280.6</ele>
        <time>2021-09-04T19:38:31Z</time>
      </trkpt>
      <trkpt lat="45.70447" lon="4.75489">
        <ele>281</ele>
        <time>2021-09-04T19:38:33Z</time>
      </trkpt>
      <trkpt lat="45.70447" lon="4.7549">
        <ele>281.2</ele>
        <time>2021-09-04T19:38:34Z</time>
      </trkpt>
      <trkpt lat="45.70448" lon="4.75494">
        <ele>281.8</ele>
        <time>2021-09-04T19:38:36Z</time>
      </trkpt>
      <trkpt lat="45.70449" lon="4.75496">
        <ele>282.2</ele>
        <time>2021-09-04T19:38:38Z</time>
      </trkpt>
      <trkpt lat="45.7045" lon="4.75499">
        <ele>282.6</ele>
        <time>2021-09-04T19:38:39Z</time>
      </trkpt>
      <trkpt lat="45.70451" lon="4.75501">
        <ele>283</ele>
        <time>2021-09-04T19:38:40Z</time>
      </trkpt>
      <trkpt lat="45.70452" lon="4.75502">
        <ele>283.3</ele>
        <time>2021-09-04T19:38:42Z</time>
      </trkpt>
      <trkpt lat="45.70452" lon="4.75503">
        <ele>283.6</ele>
        <time>2021-09-04T19:38:43Z</time>
      </trkpt>
      <trkpt lat="45.70453" lon="4.75504">
        <ele>283.8</ele>
        <time>2021-09-04T19:38:44Z</time>
      </trkpt>
      <trkpt lat="45.70453" lon="4.75506">
        <ele>284</ele>
        <time>2021-09-04T19:38:46Z</time>
      </trkpt>
      <trkpt lat="45.70453" lon="4.75508">
        <ele>284.3</ele>
        <time>2021-09-04T19:38:48Z</time>
      </trkpt>
      <trkpt lat="45.70453" lon="4.75509">
        <ele>284.5</ele>
        <time>2021-09-04T19:38:49Z</time>
      </trkpt>
      <trkpt lat="45.70453" lon="4.7551">
        <ele>284.7</ele>
        <time>2021-09-04T19:38:51Z</time>
      </trkpt>
      <trkpt lat="45.70453" lon="4.75511">
        <ele>284.8</ele>
        <time>2021-09-04T19:38:52Z</time>
      </trkpt>
      <trkpt lat="45.70454" lon="4.75511">
        <ele>285</ele>
        <time>2021-09-04T19:38:54Z</time>
      </trkpt>
      <trkpt lat="45.70455" lon="4.75512">
        <ele>285.2</ele>
        <time>2021-09-04T19:38:55Z</time>
      </trkpt>
      <trkpt lat="45.70456" lon="4.75513">
        <ele>285.4</ele>
        <time>2021-09-04T19:38:57Z</time>
      </trkpt>
      <trkpt lat="45.70456" lon="4.75514">
        <ele>285.5</ele>
        <time>2021-09-04T19:38:58Z</time>
      </trkpt>
      <trkpt lat="45.70456" lon="4.75515">
        <ele>285.7</ele>
        <time>2021-09-04T19:38:59Z</time>
      </trkpt>
      <trkpt lat="45.70457" lon="4.75516">
        <ele>285.8</ele>
        <time>2021-09-04T19:39:00Z</time>
      </trkpt>
      <trkpt lat="45.70457" lon="4.75517">
        <ele>286</ele>
        <time>2021-09-04T19:39:01Z</time>
      </trkpt>
      <trkpt lat="45.70458" lon="4.75518">
        <ele>286.2</ele>
        <time>2021-09-04T19:39:03Z</time>
      </trkpt>
      <trkpt lat="45.70459" lon="4.75518">
        <ele>286.4</ele>
        <time>2021-09-04T19:39:04Z</time>
      </trkpt>
      <trkpt lat="45.7046" lon="4.75517">
        <ele>286.5</ele>
        <time>2021-09-04T19:39:05Z</time>
      </trkpt>
      <trkpt lat="45.70461" lon="4.75517">
        <ele>286.7</ele>
        <time>2021-09-04T19:39:07Z</time>
      </trkpt>
      <trkpt lat="45.70461" lon="4.75517">
        <ele>286.8</ele>
        <time>2021-09-04T19:39:08Z</time>
      </trkpt>
      <trkpt lat="45.70462" lon="4.75517">
        <ele>286.9</ele>
        <time>2021-09-04T19:39:09Z</time>
      </trkpt>
      <trkpt lat="45.70463" lon="4.75516">
        <ele>287</ele>
        <time>2021-09-04T19:39:11Z</time>
      </trkpt>
      <trkpt lat="45.70464" lon="4.75516">
        <ele>287.1</ele>
        <time>2021-09-04T19:39:12Z</time>
      </trkpt>
      <trkpt lat="45.70465" lon="4.75516">
        <ele>287.3</ele>
        <time>2021-09-04T19:39:13Z</time>
      </trkpt>
      <trkpt lat="45.70465" lon="4.75516">
        <ele>287.4</ele>
        <time>2021-09-04T19:39:14Z</time>
      </trkpt>
      <trkpt lat="45.70466" lon="4.75515">
        <ele>287.5</ele>
        <time>2021-09-04T19:39:15Z</time>
      </trkpt>
      <trkpt lat="45.70468" lon="4.75515">
        <ele>287.7</ele>
        <time>2021-09-04T19:39:17Z</time>
      </trkpt>
      <trkpt lat="45.70469" lon="4.75514">
        <ele>287.8</ele>
        <time>2021-09-04T19:39:19Z</time>
      </trkpt>
      <trkpt lat="45.7047" lon="4.75514">
        <ele>288</ele>
        <time>2021-09-04T19:39:20Z</time>
      </trkpt>
      <trkpt lat="45.70471" lon="4.75514">
        <ele>288</ele>
        <time>2021-09-04T19:39:21Z</time>
      </trkpt>
      <trkpt lat="45.70472" lon="4.75514">
        <ele>288.1</ele>
        <time>2021-09-04T19:39:22Z</time>
      </trkpt>
      <trkpt lat="45.70473" lon="4.75513">
        <ele>288.3</ele>
        <time>2021-09-04T19:39:24Z</time>
      </trkpt>
      <trkpt lat="45.70474" lon="4.75513">
        <ele>288.4</ele>
        <time>2021-09-04T19:39:25Z</time>
      </trkpt>
      <trkpt lat="45.70475" lon="4.75513">
        <ele>288.4</ele>
        <time>2021-09-04T19:39:26Z</time>
      </trkpt>
      <trkpt lat="45.70476" lon="4.75513">
        <ele>288.5</ele>
        <time>2021-09-04T19:39:28Z</time>
      </trkpt>
      <trkpt lat="45.70477" lon="4.75513">
        <ele>288.6</ele>
        <time>2021-09-04T19:39:29Z</time>
      </trkpt>
      <trkpt lat="45.70478" lon="4.75513">
        <ele>288.6</ele>
        <time>2021-09-04T19:39:31Z</time>
      </trkpt>
      <trkpt lat="45.70479" lon="4.75513">
        <ele>288.7</ele>
        <time>2021-09-04T19:39:32Z</time>
      </trkpt>
      <trkpt lat="45.7048" lon="4.75513">
        <ele>288.8</ele>
        <time>2021-09-04T19:39:49Z</time>
      </trkpt>
      <trkpt lat="45.7048" lon="4.75513">
        <ele>288.8</ele>
        <time>2021-09-04T19:39:51Z</time>
      </trkpt>
      <trkpt lat="45.70481" lon="4.75513">
        <ele>288.9</ele>
        <time>2021-09-04T19:39:52Z</time>
      </trkpt>
      <trkpt lat="45.70482" lon="4.75513">
        <ele>288.9</ele>
        <time>2021-09-04T19:39:53Z</time>
      </trkpt>
      <trkpt lat="45.70485" lon="4.75513">
        <ele>289.1</ele>
        <time>2021-09-04T19:39:55Z</time>
      </trkpt>
      <trkpt lat="45.70487" lon="4.75513">
        <ele>289.2</ele>
        <time>2021-09-04T19:39:56Z</time>
      </trkpt>
      <trkpt lat="45.70489" lon="4.75513">
        <ele>289.3</ele>
        <time>2021-09-04T19:39:57Z</time>
      </trkpt>
      <trkpt lat="45.70492" lon="4.75513">
        <ele>289.5</ele>
        <time>2021-09-04T19:39:59Z</time>
      </trkpt>
      <trkpt lat="45.70495" lon="4.75512">
        <ele>289.7</ele>
        <time>2021-09-04T19:40:00Z</time>
      </trkpt>
      <trkpt lat="45.70499" lon="4.75511">
        <ele>289.9</ele>
        <time>2021-09-04T19:40:01Z</time>
      </trkpt>
      <trkpt lat="45.705" lon="4.7551">
        <ele>290</ele>
        <time>2021-09-04T19:40:02Z</time>
      </trkpt>
      <trkpt lat="45.70503" lon="4.75509">
        <ele>290.3</ele>
        <time>2021-09-04T19:40:04Z</time>
      </trkpt>
      <trkpt lat="45.70506" lon="4.75509">
        <ele>290.4</ele>
        <time>2021-09-04T19:40:05Z</time>
      </trkpt>
      <trkpt lat="45.7051" lon="4.75509">
        <ele>290.7</ele>
        <time>2021-09-04T19:40:07Z</time>
      </trkpt>
      <trkpt lat="45.70512" lon="4.75509">
        <ele>290.8</ele>
        <time>2021-09-04T19:40:08Z</time>
      </trkpt>
      <trkpt lat="45.70515" lon="4.75508">
        <ele>291</ele>
        <time>2021-09-04T19:40:10Z</time>
      </trkpt>
      <trkpt lat="45.70518" lon="4.75509">
        <ele>291.2</ele>
        <time>2021-09-04T19:40:12Z</time>
      </trkpt>
      <trkpt lat="45.70521" lon="4.75509">
        <ele>291.4</ele>
        <time>2021-09-04T19:40:13Z</time>
      </trkpt>
      <trkpt lat="45.70524" lon="4.75511">
        <ele>291.7</ele>
        <time>2021-09-04T19:40:15Z</time>
      </trkpt>
      <trkpt lat="45.70526" lon="4.75511">
        <ele>291.8</ele>
        <time>2021-09-04T19:40:16Z</time>
      </trkpt>
      <trkpt lat="45.70528" lon="4.75511">
        <ele>292</ele>
        <time>2021-09-04T19:40:18Z</time>
      </trkpt>
      <trkpt lat="45.7053" lon="4.75512">
        <ele>292.2</ele>
        <time>2021-09-04T19:40:19Z</time>
      </trkpt>
      <trkpt lat="45.70533" lon="4.75513">
        <ele>292.4</ele>
        <time>2021-09-04T19:40:21Z</time>
      </trkpt>
      <trkpt lat="45.70535" lon="4.75514">
        <ele>292.6</ele>
        <time>2021-09-04T19:40:22Z</time>
      </trkpt>
      <trkpt lat="45.70536" lon="4.75517">
        <ele>292.7</ele>
        <time>2021-09-04T19:40:24Z</time>
      </trkpt>
      <trkpt lat="45.70539" lon="4.75518">
        <ele>293</ele>
        <time>2021-09-04T19:40:26Z</time>
      </trkpt>
      <trkpt lat="45.7054" lon="4.75519">
        <ele>293.1</ele>
        <time>2021-09-04T19:40:27Z</time>
      </trkpt>
      <trkpt lat="45.70542" lon="4.7552">
        <ele>293.3</ele>
        <time>2021-09-04T19:40:28Z</time>
      </trkpt>
      <trkpt lat="45.70544" lon="4.7552">
        <ele>293.4</ele>
        <time>2021-09-04T19:40:29Z</time>
      </trkpt>
      <trkpt lat="45.70547" lon="4.75522">
        <ele>293.7</ele>
        <time>2021-09-04T19:40:31Z</time>
      </trkpt>
      <trkpt lat="45.70549" lon="4.75524">
        <ele>293.9</ele>
        <time>2021-09-04T19:40:32Z</time>
      </trkpt>
      <trkpt lat="45.70552" lon="4.75527">
        <ele>294.4</ele>
        <time>2021-09-04T19:40:34Z</time>
      </trkpt>
      <trkpt lat="45.70555" lon="4.7553">
        <ele>294.7</ele>
        <time>2021-09-04T19:40:35Z</time>
      </trkpt>
      <trkpt lat="45.70556" lon="4.75531">
        <ele>294.8</ele>
        <time>2021-09-04T19:40:36Z</time>
      </trkpt>
      <trkpt lat="45.70557" lon="4.75534">
        <ele>295.1</ele>
        <time>2021-09-04T19:40:37Z</time>
      </trkpt>
      <trkpt lat="45.70559" lon="4.75538">
        <ele>295.5</ele>
        <time>2021-09-04T19:40:39Z</time>
      </trkpt>
      <trkpt lat="45.70562" lon="4.75541">
        <ele>295.9</ele>
        <time>2021-09-04T19:40:40Z</time>
      </trkpt>
      <trkpt lat="45.70562" lon="4.75542">
        <ele>296</ele>
        <time>2021-09-04T19:40:41Z</time>
      </trkpt>
      <trkpt lat="45.70565" lon="4.75546">
        <ele>296.5</ele>
        <time>2021-09-04T19:40:43Z</time>
      </trkpt>
      <trkpt lat="45.70565" lon="4.75548">
        <ele>296.7</ele>
        <time>2021-09-04T19:40:44Z</time>
      </trkpt>
      <trkpt lat="45.70567" lon="4.75553">
        <ele>297.2</ele>
        <time>2021-09-04T19:40:46Z</time>
      </trkpt>
      <trkpt lat="45.70568" lon="4.75557">
        <ele>297.6</ele>
        <time>2021-09-04T19:40:48Z</time>
      </trkpt>
      <trkpt lat="45.70569" lon="4.75561">
        <ele>297.9</ele>
        <time>2021-09-04T19:40:49Z</time>
      </trkpt>
      <trkpt lat="45.7057" lon="4.75565">
        <ele>298.3</ele>
        <time>2021-09-04T19:40:51Z</time>
      </trkpt>
      <trkpt lat="45.70571" lon="4.75567">
        <ele>298.5</ele>
        <time>2021-09-04T19:40:52Z</time>
      </trkpt>
      <trkpt lat="45.70573" lon="4.75571">
        <ele>298.9</ele>
        <time>2021-09-04T19:40:54Z</time>
      </trkpt>
      <trkpt lat="45.70574" lon="4.75573">
        <ele>299.1</ele>
        <time>2021-09-04T19:40:55Z</time>
      </trkpt>
      <trkpt lat="45.70575" lon="4.75578">
        <ele>299.5</ele>
        <time>2021-09-04T19:40:57Z</time>
      </trkpt>
      <trkpt lat="45.70577" lon="4.75583">
        <ele>300</ele>
        <time>2021-09-04T19:40:59Z</time>
      </trkpt>
      <trkpt lat="45.70577" lon="4.75586">
        <ele>300.2</ele>
        <time>2021-09-04T19:41:00Z</time>
      </trkpt>
      <trkpt lat="45.70578" lon="4.7559">
        <ele>300.6</ele>
        <time>2021-09-04T19:41:02Z</time>
      </trkpt>
      <trkpt lat="45.70578" lon="4.75594">
        <ele>300.9</ele>
        <time>2021-09-04T19:41:03Z</time>
      </trkpt>
      <trkpt lat="45.70579" lon="4.75595">
        <ele>301</ele>
        <time>2021-09-04T19:41:04Z</time>
      </trkpt>
      <trkpt lat="45.7058" lon="4.756">
        <ele>301.5</ele>
        <time>2021-09-04T19:41:06Z</time>
      </trkpt>
      <trkpt lat="45.7058" lon="4.75602">
        <ele>301.6</ele>
        <time>2021-09-04T19:41:07Z</time>
      </trkpt>
      <trkpt lat="45.70581" lon="4.75604">
        <ele>301.9</ele>
        <time>2021-09-04T19:41:08Z</time>
      </trkpt>
      <trkpt lat="45.70581" lon="4.75607">
        <ele>302</ele>
        <time>2021-09-04T19:41:09Z</time>
      </trkpt>
      <trkpt lat="45.70581" lon="4.75612">
        <ele>302.5</ele>
        <time>2021-09-04T19:41:11Z</time>
      </trkpt>
      <trkpt lat="45.70582" lon="4.75614">
        <ele>302.7</ele>
        <time>2021-09-04T19:41:13Z</time>
      </trkpt>
      <trkpt lat="45.70582" lon="4.75616">
        <ele>302.8</ele>
        <time>2021-09-04T19:41:14Z</time>
      </trkpt>
      <trkpt lat="45.70582" lon="4.75618">
        <ele>303</ele>
        <time>2021-09-04T19:41:15Z</time>
      </trkpt>
      <trkpt lat="45.70582" lon="4.75621">
        <ele>303.2</ele>
        <time>2021-09-04T19:41:17Z</time>
      </trkpt>
      <trkpt lat="45.70582" lon="4.75624">
        <ele>303.5</ele>
        <time>2021-09-04T19:41:18Z</time>
      </trkpt>
      <trkpt lat="45.70581" lon="4.75628">
        <ele>303.8</ele>
        <time>2021-09-04T19:41:20Z</time>
      </trkpt>
      <trkpt lat="45.70581" lon="4.7563">
        <ele>304</ele>
        <time>2021-09-04T19:41:21Z</time>
      </trkpt>
      <trkpt lat="45.70581" lon="4.75635">
        <ele>304.3</ele>
        <time>2021-09-04T19:41:23Z</time>
      </trkpt>
      <trkpt lat="45.70581" lon="4.75638">
        <ele>304.5</ele>
        <time>2021-09-04T19:41:24Z</time>
      </trkpt>
      <trkpt lat="45.70581" lon="4.75643">
        <ele>304.7</ele>
        <time>2021-09-04T19:41:26Z</time>
      </trkpt>
      <trkpt lat="45.70582" lon="4.75646">
        <ele>304.8</ele>
        <time>2021-09-04T19:41:27Z</time>
      </trkpt>
      <trkpt lat="45.70581" lon="4.75652">
        <ele>305.1</ele>
        <time>2021-09-04T19:41:29Z</time>
      </trkpt>
      <trkpt lat="45.70581" lon="4.75655">
        <ele>305.3</ele>
        <time>2021-09-04T19:41:30Z</time>
      </trkpt>
      <trkpt lat="45.70582" lon="4.7566">
        <ele>305.5</ele>
        <time>2021-09-04T19:41:32Z</time>
      </trkpt>
      <trkpt lat="45.70582" lon="4.75665">
        <ele>305.8</ele>
        <time>2021-09-04T19:41:34Z</time>
      </trkpt>
      <trkpt lat="45.70582" lon="4.75669">
        <ele>306</ele>
        <time>2021-09-04T19:41:35Z</time>
      </trkpt>
      <trkpt lat="45.70583" lon="4.75676">
        <ele>306.3</ele>
        <time>2021-09-04T19:41:37Z</time>
      </trkpt>
      <trkpt lat="45.70583" lon="4.75679">
        <ele>306.4</ele>
        <time>2021-09-04T19:41:38Z</time>
      </trkpt>
      <trkpt lat="45.70584" lon="4.75683">
        <ele>306.6</ele>
        <time>2021-09-04T19:41:40Z</time>
      </trkpt>
      <trkpt lat="45.70585" lon="4.75684">
        <ele>306.7</ele>
        <time>2021-09-04T19:41:41Z</time>
      </trkpt>
      <trkpt lat="45.70586" lon="4.75687">
        <ele>306.9</ele>
        <time>2021-09-04T19:41:43Z</time>
      </trkpt>
      <trkpt lat="45.70587" lon="4.75691">
        <ele>307</ele>
        <time>2021-09-04T19:41:44Z</time>
      </trkpt>
      <trkpt lat="45.70589" lon="4.75696">
        <ele>307.3</ele>
        <time>2021-09-04T19:41:46Z</time>
      </trkpt>
      <trkpt lat="45.70589" lon="4.757">
        <ele>307.4</ele>
        <time>2021-09-04T19:41:47Z</time>
      </trkpt>
      <trkpt lat="45.7059" lon="4.75705">
        <ele>307.6</ele>
        <time>2021-09-04T19:41:49Z</time>
      </trkpt>
      <trkpt lat="45.70591" lon="4.75707">
        <ele>307.6</ele>
        <time>2021-09-04T19:41:50Z</time>
      </trkpt>
      <trkpt lat="45.70592" lon="4.7571">
        <ele>307.8</ele>
        <time>2021-09-04T19:41:52Z</time>
      </trkpt>
      <trkpt lat="45.70594" lon="4.75715">
        <ele>307.9</ele>
        <time>2021-09-04T19:41:54Z</time>
      </trkpt>
      <trkpt lat="45.70595" lon="4.75719">
        <ele>307.9</ele>
        <time>2021-09-04T19:41:56Z</time>
      </trkpt>
      <trkpt lat="45.70596" lon="4.75722">
        <ele>308</ele>
        <time>2021-09-04T19:41:57Z</time>
      </trkpt>
      <trkpt lat="45.70597" lon="4.75727">
        <ele>308</ele>
        <time>2021-09-04T19:41:59Z</time>
      </trkpt>
      <trkpt lat="45.70597" lon="4.75732">
        <ele>308</ele>
        <time>2021-09-04T19:42:00Z</time>
      </trkpt>
      <trkpt lat="45.70597" lon="4.75733">
        <ele>308</ele>
        <time>2021-09-04T19:42:01Z</time>
      </trkpt>
      <trkpt lat="45.70599" lon="4.75735">
        <ele>308</ele>
        <time>2021-09-04T19:42:02Z</time>
      </trkpt>
      <trkpt lat="45.706" lon="4.75741">
        <ele>307.9</ele>
        <time>2021-09-04T19:42:04Z</time>
      </trkpt>
      <trkpt lat="45.70602" lon="4.75748">
        <ele>307.9</ele>
        <time>2021-09-04T19:42:06Z</time>
      </trkpt>
      <trkpt lat="45.70606" lon="4.75754">
        <ele>307.8</ele>
        <time>2021-09-04T19:42:08Z</time>
      </trkpt>
      <trkpt lat="45.70608" lon="4.75759">
        <ele>307.7</ele>
        <time>2021-09-04T19:42:09Z</time>
      </trkpt>
      <trkpt lat="45.70609" lon="4.75761">
        <ele>307.7</ele>
        <time>2021-09-04T19:42:10Z</time>
      </trkpt>
      <trkpt lat="45.70611" lon="4.75767">
        <ele>307.6</ele>
        <time>2021-09-04T19:42:12Z</time>
      </trkpt>
      <trkpt lat="45.70613" lon="4.75772">
        <ele>307.6</ele>
        <time>2021-09-04T19:42:13Z</time>
      </trkpt>
      <trkpt lat="45.70616" lon="4.75777">
        <ele>307.6</ele>
        <time>2021-09-04T19:42:15Z</time>
      </trkpt>
      <trkpt lat="45.7062" lon="4.75782">
        <ele>307.6</ele>
        <time>2021-09-04T19:42:16Z</time>
      </trkpt>
      <trkpt lat="45.70623" lon="4.75787">
        <ele>307.3</ele>
        <time>2021-09-04T19:42:18Z</time>
      </trkpt>
      <trkpt lat="45.70624" lon="4.75789">
        <ele>307.2</ele>
        <time>2021-09-04T19:42:19Z</time>
      </trkpt>
      <trkpt lat="45.70624" lon="4.75794">
        <ele>306.9</ele>
        <time>2021-09-04T19:42:21Z</time>
      </trkpt>
      <trkpt lat="45.70624" lon="4.75797">
        <ele>306.8</ele>
        <time>2021-09-04T19:42:22Z</time>
      </trkpt>
      <trkpt lat="45.70624" lon="4.75805">
        <ele>306.4</ele>
        <time>2021-09-04T19:42:24Z</time>
      </trkpt>
      <trkpt lat="45.70623" lon="4.75816">
        <ele>305.8</ele>
        <time>2021-09-04T19:42:26Z</time>
      </trkpt>
      <trkpt lat="45.70623" lon="4.7583">
        <ele>305.1</ele>
        <time>2021-09-04T19:42:27Z</time>
      </trkpt>
      <trkpt lat="45.70623" lon="4.75839">
        <ele>304.7</ele>
        <time>2021-09-04T19:42:28Z</time>
      </trkpt>
      <trkpt lat="45.70623" lon="4.7586">
        <ele>303.9</ele>
        <time>2021-09-04T19:42:30Z</time>
      </trkpt>
      <trkpt lat="45.70625" lon="4.75877">
        <ele>303.4</ele>
        <time>2021-09-04T19:42:32Z</time>
      </trkpt>
      <trkpt lat="45.70627" lon="4.75884">
        <ele>303.3</ele>
        <time>2021-09-04T19:42:33Z</time>
      </trkpt>
      <trkpt lat="45.7063" lon="4.759">
        <ele>303</ele>
        <time>2021-09-04T19:42:35Z</time>
      </trkpt>
      <trkpt lat="45.70632" lon="4.75908">
        <ele>302.9</ele>
        <time>2021-09-04T19:42:36Z</time>
      </trkpt>
      <trkpt lat="45.70634" lon="4.75924">
        <ele>302.8</ele>
        <time>2021-09-04T19:42:38Z</time>
      </trkpt>
      <trkpt lat="45.70636" lon="4.75933">
        <ele>302.7</ele>
        <time>2021-09-04T19:42:39Z</time>
      </trkpt>
      <trkpt lat="45.70637" lon="4.75942">
        <ele>302.6</ele>
        <time>2021-09-04T19:42:40Z</time>
      </trkpt>
      <trkpt lat="45.70639" lon="4.75958">
        <ele>302.4</ele>
        <time>2021-09-04T19:42:42Z</time>
      </trkpt>
      <trkpt lat="45.70639" lon="4.75966">
        <ele>302.3</ele>
        <time>2021-09-04T19:42:43Z</time>
      </trkpt>
      <trkpt lat="45.70638" lon="4.75982">
        <ele>301.9</ele>
        <time>2021-09-04T19:42:45Z</time>
      </trkpt>
      <trkpt lat="45.70635" lon="4.75991">
        <ele>301.6</ele>
        <time>2021-09-04T19:42:46Z</time>
      </trkpt>
      <trkpt lat="45.70633" lon="4.76009">
        <ele>301</ele>
        <time>2021-09-04T19:42:48Z</time>
      </trkpt>
      <trkpt lat="45.70631" lon="4.76028">
        <ele>300.3</ele>
        <time>2021-09-04T19:42:50Z</time>
      </trkpt>
      <trkpt lat="45.7063" lon="4.76037">
        <ele>300</ele>
        <time>2021-09-04T19:42:51Z</time>
      </trkpt>
      <trkpt lat="45.7063" lon="4.76047">
        <ele>299.6</ele>
        <time>2021-09-04T19:42:52Z</time>
      </trkpt>
      <trkpt lat="45.70629" lon="4.76066">
        <ele>298.8</ele>
        <time>2021-09-04T19:42:54Z</time>
      </trkpt>
      <trkpt lat="45.70627" lon="4.76082">
        <ele>298.1</ele>
        <time>2021-09-04T19:42:56Z</time>
      </trkpt>
      <trkpt lat="45.70626" lon="4.76088">
        <ele>297.8</ele>
        <time>2021-09-04T19:42:57Z</time>
      </trkpt>
      <trkpt lat="45.70627" lon="4.76096">
        <ele>297.3</ele>
        <time>2021-09-04T19:42:59Z</time>
      </trkpt>
      <trkpt lat="45.7063" lon="4.76102">
        <ele>297</ele>
        <time>2021-09-04T19:43:01Z</time>
      </trkpt>
      <trkpt lat="45.70633" lon="4.76105">
        <ele>297.1</ele>
        <time>2021-09-04T19:43:02Z</time>
      </trkpt>
      <trkpt lat="45.70641" lon="4.76106">
        <ele>297.5</ele>
        <time>2021-09-04T19:43:04Z</time>
      </trkpt>
      <trkpt lat="45.70646" lon="4.76104">
        <ele>297.7</ele>
        <time>2021-09-04T19:43:06Z</time>
      </trkpt>
      <trkpt lat="45.7065" lon="4.76104">
        <ele>298</ele>
        <time>2021-09-04T19:43:07Z</time>
      </trkpt>
      <trkpt lat="45.70657" lon="4.76105">
        <ele>298.4</ele>
        <time>2021-09-04T19:43:09Z</time>
      </trkpt>
      <trkpt lat="45.7066" lon="4.76106">
        <ele>298.5</ele>
        <time>2021-09-04T19:43:10Z</time>
      </trkpt>
      <trkpt lat="45.70662" lon="4.76105">
        <ele>298.7</ele>
        <time>2021-09-04T19:43:11Z</time>
      </trkpt>
      <trkpt lat="45.70667" lon="4.76104">
        <ele>299</ele>
        <time>2021-09-04T19:43:13Z</time>
      </trkpt>
      <trkpt lat="45.70669" lon="4.76104">
        <ele>299.1</ele>
        <time>2021-09-04T19:43:14Z</time>
      </trkpt>
      <trkpt lat="45.70673" lon="4.76105">
        <ele>299.3</ele>
        <time>2021-09-04T19:43:16Z</time>
      </trkpt>
      <trkpt lat="45.70676" lon="4.76105">
        <ele>299.5</ele>
        <time>2021-09-04T19:43:17Z</time>
      </trkpt>
      <trkpt lat="45.70677" lon="4.76105">
        <ele>299.6</ele>
        <time>2021-09-04T19:43:18Z</time>
      </trkpt>
      <trkpt lat="45.70678" lon="4.76104">
        <ele>299.7</ele>
        <time>2021-09-04T19:43:19Z</time>
      </trkpt>
      <trkpt lat="45.7068" lon="4.76105">
        <ele>299.8</ele>
        <time>2021-09-04T19:43:21Z</time>
      </trkpt>
      <trkpt lat="45.70683" lon="4.76106">
        <ele>300</ele>
        <time>2021-09-04T19:43:22Z</time>
      </trkpt>
      <trkpt lat="45.70684" lon="4.76106">
        <ele>300.1</ele>
        <time>2021-09-04T19:43:23Z</time>
      </trkpt>
      <trkpt lat="45.70687" lon="4.76106">
        <ele>300.2</ele>
        <time>2021-09-04T19:43:24Z</time>
      </trkpt>
      <trkpt lat="45.70692" lon="4.76106">
        <ele>300.6</ele>
        <time>2021-09-04T19:43:26Z</time>
      </trkpt>
      <trkpt lat="45.70698" lon="4.76106">
        <ele>301</ele>
        <time>2021-09-04T19:43:28Z</time>
      </trkpt>
      <trkpt lat="45.70702" lon="4.76106">
        <ele>301.2</ele>
        <time>2021-09-04T19:43:29Z</time>
      </trkpt>
      <trkpt lat="45.70706" lon="4.76106">
        <ele>301.5</ele>
        <time>2021-09-04T19:43:31Z</time>
      </trkpt>
      <trkpt lat="45.7071" lon="4.76107">
        <ele>301.8</ele>
        <time>2021-09-04T19:43:32Z</time>
      </trkpt>
      <trkpt lat="45.70712" lon="4.76108">
        <ele>301.9</ele>
        <time>2021-09-04T19:43:33Z</time>
      </trkpt>
      <trkpt lat="45.70715" lon="4.7611">
        <ele>302.2</ele>
        <time>2021-09-04T19:43:35Z</time>
      </trkpt>
      <trkpt lat="45.70719" lon="4.76111">
        <ele>302.4</ele>
        <time>2021-09-04T19:43:36Z</time>
      </trkpt>
      <trkpt lat="45.70724" lon="4.76112">
        <ele>302.7</ele>
        <time>2021-09-04T19:43:38Z</time>
      </trkpt>
      <trkpt lat="45.70728" lon="4.76112">
        <ele>303</ele>
        <time>2021-09-04T19:43:39Z</time>
      </trkpt>
      <trkpt lat="45.70731" lon="4.76112">
        <ele>303.2</ele>
        <time>2021-09-04T19:43:40Z</time>
      </trkpt>
      <trkpt lat="45.70736" lon="4.76111">
        <ele>303.4</ele>
        <time>2021-09-04T19:43:42Z</time>
      </trkpt>
      <trkpt lat="45.7074" lon="4.76111">
        <ele>303.7</ele>
        <time>2021-09-04T19:43:44Z</time>
      </trkpt>
      <trkpt lat="45.70744" lon="4.76111">
        <ele>303.9</ele>
        <time>2021-09-04T19:43:45Z</time>
      </trkpt>
      <trkpt lat="45.70747" lon="4.76111">
        <ele>304.1</ele>
        <time>2021-09-04T19:43:46Z</time>
      </trkpt>
      <trkpt lat="45.70751" lon="4.76112">
        <ele>304.3</ele>
        <time>2021-09-04T19:43:48Z</time>
      </trkpt>
      <trkpt lat="45.70754" lon="4.76112">
        <ele>304.4</ele>
        <time>2021-09-04T19:43:49Z</time>
      </trkpt>
      <trkpt lat="45.70757" lon="4.76111">
        <ele>304.6</ele>
        <time>2021-09-04T19:43:50Z</time>
      </trkpt>
      <trkpt lat="45.70758" lon="4.76111">
        <ele>304.7</ele>
        <time>2021-09-04T19:43:51Z</time>
      </trkpt>
      <trkpt lat="45.70762" lon="4.7611">
        <ele>304.8</ele>
        <time>2021-09-04T19:43:53Z</time>
      </trkpt>
      <trkpt lat="45.70767" lon="4.76111">
        <ele>305.1</ele>
        <time>2021-09-04T19:43:54Z</time>
      </trkpt>
      <trkpt lat="45.7077" lon="4.76112">
        <ele>305.3</ele>
        <time>2021-09-04T19:43:56Z</time>
      </trkpt>
      <trkpt lat="45.70774" lon="4.76112">
        <ele>305.5</ele>
        <time>2021-09-04T19:43:57Z</time>
      </trkpt>
      <trkpt lat="45.70777" lon="4.76112">
        <ele>305.7</ele>
        <time>2021-09-04T19:43:58Z</time>
      </trkpt>
      <trkpt lat="45.70782" lon="4.76112">
        <ele>305.9</ele>
        <time>2021-09-04T19:44:00Z</time>
      </trkpt>
      <trkpt lat="45.70786" lon="4.76111">
        <ele>306.1</ele>
        <time>2021-09-04T19:44:01Z</time>
      </trkpt>
      <trkpt lat="45.70788" lon="4.76111">
        <ele>306.2</ele>
        <time>2021-09-04T19:44:02Z</time>
      </trkpt>
      <trkpt lat="45.70791" lon="4.76111">
        <ele>306.4</ele>
        <time>2021-09-04T19:44:03Z</time>
      </trkpt>
      <trkpt lat="45.70792" lon="4.7611">
        <ele>306.5</ele>
        <time>2021-09-04T19:44:04Z</time>
      </trkpt>
      <trkpt lat="45.70795" lon="4.76108">
        <ele>306.6</ele>
        <time>2021-09-04T19:44:06Z</time>
      </trkpt>
      <trkpt lat="45.70796" lon="4.76108">
        <ele>306.7</ele>
        <time>2021-09-04T19:44:07Z</time>
      </trkpt>
      <trkpt lat="45.708" lon="4.76106">
        <ele>306.9</ele>
        <time>2021-09-04T19:44:09Z</time>
      </trkpt>
      <trkpt lat="45.70804" lon="4.76104">
        <ele>307.1</ele>
        <time>2021-09-04T19:44:10Z</time>
      </trkpt>
      <trkpt lat="45.70807" lon="4.76101">
        <ele>307.3</ele>
        <time>2021-09-04T19:44:12Z</time>
      </trkpt>
      <trkpt lat="45.70811" lon="4.76099">
        <ele>307.5</ele>
        <time>2021-09-04T19:44:13Z</time>
      </trkpt>
      <trkpt lat="45.70815" lon="4.76097">
        <ele>307.7</ele>
        <time>2021-09-04T19:44:15Z</time>
      </trkpt>
      <trkpt lat="45.70818" lon="4.76095">
        <ele>307.9</ele>
        <time>2021-09-04T19:44:16Z</time>
      </trkpt>
      <trkpt lat="45.70822" lon="4.76092">
        <ele>308.2</ele>
        <time>2021-09-04T19:44:18Z</time>
      </trkpt>
      <trkpt lat="45.70825" lon="4.7609">
        <ele>308.4</ele>
        <time>2021-09-04T19:44:19Z</time>
      </trkpt>
      <trkpt lat="45.70829" lon="4.76087">
        <ele>308.7</ele>
        <time>2021-09-04T19:44:21Z</time>
      </trkpt>
      <trkpt lat="45.70833" lon="4.76085">
        <ele>309</ele>
        <time>2021-09-04T19:44:23Z</time>
      </trkpt>
      <trkpt lat="45.70837" lon="4.76082">
        <ele>309.3</ele>
        <time>2021-09-04T19:44:25Z</time>
      </trkpt>
      <trkpt lat="45.7084" lon="4.76081">
        <ele>309.5</ele>
        <time>2021-09-04T19:44:26Z</time>
      </trkpt>
      <trkpt lat="45.70844" lon="4.76079">
        <ele>309.7</ele>
        <time>2021-09-04T19:44:28Z</time>
      </trkpt>
      <trkpt lat="45.70849" lon="4.76079">
        <ele>310</ele>
        <time>2021-09-04T19:44:29Z</time>
      </trkpt>
      <trkpt lat="45.70855" lon="4.76078">
        <ele>310.3</ele>
        <time>2021-09-04T19:44:31Z</time>
      </trkpt>
      <trkpt lat="45.70858" lon="4.76078">
        <ele>310.5</ele>
        <time>2021-09-04T19:44:32Z</time>
      </trkpt>
      <trkpt lat="45.70862" lon="4.76079">
        <ele>310.7</ele>
        <time>2021-09-04T19:44:34Z</time>
      </trkpt>
      <trkpt lat="45.70866" lon="4.7608">
        <ele>310.8</ele>
        <time>2021-09-04T19:44:35Z</time>
      </trkpt>
      <trkpt lat="45.70871" lon="4.76082">
        <ele>310.9</ele>
        <time>2021-09-04T19:44:37Z</time>
      </trkpt>
      <trkpt lat="45.70874" lon="4.76083">
        <ele>311</ele>
        <time>2021-09-04T19:44:38Z</time>
      </trkpt>
      <trkpt lat="45.70878" lon="4.76084">
        <ele>311.1</ele>
        <time>2021-09-04T19:44:40Z</time>
      </trkpt>
      <trkpt lat="45.70882" lon="4.76086">
        <ele>311.2</ele>
        <time>2021-09-04T19:44:42Z</time>
      </trkpt>
      <trkpt lat="45.70886" lon="4.76087">
        <ele>311.3</ele>
        <time>2021-09-04T19:44:43Z</time>
      </trkpt>
      <trkpt lat="45.70889" lon="4.76088">
        <ele>311.3</ele>
        <time>2021-09-04T19:44:44Z</time>
      </trkpt>
      <trkpt lat="45.70894" lon="4.76091">
        <ele>311.4</ele>
        <time>2021-09-04T19:44:46Z</time>
      </trkpt>
      <trkpt lat="45.70898" lon="4.76094">
        <ele>311.5</ele>
        <time>2021-09-04T19:44:48Z</time>
      </trkpt>
      <trkpt lat="45.709" lon="4.76095">
        <ele>311.6</ele>
        <time>2021-09-04T19:44:49Z</time>
      </trkpt>
      <trkpt lat="45.70905" lon="4.76097">
        <ele>311.6</ele>
        <time>2021-09-04T19:44:50Z</time>
      </trkpt>
      <trkpt lat="45.7091" lon="4.761">
        <ele>311.6</ele>
        <time>2021-09-04T19:44:52Z</time>
      </trkpt>
      <trkpt lat="45.70913" lon="4.76104">
        <ele>310.8</ele>
        <time>2021-09-04T19:44:54Z</time>
      </trkpt>
      <trkpt lat="45.70914" lon="4.76107">
        <ele>310.6</ele>
        <time>2021-09-04T19:44:55Z</time>
      </trkpt>
      <trkpt lat="45.70914" lon="4.76114">
        <ele>310.2</ele>
        <time>2021-09-04T19:44:57Z</time>
      </trkpt>
      <trkpt lat="45.70912" lon="4.76121">
        <ele>309.8</ele>
        <time>2021-09-04T19:44:59Z</time>
      </trkpt>
      <trkpt lat="45.70911" lon="4.76125">
        <ele>309.5</ele>
        <time>2021-09-04T19:45:00Z</time>
      </trkpt>
      <trkpt lat="45.7091" lon="4.76132">
        <ele>309</ele>
        <time>2021-09-04T19:45:02Z</time>
      </trkpt>
      <trkpt lat="45.70912" lon="4.76137">
        <ele>308.7</ele>
        <time>2021-09-04T19:45:03Z</time>
      </trkpt>
      <trkpt lat="45.70912" lon="4.76143">
        <ele>308.3</ele>
        <time>2021-09-04T19:45:04Z</time>
      </trkpt>
      <trkpt lat="45.70912" lon="4.76145">
        <ele>308.2</ele>
        <time>2021-09-04T19:45:05Z</time>
      </trkpt>
      <trkpt lat="45.70906" lon="4.76227">
        <ele>302.7</ele>
        <time>2021-09-04T19:45:07Z</time>
      </trkpt>
      <trkpt lat="45.70905" lon="4.76246">
        <ele>301.4</ele>
        <time>2021-09-04T19:45:09Z</time>
      </trkpt>
      <trkpt lat="45.70901" lon="4.76275">
        <ele>299.6</ele>
        <time>2021-09-04T19:45:11Z</time>
      </trkpt>
      <trkpt lat="45.70898" lon="4.76286">
        <ele>298.9</ele>
        <time>2021-09-04T19:45:12Z</time>
      </trkpt>
      <trkpt lat="45.70896" lon="4.76306">
        <ele>298</ele>
        <time>2021-09-04T19:45:14Z</time>
      </trkpt>
      <trkpt lat="45.70894" lon="4.76315">
        <ele>297.5</ele>
        <time>2021-09-04T19:45:15Z</time>
      </trkpt>
      <trkpt lat="45.70892" lon="4.76328">
        <ele>296.9</ele>
        <time>2021-09-04T19:45:17Z</time>
      </trkpt>
      <trkpt lat="45.70891" lon="4.76335">
        <ele>296.5</ele>
        <time>2021-09-04T19:45:18Z</time>
      </trkpt>
      <trkpt lat="45.70889" lon="4.76345">
        <ele>295.7</ele>
        <time>2021-09-04T19:45:20Z</time>
      </trkpt>
      <trkpt lat="45.70892" lon="4.76355">
        <ele>295.3</ele>
        <time>2021-09-04T19:45:22Z</time>
      </trkpt>
      <trkpt lat="45.70899" lon="4.76361">
        <ele>294.8</ele>
        <time>2021-09-04T19:45:24Z</time>
      </trkpt>
      <trkpt lat="45.70904" lon="4.76364">
        <ele>294.6</ele>
        <time>2021-09-04T19:45:25Z</time>
      </trkpt>
      <trkpt lat="45.70909" lon="4.7637">
        <ele>294.4</ele>
        <time>2021-09-04T19:45:27Z</time>
      </trkpt>
      <trkpt lat="45.70913" lon="4.76371">
        <ele>294.2</ele>
        <time>2021-09-04T19:45:28Z</time>
      </trkpt>
      <trkpt lat="45.70918" lon="4.76371">
        <ele>294</ele>
        <time>2021-09-04T19:45:29Z</time>
      </trkpt>
      <trkpt lat="45.70926" lon="4.76371">
        <ele>293.7</ele>
        <time>2021-09-04T19:45:31Z</time>
      </trkpt>
      <trkpt lat="45.70934" lon="4.76369">
        <ele>293.4</ele>
        <time>2021-09-04T19:45:32Z</time>
      </trkpt>
      <trkpt lat="45.70944" lon="4.76369">
        <ele>292.9</ele>
        <time>2021-09-04T19:45:34Z</time>
      </trkpt>
      <trkpt lat="45.70955" lon="4.76368">
        <ele>292.3</ele>
        <time>2021-09-04T19:45:36Z</time>
      </trkpt>
      <trkpt lat="45.70965" lon="4.76368">
        <ele>291.8</ele>
        <time>2021-09-04T19:45:38Z</time>
      </trkpt>
      <trkpt lat="45.70972" lon="4.76366">
        <ele>291.5</ele>
        <time>2021-09-04T19:45:40Z</time>
      </trkpt>
      <trkpt lat="45.70978" lon="4.76366">
        <ele>291.3</ele>
        <time>2021-09-04T19:45:42Z</time>
      </trkpt>
      <trkpt lat="45.70984" lon="4.76366">
        <ele>291.1</ele>
        <time>2021-09-04T19:45:43Z</time>
      </trkpt>
      <trkpt lat="45.7099" lon="4.76365">
        <ele>290.9</ele>
        <time>2021-09-04T19:45:44Z</time>
      </trkpt>
      <trkpt lat="45.70998" lon="4.76363">
        <ele>290.6</ele>
        <time>2021-09-04T19:45:46Z</time>
      </trkpt>
      <trkpt lat="45.71005" lon="4.76359">
        <ele>290.3</ele>
        <time>2021-09-04T19:45:47Z</time>
      </trkpt>
      <trkpt lat="45.71014" lon="4.7635">
        <ele>289.7</ele>
        <time>2021-09-04T19:45:49Z</time>
      </trkpt>
      <trkpt lat="45.71018" lon="4.76346">
        <ele>289.3</ele>
        <time>2021-09-04T19:45:50Z</time>
      </trkpt>
      <trkpt lat="45.71027" lon="4.76338">
        <ele>288.2</ele>
        <time>2021-09-04T19:45:52Z</time>
      </trkpt>
      <trkpt lat="45.71033" lon="4.76335">
        <ele>287</ele>
        <time>2021-09-04T19:45:54Z</time>
      </trkpt>
      <trkpt lat="45.71036" lon="4.76338">
        <ele>286.5</ele>
        <time>2021-09-04T19:45:55Z</time>
      </trkpt>
      <trkpt lat="45.71033" lon="4.76351">
        <ele>284.5</ele>
        <time>2021-09-04T19:45:56Z</time>
      </trkpt>
      <trkpt lat="45.71031" lon="4.76362">
        <ele>282.8</ele>
        <time>2021-09-04T19:45:57Z</time>
      </trkpt>
      <trkpt lat="45.7103" lon="4.76377">
        <ele>280.3</ele>
        <time>2021-09-04T19:45:59Z</time>
      </trkpt>
      <trkpt lat="45.71026" lon="4.76391">
        <ele>278.1</ele>
        <time>2021-09-04T19:46:01Z</time>
      </trkpt>
      <trkpt lat="45.71023" lon="4.76397">
        <ele>277</ele>
        <time>2021-09-04T19:46:02Z</time>
      </trkpt>
      <trkpt lat="45.71023" lon="4.76405">
        <ele>275.9</ele>
        <time>2021-09-04T19:46:04Z</time>
      </trkpt>
      <trkpt lat="45.71018" lon="4.76417">
        <ele>273.9</ele>
        <time>2021-09-04T19:46:05Z</time>
      </trkpt>
      <trkpt lat="45.71016" lon="4.76424">
        <ele>272.9</ele>
        <time>2021-09-04T19:46:06Z</time>
      </trkpt>
      <trkpt lat="45.71011" lon="4.76434">
        <ele>271.1</ele>
        <time>2021-09-04T19:46:08Z</time>
      </trkpt>
      <trkpt lat="45.7101" lon="4.76442">
        <ele>269.8</ele>
        <time>2021-09-04T19:46:10Z</time>
      </trkpt>
      <trkpt lat="45.71012" lon="4.76447">
        <ele>269.1</ele>
        <time>2021-09-04T19:46:11Z</time>
      </trkpt>
      <trkpt lat="45.71015" lon="4.76452">
        <ele>268.1</ele>
        <time>2021-09-04T19:46:12Z</time>
      </trkpt>
      <trkpt lat="45.71017" lon="4.76456">
        <ele>267.3</ele>
        <time>2021-09-04T19:46:13Z</time>
      </trkpt>
      <trkpt lat="45.7102" lon="4.76459">
        <ele>266.6</ele>
        <time>2021-09-04T19:46:14Z</time>
      </trkpt>
      <trkpt lat="45.71022" lon="4.76463">
        <ele>265.9</ele>
        <time>2021-09-04T19:46:15Z</time>
      </trkpt>
      <trkpt lat="45.71023" lon="4.76465">
        <ele>265.6</ele>
        <time>2021-09-04T19:46:16Z</time>
      </trkpt>
      <trkpt lat="45.71023" lon="4.7647">
        <ele>265</ele>
        <time>2021-09-04T19:46:18Z</time>
      </trkpt>
      <trkpt lat="45.71023" lon="4.76471">
        <ele>264.8</ele>
        <time>2021-09-04T19:46:19Z</time>
      </trkpt>
      <trkpt lat="45.71022" lon="4.76477">
        <ele>264</ele>
        <time>2021-09-04T19:46:20Z</time>
      </trkpt>
      <trkpt lat="45.71021" lon="4.76482">
        <ele>263.4</ele>
        <time>2021-09-04T19:46:21Z</time>
      </trkpt>
      <trkpt lat="45.71015" lon="4.76495">
        <ele>261.6</ele>
        <time>2021-09-04T19:46:22Z</time>
      </trkpt>
      <trkpt lat="45.71007" lon="4.76508">
        <ele>259.8</ele>
        <time>2021-09-04T19:46:24Z</time>
      </trkpt>
      <trkpt lat="45.71002" lon="4.76514">
        <ele>259</ele>
        <time>2021-09-04T19:46:25Z</time>
      </trkpt>
      <trkpt lat="45.70995" lon="4.76524">
        <ele>257.8</ele>
        <time>2021-09-04T19:46:27Z</time>
      </trkpt>
      <trkpt lat="45.70994" lon="4.76529">
        <ele>257.4</ele>
        <time>2021-09-04T19:46:29Z</time>
      </trkpt>
      <trkpt lat="45.70994" lon="4.76534">
        <ele>257</ele>
        <time>2021-09-04T19:46:30Z</time>
      </trkpt>
      <trkpt lat="45.70996" lon="4.76541">
        <ele>256.5</ele>
        <time>2021-09-04T19:46:31Z</time>
      </trkpt>
      <trkpt lat="45.71001" lon="4.76549">
        <ele>255.7</ele>
        <time>2021-09-04T19:46:32Z</time>
      </trkpt>
      <trkpt lat="45.71008" lon="4.76563">
        <ele>254.6</ele>
        <time>2021-09-04T19:46:34Z</time>
      </trkpt>
      <trkpt lat="45.71012" lon="4.7657">
        <ele>254.1</ele>
        <time>2021-09-04T19:46:35Z</time>
      </trkpt>
      <trkpt lat="45.7102" lon="4.76585">
        <ele>253</ele>
        <time>2021-09-04T19:46:37Z</time>
      </trkpt>
      <trkpt lat="45.71025" lon="4.76593">
        <ele>252.5</ele>
        <time>2021-09-04T19:46:38Z</time>
      </trkpt>
      <trkpt lat="45.71029" lon="4.76601">
        <ele>252</ele>
        <time>2021-09-04T19:46:39Z</time>
      </trkpt>
      <trkpt lat="45.71033" lon="4.76609">
        <ele>251.6</ele>
        <time>2021-09-04T19:46:40Z</time>
      </trkpt>
      <trkpt lat="45.71042" lon="4.76626">
        <ele>251</ele>
        <time>2021-09-04T19:46:42Z</time>
      </trkpt>
      <trkpt lat="45.71046" lon="4.76634">
        <ele>250.7</ele>
        <time>2021-09-04T19:46:43Z</time>
      </trkpt>
      <trkpt lat="45.71051" lon="4.76651">
        <ele>249.8</ele>
        <time>2021-09-04T19:46:45Z</time>
      </trkpt>
      <trkpt lat="45.71057" lon="4.76669">
        <ele>248.9</ele>
        <time>2021-09-04T19:46:47Z</time>
      </trkpt>
      <trkpt lat="45.7106" lon="4.76679">
        <ele>248.3</ele>
        <time>2021-09-04T19:46:48Z</time>
      </trkpt>
      <trkpt lat="45.71067" lon="4.76699">
        <ele>247.2</ele>
        <time>2021-09-04T19:46:50Z</time>
      </trkpt>
      <trkpt lat="45.71072" lon="4.76722">
        <ele>246</ele>
        <time>2021-09-04T19:46:52Z</time>
      </trkpt>
      <trkpt lat="45.71078" lon="4.76745">
        <ele>244.8</ele>
        <time>2021-09-04T19:46:54Z</time>
      </trkpt>
      <trkpt lat="45.71082" lon="4.76769">
        <ele>243.7</ele>
        <time>2021-09-04T19:46:56Z</time>
      </trkpt>
      <trkpt lat="45.71086" lon="4.76794">
        <ele>242.6</ele>
        <time>2021-09-04T19:46:58Z</time>
      </trkpt>
      <trkpt lat="45.71092" lon="4.76818">
        <ele>241.3</ele>
        <time>2021-09-04T19:47:00Z</time>
      </trkpt>
      <trkpt lat="45.71097" lon="4.76843">
        <ele>239.9</ele>
        <time>2021-09-04T19:47:02Z</time>
      </trkpt>
      <trkpt lat="45.71099" lon="4.76855">
        <ele>239.3</ele>
        <time>2021-09-04T19:47:03Z</time>
      </trkpt>
      <trkpt lat="45.71103" lon="4.76867">
        <ele>238.7</ele>
        <time>2021-09-04T19:47:04Z</time>
      </trkpt>
      <trkpt lat="45.71107" lon="4.76878">
        <ele>238.2</ele>
        <time>2021-09-04T19:47:05Z</time>
      </trkpt>
      <trkpt lat="45.71111" lon="4.7689">
        <ele>237.7</ele>
        <time>2021-09-04T19:47:06Z</time>
      </trkpt>
      <trkpt lat="45.71114" lon="4.76901">
        <ele>237.2</ele>
        <time>2021-09-04T19:47:07Z</time>
      </trkpt>
      <trkpt lat="45.7112" lon="4.76919">
        <ele>236.4</ele>
        <time>2021-09-04T19:47:09Z</time>
      </trkpt>
      <trkpt lat="45.71122" lon="4.76928">
        <ele>236.1</ele>
        <time>2021-09-04T19:47:10Z</time>
      </trkpt>
      <trkpt lat="45.71126" lon="4.76945">
        <ele>235.5</ele>
        <time>2021-09-04T19:47:12Z</time>
      </trkpt>
      <trkpt lat="45.71129" lon="4.76952">
        <ele>235.2</ele>
        <time>2021-09-04T19:47:13Z</time>
      </trkpt>
      <trkpt lat="45.71135" lon="4.76968">
        <ele>234.8</ele>
        <time>2021-09-04T19:47:15Z</time>
      </trkpt>
      <trkpt lat="45.71137" lon="4.76976">
        <ele>234.7</ele>
        <time>2021-09-04T19:47:16Z</time>
      </trkpt>
      <trkpt lat="45.71141" lon="4.76985">
        <ele>234.6</ele>
        <time>2021-09-04T19:47:18Z</time>
      </trkpt>
      <trkpt lat="45.71144" lon="4.76992">
        <ele>234.6</ele>
        <time>2021-09-04T19:47:20Z</time>
      </trkpt>
      <trkpt lat="45.71146" lon="4.76995">
        <ele>234.7</ele>
        <time>2021-09-04T19:47:21Z</time>
      </trkpt>
      <trkpt lat="45.71149" lon="4.76998">
        <ele>234.8</ele>
        <time>2021-09-04T19:47:22Z</time>
      </trkpt>
      <trkpt lat="45.71156" lon="4.76996">
        <ele>235.2</ele>
        <time>2021-09-04T19:47:24Z</time>
      </trkpt>
      <trkpt lat="45.71158" lon="4.77001">
        <ele>235.5</ele>
        <time>2021-09-04T19:47:26Z</time>
      </trkpt>
      <trkpt lat="45.71163" lon="4.77002">
        <ele>235.9</ele>
        <time>2021-09-04T19:47:27Z</time>
      </trkpt>
      <trkpt lat="45.7117" lon="4.77003">
        <ele>236.7</ele>
        <time>2021-09-04T19:47:29Z</time>
      </trkpt>
      <trkpt lat="45.71175" lon="4.77005">
        <ele>237.3</ele>
        <time>2021-09-04T19:47:31Z</time>
      </trkpt>
      <trkpt lat="45.71178" lon="4.77006">
        <ele>237.7</ele>
        <time>2021-09-04T19:47:32Z</time>
      </trkpt>
      <trkpt lat="45.71179" lon="4.77006">
        <ele>238</ele>
        <time>2021-09-04T19:47:33Z</time>
      </trkpt>
      <trkpt lat="45.71182" lon="4.77006">
        <ele>238.4</ele>
        <time>2021-09-04T19:47:35Z</time>
      </trkpt>
      <trkpt lat="45.71185" lon="4.77006">
        <ele>238.8</ele>
        <time>2021-09-04T19:47:36Z</time>
      </trkpt>
      <trkpt lat="45.71186" lon="4.77006">
        <ele>239</ele>
        <time>2021-09-04T19:47:37Z</time>
      </trkpt>
      <trkpt lat="45.71188" lon="4.77005">
        <ele>239.3</ele>
        <time>2021-09-04T19:47:38Z</time>
      </trkpt>
      <trkpt lat="45.7119" lon="4.77002">
        <ele>239.8</ele>
        <time>2021-09-04T19:47:40Z</time>
      </trkpt>
      <trkpt lat="45.71193" lon="4.77001">
        <ele>240.2</ele>
        <time>2021-09-04T19:47:42Z</time>
      </trkpt>
      <trkpt lat="45.71195" lon="4.77001">
        <ele>240.5</ele>
        <time>2021-09-04T19:47:43Z</time>
      </trkpt>
      <trkpt lat="45.71197" lon="4.77001">
        <ele>240.8</ele>
        <time>2021-09-04T19:47:45Z</time>
      </trkpt>
      <trkpt lat="45.71199" lon="4.77001">
        <ele>241.1</ele>
        <time>2021-09-04T19:47:46Z</time>
      </trkpt>
      <trkpt lat="45.71202" lon="4.77001">
        <ele>241.4</ele>
        <time>2021-09-04T19:47:48Z</time>
      </trkpt>
      <trkpt lat="45.71203" lon="4.77001">
        <ele>241.6</ele>
        <time>2021-09-04T19:47:49Z</time>
      </trkpt>
      <trkpt lat="45.71205" lon="4.77">
        <ele>241.8</ele>
        <time>2021-09-04T19:47:50Z</time>
      </trkpt>
      <trkpt lat="45.71206" lon="4.77">
        <ele>241.9</ele>
        <time>2021-09-04T19:47:51Z</time>
      </trkpt>
      <trkpt lat="45.71207" lon="4.77">
        <ele>242.1</ele>
        <time>2021-09-04T19:47:52Z</time>
      </trkpt>
      <trkpt lat="45.7121" lon="4.77">
        <ele>242.4</ele>
        <time>2021-09-04T19:47:53Z</time>
      </trkpt>
      <trkpt lat="45.71212" lon="4.77">
        <ele>242.5</ele>
        <time>2021-09-04T19:47:55Z</time>
      </trkpt>
      <trkpt lat="45.71214" lon="4.77">
        <ele>242.7</ele>
        <time>2021-09-04T19:47:56Z</time>
      </trkpt>
      <trkpt lat="45.71215" lon="4.77">
        <ele>242.8</ele>
        <time>2021-09-04T19:47:57Z</time>
      </trkpt>
      <trkpt lat="45.71217" lon="4.77">
        <ele>243</ele>
        <time>2021-09-04T19:47:58Z</time>
      </trkpt>
      <trkpt lat="45.71219" lon="4.77001">
        <ele>243.1</ele>
        <time>2021-09-04T19:48:00Z</time>
      </trkpt>
      <trkpt lat="45.71222" lon="4.77001">
        <ele>243.3</ele>
        <time>2021-09-04T19:48:01Z</time>
      </trkpt>
      <trkpt lat="45.71223" lon="4.77001">
        <ele>243.4</ele>
        <time>2021-09-04T19:48:02Z</time>
      </trkpt>
      <trkpt lat="45.71225" lon="4.77001">
        <ele>243.5</ele>
        <time>2021-09-04T19:48:03Z</time>
      </trkpt>
      <trkpt lat="45.71227" lon="4.77002">
        <ele>243.6</ele>
        <time>2021-09-04T19:48:05Z</time>
      </trkpt>
      <trkpt lat="45.71229" lon="4.77002">
        <ele>243.6</ele>
        <time>2021-09-04T19:48:06Z</time>
      </trkpt>
      <trkpt lat="45.71232" lon="4.77002">
        <ele>243.7</ele>
        <time>2021-09-04T19:48:08Z</time>
      </trkpt>
      <trkpt lat="45.71235" lon="4.77003">
        <ele>243.8</ele>
        <time>2021-09-04T19:48:09Z</time>
      </trkpt>
      <trkpt lat="45.71236" lon="4.77003">
        <ele>243.8</ele>
        <time>2021-09-04T19:48:10Z</time>
      </trkpt>
      <trkpt lat="45.71239" lon="4.77003">
        <ele>243.8</ele>
        <time>2021-09-04T19:48:11Z</time>
      </trkpt>
      <trkpt lat="45.71243" lon="4.77003">
        <ele>243.8</ele>
        <time>2021-09-04T19:48:13Z</time>
      </trkpt>
      <trkpt lat="45.71247" lon="4.77003">
        <ele>243.8</ele>
        <time>2021-09-04T19:48:15Z</time>
      </trkpt>
      <trkpt lat="45.71249" lon="4.77002">
        <ele>243.7</ele>
        <time>2021-09-04T19:48:16Z</time>
      </trkpt>
      <trkpt lat="45.71252" lon="4.77002">
        <ele>243.7</ele>
        <time>2021-09-04T19:48:17Z</time>
      </trkpt>
      <trkpt lat="45.71255" lon="4.77">
        <ele>243.7</ele>
        <time>2021-09-04T19:48:19Z</time>
      </trkpt>
      <trkpt lat="45.71258" lon="4.77002">
        <ele>243.6</ele>
        <time>2021-09-04T19:48:20Z</time>
      </trkpt>
      <trkpt lat="45.71259" lon="4.77002">
        <ele>243.6</ele>
        <time>2021-09-04T19:48:21Z</time>
      </trkpt>
      <trkpt lat="45.71263" lon="4.77001">
        <ele>243.5</ele>
        <time>2021-09-04T19:48:23Z</time>
      </trkpt>
      <trkpt lat="45.71267" lon="4.77">
        <ele>243.3</ele>
        <time>2021-09-04T19:48:25Z</time>
      </trkpt>
      <trkpt lat="45.71271" lon="4.77001">
        <ele>243.2</ele>
        <time>2021-09-04T19:48:26Z</time>
      </trkpt>
      <trkpt lat="45.71272" lon="4.77001">
        <ele>243.1</ele>
        <time>2021-09-04T19:48:27Z</time>
      </trkpt>
      <trkpt lat="45.71276" lon="4.77002">
        <ele>243</ele>
        <time>2021-09-04T19:48:28Z</time>
      </trkpt>
      <trkpt lat="45.7128" lon="4.77001">
        <ele>242.8</ele>
        <time>2021-09-04T19:48:30Z</time>
      </trkpt>
      <trkpt lat="45.71284" lon="4.77">
        <ele>242.7</ele>
        <time>2021-09-04T19:48:31Z</time>
      </trkpt>
      <trkpt lat="45.71287" lon="4.76999">
        <ele>242.5</ele>
        <time>2021-09-04T19:48:33Z</time>
      </trkpt>
      <trkpt lat="45.71291" lon="4.76997">
        <ele>242.4</ele>
        <time>2021-09-04T19:48:34Z</time>
      </trkpt>
      <trkpt lat="45.71293" lon="4.76996">
        <ele>242.3</ele>
        <time>2021-09-04T19:48:35Z</time>
      </trkpt>
      <trkpt lat="45.71299" lon="4.76996">
        <ele>242.1</ele>
        <time>2021-09-04T19:48:37Z</time>
      </trkpt>
      <trkpt lat="45.71302" lon="4.76995">
        <ele>242</ele>
        <time>2021-09-04T19:48:38Z</time>
      </trkpt>
      <trkpt lat="45.71305" lon="4.76994">
        <ele>242</ele>
        <time>2021-09-04T19:48:39Z</time>
      </trkpt>
      <trkpt lat="45.71311" lon="4.76992">
        <ele>241.9</ele>
        <time>2021-09-04T19:48:41Z</time>
      </trkpt>
      <trkpt lat="45.71316" lon="4.7699">
        <ele>241.8</ele>
        <time>2021-09-04T19:48:42Z</time>
      </trkpt>
      <trkpt lat="45.71322" lon="4.76989">
        <ele>241.8</ele>
        <time>2021-09-04T19:48:44Z</time>
      </trkpt>
      <trkpt lat="45.71328" lon="4.76985">
        <ele>241.8</ele>
        <time>2021-09-04T19:48:45Z</time>
      </trkpt>
      <trkpt lat="45.71334" lon="4.76984">
        <ele>241.8</ele>
        <time>2021-09-04T19:48:46Z</time>
      </trkpt>
      <trkpt lat="45.7134" lon="4.76983">
        <ele>241.8</ele>
        <time>2021-09-04T19:48:47Z</time>
      </trkpt>
      <trkpt lat="45.71349" lon="4.76981">
        <ele>241.9</ele>
        <time>2021-09-04T19:48:49Z</time>
      </trkpt>
      <trkpt lat="45.71355" lon="4.76978">
        <ele>242</ele>
        <time>2021-09-04T19:48:50Z</time>
      </trkpt>
      <trkpt lat="45.71368" lon="4.76977">
        <ele>242.2</ele>
        <time>2021-09-04T19:48:52Z</time>
      </trkpt>
      <trkpt lat="45.71377" lon="4.76976">
        <ele>242.5</ele>
        <time>2021-09-04T19:48:54Z</time>
      </trkpt>
      <trkpt lat="45.71385" lon="4.76976">
        <ele>242.9</ele>
        <time>2021-09-04T19:48:56Z</time>
      </trkpt>
      <trkpt lat="45.71389" lon="4.76975">
        <ele>243</ele>
        <time>2021-09-04T19:48:57Z</time>
      </trkpt>
      <trkpt lat="45.71393" lon="4.76975">
        <ele>243.2</ele>
        <time>2021-09-04T19:48:58Z</time>
      </trkpt>
      <trkpt lat="45.71401" lon="4.76975">
        <ele>243.6</ele>
        <time>2021-09-04T19:49:00Z</time>
      </trkpt>
      <trkpt lat="45.71407" lon="4.76974">
        <ele>244</ele>
        <time>2021-09-04T19:49:02Z</time>
      </trkpt>
      <trkpt lat="45.71412" lon="4.76974">
        <ele>244.4</ele>
        <time>2021-09-04T19:49:03Z</time>
      </trkpt>
      <trkpt lat="45.71416" lon="4.76973">
        <ele>244.7</ele>
        <time>2021-09-04T19:49:04Z</time>
      </trkpt>
      <trkpt lat="45.71422" lon="4.76972">
        <ele>245.2</ele>
        <time>2021-09-04T19:49:06Z</time>
      </trkpt>
      <trkpt lat="45.71425" lon="4.76971">
        <ele>245.5</ele>
        <time>2021-09-04T19:49:07Z</time>
      </trkpt>
      <trkpt lat="45.7143" lon="4.7697">
        <ele>245.9</ele>
        <time>2021-09-04T19:49:09Z</time>
      </trkpt>
      <trkpt lat="45.71435" lon="4.76969">
        <ele>246.4</ele>
        <time>2021-09-04T19:49:10Z</time>
      </trkpt>
      <trkpt lat="45.71441" lon="4.76968">
        <ele>246.8</ele>
        <time>2021-09-04T19:49:12Z</time>
      </trkpt>
      <trkpt lat="45.71446" lon="4.76967">
        <ele>247.1</ele>
        <time>2021-09-04T19:49:13Z</time>
      </trkpt>
      <trkpt lat="45.7145" lon="4.76967">
        <ele>247.4</ele>
        <time>2021-09-04T19:49:14Z</time>
      </trkpt>
      <trkpt lat="45.71456" lon="4.76967">
        <ele>247.7</ele>
        <time>2021-09-04T19:49:16Z</time>
      </trkpt>
      <trkpt lat="45.71462" lon="4.76966">
        <ele>248</ele>
        <time>2021-09-04T19:49:18Z</time>
      </trkpt>
      <trkpt lat="45.71467" lon="4.76966">
        <ele>248.2</ele>
        <time>2021-09-04T19:49:19Z</time>
      </trkpt>
      <trkpt lat="45.71473" lon="4.76965">
        <ele>248.3</ele>
        <time>2021-09-04T19:49:21Z</time>
      </trkpt>
      <trkpt lat="45.71477" lon="4.76964">
        <ele>248.5</ele>
        <time>2021-09-04T19:49:22Z</time>
      </trkpt>
      <trkpt lat="45.71482" lon="4.76964">
        <ele>248.6</ele>
        <time>2021-09-04T19:49:24Z</time>
      </trkpt>
      <trkpt lat="45.71486" lon="4.76963">
        <ele>248.7</ele>
        <time>2021-09-04T19:49:25Z</time>
      </trkpt>
      <trkpt lat="45.71491" lon="4.76961">
        <ele>248.8</ele>
        <time>2021-09-04T19:49:27Z</time>
      </trkpt>
      <trkpt lat="45.71497" lon="4.76961">
        <ele>249</ele>
        <time>2021-09-04T19:49:28Z</time>
      </trkpt>
      <trkpt lat="45.71504" lon="4.76959">
        <ele>249.1</ele>
        <time>2021-09-04T19:49:30Z</time>
      </trkpt>
      <trkpt lat="45.71508" lon="4.76958">
        <ele>249.1</ele>
        <time>2021-09-04T19:49:31Z</time>
      </trkpt>
      <trkpt lat="45.71515" lon="4.76957">
        <ele>249.2</ele>
        <time>2021-09-04T19:49:33Z</time>
      </trkpt>
      <trkpt lat="45.71521" lon="4.76955">
        <ele>249.3</ele>
        <time>2021-09-04T19:49:35Z</time>
      </trkpt>
      <trkpt lat="45.71526" lon="4.76954">
        <ele>249.4</ele>
        <time>2021-09-04T19:49:36Z</time>
      </trkpt>
      <trkpt lat="45.71532" lon="4.76953">
        <ele>249.5</ele>
        <time>2021-09-04T19:49:38Z</time>
      </trkpt>
      <trkpt lat="45.71537" lon="4.7695">
        <ele>249.5</ele>
        <time>2021-09-04T19:49:40Z</time>
      </trkpt>
      <trkpt lat="45.71543" lon="4.76948">
        <ele>249.6</ele>
        <time>2021-09-04T19:49:41Z</time>
      </trkpt>
      <trkpt lat="45.71549" lon="4.76945">
        <ele>249.7</ele>
        <time>2021-09-04T19:49:43Z</time>
      </trkpt>
      <trkpt lat="45.71555" lon="4.76943">
        <ele>249.8</ele>
        <time>2021-09-04T19:49:45Z</time>
      </trkpt>
      <trkpt lat="45.71561" lon="4.76941">
        <ele>249.9</ele>
        <time>2021-09-04T19:49:46Z</time>
      </trkpt>
      <trkpt lat="45.71563" lon="4.7694">
        <ele>249.9</ele>
        <time>2021-09-04T19:49:47Z</time>
      </trkpt>
      <trkpt lat="45.71566" lon="4.76938">
        <ele>249.9</ele>
        <time>2021-09-04T19:49:49Z</time>
      </trkpt>
      <trkpt lat="45.7157" lon="4.76937">
        <ele>250</ele>
        <time>2021-09-04T19:49:50Z</time>
      </trkpt>
      <trkpt lat="45.71575" lon="4.76938">
        <ele>250.1</ele>
        <time>2021-09-04T19:49:52Z</time>
      </trkpt>
      <trkpt lat="45.71579" lon="4.76938">
        <ele>250.1</ele>
        <time>2021-09-04T19:49:53Z</time>
      </trkpt>
      <trkpt lat="45.71582" lon="4.76937">
        <ele>250.2</ele>
        <time>2021-09-04T19:49:55Z</time>
      </trkpt>
      <trkpt lat="45.71585" lon="4.76937">
        <ele>250.3</ele>
        <time>2021-09-04T19:49:56Z</time>
      </trkpt>
      <trkpt lat="45.71589" lon="4.76935">
        <ele>250.3</ele>
        <time>2021-09-04T19:49:57Z</time>
      </trkpt>
      <trkpt lat="45.71593" lon="4.76935">
        <ele>250.6</ele>
        <time>2021-09-04T19:49:58Z</time>
      </trkpt>
      <trkpt lat="45.71595" lon="4.76937">
        <ele>250.5</ele>
        <time>2021-09-04T19:49:59Z</time>
      </trkpt>
      <trkpt lat="45.71597" lon="4.76941">
        <ele>250.5</ele>
        <time>2021-09-04T19:50:00Z</time>
      </trkpt>
      <trkpt lat="45.71599" lon="4.76945">
        <ele>250.4</ele>
        <time>2021-09-04T19:50:02Z</time>
      </trkpt>
      <trkpt lat="45.716" lon="4.76951">
        <ele>250.3</ele>
        <time>2021-09-04T19:50:03Z</time>
      </trkpt>
      <trkpt lat="45.716" lon="4.76955">
        <ele>250.3</ele>
        <time>2021-09-04T19:50:04Z</time>
      </trkpt>
      <trkpt lat="45.71601" lon="4.76961">
        <ele>250.2</ele>
        <time>2021-09-04T19:50:06Z</time>
      </trkpt>
      <trkpt lat="45.71602" lon="4.76965">
        <ele>250.2</ele>
        <time>2021-09-04T19:50:07Z</time>
      </trkpt>
      <trkpt lat="45.71602" lon="4.76976">
        <ele>250</ele>
        <time>2021-09-04T19:50:09Z</time>
      </trkpt>
      <trkpt lat="45.71602" lon="4.76982">
        <ele>250</ele>
        <time>2021-09-04T19:50:10Z</time>
      </trkpt>
      <trkpt lat="45.71606" lon="4.76988">
        <ele>249.9</ele>
        <time>2021-09-04T19:50:12Z</time>
      </trkpt>
      <trkpt lat="45.7161" lon="4.76989">
        <ele>249.7</ele>
        <time>2021-09-04T19:50:13Z</time>
      </trkpt>
      <trkpt lat="45.71614" lon="4.76991">
        <ele>249.6</ele>
        <time>2021-09-04T19:50:14Z</time>
      </trkpt>
      <trkpt lat="45.71618" lon="4.76993">
        <ele>249.4</ele>
        <time>2021-09-04T19:50:15Z</time>
      </trkpt>
      <trkpt lat="45.71622" lon="4.76995">
        <ele>249.3</ele>
        <time>2021-09-04T19:50:17Z</time>
      </trkpt>
      <trkpt lat="45.71627" lon="4.76996">
        <ele>249.1</ele>
        <time>2021-09-04T19:50:18Z</time>
      </trkpt>
      <trkpt lat="45.71631" lon="4.76996">
        <ele>248.9</ele>
        <time>2021-09-04T19:50:19Z</time>
      </trkpt>
      <trkpt lat="45.71634" lon="4.76997">
        <ele>248.8</ele>
        <time>2021-09-04T19:50:20Z</time>
      </trkpt>
      <trkpt lat="45.71635" lon="4.76997">
        <ele>248.7</ele>
        <time>2021-09-04T19:50:21Z</time>
      </trkpt>
      <trkpt lat="45.71638" lon="4.76998">
        <ele>248.6</ele>
        <time>2021-09-04T19:50:23Z</time>
      </trkpt>
      <trkpt lat="45.71639" lon="4.76997">
        <ele>248.5</ele>
        <time>2021-09-04T19:50:24Z</time>
      </trkpt>
      <trkpt lat="45.71637" lon="4.76996">
        <ele>248.4</ele>
        <time>2021-09-04T19:50:25Z</time>
      </trkpt>
      <trkpt lat="45.71637" lon="4.76995">
        <ele>248.4</ele>
        <time>2021-09-04T19:50:26Z</time>
      </trkpt>
      <trkpt lat="45.71637" lon="4.76995">
        <ele>248.4</ele>
        <time>2021-09-04T19:50:27Z</time>
      </trkpt>
      <trkpt lat="45.71637" lon="4.76995">
        <ele>248.4</ele>
        <time>2021-09-04T19:50:29Z</time>
      </trkpt>
      <trkpt lat="45.71637" lon="4.76995">
        <ele>248.3</ele>
        <time>2021-09-04T19:50:30Z</time>
      </trkpt>
      <trkpt lat="45.71638" lon="4.76995">
        <ele>248.3</ele>
        <time>2021-09-04T19:50:31Z</time>
      </trkpt>
      <trkpt lat="45.71638" lon="4.76995">
        <ele>248.3</ele>
        <time>2021-09-04T19:50:33Z</time>
      </trkpt>
      <trkpt lat="45.7164" lon="4.76996">
        <ele>248.2</ele>
        <time>2021-09-04T19:50:34Z</time>
      </trkpt>
      <trkpt lat="45.71641" lon="4.76997">
        <ele>248.1</ele>
        <time>2021-09-04T19:50:36Z</time>
      </trkpt>
      <trkpt lat="45.71641" lon="4.76998">
        <ele>248.1</ele>
        <time>2021-09-04T19:50:37Z</time>
      </trkpt>
      <trkpt lat="45.71641" lon="4.76998">
        <ele>248.1</ele>
        <time>2021-09-04T19:50:38Z</time>
      </trkpt>
      <trkpt lat="45.71641" lon="4.76998">
        <ele>248.1</ele>
        <time>2021-09-04T19:50:39Z</time>
      </trkpt>
      <trkpt lat="45.71641" lon="4.76998">
        <ele>248.1</ele>
        <time>2021-09-04T19:50:41Z</time>
      </trkpt>
      <trkpt lat="45.71641" lon="4.76998">
        <ele>248.1</ele>
        <time>2021-09-04T19:50:43Z</time>
      </trkpt>
      <trkpt lat="45.71641" lon="4.76998">
        <ele>248.1</ele>
        <time>2021-09-04T19:50:44Z</time>
      </trkpt>
      <trkpt lat="45.71643" lon="4.76998">
        <ele>248</ele>
        <time>2021-09-04T19:50:49Z</time>
      </trkpt>
      <trkpt lat="45.71645" lon="4.76999">
        <ele>247.8</ele>
        <time>2021-09-04T19:50:50Z</time>
      </trkpt>
      <trkpt lat="45.71648" lon="4.77">
        <ele>247.7</ele>
        <time>2021-09-04T19:50:52Z</time>
      </trkpt>
      <trkpt lat="45.71651" lon="4.77001">
        <ele>247.6</ele>
        <time>2021-09-04T19:50:53Z</time>
      </trkpt>
      <trkpt lat="45.71655" lon="4.77001">
        <ele>247.4</ele>
        <time>2021-09-04T19:50:54Z</time>
      </trkpt>
      <trkpt lat="45.71661" lon="4.77005">
        <ele>247.4</ele>
        <time>2021-09-04T19:50:56Z</time>
      </trkpt>
      <trkpt lat="45.71666" lon="4.77006">
        <ele>247.4</ele>
        <time>2021-09-04T19:50:57Z</time>
      </trkpt>
      <trkpt lat="45.71674" lon="4.77009">
        <ele>247.7</ele>
        <time>2021-09-04T19:50:58Z</time>
      </trkpt>
      <trkpt lat="45.71678" lon="4.7701">
        <ele>247.9</ele>
        <time>2021-09-04T19:50:59Z</time>
      </trkpt>
      <trkpt lat="45.71681" lon="4.77009">
        <ele>248.1</ele>
        <time>2021-09-04T19:51:01Z</time>
      </trkpt>
      <trkpt lat="45.71684" lon="4.77011">
        <ele>248.3</ele>
        <time>2021-09-04T19:51:02Z</time>
      </trkpt>
      <trkpt lat="45.71686" lon="4.77012">
        <ele>248.5</ele>
        <time>2021-09-04T19:51:03Z</time>
      </trkpt>
      <trkpt lat="45.7169" lon="4.77013">
        <ele>248.7</ele>
        <time>2021-09-04T19:51:05Z</time>
      </trkpt>
      <trkpt lat="45.71695" lon="4.77014">
        <ele>249</ele>
        <time>2021-09-04T19:51:06Z</time>
      </trkpt>
      <trkpt lat="45.71699" lon="4.77016">
        <ele>249.2</ele>
        <time>2021-09-04T19:51:07Z</time>
      </trkpt>
      <trkpt lat="45.71702" lon="4.77017">
        <ele>249.4</ele>
        <time>2021-09-04T19:51:08Z</time>
      </trkpt>
      <trkpt lat="45.71709" lon="4.77019">
        <ele>249.6</ele>
        <time>2021-09-04T19:51:10Z</time>
      </trkpt>
      <trkpt lat="45.71713" lon="4.7702">
        <ele>249.7</ele>
        <time>2021-09-04T19:51:11Z</time>
      </trkpt>
      <trkpt lat="45.7172" lon="4.7702">
        <ele>249.9</ele>
        <time>2021-09-04T19:51:13Z</time>
      </trkpt>
      <trkpt lat="45.71726" lon="4.77021">
        <ele>250</ele>
        <time>2021-09-04T19:51:15Z</time>
      </trkpt>
      <trkpt lat="45.71732" lon="4.77023">
        <ele>250</ele>
        <time>2021-09-04T19:51:17Z</time>
      </trkpt>
      <trkpt lat="45.71736" lon="4.77027">
        <ele>249.9</ele>
        <time>2021-09-04T19:51:18Z</time>
      </trkpt>
      <trkpt lat="45.71739" lon="4.77033">
        <ele>249.9</ele>
        <time>2021-09-04T19:51:20Z</time>
      </trkpt>
      <trkpt lat="45.7174" lon="4.77039">
        <ele>249.8</ele>
        <time>2021-09-04T19:51:21Z</time>
      </trkpt>
      <trkpt lat="45.71742" lon="4.77049">
        <ele>249.7</ele>
        <time>2021-09-04T19:51:23Z</time>
      </trkpt>
      <trkpt lat="45.71744" lon="4.77055">
        <ele>249.6</ele>
        <time>2021-09-04T19:51:24Z</time>
      </trkpt>
      <trkpt lat="45.7175" lon="4.7706">
        <ele>249.4</ele>
        <time>2021-09-04T19:51:26Z</time>
      </trkpt>
      <trkpt lat="45.71754" lon="4.77061">
        <ele>249.3</ele>
        <time>2021-09-04T19:51:28Z</time>
      </trkpt>
      <trkpt lat="45.71761" lon="4.7706">
        <ele>249.2</ele>
        <time>2021-09-04T19:51:29Z</time>
      </trkpt>
      <trkpt lat="45.71765" lon="4.77058">
        <ele>249.1</ele>
        <time>2021-09-04T19:51:30Z</time>
      </trkpt>
      <trkpt lat="45.7177" lon="4.77058">
        <ele>248.9</ele>
        <time>2021-09-04T19:51:32Z</time>
      </trkpt>
      <trkpt lat="45.71775" lon="4.77058">
        <ele>248.8</ele>
        <time>2021-09-04T19:51:33Z</time>
      </trkpt>
      <trkpt lat="45.71784" lon="4.77057">
        <ele>248.4</ele>
        <time>2021-09-04T19:51:35Z</time>
      </trkpt>
      <trkpt lat="45.7179" lon="4.77055">
        <ele>248.1</ele>
        <time>2021-09-04T19:51:36Z</time>
      </trkpt>
      <trkpt lat="45.718" lon="4.77053">
        <ele>247.4</ele>
        <time>2021-09-04T19:51:38Z</time>
      </trkpt>
      <trkpt lat="45.71806" lon="4.77052">
        <ele>247.1</ele>
        <time>2021-09-04T19:51:39Z</time>
      </trkpt>
      <trkpt lat="45.71812" lon="4.77052">
        <ele>246.6</ele>
        <time>2021-09-04T19:51:40Z</time>
      </trkpt>
      <trkpt lat="45.71823" lon="4.77054">
        <ele>245.6</ele>
        <time>2021-09-04T19:51:42Z</time>
      </trkpt>
      <trkpt lat="45.7183" lon="4.77057">
        <ele>245</ele>
        <time>2021-09-04T19:51:43Z</time>
      </trkpt>
      <trkpt lat="45.71837" lon="4.7706">
        <ele>244.3</ele>
        <time>2021-09-04T19:51:44Z</time>
      </trkpt>
      <trkpt lat="45.71853" lon="4.77066">
        <ele>242.9</ele>
        <time>2021-09-04T19:51:46Z</time>
      </trkpt>
      <trkpt lat="45.71861" lon="4.77069">
        <ele>242.2</ele>
        <time>2021-09-04T19:51:47Z</time>
      </trkpt>
      <trkpt lat="45.71875" lon="4.77074">
        <ele>240.9</ele>
        <time>2021-09-04T19:51:49Z</time>
      </trkpt>
      <trkpt lat="45.71888" lon="4.77079">
        <ele>239.8</ele>
        <time>2021-09-04T19:51:51Z</time>
      </trkpt>
      <trkpt lat="45.71895" lon="4.7708">
        <ele>239.4</ele>
        <time>2021-09-04T19:51:52Z</time>
      </trkpt>
      <trkpt lat="45.71909" lon="4.77085">
        <ele>239.4</ele>
        <time>2021-09-04T19:51:54Z</time>
      </trkpt>
      <trkpt lat="45.71915" lon="4.77087">
        <ele>239.6</ele>
        <time>2021-09-04T19:51:55Z</time>
      </trkpt>
      <trkpt lat="45.71921" lon="4.77089">
        <ele>240</ele>
        <time>2021-09-04T19:51:56Z</time>
      </trkpt>
      <trkpt lat="45.71927" lon="4.77094">
        <ele>240.5</ele>
        <time>2021-09-04T19:51:58Z</time>
      </trkpt>
      <trkpt lat="45.71928" lon="4.77097">
        <ele>240.7</ele>
        <time>2021-09-04T19:51:59Z</time>
      </trkpt>
      <trkpt lat="45.71931" lon="4.77105">
        <ele>241.3</ele>
        <time>2021-09-04T19:52:01Z</time>
      </trkpt>
      <trkpt lat="45.71933" lon="4.77109">
        <ele>241.6</ele>
        <time>2021-09-04T19:52:02Z</time>
      </trkpt>
      <trkpt lat="45.71933" lon="4.77111">
        <ele>241.7</ele>
        <time>2021-09-04T19:52:03Z</time>
      </trkpt>
      <trkpt lat="45.71933" lon="4.77116">
        <ele>242.1</ele>
        <time>2021-09-04T19:52:05Z</time>
      </trkpt>
      <trkpt lat="45.71933" lon="4.7712">
        <ele>242.4</ele>
        <time>2021-09-04T19:52:06Z</time>
      </trkpt>
      <trkpt lat="45.71934" lon="4.77126">
        <ele>242.7</ele>
        <time>2021-09-04T19:52:07Z</time>
      </trkpt>
      <trkpt lat="45.71934" lon="4.77131">
        <ele>243</ele>
        <time>2021-09-04T19:52:08Z</time>
      </trkpt>
      <trkpt lat="45.71935" lon="4.77137">
        <ele>243.4</ele>
        <time>2021-09-04T19:52:10Z</time>
      </trkpt>
      <trkpt lat="45.71936" lon="4.7714">
        <ele>243.7</ele>
        <time>2021-09-04T19:52:11Z</time>
      </trkpt>
      <trkpt lat="45.71937" lon="4.77145">
        <ele>244</ele>
        <time>2021-09-04T19:52:13Z</time>
      </trkpt>
      <trkpt lat="45.71936" lon="4.77149">
        <ele>244.2</ele>
        <time>2021-09-04T19:52:15Z</time>
      </trkpt>
      <trkpt lat="45.71935" lon="4.77153">
        <ele>244.3</ele>
        <time>2021-09-04T19:52:16Z</time>
      </trkpt>
      <trkpt lat="45.71931" lon="4.77161">
        <ele>244</ele>
        <time>2021-09-04T19:52:17Z</time>
      </trkpt>
      <trkpt lat="45.71924" lon="4.77176">
        <ele>243.5</ele>
        <time>2021-09-04T19:52:19Z</time>
      </trkpt>
      <trkpt lat="45.71919" lon="4.77193">
        <ele>243.1</ele>
        <time>2021-09-04T19:52:21Z</time>
      </trkpt>
      <trkpt lat="45.71919" lon="4.77209">
        <ele>242.8</ele>
        <time>2021-09-04T19:52:23Z</time>
      </trkpt>
      <trkpt lat="45.71921" lon="4.77224">
        <ele>242.6</ele>
        <time>2021-09-04T19:52:25Z</time>
      </trkpt>
      <trkpt lat="45.71922" lon="4.77232">
        <ele>242.4</ele>
        <time>2021-09-04T19:52:26Z</time>
      </trkpt>
      <trkpt lat="45.71922" lon="4.77239">
        <ele>242.3</ele>
        <time>2021-09-04T19:52:27Z</time>
      </trkpt>
      <trkpt lat="45.71924" lon="4.77253">
        <ele>242.1</ele>
        <time>2021-09-04T19:52:29Z</time>
      </trkpt>
      <trkpt lat="45.71925" lon="4.7726">
        <ele>242</ele>
        <time>2021-09-04T19:52:30Z</time>
      </trkpt>
      <trkpt lat="45.71929" lon="4.77264">
        <ele>241.8</ele>
        <time>2021-09-04T19:52:31Z</time>
      </trkpt>
      <trkpt lat="45.71933" lon="4.77267">
        <ele>241.6</ele>
        <time>2021-09-04T19:52:32Z</time>
      </trkpt>
      <trkpt lat="45.71938" lon="4.77267">
        <ele>241.6</ele>
        <time>2021-09-04T19:52:33Z</time>
      </trkpt>
      <trkpt lat="45.71948" lon="4.77265">
        <ele>241.4</ele>
        <time>2021-09-04T19:52:35Z</time>
      </trkpt>
      <trkpt lat="45.71961" lon="4.77258">
        <ele>241.3</ele>
        <time>2021-09-04T19:52:37Z</time>
      </trkpt>
      <trkpt lat="45.71973" lon="4.77254">
        <ele>241.2</ele>
        <time>2021-09-04T19:52:39Z</time>
      </trkpt>
      <trkpt lat="45.71978" lon="4.77253">
        <ele>241.2</ele>
        <time>2021-09-04T19:52:40Z</time>
      </trkpt>
      <trkpt lat="45.71983" lon="4.77252">
        <ele>241.2</ele>
        <time>2021-09-04T19:52:41Z</time>
      </trkpt>
      <trkpt lat="45.71994" lon="4.77248">
        <ele>241.1</ele>
        <time>2021-09-04T19:52:43Z</time>
      </trkpt>
      <trkpt lat="45.71999" lon="4.77246">
        <ele>241.1</ele>
        <time>2021-09-04T19:52:44Z</time>
      </trkpt>
      <trkpt lat="45.7201" lon="4.77242">
        <ele>241.1</ele>
        <time>2021-09-04T19:52:46Z</time>
      </trkpt>
      <trkpt lat="45.72019" lon="4.77238">
        <ele>241.1</ele>
        <time>2021-09-04T19:52:48Z</time>
      </trkpt>
      <trkpt lat="45.72023" lon="4.77238">
        <ele>241</ele>
        <time>2021-09-04T19:52:49Z</time>
      </trkpt>
      <trkpt lat="45.7203" lon="4.77238">
        <ele>240.9</ele>
        <time>2021-09-04T19:52:51Z</time>
      </trkpt>
      <trkpt lat="45.72037" lon="4.77242">
        <ele>240.4</ele>
        <time>2021-09-04T19:52:53Z</time>
      </trkpt>
      <trkpt lat="45.72042" lon="4.77249">
        <ele>240</ele>
        <time>2021-09-04T19:52:55Z</time>
      </trkpt>
      <trkpt lat="45.72048" lon="4.77264">
        <ele>239.4</ele>
        <time>2021-09-04T19:52:57Z</time>
      </trkpt>
      <trkpt lat="45.72053" lon="4.77279">
        <ele>238.7</ele>
        <time>2021-09-04T19:52:59Z</time>
      </trkpt>
      <trkpt lat="45.72058" lon="4.77298">
        <ele>237.7</ele>
        <time>2021-09-04T19:53:01Z</time>
      </trkpt>
      <trkpt lat="45.7206" lon="4.77308">
        <ele>237.2</ele>
        <time>2021-09-04T19:53:02Z</time>
      </trkpt>
      <trkpt lat="45.72062" lon="4.77319">
        <ele>236.6</ele>
        <time>2021-09-04T19:53:03Z</time>
      </trkpt>
      <trkpt lat="45.72065" lon="4.77329">
        <ele>236.1</ele>
        <time>2021-09-04T19:53:04Z</time>
      </trkpt>
      <trkpt lat="45.72068" lon="4.77339">
        <ele>235.6</ele>
        <time>2021-09-04T19:53:05Z</time>
      </trkpt>
      <trkpt lat="45.72072" lon="4.7736">
        <ele>234.5</ele>
        <time>2021-09-04T19:53:07Z</time>
      </trkpt>
      <trkpt lat="45.72071" lon="4.77372">
        <ele>233.8</ele>
        <time>2021-09-04T19:53:08Z</time>
      </trkpt>
      <trkpt lat="45.72065" lon="4.77393">
        <ele>232.2</ele>
        <time>2021-09-04T19:53:10Z</time>
      </trkpt>
      <trkpt lat="45.72059" lon="4.774">
        <ele>231.2</ele>
        <time>2021-09-04T19:53:11Z</time>
      </trkpt>
      <trkpt lat="45.72056" lon="4.77408">
        <ele>230.3</ele>
        <time>2021-09-04T19:53:12Z</time>
      </trkpt>
      <trkpt lat="45.72053" lon="4.77424">
        <ele>228.6</ele>
        <time>2021-09-04T19:53:14Z</time>
      </trkpt>
      <trkpt lat="45.72058" lon="4.77438">
        <ele>227.2</ele>
        <time>2021-09-04T19:53:16Z</time>
      </trkpt>
      <trkpt lat="45.72073" lon="4.77447">
        <ele>225.2</ele>
        <time>2021-09-04T19:53:18Z</time>
      </trkpt>
      <trkpt lat="45.72081" lon="4.77451">
        <ele>224.4</ele>
        <time>2021-09-04T19:53:19Z</time>
      </trkpt>
      <trkpt lat="45.72097" lon="4.7746">
        <ele>222.9</ele>
        <time>2021-09-04T19:53:21Z</time>
      </trkpt>
      <trkpt lat="45.72105" lon="4.77463">
        <ele>222.2</ele>
        <time>2021-09-04T19:53:22Z</time>
      </trkpt>
      <trkpt lat="45.72124" lon="4.77467">
        <ele>220.7</ele>
        <time>2021-09-04T19:53:24Z</time>
      </trkpt>
      <trkpt lat="45.72141" lon="4.77476">
        <ele>219.5</ele>
        <time>2021-09-04T19:53:26Z</time>
      </trkpt>
      <trkpt lat="45.72149" lon="4.7748">
        <ele>219</ele>
        <time>2021-09-04T19:53:27Z</time>
      </trkpt>
      <trkpt lat="45.72165" lon="4.77491">
        <ele>218.1</ele>
        <time>2021-09-04T19:53:29Z</time>
      </trkpt>
      <trkpt lat="45.72173" lon="4.77496">
        <ele>217.6</ele>
        <time>2021-09-04T19:53:30Z</time>
      </trkpt>
      <trkpt lat="45.7219" lon="4.77504">
        <ele>216.7</ele>
        <time>2021-09-04T19:53:32Z</time>
      </trkpt>
      <trkpt lat="45.72207" lon="4.77509">
        <ele>215.8</ele>
        <time>2021-09-04T19:53:34Z</time>
      </trkpt>
      <trkpt lat="45.72215" lon="4.77513">
        <ele>215.4</ele>
        <time>2021-09-04T19:53:35Z</time>
      </trkpt>
      <trkpt lat="45.72231" lon="4.77522">
        <ele>214.8</ele>
        <time>2021-09-04T19:53:37Z</time>
      </trkpt>
      <trkpt lat="45.72245" lon="4.77535">
        <ele>214.1</ele>
        <time>2021-09-04T19:53:39Z</time>
      </trkpt>
      <trkpt lat="45.7226" lon="4.77546">
        <ele>213.4</ele>
        <time>2021-09-04T19:53:41Z</time>
      </trkpt>
      <trkpt lat="45.72267" lon="4.77553">
        <ele>213</ele>
        <time>2021-09-04T19:53:42Z</time>
      </trkpt>
      <trkpt lat="45.72281" lon="4.77566">
        <ele>212</ele>
        <time>2021-09-04T19:53:44Z</time>
      </trkpt>
      <trkpt lat="45.72289" lon="4.77573">
        <ele>211.4</ele>
        <time>2021-09-04T19:53:45Z</time>
      </trkpt>
      <trkpt lat="45.72305" lon="4.77584">
        <ele>209.9</ele>
        <time>2021-09-04T19:53:47Z</time>
      </trkpt>
      <trkpt lat="45.72313" lon="4.77592">
        <ele>208.9</ele>
        <time>2021-09-04T19:53:48Z</time>
      </trkpt>
      <trkpt lat="45.72329" lon="4.77608">
        <ele>207</ele>
        <time>2021-09-04T19:53:50Z</time>
      </trkpt>
      <trkpt lat="45.72343" lon="4.77623">
        <ele>205.3</ele>
        <time>2021-09-04T19:53:52Z</time>
      </trkpt>
      <trkpt lat="45.72348" lon="4.7763">
        <ele>204.7</ele>
        <time>2021-09-04T19:53:53Z</time>
      </trkpt>
      <trkpt lat="45.72362" lon="4.77633">
        <ele>203.9</ele>
        <time>2021-09-04T19:53:55Z</time>
      </trkpt>
      <trkpt lat="45.7237" lon="4.77633">
        <ele>203.6</ele>
        <time>2021-09-04T19:53:56Z</time>
      </trkpt>
      <trkpt lat="45.72378" lon="4.77635">
        <ele>203.4</ele>
        <time>2021-09-04T19:53:57Z</time>
      </trkpt>
      <trkpt lat="45.72386" lon="4.77636">
        <ele>203.2</ele>
        <time>2021-09-04T19:53:58Z</time>
      </trkpt>
      <trkpt lat="45.724" lon="4.77638">
        <ele>203.2</ele>
        <time>2021-09-04T19:54:00Z</time>
      </trkpt>
      <trkpt lat="45.72405" lon="4.77641">
        <ele>201.6</ele>
        <time>2021-09-04T19:54:01Z</time>
      </trkpt>
      <trkpt lat="45.72416" lon="4.77636">
        <ele>202</ele>
        <time>2021-09-04T19:54:03Z</time>
      </trkpt>
      <trkpt lat="45.72421" lon="4.77631">
        <ele>202.3</ele>
        <time>2021-09-04T19:54:04Z</time>
      </trkpt>
      <trkpt lat="45.7243" lon="4.77624">
        <ele>202.7</ele>
        <time>2021-09-04T19:54:06Z</time>
      </trkpt>
      <trkpt lat="45.72438" lon="4.77617">
        <ele>203.1</ele>
        <time>2021-09-04T19:54:08Z</time>
      </trkpt>
      <trkpt lat="45.72443" lon="4.77612">
        <ele>203.4</ele>
        <time>2021-09-04T19:54:10Z</time>
      </trkpt>
      <trkpt lat="45.72446" lon="4.77608">
        <ele>203.7</ele>
        <time>2021-09-04T19:54:11Z</time>
      </trkpt>
      <trkpt lat="45.72451" lon="4.77601">
        <ele>204</ele>
        <time>2021-09-04T19:54:13Z</time>
      </trkpt>
      <trkpt lat="45.72453" lon="4.77598">
        <ele>204.2</ele>
        <time>2021-09-04T19:54:14Z</time>
      </trkpt>
      <trkpt lat="45.72457" lon="4.77592">
        <ele>204.6</ele>
        <time>2021-09-04T19:54:16Z</time>
      </trkpt>
      <trkpt lat="45.7246" lon="4.77585">
        <ele>204.9</ele>
        <time>2021-09-04T19:54:18Z</time>
      </trkpt>
      <trkpt lat="45.72462" lon="4.77581">
        <ele>205.1</ele>
        <time>2021-09-04T19:54:19Z</time>
      </trkpt>
      <trkpt lat="45.72463" lon="4.77576">
        <ele>205.4</ele>
        <time>2021-09-04T19:54:21Z</time>
      </trkpt>
      <trkpt lat="45.72464" lon="4.7757">
        <ele>205.6</ele>
        <time>2021-09-04T19:54:22Z</time>
      </trkpt>
      <trkpt lat="45.72466" lon="4.77564">
        <ele>206</ele>
        <time>2021-09-04T19:54:24Z</time>
      </trkpt>
      <trkpt lat="45.72469" lon="4.7756">
        <ele>206.2</ele>
        <time>2021-09-04T19:54:25Z</time>
      </trkpt>
      <trkpt lat="45.7247" lon="4.77558">
        <ele>206.4</ele>
        <time>2021-09-04T19:54:26Z</time>
      </trkpt>
      <trkpt lat="45.72473" lon="4.77553">
        <ele>206.7</ele>
        <time>2021-09-04T19:54:28Z</time>
      </trkpt>
      <trkpt lat="45.72478" lon="4.77548">
        <ele>207.1</ele>
        <time>2021-09-04T19:54:30Z</time>
      </trkpt>
      <trkpt lat="45.72482" lon="4.77547">
        <ele>207.3</ele>
        <time>2021-09-04T19:54:31Z</time>
      </trkpt>
      <trkpt lat="45.72485" lon="4.77546">
        <ele>207.5</ele>
        <time>2021-09-04T19:54:32Z</time>
      </trkpt>
      <trkpt lat="45.7249" lon="4.77543">
        <ele>207.7</ele>
        <time>2021-09-04T19:54:34Z</time>
      </trkpt>
      <trkpt lat="45.72493" lon="4.77541">
        <ele>207.8</ele>
        <time>2021-09-04T19:54:36Z</time>
      </trkpt>
      <trkpt lat="45.72496" lon="4.77538">
        <ele>207.9</ele>
        <time>2021-09-04T19:54:37Z</time>
      </trkpt>
      <trkpt lat="45.72498" lon="4.77536">
        <ele>208</ele>
        <time>2021-09-04T19:54:38Z</time>
      </trkpt>
      <trkpt lat="45.72502" lon="4.77534">
        <ele>208.2</ele>
        <time>2021-09-04T19:54:40Z</time>
      </trkpt>
      <trkpt lat="45.72504" lon="4.77531">
        <ele>208.3</ele>
        <time>2021-09-04T19:54:41Z</time>
      </trkpt>
      <trkpt lat="45.72506" lon="4.77529">
        <ele>208.3</ele>
        <time>2021-09-04T19:54:42Z</time>
      </trkpt>
      <trkpt lat="45.72511" lon="4.77527">
        <ele>208.5</ele>
        <time>2021-09-04T19:54:44Z</time>
      </trkpt>
      <trkpt lat="45.72515" lon="4.77526">
        <ele>208.6</ele>
        <time>2021-09-04T19:54:46Z</time>
      </trkpt>
      <trkpt lat="45.72518" lon="4.77524">
        <ele>208.7</ele>
        <time>2021-09-04T19:54:47Z</time>
      </trkpt>
      <trkpt lat="45.72521" lon="4.77522">
        <ele>208.7</ele>
        <time>2021-09-04T19:54:48Z</time>
      </trkpt>
      <trkpt lat="45.72524" lon="4.77521">
        <ele>208.8</ele>
        <time>2021-09-04T19:54:49Z</time>
      </trkpt>
      <trkpt lat="45.72528" lon="4.7752">
        <ele>208.9</ele>
        <time>2021-09-04T19:54:50Z</time>
      </trkpt>
      <trkpt lat="45.72534" lon="4.77519">
        <ele>209</ele>
        <time>2021-09-04T19:54:52Z</time>
      </trkpt>
      <trkpt lat="45.72539" lon="4.77518">
        <ele>209.1</ele>
        <time>2021-09-04T19:54:54Z</time>
      </trkpt>
      <trkpt lat="45.72544" lon="4.77518">
        <ele>209.2</ele>
        <time>2021-09-04T19:54:55Z</time>
      </trkpt>
      <trkpt lat="45.7255" lon="4.77517">
        <ele>209.4</ele>
        <time>2021-09-04T19:54:57Z</time>
      </trkpt>
      <trkpt lat="45.72553" lon="4.77516">
        <ele>209.4</ele>
        <time>2021-09-04T19:54:59Z</time>
      </trkpt>
      <trkpt lat="45.72556" lon="4.77514">
        <ele>209.5</ele>
        <time>2021-09-04T19:55:00Z</time>
      </trkpt>
      <trkpt lat="45.72561" lon="4.77512">
        <ele>209.6</ele>
        <time>2021-09-04T19:55:02Z</time>
      </trkpt>
      <trkpt lat="45.72567" lon="4.7751">
        <ele>209.7</ele>
        <time>2021-09-04T19:55:04Z</time>
      </trkpt>
      <trkpt lat="45.72571" lon="4.77507">
        <ele>209.8</ele>
        <time>2021-09-04T19:55:05Z</time>
      </trkpt>
      <trkpt lat="45.72576" lon="4.77505">
        <ele>209.8</ele>
        <time>2021-09-04T19:55:07Z</time>
      </trkpt>
      <trkpt lat="45.72579" lon="4.77504">
        <ele>209.8</ele>
        <time>2021-09-04T19:55:08Z</time>
      </trkpt>
      <trkpt lat="45.72583" lon="4.77504">
        <ele>209.8</ele>
        <time>2021-09-04T19:55:10Z</time>
      </trkpt>
      <trkpt lat="45.72585" lon="4.77503">
        <ele>209.8</ele>
        <time>2021-09-04T19:55:11Z</time>
      </trkpt>
      <trkpt lat="45.72582" lon="4.77501">
        <ele>209.8</ele>
        <time>2021-09-04T19:55:12Z</time>
      </trkpt>
      <trkpt lat="45.72577" lon="4.77503">
        <ele>209.8</ele>
        <time>2021-09-04T19:55:14Z</time>
      </trkpt>
      <trkpt lat="45.72574" lon="4.77508">
        <ele>209.7</ele>
        <time>2021-09-04T19:55:16Z</time>
      </trkpt>
      <trkpt lat="45.72574" lon="4.7751">
        <ele>209.7</ele>
        <time>2021-09-04T19:55:17Z</time>
      </trkpt>
      <trkpt lat="45.72574" lon="4.77512">
        <ele>209.7</ele>
        <time>2021-09-04T19:55:18Z</time>
      </trkpt>
      <trkpt lat="45.72575" lon="4.77517">
        <ele>209.7</ele>
        <time>2021-09-04T19:55:20Z</time>
      </trkpt>
      <trkpt lat="45.72576" lon="4.77519">
        <ele>209.6</ele>
        <time>2021-09-04T19:55:21Z</time>
      </trkpt>
      <trkpt lat="45.72576" lon="4.77524">
        <ele>209.6</ele>
        <time>2021-09-04T19:55:23Z</time>
      </trkpt>
      <trkpt lat="45.72576" lon="4.77529">
        <ele>209.6</ele>
        <time>2021-09-04T19:55:25Z</time>
      </trkpt>
      <trkpt lat="45.72576" lon="4.77532">
        <ele>209.5</ele>
        <time>2021-09-04T19:55:26Z</time>
      </trkpt>
      <trkpt lat="45.72577" lon="4.77534">
        <ele>209.5</ele>
        <time>2021-09-04T19:55:27Z</time>
      </trkpt>
      <trkpt lat="45.72576" lon="4.77539">
        <ele>209.5</ele>
        <time>2021-09-04T19:55:29Z</time>
      </trkpt>
      <trkpt lat="45.72575" lon="4.77543">
        <ele>209.4</ele>
        <time>2021-09-04T19:55:30Z</time>
      </trkpt>
      <trkpt lat="45.72574" lon="4.77553">
        <ele>209.4</ele>
        <time>2021-09-04T19:55:32Z</time>
      </trkpt>
      <trkpt lat="45.72575" lon="4.77564">
        <ele>209.3</ele>
        <time>2021-09-04T19:55:34Z</time>
      </trkpt>
      <trkpt lat="45.72576" lon="4.77581">
        <ele>209</ele>
        <time>2021-09-04T19:55:36Z</time>
      </trkpt>
      <trkpt lat="45.72576" lon="4.77591">
        <ele>208.9</ele>
        <time>2021-09-04T19:55:37Z</time>
      </trkpt>
      <trkpt lat="45.72577" lon="4.77606">
        <ele>208.6</ele>
        <time>2021-09-04T19:55:39Z</time>
      </trkpt>
      <trkpt lat="45.72579" lon="4.77619">
        <ele>208.3</ele>
        <time>2021-09-04T19:55:41Z</time>
      </trkpt>
      <trkpt lat="45.7258" lon="4.77631">
        <ele>208</ele>
        <time>2021-09-04T19:55:43Z</time>
      </trkpt>
      <trkpt lat="45.72583" lon="4.77648">
        <ele>207.3</ele>
        <time>2021-09-04T19:55:45Z</time>
      </trkpt>
      <trkpt lat="45.72587" lon="4.77663">
        <ele>206.1</ele>
        <time>2021-09-04T19:55:47Z</time>
      </trkpt>
      <trkpt lat="45.72592" lon="4.77681">
        <ele>204.4</ele>
        <time>2021-09-04T19:55:49Z</time>
      </trkpt>
      <trkpt lat="45.72595" lon="4.7769">
        <ele>203.3</ele>
        <time>2021-09-04T19:55:50Z</time>
      </trkpt>
      <trkpt lat="45.72601" lon="4.77713">
        <ele>200.5</ele>
        <time>2021-09-04T19:55:52Z</time>
      </trkpt>
      <trkpt lat="45.72603" lon="4.77726">
        <ele>198.8</ele>
        <time>2021-09-04T19:55:53Z</time>
      </trkpt>
      <trkpt lat="45.72605" lon="4.77742">
        <ele>196.8</ele>
        <time>2021-09-04T19:55:54Z</time>
      </trkpt>
      <trkpt lat="45.7261" lon="4.77774">
        <ele>192.6</ele>
        <time>2021-09-04T19:55:56Z</time>
      </trkpt>
      <trkpt lat="45.72612" lon="4.77791">
        <ele>190.6</ele>
        <time>2021-09-04T19:55:57Z</time>
      </trkpt>
      <trkpt lat="45.72614" lon="4.77806">
        <ele>189</ele>
        <time>2021-09-04T19:55:58Z</time>
      </trkpt>
      <trkpt lat="45.72616" lon="4.77818">
        <ele>187.8</ele>
        <time>2021-09-04T19:55:59Z</time>
      </trkpt>
      <trkpt lat="45.7262" lon="4.77843">
        <ele>185.2</ele>
        <time>2021-09-04T19:56:01Z</time>
      </trkpt>
      <trkpt lat="45.72621" lon="4.77854">
        <ele>184.2</ele>
        <time>2021-09-04T19:56:02Z</time>
      </trkpt>
      <trkpt lat="45.72624" lon="4.77867">
        <ele>183.1</ele>
        <time>2021-09-04T19:56:03Z</time>
      </trkpt>
      <trkpt lat="45.72627" lon="4.77894">
        <ele>181.5</ele>
        <time>2021-09-04T19:56:05Z</time>
      </trkpt>
      <trkpt lat="45.7263" lon="4.77915">
        <ele>180.8</ele>
        <time>2021-09-04T19:56:07Z</time>
      </trkpt>
      <trkpt lat="45.72633" lon="4.77928">
        <ele>180.6</ele>
        <time>2021-09-04T19:56:09Z</time>
      </trkpt>
      <trkpt lat="45.72635" lon="4.77935">
        <ele>180.5</ele>
        <time>2021-09-04T19:56:10Z</time>
      </trkpt>
      <trkpt lat="45.72636" lon="4.77943">
        <ele>180.5</ele>
        <time>2021-09-04T19:56:11Z</time>
      </trkpt>
      <trkpt lat="45.72635" lon="4.77957">
        <ele>180.5</ele>
        <time>2021-09-04T19:56:13Z</time>
      </trkpt>
      <trkpt lat="45.72635" lon="4.77964">
        <ele>180.5</ele>
        <time>2021-09-04T19:56:14Z</time>
      </trkpt>
      <trkpt lat="45.72635" lon="4.77968">
        <ele>180.5</ele>
        <time>2021-09-04T19:56:15Z</time>
      </trkpt>
      <trkpt lat="45.72634" lon="4.77974">
        <ele>180.5</ele>
        <time>2021-09-04T19:56:16Z</time>
      </trkpt>
      <trkpt lat="45.72637" lon="4.77983">
        <ele>180.4</ele>
        <time>2021-09-04T19:56:18Z</time>
      </trkpt>
      <trkpt lat="45.72637" lon="4.77985">
        <ele>180.4</ele>
        <time>2021-09-04T19:56:19Z</time>
      </trkpt>
      <trkpt lat="45.72632" lon="4.77989">
        <ele>180.4</ele>
        <time>2021-09-04T19:56:21Z</time>
      </trkpt>
      <trkpt lat="45.72632" lon="4.7799">
        <ele>180.4</ele>
        <time>2021-09-04T19:56:22Z</time>
      </trkpt>
      <trkpt lat="45.72628" lon="4.77991">
        <ele>180.4</ele>
        <time>2021-09-04T19:56:24Z</time>
      </trkpt>
      <trkpt lat="45.72622" lon="4.77993">
        <ele>180.4</ele>
        <time>2021-09-04T19:56:25Z</time>
      </trkpt>
      <trkpt lat="45.72617" lon="4.77994">
        <ele>180.3</ele>
        <time>2021-09-04T19:56:26Z</time>
      </trkpt>
      <trkpt lat="45.72612" lon="4.77996">
        <ele>180.3</ele>
        <time>2021-09-04T19:56:27Z</time>
      </trkpt>
      <trkpt lat="45.72606" lon="4.77998">
        <ele>180.3</ele>
        <time>2021-09-04T19:56:29Z</time>
      </trkpt>
      <trkpt lat="45.72601" lon="4.78001">
        <ele>180.3</ele>
        <time>2021-09-04T19:56:30Z</time>
      </trkpt>
      <trkpt lat="45.72598" lon="4.78003">
        <ele>180.3</ele>
        <time>2021-09-04T19:56:31Z</time>
      </trkpt>
      <trkpt lat="45.72595" lon="4.78004">
        <ele>180.3</ele>
        <time>2021-09-04T19:56:33Z</time>
      </trkpt>
      <trkpt lat="45.72595" lon="4.78005">
        <ele>180.3</ele>
        <time>2021-09-04T19:56:34Z</time>
      </trkpt>
      <trkpt lat="45.72594" lon="4.78004">
        <ele>180.3</ele>
        <time>2021-09-04T19:56:35Z</time>
      </trkpt>
      <trkpt lat="45.72592" lon="4.78003">
        <ele>180.3</ele>
        <time>2021-09-04T19:56:37Z</time>
      </trkpt>
      <trkpt lat="45.72592" lon="4.78007">
        <ele>180.3</ele>
        <time>2021-09-04T19:56:39Z</time>
      </trkpt>
      <trkpt lat="45.72597" lon="4.78007">
        <ele>180.3</ele>
        <time>2021-09-04T19:56:41Z</time>
      </trkpt>
      <trkpt lat="45.726" lon="4.78">
        <ele>180.3</ele>
        <time>2021-09-04T19:56:43Z</time>
      </trkpt>
      <trkpt lat="45.72604" lon="4.77998">
        <ele>180.3</ele>
        <time>2021-09-04T19:56:44Z</time>
      </trkpt>
      <trkpt lat="45.72608" lon="4.77997">
        <ele>180.3</ele>
        <time>2021-09-04T19:56:45Z</time>
      </trkpt>
      <trkpt lat="45.72615" lon="4.77994">
        <ele>180.3</ele>
        <time>2021-09-04T19:56:47Z</time>
      </trkpt>
      <trkpt lat="45.72618" lon="4.77995">
        <ele>180.3</ele>
        <time>2021-09-04T19:56:48Z</time>
      </trkpt>
      <trkpt lat="45.72619" lon="4.77996">
        <ele>180.3</ele>
        <time>2021-09-04T19:56:49Z</time>
      </trkpt>
      <trkpt lat="45.72623" lon="4.77996">
        <ele>180.4</ele>
        <time>2021-09-04T19:56:51Z</time>
      </trkpt>
      <trkpt lat="45.72625" lon="4.77995">
        <ele>180.4</ele>
        <time>2021-09-04T19:56:52Z</time>
      </trkpt>
      <trkpt lat="45.72626" lon="4.77994">
        <ele>180.4</ele>
        <time>2021-09-04T19:56:53Z</time>
      </trkpt>
      <trkpt lat="45.7263" lon="4.77993">
        <ele>180.4</ele>
        <time>2021-09-04T19:56:55Z</time>
      </trkpt>
      <trkpt lat="45.72631" lon="4.77992">
        <ele>180.4</ele>
        <time>2021-09-04T19:56:56Z</time>
      </trkpt>
      <trkpt lat="45.72632" lon="4.77992">
        <ele>180.4</ele>
        <time>2021-09-04T19:56:57Z</time>
      </trkpt>
      <trkpt lat="45.72633" lon="4.77991">
        <ele>180.4</ele>
        <time>2021-09-04T19:56:58Z</time>
      </trkpt>
      <trkpt lat="45.72636" lon="4.7799">
        <ele>180.4</ele>
        <time>2021-09-04T19:57:00Z</time>
      </trkpt>
      <trkpt lat="45.72637" lon="4.77989">
        <ele>180.3</ele>
        <time>2021-09-04T19:57:01Z</time>
      </trkpt>
      <trkpt lat="45.72639" lon="4.77992">
        <ele>180.4</ele>
        <time>2021-09-04T19:57:03Z</time>
      </trkpt>
      <trkpt lat="45.7264" lon="4.77996">
        <ele>180.4</ele>
        <time>2021-09-04T19:57:05Z</time>
      </trkpt>
      <trkpt lat="45.72642" lon="4.78001">
        <ele>180.6</ele>
        <time>2021-09-04T19:57:07Z</time>
      </trkpt>
      <trkpt lat="45.72643" lon="4.78003">
        <ele>180.5</ele>
        <time>2021-09-04T19:57:08Z</time>
      </trkpt>
      <trkpt lat="45.72643" lon="4.78005">
        <ele>180.7</ele>
        <time>2021-09-04T19:57:09Z</time>
      </trkpt>
      <trkpt lat="45.72644" lon="4.78012">
        <ele>181.1</ele>
        <time>2021-09-04T19:57:11Z</time>
      </trkpt>
      <trkpt lat="45.72644" lon="4.78014">
        <ele>181.4</ele>
        <time>2021-09-04T19:57:12Z</time>
      </trkpt>
      <trkpt lat="45.72644" lon="4.78016">
        <ele>181.3</ele>
        <time>2021-09-04T19:57:13Z</time>
      </trkpt>
      <trkpt lat="45.72643" lon="4.7802">
        <ele>181.4</ele>
        <time>2021-09-04T19:57:15Z</time>
      </trkpt>
      <trkpt lat="45.7264" lon="4.78023">
        <ele>181.4</ele>
        <time>2021-09-04T19:57:16Z</time>
      </trkpt>
      <trkpt lat="45.72639" lon="4.78027">
        <ele>181.6</ele>
        <time>2021-09-04T19:57:17Z</time>
      </trkpt>
      <trkpt lat="45.7264" lon="4.78031">
        <ele>181.7</ele>
        <time>2021-09-04T19:57:18Z</time>
      </trkpt>
      <trkpt lat="45.72642" lon="4.78035">
        <ele>181.9</ele>
        <time>2021-09-04T19:57:19Z</time>
      </trkpt>
      <trkpt lat="45.72644" lon="4.78039">
        <ele>182.1</ele>
        <time>2021-09-04T19:57:20Z</time>
      </trkpt>
      <trkpt lat="45.72648" lon="4.78045">
        <ele>182.6</ele>
        <time>2021-09-04T19:57:22Z</time>
      </trkpt>
      <trkpt lat="45.72651" lon="4.78052">
        <ele>183.1</ele>
        <time>2021-09-04T19:57:23Z</time>
      </trkpt>
      <trkpt lat="45.72653" lon="4.78059">
        <ele>183.7</ele>
        <time>2021-09-04T19:57:25Z</time>
      </trkpt>
      <trkpt lat="45.72655" lon="4.78065">
        <ele>184.3</ele>
        <time>2021-09-04T19:57:26Z</time>
      </trkpt>
      <trkpt lat="45.72656" lon="4.78071">
        <ele>184.9</ele>
        <time>2021-09-04T19:57:28Z</time>
      </trkpt>
      <trkpt lat="45.72656" lon="4.78077">
        <ele>185.3</ele>
        <time>2021-09-04T19:57:30Z</time>
      </trkpt>
      <trkpt lat="45.72656" lon="4.78082">
        <ele>185.9</ele>
        <time>2021-09-04T19:57:31Z</time>
      </trkpt>
      <trkpt lat="45.72656" lon="4.78085">
        <ele>186.1</ele>
        <time>2021-09-04T19:57:32Z</time>
      </trkpt>
      <trkpt lat="45.72655" lon="4.7809">
        <ele>186.6</ele>
        <time>2021-09-04T19:57:34Z</time>
      </trkpt>
      <trkpt lat="45.72656" lon="4.78096">
        <ele>187.2</ele>
        <time>2021-09-04T19:57:36Z</time>
      </trkpt>
      <trkpt lat="45.72659" lon="4.78099">
        <ele>187.7</ele>
        <time>2021-09-04T19:57:38Z</time>
      </trkpt>
      <trkpt lat="45.72659" lon="4.781">
        <ele>188</ele>
        <time>2021-09-04T19:57:39Z</time>
      </trkpt>
      <trkpt lat="45.72659" lon="4.78107">
        <ele>188.7</ele>
        <time>2021-09-04T19:57:41Z</time>
      </trkpt>
      <trkpt lat="45.7266" lon="4.78108">
        <ele>188.9</ele>
        <time>2021-09-04T19:57:42Z</time>
      </trkpt>
      <trkpt lat="45.72661" lon="4.7811">
        <ele>189.2</ele>
        <time>2021-09-04T19:57:43Z</time>
      </trkpt>
      <trkpt lat="45.72663" lon="4.78115">
        <ele>189.8</ele>
        <time>2021-09-04T19:57:45Z</time>
      </trkpt>
      <trkpt lat="45.72661" lon="4.7812">
        <ele>190.5</ele>
        <time>2021-09-04T19:57:46Z</time>
      </trkpt>
      <trkpt lat="45.72658" lon="4.78124">
        <ele>191.2</ele>
        <time>2021-09-04T19:57:48Z</time>
      </trkpt>
      <trkpt lat="45.72657" lon="4.78129">
        <ele>191.8</ele>
        <time>2021-09-04T19:57:49Z</time>
      </trkpt>
      <trkpt lat="45.72658" lon="4.78133">
        <ele>192.4</ele>
        <time>2021-09-04T19:57:51Z</time>
      </trkpt>
      <trkpt lat="45.72659" lon="4.78137">
        <ele>192.9</ele>
        <time>2021-09-04T19:57:52Z</time>
      </trkpt>
      <trkpt lat="45.72657" lon="4.78142">
        <ele>193.5</ele>
        <time>2021-09-04T19:57:54Z</time>
      </trkpt>
      <trkpt lat="45.72654" lon="4.78143">
        <ele>194</ele>
        <time>2021-09-04T19:57:55Z</time>
      </trkpt>
      <trkpt lat="45.72652" lon="4.78146">
        <ele>194.6</ele>
        <time>2021-09-04T19:57:57Z</time>
      </trkpt>
      <trkpt lat="45.72652" lon="4.78148">
        <ele>194.9</ele>
        <time>2021-09-04T19:57:58Z</time>
      </trkpt>
      <trkpt lat="45.7265" lon="4.7815">
        <ele>195.3</ele>
        <time>2021-09-04T19:58:00Z</time>
      </trkpt>
      <trkpt lat="45.72648" lon="4.78153">
        <ele>195.8</ele>
        <time>2021-09-04T19:58:01Z</time>
      </trkpt>
      <trkpt lat="45.72646" lon="4.78155">
        <ele>196.3</ele>
        <time>2021-09-04T19:58:03Z</time>
      </trkpt>
      <trkpt lat="45.72643" lon="4.78156">
        <ele>196.8</ele>
        <time>2021-09-04T19:58:04Z</time>
      </trkpt>
      <trkpt lat="45.72641" lon="4.78157">
        <ele>197.1</ele>
        <time>2021-09-04T19:58:05Z</time>
      </trkpt>
      <trkpt lat="45.72639" lon="4.78156">
        <ele>197.5</ele>
        <time>2021-09-04T19:58:06Z</time>
      </trkpt>
      <trkpt lat="45.72637" lon="4.78159">
        <ele>198.1</ele>
        <time>2021-09-04T19:58:08Z</time>
      </trkpt>
      <trkpt lat="45.72636" lon="4.78161">
        <ele>198.4</ele>
        <time>2021-09-04T19:58:09Z</time>
      </trkpt>
      <trkpt lat="45.72636" lon="4.78164">
        <ele>198.7</ele>
        <time>2021-09-04T19:58:10Z</time>
      </trkpt>
      <trkpt lat="45.72633" lon="4.78165">
        <ele>199.2</ele>
        <time>2021-09-04T19:58:12Z</time>
      </trkpt>
      <trkpt lat="45.72632" lon="4.78166">
        <ele>199.5</ele>
        <time>2021-09-04T19:58:13Z</time>
      </trkpt>
      <trkpt lat="45.72629" lon="4.78167">
        <ele>200.1</ele>
        <time>2021-09-04T19:58:14Z</time>
      </trkpt>
      <trkpt lat="45.72628" lon="4.78168">
        <ele>200.3</ele>
        <time>2021-09-04T19:58:15Z</time>
      </trkpt>
      <trkpt lat="45.72628" lon="4.78173">
        <ele>200.9</ele>
        <time>2021-09-04T19:58:17Z</time>
      </trkpt>
      <trkpt lat="45.72628" lon="4.78174">
        <ele>201.2</ele>
        <time>2021-09-04T19:58:18Z</time>
      </trkpt>
      <trkpt lat="45.72629" lon="4.78178">
        <ele>201.8</ele>
        <time>2021-09-04T19:58:20Z</time>
      </trkpt>
      <trkpt lat="45.72629" lon="4.7818">
        <ele>202</ele>
        <time>2021-09-04T19:58:21Z</time>
      </trkpt>
      <trkpt lat="45.72629" lon="4.78185">
        <ele>202.6</ele>
        <time>2021-09-04T19:58:23Z</time>
      </trkpt>
      <trkpt lat="45.72629" lon="4.78186">
        <ele>202.8</ele>
        <time>2021-09-04T19:58:24Z</time>
      </trkpt>
      <trkpt lat="45.72628" lon="4.7819">
        <ele>203.4</ele>
        <time>2021-09-04T19:58:25Z</time>
      </trkpt>
      <trkpt lat="45.72628" lon="4.78192">
        <ele>203.7</ele>
        <time>2021-09-04T19:58:27Z</time>
      </trkpt>
      <trkpt lat="45.72628" lon="4.78194">
        <ele>203.9</ele>
        <time>2021-09-04T19:58:28Z</time>
      </trkpt>
      <trkpt lat="45.72628" lon="4.78196">
        <ele>204.2</ele>
        <time>2021-09-04T19:58:29Z</time>
      </trkpt>
      <trkpt lat="45.72627" lon="4.78198">
        <ele>204.6</ele>
        <time>2021-09-04T19:58:30Z</time>
      </trkpt>
      <trkpt lat="45.72626" lon="4.782">
        <ele>204.9</ele>
        <time>2021-09-04T19:58:32Z</time>
      </trkpt>
      <trkpt lat="45.72626" lon="4.78203">
        <ele>205.3</ele>
        <time>2021-09-04T19:58:33Z</time>
      </trkpt>
      <trkpt lat="45.72625" lon="4.78206">
        <ele>205.8</ele>
        <time>2021-09-04T19:58:35Z</time>
      </trkpt>
      <trkpt lat="45.72624" lon="4.78208">
        <ele>206.1</ele>
        <time>2021-09-04T19:58:36Z</time>
      </trkpt>
      <trkpt lat="45.72624" lon="4.78211">
        <ele>206.5</ele>
        <time>2021-09-04T19:58:38Z</time>
      </trkpt>
      <trkpt lat="45.72625" lon="4.78213">
        <ele>206.7</ele>
        <time>2021-09-04T19:58:39Z</time>
      </trkpt>
      <trkpt lat="45.72624" lon="4.78216">
        <ele>207.2</ele>
        <time>2021-09-04T19:58:41Z</time>
      </trkpt>
      <trkpt lat="45.72624" lon="4.78218">
        <ele>207.5</ele>
        <time>2021-09-04T19:58:42Z</time>
      </trkpt>
      <trkpt lat="45.72625" lon="4.7822">
        <ele>207.8</ele>
        <time>2021-09-04T19:58:43Z</time>
      </trkpt>
      <trkpt lat="45.72624" lon="4.78222">
        <ele>208</ele>
        <time>2021-09-04T19:58:45Z</time>
      </trkpt>
      <trkpt lat="45.72623" lon="4.78225">
        <ele>208.3</ele>
        <time>2021-09-04T19:58:46Z</time>
      </trkpt>
      <trkpt lat="45.72623" lon="4.78227">
        <ele>208.6</ele>
        <time>2021-09-04T19:58:47Z</time>
      </trkpt>
      <trkpt lat="45.72623" lon="4.78229">
        <ele>208.8</ele>
        <time>2021-09-04T19:58:48Z</time>
      </trkpt>
      <trkpt lat="45.72624" lon="4.78232">
        <ele>209.2</ele>
        <time>2021-09-04T19:58:50Z</time>
      </trkpt>
      <trkpt lat="45.72624" lon="4.78235">
        <ele>209.6</ele>
        <time>2021-09-04T19:58:52Z</time>
      </trkpt>
      <trkpt lat="45.72624" lon="4.78237">
        <ele>209.9</ele>
        <time>2021-09-04T19:58:53Z</time>
      </trkpt>
      <trkpt lat="45.72625" lon="4.78239">
        <ele>210</ele>
        <time>2021-09-04T19:58:54Z</time>
      </trkpt>
      <trkpt lat="45.72626" lon="4.78241">
        <ele>210.3</ele>
        <time>2021-09-04T19:58:56Z</time>
      </trkpt>
      <trkpt lat="45.72626" lon="4.78244">
        <ele>210.6</ele>
        <time>2021-09-04T19:58:57Z</time>
      </trkpt>
      <trkpt lat="45.72626" lon="4.78245">
        <ele>210.9</ele>
        <time>2021-09-04T19:58:58Z</time>
      </trkpt>
      <trkpt lat="45.72626" lon="4.78249">
        <ele>211.2</ele>
        <time>2021-09-04T19:58:59Z</time>
      </trkpt>
      <trkpt lat="45.72626" lon="4.7825">
        <ele>211.4</ele>
        <time>2021-09-04T19:59:00Z</time>
      </trkpt>
      <trkpt lat="45.72627" lon="4.78251">
        <ele>211.6</ele>
        <time>2021-09-04T19:59:01Z</time>
      </trkpt>
      <trkpt lat="45.72629" lon="4.78255">
        <ele>212.1</ele>
        <time>2021-09-04T19:59:03Z</time>
      </trkpt>
      <trkpt lat="45.7263" lon="4.78257">
        <ele>212.4</ele>
        <time>2021-09-04T19:59:04Z</time>
      </trkpt>
      <trkpt lat="45.7263" lon="4.7826">
        <ele>212.7</ele>
        <time>2021-09-04T19:59:06Z</time>
      </trkpt>
      <trkpt lat="45.72631" lon="4.78261">
        <ele>212.9</ele>
        <time>2021-09-04T19:59:07Z</time>
      </trkpt>
      <trkpt lat="45.72632" lon="4.78263">
        <ele>213.2</ele>
        <time>2021-09-04T19:59:08Z</time>
      </trkpt>
      <trkpt lat="45.72633" lon="4.78267">
        <ele>213.6</ele>
        <time>2021-09-04T19:59:10Z</time>
      </trkpt>
      <trkpt lat="45.72634" lon="4.78268">
        <ele>213.9</ele>
        <time>2021-09-04T19:59:12Z</time>
      </trkpt>
      <trkpt lat="45.72635" lon="4.78269">
        <ele>214.2</ele>
        <time>2021-09-04T19:59:13Z</time>
      </trkpt>
      <trkpt lat="45.72636" lon="4.78271">
        <ele>214.4</ele>
        <time>2021-09-04T19:59:14Z</time>
      </trkpt>
      <trkpt lat="45.72637" lon="4.78275">
        <ele>214.9</ele>
        <time>2021-09-04T19:59:16Z</time>
      </trkpt>
      <trkpt lat="45.72637" lon="4.78276">
        <ele>215</ele>
        <time>2021-09-04T19:59:17Z</time>
      </trkpt>
      <trkpt lat="45.72638" lon="4.78279">
        <ele>215.4</ele>
        <time>2021-09-04T19:59:18Z</time>
      </trkpt>
      <trkpt lat="45.72638" lon="4.7828">
        <ele>215.5</ele>
        <time>2021-09-04T19:59:19Z</time>
      </trkpt>
      <trkpt lat="45.72639" lon="4.78281">
        <ele>215.7</ele>
        <time>2021-09-04T19:59:20Z</time>
      </trkpt>
      <trkpt lat="45.72639" lon="4.78283">
        <ele>216</ele>
        <time>2021-09-04T19:59:22Z</time>
      </trkpt>
      <trkpt lat="45.7264" lon="4.78285">
        <ele>216.3</ele>
        <time>2021-09-04T19:59:23Z</time>
      </trkpt>
      <trkpt lat="45.7264" lon="4.78287">
        <ele>216.5</ele>
        <time>2021-09-04T19:59:24Z</time>
      </trkpt>
      <trkpt lat="45.7264" lon="4.78288">
        <ele>216.8</ele>
        <time>2021-09-04T19:59:25Z</time>
      </trkpt>
      <trkpt lat="45.72641" lon="4.78291">
        <ele>217.2</ele>
        <time>2021-09-04T19:59:27Z</time>
      </trkpt>
      <trkpt lat="45.72642" lon="4.78294">
        <ele>217.6</ele>
        <time>2021-09-04T19:59:28Z</time>
      </trkpt>
      <trkpt lat="45.72642" lon="4.78296">
        <ele>217.9</ele>
        <time>2021-09-04T19:59:30Z</time>
      </trkpt>
      <trkpt lat="45.72642" lon="4.78298">
        <ele>218.3</ele>
        <time>2021-09-04T19:59:31Z</time>
      </trkpt>
      <trkpt lat="45.72642" lon="4.783">
        <ele>218.5</ele>
        <time>2021-09-04T19:59:32Z</time>
      </trkpt>
      <trkpt lat="45.72643" lon="4.78303">
        <ele>218.9</ele>
        <time>2021-09-04T19:59:33Z</time>
      </trkpt>
      <trkpt lat="45.72644" lon="4.78304">
        <ele>219.2</ele>
        <time>2021-09-04T19:59:35Z</time>
      </trkpt>
      <trkpt lat="45.72644" lon="4.78306">
        <ele>219.4</ele>
        <time>2021-09-04T19:59:36Z</time>
      </trkpt>
      <trkpt lat="45.72645" lon="4.78307">
        <ele>219.7</ele>
        <time>2021-09-04T19:59:37Z</time>
      </trkpt>
      <trkpt lat="45.72647" lon="4.7831">
        <ele>220.2</ele>
        <time>2021-09-04T19:59:39Z</time>
      </trkpt>
      <trkpt lat="45.72648" lon="4.78311">
        <ele>220.4</ele>
        <time>2021-09-04T19:59:40Z</time>
      </trkpt>
      <trkpt lat="45.72648" lon="4.78313">
        <ele>220.7</ele>
        <time>2021-09-04T19:59:41Z</time>
      </trkpt>
      <trkpt lat="45.72649" lon="4.78316">
        <ele>221.1</ele>
        <time>2021-09-04T19:59:43Z</time>
      </trkpt>
      <trkpt lat="45.72649" lon="4.78318">
        <ele>221.5</ele>
        <time>2021-09-04T19:59:44Z</time>
      </trkpt>
      <trkpt lat="45.7265" lon="4.78321">
        <ele>221.9</ele>
        <time>2021-09-04T19:59:46Z</time>
      </trkpt>
      <trkpt lat="45.72652" lon="4.78322">
        <ele>222.3</ele>
        <time>2021-09-04T19:59:47Z</time>
      </trkpt>
      <trkpt lat="45.72654" lon="4.78322">
        <ele>222.6</ele>
        <time>2021-09-04T19:59:49Z</time>
      </trkpt>
      <trkpt lat="45.72656" lon="4.78324">
        <ele>223.1</ele>
        <time>2021-09-04T19:59:50Z</time>
      </trkpt>
      <trkpt lat="45.72658" lon="4.78326">
        <ele>223.4</ele>
        <time>2021-09-04T19:59:52Z</time>
      </trkpt>
      <trkpt lat="45.72659" lon="4.78329">
        <ele>223.8</ele>
        <time>2021-09-04T19:59:53Z</time>
      </trkpt>
      <trkpt lat="45.72659" lon="4.78331">
        <ele>224.1</ele>
        <time>2021-09-04T19:59:55Z</time>
      </trkpt>
      <trkpt lat="45.7266" lon="4.78334">
        <ele>224.4</ele>
        <time>2021-09-04T19:59:56Z</time>
      </trkpt>
      <trkpt lat="45.72661" lon="4.78337">
        <ele>224.8</ele>
        <time>2021-09-04T19:59:58Z</time>
      </trkpt>
      <trkpt lat="45.72662" lon="4.78339">
        <ele>225.1</ele>
        <time>2021-09-04T19:59:59Z</time>
      </trkpt>
      <trkpt lat="45.72662" lon="4.78342">
        <ele>225.4</ele>
        <time>2021-09-04T20:00:01Z</time>
      </trkpt>
      <trkpt lat="45.72663" lon="4.78346">
        <ele>225.8</ele>
        <time>2021-09-04T20:00:02Z</time>
      </trkpt>
      <trkpt lat="45.72663" lon="4.78348">
        <ele>226</ele>
        <time>2021-09-04T20:00:03Z</time>
      </trkpt>
      <trkpt lat="45.72664" lon="4.78352">
        <ele>226.4</ele>
        <time>2021-09-04T20:00:05Z</time>
      </trkpt>
      <trkpt lat="45.72664" lon="4.78353">
        <ele>226.6</ele>
        <time>2021-09-04T20:00:06Z</time>
      </trkpt>
      <trkpt lat="45.72664" lon="4.78357">
        <ele>227</ele>
        <time>2021-09-04T20:00:08Z</time>
      </trkpt>
      <trkpt lat="45.72664" lon="4.7836">
        <ele>227.3</ele>
        <time>2021-09-04T20:00:09Z</time>
      </trkpt>
      <trkpt lat="45.72665" lon="4.78362">
        <ele>227.5</ele>
        <time>2021-09-04T20:00:10Z</time>
      </trkpt>
      <trkpt lat="45.72665" lon="4.78366">
        <ele>228</ele>
        <time>2021-09-04T20:00:12Z</time>
      </trkpt>
      <trkpt lat="45.72666" lon="4.78367">
        <ele>228.1</ele>
        <time>2021-09-04T20:00:13Z</time>
      </trkpt>
      <trkpt lat="45.72666" lon="4.78372">
        <ele>228.6</ele>
        <time>2021-09-04T20:00:15Z</time>
      </trkpt>
      <trkpt lat="45.72666" lon="4.78373">
        <ele>228.8</ele>
        <time>2021-09-04T20:00:16Z</time>
      </trkpt>
      <trkpt lat="45.72666" lon="4.78377">
        <ele>229.2</ele>
        <time>2021-09-04T20:00:18Z</time>
      </trkpt>
      <trkpt lat="45.72666" lon="4.78379">
        <ele>229.4</ele>
        <time>2021-09-04T20:00:19Z</time>
      </trkpt>
      <trkpt lat="45.72667" lon="4.78381">
        <ele>229.7</ele>
        <time>2021-09-04T20:00:20Z</time>
      </trkpt>
      <trkpt lat="45.72668" lon="4.78383">
        <ele>229.9</ele>
        <time>2021-09-04T20:00:21Z</time>
      </trkpt>
      <trkpt lat="45.72669" lon="4.78387">
        <ele>230.4</ele>
        <time>2021-09-04T20:00:22Z</time>
      </trkpt>
      <trkpt lat="45.7267" lon="4.78389">
        <ele>230.6</ele>
        <time>2021-09-04T20:00:24Z</time>
      </trkpt>
      <trkpt lat="45.7267" lon="4.7839">
        <ele>230.9</ele>
        <time>2021-09-04T20:00:25Z</time>
      </trkpt>
      <trkpt lat="45.72671" lon="4.78392">
        <ele>231.1</ele>
        <time>2021-09-04T20:00:26Z</time>
      </trkpt>
      <trkpt lat="45.72671" lon="4.78396">
        <ele>231.5</ele>
        <time>2021-09-04T20:00:28Z</time>
      </trkpt>
      <trkpt lat="45.72671" lon="4.78398">
        <ele>231.8</ele>
        <time>2021-09-04T20:00:30Z</time>
      </trkpt>
      <trkpt lat="45.72672" lon="4.78402">
        <ele>232.3</ele>
        <time>2021-09-04T20:00:31Z</time>
      </trkpt>
      <trkpt lat="45.72672" lon="4.78403">
        <ele>232.4</ele>
        <time>2021-09-04T20:00:32Z</time>
      </trkpt>
      <trkpt lat="45.72673" lon="4.78407">
        <ele>232.9</ele>
        <time>2021-09-04T20:00:34Z</time>
      </trkpt>
      <trkpt lat="45.72673" lon="4.78409">
        <ele>233.1</ele>
        <time>2021-09-04T20:00:35Z</time>
      </trkpt>
      <trkpt lat="45.72673" lon="4.78411">
        <ele>233.3</ele>
        <time>2021-09-04T20:00:36Z</time>
      </trkpt>
      <trkpt lat="45.72674" lon="4.78413">
        <ele>233.7</ele>
        <time>2021-09-04T20:00:38Z</time>
      </trkpt>
      <trkpt lat="45.72674" lon="4.78416">
        <ele>233.9</ele>
        <time>2021-09-04T20:00:39Z</time>
      </trkpt>
      <trkpt lat="45.72674" lon="4.78418">
        <ele>234.3</ele>
        <time>2021-09-04T20:00:41Z</time>
      </trkpt>
      <trkpt lat="45.72675" lon="4.78421">
        <ele>234.6</ele>
        <time>2021-09-04T20:00:42Z</time>
      </trkpt>
      <trkpt lat="45.72675" lon="4.78423">
        <ele>234.9</ele>
        <time>2021-09-04T20:00:43Z</time>
      </trkpt>
      <trkpt lat="45.72676" lon="4.78426">
        <ele>235.3</ele>
        <time>2021-09-04T20:00:45Z</time>
      </trkpt>
      <trkpt lat="45.72677" lon="4.78428">
        <ele>235.5</ele>
        <time>2021-09-04T20:00:47Z</time>
      </trkpt>
      <trkpt lat="45.72677" lon="4.78431">
        <ele>235.8</ele>
        <time>2021-09-04T20:00:48Z</time>
      </trkpt>
      <trkpt lat="45.72677" lon="4.78433">
        <ele>236.1</ele>
        <time>2021-09-04T20:00:49Z</time>
      </trkpt>
      <trkpt lat="45.72679" lon="4.78437">
        <ele>236.6</ele>
        <time>2021-09-04T20:00:51Z</time>
      </trkpt>
      <trkpt lat="45.7268" lon="4.78437">
        <ele>236.7</ele>
        <time>2021-09-04T20:00:52Z</time>
      </trkpt>
      <trkpt lat="45.7268" lon="4.78439">
        <ele>236.9</ele>
        <time>2021-09-04T20:00:53Z</time>
      </trkpt>
      <trkpt lat="45.72681" lon="4.78441">
        <ele>237.2</ele>
        <time>2021-09-04T20:00:55Z</time>
      </trkpt>
      <trkpt lat="45.72682" lon="4.78444">
        <ele>237.5</ele>
        <time>2021-09-04T20:00:56Z</time>
      </trkpt>
      <trkpt lat="45.72682" lon="4.78447">
        <ele>237.9</ele>
        <time>2021-09-04T20:00:58Z</time>
      </trkpt>
      <trkpt lat="45.72682" lon="4.78449">
        <ele>238.3</ele>
        <time>2021-09-04T20:00:59Z</time>
      </trkpt>
      <trkpt lat="45.72682" lon="4.78451">
        <ele>238.3</ele>
        <time>2021-09-04T20:01:00Z</time>
      </trkpt>
      <trkpt lat="45.72681" lon="4.78453">
        <ele>238.4</ele>
        <time>2021-09-04T20:01:01Z</time>
      </trkpt>
      <trkpt lat="45.7268" lon="4.78455">
        <ele>238.5</ele>
        <time>2021-09-04T20:01:03Z</time>
      </trkpt>
      <trkpt lat="45.72678" lon="4.78455">
        <ele>238.6</ele>
        <time>2021-09-04T20:01:04Z</time>
      </trkpt>
      <trkpt lat="45.72677" lon="4.78456">
        <ele>238.6</ele>
        <time>2021-09-04T20:01:05Z</time>
      </trkpt>
      <trkpt lat="45.72677" lon="4.78459">
        <ele>238.7</ele>
        <time>2021-09-04T20:01:07Z</time>
      </trkpt>
      <trkpt lat="45.72678" lon="4.7846">
        <ele>238.8</ele>
        <time>2021-09-04T20:01:08Z</time>
      </trkpt>
      <trkpt lat="45.72681" lon="4.78461">
        <ele>239</ele>
        <time>2021-09-04T20:01:10Z</time>
      </trkpt>
      <trkpt lat="45.72682" lon="4.7846">
        <ele>239</ele>
        <time>2021-09-04T20:01:11Z</time>
      </trkpt>
      <trkpt lat="45.72683" lon="4.78459">
        <ele>239.1</ele>
        <time>2021-09-04T20:01:13Z</time>
      </trkpt>
      <trkpt lat="45.72683" lon="4.78458">
        <ele>239.1</ele>
        <time>2021-09-04T20:01:14Z</time>
      </trkpt>
      <trkpt lat="45.72684" lon="4.78457">
        <ele>239.2</ele>
        <time>2021-09-04T20:01:16Z</time>
      </trkpt>
      <trkpt lat="45.72686" lon="4.78457">
        <ele>239.3</ele>
        <time>2021-09-04T20:01:18Z</time>
      </trkpt>
      <trkpt lat="45.72686" lon="4.78456">
        <ele>239.3</ele>
        <time>2021-09-04T20:01:20Z</time>
      </trkpt>
      <trkpt lat="45.72686" lon="4.78456">
        <ele>239.3</ele>
        <time>2021-09-04T20:01:22Z</time>
      </trkpt>
      <trkpt lat="45.72686" lon="4.78456">
        <ele>239.3</ele>
        <time>2021-09-04T20:01:24Z</time>
      </trkpt>
      <trkpt lat="45.72687" lon="4.78456">
        <ele>239.4</ele>
        <time>2021-09-04T20:01:25Z</time>
      </trkpt>
      <trkpt lat="45.72687" lon="4.78456">
        <ele>239.4</ele>
        <time>2021-09-04T20:01:27Z</time>
      </trkpt>
      <trkpt lat="45.7269" lon="4.78454">
        <ele>239.6</ele>
        <time>2021-09-04T20:03:09Z</time>
      </trkpt>
      <trkpt lat="45.72692" lon="4.78454">
        <ele>239.7</ele>
        <time>2021-09-04T20:03:11Z</time>
      </trkpt>
      <trkpt lat="45.72693" lon="4.78454">
        <ele>239.7</ele>
        <time>2021-09-04T20:03:12Z</time>
      </trkpt>
      <trkpt lat="45.72693" lon="4.78455">
        <ele>239.8</ele>
        <time>2021-09-04T20:03:13Z</time>
      </trkpt>
      <trkpt lat="45.72695" lon="4.78454">
        <ele>239.9</ele>
        <time>2021-09-04T20:03:15Z</time>
      </trkpt>
      <trkpt lat="45.72699" lon="4.78453">
        <ele>240.1</ele>
        <time>2021-09-04T20:03:16Z</time>
      </trkpt>
      <trkpt lat="45.72702" lon="4.78451">
        <ele>240.3</ele>
        <time>2021-09-04T20:03:17Z</time>
      </trkpt>
      <trkpt lat="45.72705" lon="4.78449">
        <ele>240.5</ele>
        <time>2021-09-04T20:03:18Z</time>
      </trkpt>
      <trkpt lat="45.72709" lon="4.78447">
        <ele>240.7</ele>
        <time>2021-09-04T20:03:20Z</time>
      </trkpt>
      <trkpt lat="45.72712" lon="4.78445">
        <ele>240.9</ele>
        <time>2021-09-04T20:03:22Z</time>
      </trkpt>
      <trkpt lat="45.72714" lon="4.78443">
        <ele>241</ele>
        <time>2021-09-04T20:03:23Z</time>
      </trkpt>
      <trkpt lat="45.72719" lon="4.78441">
        <ele>241.2</ele>
        <time>2021-09-04T20:03:25Z</time>
      </trkpt>
      <trkpt lat="45.72722" lon="4.7844">
        <ele>241.4</ele>
        <time>2021-09-04T20:03:26Z</time>
      </trkpt>
      <trkpt lat="45.72726" lon="4.78439">
        <ele>241.6</ele>
        <time>2021-09-04T20:03:28Z</time>
      </trkpt>
      <trkpt lat="45.72728" lon="4.78438">
        <ele>241.8</ele>
        <time>2021-09-04T20:03:29Z</time>
      </trkpt>
      <trkpt lat="45.72731" lon="4.78438">
        <ele>242</ele>
        <time>2021-09-04T20:03:31Z</time>
      </trkpt>
      <trkpt lat="45.72734" lon="4.78436">
        <ele>242.1</ele>
        <time>2021-09-04T20:03:32Z</time>
      </trkpt>
      <trkpt lat="45.72735" lon="4.78436">
        <ele>242.2</ele>
        <time>2021-09-04T20:03:33Z</time>
      </trkpt>
      <trkpt lat="45.72739" lon="4.78435">
        <ele>242.5</ele>
        <time>2021-09-04T20:03:35Z</time>
      </trkpt>
      <trkpt lat="45.7274" lon="4.78435">
        <ele>242.6</ele>
        <time>2021-09-04T20:03:36Z</time>
      </trkpt>
      <trkpt lat="45.72741" lon="4.78435">
        <ele>242.7</ele>
        <time>2021-09-04T20:03:37Z</time>
      </trkpt>
      <trkpt lat="45.72743" lon="4.78436">
        <ele>242.9</ele>
        <time>2021-09-04T20:03:38Z</time>
      </trkpt>
      <trkpt lat="45.72745" lon="4.78436">
        <ele>243.1</ele>
        <time>2021-09-04T20:03:40Z</time>
      </trkpt>
      <trkpt lat="45.72748" lon="4.78434">
        <ele>243.4</ele>
        <time>2021-09-04T20:03:41Z</time>
      </trkpt>
      <trkpt lat="45.72751" lon="4.78434">
        <ele>243.6</ele>
        <time>2021-09-04T20:03:43Z</time>
      </trkpt>
      <trkpt lat="45.72753" lon="4.78433">
        <ele>243.8</ele>
        <time>2021-09-04T20:03:45Z</time>
      </trkpt>
      <trkpt lat="45.72756" lon="4.78432">
        <ele>244.1</ele>
        <time>2021-09-04T20:03:46Z</time>
      </trkpt>
      <trkpt lat="45.72758" lon="4.78432">
        <ele>244.3</ele>
        <time>2021-09-04T20:03:48Z</time>
      </trkpt>
      <trkpt lat="45.7276" lon="4.78431">
        <ele>244.5</ele>
        <time>2021-09-04T20:03:49Z</time>
      </trkpt>
      <trkpt lat="45.72763" lon="4.78431">
        <ele>244.7</ele>
        <time>2021-09-04T20:03:51Z</time>
      </trkpt>
      <trkpt lat="45.72765" lon="4.7843">
        <ele>244.9</ele>
        <time>2021-09-04T20:03:52Z</time>
      </trkpt>
      <trkpt lat="45.72767" lon="4.78429">
        <ele>245.1</ele>
        <time>2021-09-04T20:03:54Z</time>
      </trkpt>
      <trkpt lat="45.7277" lon="4.78428">
        <ele>245.4</ele>
        <time>2021-09-04T20:03:55Z</time>
      </trkpt>
      <trkpt lat="45.72771" lon="4.78428">
        <ele>245.5</ele>
        <time>2021-09-04T20:03:56Z</time>
      </trkpt>
      <trkpt lat="45.72773" lon="4.78428">
        <ele>245.6</ele>
        <time>2021-09-04T20:03:57Z</time>
      </trkpt>
      <trkpt lat="45.72774" lon="4.78427">
        <ele>245.7</ele>
        <time>2021-09-04T20:03:58Z</time>
      </trkpt>
      <trkpt lat="45.72778" lon="4.78426">
        <ele>246</ele>
        <time>2021-09-04T20:04:00Z</time>
      </trkpt>
      <trkpt lat="45.72779" lon="4.78425">
        <ele>246.2</ele>
        <time>2021-09-04T20:04:01Z</time>
      </trkpt>
      <trkpt lat="45.72781" lon="4.78424">
        <ele>246.3</ele>
        <time>2021-09-04T20:04:02Z</time>
      </trkpt>
      <trkpt lat="45.72783" lon="4.78423">
        <ele>246.4</ele>
        <time>2021-09-04T20:04:04Z</time>
      </trkpt>
      <trkpt lat="45.72785" lon="4.78422">
        <ele>246.5</ele>
        <time>2021-09-04T20:04:05Z</time>
      </trkpt>
      <trkpt lat="45.72788" lon="4.78421">
        <ele>246.5</ele>
        <time>2021-09-04T20:04:07Z</time>
      </trkpt>
      <trkpt lat="45.72789" lon="4.78421">
        <ele>246.6</ele>
        <time>2021-09-04T20:04:08Z</time>
      </trkpt>
      <trkpt lat="45.72792" lon="4.7842">
        <ele>246.7</ele>
        <time>2021-09-04T20:04:10Z</time>
      </trkpt>
      <trkpt lat="45.72794" lon="4.78419">
        <ele>246.7</ele>
        <time>2021-09-04T20:04:11Z</time>
      </trkpt>
      <trkpt lat="45.72796" lon="4.78419">
        <ele>246.7</ele>
        <time>2021-09-04T20:04:13Z</time>
      </trkpt>
      <trkpt lat="45.72798" lon="4.78418">
        <ele>246.8</ele>
        <time>2021-09-04T20:04:14Z</time>
      </trkpt>
      <trkpt lat="45.72799" lon="4.78416">
        <ele>246.8</ele>
        <time>2021-09-04T20:04:15Z</time>
      </trkpt>
      <trkpt lat="45.72804" lon="4.78414">
        <ele>246.9</ele>
        <time>2021-09-04T20:04:17Z</time>
      </trkpt>
      <trkpt lat="45.72806" lon="4.78414">
        <ele>246.9</ele>
        <time>2021-09-04T20:04:19Z</time>
      </trkpt>
      <trkpt lat="45.72807" lon="4.78413">
        <ele>247</ele>
        <time>2021-09-04T20:04:20Z</time>
      </trkpt>
      <trkpt lat="45.72809" lon="4.78413">
        <ele>247</ele>
        <time>2021-09-04T20:04:21Z</time>
      </trkpt>
      <trkpt lat="45.72813" lon="4.7841">
        <ele>247</ele>
        <time>2021-09-04T20:04:23Z</time>
      </trkpt>
      <trkpt lat="45.72816" lon="4.78408">
        <ele>247.1</ele>
        <time>2021-09-04T20:04:25Z</time>
      </trkpt>
      <trkpt lat="45.72819" lon="4.78407">
        <ele>247.1</ele>
        <time>2021-09-04T20:04:26Z</time>
      </trkpt>
      <trkpt lat="45.72823" lon="4.78406">
        <ele>247.2</ele>
        <time>2021-09-04T20:04:28Z</time>
      </trkpt>
      <trkpt lat="45.72825" lon="4.78405">
        <ele>247.2</ele>
        <time>2021-09-04T20:04:29Z</time>
      </trkpt>
      <trkpt lat="45.72828" lon="4.78404">
        <ele>247.2</ele>
        <time>2021-09-04T20:04:31Z</time>
      </trkpt>
      <trkpt lat="45.72832" lon="4.78403">
        <ele>247.2</ele>
        <time>2021-09-04T20:04:33Z</time>
      </trkpt>
      <trkpt lat="45.72835" lon="4.784">
        <ele>247.2</ele>
        <time>2021-09-04T20:04:34Z</time>
      </trkpt>
      <trkpt lat="45.72837" lon="4.78399">
        <ele>247.3</ele>
        <time>2021-09-04T20:04:35Z</time>
      </trkpt>
      <trkpt lat="45.72839" lon="4.78394">
        <ele>247.3</ele>
        <time>2021-09-04T20:04:37Z</time>
      </trkpt>
      <trkpt lat="45.72841" lon="4.78392">
        <ele>247.3</ele>
        <time>2021-09-04T20:04:38Z</time>
      </trkpt>
      <trkpt lat="45.72845" lon="4.78391">
        <ele>247.3</ele>
        <time>2021-09-04T20:04:40Z</time>
      </trkpt>
      <trkpt lat="45.72849" lon="4.7839">
        <ele>247.3</ele>
        <time>2021-09-04T20:04:41Z</time>
      </trkpt>
      <trkpt lat="45.72853" lon="4.78394">
        <ele>247.3</ele>
        <time>2021-09-04T20:04:43Z</time>
      </trkpt>
      <trkpt lat="45.72855" lon="4.78397">
        <ele>247.3</ele>
        <time>2021-09-04T20:04:44Z</time>
      </trkpt>
      <trkpt lat="45.72858" lon="4.784">
        <ele>247.5</ele>
        <time>2021-09-04T20:04:45Z</time>
      </trkpt>
      <trkpt lat="45.7286" lon="4.78402">
        <ele>247.5</ele>
        <time>2021-09-04T20:04:46Z</time>
      </trkpt>
      <trkpt lat="45.72863" lon="4.78405">
        <ele>247.6</ele>
        <time>2021-09-04T20:04:47Z</time>
      </trkpt>
      <trkpt lat="45.72869" lon="4.78408">
        <ele>247.7</ele>
        <time>2021-09-04T20:04:49Z</time>
      </trkpt>
      <trkpt lat="45.72873" lon="4.78409">
        <ele>247.8</ele>
        <time>2021-09-04T20:04:50Z</time>
      </trkpt>
      <trkpt lat="45.72878" lon="4.78411">
        <ele>248</ele>
        <time>2021-09-04T20:04:52Z</time>
      </trkpt>
      <trkpt lat="45.72883" lon="4.78415">
        <ele>248.1</ele>
        <time>2021-09-04T20:04:53Z</time>
      </trkpt>
      <trkpt lat="45.72889" lon="4.7842">
        <ele>248.4</ele>
        <time>2021-09-04T20:04:55Z</time>
      </trkpt>
      <trkpt lat="45.72894" lon="4.78423">
        <ele>248.7</ele>
        <time>2021-09-04T20:04:56Z</time>
      </trkpt>
      <trkpt lat="45.72897" lon="4.78424">
        <ele>248.8</ele>
        <time>2021-09-04T20:04:57Z</time>
      </trkpt>
      <trkpt lat="45.72902" lon="4.78424">
        <ele>249</ele>
        <time>2021-09-04T20:04:59Z</time>
      </trkpt>
      <trkpt lat="45.72904" lon="4.78424">
        <ele>249.1</ele>
        <time>2021-09-04T20:05:00Z</time>
      </trkpt>
      <trkpt lat="45.72907" lon="4.78423">
        <ele>249.2</ele>
        <time>2021-09-04T20:05:02Z</time>
      </trkpt>
      <trkpt lat="45.7291" lon="4.78423">
        <ele>249.3</ele>
        <time>2021-09-04T20:05:03Z</time>
      </trkpt>
      <trkpt lat="45.72914" lon="4.78422">
        <ele>249.5</ele>
        <time>2021-09-04T20:05:04Z</time>
      </trkpt>
      <trkpt lat="45.7292" lon="4.78424">
        <ele>250.3</ele>
        <time>2021-09-04T20:05:06Z</time>
      </trkpt>
      <trkpt lat="45.72922" lon="4.78429">
        <ele>250.9</ele>
        <time>2021-09-04T20:05:07Z</time>
      </trkpt>
      <trkpt lat="45.72923" lon="4.78437">
        <ele>251.5</ele>
        <time>2021-09-04T20:05:09Z</time>
      </trkpt>
      <trkpt lat="45.72923" lon="4.78443">
        <ele>252</ele>
        <time>2021-09-04T20:05:11Z</time>
      </trkpt>
      <trkpt lat="45.72923" lon="4.78446">
        <ele>252.3</ele>
        <time>2021-09-04T20:05:12Z</time>
      </trkpt>
      <trkpt lat="45.72924" lon="4.78452">
        <ele>252.7</ele>
        <time>2021-09-04T20:05:13Z</time>
      </trkpt>
      <trkpt lat="45.72925" lon="4.78458">
        <ele>253</ele>
        <time>2021-09-04T20:05:14Z</time>
      </trkpt>
      <trkpt lat="45.72925" lon="4.78459">
        <ele>253.3</ele>
        <time>2021-09-04T20:05:15Z</time>
      </trkpt>
      <trkpt lat="45.72926" lon="4.78463">
        <ele>253.7</ele>
        <time>2021-09-04T20:05:17Z</time>
      </trkpt>
      <trkpt lat="45.72927" lon="4.78467">
        <ele>254</ele>
        <time>2021-09-04T20:05:18Z</time>
      </trkpt>
      <trkpt lat="45.72929" lon="4.78471">
        <ele>254.6</ele>
        <time>2021-09-04T20:05:19Z</time>
      </trkpt>
      <trkpt lat="45.72931" lon="4.78475">
        <ele>254.9</ele>
        <time>2021-09-04T20:05:21Z</time>
      </trkpt>
      <trkpt lat="45.72932" lon="4.78478">
        <ele>255.4</ele>
        <time>2021-09-04T20:05:22Z</time>
      </trkpt>
      <trkpt lat="45.72934" lon="4.78483">
        <ele>255.7</ele>
        <time>2021-09-04T20:05:23Z</time>
      </trkpt>
      <trkpt lat="45.72935" lon="4.78488">
        <ele>256.1</ele>
        <time>2021-09-04T20:05:25Z</time>
      </trkpt>
      <trkpt lat="45.72935" lon="4.7849">
        <ele>256.3</ele>
        <time>2021-09-04T20:05:26Z</time>
      </trkpt>
      <trkpt lat="45.72935" lon="4.78493">
        <ele>256.5</ele>
        <time>2021-09-04T20:05:27Z</time>
      </trkpt>
      <trkpt lat="45.72935" lon="4.78495">
        <ele>256.7</ele>
        <time>2021-09-04T20:05:28Z</time>
      </trkpt>
      <trkpt lat="45.72935" lon="4.785">
        <ele>256.9</ele>
        <time>2021-09-04T20:05:30Z</time>
      </trkpt>
      <trkpt lat="45.72936" lon="4.78503">
        <ele>257.1</ele>
        <time>2021-09-04T20:05:31Z</time>
      </trkpt>
      <trkpt lat="45.72937" lon="4.78508">
        <ele>257.3</ele>
        <time>2021-09-04T20:05:33Z</time>
      </trkpt>
      <trkpt lat="45.72938" lon="4.7851">
        <ele>257.4</ele>
        <time>2021-09-04T20:05:35Z</time>
      </trkpt>
      <trkpt lat="45.7294" lon="4.78511">
        <ele>257.5</ele>
        <time>2021-09-04T20:05:36Z</time>
      </trkpt>
      <trkpt lat="45.72941" lon="4.78512">
        <ele>257.6</ele>
        <time>2021-09-04T20:05:37Z</time>
      </trkpt>
      <trkpt lat="45.72941" lon="4.78513">
        <ele>257.6</ele>
        <time>2021-09-04T20:05:38Z</time>
      </trkpt>
      <trkpt lat="45.7294" lon="4.78514">
        <ele>257.7</ele>
        <time>2021-09-04T20:05:39Z</time>
      </trkpt>
      <trkpt lat="45.7294" lon="4.78517">
        <ele>257.8</ele>
        <time>2021-09-04T20:05:41Z</time>
      </trkpt>
      <trkpt lat="45.7294" lon="4.7852">
        <ele>257.9</ele>
        <time>2021-09-04T20:05:42Z</time>
      </trkpt>
      <trkpt lat="45.72941" lon="4.78521">
        <ele>258</ele>
        <time>2021-09-04T20:05:43Z</time>
      </trkpt>
      <trkpt lat="45.72941" lon="4.78526">
        <ele>258.2</ele>
        <time>2021-09-04T20:05:45Z</time>
      </trkpt>
      <trkpt lat="45.72941" lon="4.78527">
        <ele>258.2</ele>
        <time>2021-09-04T20:05:46Z</time>
      </trkpt>
      <trkpt lat="45.72943" lon="4.78533">
        <ele>258.4</ele>
        <time>2021-09-04T20:05:48Z</time>
      </trkpt>
      <trkpt lat="45.72944" lon="4.78535">
        <ele>258.5</ele>
        <time>2021-09-04T20:05:50Z</time>
      </trkpt>
      <trkpt lat="45.72944" lon="4.78538">
        <ele>258.6</ele>
        <time>2021-09-04T20:05:51Z</time>
      </trkpt>
      <trkpt lat="45.72942" lon="4.78541">
        <ele>258.8</ele>
        <time>2021-09-04T20:05:53Z</time>
      </trkpt>
      <trkpt lat="45.72939" lon="4.78543">
        <ele>258.8</ele>
        <time>2021-09-04T20:05:55Z</time>
      </trkpt>
      <trkpt lat="45.72937" lon="4.78545">
        <ele>258.8</ele>
        <time>2021-09-04T20:05:56Z</time>
      </trkpt>
      <trkpt lat="45.72933" lon="4.78547">
        <ele>258.9</ele>
        <time>2021-09-04T20:05:58Z</time>
      </trkpt>
      <trkpt lat="45.72932" lon="4.78548">
        <ele>258.9</ele>
        <time>2021-09-04T20:06:00Z</time>
      </trkpt>
      <trkpt lat="45.72931" lon="4.7855">
        <ele>258.7</ele>
        <time>2021-09-04T20:06:01Z</time>
      </trkpt>
      <trkpt lat="45.7293" lon="4.7855">
        <ele>258.7</ele>
        <time>2021-09-04T20:06:02Z</time>
      </trkpt>
      <trkpt lat="45.72927" lon="4.7855">
        <ele>258.5</ele>
        <time>2021-09-04T20:06:04Z</time>
      </trkpt>
      <trkpt lat="45.72926" lon="4.78548">
        <ele>258.4</ele>
        <time>2021-09-04T20:06:05Z</time>
      </trkpt>
      <trkpt lat="45.72925" lon="4.78547">
        <ele>258.3</ele>
        <time>2021-09-04T20:06:06Z</time>
      </trkpt>
      <trkpt lat="45.72923" lon="4.78543">
        <ele>258.1</ele>
        <time>2021-09-04T20:06:08Z</time>
      </trkpt>
      <trkpt lat="45.72922" lon="4.78541">
        <ele>258</ele>
        <time>2021-09-04T20:06:09Z</time>
      </trkpt>
      <trkpt lat="45.7292" lon="4.78536">
        <ele>257.7</ele>
        <time>2021-09-04T20:06:11Z</time>
      </trkpt>
      <trkpt lat="45.72919" lon="4.78535">
        <ele>257.6</ele>
        <time>2021-09-04T20:06:12Z</time>
      </trkpt>
      <trkpt lat="45.72916" lon="4.78533">
        <ele>257.3</ele>
        <time>2021-09-04T20:06:14Z</time>
      </trkpt>
      <trkpt lat="45.72912" lon="4.78532">
        <ele>257</ele>
        <time>2021-09-04T20:06:15Z</time>
      </trkpt>
      <trkpt lat="45.7291" lon="4.7853">
        <ele>256.8</ele>
        <time>2021-09-04T20:06:16Z</time>
      </trkpt>
      <trkpt lat="45.72904" lon="4.78527">
        <ele>256.4</ele>
        <time>2021-09-04T20:06:18Z</time>
      </trkpt>
      <trkpt lat="45.72899" lon="4.78525">
        <ele>256</ele>
        <time>2021-09-04T20:06:19Z</time>
      </trkpt>
      <trkpt lat="45.72892" lon="4.78522">
        <ele>255.4</ele>
        <time>2021-09-04T20:06:21Z</time>
      </trkpt>
      <trkpt lat="45.72884" lon="4.7852">
        <ele>254.9</ele>
        <time>2021-09-04T20:06:22Z</time>
      </trkpt>
      <trkpt lat="45.72878" lon="4.78521">
        <ele>254.6</ele>
        <time>2021-09-04T20:06:23Z</time>
      </trkpt>
      <trkpt lat="45.72866" lon="4.78522">
        <ele>253.8</ele>
        <time>2021-09-04T20:06:25Z</time>
      </trkpt>
      <trkpt lat="45.72852" lon="4.78524">
        <ele>252.9</ele>
        <time>2021-09-04T20:06:27Z</time>
      </trkpt>
      <trkpt lat="45.72846" lon="4.78525">
        <ele>252.5</ele>
        <time>2021-09-04T20:06:28Z</time>
      </trkpt>
      <trkpt lat="45.72832" lon="4.7853">
        <ele>251.7</ele>
        <time>2021-09-04T20:06:30Z</time>
      </trkpt>
      <trkpt lat="45.7282" lon="4.78535">
        <ele>251</ele>
        <time>2021-09-04T20:06:32Z</time>
      </trkpt>
      <trkpt lat="45.72808" lon="4.78539">
        <ele>250.5</ele>
        <time>2021-09-04T20:06:34Z</time>
      </trkpt>
      <trkpt lat="45.72796" lon="4.78543">
        <ele>250</ele>
        <time>2021-09-04T20:06:36Z</time>
      </trkpt>
      <trkpt lat="45.72783" lon="4.78548">
        <ele>249.6</ele>
        <time>2021-09-04T20:06:38Z</time>
      </trkpt>
      <trkpt lat="45.72777" lon="4.7855">
        <ele>249.5</ele>
        <time>2021-09-04T20:06:39Z</time>
      </trkpt>
      <trkpt lat="45.72765" lon="4.78555">
        <ele>249.4</ele>
        <time>2021-09-04T20:06:41Z</time>
      </trkpt>
      <trkpt lat="45.7276" lon="4.78557">
        <ele>249.3</ele>
        <time>2021-09-04T20:06:42Z</time>
      </trkpt>
      <trkpt lat="45.72749" lon="4.7856">
        <ele>249.2</ele>
        <time>2021-09-04T20:06:44Z</time>
      </trkpt>
      <trkpt lat="45.72744" lon="4.78561">
        <ele>249.2</ele>
        <time>2021-09-04T20:06:45Z</time>
      </trkpt>
      <trkpt lat="45.72735" lon="4.78564">
        <ele>249.1</ele>
        <time>2021-09-04T20:06:47Z</time>
      </trkpt>
      <trkpt lat="45.7273" lon="4.78566">
        <ele>249.1</ele>
        <time>2021-09-04T20:06:48Z</time>
      </trkpt>
      <trkpt lat="45.72723" lon="4.78571">
        <ele>249.1</ele>
        <time>2021-09-04T20:06:50Z</time>
      </trkpt>
      <trkpt lat="45.72716" lon="4.78575">
        <ele>249.1</ele>
        <time>2021-09-04T20:06:52Z</time>
      </trkpt>
      <trkpt lat="45.72714" lon="4.78576">
        <ele>249.1</ele>
        <time>2021-09-04T20:06:53Z</time>
      </trkpt>
      <trkpt lat="45.72709" lon="4.7858">
        <ele>249.6</ele>
        <time>2021-09-04T20:06:55Z</time>
      </trkpt>
      <trkpt lat="45.72713" lon="4.78586">
        <ele>250.2</ele>
        <time>2021-09-04T20:06:57Z</time>
      </trkpt>
      <trkpt lat="45.72712" lon="4.78592">
        <ele>250.7</ele>
        <time>2021-09-04T20:06:58Z</time>
      </trkpt>
      <trkpt lat="45.72711" lon="4.78597">
        <ele>251.1</ele>
        <time>2021-09-04T20:07:00Z</time>
      </trkpt>
      <trkpt lat="45.7271" lon="4.78602">
        <ele>251.4</ele>
        <time>2021-09-04T20:07:01Z</time>
      </trkpt>
      <trkpt lat="45.72711" lon="4.78603">
        <ele>251.6</ele>
        <time>2021-09-04T20:07:02Z</time>
      </trkpt>
      <trkpt lat="45.72711" lon="4.78608">
        <ele>251.9</ele>
        <time>2021-09-04T20:07:03Z</time>
      </trkpt>
      <trkpt lat="45.72711" lon="4.7861">
        <ele>252.1</ele>
        <time>2021-09-04T20:07:04Z</time>
      </trkpt>
      <trkpt lat="45.72711" lon="4.78612">
        <ele>252.3</ele>
        <time>2021-09-04T20:07:05Z</time>
      </trkpt>
      <trkpt lat="45.72711" lon="4.78615">
        <ele>252.5</ele>
        <time>2021-09-04T20:07:07Z</time>
      </trkpt>
      <trkpt lat="45.72711" lon="4.78619">
        <ele>252.8</ele>
        <time>2021-09-04T20:07:08Z</time>
      </trkpt>
      <trkpt lat="45.72711" lon="4.78624">
        <ele>253.2</ele>
        <time>2021-09-04T20:07:10Z</time>
      </trkpt>
      <trkpt lat="45.72711" lon="4.78626">
        <ele>253.3</ele>
        <time>2021-09-04T20:07:11Z</time>
      </trkpt>
      <trkpt lat="45.72711" lon="4.78629">
        <ele>253.5</ele>
        <time>2021-09-04T20:07:12Z</time>
      </trkpt>
      <trkpt lat="45.7271" lon="4.78632">
        <ele>253.7</ele>
        <time>2021-09-04T20:07:14Z</time>
      </trkpt>
      <trkpt lat="45.72712" lon="4.78636">
        <ele>254.1</ele>
        <time>2021-09-04T20:07:15Z</time>
      </trkpt>
      <trkpt lat="45.72712" lon="4.78638">
        <ele>254.2</ele>
        <time>2021-09-04T20:07:16Z</time>
      </trkpt>
      <trkpt lat="45.72713" lon="4.78641">
        <ele>254.5</ele>
        <time>2021-09-04T20:07:18Z</time>
      </trkpt>
      <trkpt lat="45.72712" lon="4.78645">
        <ele>254.8</ele>
        <time>2021-09-04T20:07:20Z</time>
      </trkpt>
      <trkpt lat="45.72711" lon="4.78648">
        <ele>255.1</ele>
        <time>2021-09-04T20:07:21Z</time>
      </trkpt>
      <trkpt lat="45.72711" lon="4.7865">
        <ele>255.2</ele>
        <time>2021-09-04T20:07:22Z</time>
      </trkpt>
      <trkpt lat="45.72711" lon="4.78652">
        <ele>255.5</ele>
        <time>2021-09-04T20:07:23Z</time>
      </trkpt>
      <trkpt lat="45.72711" lon="4.78655">
        <ele>255.7</ele>
        <time>2021-09-04T20:07:24Z</time>
      </trkpt>
      <trkpt lat="45.72713" lon="4.78661">
        <ele>256.5</ele>
        <time>2021-09-04T20:07:26Z</time>
      </trkpt>
      <trkpt lat="45.72714" lon="4.78663">
        <ele>256.7</ele>
        <time>2021-09-04T20:07:28Z</time>
      </trkpt>
      <trkpt lat="45.72714" lon="4.78665">
        <ele>256.9</ele>
        <time>2021-09-04T20:07:29Z</time>
      </trkpt>
      <trkpt lat="45.72715" lon="4.78667">
        <ele>257.2</ele>
        <time>2021-09-04T20:07:30Z</time>
      </trkpt>
      <trkpt lat="45.72716" lon="4.78671">
        <ele>257.5</ele>
        <time>2021-09-04T20:07:32Z</time>
      </trkpt>
      <trkpt lat="45.72716" lon="4.78674">
        <ele>257.8</ele>
        <time>2021-09-04T20:07:33Z</time>
      </trkpt>
      <trkpt lat="45.72717" lon="4.78678">
        <ele>258.3</ele>
        <time>2021-09-04T20:07:35Z</time>
      </trkpt>
      <trkpt lat="45.72717" lon="4.78681">
        <ele>258.6</ele>
        <time>2021-09-04T20:07:36Z</time>
      </trkpt>
      <trkpt lat="45.72718" lon="4.78685">
        <ele>259</ele>
        <time>2021-09-04T20:07:38Z</time>
      </trkpt>
      <trkpt lat="45.7272" lon="4.78689">
        <ele>259.5</ele>
        <time>2021-09-04T20:07:39Z</time>
      </trkpt>
      <trkpt lat="45.7272" lon="4.7869">
        <ele>259.7</ele>
        <time>2021-09-04T20:07:40Z</time>
      </trkpt>
      <trkpt lat="45.72721" lon="4.78693">
        <ele>260</ele>
        <time>2021-09-04T20:07:41Z</time>
      </trkpt>
      <trkpt lat="45.72722" lon="4.78697">
        <ele>260.4</ele>
        <time>2021-09-04T20:07:43Z</time>
      </trkpt>
      <trkpt lat="45.72726" lon="4.78703">
        <ele>261.2</ele>
        <time>2021-09-04T20:07:45Z</time>
      </trkpt>
      <trkpt lat="45.72727" lon="4.78705">
        <ele>261.5</ele>
        <time>2021-09-04T20:07:47Z</time>
      </trkpt>
      <trkpt lat="45.72728" lon="4.78708">
        <ele>261.8</ele>
        <time>2021-09-04T20:07:49Z</time>
      </trkpt>
      <trkpt lat="45.72729" lon="4.7871">
        <ele>262.1</ele>
        <time>2021-09-04T20:07:50Z</time>
      </trkpt>
      <trkpt lat="45.7273" lon="4.78713">
        <ele>262.4</ele>
        <time>2021-09-04T20:07:51Z</time>
      </trkpt>
      <trkpt lat="45.72732" lon="4.78717">
        <ele>262.9</ele>
        <time>2021-09-04T20:07:53Z</time>
      </trkpt>
      <trkpt lat="45.72733" lon="4.78718">
        <ele>263</ele>
        <time>2021-09-04T20:07:54Z</time>
      </trkpt>
      <trkpt lat="45.72734" lon="4.78721">
        <ele>263.4</ele>
        <time>2021-09-04T20:07:55Z</time>
      </trkpt>
      <trkpt lat="45.72736" lon="4.78723">
        <ele>263.7</ele>
        <time>2021-09-04T20:07:57Z</time>
      </trkpt>
      <trkpt lat="45.72738" lon="4.78726">
        <ele>264.2</ele>
        <time>2021-09-04T20:07:58Z</time>
      </trkpt>
      <trkpt lat="45.72739" lon="4.78728">
        <ele>264.4</ele>
        <time>2021-09-04T20:07:59Z</time>
      </trkpt>
      <trkpt lat="45.7274" lon="4.78729">
        <ele>264.6</ele>
        <time>2021-09-04T20:08:00Z</time>
      </trkpt>
      <trkpt lat="45.72742" lon="4.78731">
        <ele>264.9</ele>
        <time>2021-09-04T20:08:02Z</time>
      </trkpt>
      <trkpt lat="45.72744" lon="4.78734">
        <ele>265.3</ele>
        <time>2021-09-04T20:08:03Z</time>
      </trkpt>
      <trkpt lat="45.72745" lon="4.78735">
        <ele>265.5</ele>
        <time>2021-09-04T20:08:04Z</time>
      </trkpt>
      <trkpt lat="45.72746" lon="4.78736">
        <ele>265.7</ele>
        <time>2021-09-04T20:08:05Z</time>
      </trkpt>
      <trkpt lat="45.72747" lon="4.78737">
        <ele>265.9</ele>
        <time>2021-09-04T20:08:06Z</time>
      </trkpt>
      <trkpt lat="45.72749" lon="4.78739">
        <ele>266.2</ele>
        <time>2021-09-04T20:08:07Z</time>
      </trkpt>
      <trkpt lat="45.72751" lon="4.78741">
        <ele>266.6</ele>
        <time>2021-09-04T20:08:09Z</time>
      </trkpt>
      <trkpt lat="45.72752" lon="4.78743">
        <ele>266.8</ele>
        <time>2021-09-04T20:08:10Z</time>
      </trkpt>
      <trkpt lat="45.72754" lon="4.78744">
        <ele>267.1</ele>
        <time>2021-09-04T20:08:12Z</time>
      </trkpt>
      <trkpt lat="45.72755" lon="4.78746">
        <ele>267.3</ele>
        <time>2021-09-04T20:08:13Z</time>
      </trkpt>
      <trkpt lat="45.72756" lon="4.78748">
        <ele>267.5</ele>
        <time>2021-09-04T20:08:14Z</time>
      </trkpt>
      <trkpt lat="45.72758" lon="4.78751">
        <ele>268</ele>
        <time>2021-09-04T20:08:15Z</time>
      </trkpt>
      <trkpt lat="45.72759" lon="4.78752">
        <ele>268.1</ele>
        <time>2021-09-04T20:08:16Z</time>
      </trkpt>
      <trkpt lat="45.72762" lon="4.78756">
        <ele>268.8</ele>
        <time>2021-09-04T20:08:18Z</time>
      </trkpt>
      <trkpt lat="45.72763" lon="4.78758">
        <ele>269</ele>
        <time>2021-09-04T20:08:20Z</time>
      </trkpt>
      <trkpt lat="45.72765" lon="4.7876">
        <ele>269.3</ele>
        <time>2021-09-04T20:08:21Z</time>
      </trkpt>
      <trkpt lat="45.72768" lon="4.78765">
        <ele>270</ele>
        <time>2021-09-04T20:08:23Z</time>
      </trkpt>
      <trkpt lat="45.72769" lon="4.78766">
        <ele>270.2</ele>
        <time>2021-09-04T20:08:25Z</time>
      </trkpt>
      <trkpt lat="45.72771" lon="4.78767">
        <ele>270.4</ele>
        <time>2021-09-04T20:08:26Z</time>
      </trkpt>
      <trkpt lat="45.72772" lon="4.78769">
        <ele>270.7</ele>
        <time>2021-09-04T20:08:27Z</time>
      </trkpt>
      <trkpt lat="45.72774" lon="4.78771">
        <ele>271</ele>
        <time>2021-09-04T20:08:29Z</time>
      </trkpt>
      <trkpt lat="45.72776" lon="4.78775">
        <ele>271.4</ele>
        <time>2021-09-04T20:08:30Z</time>
      </trkpt>
      <trkpt lat="45.72776" lon="4.78776">
        <ele>271.5</ele>
        <time>2021-09-04T20:08:31Z</time>
      </trkpt>
      <trkpt lat="45.72778" lon="4.78778">
        <ele>271.8</ele>
        <time>2021-09-04T20:08:32Z</time>
      </trkpt>
      <trkpt lat="45.7278" lon="4.7878">
        <ele>272.1</ele>
        <time>2021-09-04T20:08:34Z</time>
      </trkpt>
      <trkpt lat="45.72782" lon="4.78783">
        <ele>272.5</ele>
        <time>2021-09-04T20:08:35Z</time>
      </trkpt>
      <trkpt lat="45.72783" lon="4.78784">
        <ele>272.6</ele>
        <time>2021-09-04T20:08:36Z</time>
      </trkpt>
      <trkpt lat="45.72785" lon="4.78786">
        <ele>272.8</ele>
        <time>2021-09-04T20:08:37Z</time>
      </trkpt>
      <trkpt lat="45.72786" lon="4.78787">
        <ele>273</ele>
        <time>2021-09-04T20:08:38Z</time>
      </trkpt>
      <trkpt lat="45.72788" lon="4.78789">
        <ele>273.3</ele>
        <time>2021-09-04T20:08:40Z</time>
      </trkpt>
      <trkpt lat="45.72789" lon="4.7879">
        <ele>273.4</ele>
        <time>2021-09-04T20:08:41Z</time>
      </trkpt>
      <trkpt lat="45.72792" lon="4.78793">
        <ele>273.7</ele>
        <time>2021-09-04T20:08:42Z</time>
      </trkpt>
      <trkpt lat="45.72792" lon="4.78794">
        <ele>273.8</ele>
        <time>2021-09-04T20:08:43Z</time>
      </trkpt>
      <trkpt lat="45.72793" lon="4.78796">
        <ele>273.9</ele>
        <time>2021-09-04T20:08:44Z</time>
      </trkpt>
      <trkpt lat="45.72796" lon="4.78798">
        <ele>274.2</ele>
        <time>2021-09-04T20:08:46Z</time>
      </trkpt>
      <trkpt lat="45.72798" lon="4.78801">
        <ele>274.5</ele>
        <time>2021-09-04T20:08:47Z</time>
      </trkpt>
      <trkpt lat="45.72798" lon="4.78802">
        <ele>274.5</ele>
        <time>2021-09-04T20:08:48Z</time>
      </trkpt>
      <trkpt lat="45.728" lon="4.78806">
        <ele>274.8</ele>
        <time>2021-09-04T20:08:50Z</time>
      </trkpt>
      <trkpt lat="45.72801" lon="4.78808">
        <ele>274.9</ele>
        <time>2021-09-04T20:08:51Z</time>
      </trkpt>
      <trkpt lat="45.72802" lon="4.78812">
        <ele>275.2</ele>
        <time>2021-09-04T20:08:53Z</time>
      </trkpt>
      <trkpt lat="45.72803" lon="4.78814">
        <ele>275.3</ele>
        <time>2021-09-04T20:08:54Z</time>
      </trkpt>
      <trkpt lat="45.72804" lon="4.78816">
        <ele>275.5</ele>
        <time>2021-09-04T20:08:55Z</time>
      </trkpt>
      <trkpt lat="45.72806" lon="4.7882">
        <ele>275.8</ele>
        <time>2021-09-04T20:08:57Z</time>
      </trkpt>
      <trkpt lat="45.72807" lon="4.78822">
        <ele>275.9</ele>
        <time>2021-09-04T20:08:58Z</time>
      </trkpt>
      <trkpt lat="45.72809" lon="4.78825">
        <ele>276.1</ele>
        <time>2021-09-04T20:08:59Z</time>
      </trkpt>
      <trkpt lat="45.7281" lon="4.78826">
        <ele>276.2</ele>
        <time>2021-09-04T20:09:00Z</time>
      </trkpt>
      <trkpt lat="45.72812" lon="4.78831">
        <ele>276.5</ele>
        <time>2021-09-04T20:09:02Z</time>
      </trkpt>
      <trkpt lat="45.72813" lon="4.78832">
        <ele>276.6</ele>
        <time>2021-09-04T20:09:03Z</time>
      </trkpt>
      <trkpt lat="45.72815" lon="4.78834">
        <ele>276.8</ele>
        <time>2021-09-04T20:09:04Z</time>
      </trkpt>
      <trkpt lat="45.72816" lon="4.78837">
        <ele>277</ele>
        <time>2021-09-04T20:09:06Z</time>
      </trkpt>
      <trkpt lat="45.72818" lon="4.7884">
        <ele>277.1</ele>
        <time>2021-09-04T20:09:07Z</time>
      </trkpt>
      <trkpt lat="45.72819" lon="4.78842">
        <ele>277.3</ele>
        <time>2021-09-04T20:09:09Z</time>
      </trkpt>
      <trkpt lat="45.72821" lon="4.78845">
        <ele>277.5</ele>
        <time>2021-09-04T20:09:10Z</time>
      </trkpt>
      <trkpt lat="45.72823" lon="4.78849">
        <ele>277.7</ele>
        <time>2021-09-04T20:09:12Z</time>
      </trkpt>
      <trkpt lat="45.72825" lon="4.78852">
        <ele>277.9</ele>
        <time>2021-09-04T20:09:13Z</time>
      </trkpt>
      <trkpt lat="45.72828" lon="4.78857">
        <ele>278.2</ele>
        <time>2021-09-04T20:09:15Z</time>
      </trkpt>
      <trkpt lat="45.72828" lon="4.78859">
        <ele>278.3</ele>
        <time>2021-09-04T20:09:16Z</time>
      </trkpt>
      <trkpt lat="45.72829" lon="4.7886">
        <ele>278.4</ele>
        <time>2021-09-04T20:09:17Z</time>
      </trkpt>
      <trkpt lat="45.72831" lon="4.78863">
        <ele>278.6</ele>
        <time>2021-09-04T20:09:18Z</time>
      </trkpt>
      <trkpt lat="45.72833" lon="4.78866">
        <ele>278.8</ele>
        <time>2021-09-04T20:09:20Z</time>
      </trkpt>
      <trkpt lat="45.72836" lon="4.78871">
        <ele>279.1</ele>
        <time>2021-09-04T20:09:22Z</time>
      </trkpt>
      <trkpt lat="45.72837" lon="4.78873">
        <ele>279.3</ele>
        <time>2021-09-04T20:09:24Z</time>
      </trkpt>
      <trkpt lat="45.72838" lon="4.78875">
        <ele>279.4</ele>
        <time>2021-09-04T20:09:25Z</time>
      </trkpt>
      <trkpt lat="45.72839" lon="4.78878">
        <ele>279.5</ele>
        <time>2021-09-04T20:09:26Z</time>
      </trkpt>
      <trkpt lat="45.72842" lon="4.78882">
        <ele>279.8</ele>
        <time>2021-09-04T20:09:28Z</time>
      </trkpt>
      <trkpt lat="45.72842" lon="4.78883">
        <ele>279.9</ele>
        <time>2021-09-04T20:09:29Z</time>
      </trkpt>
      <trkpt lat="45.72844" lon="4.78886">
        <ele>280</ele>
        <time>2021-09-04T20:09:30Z</time>
      </trkpt>
      <trkpt lat="45.72845" lon="4.78889">
        <ele>280.2</ele>
        <time>2021-09-04T20:09:32Z</time>
      </trkpt>
      <trkpt lat="45.72847" lon="4.78894">
        <ele>280.4</ele>
        <time>2021-09-04T20:09:33Z</time>
      </trkpt>
      <trkpt lat="45.72848" lon="4.78895">
        <ele>280.5</ele>
        <time>2021-09-04T20:09:34Z</time>
      </trkpt>
      <trkpt lat="45.7285" lon="4.78899">
        <ele>280.7</ele>
        <time>2021-09-04T20:09:36Z</time>
      </trkpt>
      <trkpt lat="45.72852" lon="4.78902">
        <ele>280.8</ele>
        <time>2021-09-04T20:09:37Z</time>
      </trkpt>
      <trkpt lat="45.72853" lon="4.78906">
        <ele>281</ele>
        <time>2021-09-04T20:09:39Z</time>
      </trkpt>
      <trkpt lat="45.72854" lon="4.78909">
        <ele>281.1</ele>
        <time>2021-09-04T20:09:40Z</time>
      </trkpt>
      <trkpt lat="45.72856" lon="4.78913">
        <ele>281.3</ele>
        <time>2021-09-04T20:09:42Z</time>
      </trkpt>
      <trkpt lat="45.72858" lon="4.78917">
        <ele>281.4</ele>
        <time>2021-09-04T20:09:43Z</time>
      </trkpt>
      <trkpt lat="45.72859" lon="4.78922">
        <ele>281.6</ele>
        <time>2021-09-04T20:09:45Z</time>
      </trkpt>
      <trkpt lat="45.7286" lon="4.78924">
        <ele>281.7</ele>
        <time>2021-09-04T20:09:46Z</time>
      </trkpt>
      <trkpt lat="45.72862" lon="4.78929">
        <ele>281.9</ele>
        <time>2021-09-04T20:09:48Z</time>
      </trkpt>
      <trkpt lat="45.72863" lon="4.78932">
        <ele>282</ele>
        <time>2021-09-04T20:09:49Z</time>
      </trkpt>
      <trkpt lat="45.72865" lon="4.78936">
        <ele>282.1</ele>
        <time>2021-09-04T20:09:51Z</time>
      </trkpt>
      <trkpt lat="45.72867" lon="4.7894">
        <ele>282.3</ele>
        <time>2021-09-04T20:09:53Z</time>
      </trkpt>
      <trkpt lat="45.72869" lon="4.78943">
        <ele>282.4</ele>
        <time>2021-09-04T20:09:54Z</time>
      </trkpt>
      <trkpt lat="45.7287" lon="4.78947">
        <ele>282.6</ele>
        <time>2021-09-04T20:09:56Z</time>
      </trkpt>
      <trkpt lat="45.72871" lon="4.78951">
        <ele>282.7</ele>
        <time>2021-09-04T20:09:57Z</time>
      </trkpt>
      <trkpt lat="45.72873" lon="4.78956">
        <ele>282.8</ele>
        <time>2021-09-04T20:09:59Z</time>
      </trkpt>
      <trkpt lat="45.72876" lon="4.78959">
        <ele>283</ele>
        <time>2021-09-04T20:10:00Z</time>
      </trkpt>
      <trkpt lat="45.72876" lon="4.7896">
        <ele>283</ele>
        <time>2021-09-04T20:10:01Z</time>
      </trkpt>
      <trkpt lat="45.72878" lon="4.78963">
        <ele>283.1</ele>
        <time>2021-09-04T20:10:02Z</time>
      </trkpt>
      <trkpt lat="45.7288" lon="4.78968">
        <ele>283.3</ele>
        <time>2021-09-04T20:10:04Z</time>
      </trkpt>
      <trkpt lat="45.72881" lon="4.78972">
        <ele>283.4</ele>
        <time>2021-09-04T20:10:05Z</time>
      </trkpt>
      <trkpt lat="45.72883" lon="4.78976">
        <ele>283.6</ele>
        <time>2021-09-04T20:10:06Z</time>
      </trkpt>
      <trkpt lat="45.72884" lon="4.78978">
        <ele>283.7</ele>
        <time>2021-09-04T20:10:07Z</time>
      </trkpt>
      <trkpt lat="45.72886" lon="4.78983">
        <ele>283.9</ele>
        <time>2021-09-04T20:10:09Z</time>
      </trkpt>
      <trkpt lat="45.72888" lon="4.78987">
        <ele>284</ele>
        <time>2021-09-04T20:10:10Z</time>
      </trkpt>
      <trkpt lat="45.7289" lon="4.78992">
        <ele>284.2</ele>
        <time>2021-09-04T20:10:11Z</time>
      </trkpt>
      <trkpt lat="45.7289" lon="4.78993">
        <ele>284.3</ele>
        <time>2021-09-04T20:10:12Z</time>
      </trkpt>
      <trkpt lat="45.72892" lon="4.78997">
        <ele>284.4</ele>
        <time>2021-09-04T20:10:13Z</time>
      </trkpt>
      <trkpt lat="45.72893" lon="4.79002">
        <ele>284.7</ele>
        <time>2021-09-04T20:10:15Z</time>
      </trkpt>
      <trkpt lat="45.72895" lon="4.79005">
        <ele>284.8</ele>
        <time>2021-09-04T20:10:16Z</time>
      </trkpt>
      <trkpt lat="45.72896" lon="4.79009">
        <ele>285.1</ele>
        <time>2021-09-04T20:10:18Z</time>
      </trkpt>
      <trkpt lat="45.72896" lon="4.79013">
        <ele>285.1</ele>
        <time>2021-09-04T20:10:19Z</time>
      </trkpt>
      <trkpt lat="45.72893" lon="4.79016">
        <ele>285.2</ele>
        <time>2021-09-04T20:10:20Z</time>
      </trkpt>
      <trkpt lat="45.72892" lon="4.79016">
        <ele>285.2</ele>
        <time>2021-09-04T20:10:21Z</time>
      </trkpt>
      <trkpt lat="45.72887" lon="4.79017">
        <ele>285.2</ele>
        <time>2021-09-04T20:10:23Z</time>
      </trkpt>
      <trkpt lat="45.72885" lon="4.79016">
        <ele>285.2</ele>
        <time>2021-09-04T20:10:24Z</time>
      </trkpt>
      <trkpt lat="45.72884" lon="4.79016">
        <ele>285.3</ele>
        <time>2021-09-04T20:10:25Z</time>
      </trkpt>
      <trkpt lat="45.72881" lon="4.79017">
        <ele>285.3</ele>
        <time>2021-09-04T20:10:26Z</time>
      </trkpt>
      <trkpt lat="45.7288" lon="4.79017">
        <ele>285.3</ele>
        <time>2021-09-04T20:10:27Z</time>
      </trkpt>
      <trkpt lat="45.72878" lon="4.79018">
        <ele>285.3</ele>
        <time>2021-09-04T20:10:28Z</time>
      </trkpt>
      <trkpt lat="45.72875" lon="4.79019">
        <ele>285.4</ele>
        <time>2021-09-04T20:10:30Z</time>
      </trkpt>
      <trkpt lat="45.72872" lon="4.7902">
        <ele>285.4</ele>
        <time>2021-09-04T20:10:31Z</time>
      </trkpt>
      <trkpt lat="45.72871" lon="4.7902">
        <ele>285.4</ele>
        <time>2021-09-04T20:10:32Z</time>
      </trkpt>
      <trkpt lat="45.72868" lon="4.7902">
        <ele>285.5</ele>
        <time>2021-09-04T20:10:34Z</time>
      </trkpt>
      <trkpt lat="45.72866" lon="4.7902">
        <ele>285.5</ele>
        <time>2021-09-04T20:10:35Z</time>
      </trkpt>
      <trkpt lat="45.72863" lon="4.7902">
        <ele>285.5</ele>
        <time>2021-09-04T20:10:37Z</time>
      </trkpt>
      <trkpt lat="45.72862" lon="4.79021">
        <ele>285.5</ele>
        <time>2021-09-04T20:10:38Z</time>
      </trkpt>
      <trkpt lat="45.7286" lon="4.79021">
        <ele>285.5</ele>
        <time>2021-09-04T20:10:39Z</time>
      </trkpt>
      <trkpt lat="45.72856" lon="4.79021">
        <ele>285.6</ele>
        <time>2021-09-04T20:10:41Z</time>
      </trkpt>
      <trkpt lat="45.72855" lon="4.79022">
        <ele>285.6</ele>
        <time>2021-09-04T20:10:42Z</time>
      </trkpt>
      <trkpt lat="45.72852" lon="4.79022">
        <ele>285.6</ele>
        <time>2021-09-04T20:10:44Z</time>
      </trkpt>
      <trkpt lat="45.7285" lon="4.79023">
        <ele>285.6</ele>
        <time>2021-09-04T20:10:45Z</time>
      </trkpt>
      <trkpt lat="45.72848" lon="4.79023">
        <ele>285.6</ele>
        <time>2021-09-04T20:10:47Z</time>
      </trkpt>
      <trkpt lat="45.72846" lon="4.79023">
        <ele>285.6</ele>
        <time>2021-09-04T20:10:48Z</time>
      </trkpt>
      <trkpt lat="45.72845" lon="4.79024">
        <ele>285.6</ele>
        <time>2021-09-04T20:10:49Z</time>
      </trkpt>
      <trkpt lat="45.72842" lon="4.79024">
        <ele>285.5</ele>
        <time>2021-09-04T20:10:51Z</time>
      </trkpt>
      <trkpt lat="45.72841" lon="4.79024">
        <ele>285.5</ele>
        <time>2021-09-04T20:10:52Z</time>
      </trkpt>
      <trkpt lat="45.7284" lon="4.79025">
        <ele>285.5</ele>
        <time>2021-09-04T20:10:54Z</time>
      </trkpt>
      <trkpt lat="45.72838" lon="4.79026">
        <ele>285.5</ele>
        <time>2021-09-04T20:10:55Z</time>
      </trkpt>
      <trkpt lat="45.72835" lon="4.79028">
        <ele>285.5</ele>
        <time>2021-09-04T20:10:57Z</time>
      </trkpt>
      <trkpt lat="45.72835" lon="4.79028">
        <ele>285.4</ele>
        <time>2021-09-04T20:10:58Z</time>
      </trkpt>
      <trkpt lat="45.72832" lon="4.7903">
        <ele>285.4</ele>
        <time>2021-09-04T20:11:00Z</time>
      </trkpt>
      <trkpt lat="45.7283" lon="4.7903">
        <ele>285.4</ele>
        <time>2021-09-04T20:11:01Z</time>
      </trkpt>
      <trkpt lat="45.72827" lon="4.79032">
        <ele>285.3</ele>
        <time>2021-09-04T20:11:03Z</time>
      </trkpt>
      <trkpt lat="45.72827" lon="4.79032">
        <ele>285.3</ele>
        <time>2021-09-04T20:11:05Z</time>
      </trkpt>
      <trkpt lat="45.72827" lon="4.79032">
        <ele>285.3</ele>
        <time>2021-09-04T20:11:06Z</time>
      </trkpt>
      <trkpt lat="45.72827" lon="4.79032">
        <ele>285.3</ele>
        <time>2021-09-04T20:11:08Z</time>
      </trkpt>
      <trkpt lat="45.72827" lon="4.79032">
        <ele>285.3</ele>
        <time>2021-09-04T20:11:09Z</time>
      </trkpt>
      <trkpt lat="45.72827" lon="4.79032">
        <ele>285.3</ele>
        <time>2021-09-04T20:11:11Z</time>
      </trkpt>
      <trkpt lat="45.72827" lon="4.79032">
        <ele>285.3</ele>
        <time>2021-09-04T20:11:13Z</time>
      </trkpt>
      <trkpt lat="45.72822" lon="4.79031">
        <ele>285.2</ele>
        <time>2021-09-04T20:13:47Z</time>
      </trkpt>
      <trkpt lat="45.72822" lon="4.7903">
        <ele>285.2</ele>
        <time>2021-09-04T20:13:48Z</time>
      </trkpt>
      <trkpt lat="45.72823" lon="4.7903">
        <ele>285.2</ele>
        <time>2021-09-04T20:13:50Z</time>
      </trkpt>
      <trkpt lat="45.72823" lon="4.7903">
        <ele>285.2</ele>
        <time>2021-09-04T20:13:52Z</time>
      </trkpt>
      <trkpt lat="45.72823" lon="4.79029">
        <ele>285.2</ele>
        <time>2021-09-04T20:13:54Z</time>
      </trkpt>
      <trkpt lat="45.72823" lon="4.79029">
        <ele>285.2</ele>
        <time>2021-09-04T20:13:55Z</time>
      </trkpt>
      <trkpt lat="45.72823" lon="4.79029">
        <ele>285.2</ele>
        <time>2021-09-04T20:13:57Z</time>
      </trkpt>
      <trkpt lat="45.72823" lon="4.79029">
        <ele>285.2</ele>
        <time>2021-09-04T20:13:58Z</time>
      </trkpt>
      <trkpt lat="45.72823" lon="4.79029">
        <ele>285.2</ele>
        <time>2021-09-04T20:13:59Z</time>
      </trkpt>
      <trkpt lat="45.72823" lon="4.79029">
        <ele>285.2</ele>
        <time>2021-09-04T20:14:01Z</time>
      </trkpt>
      <trkpt lat="45.72823" lon="4.79029">
        <ele>285.2</ele>
        <time>2021-09-04T20:14:02Z</time>
      </trkpt>
      <trkpt lat="45.72823" lon="4.79029">
        <ele>285.2</ele>
        <time>2021-09-04T20:14:03Z</time>
      </trkpt>
      <trkpt lat="45.72824" lon="4.79029">
        <ele>285.2</ele>
        <time>2021-09-04T20:14:05Z</time>
      </trkpt>
      <trkpt lat="45.72824" lon="4.79029">
        <ele>285.2</ele>
        <time>2021-09-04T20:14:06Z</time>
      </trkpt>
      <trkpt lat="45.72824" lon="4.79029">
        <ele>285.2</ele>
        <time>2021-09-04T20:14:07Z</time>
      </trkpt>
      <trkpt lat="45.72825" lon="4.79028">
        <ele>285.1</ele>
        <time>2021-09-04T20:14:09Z</time>
      </trkpt>
      <trkpt lat="45.72825" lon="4.79028">
        <ele>285.1</ele>
        <time>2021-09-04T20:14:10Z</time>
      </trkpt>
      <trkpt lat="45.72825" lon="4.79028">
        <ele>285.1</ele>
        <time>2021-09-04T20:14:12Z</time>
      </trkpt>
      <trkpt lat="45.72824" lon="4.79028">
        <ele>285.1</ele>
        <time>2021-09-04T20:14:13Z</time>
      </trkpt>
      <trkpt lat="45.72824" lon="4.79028">
        <ele>285.1</ele>
        <time>2021-09-04T20:14:14Z</time>
      </trkpt>
      <trkpt lat="45.72824" lon="4.79028">
        <ele>285.1</ele>
        <time>2021-09-04T20:14:16Z</time>
      </trkpt>
      <trkpt lat="45.72824" lon="4.79027">
        <ele>285.1</ele>
        <time>2021-09-04T20:14:17Z</time>
      </trkpt>
      <trkpt lat="45.72824" lon="4.79027">
        <ele>285.1</ele>
        <time>2021-09-04T20:14:18Z</time>
      </trkpt>
      <trkpt lat="45.72824" lon="4.79027">
        <ele>285.1</ele>
        <time>2021-09-04T20:14:20Z</time>
      </trkpt>
      <trkpt lat="45.72824" lon="4.79027">
        <ele>285.1</ele>
        <time>2021-09-04T20:14:22Z</time>
      </trkpt>
      <trkpt lat="45.72824" lon="4.79028">
        <ele>285.1</ele>
        <time>2021-09-04T20:14:23Z</time>
      </trkpt>
      <trkpt lat="45.72824" lon="4.79028">
        <ele>285.1</ele>
        <time>2021-09-04T20:14:25Z</time>
      </trkpt>
      <trkpt lat="45.72824" lon="4.79028">
        <ele>285.1</ele>
        <time>2021-09-04T20:14:27Z</time>
      </trkpt>
      <trkpt lat="45.72824" lon="4.79028">
        <ele>285.1</ele>
        <time>2021-09-04T20:14:29Z</time>
      </trkpt>
      <trkpt lat="45.72824" lon="4.79028">
        <ele>285.1</ele>
        <time>2021-09-04T20:14:30Z</time>
      </trkpt>
      <trkpt lat="45.72824" lon="4.79028">
        <ele>285.1</ele>
        <time>2021-09-04T20:14:32Z</time>
      </trkpt>
      <trkpt lat="45.72824" lon="4.79028">
        <ele>285.1</ele>
        <time>2021-09-04T20:14:34Z</time>
      </trkpt>
      <trkpt lat="45.72824" lon="4.79028">
        <ele>285.1</ele>
        <time>2021-09-04T20:14:36Z</time>
      </trkpt>
      <trkpt lat="45.72824" lon="4.79028">
        <ele>285.1</ele>
        <time>2021-09-04T20:14:37Z</time>
      </trkpt>
      <trkpt lat="45.72824" lon="4.79028">
        <ele>285.1</ele>
        <time>2021-09-04T20:14:39Z</time>
      </trkpt>
      <trkpt lat="45.72824" lon="4.79028">
        <ele>285.1</ele>
        <time>2021-09-04T20:14:41Z</time>
      </trkpt>
      <trkpt lat="45.72824" lon="4.79028">
        <ele>285.1</ele>
        <time>2021-09-04T20:14:42Z</time>
      </trkpt>
      <trkpt lat="45.72824" lon="4.79028">
        <ele>285.1</ele>
        <time>2021-09-04T20:14:44Z</time>
      </trkpt>
      <trkpt lat="45.72824" lon="4.79028">
        <ele>285.1</ele>
        <time>2021-09-04T20:14:46Z</time>
      </trkpt>
      <trkpt lat="45.72824" lon="4.79028">
        <ele>285.1</ele>
        <time>2021-09-04T20:14:48Z</time>
      </trkpt>
      <trkpt lat="45.72824" lon="4.79028">
        <ele>285.1</ele>
        <time>2021-09-04T20:14:50Z</time>
      </trkpt>
      <trkpt lat="45.72824" lon="4.79028">
        <ele>285.1</ele>
        <time>2021-09-04T20:14:52Z</time>
      </trkpt>
      <trkpt lat="45.72824" lon="4.79028">
        <ele>285.1</ele>
        <time>2021-09-04T20:14:54Z</time>
      </trkpt>
      <trkpt lat="45.72824" lon="4.79028">
        <ele>285.1</ele>
        <time>2021-09-04T20:14:56Z</time>
      </trkpt>
      <trkpt lat="45.72824" lon="4.79028">
        <ele>285.1</ele>
        <time>2021-09-04T20:14:58Z</time>
      </trkpt>
      <trkpt lat="45.72824" lon="4.79028">
        <ele>285.1</ele>
        <time>2021-09-04T20:14:59Z</time>
      </trkpt>
      <trkpt lat="45.72824" lon="4.79028">
        <ele>285.1</ele>
        <time>2021-09-04T20:15:01Z</time>
      </trkpt>
      <trkpt lat="45.72824" lon="4.79028">
        <ele>285.1</ele>
        <time>2021-09-04T20:15:03Z</time>
      </trkpt>
      <trkpt lat="45.72824" lon="4.79028">
        <ele>285.1</ele>
        <time>2021-09-04T20:15:04Z</time>
      </trkpt>
      <trkpt lat="45.72824" lon="4.79028">
        <ele>285.1</ele>
        <time>2021-09-04T20:15:06Z</time>
      </trkpt>
      <trkpt lat="45.72824" lon="4.79028">
        <ele>285.1</ele>
        <time>2021-09-04T20:15:07Z</time>
      </trkpt>
      <trkpt lat="45.72824" lon="4.79028">
        <ele>285.1</ele>
        <time>2021-09-04T20:15:08Z</time>
      </trkpt>
      <trkpt lat="45.72824" lon="4.79028">
        <ele>285.1</ele>
        <time>2021-09-04T20:15:10Z</time>
      </trkpt>
      <trkpt lat="45.72824" lon="4.79028">
        <ele>285.1</ele>
        <time>2021-09-04T20:15:11Z</time>
      </trkpt>
      <trkpt lat="45.72824" lon="4.79028">
        <ele>285.1</ele>
        <time>2021-09-04T20:15:13Z</time>
      </trkpt>
      <trkpt lat="45.72824" lon="4.79028">
        <ele>285.1</ele>
        <time>2021-09-04T20:15:14Z</time>
      </trkpt>
      <trkpt lat="45.72824" lon="4.79028">
        <ele>285.1</ele>
        <time>2021-09-04T20:15:16Z</time>
      </trkpt>
      <trkpt lat="45.72823" lon="4.79028">
        <ele>285</ele>
        <time>2021-09-04T20:15:18Z</time>
      </trkpt>
      <trkpt lat="45.7282" lon="4.79028">
        <ele>285</ele>
        <time>2021-09-04T20:15:20Z</time>
      </trkpt>
      <trkpt lat="45.72818" lon="4.79028">
        <ele>284.9</ele>
        <time>2021-09-04T20:15:21Z</time>
      </trkpt>
      <trkpt lat="45.72813" lon="4.79028">
        <ele>284.7</ele>
        <time>2021-09-04T20:15:23Z</time>
      </trkpt>
      <trkpt lat="45.7281" lon="4.79028">
        <ele>284.6</ele>
        <time>2021-09-04T20:15:24Z</time>
      </trkpt>
      <trkpt lat="45.72804" lon="4.79023">
        <ele>284.1</ele>
        <time>2021-09-04T20:15:26Z</time>
      </trkpt>
      <trkpt lat="45.728" lon="4.7902">
        <ele>283.9</ele>
        <time>2021-09-04T20:15:27Z</time>
      </trkpt>
      <trkpt lat="45.72795" lon="4.79017">
        <ele>283.6</ele>
        <time>2021-09-04T20:15:28Z</time>
      </trkpt>
      <trkpt lat="45.72791" lon="4.79014">
        <ele>283.3</ele>
        <time>2021-09-04T20:15:29Z</time>
      </trkpt>
      <trkpt lat="45.72782" lon="4.79007">
        <ele>282.9</ele>
        <time>2021-09-04T20:15:31Z</time>
      </trkpt>
      <trkpt lat="45.72777" lon="4.79">
        <ele>282.6</ele>
        <time>2021-09-04T20:15:33Z</time>
      </trkpt>
      <trkpt lat="45.72774" lon="4.78999">
        <ele>282.5</ele>
        <time>2021-09-04T20:15:34Z</time>
      </trkpt>
      <trkpt lat="45.72768" lon="4.78995">
        <ele>282.3</ele>
        <time>2021-09-04T20:15:36Z</time>
      </trkpt>
      <trkpt lat="45.72763" lon="4.78991">
        <ele>282.2</ele>
        <time>2021-09-04T20:15:38Z</time>
      </trkpt>
      <trkpt lat="45.7276" lon="4.78993">
        <ele>282.1</ele>
        <time>2021-09-04T20:15:39Z</time>
      </trkpt>
      <trkpt lat="45.72757" lon="4.78994">
        <ele>282.1</ele>
        <time>2021-09-04T20:15:40Z</time>
      </trkpt>
      <trkpt lat="45.72755" lon="4.78996">
        <ele>281.9</ele>
        <time>2021-09-04T20:15:41Z</time>
      </trkpt>
      <trkpt lat="45.72751" lon="4.78999">
        <ele>281.8</ele>
        <time>2021-09-04T20:15:43Z</time>
      </trkpt>
      <trkpt lat="45.72749" lon="4.79002">
        <ele>281.6</ele>
        <time>2021-09-04T20:15:44Z</time>
      </trkpt>
      <trkpt lat="45.72746" lon="4.79006">
        <ele>281.5</ele>
        <time>2021-09-04T20:15:45Z</time>
      </trkpt>
      <trkpt lat="45.72744" lon="4.79012">
        <ele>281.3</ele>
        <time>2021-09-04T20:15:47Z</time>
      </trkpt>
      <trkpt lat="45.72742" lon="4.79014">
        <ele>281.1</ele>
        <time>2021-09-04T20:15:48Z</time>
      </trkpt>
      <trkpt lat="45.72738" lon="4.7902">
        <ele>280.7</ele>
        <time>2021-09-04T20:15:50Z</time>
      </trkpt>
      <trkpt lat="45.72736" lon="4.79025">
        <ele>280.4</ele>
        <time>2021-09-04T20:15:51Z</time>
      </trkpt>
      <trkpt lat="45.72733" lon="4.79031">
        <ele>280</ele>
        <time>2021-09-04T20:15:52Z</time>
      </trkpt>
      <trkpt lat="45.72725" lon="4.79043">
        <ele>278.7</ele>
        <time>2021-09-04T20:15:54Z</time>
      </trkpt>
      <trkpt lat="45.72722" lon="4.7905">
        <ele>277.9</ele>
        <time>2021-09-04T20:15:55Z</time>
      </trkpt>
      <trkpt lat="45.72718" lon="4.79057">
        <ele>277.1</ele>
        <time>2021-09-04T20:15:56Z</time>
      </trkpt>
      <trkpt lat="45.7271" lon="4.79068">
        <ele>275.4</ele>
        <time>2021-09-04T20:15:58Z</time>
      </trkpt>
      <trkpt lat="45.72706" lon="4.79073">
        <ele>274.7</ele>
        <time>2021-09-04T20:15:59Z</time>
      </trkpt>
      <trkpt lat="45.72697" lon="4.7908">
        <ele>273</ele>
        <time>2021-09-04T20:16:01Z</time>
      </trkpt>
      <trkpt lat="45.72691" lon="4.79086">
        <ele>271.8</ele>
        <time>2021-09-04T20:16:02Z</time>
      </trkpt>
      <trkpt lat="45.72684" lon="4.79096">
        <ele>269.9</ele>
        <time>2021-09-04T20:16:04Z</time>
      </trkpt>
      <trkpt lat="45.7268" lon="4.79098">
        <ele>269.3</ele>
        <time>2021-09-04T20:16:06Z</time>
      </trkpt>
      <trkpt lat="45.72676" lon="4.79102">
        <ele>268.3</ele>
        <time>2021-09-04T20:16:07Z</time>
      </trkpt>
      <trkpt lat="45.72673" lon="4.79107">
        <ele>267.4</ele>
        <time>2021-09-04T20:16:08Z</time>
      </trkpt>
      <trkpt lat="45.7267" lon="4.79115">
        <ele>266.1</ele>
        <time>2021-09-04T20:16:10Z</time>
      </trkpt>
      <trkpt lat="45.72667" lon="4.79119">
        <ele>265.2</ele>
        <time>2021-09-04T20:16:11Z</time>
      </trkpt>
      <trkpt lat="45.72666" lon="4.7912">
        <ele>264.9</ele>
        <time>2021-09-04T20:16:12Z</time>
      </trkpt>
      <trkpt lat="45.72664" lon="4.79123">
        <ele>264.2</ele>
        <time>2021-09-04T20:16:13Z</time>
      </trkpt>
      <trkpt lat="45.72664" lon="4.79124">
        <ele>264</ele>
        <time>2021-09-04T20:16:14Z</time>
      </trkpt>
      <trkpt lat="45.72663" lon="4.79125">
        <ele>263.8</ele>
        <time>2021-09-04T20:16:15Z</time>
      </trkpt>
      <trkpt lat="45.72661" lon="4.79128">
        <ele>263.1</ele>
        <time>2021-09-04T20:16:17Z</time>
      </trkpt>
      <trkpt lat="45.7266" lon="4.7913">
        <ele>262.6</ele>
        <time>2021-09-04T20:16:18Z</time>
      </trkpt>
      <trkpt lat="45.72659" lon="4.79132">
        <ele>262.2</ele>
        <time>2021-09-04T20:16:19Z</time>
      </trkpt>
      <trkpt lat="45.72658" lon="4.79134">
        <ele>261.7</ele>
        <time>2021-09-04T20:16:21Z</time>
      </trkpt>
      <trkpt lat="45.72658" lon="4.79136">
        <ele>261.3</ele>
        <time>2021-09-04T20:16:23Z</time>
      </trkpt>
      <trkpt lat="45.72657" lon="4.79136">
        <ele>261.3</ele>
        <time>2021-09-04T20:16:24Z</time>
      </trkpt>
      <trkpt lat="45.72657" lon="4.79136">
        <ele>261.3</ele>
        <time>2021-09-04T20:16:25Z</time>
      </trkpt>
      <trkpt lat="45.72657" lon="4.79136">
        <ele>261.2</ele>
        <time>2021-09-04T20:16:27Z</time>
      </trkpt>
      <trkpt lat="45.72657" lon="4.79136">
        <ele>261.2</ele>
        <time>2021-09-04T20:16:29Z</time>
      </trkpt>
      <trkpt lat="45.72657" lon="4.79136">
        <ele>261.1</ele>
        <time>2021-09-04T20:16:30Z</time>
      </trkpt>
      <trkpt lat="45.72657" lon="4.79136">
        <ele>261</ele>
        <time>2021-09-04T20:16:32Z</time>
      </trkpt>
      <trkpt lat="45.72653" lon="4.79138">
        <ele>260</ele>
        <time>2021-09-04T20:17:06Z</time>
      </trkpt>
      <trkpt lat="45.72652" lon="4.7914">
        <ele>259.4</ele>
        <time>2021-09-04T20:17:08Z</time>
      </trkpt>
      <trkpt lat="45.72651" lon="4.79143">
        <ele>258.8</ele>
        <time>2021-09-04T20:17:10Z</time>
      </trkpt>
      <trkpt lat="45.7265" lon="4.79145">
        <ele>258.2</ele>
        <time>2021-09-04T20:17:11Z</time>
      </trkpt>
      <trkpt lat="45.72647" lon="4.79147">
        <ele>257.3</ele>
        <time>2021-09-04T20:17:13Z</time>
      </trkpt>
      <trkpt lat="45.72646" lon="4.79149">
        <ele>256.7</ele>
        <time>2021-09-04T20:17:14Z</time>
      </trkpt>
      <trkpt lat="45.72644" lon="4.7915">
        <ele>256.1</ele>
        <time>2021-09-04T20:17:15Z</time>
      </trkpt>
      <trkpt lat="45.72642" lon="4.79153">
        <ele>254.9</ele>
        <time>2021-09-04T20:17:17Z</time>
      </trkpt>
      <trkpt lat="45.72641" lon="4.79154">
        <ele>254.6</ele>
        <time>2021-09-04T20:17:18Z</time>
      </trkpt>
      <trkpt lat="45.72639" lon="4.79157">
        <ele>253.7</ele>
        <time>2021-09-04T20:17:20Z</time>
      </trkpt>
      <trkpt lat="45.72636" lon="4.79159">
        <ele>252.6</ele>
        <time>2021-09-04T20:17:21Z</time>
      </trkpt>
      <trkpt lat="45.72633" lon="4.79163">
        <ele>251.2</ele>
        <time>2021-09-04T20:17:23Z</time>
      </trkpt>
      <trkpt lat="45.72632" lon="4.79163">
        <ele>250.7</ele>
        <time>2021-09-04T20:17:24Z</time>
      </trkpt>
      <trkpt lat="45.72629" lon="4.79163">
        <ele>249.8</ele>
        <time>2021-09-04T20:17:26Z</time>
      </trkpt>
      <trkpt lat="45.72625" lon="4.79164">
        <ele>248.5</ele>
        <time>2021-09-04T20:17:27Z</time>
      </trkpt>
      <trkpt lat="45.72623" lon="4.79163">
        <ele>248.1</ele>
        <time>2021-09-04T20:17:28Z</time>
      </trkpt>
      <trkpt lat="45.72622" lon="4.79164">
        <ele>247.5</ele>
        <time>2021-09-04T20:17:30Z</time>
      </trkpt>
      <trkpt lat="45.7262" lon="4.79164">
        <ele>247</ele>
        <time>2021-09-04T20:17:31Z</time>
      </trkpt>
      <trkpt lat="45.72618" lon="4.79163">
        <ele>246.4</ele>
        <time>2021-09-04T20:17:32Z</time>
      </trkpt>
      <trkpt lat="45.72615" lon="4.79164">
        <ele>245.7</ele>
        <time>2021-09-04T20:17:33Z</time>
      </trkpt>
      <trkpt lat="45.72614" lon="4.79164">
        <ele>245.3</ele>
        <time>2021-09-04T20:17:34Z</time>
      </trkpt>
      <trkpt lat="45.72612" lon="4.79164">
        <ele>244.8</ele>
        <time>2021-09-04T20:17:35Z</time>
      </trkpt>
      <trkpt lat="45.7261" lon="4.79166">
        <ele>244.1</ele>
        <time>2021-09-04T20:17:37Z</time>
      </trkpt>
      <trkpt lat="45.72607" lon="4.79169">
        <ele>243.1</ele>
        <time>2021-09-04T20:17:38Z</time>
      </trkpt>
      <trkpt lat="45.72605" lon="4.79174">
        <ele>242.7</ele>
        <time>2021-09-04T20:17:39Z</time>
      </trkpt>
      <trkpt lat="45.72605" lon="4.79179">
        <ele>242.4</ele>
        <time>2021-09-04T20:17:40Z</time>
      </trkpt>
      <trkpt lat="45.72602" lon="4.79187">
        <ele>242</ele>
        <time>2021-09-04T20:17:42Z</time>
      </trkpt>
      <trkpt lat="45.72601" lon="4.7919">
        <ele>241.8</ele>
        <time>2021-09-04T20:17:43Z</time>
      </trkpt>
      <trkpt lat="45.726" lon="4.79195">
        <ele>241.4</ele>
        <time>2021-09-04T20:17:44Z</time>
      </trkpt>
      <trkpt lat="45.72597" lon="4.79204">
        <ele>240.9</ele>
        <time>2021-09-04T20:17:46Z</time>
      </trkpt>
      <trkpt lat="45.72593" lon="4.79213">
        <ele>240.3</ele>
        <time>2021-09-04T20:17:48Z</time>
      </trkpt>
      <trkpt lat="45.72587" lon="4.79236">
        <ele>238.9</ele>
        <time>2021-09-04T20:17:50Z</time>
      </trkpt>
      <trkpt lat="45.72586" lon="4.79244">
        <ele>238.5</ele>
        <time>2021-09-04T20:17:51Z</time>
      </trkpt>
      <trkpt lat="45.72584" lon="4.79253">
        <ele>237.9</ele>
        <time>2021-09-04T20:17:53Z</time>
      </trkpt>
      <trkpt lat="45.72583" lon="4.79263">
        <ele>237.4</ele>
        <time>2021-09-04T20:17:54Z</time>
      </trkpt>
      <trkpt lat="45.72585" lon="4.79271">
        <ele>236.9</ele>
        <time>2021-09-04T20:17:55Z</time>
      </trkpt>
      <trkpt lat="45.72584" lon="4.7928">
        <ele>236.4</ele>
        <time>2021-09-04T20:17:57Z</time>
      </trkpt>
      <trkpt lat="45.72584" lon="4.79286">
        <ele>234.1</ele>
        <time>2021-09-04T20:17:58Z</time>
      </trkpt>
      <trkpt lat="45.72584" lon="4.79292">
        <ele>233.8</ele>
        <time>2021-09-04T20:17:59Z</time>
      </trkpt>
      <trkpt lat="45.72584" lon="4.79297">
        <ele>233.5</ele>
        <time>2021-09-04T20:18:01Z</time>
      </trkpt>
      <trkpt lat="45.72583" lon="4.79297">
        <ele>233.4</ele>
        <time>2021-09-04T20:18:02Z</time>
      </trkpt>
      <trkpt lat="45.72582" lon="4.79296">
        <ele>233.3</ele>
        <time>2021-09-04T20:18:03Z</time>
      </trkpt>
      <trkpt lat="45.72581" lon="4.79293">
        <ele>233.2</ele>
        <time>2021-09-04T20:18:04Z</time>
      </trkpt>
      <trkpt lat="45.7258" lon="4.79289">
        <ele>233</ele>
        <time>2021-09-04T20:18:06Z</time>
      </trkpt>
      <trkpt lat="45.7258" lon="4.79287">
        <ele>232.9</ele>
        <time>2021-09-04T20:18:07Z</time>
      </trkpt>
      <trkpt lat="45.72578" lon="4.79284">
        <ele>232.8</ele>
        <time>2021-09-04T20:18:09Z</time>
      </trkpt>
      <trkpt lat="45.72577" lon="4.7928">
        <ele>232.6</ele>
        <time>2021-09-04T20:18:10Z</time>
      </trkpt>
      <trkpt lat="45.72577" lon="4.79276">
        <ele>232.4</ele>
        <time>2021-09-04T20:18:11Z</time>
      </trkpt>
      <trkpt lat="45.72574" lon="4.79268">
        <ele>232.1</ele>
        <time>2021-09-04T20:18:13Z</time>
      </trkpt>
      <trkpt lat="45.72573" lon="4.7926">
        <ele>231.8</ele>
        <time>2021-09-04T20:18:15Z</time>
      </trkpt>
      <trkpt lat="45.72572" lon="4.79254">
        <ele>231.6</ele>
        <time>2021-09-04T20:18:16Z</time>
      </trkpt>
      <trkpt lat="45.72572" lon="4.79245">
        <ele>231.3</ele>
        <time>2021-09-04T20:18:17Z</time>
      </trkpt>
      <trkpt lat="45.72574" lon="4.79235">
        <ele>231</ele>
        <time>2021-09-04T20:18:19Z</time>
      </trkpt>
      <trkpt lat="45.72575" lon="4.79228">
        <ele>230.8</ele>
        <time>2021-09-04T20:18:20Z</time>
      </trkpt>
      <trkpt lat="45.72578" lon="4.79218">
        <ele>230.5</ele>
        <time>2021-09-04T20:18:21Z</time>
      </trkpt>
      <trkpt lat="45.72584" lon="4.792">
        <ele>229.6</ele>
        <time>2021-09-04T20:18:23Z</time>
      </trkpt>
      <trkpt lat="45.72586" lon="4.79192">
        <ele>229.2</ele>
        <time>2021-09-04T20:18:24Z</time>
      </trkpt>
      <trkpt lat="45.72588" lon="4.79176">
        <ele>228.4</ele>
        <time>2021-09-04T20:18:26Z</time>
      </trkpt>
      <trkpt lat="45.72588" lon="4.79166">
        <ele>228</ele>
        <time>2021-09-04T20:18:27Z</time>
      </trkpt>
      <trkpt lat="45.72586" lon="4.79149">
        <ele>227.1</ele>
        <time>2021-09-04T20:18:29Z</time>
      </trkpt>
      <trkpt lat="45.72576" lon="4.79131">
        <ele>226.1</ele>
        <time>2021-09-04T20:18:31Z</time>
      </trkpt>
      <trkpt lat="45.72573" lon="4.79122">
        <ele>225.6</ele>
        <time>2021-09-04T20:18:32Z</time>
      </trkpt>
      <trkpt lat="45.72568" lon="4.79104">
        <ele>224.7</ele>
        <time>2021-09-04T20:18:34Z</time>
      </trkpt>
      <trkpt lat="45.72566" lon="4.79098">
        <ele>224.4</ele>
        <time>2021-09-04T20:18:35Z</time>
      </trkpt>
      <trkpt lat="45.72562" lon="4.79096">
        <ele>224.1</ele>
        <time>2021-09-04T20:18:36Z</time>
      </trkpt>
      <trkpt lat="45.7256" lon="4.79096">
        <ele>223.9</ele>
        <time>2021-09-04T20:18:37Z</time>
      </trkpt>
      <trkpt lat="45.72557" lon="4.79099">
        <ele>223.6</ele>
        <time>2021-09-04T20:18:38Z</time>
      </trkpt>
      <trkpt lat="45.72556" lon="4.79109">
        <ele>223</ele>
        <time>2021-09-04T20:18:40Z</time>
      </trkpt>
      <trkpt lat="45.72557" lon="4.79116">
        <ele>222.6</ele>
        <time>2021-09-04T20:18:42Z</time>
      </trkpt>
      <trkpt lat="45.7256" lon="4.79123">
        <ele>222.2</ele>
        <time>2021-09-04T20:18:44Z</time>
      </trkpt>
      <trkpt lat="45.72561" lon="4.79127">
        <ele>221.9</ele>
        <time>2021-09-04T20:18:45Z</time>
      </trkpt>
      <trkpt lat="45.72563" lon="4.79133">
        <ele>221.6</ele>
        <time>2021-09-04T20:18:46Z</time>
      </trkpt>
      <trkpt lat="45.72565" lon="4.79143">
        <ele>221.1</ele>
        <time>2021-09-04T20:18:48Z</time>
      </trkpt>
      <trkpt lat="45.72566" lon="4.79157">
        <ele>220.5</ele>
        <time>2021-09-04T20:18:49Z</time>
      </trkpt>
      <trkpt lat="45.72565" lon="4.79172">
        <ele>220</ele>
        <time>2021-09-04T20:18:51Z</time>
      </trkpt>
      <trkpt lat="45.72562" lon="4.79178">
        <ele>219.8</ele>
        <time>2021-09-04T20:18:52Z</time>
      </trkpt>
      <trkpt lat="45.72556" lon="4.79194">
        <ele>219.5</ele>
        <time>2021-09-04T20:18:54Z</time>
      </trkpt>
      <trkpt lat="45.72554" lon="4.79201">
        <ele>219.4</ele>
        <time>2021-09-04T20:18:55Z</time>
      </trkpt>
      <trkpt lat="45.72554" lon="4.79213">
        <ele>219.2</ele>
        <time>2021-09-04T20:18:57Z</time>
      </trkpt>
      <trkpt lat="45.72554" lon="4.79218">
        <ele>219.2</ele>
        <time>2021-09-04T20:18:58Z</time>
      </trkpt>
      <trkpt lat="45.72552" lon="4.79233">
        <ele>219.1</ele>
        <time>2021-09-04T20:19:00Z</time>
      </trkpt>
      <trkpt lat="45.72549" lon="4.79248">
        <ele>219.1</ele>
        <time>2021-09-04T20:19:02Z</time>
      </trkpt>
      <trkpt lat="45.72548" lon="4.79254">
        <ele>219.1</ele>
        <time>2021-09-04T20:19:03Z</time>
      </trkpt>
      <trkpt lat="45.72548" lon="4.79261">
        <ele>219.1</ele>
        <time>2021-09-04T20:19:05Z</time>
      </trkpt>
      <trkpt lat="45.72547" lon="4.79271">
        <ele>219.1</ele>
        <time>2021-09-04T20:19:06Z</time>
      </trkpt>
      <trkpt lat="45.72546" lon="4.79279">
        <ele>219.2</ele>
        <time>2021-09-04T20:19:08Z</time>
      </trkpt>
      <trkpt lat="45.72545" lon="4.79286">
        <ele>219.2</ele>
        <time>2021-09-04T20:19:09Z</time>
      </trkpt>
      <trkpt lat="45.72545" lon="4.79297">
        <ele>219.2</ele>
        <time>2021-09-04T20:19:11Z</time>
      </trkpt>
      <trkpt lat="45.72545" lon="4.79306">
        <ele>219.2</ele>
        <time>2021-09-04T20:19:13Z</time>
      </trkpt>
      <trkpt lat="45.72545" lon="4.79311">
        <ele>219.2</ele>
        <time>2021-09-04T20:19:14Z</time>
      </trkpt>
      <trkpt lat="45.72546" lon="4.79318">
        <ele>219.3</ele>
        <time>2021-09-04T20:19:16Z</time>
      </trkpt>
      <trkpt lat="45.72547" lon="4.79324">
        <ele>219.3</ele>
        <time>2021-09-04T20:19:17Z</time>
      </trkpt>
      <trkpt lat="45.72547" lon="4.79331">
        <ele>219.3</ele>
        <time>2021-09-04T20:19:19Z</time>
      </trkpt>
      <trkpt lat="45.72546" lon="4.79337">
        <ele>219.2</ele>
        <time>2021-09-04T20:19:20Z</time>
      </trkpt>
      <trkpt lat="45.72545" lon="4.79342">
        <ele>219.1</ele>
        <time>2021-09-04T20:19:22Z</time>
      </trkpt>
      <trkpt lat="45.72543" lon="4.79348">
        <ele>218.9</ele>
        <time>2021-09-04T20:19:23Z</time>
      </trkpt>
      <trkpt lat="45.7254" lon="4.79355">
        <ele>218.7</ele>
        <time>2021-09-04T20:19:25Z</time>
      </trkpt>
      <trkpt lat="45.72538" lon="4.7936">
        <ele>218.6</ele>
        <time>2021-09-04T20:19:27Z</time>
      </trkpt>
      <trkpt lat="45.72534" lon="4.79366">
        <ele>218.5</ele>
        <time>2021-09-04T20:19:28Z</time>
      </trkpt>
      <trkpt lat="45.72531" lon="4.7937">
        <ele>217.2</ele>
        <time>2021-09-04T20:19:29Z</time>
      </trkpt>
      <trkpt lat="45.72525" lon="4.79366">
        <ele>215.9</ele>
        <time>2021-09-04T20:19:31Z</time>
      </trkpt>
      <trkpt lat="45.72522" lon="4.79363">
        <ele>215.3</ele>
        <time>2021-09-04T20:19:32Z</time>
      </trkpt>
      <trkpt lat="45.72512" lon="4.79353">
        <ele>213.1</ele>
        <time>2021-09-04T20:19:34Z</time>
      </trkpt>
      <trkpt lat="45.72506" lon="4.7935">
        <ele>211.9</ele>
        <time>2021-09-04T20:19:35Z</time>
      </trkpt>
      <trkpt lat="45.72492" lon="4.79346">
        <ele>209.8</ele>
        <time>2021-09-04T20:19:37Z</time>
      </trkpt>
      <trkpt lat="45.72486" lon="4.79345">
        <ele>208.8</ele>
        <time>2021-09-04T20:19:38Z</time>
      </trkpt>
      <trkpt lat="45.72479" lon="4.79343">
        <ele>207.8</ele>
        <time>2021-09-04T20:19:39Z</time>
      </trkpt>
      <trkpt lat="45.72473" lon="4.79341">
        <ele>206.9</ele>
        <time>2021-09-04T20:19:40Z</time>
      </trkpt>
      <trkpt lat="45.72462" lon="4.7934">
        <ele>205.8</ele>
        <time>2021-09-04T20:19:42Z</time>
      </trkpt>
      <trkpt lat="45.72456" lon="4.79351">
        <ele>204.8</ele>
        <time>2021-09-04T20:19:44Z</time>
      </trkpt>
      <trkpt lat="45.72454" lon="4.7936">
        <ele>204.3</ele>
        <time>2021-09-04T20:19:45Z</time>
      </trkpt>
      <trkpt lat="45.72449" lon="4.79376">
        <ele>203.1</ele>
        <time>2021-09-04T20:19:47Z</time>
      </trkpt>
      <trkpt lat="45.72443" lon="4.79391">
        <ele>202.1</ele>
        <time>2021-09-04T20:19:49Z</time>
      </trkpt>
      <trkpt lat="45.7244" lon="4.79396">
        <ele>201.7</ele>
        <time>2021-09-04T20:19:50Z</time>
      </trkpt>
      <trkpt lat="45.72437" lon="4.794">
        <ele>201.4</ele>
        <time>2021-09-04T20:19:51Z</time>
      </trkpt>
      <trkpt lat="45.72435" lon="4.79404">
        <ele>201.2</ele>
        <time>2021-09-04T20:19:52Z</time>
      </trkpt>
      <trkpt lat="45.7243" lon="4.79411">
        <ele>201.1</ele>
        <time>2021-09-04T20:19:54Z</time>
      </trkpt>
      <trkpt lat="45.72428" lon="4.79418">
        <ele>201.1</ele>
        <time>2021-09-04T20:19:55Z</time>
      </trkpt>
      <trkpt lat="45.72427" lon="4.79426">
        <ele>201.1</ele>
        <time>2021-09-04T20:19:56Z</time>
      </trkpt>
      <trkpt lat="45.72423" lon="4.7944">
        <ele>201</ele>
        <time>2021-09-04T20:19:58Z</time>
      </trkpt>
      <trkpt lat="45.7242" lon="4.79455">
        <ele>200.9</ele>
        <time>2021-09-04T20:20:00Z</time>
      </trkpt>
      <trkpt lat="45.72421" lon="4.79462">
        <ele>200.9</ele>
        <time>2021-09-04T20:20:01Z</time>
      </trkpt>
      <trkpt lat="45.7242" lon="4.79477">
        <ele>200.9</ele>
        <time>2021-09-04T20:20:03Z</time>
      </trkpt>
      <trkpt lat="45.72418" lon="4.79492">
        <ele>200.9</ele>
        <time>2021-09-04T20:20:05Z</time>
      </trkpt>
      <trkpt lat="45.72417" lon="4.79506">
        <ele>201</ele>
        <time>2021-09-04T20:20:07Z</time>
      </trkpt>
      <trkpt lat="45.72416" lon="4.79513">
        <ele>201</ele>
        <time>2021-09-04T20:20:08Z</time>
      </trkpt>
      <trkpt lat="45.72413" lon="4.79524">
        <ele>201.1</ele>
        <time>2021-09-04T20:20:10Z</time>
      </trkpt>
      <trkpt lat="45.72411" lon="4.79536">
        <ele>201.2</ele>
        <time>2021-09-04T20:20:12Z</time>
      </trkpt>
      <trkpt lat="45.72408" lon="4.79549">
        <ele>201.4</ele>
        <time>2021-09-04T20:20:14Z</time>
      </trkpt>
      <trkpt lat="45.72405" lon="4.7956">
        <ele>201.5</ele>
        <time>2021-09-04T20:20:16Z</time>
      </trkpt>
      <trkpt lat="45.72403" lon="4.79572">
        <ele>201.7</ele>
        <time>2021-09-04T20:20:18Z</time>
      </trkpt>
      <trkpt lat="45.72401" lon="4.79582">
        <ele>202</ele>
        <time>2021-09-04T20:20:20Z</time>
      </trkpt>
      <trkpt lat="45.724" lon="4.79593">
        <ele>202.3</ele>
        <time>2021-09-04T20:20:22Z</time>
      </trkpt>
      <trkpt lat="45.72399" lon="4.79599">
        <ele>202.4</ele>
        <time>2021-09-04T20:20:23Z</time>
      </trkpt>
      <trkpt lat="45.72398" lon="4.79605">
        <ele>202.6</ele>
        <time>2021-09-04T20:20:24Z</time>
      </trkpt>
      <trkpt lat="45.72398" lon="4.79615">
        <ele>202.9</ele>
        <time>2021-09-04T20:20:26Z</time>
      </trkpt>
      <trkpt lat="45.72398" lon="4.79625">
        <ele>203.1</ele>
        <time>2021-09-04T20:20:28Z</time>
      </trkpt>
      <trkpt lat="45.72397" lon="4.79631">
        <ele>203.1</ele>
        <time>2021-09-04T20:20:29Z</time>
      </trkpt>
      <trkpt lat="45.72397" lon="4.79637">
        <ele>203.2</ele>
        <time>2021-09-04T20:20:31Z</time>
      </trkpt>
      <trkpt lat="45.72397" lon="4.79643">
        <ele>203.5</ele>
        <time>2021-09-04T20:20:32Z</time>
      </trkpt>
      <trkpt lat="45.72396" lon="4.79648">
        <ele>203.7</ele>
        <time>2021-09-04T20:20:34Z</time>
      </trkpt>
      <trkpt lat="45.72397" lon="4.79655">
        <ele>204.1</ele>
        <time>2021-09-04T20:20:35Z</time>
      </trkpt>
      <trkpt lat="45.72396" lon="4.79663">
        <ele>204.5</ele>
        <time>2021-09-04T20:20:37Z</time>
      </trkpt>
      <trkpt lat="45.72396" lon="4.79667">
        <ele>204.8</ele>
        <time>2021-09-04T20:20:38Z</time>
      </trkpt>
      <trkpt lat="45.72396" lon="4.79671">
        <ele>205.1</ele>
        <time>2021-09-04T20:20:39Z</time>
      </trkpt>
      <trkpt lat="45.72395" lon="4.79676">
        <ele>205.4</ele>
        <time>2021-09-04T20:20:41Z</time>
      </trkpt>
      <trkpt lat="45.72394" lon="4.79682">
        <ele>205.9</ele>
        <time>2021-09-04T20:20:42Z</time>
      </trkpt>
      <trkpt lat="45.72393" lon="4.79686">
        <ele>206.2</ele>
        <time>2021-09-04T20:20:43Z</time>
      </trkpt>
      <trkpt lat="45.72393" lon="4.7969">
        <ele>206.5</ele>
        <time>2021-09-04T20:20:45Z</time>
      </trkpt>
      <trkpt lat="45.72392" lon="4.79694">
        <ele>206.9</ele>
        <time>2021-09-04T20:20:46Z</time>
      </trkpt>
      <trkpt lat="45.72392" lon="4.79699">
        <ele>207.3</ele>
        <time>2021-09-04T20:20:48Z</time>
      </trkpt>
      <trkpt lat="45.72391" lon="4.79703">
        <ele>207.6</ele>
        <time>2021-09-04T20:20:49Z</time>
      </trkpt>
      <trkpt lat="45.72391" lon="4.79707">
        <ele>208</ele>
        <time>2021-09-04T20:20:50Z</time>
      </trkpt>
      <trkpt lat="45.7239" lon="4.7971">
        <ele>208.2</ele>
        <time>2021-09-04T20:20:52Z</time>
      </trkpt>
      <trkpt lat="45.72389" lon="4.79714">
        <ele>208.6</ele>
        <time>2021-09-04T20:20:53Z</time>
      </trkpt>
      <trkpt lat="45.72388" lon="4.79719">
        <ele>209</ele>
        <time>2021-09-04T20:20:54Z</time>
      </trkpt>
      <trkpt lat="45.72388" lon="4.7972">
        <ele>209.1</ele>
        <time>2021-09-04T20:20:55Z</time>
      </trkpt>
      <trkpt lat="45.72388" lon="4.79725">
        <ele>209.5</ele>
        <time>2021-09-04T20:20:57Z</time>
      </trkpt>
      <trkpt lat="45.72387" lon="4.79727">
        <ele>209.6</ele>
        <time>2021-09-04T20:20:58Z</time>
      </trkpt>
      <trkpt lat="45.72386" lon="4.79729">
        <ele>209.8</ele>
        <time>2021-09-04T20:20:59Z</time>
      </trkpt>
      <trkpt lat="45.72386" lon="4.79732">
        <ele>210</ele>
        <time>2021-09-04T20:21:00Z</time>
      </trkpt>
      <trkpt lat="45.72384" lon="4.79735">
        <ele>210.3</ele>
        <time>2021-09-04T20:21:02Z</time>
      </trkpt>
      <trkpt lat="45.72382" lon="4.79738">
        <ele>210.6</ele>
        <time>2021-09-04T20:21:03Z</time>
      </trkpt>
      <trkpt lat="45.72379" lon="4.79741">
        <ele>210.9</ele>
        <time>2021-09-04T20:21:05Z</time>
      </trkpt>
      <trkpt lat="45.72376" lon="4.79745">
        <ele>211.2</ele>
        <time>2021-09-04T20:21:07Z</time>
      </trkpt>
      <trkpt lat="45.72375" lon="4.79747">
        <ele>211.3</ele>
        <time>2021-09-04T20:21:08Z</time>
      </trkpt>
      <trkpt lat="45.72372" lon="4.7975">
        <ele>211.6</ele>
        <time>2021-09-04T20:21:09Z</time>
      </trkpt>
      <trkpt lat="45.72372" lon="4.79751">
        <ele>211.6</ele>
        <time>2021-09-04T20:21:10Z</time>
      </trkpt>
      <trkpt lat="45.7237" lon="4.79753">
        <ele>211.8</ele>
        <time>2021-09-04T20:21:11Z</time>
      </trkpt>
      <trkpt lat="45.72368" lon="4.79756">
        <ele>211.9</ele>
        <time>2021-09-04T20:21:13Z</time>
      </trkpt>
      <trkpt lat="45.72366" lon="4.79758">
        <ele>212.1</ele>
        <time>2021-09-04T20:21:14Z</time>
      </trkpt>
      <trkpt lat="45.72363" lon="4.79761">
        <ele>212.3</ele>
        <time>2021-09-04T20:21:15Z</time>
      </trkpt>
      <trkpt lat="45.72363" lon="4.79762">
        <ele>212.4</ele>
        <time>2021-09-04T20:21:16Z</time>
      </trkpt>
      <trkpt lat="45.7236" lon="4.79765">
        <ele>212.6</ele>
        <time>2021-09-04T20:21:18Z</time>
      </trkpt>
      <trkpt lat="45.72356" lon="4.79768">
        <ele>212.8</ele>
        <time>2021-09-04T20:21:20Z</time>
      </trkpt>
      <trkpt lat="45.72353" lon="4.79771">
        <ele>213</ele>
        <time>2021-09-04T20:21:22Z</time>
      </trkpt>
      <trkpt lat="45.7235" lon="4.79773">
        <ele>213.1</ele>
        <time>2021-09-04T20:21:23Z</time>
      </trkpt>
      <trkpt lat="45.72349" lon="4.79774">
        <ele>213.2</ele>
        <time>2021-09-04T20:21:24Z</time>
      </trkpt>
      <trkpt lat="45.72347" lon="4.79775">
        <ele>213.3</ele>
        <time>2021-09-04T20:21:25Z</time>
      </trkpt>
      <trkpt lat="45.72345" lon="4.79777">
        <ele>213.4</ele>
        <time>2021-09-04T20:21:27Z</time>
      </trkpt>
      <trkpt lat="45.72342" lon="4.79779">
        <ele>213.6</ele>
        <time>2021-09-04T20:21:28Z</time>
      </trkpt>
      <trkpt lat="45.7234" lon="4.79781">
        <ele>213.7</ele>
        <time>2021-09-04T20:21:29Z</time>
      </trkpt>
      <trkpt lat="45.72337" lon="4.79784">
        <ele>213.8</ele>
        <time>2021-09-04T20:21:31Z</time>
      </trkpt>
      <trkpt lat="45.72335" lon="4.79786">
        <ele>214</ele>
        <time>2021-09-04T20:21:32Z</time>
      </trkpt>
      <trkpt lat="45.72334" lon="4.79788">
        <ele>214.1</ele>
        <time>2021-09-04T20:21:33Z</time>
      </trkpt>
      <trkpt lat="45.72332" lon="4.79793">
        <ele>214.2</ele>
        <time>2021-09-04T20:21:35Z</time>
      </trkpt>
      <trkpt lat="45.72331" lon="4.79796">
        <ele>214.3</ele>
        <time>2021-09-04T20:21:36Z</time>
      </trkpt>
      <trkpt lat="45.7233" lon="4.798">
        <ele>214.5</ele>
        <time>2021-09-04T20:21:38Z</time>
      </trkpt>
      <trkpt lat="45.72329" lon="4.79804">
        <ele>214.5</ele>
        <time>2021-09-04T20:21:39Z</time>
      </trkpt>
      <trkpt lat="45.72328" lon="4.79809">
        <ele>214.7</ele>
        <time>2021-09-04T20:21:41Z</time>
      </trkpt>
      <trkpt lat="45.72328" lon="4.79816">
        <ele>214.9</ele>
        <time>2021-09-04T20:21:43Z</time>
      </trkpt>
      <trkpt lat="45.72328" lon="4.79819">
        <ele>214.9</ele>
        <time>2021-09-04T20:21:44Z</time>
      </trkpt>
      <trkpt lat="45.72329" lon="4.79824">
        <ele>215</ele>
        <time>2021-09-04T20:21:45Z</time>
      </trkpt>
      <trkpt lat="45.72328" lon="4.79826">
        <ele>215.1</ele>
        <time>2021-09-04T20:21:46Z</time>
      </trkpt>
      <trkpt lat="45.72328" lon="4.79829">
        <ele>215.1</ele>
        <time>2021-09-04T20:21:47Z</time>
      </trkpt>
      <trkpt lat="45.72328" lon="4.79833">
        <ele>215.2</ele>
        <time>2021-09-04T20:21:49Z</time>
      </trkpt>
      <trkpt lat="45.72328" lon="4.79837">
        <ele>215.2</ele>
        <time>2021-09-04T20:21:50Z</time>
      </trkpt>
      <trkpt lat="45.72328" lon="4.79842">
        <ele>215.3</ele>
        <time>2021-09-04T20:21:52Z</time>
      </trkpt>
      <trkpt lat="45.72328" lon="4.79844">
        <ele>215.3</ele>
        <time>2021-09-04T20:21:53Z</time>
      </trkpt>
      <trkpt lat="45.72329" lon="4.79847">
        <ele>215.3</ele>
        <time>2021-09-04T20:21:54Z</time>
      </trkpt>
      <trkpt lat="45.72329" lon="4.79851">
        <ele>215.3</ele>
        <time>2021-09-04T20:21:56Z</time>
      </trkpt>
      <trkpt lat="45.72328" lon="4.79853">
        <ele>215.3</ele>
        <time>2021-09-04T20:21:57Z</time>
      </trkpt>
      <trkpt lat="45.72327" lon="4.79859">
        <ele>215.2</ele>
        <time>2021-09-04T20:21:59Z</time>
      </trkpt>
      <trkpt lat="45.72327" lon="4.79868">
        <ele>215</ele>
        <time>2021-09-04T20:22:01Z</time>
      </trkpt>
      <trkpt lat="45.72327" lon="4.79872">
        <ele>214.9</ele>
        <time>2021-09-04T20:22:02Z</time>
      </trkpt>
      <trkpt lat="45.72326" lon="4.79882">
        <ele>214.7</ele>
        <time>2021-09-04T20:22:04Z</time>
      </trkpt>
      <trkpt lat="45.72326" lon="4.79886">
        <ele>214.6</ele>
        <time>2021-09-04T20:22:05Z</time>
      </trkpt>
      <trkpt lat="45.72325" lon="4.79891">
        <ele>214.4</ele>
        <time>2021-09-04T20:22:06Z</time>
      </trkpt>
      <trkpt lat="45.72324" lon="4.79895">
        <ele>214.2</ele>
        <time>2021-09-04T20:22:07Z</time>
      </trkpt>
      <trkpt lat="45.72324" lon="4.79904">
        <ele>213.6</ele>
        <time>2021-09-04T20:22:09Z</time>
      </trkpt>
      <trkpt lat="45.72322" lon="4.79908">
        <ele>213.4</ele>
        <time>2021-09-04T20:22:11Z</time>
      </trkpt>
      <trkpt lat="45.7232" lon="4.79908">
        <ele>213.4</ele>
        <time>2021-09-04T20:22:12Z</time>
      </trkpt>
      <trkpt lat="45.7232" lon="4.79908">
        <ele>213.3</ele>
        <time>2021-09-04T20:22:13Z</time>
      </trkpt>
      <trkpt lat="45.72321" lon="4.79908">
        <ele>213.3</ele>
        <time>2021-09-04T20:22:14Z</time>
      </trkpt>
      <trkpt lat="45.72319" lon="4.79905">
        <ele>213.2</ele>
        <time>2021-09-04T20:22:16Z</time>
      </trkpt>
      <trkpt lat="45.7232" lon="4.79901">
        <ele>213.1</ele>
        <time>2021-09-04T20:22:17Z</time>
      </trkpt>
      <trkpt lat="45.72321" lon="4.79897">
        <ele>213</ele>
        <time>2021-09-04T20:22:18Z</time>
      </trkpt>
      <trkpt lat="45.72321" lon="4.79893">
        <ele>212.9</ele>
        <time>2021-09-04T20:22:19Z</time>
      </trkpt>
      <trkpt lat="45.72323" lon="4.79883">
        <ele>212.7</ele>
        <time>2021-09-04T20:22:21Z</time>
      </trkpt>
      <trkpt lat="45.72323" lon="4.79872">
        <ele>212.5</ele>
        <time>2021-09-04T20:22:23Z</time>
      </trkpt>
      <trkpt lat="45.72323" lon="4.79865">
        <ele>212.4</ele>
        <time>2021-09-04T20:22:25Z</time>
      </trkpt>
      <trkpt lat="45.72324" lon="4.79859">
        <ele>212.3</ele>
        <time>2021-09-04T20:22:26Z</time>
      </trkpt>
      <trkpt lat="45.72325" lon="4.79851">
        <ele>212.1</ele>
        <time>2021-09-04T20:22:27Z</time>
      </trkpt>
      <trkpt lat="45.72325" lon="4.7984">
        <ele>211.7</ele>
        <time>2021-09-04T20:22:29Z</time>
      </trkpt>
      <trkpt lat="45.72325" lon="4.79836">
        <ele>211.4</ele>
        <time>2021-09-04T20:22:30Z</time>
      </trkpt>
      <trkpt lat="45.72325" lon="4.79832">
        <ele>211.1</ele>
        <time>2021-09-04T20:22:31Z</time>
      </trkpt>
      <trkpt lat="45.72323" lon="4.79825">
        <ele>210.6</ele>
        <time>2021-09-04T20:22:33Z</time>
      </trkpt>
      <trkpt lat="45.72323" lon="4.79819">
        <ele>210</ele>
        <time>2021-09-04T20:22:34Z</time>
      </trkpt>
      <trkpt lat="45.72321" lon="4.7981">
        <ele>208.9</ele>
        <time>2021-09-04T20:22:35Z</time>
      </trkpt>
      <trkpt lat="45.72319" lon="4.798">
        <ele>207.6</ele>
        <time>2021-09-04T20:22:37Z</time>
      </trkpt>
      <trkpt lat="45.72318" lon="4.79793">
        <ele>206.7</ele>
        <time>2021-09-04T20:22:38Z</time>
      </trkpt>
      <trkpt lat="45.72318" lon="4.79787">
        <ele>205.8</ele>
        <time>2021-09-04T20:22:40Z</time>
      </trkpt>
      <trkpt lat="45.72319" lon="4.79784">
        <ele>205.3</ele>
        <time>2021-09-04T20:22:41Z</time>
      </trkpt>
      <trkpt lat="45.72318" lon="4.79783">
        <ele>205.1</ele>
        <time>2021-09-04T20:22:43Z</time>
      </trkpt>
      <trkpt lat="45.72316" lon="4.79781">
        <ele>204.6</ele>
        <time>2021-09-04T20:22:45Z</time>
      </trkpt>
      <trkpt lat="45.72315" lon="4.79781">
        <ele>204.2</ele>
        <time>2021-09-04T20:22:47Z</time>
      </trkpt>
      <trkpt lat="45.72313" lon="4.79779">
        <ele>203.7</ele>
        <time>2021-09-04T20:22:48Z</time>
      </trkpt>
      <trkpt lat="45.72312" lon="4.79778">
        <ele>203.3</ele>
        <time>2021-09-04T20:22:49Z</time>
      </trkpt>
      <trkpt lat="45.7231" lon="4.79777">
        <ele>201.8</ele>
        <time>2021-09-04T20:22:51Z</time>
      </trkpt>
      <trkpt lat="45.72308" lon="4.79779">
        <ele>201.5</ele>
        <time>2021-09-04T20:22:52Z</time>
      </trkpt>
      <trkpt lat="45.72307" lon="4.79781">
        <ele>201.2</ele>
        <time>2021-09-04T20:22:53Z</time>
      </trkpt>
      <trkpt lat="45.72305" lon="4.79786">
        <ele>200.7</ele>
        <time>2021-09-04T20:22:55Z</time>
      </trkpt>
      <trkpt lat="45.72303" lon="4.79791">
        <ele>200.1</ele>
        <time>2021-09-04T20:22:56Z</time>
      </trkpt>
      <trkpt lat="45.723" lon="4.79798">
        <ele>199.4</ele>
        <time>2021-09-04T20:22:57Z</time>
      </trkpt>
      <trkpt lat="45.72298" lon="4.79805">
        <ele>195.7</ele>
        <time>2021-09-04T20:22:59Z</time>
      </trkpt>
      <trkpt lat="45.72296" lon="4.79812">
        <ele>194.9</ele>
        <time>2021-09-04T20:23:00Z</time>
      </trkpt>
      <trkpt lat="45.72295" lon="4.79815">
        <ele>194.6</ele>
        <time>2021-09-04T20:23:01Z</time>
      </trkpt>
      <trkpt lat="45.72294" lon="4.79814">
        <ele>194.4</ele>
        <time>2021-09-04T20:23:03Z</time>
      </trkpt>
      <trkpt lat="45.72293" lon="4.79812">
        <ele>194.2</ele>
        <time>2021-09-04T20:23:04Z</time>
      </trkpt>
      <trkpt lat="45.72292" lon="4.79805">
        <ele>193.4</ele>
        <time>2021-09-04T20:23:06Z</time>
      </trkpt>
      <trkpt lat="45.72292" lon="4.79799">
        <ele>192.7</ele>
        <time>2021-09-04T20:23:07Z</time>
      </trkpt>
      <trkpt lat="45.72291" lon="4.79789">
        <ele>191.5</ele>
        <time>2021-09-04T20:23:08Z</time>
      </trkpt>
      <trkpt lat="45.7229" lon="4.79785">
        <ele>190.9</ele>
        <time>2021-09-04T20:23:09Z</time>
      </trkpt>
      <trkpt lat="45.7229" lon="4.79779">
        <ele>190.2</ele>
        <time>2021-09-04T20:23:11Z</time>
      </trkpt>
      <trkpt lat="45.7229" lon="4.79773">
        <ele>189.4</ele>
        <time>2021-09-04T20:23:12Z</time>
      </trkpt>
      <trkpt lat="45.72291" lon="4.7977">
        <ele>189</ele>
        <time>2021-09-04T20:23:13Z</time>
      </trkpt>
      <trkpt lat="45.72291" lon="4.79769">
        <ele>188.9</ele>
        <time>2021-09-04T20:23:14Z</time>
      </trkpt>
      <trkpt lat="45.72292" lon="4.79768">
        <ele>188.8</ele>
        <time>2021-09-04T20:23:15Z</time>
      </trkpt>
      <trkpt lat="45.7229" lon="4.79768">
        <ele>188.5</ele>
        <time>2021-09-04T20:23:16Z</time>
      </trkpt>
      <trkpt lat="45.7229" lon="4.79768">
        <ele>188.4</ele>
        <time>2021-09-04T20:23:18Z</time>
      </trkpt>
      <trkpt lat="45.72289" lon="4.79768">
        <ele>188.2</ele>
        <time>2021-09-04T20:23:20Z</time>
      </trkpt>
      <trkpt lat="45.72288" lon="4.79769">
        <ele>188.1</ele>
        <time>2021-09-04T20:23:21Z</time>
      </trkpt>
      <trkpt lat="45.72285" lon="4.79773">
        <ele>187.4</ele>
        <time>2021-09-04T20:23:22Z</time>
      </trkpt>
      <trkpt lat="45.72284" lon="4.79775">
        <ele>187.2</ele>
        <time>2021-09-04T20:23:23Z</time>
      </trkpt>
      <trkpt lat="45.7228" lon="4.79787">
        <ele>185.6</ele>
        <time>2021-09-04T20:23:24Z</time>
      </trkpt>
      <trkpt lat="45.72278" lon="4.79798">
        <ele>184.3</ele>
        <time>2021-09-04T20:23:26Z</time>
      </trkpt>
      <trkpt lat="45.72277" lon="4.79804">
        <ele>183.6</ele>
        <time>2021-09-04T20:23:28Z</time>
      </trkpt>
      <trkpt lat="45.72274" lon="4.79807">
        <ele>183.1</ele>
        <time>2021-09-04T20:23:30Z</time>
      </trkpt>
      <trkpt lat="45.72273" lon="4.79807">
        <ele>183</ele>
        <time>2021-09-04T20:23:31Z</time>
      </trkpt>
      <trkpt lat="45.72272" lon="4.79808">
        <ele>182.7</ele>
        <time>2021-09-04T20:23:33Z</time>
      </trkpt>
      <trkpt lat="45.7227" lon="4.79808">
        <ele>182.4</ele>
        <time>2021-09-04T20:23:34Z</time>
      </trkpt>
      <trkpt lat="45.72267" lon="4.7981">
        <ele>182</ele>
        <time>2021-09-04T20:23:35Z</time>
      </trkpt>
      <trkpt lat="45.72266" lon="4.7981">
        <ele>181.7</ele>
        <time>2021-09-04T20:23:36Z</time>
      </trkpt>
      <trkpt lat="45.72265" lon="4.7981">
        <ele>181.3</ele>
        <time>2021-09-04T20:23:37Z</time>
      </trkpt>
      <trkpt lat="45.72261" lon="4.79812">
        <ele>180.3</ele>
        <time>2021-09-04T20:23:39Z</time>
      </trkpt>
      <trkpt lat="45.72258" lon="4.79815">
        <ele>179.3</ele>
        <time>2021-09-04T20:23:40Z</time>
      </trkpt>
      <trkpt lat="45.72253" lon="4.7982">
        <ele>177.7</ele>
        <time>2021-09-04T20:23:41Z</time>
      </trkpt>
      <trkpt lat="45.72249" lon="4.79823">
        <ele>176.6</ele>
        <time>2021-09-04T20:23:43Z</time>
      </trkpt>
      <trkpt lat="45.72247" lon="4.79824">
        <ele>176.1</ele>
        <time>2021-09-04T20:23:44Z</time>
      </trkpt>
      <trkpt lat="45.72246" lon="4.79824">
        <ele>175.8</ele>
        <time>2021-09-04T20:23:45Z</time>
      </trkpt>
      <trkpt lat="45.72245" lon="4.79824">
        <ele>175.5</ele>
        <time>2021-09-04T20:23:46Z</time>
      </trkpt>
      <trkpt lat="45.72241" lon="4.79822">
        <ele>174.6</ele>
        <time>2021-09-04T20:23:48Z</time>
      </trkpt>
      <trkpt lat="45.72236" lon="4.7982">
        <ele>173.6</ele>
        <time>2021-09-04T20:23:49Z</time>
      </trkpt>
      <trkpt lat="45.72232" lon="4.79817">
        <ele>173.4</ele>
        <time>2021-09-04T20:23:50Z</time>
      </trkpt>
      <trkpt lat="45.72227" lon="4.79816">
        <ele>173.3</ele>
        <time>2021-09-04T20:23:52Z</time>
      </trkpt>
      <trkpt lat="45.72225" lon="4.79821">
        <ele>173.3</ele>
        <time>2021-09-04T20:23:53Z</time>
      </trkpt>
      <trkpt lat="45.72224" lon="4.79828">
        <ele>173.2</ele>
        <time>2021-09-04T20:23:55Z</time>
      </trkpt>
      <trkpt lat="45.72224" lon="4.79833">
        <ele>173.2</ele>
        <time>2021-09-04T20:23:56Z</time>
      </trkpt>
      <trkpt lat="45.72223" lon="4.79838">
        <ele>173.2</ele>
        <time>2021-09-04T20:23:57Z</time>
      </trkpt>
      <trkpt lat="45.72223" lon="4.7984">
        <ele>173.2</ele>
        <time>2021-09-04T20:23:58Z</time>
      </trkpt>
      <trkpt lat="45.72221" lon="4.79848">
        <ele>173.2</ele>
        <time>2021-09-04T20:24:00Z</time>
      </trkpt>
      <trkpt lat="45.72221" lon="4.79852">
        <ele>173.2</ele>
        <time>2021-09-04T20:24:01Z</time>
      </trkpt>
      <trkpt lat="45.7222" lon="4.79857">
        <ele>173.2</ele>
        <time>2021-09-04T20:24:03Z</time>
      </trkpt>
      <trkpt lat="45.72219" lon="4.79861">
        <ele>173.2</ele>
        <time>2021-09-04T20:24:04Z</time>
      </trkpt>
      <trkpt lat="45.72217" lon="4.79867">
        <ele>173.1</ele>
        <time>2021-09-04T20:24:05Z</time>
      </trkpt>
      <trkpt lat="45.72216" lon="4.79871">
        <ele>173.1</ele>
        <time>2021-09-04T20:24:06Z</time>
      </trkpt>
      <trkpt lat="45.72214" lon="4.79878">
        <ele>173.1</ele>
        <time>2021-09-04T20:24:08Z</time>
      </trkpt>
      <trkpt lat="45.72213" lon="4.79886">
        <ele>173</ele>
        <time>2021-09-04T20:24:10Z</time>
      </trkpt>
      <trkpt lat="45.72212" lon="4.7989">
        <ele>173</ele>
        <time>2021-09-04T20:24:11Z</time>
      </trkpt>
      <trkpt lat="45.72211" lon="4.79894">
        <ele>173</ele>
        <time>2021-09-04T20:24:12Z</time>
      </trkpt>
      <trkpt lat="45.72209" lon="4.79901">
        <ele>173</ele>
        <time>2021-09-04T20:24:14Z</time>
      </trkpt>
      <trkpt lat="45.72208" lon="4.79906">
        <ele>172.9</ele>
        <time>2021-09-04T20:24:15Z</time>
      </trkpt>
      <trkpt lat="45.72207" lon="4.79912">
        <ele>172.9</ele>
        <time>2021-09-04T20:24:17Z</time>
      </trkpt>
      <trkpt lat="45.72206" lon="4.79919">
        <ele>172.8</ele>
        <time>2021-09-04T20:24:18Z</time>
      </trkpt>
      <trkpt lat="45.72204" lon="4.79929">
        <ele>172.8</ele>
        <time>2021-09-04T20:24:20Z</time>
      </trkpt>
      <trkpt lat="45.72203" lon="4.79934">
        <ele>172.8</ele>
        <time>2021-09-04T20:24:21Z</time>
      </trkpt>
      <trkpt lat="45.72199" lon="4.79939">
        <ele>172.7</ele>
        <time>2021-09-04T20:24:23Z</time>
      </trkpt>
      <trkpt lat="45.72194" lon="4.79939">
        <ele>172.6</ele>
        <time>2021-09-04T20:24:24Z</time>
      </trkpt>
      <trkpt lat="45.7219" lon="4.79938">
        <ele>172.6</ele>
        <time>2021-09-04T20:24:25Z</time>
      </trkpt>
      <trkpt lat="45.72183" lon="4.79936">
        <ele>172.5</ele>
        <time>2021-09-04T20:24:27Z</time>
      </trkpt>
      <trkpt lat="45.72178" lon="4.79933">
        <ele>172.4</ele>
        <time>2021-09-04T20:24:28Z</time>
      </trkpt>
      <trkpt lat="45.72173" lon="4.7993">
        <ele>172.4</ele>
        <time>2021-09-04T20:24:30Z</time>
      </trkpt>
      <trkpt lat="45.72166" lon="4.79927">
        <ele>172.3</ele>
        <time>2021-09-04T20:24:31Z</time>
      </trkpt>
      <trkpt lat="45.72158" lon="4.79924">
        <ele>172.3</ele>
        <time>2021-09-04T20:24:33Z</time>
      </trkpt>
      <trkpt lat="45.72152" lon="4.7992">
        <ele>172.2</ele>
        <time>2021-09-04T20:24:35Z</time>
      </trkpt>
      <trkpt lat="45.72147" lon="4.79918">
        <ele>172.1</ele>
        <time>2021-09-04T20:24:36Z</time>
      </trkpt>
      <trkpt lat="45.72142" lon="4.79916">
        <ele>172.1</ele>
        <time>2021-09-04T20:24:37Z</time>
      </trkpt>
      <trkpt lat="45.72134" lon="4.79913">
        <ele>172</ele>
        <time>2021-09-04T20:24:39Z</time>
      </trkpt>
      <trkpt lat="45.72132" lon="4.79908">
        <ele>172</ele>
        <time>2021-09-04T20:24:40Z</time>
      </trkpt>
      <trkpt lat="45.72127" lon="4.79906">
        <ele>172</ele>
        <time>2021-09-04T20:24:41Z</time>
      </trkpt>
      <trkpt lat="45.72121" lon="4.79905">
        <ele>171.9</ele>
        <time>2021-09-04T20:24:42Z</time>
      </trkpt>
      <trkpt lat="45.72116" lon="4.79903">
        <ele>171.9</ele>
        <time>2021-09-04T20:24:43Z</time>
      </trkpt>
      <trkpt lat="45.72109" lon="4.79897">
        <ele>171.8</ele>
        <time>2021-09-04T20:24:45Z</time>
      </trkpt>
      <trkpt lat="45.72104" lon="4.79896">
        <ele>171.8</ele>
        <time>2021-09-04T20:24:46Z</time>
      </trkpt>
      <trkpt lat="45.72096" lon="4.79896">
        <ele>171.7</ele>
        <time>2021-09-04T20:24:48Z</time>
      </trkpt>
      <trkpt lat="45.72088" lon="4.79892">
        <ele>171.7</ele>
        <time>2021-09-04T20:24:50Z</time>
      </trkpt>
      <trkpt lat="45.72083" lon="4.7989">
        <ele>171.7</ele>
        <time>2021-09-04T20:24:51Z</time>
      </trkpt>
      <trkpt lat="45.72075" lon="4.79885">
        <ele>171.7</ele>
        <time>2021-09-04T20:24:53Z</time>
      </trkpt>
      <trkpt lat="45.72071" lon="4.79883">
        <ele>171.7</ele>
        <time>2021-09-04T20:24:54Z</time>
      </trkpt>
      <trkpt lat="45.72063" lon="4.79879">
        <ele>171.7</ele>
        <time>2021-09-04T20:24:56Z</time>
      </trkpt>
      <trkpt lat="45.72056" lon="4.79876">
        <ele>171.7</ele>
        <time>2021-09-04T20:24:58Z</time>
      </trkpt>
      <trkpt lat="45.72052" lon="4.79874">
        <ele>171.8</ele>
        <time>2021-09-04T20:24:59Z</time>
      </trkpt>
      <trkpt lat="45.72047" lon="4.79868">
        <ele>171.9</ele>
        <time>2021-09-04T20:25:01Z</time>
      </trkpt>
      <trkpt lat="45.72045" lon="4.79863">
        <ele>171.9</ele>
        <time>2021-09-04T20:25:02Z</time>
      </trkpt>
      <trkpt lat="45.72044" lon="4.79853">
        <ele>172.1</ele>
        <time>2021-09-04T20:25:04Z</time>
      </trkpt>
      <trkpt lat="45.72042" lon="4.79844">
        <ele>172.2</ele>
        <time>2021-09-04T20:25:05Z</time>
      </trkpt>
      <trkpt lat="45.72041" lon="4.79839">
        <ele>172.3</ele>
        <time>2021-09-04T20:25:06Z</time>
      </trkpt>
      <trkpt lat="45.7204" lon="4.7983">
        <ele>172.5</ele>
        <time>2021-09-04T20:25:08Z</time>
      </trkpt>
      <trkpt lat="45.72039" lon="4.79825">
        <ele>172.7</ele>
        <time>2021-09-04T20:25:09Z</time>
      </trkpt>
      <trkpt lat="45.72038" lon="4.79821">
        <ele>172.8</ele>
        <time>2021-09-04T20:25:10Z</time>
      </trkpt>
      <trkpt lat="45.72036" lon="4.79814">
        <ele>172.9</ele>
        <time>2021-09-04T20:25:12Z</time>
      </trkpt>
      <trkpt lat="45.72034" lon="4.79809">
        <ele>173.1</ele>
        <time>2021-09-04T20:25:13Z</time>
      </trkpt>
      <trkpt lat="45.72031" lon="4.79802">
        <ele>173.2</ele>
        <time>2021-09-04T20:25:15Z</time>
      </trkpt>
      <trkpt lat="45.72028" lon="4.79803">
        <ele>173.3</ele>
        <time>2021-09-04T20:25:17Z</time>
      </trkpt>
      <trkpt lat="45.72026" lon="4.79805">
        <ele>173.4</ele>
        <time>2021-09-04T20:25:18Z</time>
      </trkpt>
      <trkpt lat="45.72022" lon="4.79812">
        <ele>173.4</ele>
        <time>2021-09-04T20:25:20Z</time>
      </trkpt>
      <trkpt lat="45.72017" lon="4.79818">
        <ele>173.4</ele>
        <time>2021-09-04T20:25:22Z</time>
      </trkpt>
      <trkpt lat="45.72016" lon="4.79822">
        <ele>173.3</ele>
        <time>2021-09-04T20:25:23Z</time>
      </trkpt>
      <trkpt lat="45.72017" lon="4.79831">
        <ele>173</ele>
        <time>2021-09-04T20:25:25Z</time>
      </trkpt>
      <trkpt lat="45.7202" lon="4.79835">
        <ele>172.8</ele>
        <time>2021-09-04T20:25:26Z</time>
      </trkpt>
      <trkpt lat="45.72022" lon="4.79839">
        <ele>172.7</ele>
        <time>2021-09-04T20:25:27Z</time>
      </trkpt>
      <trkpt lat="45.72024" lon="4.79845">
        <ele>172.4</ele>
        <time>2021-09-04T20:25:28Z</time>
      </trkpt>
      <trkpt lat="45.72026" lon="4.79851">
        <ele>172.2</ele>
        <time>2021-09-04T20:25:29Z</time>
      </trkpt>
      <trkpt lat="45.72031" lon="4.79866">
        <ele>171.5</ele>
        <time>2021-09-04T20:25:31Z</time>
      </trkpt>
      <trkpt lat="45.72033" lon="4.79873">
        <ele>171.1</ele>
        <time>2021-09-04T20:25:32Z</time>
      </trkpt>
      <trkpt lat="45.72037" lon="4.79891">
        <ele>170.3</ele>
        <time>2021-09-04T20:25:34Z</time>
      </trkpt>
      <trkpt lat="45.7204" lon="4.7991">
        <ele>169.8</ele>
        <time>2021-09-04T20:25:36Z</time>
      </trkpt>
      <trkpt lat="45.72042" lon="4.79929">
        <ele>169.5</ele>
        <time>2021-09-04T20:25:38Z</time>
      </trkpt>
      <trkpt lat="45.72043" lon="4.79939">
        <ele>169.4</ele>
        <time>2021-09-04T20:25:39Z</time>
      </trkpt>
      <trkpt lat="45.72046" lon="4.79956">
        <ele>169.3</ele>
        <time>2021-09-04T20:25:41Z</time>
      </trkpt>
      <trkpt lat="45.72048" lon="4.79971">
        <ele>169.2</ele>
        <time>2021-09-04T20:25:43Z</time>
      </trkpt>
      <trkpt lat="45.72048" lon="4.79979">
        <ele>169.2</ele>
        <time>2021-09-04T20:25:44Z</time>
      </trkpt>
      <trkpt lat="45.72047" lon="4.79995">
        <ele>169.2</ele>
        <time>2021-09-04T20:25:46Z</time>
      </trkpt>
      <trkpt lat="45.72047" lon="4.80002">
        <ele>169.2</ele>
        <time>2021-09-04T20:25:47Z</time>
      </trkpt>
      <trkpt lat="45.72047" lon="4.80012">
        <ele>169.2</ele>
        <time>2021-09-04T20:25:49Z</time>
      </trkpt>
      <trkpt lat="45.72047" lon="4.80028">
        <ele>169.3</ele>
        <time>2021-09-04T20:25:51Z</time>
      </trkpt>
      <trkpt lat="45.72047" lon="4.80034">
        <ele>169.3</ele>
        <time>2021-09-04T20:25:52Z</time>
      </trkpt>
      <trkpt lat="45.72048" lon="4.80041">
        <ele>169.3</ele>
        <time>2021-09-04T20:25:53Z</time>
      </trkpt>
      <trkpt lat="45.72048" lon="4.80055">
        <ele>169.4</ele>
        <time>2021-09-04T20:25:55Z</time>
      </trkpt>
      <trkpt lat="45.72047" lon="4.80062">
        <ele>169.4</ele>
        <time>2021-09-04T20:25:56Z</time>
      </trkpt>
      <trkpt lat="45.72047" lon="4.80073">
        <ele>169.4</ele>
        <time>2021-09-04T20:25:58Z</time>
      </trkpt>
      <trkpt lat="45.72048" lon="4.80081">
        <ele>169.4</ele>
        <time>2021-09-04T20:25:59Z</time>
      </trkpt>
      <trkpt lat="45.72047" lon="4.80095">
        <ele>169.4</ele>
        <time>2021-09-04T20:26:01Z</time>
      </trkpt>
      <trkpt lat="45.72047" lon="4.80108">
        <ele>169.4</ele>
        <time>2021-09-04T20:26:03Z</time>
      </trkpt>
      <trkpt lat="45.72046" lon="4.80113">
        <ele>169.4</ele>
        <time>2021-09-04T20:26:04Z</time>
      </trkpt>
      <trkpt lat="45.72046" lon="4.80124">
        <ele>169.4</ele>
        <time>2021-09-04T20:26:06Z</time>
      </trkpt>
      <trkpt lat="45.72046" lon="4.8013">
        <ele>169.5</ele>
        <time>2021-09-04T20:26:07Z</time>
      </trkpt>
      <trkpt lat="45.72046" lon="4.80138">
        <ele>169.5</ele>
        <time>2021-09-04T20:26:08Z</time>
      </trkpt>
      <trkpt lat="45.72045" lon="4.80145">
        <ele>169.5</ele>
        <time>2021-09-04T20:26:09Z</time>
      </trkpt>
      <trkpt lat="45.72044" lon="4.80161">
        <ele>169.5</ele>
        <time>2021-09-04T20:26:11Z</time>
      </trkpt>
      <trkpt lat="45.72043" lon="4.80171">
        <ele>169.5</ele>
        <time>2021-09-04T20:26:13Z</time>
      </trkpt>
      <trkpt lat="45.72043" lon="4.80181">
        <ele>169.5</ele>
        <time>2021-09-04T20:26:14Z</time>
      </trkpt>
      <trkpt lat="45.72044" lon="4.80195">
        <ele>169.5</ele>
        <time>2021-09-04T20:26:16Z</time>
      </trkpt>
      <trkpt lat="45.72047" lon="4.80209">
        <ele>169.5</ele>
        <time>2021-09-04T20:26:18Z</time>
      </trkpt>
      <trkpt lat="45.72052" lon="4.80222">
        <ele>169.4</ele>
        <time>2021-09-04T20:26:20Z</time>
      </trkpt>
      <trkpt lat="45.72055" lon="4.80227">
        <ele>169.4</ele>
        <time>2021-09-04T20:26:21Z</time>
      </trkpt>
      <trkpt lat="45.72058" lon="4.80233">
        <ele>169.4</ele>
        <time>2021-09-04T20:26:22Z</time>
      </trkpt>
      <trkpt lat="45.72062" lon="4.80237">
        <ele>169.4</ele>
        <time>2021-09-04T20:26:23Z</time>
      </trkpt>
      <trkpt lat="45.72068" lon="4.80246">
        <ele>169.4</ele>
        <time>2021-09-04T20:26:25Z</time>
      </trkpt>
      <trkpt lat="45.72075" lon="4.80254">
        <ele>169.4</ele>
        <time>2021-09-04T20:26:27Z</time>
      </trkpt>
      <trkpt lat="45.7208" lon="4.80256">
        <ele>169.3</ele>
        <time>2021-09-04T20:26:28Z</time>
      </trkpt>
      <trkpt lat="45.72089" lon="4.80261">
        <ele>169.3</ele>
        <time>2021-09-04T20:26:30Z</time>
      </trkpt>
      <trkpt lat="45.72092" lon="4.80263">
        <ele>169.3</ele>
        <time>2021-09-04T20:26:31Z</time>
      </trkpt>
      <trkpt lat="45.72093" lon="4.80261">
        <ele>169.4</ele>
        <time>2021-09-04T20:26:32Z</time>
      </trkpt>
      <trkpt lat="45.72096" lon="4.80269">
        <ele>169.4</ele>
        <time>2021-09-04T20:26:34Z</time>
      </trkpt>
      <trkpt lat="45.721" lon="4.80275">
        <ele>169.4</ele>
        <time>2021-09-04T20:26:35Z</time>
      </trkpt>
      <trkpt lat="45.72104" lon="4.80282">
        <ele>169.4</ele>
        <time>2021-09-04T20:26:36Z</time>
      </trkpt>
      <trkpt lat="45.72106" lon="4.80288">
        <ele>169.4</ele>
        <time>2021-09-04T20:26:37Z</time>
      </trkpt>
      <trkpt lat="45.72111" lon="4.80297">
        <ele>169.4</ele>
        <time>2021-09-04T20:26:39Z</time>
      </trkpt>
      <trkpt lat="45.72113" lon="4.80303">
        <ele>169.4</ele>
        <time>2021-09-04T20:26:40Z</time>
      </trkpt>
      <trkpt lat="45.72115" lon="4.80309">
        <ele>169.4</ele>
        <time>2021-09-04T20:26:41Z</time>
      </trkpt>
      <trkpt lat="45.72117" lon="4.80315">
        <ele>169.4</ele>
        <time>2021-09-04T20:26:42Z</time>
      </trkpt>
      <trkpt lat="45.72118" lon="4.80321">
        <ele>169.4</ele>
        <time>2021-09-04T20:26:43Z</time>
      </trkpt>
      <trkpt lat="45.7212" lon="4.80331">
        <ele>169.5</ele>
        <time>2021-09-04T20:26:45Z</time>
      </trkpt>
      <trkpt lat="45.72121" lon="4.80339">
        <ele>169.5</ele>
        <time>2021-09-04T20:26:46Z</time>
      </trkpt>
      <trkpt lat="45.72123" lon="4.8035">
        <ele>169.5</ele>
        <time>2021-09-04T20:26:48Z</time>
      </trkpt>
      <trkpt lat="45.72123" lon="4.80358">
        <ele>169.5</ele>
        <time>2021-09-04T20:26:50Z</time>
      </trkpt>
      <trkpt lat="45.72123" lon="4.8037">
        <ele>169.5</ele>
        <time>2021-09-04T20:26:51Z</time>
      </trkpt>
      <trkpt lat="45.72123" lon="4.80381">
        <ele>169.5</ele>
        <time>2021-09-04T20:26:53Z</time>
      </trkpt>
      <trkpt lat="45.72123" lon="4.80391">
        <ele>169.5</ele>
        <time>2021-09-04T20:26:55Z</time>
      </trkpt>
      <trkpt lat="45.72123" lon="4.804">
        <ele>169.5</ele>
        <time>2021-09-04T20:26:56Z</time>
      </trkpt>
      <trkpt lat="45.72123" lon="4.8041">
        <ele>169.5</ele>
        <time>2021-09-04T20:26:58Z</time>
      </trkpt>
      <trkpt lat="45.72123" lon="4.80418">
        <ele>169.4</ele>
        <time>2021-09-04T20:26:59Z</time>
      </trkpt>
      <trkpt lat="45.72122" lon="4.80424">
        <ele>169.4</ele>
        <time>2021-09-04T20:27:00Z</time>
      </trkpt>
      <trkpt lat="45.72121" lon="4.80434">
        <ele>169.4</ele>
        <time>2021-09-04T20:27:02Z</time>
      </trkpt>
      <trkpt lat="45.7212" lon="4.80441">
        <ele>169.4</ele>
        <time>2021-09-04T20:27:03Z</time>
      </trkpt>
      <trkpt lat="45.72119" lon="4.80448">
        <ele>169.3</ele>
        <time>2021-09-04T20:27:04Z</time>
      </trkpt>
      <trkpt lat="45.72118" lon="4.80454">
        <ele>169.3</ele>
        <time>2021-09-04T20:27:05Z</time>
      </trkpt>
      <trkpt lat="45.72118" lon="4.8046">
        <ele>169.3</ele>
        <time>2021-09-04T20:27:06Z</time>
      </trkpt>
      <trkpt lat="45.72118" lon="4.80465">
        <ele>169.3</ele>
        <time>2021-09-04T20:27:07Z</time>
      </trkpt>
      <trkpt lat="45.72116" lon="4.80471">
        <ele>169.4</ele>
        <time>2021-09-04T20:27:09Z</time>
      </trkpt>
      <trkpt lat="45.72112" lon="4.80477">
        <ele>169.4</ele>
        <time>2021-09-04T20:27:10Z</time>
      </trkpt>
      <trkpt lat="45.72109" lon="4.80481">
        <ele>169.4</ele>
        <time>2021-09-04T20:27:11Z</time>
      </trkpt>
      <trkpt lat="45.72106" lon="4.80484">
        <ele>169.4</ele>
        <time>2021-09-04T20:27:12Z</time>
      </trkpt>
      <trkpt lat="45.72101" lon="4.80489">
        <ele>169.4</ele>
        <time>2021-09-04T20:27:14Z</time>
      </trkpt>
      <trkpt lat="45.72097" lon="4.80495">
        <ele>169.3</ele>
        <time>2021-09-04T20:27:15Z</time>
      </trkpt>
      <trkpt lat="45.72093" lon="4.80498">
        <ele>169.3</ele>
        <time>2021-09-04T20:27:16Z</time>
      </trkpt>
      <trkpt lat="45.72089" lon="4.80502">
        <ele>169.3</ele>
        <time>2021-09-04T20:27:17Z</time>
      </trkpt>
      <trkpt lat="45.72082" lon="4.80508">
        <ele>169.3</ele>
        <time>2021-09-04T20:27:19Z</time>
      </trkpt>
      <trkpt lat="45.72077" lon="4.80511">
        <ele>169.3</ele>
        <time>2021-09-04T20:27:20Z</time>
      </trkpt>
      <trkpt lat="45.7207" lon="4.80515">
        <ele>169.2</ele>
        <time>2021-09-04T20:27:22Z</time>
      </trkpt>
      <trkpt lat="45.72065" lon="4.80517">
        <ele>169.2</ele>
        <time>2021-09-04T20:27:23Z</time>
      </trkpt>
      <trkpt lat="45.7206" lon="4.80519">
        <ele>169.2</ele>
        <time>2021-09-04T20:27:25Z</time>
      </trkpt>
      <trkpt lat="45.72054" lon="4.80522">
        <ele>169.1</ele>
        <time>2021-09-04T20:27:26Z</time>
      </trkpt>
      <trkpt lat="45.72048" lon="4.80524">
        <ele>169</ele>
        <time>2021-09-04T20:27:27Z</time>
      </trkpt>
      <trkpt lat="45.72044" lon="4.80527">
        <ele>169</ele>
        <time>2021-09-04T20:27:28Z</time>
      </trkpt>
      <trkpt lat="45.72038" lon="4.8053">
        <ele>169</ele>
        <time>2021-09-04T20:27:30Z</time>
      </trkpt>
      <trkpt lat="45.72032" lon="4.80533">
        <ele>169</ele>
        <time>2021-09-04T20:27:31Z</time>
      </trkpt>
      <trkpt lat="45.72023" lon="4.80538">
        <ele>169</ele>
        <time>2021-09-04T20:27:33Z</time>
      </trkpt>
      <trkpt lat="45.72017" lon="4.8054">
        <ele>169</ele>
        <time>2021-09-04T20:27:35Z</time>
      </trkpt>
      <trkpt lat="45.72012" lon="4.80544">
        <ele>168.9</ele>
        <time>2021-09-04T20:27:36Z</time>
      </trkpt>
      <trkpt lat="45.72007" lon="4.8055">
        <ele>168.9</ele>
        <time>2021-09-04T20:27:38Z</time>
      </trkpt>
      <trkpt lat="45.72003" lon="4.80559">
        <ele>168.8</ele>
        <time>2021-09-04T20:27:39Z</time>
      </trkpt>
      <trkpt lat="45.71997" lon="4.80567">
        <ele>168.7</ele>
        <time>2021-09-04T20:27:41Z</time>
      </trkpt>
      <trkpt lat="45.71994" lon="4.80575">
        <ele>168.7</ele>
        <time>2021-09-04T20:27:42Z</time>
      </trkpt>
      <trkpt lat="45.71988" lon="4.80587">
        <ele>168.6</ele>
        <time>2021-09-04T20:27:44Z</time>
      </trkpt>
      <trkpt lat="45.71985" lon="4.80593">
        <ele>168.6</ele>
        <time>2021-09-04T20:27:45Z</time>
      </trkpt>
      <trkpt lat="45.71978" lon="4.80603">
        <ele>168.5</ele>
        <time>2021-09-04T20:27:47Z</time>
      </trkpt>
      <trkpt lat="45.71975" lon="4.80608">
        <ele>168.5</ele>
        <time>2021-09-04T20:27:48Z</time>
      </trkpt>
      <trkpt lat="45.71967" lon="4.80617">
        <ele>168.5</ele>
        <time>2021-09-04T20:27:50Z</time>
      </trkpt>
      <trkpt lat="45.71965" lon="4.8062">
        <ele>168.5</ele>
        <time>2021-09-04T20:27:51Z</time>
      </trkpt>
      <trkpt lat="45.71959" lon="4.80627">
        <ele>168.4</ele>
        <time>2021-09-04T20:27:53Z</time>
      </trkpt>
      <trkpt lat="45.71954" lon="4.80634">
        <ele>168.4</ele>
        <time>2021-09-04T20:27:54Z</time>
      </trkpt>
      <trkpt lat="45.71951" lon="4.80639">
        <ele>168.4</ele>
        <time>2021-09-04T20:27:55Z</time>
      </trkpt>
      <trkpt lat="45.71948" lon="4.80642">
        <ele>168.3</ele>
        <time>2021-09-04T20:27:56Z</time>
      </trkpt>
      <trkpt lat="45.71944" lon="4.80648">
        <ele>168.3</ele>
        <time>2021-09-04T20:27:58Z</time>
      </trkpt>
      <trkpt lat="45.7194" lon="4.80654">
        <ele>168.3</ele>
        <time>2021-09-04T20:27:59Z</time>
      </trkpt>
      <trkpt lat="45.71935" lon="4.80662">
        <ele>168.3</ele>
        <time>2021-09-04T20:28:01Z</time>
      </trkpt>
      <trkpt lat="45.71931" lon="4.80667">
        <ele>168.3</ele>
        <time>2021-09-04T20:28:03Z</time>
      </trkpt>
      <trkpt lat="45.71927" lon="4.80671">
        <ele>168.3</ele>
        <time>2021-09-04T20:28:04Z</time>
      </trkpt>
      <trkpt lat="45.71925" lon="4.80674">
        <ele>168.2</ele>
        <time>2021-09-04T20:28:05Z</time>
      </trkpt>
      <trkpt lat="45.71923" lon="4.80679">
        <ele>168.2</ele>
        <time>2021-09-04T20:28:06Z</time>
      </trkpt>
      <trkpt lat="45.7192" lon="4.80688">
        <ele>168.2</ele>
        <time>2021-09-04T20:28:08Z</time>
      </trkpt>
      <trkpt lat="45.71913" lon="4.80698">
        <ele>168.1</ele>
        <time>2021-09-04T20:28:09Z</time>
      </trkpt>
      <trkpt lat="45.71906" lon="4.80709">
        <ele>168.1</ele>
        <time>2021-09-04T20:28:11Z</time>
      </trkpt>
      <trkpt lat="45.71902" lon="4.80715">
        <ele>168.1</ele>
        <time>2021-09-04T20:28:13Z</time>
      </trkpt>
      <trkpt lat="45.71897" lon="4.80721">
        <ele>168.1</ele>
        <time>2021-09-04T20:28:14Z</time>
      </trkpt>
      <trkpt lat="45.71894" lon="4.80725">
        <ele>168.1</ele>
        <time>2021-09-04T20:28:15Z</time>
      </trkpt>
      <trkpt lat="45.71891" lon="4.80731">
        <ele>168.1</ele>
        <time>2021-09-04T20:28:16Z</time>
      </trkpt>
      <trkpt lat="45.71887" lon="4.80738">
        <ele>168.1</ele>
        <time>2021-09-04T20:28:18Z</time>
      </trkpt>
      <trkpt lat="45.71884" lon="4.80743">
        <ele>168.1</ele>
        <time>2021-09-04T20:28:19Z</time>
      </trkpt>
      <trkpt lat="45.7188" lon="4.80748">
        <ele>168.1</ele>
        <time>2021-09-04T20:28:20Z</time>
      </trkpt>
      <trkpt lat="45.71875" lon="4.80755">
        <ele>168.1</ele>
        <time>2021-09-04T20:28:22Z</time>
      </trkpt>
      <trkpt lat="45.71872" lon="4.80761">
        <ele>168.1</ele>
        <time>2021-09-04T20:28:23Z</time>
      </trkpt>
      <trkpt lat="45.71866" lon="4.80769">
        <ele>168.2</ele>
        <time>2021-09-04T20:28:25Z</time>
      </trkpt>
      <trkpt lat="45.7186" lon="4.80777">
        <ele>168.2</ele>
        <time>2021-09-04T20:28:27Z</time>
      </trkpt>
      <trkpt lat="45.71856" lon="4.80782">
        <ele>168.2</ele>
        <time>2021-09-04T20:28:28Z</time>
      </trkpt>
      <trkpt lat="45.71853" lon="4.80787">
        <ele>168.2</ele>
        <time>2021-09-04T20:28:29Z</time>
      </trkpt>
      <trkpt lat="45.71851" lon="4.8079">
        <ele>168.2</ele>
        <time>2021-09-04T20:28:30Z</time>
      </trkpt>
      <trkpt lat="45.71848" lon="4.80795">
        <ele>168.2</ele>
        <time>2021-09-04T20:28:31Z</time>
      </trkpt>
      <trkpt lat="45.71844" lon="4.80801">
        <ele>168.2</ele>
        <time>2021-09-04T20:28:33Z</time>
      </trkpt>
      <trkpt lat="45.71838" lon="4.80808">
        <ele>168.3</ele>
        <time>2021-09-04T20:28:35Z</time>
      </trkpt>
      <trkpt lat="45.71834" lon="4.80812">
        <ele>168.3</ele>
        <time>2021-09-04T20:28:36Z</time>
      </trkpt>
      <trkpt lat="45.7183" lon="4.80818">
        <ele>168.3</ele>
        <time>2021-09-04T20:28:37Z</time>
      </trkpt>
      <trkpt lat="45.71825" lon="4.80826">
        <ele>168.4</ele>
        <time>2021-09-04T20:28:39Z</time>
      </trkpt>
      <trkpt lat="45.71822" lon="4.8083">
        <ele>168.4</ele>
        <time>2021-09-04T20:28:40Z</time>
      </trkpt>
      <trkpt lat="45.71819" lon="4.80836">
        <ele>168.4</ele>
        <time>2021-09-04T20:28:42Z</time>
      </trkpt>
      <trkpt lat="45.71815" lon="4.80842">
        <ele>168.4</ele>
        <time>2021-09-04T20:28:43Z</time>
      </trkpt>
      <trkpt lat="45.71811" lon="4.80851">
        <ele>168.4</ele>
        <time>2021-09-04T20:28:45Z</time>
      </trkpt>
      <trkpt lat="45.71808" lon="4.80858">
        <ele>168.5</ele>
        <time>2021-09-04T20:28:46Z</time>
      </trkpt>
      <trkpt lat="45.71804" lon="4.80867">
        <ele>168.2</ele>
        <time>2021-09-04T20:28:48Z</time>
      </trkpt>
      <trkpt lat="45.71801" lon="4.80874">
        <ele>167.9</ele>
        <time>2021-09-04T20:28:50Z</time>
      </trkpt>
      <trkpt lat="45.71797" lon="4.8088">
        <ele>167.7</ele>
        <time>2021-09-04T20:28:51Z</time>
      </trkpt>
      <trkpt lat="45.71792" lon="4.80888">
        <ele>167.7</ele>
        <time>2021-09-04T20:28:53Z</time>
      </trkpt>
      <trkpt lat="45.71789" lon="4.80894">
        <ele>167.6</ele>
        <time>2021-09-04T20:28:54Z</time>
      </trkpt>
      <trkpt lat="45.71786" lon="4.80898">
        <ele>167.6</ele>
        <time>2021-09-04T20:28:55Z</time>
      </trkpt>
      <trkpt lat="45.71783" lon="4.80903">
        <ele>167.5</ele>
        <time>2021-09-04T20:28:56Z</time>
      </trkpt>
      <trkpt lat="45.71778" lon="4.8091">
        <ele>167.5</ele>
        <time>2021-09-04T20:28:58Z</time>
      </trkpt>
      <trkpt lat="45.71774" lon="4.80915">
        <ele>167.4</ele>
        <time>2021-09-04T20:28:59Z</time>
      </trkpt>
      <trkpt lat="45.71772" lon="4.80919">
        <ele>167.4</ele>
        <time>2021-09-04T20:29:00Z</time>
      </trkpt>
      <trkpt lat="45.7177" lon="4.80925">
        <ele>167.4</ele>
        <time>2021-09-04T20:29:02Z</time>
      </trkpt>
      <trkpt lat="45.71768" lon="4.80931">
        <ele>167.3</ele>
        <time>2021-09-04T20:29:03Z</time>
      </trkpt>
      <trkpt lat="45.71767" lon="4.80938">
        <ele>167.3</ele>
        <time>2021-09-04T20:29:05Z</time>
      </trkpt>
      <trkpt lat="45.71767" lon="4.80942">
        <ele>167.2</ele>
        <time>2021-09-04T20:29:06Z</time>
      </trkpt>
      <trkpt lat="45.71767" lon="4.80949">
        <ele>167.1</ele>
        <time>2021-09-04T20:29:08Z</time>
      </trkpt>
      <trkpt lat="45.71767" lon="4.80954">
        <ele>167.1</ele>
        <time>2021-09-04T20:29:09Z</time>
      </trkpt>
      <trkpt lat="45.71768" lon="4.80959">
        <ele>167</ele>
        <time>2021-09-04T20:29:10Z</time>
      </trkpt>
      <trkpt lat="45.71768" lon="4.80967">
        <ele>167</ele>
        <time>2021-09-04T20:29:12Z</time>
      </trkpt>
      <trkpt lat="45.71767" lon="4.80976">
        <ele>166.9</ele>
        <time>2021-09-04T20:29:14Z</time>
      </trkpt>
      <trkpt lat="45.71767" lon="4.8098">
        <ele>166.9</ele>
        <time>2021-09-04T20:29:15Z</time>
      </trkpt>
      <trkpt lat="45.71767" lon="4.80986">
        <ele>166.9</ele>
        <time>2021-09-04T20:29:16Z</time>
      </trkpt>
      <trkpt lat="45.71767" lon="4.80988">
        <ele>166.9</ele>
        <time>2021-09-04T20:29:17Z</time>
      </trkpt>
      <trkpt lat="45.71768" lon="4.80991">
        <ele>166.9</ele>
        <time>2021-09-04T20:29:18Z</time>
      </trkpt>
      <trkpt lat="45.71767" lon="4.80999">
        <ele>166.9</ele>
        <time>2021-09-04T20:29:20Z</time>
      </trkpt>
      <trkpt lat="45.71763" lon="4.81021">
        <ele>166.7</ele>
        <time>2021-09-04T20:29:22Z</time>
      </trkpt>
      <trkpt lat="45.7176" lon="4.81031">
        <ele>166.6</ele>
        <time>2021-09-04T20:29:24Z</time>
      </trkpt>
      <trkpt lat="45.71758" lon="4.81037">
        <ele>166.6</ele>
        <time>2021-09-04T20:29:25Z</time>
      </trkpt>
      <trkpt lat="45.71755" lon="4.81047">
        <ele>166.6</ele>
        <time>2021-09-04T20:29:27Z</time>
      </trkpt>
      <trkpt lat="45.71756" lon="4.81053">
        <ele>166.5</ele>
        <time>2021-09-04T20:29:28Z</time>
      </trkpt>
      <trkpt lat="45.71758" lon="4.81061">
        <ele>166.5</ele>
        <time>2021-09-04T20:29:30Z</time>
      </trkpt>
      <trkpt lat="45.7176" lon="4.81071">
        <ele>166.5</ele>
        <time>2021-09-04T20:29:31Z</time>
      </trkpt>
      <trkpt lat="45.7176" lon="4.81077">
        <ele>166.5</ele>
        <time>2021-09-04T20:29:32Z</time>
      </trkpt>
      <trkpt lat="45.71759" lon="4.81089">
        <ele>166.5</ele>
        <time>2021-09-04T20:29:34Z</time>
      </trkpt>
      <trkpt lat="45.71761" lon="4.81096">
        <ele>166.5</ele>
        <time>2021-09-04T20:29:36Z</time>
      </trkpt>
      <trkpt lat="45.71763" lon="4.81101">
        <ele>166.5</ele>
        <time>2021-09-04T20:29:37Z</time>
      </trkpt>
      <trkpt lat="45.71764" lon="4.81107">
        <ele>166.5</ele>
        <time>2021-09-04T20:29:38Z</time>
      </trkpt>
      <trkpt lat="45.71765" lon="4.81117">
        <ele>166.5</ele>
        <time>2021-09-04T20:29:40Z</time>
      </trkpt>
      <trkpt lat="45.71767" lon="4.81122">
        <ele>166.5</ele>
        <time>2021-09-04T20:29:41Z</time>
      </trkpt>
      <trkpt lat="45.71768" lon="4.81132">
        <ele>166.5</ele>
        <time>2021-09-04T20:29:43Z</time>
      </trkpt>
      <trkpt lat="45.71769" lon="4.81138">
        <ele>166.5</ele>
        <time>2021-09-04T20:29:44Z</time>
      </trkpt>
      <trkpt lat="45.7177" lon="4.81143">
        <ele>166.5</ele>
        <time>2021-09-04T20:29:45Z</time>
      </trkpt>
      <trkpt lat="45.71771" lon="4.8115">
        <ele>166.5</ele>
        <time>2021-09-04T20:29:47Z</time>
      </trkpt>
      <trkpt lat="45.7177" lon="4.81155">
        <ele>166.5</ele>
        <time>2021-09-04T20:29:48Z</time>
      </trkpt>
      <trkpt lat="45.7177" lon="4.8116">
        <ele>166.6</ele>
        <time>2021-09-04T20:29:49Z</time>
      </trkpt>
      <trkpt lat="45.71771" lon="4.81168">
        <ele>166.6</ele>
        <time>2021-09-04T20:29:51Z</time>
      </trkpt>
      <trkpt lat="45.71772" lon="4.81173">
        <ele>166.6</ele>
        <time>2021-09-04T20:29:52Z</time>
      </trkpt>
      <trkpt lat="45.71772" lon="4.81178">
        <ele>166.6</ele>
        <time>2021-09-04T20:29:53Z</time>
      </trkpt>
      <trkpt lat="45.71773" lon="4.81183">
        <ele>166.7</ele>
        <time>2021-09-04T20:29:54Z</time>
      </trkpt>
      <trkpt lat="45.71774" lon="4.81185">
        <ele>166.7</ele>
        <time>2021-09-04T20:29:55Z</time>
      </trkpt>
      <trkpt lat="45.71774" lon="4.81189">
        <ele>166.7</ele>
        <time>2021-09-04T20:29:56Z</time>
      </trkpt>
      <trkpt lat="45.71775" lon="4.81191">
        <ele>166.7</ele>
        <time>2021-09-04T20:29:57Z</time>
      </trkpt>
      <trkpt lat="45.71775" lon="4.81196">
        <ele>166.8</ele>
        <time>2021-09-04T20:29:59Z</time>
      </trkpt>
      <trkpt lat="45.71775" lon="4.812">
        <ele>166.9</ele>
        <time>2021-09-04T20:30:00Z</time>
      </trkpt>
      <trkpt lat="45.71775" lon="4.81202">
        <ele>167</ele>
        <time>2021-09-04T20:30:01Z</time>
      </trkpt>
      <trkpt lat="45.71775" lon="4.81206">
        <ele>167</ele>
        <time>2021-09-04T20:30:03Z</time>
      </trkpt>
      <trkpt lat="45.71776" lon="4.81208">
        <ele>167</ele>
        <time>2021-09-04T20:30:04Z</time>
      </trkpt>
      <trkpt lat="45.71775" lon="4.81212">
        <ele>167.1</ele>
        <time>2021-09-04T20:30:05Z</time>
      </trkpt>
      <trkpt lat="45.71774" lon="4.81215">
        <ele>167.1</ele>
        <time>2021-09-04T20:30:06Z</time>
      </trkpt>
      <trkpt lat="45.71776" lon="4.81219">
        <ele>167.1</ele>
        <time>2021-09-04T20:30:08Z</time>
      </trkpt>
      <trkpt lat="45.71779" lon="4.81222">
        <ele>167.1</ele>
        <time>2021-09-04T20:30:09Z</time>
      </trkpt>
      <trkpt lat="45.71782" lon="4.81219">
        <ele>167.1</ele>
        <time>2021-09-04T20:30:10Z</time>
      </trkpt>
      <trkpt lat="45.71783" lon="4.81209">
        <ele>167.1</ele>
        <time>2021-09-04T20:30:12Z</time>
      </trkpt>
      <trkpt lat="45.71783" lon="4.81205">
        <ele>167.1</ele>
        <time>2021-09-04T20:30:13Z</time>
      </trkpt>
      <trkpt lat="45.71782" lon="4.81202">
        <ele>167.1</ele>
        <time>2021-09-04T20:30:14Z</time>
      </trkpt>
      <trkpt lat="45.71783" lon="4.81197">
        <ele>167.1</ele>
        <time>2021-09-04T20:30:16Z</time>
      </trkpt>
      <trkpt lat="45.71786" lon="4.81195">
        <ele>167.1</ele>
        <time>2021-09-04T20:30:18Z</time>
      </trkpt>
      <trkpt lat="45.71789" lon="4.81196">
        <ele>167.1</ele>
        <time>2021-09-04T20:30:19Z</time>
      </trkpt>
      <trkpt lat="45.7179" lon="4.81197">
        <ele>167.1</ele>
        <time>2021-09-04T20:30:20Z</time>
      </trkpt>
      <trkpt lat="45.71792" lon="4.81198">
        <ele>167</ele>
        <time>2021-09-04T20:30:22Z</time>
      </trkpt>
      <trkpt lat="45.71796" lon="4.81197">
        <ele>167</ele>
        <time>2021-09-04T20:30:23Z</time>
      </trkpt>
      <trkpt lat="45.71796" lon="4.81196">
        <ele>167</ele>
        <time>2021-09-04T20:30:24Z</time>
      </trkpt>
      <trkpt lat="45.71796" lon="4.81194">
        <ele>167</ele>
        <time>2021-09-04T20:30:25Z</time>
      </trkpt>
      <trkpt lat="45.71794" lon="4.81188">
        <ele>167</ele>
        <time>2021-09-04T20:30:27Z</time>
      </trkpt>
      <trkpt lat="45.71794" lon="4.81185">
        <ele>167</ele>
        <time>2021-09-04T20:30:29Z</time>
      </trkpt>
      <trkpt lat="45.71797" lon="4.81183">
        <ele>167.1</ele>
        <time>2021-09-04T20:30:31Z</time>
      </trkpt>
      <trkpt lat="45.71799" lon="4.81189">
        <ele>167.2</ele>
        <time>2021-09-04T20:30:33Z</time>
      </trkpt>
      <trkpt lat="45.71799" lon="4.81192">
        <ele>167.3</ele>
        <time>2021-09-04T20:30:34Z</time>
      </trkpt>
      <trkpt lat="45.71802" lon="4.81195">
        <ele>167.3</ele>
        <time>2021-09-04T20:30:36Z</time>
      </trkpt>
      <trkpt lat="45.71804" lon="4.81195">
        <ele>167.4</ele>
        <time>2021-09-04T20:30:37Z</time>
      </trkpt>
      <trkpt lat="45.71807" lon="4.81195">
        <ele>167.5</ele>
        <time>2021-09-04T20:30:39Z</time>
      </trkpt>
      <trkpt lat="45.71811" lon="4.81194">
        <ele>167.6</ele>
        <time>2021-09-04T20:30:41Z</time>
      </trkpt>
      <trkpt lat="45.71813" lon="4.81194">
        <ele>167.7</ele>
        <time>2021-09-04T20:30:42Z</time>
      </trkpt>
      <trkpt lat="45.71814" lon="4.81195">
        <ele>167.7</ele>
        <time>2021-09-04T20:30:43Z</time>
      </trkpt>
      <trkpt lat="45.71818" lon="4.81195">
        <ele>167.8</ele>
        <time>2021-09-04T20:30:45Z</time>
      </trkpt>
      <trkpt lat="45.71819" lon="4.81196">
        <ele>167.9</ele>
        <time>2021-09-04T20:30:46Z</time>
      </trkpt>
      <trkpt lat="45.71823" lon="4.81195">
        <ele>168</ele>
        <time>2021-09-04T20:30:48Z</time>
      </trkpt>
      <trkpt lat="45.71824" lon="4.81199">
        <ele>167.9</ele>
        <time>2021-09-04T20:30:50Z</time>
      </trkpt>
      <trkpt lat="45.71825" lon="4.812">
        <ele>167.9</ele>
        <time>2021-09-04T20:30:51Z</time>
      </trkpt>
      <trkpt lat="45.71826" lon="4.81204">
        <ele>167.9</ele>
        <time>2021-09-04T20:30:52Z</time>
      </trkpt>
      <trkpt lat="45.71826" lon="4.81206">
        <ele>167.9</ele>
        <time>2021-09-04T20:30:53Z</time>
      </trkpt>
      <trkpt lat="45.71827" lon="4.81208">
        <ele>167.9</ele>
        <time>2021-09-04T20:30:54Z</time>
      </trkpt>
      <trkpt lat="45.71828" lon="4.81213">
        <ele>167.8</ele>
        <time>2021-09-04T20:30:56Z</time>
      </trkpt>
      <trkpt lat="45.71828" lon="4.81216">
        <ele>167.8</ele>
        <time>2021-09-04T20:30:57Z</time>
      </trkpt>
      <trkpt lat="45.71829" lon="4.81223">
        <ele>167.8</ele>
        <time>2021-09-04T20:30:59Z</time>
      </trkpt>
      <trkpt lat="45.71829" lon="4.81228">
        <ele>167.7</ele>
        <time>2021-09-04T20:31:00Z</time>
      </trkpt>
      <trkpt lat="45.71829" lon="4.8123">
        <ele>167.7</ele>
        <time>2021-09-04T20:31:01Z</time>
      </trkpt>
      <trkpt lat="45.7183" lon="4.81235">
        <ele>167.7</ele>
        <time>2021-09-04T20:31:02Z</time>
      </trkpt>
      <trkpt lat="45.7183" lon="4.81237">
        <ele>167.7</ele>
        <time>2021-09-04T20:31:03Z</time>
      </trkpt>
      <trkpt lat="45.71831" lon="4.81244">
        <ele>167.7</ele>
        <time>2021-09-04T20:31:05Z</time>
      </trkpt>
      <trkpt lat="45.71831" lon="4.81247">
        <ele>167.7</ele>
        <time>2021-09-04T20:31:06Z</time>
      </trkpt>
      <trkpt lat="45.71831" lon="4.81249">
        <ele>167.7</ele>
        <time>2021-09-04T20:31:07Z</time>
      </trkpt>
      <trkpt lat="45.71831" lon="4.81252">
        <ele>167.8</ele>
        <time>2021-09-04T20:31:08Z</time>
      </trkpt>
      <trkpt lat="45.71832" lon="4.81257">
        <ele>167.8</ele>
        <time>2021-09-04T20:31:10Z</time>
      </trkpt>
      <trkpt lat="45.71833" lon="4.8126">
        <ele>167.8</ele>
        <time>2021-09-04T20:31:11Z</time>
      </trkpt>
      <trkpt lat="45.71835" lon="4.81267">
        <ele>167.9</ele>
        <time>2021-09-04T20:31:13Z</time>
      </trkpt>
      <trkpt lat="45.71837" lon="4.81274">
        <ele>167.9</ele>
        <time>2021-09-04T20:31:15Z</time>
      </trkpt>
      <trkpt lat="45.71839" lon="4.81278">
        <ele>168</ele>
        <time>2021-09-04T20:31:16Z</time>
      </trkpt>
      <trkpt lat="45.71844" lon="4.81283">
        <ele>168.1</ele>
        <time>2021-09-04T20:31:18Z</time>
      </trkpt>
      <trkpt lat="45.71849" lon="4.81285">
        <ele>168.1</ele>
        <time>2021-09-04T20:31:20Z</time>
      </trkpt>
      <trkpt lat="45.71856" lon="4.81287">
        <ele>168</ele>
        <time>2021-09-04T20:31:21Z</time>
      </trkpt>
      <trkpt lat="45.71864" lon="4.81288">
        <ele>167.9</ele>
        <time>2021-09-04T20:31:23Z</time>
      </trkpt>
      <trkpt lat="45.71868" lon="4.81287">
        <ele>167.9</ele>
        <time>2021-09-04T20:31:24Z</time>
      </trkpt>
      <trkpt lat="45.71872" lon="4.81287">
        <ele>167.9</ele>
        <time>2021-09-04T20:31:25Z</time>
      </trkpt>
      <trkpt lat="45.71877" lon="4.81287">
        <ele>167.9</ele>
        <time>2021-09-04T20:31:27Z</time>
      </trkpt>
      <trkpt lat="45.71884" lon="4.81287">
        <ele>167.9</ele>
        <time>2021-09-04T20:31:28Z</time>
      </trkpt>
      <trkpt lat="45.7189" lon="4.81287">
        <ele>167.8</ele>
        <time>2021-09-04T20:31:30Z</time>
      </trkpt>
      <trkpt lat="45.71895" lon="4.81287">
        <ele>167.8</ele>
        <time>2021-09-04T20:31:31Z</time>
      </trkpt>
      <trkpt lat="45.71902" lon="4.81288">
        <ele>167.8</ele>
        <time>2021-09-04T20:31:33Z</time>
      </trkpt>
      <trkpt lat="45.71909" lon="4.81289">
        <ele>167.8</ele>
        <time>2021-09-04T20:31:35Z</time>
      </trkpt>
      <trkpt lat="45.71915" lon="4.8129">
        <ele>167.8</ele>
        <time>2021-09-04T20:31:37Z</time>
      </trkpt>
      <trkpt lat="45.7192" lon="4.81291">
        <ele>167.8</ele>
        <time>2021-09-04T20:31:38Z</time>
      </trkpt>
      <trkpt lat="45.71925" lon="4.81292">
        <ele>167.8</ele>
        <time>2021-09-04T20:31:40Z</time>
      </trkpt>
      <trkpt lat="45.71931" lon="4.81294">
        <ele>167.7</ele>
        <time>2021-09-04T20:31:41Z</time>
      </trkpt>
      <trkpt lat="45.71938" lon="4.81295">
        <ele>167.7</ele>
        <time>2021-09-04T20:31:43Z</time>
      </trkpt>
      <trkpt lat="45.71942" lon="4.81296">
        <ele>167.7</ele>
        <time>2021-09-04T20:31:44Z</time>
      </trkpt>
      <trkpt lat="45.71945" lon="4.81296">
        <ele>167.7</ele>
        <time>2021-09-04T20:31:45Z</time>
      </trkpt>
      <trkpt lat="45.7195" lon="4.81297">
        <ele>167.7</ele>
        <time>2021-09-04T20:31:47Z</time>
      </trkpt>
      <trkpt lat="45.71957" lon="4.81298">
        <ele>167.7</ele>
        <time>2021-09-04T20:31:48Z</time>
      </trkpt>
      <trkpt lat="45.71964" lon="4.81299">
        <ele>167.7</ele>
        <time>2021-09-04T20:31:50Z</time>
      </trkpt>
      <trkpt lat="45.71969" lon="4.813">
        <ele>167.7</ele>
        <time>2021-09-04T20:31:51Z</time>
      </trkpt>
      <trkpt lat="45.71976" lon="4.81301">
        <ele>167.7</ele>
        <time>2021-09-04T20:31:53Z</time>
      </trkpt>
      <trkpt lat="45.7198" lon="4.81302">
        <ele>167.7</ele>
        <time>2021-09-04T20:31:54Z</time>
      </trkpt>
      <trkpt lat="45.71984" lon="4.813">
        <ele>167.7</ele>
        <time>2021-09-04T20:31:55Z</time>
      </trkpt>
      <trkpt lat="45.71992" lon="4.81298">
        <ele>167.7</ele>
        <time>2021-09-04T20:31:57Z</time>
      </trkpt>
      <trkpt lat="45.72" lon="4.81298">
        <ele>167.7</ele>
        <time>2021-09-04T20:31:59Z</time>
      </trkpt>
      <trkpt lat="45.72003" lon="4.81298">
        <ele>167.6</ele>
        <time>2021-09-04T20:32:00Z</time>
      </trkpt>
      <trkpt lat="45.72007" lon="4.81297">
        <ele>167.6</ele>
        <time>2021-09-04T20:32:01Z</time>
      </trkpt>
      <trkpt lat="45.72013" lon="4.81299">
        <ele>167.6</ele>
        <time>2021-09-04T20:32:03Z</time>
      </trkpt>
      <trkpt lat="45.7202" lon="4.81303">
        <ele>167.6</ele>
        <time>2021-09-04T20:32:05Z</time>
      </trkpt>
      <trkpt lat="45.72025" lon="4.81304">
        <ele>167.5</ele>
        <time>2021-09-04T20:32:07Z</time>
      </trkpt>
      <trkpt lat="45.7203" lon="4.81305">
        <ele>167.5</ele>
        <time>2021-09-04T20:32:08Z</time>
      </trkpt>
      <trkpt lat="45.72034" lon="4.81307">
        <ele>167.5</ele>
        <time>2021-09-04T20:32:09Z</time>
      </trkpt>
      <trkpt lat="45.72036" lon="4.81309">
        <ele>167.5</ele>
        <time>2021-09-04T20:32:10Z</time>
      </trkpt>
      <trkpt lat="45.72039" lon="4.8131">
        <ele>167.4</ele>
        <time>2021-09-04T20:32:11Z</time>
      </trkpt>
      <trkpt lat="45.72041" lon="4.8131">
        <ele>167.4</ele>
        <time>2021-09-04T20:32:13Z</time>
      </trkpt>
      <trkpt lat="45.72042" lon="4.8131">
        <ele>167.4</ele>
        <time>2021-09-04T20:32:14Z</time>
      </trkpt>
      <trkpt lat="45.72043" lon="4.81309">
        <ele>167.4</ele>
        <time>2021-09-04T20:32:15Z</time>
      </trkpt>
      <trkpt lat="45.72044" lon="4.81307">
        <ele>167.4</ele>
        <time>2021-09-04T20:32:17Z</time>
      </trkpt>
      <trkpt lat="45.72044" lon="4.81307">
        <ele>167.4</ele>
        <time>2021-09-04T20:32:19Z</time>
      </trkpt>
      <trkpt lat="45.72045" lon="4.81307">
        <ele>167.4</ele>
        <time>2021-09-04T20:32:21Z</time>
      </trkpt>
      <trkpt lat="45.72045" lon="4.81307">
        <ele>167.4</ele>
        <time>2021-09-04T20:32:22Z</time>
      </trkpt>
      <trkpt lat="45.72045" lon="4.81307">
        <ele>167.4</ele>
        <time>2021-09-04T20:32:23Z</time>
      </trkpt>
      <trkpt lat="45.72045" lon="4.81307">
        <ele>167.4</ele>
        <time>2021-09-04T20:32:24Z</time>
      </trkpt>
      <trkpt lat="45.72045" lon="4.81307">
        <ele>167.4</ele>
        <time>2021-09-04T20:32:25Z</time>
      </trkpt>
      <trkpt lat="45.72045" lon="4.81307">
        <ele>167.4</ele>
        <time>2021-09-04T20:32:27Z</time>
      </trkpt>
      <trkpt lat="45.72045" lon="4.81306">
        <ele>167.4</ele>
        <time>2021-09-04T20:32:29Z</time>
      </trkpt>
      <trkpt lat="45.72049" lon="4.81307">
        <ele>167.3</ele>
        <time>2021-09-04T20:34:58Z</time>
      </trkpt>
      <trkpt lat="45.72051" lon="4.81308">
        <ele>167.3</ele>
        <time>2021-09-04T20:34:59Z</time>
      </trkpt>
      <trkpt lat="45.72052" lon="4.81308">
        <ele>167.3</ele>
        <time>2021-09-04T20:35:00Z</time>
      </trkpt>
      <trkpt lat="45.72053" lon="4.81309">
        <ele>167.3</ele>
        <time>2021-09-04T20:35:01Z</time>
      </trkpt>
      <trkpt lat="45.72056" lon="4.81309">
        <ele>167.3</ele>
        <time>2021-09-04T20:35:03Z</time>
      </trkpt>
      <trkpt lat="45.72058" lon="4.81313">
        <ele>167.3</ele>
        <time>2021-09-04T20:35:04Z</time>
      </trkpt>
      <trkpt lat="45.7206" lon="4.81315">
        <ele>167.2</ele>
        <time>2021-09-04T20:35:05Z</time>
      </trkpt>
      <trkpt lat="45.72064" lon="4.81316">
        <ele>167.2</ele>
        <time>2021-09-04T20:35:07Z</time>
      </trkpt>
      <trkpt lat="45.72068" lon="4.81315">
        <ele>167.2</ele>
        <time>2021-09-04T20:35:08Z</time>
      </trkpt>
      <trkpt lat="45.72069" lon="4.81315">
        <ele>167.2</ele>
        <time>2021-09-04T20:35:09Z</time>
      </trkpt>
      <trkpt lat="45.72076" lon="4.81317">
        <ele>167.1</ele>
        <time>2021-09-04T20:35:11Z</time>
      </trkpt>
      <trkpt lat="45.72084" lon="4.81319">
        <ele>167.1</ele>
        <time>2021-09-04T20:35:13Z</time>
      </trkpt>
      <trkpt lat="45.72088" lon="4.8132">
        <ele>167</ele>
        <time>2021-09-04T20:35:14Z</time>
      </trkpt>
      <trkpt lat="45.72092" lon="4.81321">
        <ele>167</ele>
        <time>2021-09-04T20:35:15Z</time>
      </trkpt>
      <trkpt lat="45.72096" lon="4.81323">
        <ele>167</ele>
        <time>2021-09-04T20:35:16Z</time>
      </trkpt>
      <trkpt lat="45.72104" lon="4.81325">
        <ele>167</ele>
        <time>2021-09-04T20:35:18Z</time>
      </trkpt>
      <trkpt lat="45.72109" lon="4.81326">
        <ele>167</ele>
        <time>2021-09-04T20:35:19Z</time>
      </trkpt>
      <trkpt lat="45.72114" lon="4.81327">
        <ele>167</ele>
        <time>2021-09-04T20:35:20Z</time>
      </trkpt>
      <trkpt lat="45.72121" lon="4.81327">
        <ele>167</ele>
        <time>2021-09-04T20:35:22Z</time>
      </trkpt>
      <trkpt lat="45.72127" lon="4.81326">
        <ele>167</ele>
        <time>2021-09-04T20:35:23Z</time>
      </trkpt>
      <trkpt lat="45.72132" lon="4.81326">
        <ele>167</ele>
        <time>2021-09-04T20:35:24Z</time>
      </trkpt>
      <trkpt lat="45.72136" lon="4.81325">
        <ele>167</ele>
        <time>2021-09-04T20:35:25Z</time>
      </trkpt>
      <trkpt lat="45.72143" lon="4.81323">
        <ele>167.1</ele>
        <time>2021-09-04T20:35:27Z</time>
      </trkpt>
      <trkpt lat="45.7215" lon="4.81319">
        <ele>167.1</ele>
        <time>2021-09-04T20:35:29Z</time>
      </trkpt>
      <trkpt lat="45.72153" lon="4.81314">
        <ele>167.1</ele>
        <time>2021-09-04T20:35:30Z</time>
      </trkpt>
      <trkpt lat="45.72157" lon="4.81308">
        <ele>167.1</ele>
        <time>2021-09-04T20:35:32Z</time>
      </trkpt>
      <trkpt lat="45.7216" lon="4.81299">
        <ele>167.1</ele>
        <time>2021-09-04T20:35:33Z</time>
      </trkpt>
      <trkpt lat="45.72162" lon="4.81294">
        <ele>167.1</ele>
        <time>2021-09-04T20:35:34Z</time>
      </trkpt>
      <trkpt lat="45.72164" lon="4.81288">
        <ele>167</ele>
        <time>2021-09-04T20:35:35Z</time>
      </trkpt>
      <trkpt lat="45.72168" lon="4.8128">
        <ele>167</ele>
        <time>2021-09-04T20:35:37Z</time>
      </trkpt>
      <trkpt lat="45.72172" lon="4.81275">
        <ele>167</ele>
        <time>2021-09-04T20:35:38Z</time>
      </trkpt>
      <trkpt lat="45.72179" lon="4.81272">
        <ele>167</ele>
        <time>2021-09-04T20:35:40Z</time>
      </trkpt>
      <trkpt lat="45.72184" lon="4.81273">
        <ele>167</ele>
        <time>2021-09-04T20:35:41Z</time>
      </trkpt>
      <trkpt lat="45.72192" lon="4.81276">
        <ele>167</ele>
        <time>2021-09-04T20:35:43Z</time>
      </trkpt>
      <trkpt lat="45.72199" lon="4.81278">
        <ele>167</ele>
        <time>2021-09-04T20:35:45Z</time>
      </trkpt>
      <trkpt lat="45.72206" lon="4.81282">
        <ele>167</ele>
        <time>2021-09-04T20:35:46Z</time>
      </trkpt>
      <trkpt lat="45.72214" lon="4.81286">
        <ele>167</ele>
        <time>2021-09-04T20:35:48Z</time>
      </trkpt>
      <trkpt lat="45.72223" lon="4.81289">
        <ele>167</ele>
        <time>2021-09-04T20:35:50Z</time>
      </trkpt>
      <trkpt lat="45.72228" lon="4.81291">
        <ele>167</ele>
        <time>2021-09-04T20:35:51Z</time>
      </trkpt>
      <trkpt lat="45.72231" lon="4.81293">
        <ele>167</ele>
        <time>2021-09-04T20:35:52Z</time>
      </trkpt>
      <trkpt lat="45.72237" lon="4.81297">
        <ele>167.1</ele>
        <time>2021-09-04T20:35:54Z</time>
      </trkpt>
      <trkpt lat="45.72241" lon="4.81304">
        <ele>167.1</ele>
        <time>2021-09-04T20:35:55Z</time>
      </trkpt>
      <trkpt lat="45.72243" lon="4.81309">
        <ele>167.1</ele>
        <time>2021-09-04T20:35:56Z</time>
      </trkpt>
      <trkpt lat="45.72245" lon="4.8132">
        <ele>167.1</ele>
        <time>2021-09-04T20:35:58Z</time>
      </trkpt>
      <trkpt lat="45.72245" lon="4.81326">
        <ele>167.1</ele>
        <time>2021-09-04T20:35:59Z</time>
      </trkpt>
      <trkpt lat="45.72249" lon="4.81337">
        <ele>167.2</ele>
        <time>2021-09-04T20:36:01Z</time>
      </trkpt>
      <trkpt lat="45.72255" lon="4.81345">
        <ele>167.2</ele>
        <time>2021-09-04T20:36:03Z</time>
      </trkpt>
      <trkpt lat="45.72259" lon="4.81349">
        <ele>167.2</ele>
        <time>2021-09-04T20:36:04Z</time>
      </trkpt>
      <trkpt lat="45.72264" lon="4.81351">
        <ele>167.2</ele>
        <time>2021-09-04T20:36:05Z</time>
      </trkpt>
      <trkpt lat="45.72268" lon="4.81353">
        <ele>167.2</ele>
        <time>2021-09-04T20:36:06Z</time>
      </trkpt>
      <trkpt lat="45.72277" lon="4.81357">
        <ele>167.1</ele>
        <time>2021-09-04T20:36:08Z</time>
      </trkpt>
      <trkpt lat="45.72281" lon="4.81361">
        <ele>167.1</ele>
        <time>2021-09-04T20:36:09Z</time>
      </trkpt>
      <trkpt lat="45.72285" lon="4.81366">
        <ele>167.1</ele>
        <time>2021-09-04T20:36:11Z</time>
      </trkpt>
      <trkpt lat="45.72291" lon="4.81371">
        <ele>167.1</ele>
        <time>2021-09-04T20:36:12Z</time>
      </trkpt>
      <trkpt lat="45.723" lon="4.8138">
        <ele>167.1</ele>
        <time>2021-09-04T20:36:14Z</time>
      </trkpt>
      <trkpt lat="45.72307" lon="4.81386">
        <ele>167.1</ele>
        <time>2021-09-04T20:36:16Z</time>
      </trkpt>
      <trkpt lat="45.72316" lon="4.81392">
        <ele>167.1</ele>
        <time>2021-09-04T20:36:18Z</time>
      </trkpt>
      <trkpt lat="45.7232" lon="4.81396">
        <ele>167.2</ele>
        <time>2021-09-04T20:36:19Z</time>
      </trkpt>
      <trkpt lat="45.72327" lon="4.814">
        <ele>167.3</ele>
        <time>2021-09-04T20:36:21Z</time>
      </trkpt>
      <trkpt lat="45.72331" lon="4.81403">
        <ele>167.3</ele>
        <time>2021-09-04T20:36:22Z</time>
      </trkpt>
      <trkpt lat="45.72336" lon="4.81408">
        <ele>167.4</ele>
        <time>2021-09-04T20:36:24Z</time>
      </trkpt>
      <trkpt lat="45.72339" lon="4.81412">
        <ele>167.4</ele>
        <time>2021-09-04T20:36:25Z</time>
      </trkpt>
      <trkpt lat="45.72342" lon="4.81416">
        <ele>167.5</ele>
        <time>2021-09-04T20:36:26Z</time>
      </trkpt>
      <trkpt lat="45.72349" lon="4.81423">
        <ele>167.7</ele>
        <time>2021-09-04T20:36:28Z</time>
      </trkpt>
      <trkpt lat="45.72352" lon="4.81426">
        <ele>167.8</ele>
        <time>2021-09-04T20:36:29Z</time>
      </trkpt>
      <trkpt lat="45.7236" lon="4.81431">
        <ele>167.9</ele>
        <time>2021-09-04T20:36:31Z</time>
      </trkpt>
      <trkpt lat="45.72367" lon="4.81436">
        <ele>168.1</ele>
        <time>2021-09-04T20:36:33Z</time>
      </trkpt>
      <trkpt lat="45.72374" lon="4.8144">
        <ele>168.2</ele>
        <time>2021-09-04T20:36:35Z</time>
      </trkpt>
      <trkpt lat="45.72381" lon="4.81445">
        <ele>168.3</ele>
        <time>2021-09-04T20:36:37Z</time>
      </trkpt>
      <trkpt lat="45.72386" lon="4.81449">
        <ele>168.3</ele>
        <time>2021-09-04T20:36:38Z</time>
      </trkpt>
      <trkpt lat="45.7239" lon="4.81451">
        <ele>168.4</ele>
        <time>2021-09-04T20:36:39Z</time>
      </trkpt>
      <trkpt lat="45.72398" lon="4.81452">
        <ele>168.4</ele>
        <time>2021-09-04T20:36:41Z</time>
      </trkpt>
      <trkpt lat="45.72406" lon="4.8145">
        <ele>168.5</ele>
        <time>2021-09-04T20:36:43Z</time>
      </trkpt>
      <trkpt lat="45.72411" lon="4.81451">
        <ele>168.5</ele>
        <time>2021-09-04T20:36:44Z</time>
      </trkpt>
      <trkpt lat="45.72417" lon="4.81452">
        <ele>168.5</ele>
        <time>2021-09-04T20:36:46Z</time>
      </trkpt>
      <trkpt lat="45.72423" lon="4.81452">
        <ele>168.5</ele>
        <time>2021-09-04T20:36:47Z</time>
      </trkpt>
      <trkpt lat="45.72428" lon="4.81453">
        <ele>168.5</ele>
        <time>2021-09-04T20:36:48Z</time>
      </trkpt>
      <trkpt lat="45.72435" lon="4.81454">
        <ele>168.5</ele>
        <time>2021-09-04T20:36:50Z</time>
      </trkpt>
      <trkpt lat="45.72441" lon="4.81454">
        <ele>168.5</ele>
        <time>2021-09-04T20:36:51Z</time>
      </trkpt>
      <trkpt lat="45.72445" lon="4.81455">
        <ele>168.5</ele>
        <time>2021-09-04T20:36:52Z</time>
      </trkpt>
      <trkpt lat="45.72453" lon="4.81455">
        <ele>168.5</ele>
        <time>2021-09-04T20:36:54Z</time>
      </trkpt>
      <trkpt lat="45.7246" lon="4.81456">
        <ele>168.5</ele>
        <time>2021-09-04T20:36:55Z</time>
      </trkpt>
      <trkpt lat="45.72465" lon="4.81456">
        <ele>168.6</ele>
        <time>2021-09-04T20:36:56Z</time>
      </trkpt>
      <trkpt lat="45.72471" lon="4.81454">
        <ele>168.6</ele>
        <time>2021-09-04T20:36:58Z</time>
      </trkpt>
      <trkpt lat="45.72476" lon="4.81456">
        <ele>168.6</ele>
        <time>2021-09-04T20:36:59Z</time>
      </trkpt>
      <trkpt lat="45.72482" lon="4.81457">
        <ele>168.7</ele>
        <time>2021-09-04T20:37:01Z</time>
      </trkpt>
      <trkpt lat="45.72489" lon="4.81458">
        <ele>168.7</ele>
        <time>2021-09-04T20:37:02Z</time>
      </trkpt>
      <trkpt lat="45.72497" lon="4.8146">
        <ele>168.7</ele>
        <time>2021-09-04T20:37:04Z</time>
      </trkpt>
      <trkpt lat="45.72502" lon="4.81461">
        <ele>168.8</ele>
        <time>2021-09-04T20:37:05Z</time>
      </trkpt>
      <trkpt lat="45.72506" lon="4.81462">
        <ele>168.8</ele>
        <time>2021-09-04T20:37:06Z</time>
      </trkpt>
      <trkpt lat="45.72511" lon="4.81464">
        <ele>168.8</ele>
        <time>2021-09-04T20:37:07Z</time>
      </trkpt>
      <trkpt lat="45.72517" lon="4.81469">
        <ele>168.9</ele>
        <time>2021-09-04T20:37:09Z</time>
      </trkpt>
      <trkpt lat="45.72522" lon="4.81473">
        <ele>168.9</ele>
        <time>2021-09-04T20:37:10Z</time>
      </trkpt>
      <trkpt lat="45.72527" lon="4.81476">
        <ele>168.9</ele>
        <time>2021-09-04T20:37:12Z</time>
      </trkpt>
      <trkpt lat="45.72533" lon="4.81479">
        <ele>168.9</ele>
        <time>2021-09-04T20:37:13Z</time>
      </trkpt>
      <trkpt lat="45.72538" lon="4.8148">
        <ele>168.9</ele>
        <time>2021-09-04T20:37:14Z</time>
      </trkpt>
      <trkpt lat="45.72543" lon="4.81481">
        <ele>169</ele>
        <time>2021-09-04T20:37:15Z</time>
      </trkpt>
      <trkpt lat="45.72548" lon="4.81481">
        <ele>169</ele>
        <time>2021-09-04T20:37:16Z</time>
      </trkpt>
      <trkpt lat="45.72555" lon="4.81483">
        <ele>169</ele>
        <time>2021-09-04T20:37:18Z</time>
      </trkpt>
      <trkpt lat="45.7256" lon="4.81484">
        <ele>169</ele>
        <time>2021-09-04T20:37:19Z</time>
      </trkpt>
      <trkpt lat="45.72568" lon="4.81487">
        <ele>169.1</ele>
        <time>2021-09-04T20:37:21Z</time>
      </trkpt>
      <trkpt lat="45.72573" lon="4.81489">
        <ele>169.1</ele>
        <time>2021-09-04T20:37:23Z</time>
      </trkpt>
      <trkpt lat="45.7258" lon="4.8149">
        <ele>169.1</ele>
        <time>2021-09-04T20:37:24Z</time>
      </trkpt>
      <trkpt lat="45.72587" lon="4.81492">
        <ele>169.1</ele>
        <time>2021-09-04T20:37:26Z</time>
      </trkpt>
      <trkpt lat="45.72595" lon="4.81494">
        <ele>169.1</ele>
        <time>2021-09-04T20:37:28Z</time>
      </trkpt>
      <trkpt lat="45.72599" lon="4.81495">
        <ele>169</ele>
        <time>2021-09-04T20:37:29Z</time>
      </trkpt>
      <trkpt lat="45.72602" lon="4.81495">
        <ele>169</ele>
        <time>2021-09-04T20:37:30Z</time>
      </trkpt>
      <trkpt lat="45.72608" lon="4.81495">
        <ele>168.9</ele>
        <time>2021-09-04T20:37:32Z</time>
      </trkpt>
      <trkpt lat="45.72612" lon="4.81494">
        <ele>168.8</ele>
        <time>2021-09-04T20:37:33Z</time>
      </trkpt>
      <trkpt lat="45.72615" lon="4.81493">
        <ele>168.8</ele>
        <time>2021-09-04T20:37:34Z</time>
      </trkpt>
      <trkpt lat="45.72618" lon="4.81494">
        <ele>168.8</ele>
        <time>2021-09-04T20:37:35Z</time>
      </trkpt>
      <trkpt lat="45.72622" lon="4.81495">
        <ele>168.7</ele>
        <time>2021-09-04T20:37:37Z</time>
      </trkpt>
      <trkpt lat="45.72625" lon="4.81499">
        <ele>168.6</ele>
        <time>2021-09-04T20:37:38Z</time>
      </trkpt>
      <trkpt lat="45.72625" lon="4.81504">
        <ele>168.6</ele>
        <time>2021-09-04T20:37:39Z</time>
      </trkpt>
      <trkpt lat="45.72625" lon="4.81512">
        <ele>168.5</ele>
        <time>2021-09-04T20:37:41Z</time>
      </trkpt>
      <trkpt lat="45.72625" lon="4.81518">
        <ele>168.4</ele>
        <time>2021-09-04T20:37:43Z</time>
      </trkpt>
      <trkpt lat="45.72627" lon="4.81522">
        <ele>168.4</ele>
        <time>2021-09-04T20:37:44Z</time>
      </trkpt>
      <trkpt lat="45.72633" lon="4.81522">
        <ele>168.3</ele>
        <time>2021-09-04T20:37:46Z</time>
      </trkpt>
      <trkpt lat="45.72636" lon="4.81526">
        <ele>168.2</ele>
        <time>2021-09-04T20:37:48Z</time>
      </trkpt>
      <trkpt lat="45.72637" lon="4.81528">
        <ele>168.2</ele>
        <time>2021-09-04T20:37:49Z</time>
      </trkpt>
      <trkpt lat="45.72638" lon="4.81529">
        <ele>168.2</ele>
        <time>2021-09-04T20:37:50Z</time>
      </trkpt>
      <trkpt lat="45.72639" lon="4.81534">
        <ele>168.2</ele>
        <time>2021-09-04T20:37:51Z</time>
      </trkpt>
      <trkpt lat="45.72643" lon="4.81536">
        <ele>168.2</ele>
        <time>2021-09-04T20:37:53Z</time>
      </trkpt>
      <trkpt lat="45.72646" lon="4.81537">
        <ele>168.2</ele>
        <time>2021-09-04T20:37:54Z</time>
      </trkpt>
      <trkpt lat="45.72649" lon="4.8154">
        <ele>168.2</ele>
        <time>2021-09-04T20:37:55Z</time>
      </trkpt>
      <trkpt lat="45.72651" lon="4.81543">
        <ele>168.2</ele>
        <time>2021-09-04T20:37:56Z</time>
      </trkpt>
      <trkpt lat="45.72654" lon="4.8155">
        <ele>168.2</ele>
        <time>2021-09-04T20:37:58Z</time>
      </trkpt>
      <trkpt lat="45.72656" lon="4.81554">
        <ele>168.2</ele>
        <time>2021-09-04T20:37:59Z</time>
      </trkpt>
      <trkpt lat="45.72658" lon="4.81557">
        <ele>168.2</ele>
        <time>2021-09-04T20:38:00Z</time>
      </trkpt>
      <trkpt lat="45.72661" lon="4.81559">
        <ele>168.2</ele>
        <time>2021-09-04T20:38:01Z</time>
      </trkpt>
      <trkpt lat="45.72665" lon="4.81562">
        <ele>168.2</ele>
        <time>2021-09-04T20:38:03Z</time>
      </trkpt>
      <trkpt lat="45.72667" lon="4.81565">
        <ele>168.2</ele>
        <time>2021-09-04T20:38:04Z</time>
      </trkpt>
      <trkpt lat="45.72669" lon="4.81568">
        <ele>168.2</ele>
        <time>2021-09-04T20:38:05Z</time>
      </trkpt>
      <trkpt lat="45.72673" lon="4.81571">
        <ele>168.2</ele>
        <time>2021-09-04T20:38:07Z</time>
      </trkpt>
      <trkpt lat="45.72676" lon="4.81572">
        <ele>168.2</ele>
        <time>2021-09-04T20:38:08Z</time>
      </trkpt>
      <trkpt lat="45.72679" lon="4.81574">
        <ele>168.2</ele>
        <time>2021-09-04T20:38:09Z</time>
      </trkpt>
      <trkpt lat="45.72682" lon="4.81576">
        <ele>168.2</ele>
        <time>2021-09-04T20:38:10Z</time>
      </trkpt>
      <trkpt lat="45.72688" lon="4.81583">
        <ele>168.2</ele>
        <time>2021-09-04T20:38:12Z</time>
      </trkpt>
      <trkpt lat="45.72694" lon="4.81588">
        <ele>168.2</ele>
        <time>2021-09-04T20:38:13Z</time>
      </trkpt>
      <trkpt lat="45.72702" lon="4.81593">
        <ele>168.2</ele>
        <time>2021-09-04T20:38:15Z</time>
      </trkpt>
      <trkpt lat="45.72711" lon="4.81598">
        <ele>168.1</ele>
        <time>2021-09-04T20:38:17Z</time>
      </trkpt>
      <trkpt lat="45.7272" lon="4.816">
        <ele>168</ele>
        <time>2021-09-04T20:38:19Z</time>
      </trkpt>
      <trkpt lat="45.72726" lon="4.81602">
        <ele>167.8</ele>
        <time>2021-09-04T20:38:20Z</time>
      </trkpt>
      <trkpt lat="45.72734" lon="4.81605">
        <ele>167.8</ele>
        <time>2021-09-04T20:38:22Z</time>
      </trkpt>
      <trkpt lat="45.72743" lon="4.81607">
        <ele>167.7</ele>
        <time>2021-09-04T20:38:24Z</time>
      </trkpt>
      <trkpt lat="45.72751" lon="4.81608">
        <ele>167.7</ele>
        <time>2021-09-04T20:38:25Z</time>
      </trkpt>
      <trkpt lat="45.72756" lon="4.81608">
        <ele>167.8</ele>
        <time>2021-09-04T20:38:26Z</time>
      </trkpt>
      <trkpt lat="45.72761" lon="4.81607">
        <ele>167.9</ele>
        <time>2021-09-04T20:38:27Z</time>
      </trkpt>
      <trkpt lat="45.72769" lon="4.81606">
        <ele>168</ele>
        <time>2021-09-04T20:38:29Z</time>
      </trkpt>
      <trkpt lat="45.72774" lon="4.81606">
        <ele>168.1</ele>
        <time>2021-09-04T20:38:30Z</time>
      </trkpt>
      <trkpt lat="45.72778" lon="4.81605">
        <ele>168.3</ele>
        <time>2021-09-04T20:38:31Z</time>
      </trkpt>
      <trkpt lat="45.72784" lon="4.81604">
        <ele>168.4</ele>
        <time>2021-09-04T20:38:33Z</time>
      </trkpt>
      <trkpt lat="45.7279" lon="4.81603">
        <ele>168.7</ele>
        <time>2021-09-04T20:38:34Z</time>
      </trkpt>
      <trkpt lat="45.72794" lon="4.81602">
        <ele>168.8</ele>
        <time>2021-09-04T20:38:35Z</time>
      </trkpt>
      <trkpt lat="45.728" lon="4.816">
        <ele>169.1</ele>
        <time>2021-09-04T20:38:37Z</time>
      </trkpt>
      <trkpt lat="45.72804" lon="4.81599">
        <ele>169.3</ele>
        <time>2021-09-04T20:38:38Z</time>
      </trkpt>
      <trkpt lat="45.7281" lon="4.81598">
        <ele>169.7</ele>
        <time>2021-09-04T20:38:40Z</time>
      </trkpt>
      <trkpt lat="45.72814" lon="4.81597">
        <ele>169.9</ele>
        <time>2021-09-04T20:38:41Z</time>
      </trkpt>
      <trkpt lat="45.7282" lon="4.81597">
        <ele>170.3</ele>
        <time>2021-09-04T20:38:43Z</time>
      </trkpt>
      <trkpt lat="45.72823" lon="4.81596">
        <ele>170.6</ele>
        <time>2021-09-04T20:38:44Z</time>
      </trkpt>
      <trkpt lat="45.72826" lon="4.81596">
        <ele>170.8</ele>
        <time>2021-09-04T20:38:45Z</time>
      </trkpt>
      <trkpt lat="45.72829" lon="4.81595">
        <ele>171</ele>
        <time>2021-09-04T20:38:46Z</time>
      </trkpt>
      <trkpt lat="45.72835" lon="4.81594">
        <ele>171.4</ele>
        <time>2021-09-04T20:38:48Z</time>
      </trkpt>
      <trkpt lat="45.7284" lon="4.81591">
        <ele>171.8</ele>
        <time>2021-09-04T20:38:50Z</time>
      </trkpt>
      <trkpt lat="45.72843" lon="4.8159">
        <ele>172.1</ele>
        <time>2021-09-04T20:38:51Z</time>
      </trkpt>
      <trkpt lat="45.72847" lon="4.81589">
        <ele>172.3</ele>
        <time>2021-09-04T20:38:52Z</time>
      </trkpt>
      <trkpt lat="45.7285" lon="4.81588">
        <ele>172.6</ele>
        <time>2021-09-04T20:38:53Z</time>
      </trkpt>
      <trkpt lat="45.72855" lon="4.81585">
        <ele>173</ele>
        <time>2021-09-04T20:38:55Z</time>
      </trkpt>
      <trkpt lat="45.72861" lon="4.81582">
        <ele>173.4</ele>
        <time>2021-09-04T20:38:57Z</time>
      </trkpt>
      <trkpt lat="45.72866" lon="4.81578">
        <ele>173.8</ele>
        <time>2021-09-04T20:38:59Z</time>
      </trkpt>
      <trkpt lat="45.72869" lon="4.81578">
        <ele>174</ele>
        <time>2021-09-04T20:39:00Z</time>
      </trkpt>
      <trkpt lat="45.72874" lon="4.81577">
        <ele>174.4</ele>
        <time>2021-09-04T20:39:02Z</time>
      </trkpt>
      <trkpt lat="45.72878" lon="4.81577">
        <ele>174.7</ele>
        <time>2021-09-04T20:39:04Z</time>
      </trkpt>
      <trkpt lat="45.72882" lon="4.81576">
        <ele>175</ele>
        <time>2021-09-04T20:39:05Z</time>
      </trkpt>
      <trkpt lat="45.72887" lon="4.81574">
        <ele>175.3</ele>
        <time>2021-09-04T20:39:07Z</time>
      </trkpt>
      <trkpt lat="45.72889" lon="4.81573">
        <ele>175.5</ele>
        <time>2021-09-04T20:39:08Z</time>
      </trkpt>
      <trkpt lat="45.72894" lon="4.81572">
        <ele>175.8</ele>
        <time>2021-09-04T20:39:10Z</time>
      </trkpt>
      <trkpt lat="45.72898" lon="4.81573">
        <ele>176</ele>
        <time>2021-09-04T20:39:11Z</time>
      </trkpt>
      <trkpt lat="45.72898" lon="4.81574">
        <ele>176.1</ele>
        <time>2021-09-04T20:39:12Z</time>
      </trkpt>
      <trkpt lat="45.72901" lon="4.81574">
        <ele>176.3</ele>
        <time>2021-09-04T20:39:13Z</time>
      </trkpt>
      <trkpt lat="45.72902" lon="4.81574">
        <ele>176.4</ele>
        <time>2021-09-04T20:39:14Z</time>
      </trkpt>
      <trkpt lat="45.72905" lon="4.81571">
        <ele>176.7</ele>
        <time>2021-09-04T20:39:16Z</time>
      </trkpt>
      <trkpt lat="45.72909" lon="4.81567">
        <ele>176.7</ele>
        <time>2021-09-04T20:39:18Z</time>
      </trkpt>
      <trkpt lat="45.72911" lon="4.81566">
        <ele>176.7</ele>
        <time>2021-09-04T20:39:19Z</time>
      </trkpt>
      <trkpt lat="45.72914" lon="4.81565">
        <ele>176.6</ele>
        <time>2021-09-04T20:39:20Z</time>
      </trkpt>
      <trkpt lat="45.72915" lon="4.81564">
        <ele>176.5</ele>
        <time>2021-09-04T20:39:22Z</time>
      </trkpt>
      <trkpt lat="45.72917" lon="4.81564">
        <ele>176.5</ele>
        <time>2021-09-04T20:39:23Z</time>
      </trkpt>
      <trkpt lat="45.72919" lon="4.81563">
        <ele>176.4</ele>
        <time>2021-09-04T20:39:24Z</time>
      </trkpt>
      <trkpt lat="45.72922" lon="4.81565">
        <ele>176.3</ele>
        <time>2021-09-04T20:39:25Z</time>
      </trkpt>
      <trkpt lat="45.72923" lon="4.81566">
        <ele>176.2</ele>
        <time>2021-09-04T20:39:26Z</time>
      </trkpt>
      <trkpt lat="45.72927" lon="4.81571">
        <ele>176.1</ele>
        <time>2021-09-04T20:39:28Z</time>
      </trkpt>
      <trkpt lat="45.7293" lon="4.81573">
        <ele>176</ele>
        <time>2021-09-04T20:39:29Z</time>
      </trkpt>
      <trkpt lat="45.72933" lon="4.81577">
        <ele>175.9</ele>
        <time>2021-09-04T20:39:31Z</time>
      </trkpt>
      <trkpt lat="45.72935" lon="4.81581">
        <ele>175.8</ele>
        <time>2021-09-04T20:39:32Z</time>
      </trkpt>
      <trkpt lat="45.72937" lon="4.81584">
        <ele>175.8</ele>
        <time>2021-09-04T20:39:33Z</time>
      </trkpt>
      <trkpt lat="45.72941" lon="4.81588">
        <ele>175.7</ele>
        <time>2021-09-04T20:39:34Z</time>
      </trkpt>
      <trkpt lat="45.72942" lon="4.81591">
        <ele>175.6</ele>
        <time>2021-09-04T20:39:35Z</time>
      </trkpt>
      <trkpt lat="45.72943" lon="4.81593">
        <ele>175.6</ele>
        <time>2021-09-04T20:39:37Z</time>
      </trkpt>
      <trkpt lat="45.72945" lon="4.81594">
        <ele>175.6</ele>
        <time>2021-09-04T20:39:38Z</time>
      </trkpt>
      <trkpt lat="45.72945" lon="4.81593">
        <ele>175.6</ele>
        <time>2021-09-04T20:39:40Z</time>
      </trkpt>
      <trkpt lat="45.72946" lon="4.81593">
        <ele>175.5</ele>
        <time>2021-09-04T20:39:41Z</time>
      </trkpt>
      <trkpt lat="45.72948" lon="4.81593">
        <ele>175.5</ele>
        <time>2021-09-04T20:39:42Z</time>
      </trkpt>
      <trkpt lat="45.72952" lon="4.81599">
        <ele>175.4</ele>
        <time>2021-09-04T20:39:44Z</time>
      </trkpt>
      <trkpt lat="45.72954" lon="4.81605">
        <ele>175.3</ele>
        <time>2021-09-04T20:39:46Z</time>
      </trkpt>
      <trkpt lat="45.72958" lon="4.81609">
        <ele>175.1</ele>
        <time>2021-09-04T20:39:47Z</time>
      </trkpt>
      <trkpt lat="45.72964" lon="4.81607">
        <ele>174.9</ele>
        <time>2021-09-04T20:39:49Z</time>
      </trkpt>
      <trkpt lat="45.72967" lon="4.81606">
        <ele>174.8</ele>
        <time>2021-09-04T20:39:50Z</time>
      </trkpt>
      <trkpt lat="45.72972" lon="4.816">
        <ele>174.6</ele>
        <time>2021-09-04T20:39:52Z</time>
      </trkpt>
      <trkpt lat="45.72975" lon="4.81601">
        <ele>174.5</ele>
        <time>2021-09-04T20:39:53Z</time>
      </trkpt>
      <trkpt lat="45.72982" lon="4.81598">
        <ele>174.3</ele>
        <time>2021-09-04T20:39:55Z</time>
      </trkpt>
      <trkpt lat="45.72985" lon="4.81594">
        <ele>174.2</ele>
        <time>2021-09-04T20:39:56Z</time>
      </trkpt>
      <trkpt lat="45.72988" lon="4.81591">
        <ele>174.1</ele>
        <time>2021-09-04T20:39:57Z</time>
      </trkpt>
      <trkpt lat="45.72992" lon="4.81589">
        <ele>173.9</ele>
        <time>2021-09-04T20:39:58Z</time>
      </trkpt>
      <trkpt lat="45.72999" lon="4.81584">
        <ele>173.7</ele>
        <time>2021-09-04T20:40:00Z</time>
      </trkpt>
      <trkpt lat="45.73006" lon="4.8158">
        <ele>173.5</ele>
        <time>2021-09-04T20:40:01Z</time>
      </trkpt>
      <trkpt lat="45.73016" lon="4.81574">
        <ele>173.2</ele>
        <time>2021-09-04T20:40:03Z</time>
      </trkpt>
      <trkpt lat="45.73026" lon="4.81567">
        <ele>173.2</ele>
        <time>2021-09-04T20:40:05Z</time>
      </trkpt>
      <trkpt lat="45.73034" lon="4.81563">
        <ele>173.2</ele>
        <time>2021-09-04T20:40:07Z</time>
      </trkpt>
      <trkpt lat="45.73038" lon="4.81561">
        <ele>173.3</ele>
        <time>2021-09-04T20:40:08Z</time>
      </trkpt>
      <trkpt lat="45.73043" lon="4.81562">
        <ele>173.4</ele>
        <time>2021-09-04T20:40:10Z</time>
      </trkpt>
      <trkpt lat="45.73051" lon="4.81562">
        <ele>173.7</ele>
        <time>2021-09-04T20:40:11Z</time>
      </trkpt>
      <trkpt lat="45.73062" lon="4.81563">
        <ele>174</ele>
        <time>2021-09-04T20:40:13Z</time>
      </trkpt>
      <trkpt lat="45.73067" lon="4.81565">
        <ele>174.2</ele>
        <time>2021-09-04T20:40:14Z</time>
      </trkpt>
      <trkpt lat="45.73072" lon="4.81568">
        <ele>174.4</ele>
        <time>2021-09-04T20:40:15Z</time>
      </trkpt>
      <trkpt lat="45.73081" lon="4.81574">
        <ele>174.7</ele>
        <time>2021-09-04T20:40:17Z</time>
      </trkpt>
      <trkpt lat="45.73089" lon="4.8158">
        <ele>174.9</ele>
        <time>2021-09-04T20:40:19Z</time>
      </trkpt>
      <trkpt lat="45.73093" lon="4.81584">
        <ele>175</ele>
        <time>2021-09-04T20:40:20Z</time>
      </trkpt>
      <trkpt lat="45.73101" lon="4.8159">
        <ele>175.1</ele>
        <time>2021-09-04T20:40:22Z</time>
      </trkpt>
      <trkpt lat="45.73108" lon="4.81598">
        <ele>175.2</ele>
        <time>2021-09-04T20:40:24Z</time>
      </trkpt>
      <trkpt lat="45.73119" lon="4.81607">
        <ele>175.3</ele>
        <time>2021-09-04T20:40:26Z</time>
      </trkpt>
      <trkpt lat="45.73125" lon="4.81611">
        <ele>175.3</ele>
        <time>2021-09-04T20:40:27Z</time>
      </trkpt>
      <trkpt lat="45.73136" lon="4.81621">
        <ele>175.2</ele>
        <time>2021-09-04T20:40:29Z</time>
      </trkpt>
      <trkpt lat="45.73142" lon="4.81625">
        <ele>175.1</ele>
        <time>2021-09-04T20:40:30Z</time>
      </trkpt>
      <trkpt lat="45.73147" lon="4.81629">
        <ele>175</ele>
        <time>2021-09-04T20:40:31Z</time>
      </trkpt>
      <trkpt lat="45.73152" lon="4.81634">
        <ele>174.9</ele>
        <time>2021-09-04T20:40:32Z</time>
      </trkpt>
      <trkpt lat="45.73162" lon="4.81643">
        <ele>174.6</ele>
        <time>2021-09-04T20:40:34Z</time>
      </trkpt>
      <trkpt lat="45.73172" lon="4.81652">
        <ele>174.3</ele>
        <time>2021-09-04T20:40:36Z</time>
      </trkpt>
      <trkpt lat="45.73181" lon="4.81659">
        <ele>174</ele>
        <time>2021-09-04T20:40:38Z</time>
      </trkpt>
      <trkpt lat="45.73185" lon="4.81663">
        <ele>173.8</ele>
        <time>2021-09-04T20:40:39Z</time>
      </trkpt>
      <trkpt lat="45.73192" lon="4.81669">
        <ele>173.6</ele>
        <time>2021-09-04T20:40:41Z</time>
      </trkpt>
      <trkpt lat="45.73196" lon="4.81672">
        <ele>173.5</ele>
        <time>2021-09-04T20:40:42Z</time>
      </trkpt>
      <trkpt lat="45.732" lon="4.81677">
        <ele>173.4</ele>
        <time>2021-09-04T20:40:43Z</time>
      </trkpt>
      <trkpt lat="45.73208" lon="4.81685">
        <ele>173.1</ele>
        <time>2021-09-04T20:40:45Z</time>
      </trkpt>
      <trkpt lat="45.73212" lon="4.81689">
        <ele>173</ele>
        <time>2021-09-04T20:40:46Z</time>
      </trkpt>
      <trkpt lat="45.73221" lon="4.81699">
        <ele>172.7</ele>
        <time>2021-09-04T20:40:48Z</time>
      </trkpt>
      <trkpt lat="45.7323" lon="4.81708">
        <ele>172.4</ele>
        <time>2021-09-04T20:40:50Z</time>
      </trkpt>
      <trkpt lat="45.73238" lon="4.81717">
        <ele>172.2</ele>
        <time>2021-09-04T20:40:52Z</time>
      </trkpt>
      <trkpt lat="45.73242" lon="4.8172">
        <ele>172.1</ele>
        <time>2021-09-04T20:40:53Z</time>
      </trkpt>
      <trkpt lat="45.73247" lon="4.81722">
        <ele>172</ele>
        <time>2021-09-04T20:40:54Z</time>
      </trkpt>
      <trkpt lat="45.73255" lon="4.8173">
        <ele>171.8</ele>
        <time>2021-09-04T20:40:56Z</time>
      </trkpt>
      <trkpt lat="45.73263" lon="4.81738">
        <ele>171.7</ele>
        <time>2021-09-04T20:40:58Z</time>
      </trkpt>
      <trkpt lat="45.73266" lon="4.81744">
        <ele>171.6</ele>
        <time>2021-09-04T20:40:59Z</time>
      </trkpt>
      <trkpt lat="45.73276" lon="4.81757">
        <ele>171.5</ele>
        <time>2021-09-04T20:41:01Z</time>
      </trkpt>
      <trkpt lat="45.73286" lon="4.81769">
        <ele>171.3</ele>
        <time>2021-09-04T20:41:03Z</time>
      </trkpt>
      <trkpt lat="45.7329" lon="4.81774">
        <ele>171.3</ele>
        <time>2021-09-04T20:41:04Z</time>
      </trkpt>
      <trkpt lat="45.73298" lon="4.81786">
        <ele>171.1</ele>
        <time>2021-09-04T20:41:06Z</time>
      </trkpt>
      <trkpt lat="45.73302" lon="4.81792">
        <ele>171.1</ele>
        <time>2021-09-04T20:41:07Z</time>
      </trkpt>
      <trkpt lat="45.73305" lon="4.81797">
        <ele>171.1</ele>
        <time>2021-09-04T20:41:08Z</time>
      </trkpt>
      <trkpt lat="45.73308" lon="4.81801">
        <ele>171.1</ele>
        <time>2021-09-04T20:41:09Z</time>
      </trkpt>
      <trkpt lat="45.73315" lon="4.81807">
        <ele>171</ele>
        <time>2021-09-04T20:41:11Z</time>
      </trkpt>
      <trkpt lat="45.73321" lon="4.81815">
        <ele>171</ele>
        <time>2021-09-04T20:41:13Z</time>
      </trkpt>
      <trkpt lat="45.7333" lon="4.81823">
        <ele>171</ele>
        <time>2021-09-04T20:41:15Z</time>
      </trkpt>
      <trkpt lat="45.73339" lon="4.81831">
        <ele>171</ele>
        <time>2021-09-04T20:41:17Z</time>
      </trkpt>
      <trkpt lat="45.73345" lon="4.81836">
        <ele>171</ele>
        <time>2021-09-04T20:41:19Z</time>
      </trkpt>
      <trkpt lat="45.7335" lon="4.81842">
        <ele>171</ele>
        <time>2021-09-04T20:41:21Z</time>
      </trkpt>
      <trkpt lat="45.73355" lon="4.81845">
        <ele>171</ele>
        <time>2021-09-04T20:41:22Z</time>
      </trkpt>
      <trkpt lat="45.73359" lon="4.81849">
        <ele>171</ele>
        <time>2021-09-04T20:41:24Z</time>
      </trkpt>
      <trkpt lat="45.73363" lon="4.81853">
        <ele>171.1</ele>
        <time>2021-09-04T20:41:25Z</time>
      </trkpt>
      <trkpt lat="45.73363" lon="4.81859">
        <ele>171</ele>
        <time>2021-09-04T20:41:26Z</time>
      </trkpt>
      <trkpt lat="45.73362" lon="4.81866">
        <ele>171</ele>
        <time>2021-09-04T20:41:28Z</time>
      </trkpt>
      <trkpt lat="45.73358" lon="4.81874">
        <ele>171</ele>
        <time>2021-09-04T20:41:29Z</time>
      </trkpt>
      <trkpt lat="45.73356" lon="4.81879">
        <ele>171</ele>
        <time>2021-09-04T20:41:30Z</time>
      </trkpt>
      <trkpt lat="45.73352" lon="4.81889">
        <ele>171</ele>
        <time>2021-09-04T20:41:32Z</time>
      </trkpt>
      <trkpt lat="45.73351" lon="4.81897">
        <ele>171.1</ele>
        <time>2021-09-04T20:41:33Z</time>
      </trkpt>
      <trkpt lat="45.73351" lon="4.81903">
        <ele>171.1</ele>
        <time>2021-09-04T20:41:34Z</time>
      </trkpt>
      <trkpt lat="45.73349" lon="4.81911">
        <ele>171.1</ele>
        <time>2021-09-04T20:41:36Z</time>
      </trkpt>
      <trkpt lat="45.73347" lon="4.81921">
        <ele>171.2</ele>
        <time>2021-09-04T20:41:37Z</time>
      </trkpt>
      <trkpt lat="45.73345" lon="4.81927">
        <ele>171.2</ele>
        <time>2021-09-04T20:41:38Z</time>
      </trkpt>
      <trkpt lat="45.73346" lon="4.81935">
        <ele>171.3</ele>
        <time>2021-09-04T20:41:40Z</time>
      </trkpt>
      <trkpt lat="45.73343" lon="4.81943">
        <ele>171.4</ele>
        <time>2021-09-04T20:41:41Z</time>
      </trkpt>
      <trkpt lat="45.73341" lon="4.81949">
        <ele>171.5</ele>
        <time>2021-09-04T20:41:43Z</time>
      </trkpt>
      <trkpt lat="45.73336" lon="4.81958">
        <ele>171.6</ele>
        <time>2021-09-04T20:41:44Z</time>
      </trkpt>
      <trkpt lat="45.73332" lon="4.81961">
        <ele>171.7</ele>
        <time>2021-09-04T20:41:45Z</time>
      </trkpt>
      <trkpt lat="45.73326" lon="4.81966">
        <ele>171.8</ele>
        <time>2021-09-04T20:41:47Z</time>
      </trkpt>
      <trkpt lat="45.73322" lon="4.8197">
        <ele>172</ele>
        <time>2021-09-04T20:41:49Z</time>
      </trkpt>
      <trkpt lat="45.73318" lon="4.81976">
        <ele>172.2</ele>
        <time>2021-09-04T20:41:50Z</time>
      </trkpt>
      <trkpt lat="45.73314" lon="4.81979">
        <ele>172.3</ele>
        <time>2021-09-04T20:41:51Z</time>
      </trkpt>
      <trkpt lat="45.73309" lon="4.81984">
        <ele>172.5</ele>
        <time>2021-09-04T20:41:53Z</time>
      </trkpt>
      <trkpt lat="45.73306" lon="4.81987">
        <ele>172.6</ele>
        <time>2021-09-04T20:41:54Z</time>
      </trkpt>
      <trkpt lat="45.73303" lon="4.8199">
        <ele>172.7</ele>
        <time>2021-09-04T20:41:55Z</time>
      </trkpt>
      <trkpt lat="45.73299" lon="4.81996">
        <ele>172.8</ele>
        <time>2021-09-04T20:41:57Z</time>
      </trkpt>
      <trkpt lat="45.73295" lon="4.82">
        <ele>173</ele>
        <time>2021-09-04T20:41:59Z</time>
      </trkpt>
      <trkpt lat="45.73293" lon="4.82003">
        <ele>173.1</ele>
        <time>2021-09-04T20:42:00Z</time>
      </trkpt>
      <trkpt lat="45.7329" lon="4.82006">
        <ele>173.1</ele>
        <time>2021-09-04T20:42:01Z</time>
      </trkpt>
      <trkpt lat="45.73287" lon="4.82009">
        <ele>173.2</ele>
        <time>2021-09-04T20:42:02Z</time>
      </trkpt>
      <trkpt lat="45.73285" lon="4.82012">
        <ele>173.3</ele>
        <time>2021-09-04T20:42:03Z</time>
      </trkpt>
      <trkpt lat="45.73282" lon="4.82015">
        <ele>173.4</ele>
        <time>2021-09-04T20:42:04Z</time>
      </trkpt>
      <trkpt lat="45.73279" lon="4.82018">
        <ele>173.5</ele>
        <time>2021-09-04T20:42:05Z</time>
      </trkpt>
      <trkpt lat="45.73276" lon="4.82021">
        <ele>173.5</ele>
        <time>2021-09-04T20:42:06Z</time>
      </trkpt>
      <trkpt lat="45.73273" lon="4.82025">
        <ele>173.6</ele>
        <time>2021-09-04T20:42:07Z</time>
      </trkpt>
      <trkpt lat="45.73268" lon="4.8203">
        <ele>173.6</ele>
        <time>2021-09-04T20:42:09Z</time>
      </trkpt>
      <trkpt lat="45.73264" lon="4.82035">
        <ele>173.6</ele>
        <time>2021-09-04T20:42:10Z</time>
      </trkpt>
      <trkpt lat="45.73259" lon="4.82042">
        <ele>173.6</ele>
        <time>2021-09-04T20:42:12Z</time>
      </trkpt>
      <trkpt lat="45.73253" lon="4.82049">
        <ele>173.6</ele>
        <time>2021-09-04T20:42:14Z</time>
      </trkpt>
      <trkpt lat="45.73251" lon="4.82052">
        <ele>173.5</ele>
        <time>2021-09-04T20:42:15Z</time>
      </trkpt>
      <trkpt lat="45.73248" lon="4.82056">
        <ele>173.5</ele>
        <time>2021-09-04T20:42:16Z</time>
      </trkpt>
      <trkpt lat="45.73242" lon="4.82061">
        <ele>173.4</ele>
        <time>2021-09-04T20:42:18Z</time>
      </trkpt>
      <trkpt lat="45.7324" lon="4.82063">
        <ele>173.3</ele>
        <time>2021-09-04T20:42:19Z</time>
      </trkpt>
      <trkpt lat="45.73235" lon="4.8207">
        <ele>173.2</ele>
        <time>2021-09-04T20:42:21Z</time>
      </trkpt>
      <trkpt lat="45.73232" lon="4.82074">
        <ele>173</ele>
        <time>2021-09-04T20:42:22Z</time>
      </trkpt>
      <trkpt lat="45.73223" lon="4.82085">
        <ele>172.6</ele>
        <time>2021-09-04T20:42:24Z</time>
      </trkpt>
      <trkpt lat="45.7322" lon="4.8209">
        <ele>172.4</ele>
        <time>2021-09-04T20:42:25Z</time>
      </trkpt>
      <trkpt lat="45.73212" lon="4.821">
        <ele>172</ele>
        <time>2021-09-04T20:42:27Z</time>
      </trkpt>
      <trkpt lat="45.73209" lon="4.82106">
        <ele>171.8</ele>
        <time>2021-09-04T20:42:28Z</time>
      </trkpt>
      <trkpt lat="45.73202" lon="4.82116">
        <ele>171.4</ele>
        <time>2021-09-04T20:42:30Z</time>
      </trkpt>
      <trkpt lat="45.73194" lon="4.82127">
        <ele>171</ele>
        <time>2021-09-04T20:42:32Z</time>
      </trkpt>
      <trkpt lat="45.73191" lon="4.82134">
        <ele>170.8</ele>
        <time>2021-09-04T20:42:33Z</time>
      </trkpt>
      <trkpt lat="45.73188" lon="4.82141">
        <ele>170.5</ele>
        <time>2021-09-04T20:42:34Z</time>
      </trkpt>
      <trkpt lat="45.73186" lon="4.82148">
        <ele>170.3</ele>
        <time>2021-09-04T20:42:35Z</time>
      </trkpt>
      <trkpt lat="45.73185" lon="4.82156">
        <ele>170.1</ele>
        <time>2021-09-04T20:42:36Z</time>
      </trkpt>
      <trkpt lat="45.73183" lon="4.82171">
        <ele>169.9</ele>
        <time>2021-09-04T20:42:38Z</time>
      </trkpt>
      <trkpt lat="45.73181" lon="4.82185">
        <ele>169.6</ele>
        <time>2021-09-04T20:42:40Z</time>
      </trkpt>
      <trkpt lat="45.7318" lon="4.82193">
        <ele>169.4</ele>
        <time>2021-09-04T20:42:41Z</time>
      </trkpt>
      <trkpt lat="45.73178" lon="4.82209">
        <ele>169.1</ele>
        <time>2021-09-04T20:42:43Z</time>
      </trkpt>
      <trkpt lat="45.73177" lon="4.82216">
        <ele>169</ele>
        <time>2021-09-04T20:42:44Z</time>
      </trkpt>
      <trkpt lat="45.73174" lon="4.82225">
        <ele>168.8</ele>
        <time>2021-09-04T20:42:46Z</time>
      </trkpt>
      <trkpt lat="45.73173" lon="4.82234">
        <ele>168.6</ele>
        <time>2021-09-04T20:42:48Z</time>
      </trkpt>
      <trkpt lat="45.73171" lon="4.82241">
        <ele>168.4</ele>
        <time>2021-09-04T20:42:49Z</time>
      </trkpt>
      <trkpt lat="45.7317" lon="4.82254">
        <ele>168.1</ele>
        <time>2021-09-04T20:42:51Z</time>
      </trkpt>
      <trkpt lat="45.73165" lon="4.82269">
        <ele>167.6</ele>
        <time>2021-09-04T20:42:53Z</time>
      </trkpt>
      <trkpt lat="45.73162" lon="4.82272">
        <ele>167.1</ele>
        <time>2021-09-04T20:42:54Z</time>
      </trkpt>
      <trkpt lat="45.73157" lon="4.82272">
        <ele>167</ele>
        <time>2021-09-04T20:42:55Z</time>
      </trkpt>
      <trkpt lat="45.73146" lon="4.82267">
        <ele>166.7</ele>
        <time>2021-09-04T20:42:57Z</time>
      </trkpt>
      <trkpt lat="45.73139" lon="4.82265">
        <ele>166.6</ele>
        <time>2021-09-04T20:42:59Z</time>
      </trkpt>
      <trkpt lat="45.73136" lon="4.82265">
        <ele>166.5</ele>
        <time>2021-09-04T20:43:00Z</time>
      </trkpt>
      <trkpt lat="45.73128" lon="4.82262">
        <ele>166.3</ele>
        <time>2021-09-04T20:43:02Z</time>
      </trkpt>
      <trkpt lat="45.73122" lon="4.8226">
        <ele>166.3</ele>
        <time>2021-09-04T20:43:04Z</time>
      </trkpt>
      <trkpt lat="45.73116" lon="4.82258">
        <ele>166.3</ele>
        <time>2021-09-04T20:43:05Z</time>
      </trkpt>
      <trkpt lat="45.73112" lon="4.82256">
        <ele>166.3</ele>
        <time>2021-09-04T20:43:06Z</time>
      </trkpt>
      <trkpt lat="45.73108" lon="4.82254">
        <ele>166.2</ele>
        <time>2021-09-04T20:43:07Z</time>
      </trkpt>
      <trkpt lat="45.73103" lon="4.82252">
        <ele>166.2</ele>
        <time>2021-09-04T20:43:09Z</time>
      </trkpt>
      <trkpt lat="45.73099" lon="4.82253">
        <ele>166.2</ele>
        <time>2021-09-04T20:43:10Z</time>
      </trkpt>
      <trkpt lat="45.73093" lon="4.82253">
        <ele>166.2</ele>
        <time>2021-09-04T20:43:11Z</time>
      </trkpt>
      <trkpt lat="45.73085" lon="4.82251">
        <ele>166.2</ele>
        <time>2021-09-04T20:43:13Z</time>
      </trkpt>
      <trkpt lat="45.73079" lon="4.8225">
        <ele>166.2</ele>
        <time>2021-09-04T20:43:15Z</time>
      </trkpt>
      <trkpt lat="45.73071" lon="4.82246">
        <ele>166.1</ele>
        <time>2021-09-04T20:43:16Z</time>
      </trkpt>
      <trkpt lat="45.73066" lon="4.8224">
        <ele>166.1</ele>
        <time>2021-09-04T20:43:18Z</time>
      </trkpt>
      <trkpt lat="45.73059" lon="4.82243">
        <ele>166.1</ele>
        <time>2021-09-04T20:43:19Z</time>
      </trkpt>
      <trkpt lat="45.73053" lon="4.82243">
        <ele>166.1</ele>
        <time>2021-09-04T20:43:20Z</time>
      </trkpt>
      <trkpt lat="45.73048" lon="4.82242">
        <ele>166.1</ele>
        <time>2021-09-04T20:43:21Z</time>
      </trkpt>
      <trkpt lat="45.73044" lon="4.82242">
        <ele>166.1</ele>
        <time>2021-09-04T20:43:22Z</time>
      </trkpt>
      <trkpt lat="45.73035" lon="4.8224">
        <ele>166</ele>
        <time>2021-09-04T20:43:24Z</time>
      </trkpt>
      <trkpt lat="45.73027" lon="4.82238">
        <ele>166</ele>
        <time>2021-09-04T20:43:26Z</time>
      </trkpt>
      <trkpt lat="45.73021" lon="4.82237">
        <ele>166</ele>
        <time>2021-09-04T20:43:27Z</time>
      </trkpt>
      <trkpt lat="45.73015" lon="4.82236">
        <ele>166</ele>
        <time>2021-09-04T20:43:29Z</time>
      </trkpt>
      <trkpt lat="45.73007" lon="4.82234">
        <ele>165.9</ele>
        <time>2021-09-04T20:43:30Z</time>
      </trkpt>
      <trkpt lat="45.73001" lon="4.82232">
        <ele>165.9</ele>
        <time>2021-09-04T20:43:32Z</time>
      </trkpt>
      <trkpt lat="45.72993" lon="4.82229">
        <ele>165.9</ele>
        <time>2021-09-04T20:43:33Z</time>
      </trkpt>
      <trkpt lat="45.72987" lon="4.82231">
        <ele>165.9</ele>
        <time>2021-09-04T20:43:35Z</time>
      </trkpt>
      <trkpt lat="45.72982" lon="4.82221">
        <ele>165.9</ele>
        <time>2021-09-04T20:43:36Z</time>
      </trkpt>
      <trkpt lat="45.72979" lon="4.82214">
        <ele>166</ele>
        <time>2021-09-04T20:43:37Z</time>
      </trkpt>
      <trkpt lat="45.72975" lon="4.82211">
        <ele>166</ele>
        <time>2021-09-04T20:43:38Z</time>
      </trkpt>
      <trkpt lat="45.72971" lon="4.82205">
        <ele>166</ele>
        <time>2021-09-04T20:43:40Z</time>
      </trkpt>
      <trkpt lat="45.72966" lon="4.822">
        <ele>166</ele>
        <time>2021-09-04T20:43:41Z</time>
      </trkpt>
      <trkpt lat="45.72962" lon="4.82196">
        <ele>166.1</ele>
        <time>2021-09-04T20:43:42Z</time>
      </trkpt>
      <trkpt lat="45.72957" lon="4.82191">
        <ele>166.1</ele>
        <time>2021-09-04T20:43:44Z</time>
      </trkpt>
      <trkpt lat="45.72951" lon="4.82185">
        <ele>166.1</ele>
        <time>2021-09-04T20:43:45Z</time>
      </trkpt>
      <trkpt lat="45.72948" lon="4.82181">
        <ele>166.1</ele>
        <time>2021-09-04T20:43:46Z</time>
      </trkpt>
      <trkpt lat="45.72942" lon="4.82175">
        <ele>166.2</ele>
        <time>2021-09-04T20:43:48Z</time>
      </trkpt>
      <trkpt lat="45.72939" lon="4.82171">
        <ele>166.2</ele>
        <time>2021-09-04T20:43:49Z</time>
      </trkpt>
      <trkpt lat="45.72935" lon="4.82167">
        <ele>166.2</ele>
        <time>2021-09-04T20:43:50Z</time>
      </trkpt>
      <trkpt lat="45.72931" lon="4.82162">
        <ele>166.3</ele>
        <time>2021-09-04T20:43:52Z</time>
      </trkpt>
      <trkpt lat="45.72927" lon="4.82158">
        <ele>166.3</ele>
        <time>2021-09-04T20:43:53Z</time>
      </trkpt>
      <trkpt lat="45.72923" lon="4.82153">
        <ele>166.3</ele>
        <time>2021-09-04T20:43:54Z</time>
      </trkpt>
      <trkpt lat="45.7292" lon="4.8215">
        <ele>166.3</ele>
        <time>2021-09-04T20:43:55Z</time>
      </trkpt>
      <trkpt lat="45.72916" lon="4.82146">
        <ele>166.4</ele>
        <time>2021-09-04T20:43:57Z</time>
      </trkpt>
      <trkpt lat="45.72913" lon="4.82143">
        <ele>166.4</ele>
        <time>2021-09-04T20:43:58Z</time>
      </trkpt>
      <trkpt lat="45.72912" lon="4.8214">
        <ele>166.4</ele>
        <time>2021-09-04T20:43:59Z</time>
      </trkpt>
      <trkpt lat="45.72912" lon="4.82137">
        <ele>166.3</ele>
        <time>2021-09-04T20:44:01Z</time>
      </trkpt>
      <trkpt lat="45.72916" lon="4.82132">
        <ele>166.2</ele>
        <time>2021-09-04T20:44:02Z</time>
      </trkpt>
      <trkpt lat="45.7292" lon="4.8213">
        <ele>166.1</ele>
        <time>2021-09-04T20:44:03Z</time>
      </trkpt>
      <trkpt lat="45.72927" lon="4.82126">
        <ele>166</ele>
        <time>2021-09-04T20:44:05Z</time>
      </trkpt>
      <trkpt lat="45.7293" lon="4.82123">
        <ele>165.9</ele>
        <time>2021-09-04T20:44:06Z</time>
      </trkpt>
      <trkpt lat="45.72928" lon="4.82115">
        <ele>165.9</ele>
        <time>2021-09-04T20:44:08Z</time>
      </trkpt>
      <trkpt lat="45.72924" lon="4.82114">
        <ele>166</ele>
        <time>2021-09-04T20:44:09Z</time>
      </trkpt>
      <trkpt lat="45.72919" lon="4.82115">
        <ele>166</ele>
        <time>2021-09-04T20:44:11Z</time>
      </trkpt>
      <trkpt lat="45.72914" lon="4.82114">
        <ele>166</ele>
        <time>2021-09-04T20:44:12Z</time>
      </trkpt>
      <trkpt lat="45.72908" lon="4.82112">
        <ele>166.1</ele>
        <time>2021-09-04T20:44:13Z</time>
      </trkpt>
      <trkpt lat="45.72904" lon="4.82111">
        <ele>166.1</ele>
        <time>2021-09-04T20:44:14Z</time>
      </trkpt>
      <trkpt lat="45.729" lon="4.82109">
        <ele>166.1</ele>
        <time>2021-09-04T20:44:15Z</time>
      </trkpt>
      <trkpt lat="45.72894" lon="4.82108">
        <ele>166</ele>
        <time>2021-09-04T20:44:17Z</time>
      </trkpt>
      <trkpt lat="45.72889" lon="4.82108">
        <ele>166</ele>
        <time>2021-09-04T20:44:18Z</time>
      </trkpt>
      <trkpt lat="45.72885" lon="4.82107">
        <ele>166</ele>
        <time>2021-09-04T20:44:19Z</time>
      </trkpt>
      <trkpt lat="45.72881" lon="4.82107">
        <ele>166</ele>
        <time>2021-09-04T20:44:20Z</time>
      </trkpt>
      <trkpt lat="45.72875" lon="4.82108">
        <ele>165.9</ele>
        <time>2021-09-04T20:44:22Z</time>
      </trkpt>
      <trkpt lat="45.7287" lon="4.82108">
        <ele>165.9</ele>
        <time>2021-09-04T20:44:23Z</time>
      </trkpt>
      <trkpt lat="45.72866" lon="4.82109">
        <ele>165.9</ele>
        <time>2021-09-04T20:44:24Z</time>
      </trkpt>
      <trkpt lat="45.7286" lon="4.8211">
        <ele>165.9</ele>
        <time>2021-09-04T20:44:26Z</time>
      </trkpt>
      <trkpt lat="45.72856" lon="4.82112">
        <ele>165.9</ele>
        <time>2021-09-04T20:44:27Z</time>
      </trkpt>
      <trkpt lat="45.72851" lon="4.82115">
        <ele>165.9</ele>
        <time>2021-09-04T20:44:28Z</time>
      </trkpt>
      <trkpt lat="45.72846" lon="4.82116">
        <ele>165.9</ele>
        <time>2021-09-04T20:44:29Z</time>
      </trkpt>
      <trkpt lat="45.72841" lon="4.82122">
        <ele>165.9</ele>
        <time>2021-09-04T20:44:31Z</time>
      </trkpt>
      <trkpt lat="45.72836" lon="4.82123">
        <ele>165.9</ele>
        <time>2021-09-04T20:44:32Z</time>
      </trkpt>
      <trkpt lat="45.72831" lon="4.82122">
        <ele>165.9</ele>
        <time>2021-09-04T20:44:33Z</time>
      </trkpt>
      <trkpt lat="45.72826" lon="4.82122">
        <ele>165.9</ele>
        <time>2021-09-04T20:44:35Z</time>
      </trkpt>
      <trkpt lat="45.72818" lon="4.82122">
        <ele>166</ele>
        <time>2021-09-04T20:44:36Z</time>
      </trkpt>
      <trkpt lat="45.72814" lon="4.82123">
        <ele>166</ele>
        <time>2021-09-04T20:44:37Z</time>
      </trkpt>
      <trkpt lat="45.72808" lon="4.82123">
        <ele>166</ele>
        <time>2021-09-04T20:44:39Z</time>
      </trkpt>
      <trkpt lat="45.72804" lon="4.8212">
        <ele>166</ele>
        <time>2021-09-04T20:44:40Z</time>
      </trkpt>
      <trkpt lat="45.728" lon="4.82117">
        <ele>166</ele>
        <time>2021-09-04T20:44:41Z</time>
      </trkpt>
      <trkpt lat="45.72792" lon="4.82111">
        <ele>166</ele>
        <time>2021-09-04T20:44:43Z</time>
      </trkpt>
      <trkpt lat="45.72788" lon="4.8211">
        <ele>166</ele>
        <time>2021-09-04T20:44:44Z</time>
      </trkpt>
      <trkpt lat="45.72783" lon="4.82109">
        <ele>166</ele>
        <time>2021-09-04T20:44:45Z</time>
      </trkpt>
      <trkpt lat="45.72776" lon="4.82107">
        <ele>166</ele>
        <time>2021-09-04T20:44:47Z</time>
      </trkpt>
      <trkpt lat="45.7277" lon="4.82106">
        <ele>166</ele>
        <time>2021-09-04T20:44:48Z</time>
      </trkpt>
      <trkpt lat="45.72766" lon="4.82106">
        <ele>165.9</ele>
        <time>2021-09-04T20:44:49Z</time>
      </trkpt>
      <trkpt lat="45.72759" lon="4.82107">
        <ele>165.9</ele>
        <time>2021-09-04T20:44:51Z</time>
      </trkpt>
      <trkpt lat="45.72752" lon="4.82109">
        <ele>165.9</ele>
        <time>2021-09-04T20:44:52Z</time>
      </trkpt>
      <trkpt lat="45.72745" lon="4.82112">
        <ele>165.8</ele>
        <time>2021-09-04T20:44:54Z</time>
      </trkpt>
      <trkpt lat="45.72737" lon="4.82113">
        <ele>165.8</ele>
        <time>2021-09-04T20:44:56Z</time>
      </trkpt>
      <trkpt lat="45.7273" lon="4.82109">
        <ele>165.7</ele>
        <time>2021-09-04T20:44:58Z</time>
      </trkpt>
      <trkpt lat="45.72724" lon="4.82104">
        <ele>165.7</ele>
        <time>2021-09-04T20:44:59Z</time>
      </trkpt>
      <trkpt lat="45.72717" lon="4.82098">
        <ele>165.7</ele>
        <time>2021-09-04T20:45:01Z</time>
      </trkpt>
      <trkpt lat="45.72713" lon="4.82095">
        <ele>165.6</ele>
        <time>2021-09-04T20:45:02Z</time>
      </trkpt>
      <trkpt lat="45.72704" lon="4.82088">
        <ele>165.6</ele>
        <time>2021-09-04T20:45:04Z</time>
      </trkpt>
      <trkpt lat="45.727" lon="4.82088">
        <ele>165.6</ele>
        <time>2021-09-04T20:45:05Z</time>
      </trkpt>
      <trkpt lat="45.72695" lon="4.82087">
        <ele>165.6</ele>
        <time>2021-09-04T20:45:06Z</time>
      </trkpt>
      <trkpt lat="45.72691" lon="4.82086">
        <ele>165.6</ele>
        <time>2021-09-04T20:45:07Z</time>
      </trkpt>
      <trkpt lat="45.72687" lon="4.82085">
        <ele>165.6</ele>
        <time>2021-09-04T20:45:08Z</time>
      </trkpt>
      <trkpt lat="45.7268" lon="4.82085">
        <ele>165.6</ele>
        <time>2021-09-04T20:45:10Z</time>
      </trkpt>
      <trkpt lat="45.72673" lon="4.82084">
        <ele>165.6</ele>
        <time>2021-09-04T20:45:11Z</time>
      </trkpt>
      <trkpt lat="45.72664" lon="4.82085">
        <ele>165.6</ele>
        <time>2021-09-04T20:45:13Z</time>
      </trkpt>
      <trkpt lat="45.7266" lon="4.82086">
        <ele>165.6</ele>
        <time>2021-09-04T20:45:14Z</time>
      </trkpt>
      <trkpt lat="45.72653" lon="4.82087">
        <ele>165.6</ele>
        <time>2021-09-04T20:45:16Z</time>
      </trkpt>
      <trkpt lat="45.72647" lon="4.82086">
        <ele>165.6</ele>
        <time>2021-09-04T20:45:17Z</time>
      </trkpt>
      <trkpt lat="45.72639" lon="4.82087">
        <ele>165.6</ele>
        <time>2021-09-04T20:45:19Z</time>
      </trkpt>
      <trkpt lat="45.72636" lon="4.82087">
        <ele>165.6</ele>
        <time>2021-09-04T20:45:20Z</time>
      </trkpt>
      <trkpt lat="45.72632" lon="4.82087">
        <ele>165.6</ele>
        <time>2021-09-04T20:45:21Z</time>
      </trkpt>
      <trkpt lat="45.72621" lon="4.82089">
        <ele>165.6</ele>
        <time>2021-09-04T20:45:23Z</time>
      </trkpt>
      <trkpt lat="45.72613" lon="4.8209">
        <ele>165.6</ele>
        <time>2021-09-04T20:45:25Z</time>
      </trkpt>
      <trkpt lat="45.72606" lon="4.8209">
        <ele>165.6</ele>
        <time>2021-09-04T20:45:26Z</time>
      </trkpt>
      <trkpt lat="45.72601" lon="4.8209">
        <ele>165.6</ele>
        <time>2021-09-04T20:45:27Z</time>
      </trkpt>
      <trkpt lat="45.72594" lon="4.82091">
        <ele>165.6</ele>
        <time>2021-09-04T20:45:29Z</time>
      </trkpt>
      <trkpt lat="45.72589" lon="4.82092">
        <ele>165.6</ele>
        <time>2021-09-04T20:45:30Z</time>
      </trkpt>
      <trkpt lat="45.72586" lon="4.82093">
        <ele>165.6</ele>
        <time>2021-09-04T20:45:31Z</time>
      </trkpt>
      <trkpt lat="45.72577" lon="4.82096">
        <ele>165.6</ele>
        <time>2021-09-04T20:45:33Z</time>
      </trkpt>
      <trkpt lat="45.72572" lon="4.82092">
        <ele>165.7</ele>
        <time>2021-09-04T20:45:35Z</time>
      </trkpt>
      <trkpt lat="45.72565" lon="4.82098">
        <ele>165.7</ele>
        <time>2021-09-04T20:45:36Z</time>
      </trkpt>
      <trkpt lat="45.7256" lon="4.821">
        <ele>165.7</ele>
        <time>2021-09-04T20:45:37Z</time>
      </trkpt>
      <trkpt lat="45.72555" lon="4.82102">
        <ele>165.8</ele>
        <time>2021-09-04T20:45:39Z</time>
      </trkpt>
      <trkpt lat="45.72552" lon="4.82104">
        <ele>165.8</ele>
        <time>2021-09-04T20:45:40Z</time>
      </trkpt>
      <trkpt lat="45.72545" lon="4.82109">
        <ele>165.8</ele>
        <time>2021-09-04T20:45:42Z</time>
      </trkpt>
      <trkpt lat="45.72539" lon="4.82114">
        <ele>165.9</ele>
        <time>2021-09-04T20:45:43Z</time>
      </trkpt>
      <trkpt lat="45.72531" lon="4.82121">
        <ele>166</ele>
        <time>2021-09-04T20:45:45Z</time>
      </trkpt>
      <trkpt lat="45.72524" lon="4.82125">
        <ele>166</ele>
        <time>2021-09-04T20:45:47Z</time>
      </trkpt>
      <trkpt lat="45.7252" lon="4.82128">
        <ele>166</ele>
        <time>2021-09-04T20:45:48Z</time>
      </trkpt>
      <trkpt lat="45.72517" lon="4.82131">
        <ele>166</ele>
        <time>2021-09-04T20:45:49Z</time>
      </trkpt>
      <trkpt lat="45.72512" lon="4.82136">
        <ele>166</ele>
        <time>2021-09-04T20:45:51Z</time>
      </trkpt>
      <trkpt lat="45.72507" lon="4.8214">
        <ele>166</ele>
        <time>2021-09-04T20:45:52Z</time>
      </trkpt>
      <trkpt lat="45.72504" lon="4.82144">
        <ele>166</ele>
        <time>2021-09-04T20:45:53Z</time>
      </trkpt>
      <trkpt lat="45.72498" lon="4.8215">
        <ele>166</ele>
        <time>2021-09-04T20:45:55Z</time>
      </trkpt>
      <trkpt lat="45.72492" lon="4.82157">
        <ele>166</ele>
        <time>2021-09-04T20:45:57Z</time>
      </trkpt>
      <trkpt lat="45.72488" lon="4.82163">
        <ele>166</ele>
        <time>2021-09-04T20:45:58Z</time>
      </trkpt>
      <trkpt lat="45.72485" lon="4.82167">
        <ele>165.9</ele>
        <time>2021-09-04T20:45:59Z</time>
      </trkpt>
      <trkpt lat="45.72481" lon="4.82173">
        <ele>165.9</ele>
        <time>2021-09-04T20:46:01Z</time>
      </trkpt>
      <trkpt lat="45.72475" lon="4.82179">
        <ele>165.9</ele>
        <time>2021-09-04T20:46:02Z</time>
      </trkpt>
      <trkpt lat="45.7247" lon="4.82187">
        <ele>165.8</ele>
        <time>2021-09-04T20:46:04Z</time>
      </trkpt>
      <trkpt lat="45.72465" lon="4.82195">
        <ele>165.8</ele>
        <time>2021-09-04T20:46:06Z</time>
      </trkpt>
      <trkpt lat="45.72461" lon="4.82199">
        <ele>165.8</ele>
        <time>2021-09-04T20:46:07Z</time>
      </trkpt>
      <trkpt lat="45.72459" lon="4.82204">
        <ele>165.8</ele>
        <time>2021-09-04T20:46:08Z</time>
      </trkpt>
      <trkpt lat="45.72456" lon="4.8221">
        <ele>165.7</ele>
        <time>2021-09-04T20:46:10Z</time>
      </trkpt>
      <trkpt lat="45.72451" lon="4.82217">
        <ele>165.7</ele>
        <time>2021-09-04T20:46:11Z</time>
      </trkpt>
      <trkpt lat="45.72449" lon="4.82221">
        <ele>165.7</ele>
        <time>2021-09-04T20:46:12Z</time>
      </trkpt>
      <trkpt lat="45.72448" lon="4.82231">
        <ele>165.8</ele>
        <time>2021-09-04T20:46:14Z</time>
      </trkpt>
      <trkpt lat="45.7245" lon="4.82238">
        <ele>165.8</ele>
        <time>2021-09-04T20:46:15Z</time>
      </trkpt>
      <trkpt lat="45.72453" lon="4.82243">
        <ele>165.8</ele>
        <time>2021-09-04T20:46:16Z</time>
      </trkpt>
      <trkpt lat="45.72458" lon="4.82249">
        <ele>165.7</ele>
        <time>2021-09-04T20:46:18Z</time>
      </trkpt>
      <trkpt lat="45.72463" lon="4.82255">
        <ele>165.7</ele>
        <time>2021-09-04T20:46:19Z</time>
      </trkpt>
      <trkpt lat="45.72469" lon="4.82263">
        <ele>165.6</ele>
        <time>2021-09-04T20:46:21Z</time>
      </trkpt>
      <trkpt lat="45.72474" lon="4.82271">
        <ele>165.6</ele>
        <time>2021-09-04T20:46:23Z</time>
      </trkpt>
      <trkpt lat="45.7248" lon="4.82279">
        <ele>165.6</ele>
        <time>2021-09-04T20:46:24Z</time>
      </trkpt>
      <trkpt lat="45.72486" lon="4.82288">
        <ele>165.5</ele>
        <time>2021-09-04T20:46:26Z</time>
      </trkpt>
      <trkpt lat="45.72489" lon="4.82293">
        <ele>165.5</ele>
        <time>2021-09-04T20:46:27Z</time>
      </trkpt>
      <trkpt lat="45.72494" lon="4.82303">
        <ele>165.5</ele>
        <time>2021-09-04T20:46:29Z</time>
      </trkpt>
      <trkpt lat="45.72497" lon="4.82308">
        <ele>165.5</ele>
        <time>2021-09-04T20:46:30Z</time>
      </trkpt>
      <trkpt lat="45.72502" lon="4.82315">
        <ele>165.5</ele>
        <time>2021-09-04T20:46:32Z</time>
      </trkpt>
      <trkpt lat="45.72507" lon="4.82323">
        <ele>165.6</ele>
        <time>2021-09-04T20:46:34Z</time>
      </trkpt>
      <trkpt lat="45.7251" lon="4.82327">
        <ele>165.6</ele>
        <time>2021-09-04T20:46:35Z</time>
      </trkpt>
      <trkpt lat="45.72513" lon="4.82332">
        <ele>165.6</ele>
        <time>2021-09-04T20:46:36Z</time>
      </trkpt>
      <trkpt lat="45.72518" lon="4.8234">
        <ele>165.6</ele>
        <time>2021-09-04T20:46:38Z</time>
      </trkpt>
      <trkpt lat="45.7252" lon="4.82344">
        <ele>165.6</ele>
        <time>2021-09-04T20:46:39Z</time>
      </trkpt>
      <trkpt lat="45.72517" lon="4.82348">
        <ele>165.6</ele>
        <time>2021-09-04T20:46:41Z</time>
      </trkpt>
      <trkpt lat="45.72514" lon="4.82349">
        <ele>165.6</ele>
        <time>2021-09-04T20:46:42Z</time>
      </trkpt>
      <trkpt lat="45.72511" lon="4.82353">
        <ele>165.6</ele>
        <time>2021-09-04T20:46:44Z</time>
      </trkpt>
      <trkpt lat="45.72509" lon="4.82354">
        <ele>165.6</ele>
        <time>2021-09-04T20:46:45Z</time>
      </trkpt>
      <trkpt lat="45.72508" lon="4.82354">
        <ele>165.6</ele>
        <time>2021-09-04T20:46:46Z</time>
      </trkpt>
      <trkpt lat="45.72508" lon="4.82353">
        <ele>165.6</ele>
        <time>2021-09-04T20:46:47Z</time>
      </trkpt>
      <trkpt lat="45.72509" lon="4.82353">
        <ele>165.6</ele>
        <time>2021-09-04T20:46:49Z</time>
      </trkpt>
      <trkpt lat="45.72509" lon="4.82352">
        <ele>165.6</ele>
        <time>2021-09-04T20:46:50Z</time>
      </trkpt>
      <trkpt lat="45.72509" lon="4.82352">
        <ele>165.6</ele>
        <time>2021-09-04T20:46:51Z</time>
      </trkpt>
      <trkpt lat="45.72508" lon="4.82351">
        <ele>165.6</ele>
        <time>2021-09-04T20:46:53Z</time>
      </trkpt>
      <trkpt lat="45.72509" lon="4.82351">
        <ele>165.6</ele>
        <time>2021-09-04T20:46:54Z</time>
      </trkpt>
      <trkpt lat="45.72508" lon="4.82351">
        <ele>165.6</ele>
        <time>2021-09-04T20:46:56Z</time>
      </trkpt>
      <trkpt lat="45.72507" lon="4.8235">
        <ele>165.6</ele>
        <time>2021-09-04T20:46:58Z</time>
      </trkpt>
      <trkpt lat="45.72506" lon="4.82349">
        <ele>165.6</ele>
        <time>2021-09-04T20:46:59Z</time>
      </trkpt>
      <trkpt lat="45.72505" lon="4.82346">
        <ele>165.6</ele>
        <time>2021-09-04T20:47:00Z</time>
      </trkpt>
      <trkpt lat="45.72504" lon="4.82346">
        <ele>165.6</ele>
        <time>2021-09-04T20:47:02Z</time>
      </trkpt>
      <trkpt lat="45.72504" lon="4.82346">
        <ele>165.6</ele>
        <time>2021-09-04T20:47:03Z</time>
      </trkpt>
      <trkpt lat="45.72502" lon="4.82347">
        <ele>165.6</ele>
        <time>2021-09-04T20:47:05Z</time>
      </trkpt>
      <trkpt lat="45.72502" lon="4.82347">
        <ele>165.6</ele>
        <time>2021-09-04T20:47:06Z</time>
      </trkpt>
      <trkpt lat="45.725" lon="4.82347">
        <ele>165.6</ele>
        <time>2021-09-04T20:47:08Z</time>
      </trkpt>
      <trkpt lat="45.72499" lon="4.82348">
        <ele>165.6</ele>
        <time>2021-09-04T20:47:09Z</time>
      </trkpt>
      <trkpt lat="45.72498" lon="4.82349">
        <ele>165.6</ele>
        <time>2021-09-04T20:47:10Z</time>
      </trkpt>
      <trkpt lat="45.72496" lon="4.8235">
        <ele>165.6</ele>
        <time>2021-09-04T20:47:11Z</time>
      </trkpt>
      <trkpt lat="45.72495" lon="4.82351">
        <ele>165.6</ele>
        <time>2021-09-04T20:47:13Z</time>
      </trkpt>
      <trkpt lat="45.72495" lon="4.82352">
        <ele>165.6</ele>
        <time>2021-09-04T20:47:14Z</time>
      </trkpt>
      <trkpt lat="45.72494" lon="4.82352">
        <ele>165.6</ele>
        <time>2021-09-04T20:47:15Z</time>
      </trkpt>
      <trkpt lat="45.72493" lon="4.82355">
        <ele>165.6</ele>
        <time>2021-09-04T20:47:17Z</time>
      </trkpt>
      <trkpt lat="45.72492" lon="4.82355">
        <ele>165.6</ele>
        <time>2021-09-04T20:47:18Z</time>
      </trkpt>
      <trkpt lat="45.72491" lon="4.82354">
        <ele>165.6</ele>
        <time>2021-09-04T20:47:20Z</time>
      </trkpt>
      <trkpt lat="45.72491" lon="4.82354">
        <ele>165.6</ele>
        <time>2021-09-04T20:47:21Z</time>
      </trkpt>
      <trkpt lat="45.72491" lon="4.82354">
        <ele>165.6</ele>
        <time>2021-09-04T20:47:22Z</time>
      </trkpt>
    </trkseg>
  </trk>
</gpx>